<?xml version="1.0" encoding="UTF-8"?>
<gpx
  version="1.1"
  creator="GPSBabel - http://www.gpsbabel.org"
  xmlns:xsi="http://www.w3.org/2001/XMLSchema-instance"
  xmlns="http://www.topografix.com/GPX/1/1"
  xsi:schemaLocation="http://www.topografix.com/GPX/1/0 http://www.topografix.com/GPX/1/0/gpx.xsd">
<metadata>
<time>2012-06-23T09:02:35Z</time>
<bounds minlat="32.580745697" minlon="34.991744995" maxlat="32.597427368" maxlon="35.020050049"/>
</metadata>
<trk>
  <name>Holux2012/06/23_06:37</name>
<trkseg>
<trkpt lat="32.597427368" lon="35.004337311">
  <ele>86.747101</ele>
  <time>2012-06-23T03:37:26Z</time>
<extensions>
<speed>0.1</speed>
<temp>0.00</temp>
<bpm>0</bpm>
<rpm>0.00</rpm>
</extensions>
</trkpt>
<trkpt lat="32.597415924" lon="35.004310608">
  <ele>88.331085</ele>
  <time>2012-06-23T03:37:30Z</time>
<extensions>
<speed>0.1</speed>
<temp>0.00</temp>
<bpm>0</bpm>
<rpm>0.00</rpm>
</extensions>
</trkpt>
<trkpt lat="32.597389221" lon="35.004299164">
  <ele>88.331085</ele>
  <time>2012-06-23T03:37:34Z</time>
<extensions>
<speed>0.1</speed>
<temp>0.00</temp>
<bpm>0</bpm>
<rpm>0.00</rpm>
</extensions>
</trkpt>
<trkpt lat="32.597351074" lon="35.004299164">
  <ele>88.721710</ele>
  <time>2012-06-23T03:37:41Z</time>
<extensions>
<speed>2.0</speed>
<temp>0.00</temp>
<bpm>0</bpm>
<rpm>0.00</rpm>
</extensions>
</trkpt>
<trkpt lat="32.597312927" lon="35.004261017">
  <ele>88.821320</ele>
  <time>2012-06-23T03:37:43Z</time>
<extensions>
<speed>2.7</speed>
<temp>0.00</temp>
<bpm>0</bpm>
<rpm>0.00</rpm>
</extensions>
</trkpt>
<trkpt lat="32.597297668" lon="35.004234314">
  <ele>88.739288</ele>
  <time>2012-06-23T03:37:44Z</time>
<extensions>
<speed>2.7</speed>
<temp>0.00</temp>
<bpm>0</bpm>
<rpm>0.00</rpm>
</extensions>
</trkpt>
<trkpt lat="32.597251892" lon="35.004196167">
  <ele>88.075226</ele>
  <time>2012-06-23T03:37:46Z</time>
<extensions>
<speed>3.0</speed>
<temp>0.00</temp>
<bpm>0</bpm>
<rpm>0.00</rpm>
</extensions>
</trkpt>
<trkpt lat="32.597225189" lon="35.004180908">
  <ele>87.444366</ele>
  <time>2012-06-23T03:37:47Z</time>
<extensions>
<speed>3.2</speed>
<temp>0.00</temp>
<bpm>0</bpm>
<rpm>0.00</rpm>
</extensions>
</trkpt>
<trkpt lat="32.597190857" lon="35.004173279">
  <ele>86.897491</ele>
  <time>2012-06-23T03:37:48Z</time>
<extensions>
<speed>3.8</speed>
<temp>0.00</temp>
<bpm>0</bpm>
<rpm>0.00</rpm>
</extensions>
</trkpt>
<trkpt lat="32.597152710" lon="35.004161835">
  <ele>86.694366</ele>
  <time>2012-06-23T03:37:49Z</time>
<extensions>
<speed>3.9</speed>
<temp>0.00</temp>
<bpm>0</bpm>
<rpm>0.00</rpm>
</extensions>
</trkpt>
<trkpt lat="32.597118378" lon="35.004150391">
  <ele>86.708038</ele>
  <time>2012-06-23T03:37:50Z</time>
<extensions>
<speed>3.8</speed>
<temp>0.00</temp>
<bpm>0</bpm>
<rpm>0.00</rpm>
</extensions>
</trkpt>
<trkpt lat="32.597080231" lon="35.004138947">
  <ele>86.459991</ele>
  <time>2012-06-23T03:37:51Z</time>
<extensions>
<speed>3.5</speed>
<temp>0.00</temp>
<bpm>0</bpm>
<rpm>0.00</rpm>
</extensions>
</trkpt>
<trkpt lat="32.597045898" lon="35.004131317">
  <ele>86.448273</ele>
  <time>2012-06-23T03:37:52Z</time>
<extensions>
<speed>4.1</speed>
<temp>0.00</temp>
<bpm>0</bpm>
<rpm>0.00</rpm>
</extensions>
</trkpt>
<trkpt lat="32.597003937" lon="35.004123688">
  <ele>86.786163</ele>
  <time>2012-06-23T03:37:53Z</time>
<extensions>
<speed>4.0</speed>
<temp>0.00</temp>
<bpm>0</bpm>
<rpm>0.00</rpm>
</extensions>
</trkpt>
<trkpt lat="32.596965790" lon="35.004119873">
  <ele>87.377960</ele>
  <time>2012-06-23T03:37:54Z</time>
<extensions>
<speed>4.0</speed>
<temp>0.00</temp>
<bpm>0</bpm>
<rpm>0.00</rpm>
</extensions>
</trkpt>
<trkpt lat="32.596923828" lon="35.004123688">
  <ele>87.280304</ele>
  <time>2012-06-23T03:37:55Z</time>
<extensions>
<speed>4.0</speed>
<temp>0.00</temp>
<bpm>0</bpm>
<rpm>0.00</rpm>
</extensions>
</trkpt>
<trkpt lat="32.596889496" lon="35.004123688">
  <ele>87.315460</ele>
  <time>2012-06-23T03:37:56Z</time>
<extensions>
<speed>3.9</speed>
<temp>0.00</temp>
<bpm>0</bpm>
<rpm>0.00</rpm>
</extensions>
</trkpt>
<trkpt lat="32.596851349" lon="35.004123688">
  <ele>87.016632</ele>
  <time>2012-06-23T03:37:57Z</time>
<extensions>
<speed>3.8</speed>
<temp>0.00</temp>
<bpm>0</bpm>
<rpm>0.00</rpm>
</extensions>
</trkpt>
<trkpt lat="32.596813202" lon="35.004123688">
  <ele>87.752960</ele>
  <time>2012-06-23T03:37:58Z</time>
<extensions>
<speed>3.7</speed>
<temp>0.00</temp>
<bpm>0</bpm>
<rpm>0.00</rpm>
</extensions>
</trkpt>
<trkpt lat="32.596778870" lon="35.004127502">
  <ele>87.743195</ele>
  <time>2012-06-23T03:37:59Z</time>
<extensions>
<speed>3.4</speed>
<temp>0.00</temp>
<bpm>0</bpm>
<rpm>0.00</rpm>
</extensions>
</trkpt>
<trkpt lat="32.596744537" lon="35.004127502">
  <ele>87.479523</ele>
  <time>2012-06-23T03:38:00Z</time>
<extensions>
<speed>3.3</speed>
<temp>0.00</temp>
<bpm>0</bpm>
<rpm>0.00</rpm>
</extensions>
</trkpt>
<trkpt lat="32.596714020" lon="35.004123688">
  <ele>87.180695</ele>
  <time>2012-06-23T03:38:01Z</time>
<extensions>
<speed>3.3</speed>
<temp>0.00</temp>
<bpm>0</bpm>
<rpm>0.00</rpm>
</extensions>
</trkpt>
<trkpt lat="32.596656799" lon="35.004123688">
  <ele>87.672882</ele>
  <time>2012-06-23T03:38:03Z</time>
<extensions>
<speed>3.3</speed>
<temp>0.00</temp>
<bpm>0</bpm>
<rpm>0.00</rpm>
</extensions>
</trkpt>
<trkpt lat="32.596622467" lon="35.004123688">
  <ele>87.104523</ele>
  <time>2012-06-23T03:38:04Z</time>
<extensions>
<speed>3.6</speed>
<temp>0.00</temp>
<bpm>0</bpm>
<rpm>0.00</rpm>
</extensions>
</trkpt>
<trkpt lat="32.596588135" lon="35.004131317">
  <ele>86.485382</ele>
  <time>2012-06-23T03:38:05Z</time>
<extensions>
<speed>4.0</speed>
<temp>0.00</temp>
<bpm>0</bpm>
<rpm>0.00</rpm>
</extensions>
</trkpt>
<trkpt lat="32.596549988" lon="35.004138947">
  <ele>85.741241</ele>
  <time>2012-06-23T03:38:06Z</time>
<extensions>
<speed>4.0</speed>
<temp>0.00</temp>
<bpm>0</bpm>
<rpm>0.00</rpm>
</extensions>
</trkpt>
<trkpt lat="32.596515656" lon="35.004138947">
  <ele>85.340851</ele>
  <time>2012-06-23T03:38:07Z</time>
<extensions>
<speed>3.8</speed>
<temp>0.00</temp>
<bpm>0</bpm>
<rpm>0.00</rpm>
</extensions>
</trkpt>
<trkpt lat="32.596462250" lon="35.004146576">
  <ele>87.381866</ele>
  <time>2012-06-23T03:38:08Z</time>
<extensions>
<speed>3.4</speed>
<temp>0.00</temp>
<bpm>0</bpm>
<rpm>0.00</rpm>
</extensions>
</trkpt>
<trkpt lat="32.596431732" lon="35.004150391">
  <ele>87.202179</ele>
  <time>2012-06-23T03:38:09Z</time>
<extensions>
<speed>3.4</speed>
<temp>0.00</temp>
<bpm>0</bpm>
<rpm>0.00</rpm>
</extensions>
</trkpt>
<trkpt lat="32.596397400" lon="35.004165649">
  <ele>86.920929</ele>
  <time>2012-06-23T03:38:10Z</time>
<extensions>
<speed>3.5</speed>
<temp>0.00</temp>
<bpm>0</bpm>
<rpm>0.00</rpm>
</extensions>
</trkpt>
<trkpt lat="32.596351624" lon="35.004177094">
  <ele>87.950226</ele>
  <time>2012-06-23T03:38:11Z</time>
<extensions>
<speed>3.2</speed>
<temp>0.00</temp>
<bpm>0</bpm>
<rpm>0.00</rpm>
</extensions>
</trkpt>
<trkpt lat="32.596321106" lon="35.004180908">
  <ele>88.352570</ele>
  <time>2012-06-23T03:38:12Z</time>
<extensions>
<speed>3.1</speed>
<temp>0.00</temp>
<bpm>0</bpm>
<rpm>0.00</rpm>
</extensions>
</trkpt>
<trkpt lat="32.596286774" lon="35.004196167">
  <ele>88.792023</ele>
  <time>2012-06-23T03:38:13Z</time>
<extensions>
<speed>2.9</speed>
<temp>0.00</temp>
<bpm>0</bpm>
<rpm>0.00</rpm>
</extensions>
</trkpt>
<trkpt lat="32.596237183" lon="35.004207611">
  <ele>87.918976</ele>
  <time>2012-06-23T03:38:15Z</time>
<extensions>
<speed>2.4</speed>
<temp>0.00</temp>
<bpm>0</bpm>
<rpm>0.00</rpm>
</extensions>
</trkpt>
<trkpt lat="32.596187592" lon="35.004222870">
  <ele>86.559601</ele>
  <time>2012-06-23T03:38:17Z</time>
<extensions>
<speed>2.8</speed>
<temp>0.00</temp>
<bpm>0</bpm>
<rpm>0.00</rpm>
</extensions>
</trkpt>
<trkpt lat="32.596153259" lon="35.004230499">
  <ele>85.870148</ele>
  <time>2012-06-23T03:38:18Z</time>
<extensions>
<speed>3.7</speed>
<temp>0.00</temp>
<bpm>0</bpm>
<rpm>0.00</rpm>
</extensions>
</trkpt>
<trkpt lat="32.596122742" lon="35.004238129">
  <ele>85.354523</ele>
  <time>2012-06-23T03:38:19Z</time>
<extensions>
<speed>4.1</speed>
<temp>0.00</temp>
<bpm>0</bpm>
<rpm>0.00</rpm>
</extensions>
</trkpt>
<trkpt lat="32.596084595" lon="35.004241943">
  <ele>84.903351</ele>
  <time>2012-06-23T03:38:20Z</time>
<extensions>
<speed>4.2</speed>
<temp>0.00</temp>
<bpm>0</bpm>
<rpm>0.00</rpm>
</extensions>
</trkpt>
<trkpt lat="32.596046448" lon="35.004241943">
  <ele>84.049835</ele>
  <time>2012-06-23T03:38:21Z</time>
<extensions>
<speed>4.3</speed>
<temp>0.00</temp>
<bpm>0</bpm>
<rpm>0.00</rpm>
</extensions>
</trkpt>
<trkpt lat="32.596004486" lon="35.004245758">
  <ele>83.284210</ele>
  <time>2012-06-23T03:38:22Z</time>
<extensions>
<speed>4.9</speed>
<temp>0.00</temp>
<bpm>0</bpm>
<rpm>0.00</rpm>
</extensions>
</trkpt>
<trkpt lat="32.595958710" lon="35.004241943">
  <ele>82.975616</ele>
  <time>2012-06-23T03:38:23Z</time>
<extensions>
<speed>5.3</speed>
<temp>0.00</temp>
<bpm>0</bpm>
<rpm>0.00</rpm>
</extensions>
</trkpt>
<trkpt lat="32.595909119" lon="35.004249573">
  <ele>81.536163</ele>
  <time>2012-06-23T03:38:24Z</time>
<extensions>
<speed>5.9</speed>
<temp>0.00</temp>
<bpm>0</bpm>
<rpm>0.00</rpm>
</extensions>
</trkpt>
<trkpt lat="32.595851898" lon="35.004253387">
  <ele>80.692413</ele>
  <time>2012-06-23T03:38:25Z</time>
<extensions>
<speed>6.2</speed>
<temp>0.00</temp>
<bpm>0</bpm>
<rpm>0.00</rpm>
</extensions>
</trkpt>
<trkpt lat="32.595794678" lon="35.004261017">
  <ele>80.186554</ele>
  <time>2012-06-23T03:38:26Z</time>
<extensions>
<speed>6.1</speed>
<temp>0.00</temp>
<bpm>0</bpm>
<rpm>0.00</rpm>
</extensions>
</trkpt>
<trkpt lat="32.595733643" lon="35.004257202">
  <ele>79.756866</ele>
  <time>2012-06-23T03:38:27Z</time>
<extensions>
<speed>6.4</speed>
<temp>0.00</temp>
<bpm>0</bpm>
<rpm>0.00</rpm>
</extensions>
</trkpt>
<trkpt lat="32.595672607" lon="35.004261017">
  <ele>78.745148</ele>
  <time>2012-06-23T03:38:28Z</time>
<extensions>
<speed>7.2</speed>
<temp>0.00</temp>
<bpm>0</bpm>
<rpm>0.00</rpm>
</extensions>
</trkpt>
<trkpt lat="32.595611572" lon="35.004264832">
  <ele>77.190460</ele>
  <time>2012-06-23T03:38:29Z</time>
<extensions>
<speed>6.9</speed>
<temp>0.00</temp>
<bpm>0</bpm>
<rpm>0.00</rpm>
</extensions>
</trkpt>
<trkpt lat="32.595546722" lon="35.004276276">
  <ele>76.106476</ele>
  <time>2012-06-23T03:38:30Z</time>
<extensions>
<speed>7.1</speed>
<temp>0.00</temp>
<bpm>0</bpm>
<rpm>0.00</rpm>
</extensions>
</trkpt>
<trkpt lat="32.595481873" lon="35.004287720">
  <ele>74.688507</ele>
  <time>2012-06-23T03:38:31Z</time>
<extensions>
<speed>6.9</speed>
<temp>0.00</temp>
<bpm>0</bpm>
<rpm>0.00</rpm>
</extensions>
</trkpt>
<trkpt lat="32.595394135" lon="35.004318237">
  <ele>76.817413</ele>
  <time>2012-06-23T03:38:32Z</time>
<extensions>
<speed>7.0</speed>
<temp>0.00</temp>
<bpm>0</bpm>
<rpm>0.00</rpm>
</extensions>
</trkpt>
<trkpt lat="32.595325470" lon="35.004333496">
  <ele>77.293976</ele>
  <time>2012-06-23T03:38:33Z</time>
<extensions>
<speed>6.6</speed>
<temp>0.00</temp>
<bpm>0</bpm>
<rpm>0.00</rpm>
</extensions>
</trkpt>
<trkpt lat="32.595268250" lon="35.004341125">
  <ele>76.518585</ele>
  <time>2012-06-23T03:38:34Z</time>
<extensions>
<speed>6.4</speed>
<temp>0.00</temp>
<bpm>0</bpm>
<rpm>0.00</rpm>
</extensions>
</trkpt>
<trkpt lat="32.595199585" lon="35.004356384">
  <ele>76.184601</ele>
  <time>2012-06-23T03:38:35Z</time>
<extensions>
<speed>6.7</speed>
<temp>0.00</temp>
<bpm>0</bpm>
<rpm>0.00</rpm>
</extensions>
</trkpt>
<trkpt lat="32.595119476" lon="35.004371643">
  <ele>77.075226</ele>
  <time>2012-06-23T03:38:36Z</time>
<extensions>
<speed>6.6</speed>
<temp>0.00</temp>
<bpm>0</bpm>
<rpm>0.00</rpm>
</extensions>
</trkpt>
<trkpt lat="32.595046997" lon="35.004386902">
  <ele>77.389679</ele>
  <time>2012-06-23T03:38:37Z</time>
<extensions>
<speed>6.5</speed>
<temp>0.00</temp>
<bpm>0</bpm>
<rpm>0.00</rpm>
</extensions>
</trkpt>
<trkpt lat="32.594982147" lon="35.004394531">
  <ele>77.358429</ele>
  <time>2012-06-23T03:38:38Z</time>
<extensions>
<speed>6.8</speed>
<temp>0.00</temp>
<bpm>0</bpm>
<rpm>0.00</rpm>
</extensions>
</trkpt>
<trkpt lat="32.594921112" lon="35.004409790">
  <ele>77.838898</ele>
  <time>2012-06-23T03:38:39Z</time>
<extensions>
<speed>6.5</speed>
<temp>0.00</temp>
<bpm>0</bpm>
<rpm>0.00</rpm>
</extensions>
</trkpt>
<trkpt lat="32.594867706" lon="35.004425049">
  <ele>77.545929</ele>
  <time>2012-06-23T03:38:40Z</time>
<extensions>
<speed>5.5</speed>
<temp>0.00</temp>
<bpm>0</bpm>
<rpm>0.00</rpm>
</extensions>
</trkpt>
<trkpt lat="32.594829559" lon="35.004440308">
  <ele>76.126007</ele>
  <time>2012-06-23T03:38:41Z</time>
<extensions>
<speed>4.8</speed>
<temp>0.00</temp>
<bpm>0</bpm>
<rpm>0.00</rpm>
</extensions>
</trkpt>
<trkpt lat="32.594795227" lon="35.004463196">
  <ele>74.735382</ele>
  <time>2012-06-23T03:38:42Z</time>
<extensions>
<speed>5.0</speed>
<temp>0.00</temp>
<bpm>0</bpm>
<rpm>0.00</rpm>
</extensions>
</trkpt>
<trkpt lat="32.594753265" lon="35.004482269">
  <ele>73.526398</ele>
  <time>2012-06-23T03:38:43Z</time>
<extensions>
<speed>5.2</speed>
<temp>0.00</temp>
<bpm>0</bpm>
<rpm>0.00</rpm>
</extensions>
</trkpt>
<trkpt lat="32.594718933" lon="35.004501343">
  <ele>72.793976</ele>
  <time>2012-06-23T03:38:44Z</time>
<extensions>
<speed>5.0</speed>
<temp>0.00</temp>
<bpm>0</bpm>
<rpm>0.00</rpm>
</extensions>
</trkpt>
<trkpt lat="32.594680786" lon="35.004524231">
  <ele>72.016632</ele>
  <time>2012-06-23T03:38:45Z</time>
<extensions>
<speed>4.6</speed>
<temp>0.00</temp>
<bpm>0</bpm>
<rpm>0.00</rpm>
</extensions>
</trkpt>
<trkpt lat="32.594650269" lon="35.004550934">
  <ele>71.155304</ele>
  <time>2012-06-23T03:38:46Z</time>
<extensions>
<speed>4.5</speed>
<temp>0.00</temp>
<bpm>0</bpm>
<rpm>0.00</rpm>
</extensions>
</trkpt>
<trkpt lat="32.594631195" lon="35.004573822">
  <ele>70.499054</ele>
  <time>2012-06-23T03:38:47Z</time>
<extensions>
<speed>3.8</speed>
<temp>0.00</temp>
<bpm>0</bpm>
<rpm>0.00</rpm>
</extensions>
</trkpt>
<trkpt lat="32.594612122" lon="35.004608154">
  <ele>69.801788</ele>
  <time>2012-06-23T03:38:48Z</time>
<extensions>
<speed>3.4</speed>
<temp>0.00</temp>
<bpm>0</bpm>
<rpm>0.00</rpm>
</extensions>
</trkpt>
<trkpt lat="32.594589233" lon="35.004634857">
  <ele>69.090851</ele>
  <time>2012-06-23T03:38:49Z</time>
<extensions>
<speed>3.5</speed>
<temp>0.00</temp>
<bpm>0</bpm>
<rpm>0.00</rpm>
</extensions>
</trkpt>
<trkpt lat="32.594566345" lon="35.004650116">
  <ele>67.934601</ele>
  <time>2012-06-23T03:38:50Z</time>
<extensions>
<speed>3.4</speed>
<temp>0.00</temp>
<bpm>0</bpm>
<rpm>0.00</rpm>
</extensions>
</trkpt>
<trkpt lat="32.594535828" lon="35.004657745">
  <ele>67.295929</ele>
  <time>2012-06-23T03:38:51Z</time>
<extensions>
<speed>3.8</speed>
<temp>0.00</temp>
<bpm>0</bpm>
<rpm>0.00</rpm>
</extensions>
</trkpt>
<trkpt lat="32.594497681" lon="35.004653931">
  <ele>66.764679</ele>
  <time>2012-06-23T03:38:52Z</time>
<extensions>
<speed>4.4</speed>
<temp>0.00</temp>
<bpm>0</bpm>
<rpm>0.00</rpm>
</extensions>
</trkpt>
<trkpt lat="32.594455719" lon="35.004653931">
  <ele>65.831085</ele>
  <time>2012-06-23T03:38:53Z</time>
<extensions>
<speed>4.8</speed>
<temp>0.00</temp>
<bpm>0</bpm>
<rpm>0.00</rpm>
</extensions>
</trkpt>
<trkpt lat="32.594409943" lon="35.004657745">
  <ele>63.913589</ele>
  <time>2012-06-23T03:38:54Z</time>
<extensions>
<speed>5.3</speed>
<temp>0.00</temp>
<bpm>0</bpm>
<rpm>0.00</rpm>
</extensions>
</trkpt>
<trkpt lat="32.594360352" lon="35.004653931">
  <ele>61.967300</ele>
  <time>2012-06-23T03:38:55Z</time>
<extensions>
<speed>5.4</speed>
<temp>0.00</temp>
<bpm>0</bpm>
<rpm>0.00</rpm>
</extensions>
</trkpt>
<trkpt lat="32.594314575" lon="35.004646301">
  <ele>60.862808</ele>
  <time>2012-06-23T03:38:56Z</time>
<extensions>
<speed>4.8</speed>
<temp>0.00</temp>
<bpm>0</bpm>
<rpm>0.00</rpm>
</extensions>
</trkpt>
<trkpt lat="32.594280243" lon="35.004627228">
  <ele>60.594254</ele>
  <time>2012-06-23T03:38:57Z</time>
<extensions>
<speed>4.7</speed>
<temp>0.00</temp>
<bpm>0</bpm>
<rpm>0.00</rpm>
</extensions>
</trkpt>
<trkpt lat="32.594245911" lon="35.004604340">
  <ele>60.268082</ele>
  <time>2012-06-23T03:38:58Z</time>
<extensions>
<speed>4.5</speed>
<temp>0.00</temp>
<bpm>0</bpm>
<rpm>0.00</rpm>
</extensions>
</trkpt>
<trkpt lat="32.594211578" lon="35.004585266">
  <ele>59.859879</ele>
  <time>2012-06-23T03:38:59Z</time>
<extensions>
<speed>4.0</speed>
<temp>0.00</temp>
<bpm>0</bpm>
<rpm>0.00</rpm>
</extensions>
</trkpt>
<trkpt lat="32.594177246" lon="35.004573822">
  <ele>59.433121</ele>
  <time>2012-06-23T03:39:00Z</time>
<extensions>
<speed>3.8</speed>
<temp>0.00</temp>
<bpm>0</bpm>
<rpm>0.00</rpm>
</extensions>
</trkpt>
<trkpt lat="32.594142914" lon="35.004577637">
  <ele>59.495621</ele>
  <time>2012-06-23T03:39:01Z</time>
<extensions>
<speed>3.4</speed>
<temp>0.00</temp>
<bpm>0</bpm>
<rpm>0.00</rpm>
</extensions>
</trkpt>
<trkpt lat="32.594120026" lon="35.004600525">
  <ele>58.326675</ele>
  <time>2012-06-23T03:39:02Z</time>
<extensions>
<speed>3.0</speed>
<temp>0.00</temp>
<bpm>0</bpm>
<rpm>0.00</rpm>
</extensions>
</trkpt>
<trkpt lat="32.594104767" lon="35.004631042">
  <ele>57.435074</ele>
  <time>2012-06-23T03:39:03Z</time>
<extensions>
<speed>3.5</speed>
<temp>0.00</temp>
<bpm>0</bpm>
<rpm>0.00</rpm>
</extensions>
</trkpt>
<trkpt lat="32.594085693" lon="35.004665375">
  <ele>57.401871</ele>
  <time>2012-06-23T03:39:04Z</time>
<extensions>
<speed>3.8</speed>
<temp>0.00</temp>
<bpm>0</bpm>
<rpm>0.00</rpm>
</extensions>
</trkpt>
<trkpt lat="32.594066620" lon="35.004703522">
  <ele>56.405777</ele>
  <time>2012-06-23T03:39:05Z</time>
<extensions>
<speed>3.5</speed>
<temp>0.00</temp>
<bpm>0</bpm>
<rpm>0.00</rpm>
</extensions>
</trkpt>
<trkpt lat="32.594039917" lon="35.004722595">
  <ele>56.142105</ele>
  <time>2012-06-23T03:39:06Z</time>
<extensions>
<speed>3.2</speed>
<temp>0.00</temp>
<bpm>0</bpm>
<rpm>0.00</rpm>
</extensions>
</trkpt>
<trkpt lat="32.594013214" lon="35.004730225">
  <ele>55.243668</ele>
  <time>2012-06-23T03:39:07Z</time>
<extensions>
<speed>3.6</speed>
<temp>0.00</temp>
<bpm>0</bpm>
<rpm>0.00</rpm>
</extensions>
</trkpt>
<trkpt lat="32.593975067" lon="35.004722595">
  <ele>54.536636</ele>
  <time>2012-06-23T03:39:08Z</time>
<extensions>
<speed>4.5</speed>
<temp>0.00</temp>
<bpm>0</bpm>
<rpm>0.00</rpm>
</extensions>
</trkpt>
<trkpt lat="32.593940735" lon="35.004707336">
  <ele>53.705582</ele>
  <time>2012-06-23T03:39:09Z</time>
<extensions>
<speed>4.4</speed>
<temp>0.00</temp>
<bpm>0</bpm>
<rpm>0.00</rpm>
</extensions>
</trkpt>
<trkpt lat="32.593898773" lon="35.004695892">
  <ele>52.469254</ele>
  <time>2012-06-23T03:39:10Z</time>
<extensions>
<speed>5.1</speed>
<temp>0.00</temp>
<bpm>0</bpm>
<rpm>0.00</rpm>
</extensions>
</trkpt>
<trkpt lat="32.593852997" lon="35.004699707">
  <ele>51.542496</ele>
  <time>2012-06-23T03:39:11Z</time>
<extensions>
<speed>5.3</speed>
<temp>0.00</temp>
<bpm>0</bpm>
<rpm>0.00</rpm>
</extensions>
</trkpt>
<trkpt lat="32.593807220" lon="35.004718781">
  <ele>50.329605</ele>
  <time>2012-06-23T03:39:12Z</time>
<extensions>
<speed>5.6</speed>
<temp>0.00</temp>
<bpm>0</bpm>
<rpm>0.00</rpm>
</extensions>
</trkpt>
<trkpt lat="32.593761444" lon="35.004737854">
  <ele>49.544449</ele>
  <time>2012-06-23T03:39:13Z</time>
<extensions>
<speed>5.8</speed>
<temp>0.00</temp>
<bpm>0</bpm>
<rpm>0.00</rpm>
</extensions>
</trkpt>
<trkpt lat="32.593700409" lon="35.004768372">
  <ele>50.049332</ele>
  <time>2012-06-23T03:39:14Z</time>
<extensions>
<speed>6.7</speed>
<temp>0.00</temp>
<bpm>0</bpm>
<rpm>0.00</rpm>
</extensions>
</trkpt>
<trkpt lat="32.593635559" lon="35.004795074">
  <ele>50.292496</ele>
  <time>2012-06-23T03:39:15Z</time>
<extensions>
<speed>7.0</speed>
<temp>0.00</temp>
<bpm>0</bpm>
<rpm>0.00</rpm>
</extensions>
</trkpt>
<trkpt lat="32.593574524" lon="35.004821777">
  <ele>50.413589</ele>
  <time>2012-06-23T03:39:16Z</time>
<extensions>
<speed>7.0</speed>
<temp>0.00</temp>
<bpm>0</bpm>
<rpm>0.00</rpm>
</extensions>
</trkpt>
<trkpt lat="32.593505859" lon="35.004848480">
  <ele>51.075699</ele>
  <time>2012-06-23T03:39:17Z</time>
<extensions>
<speed>7.1</speed>
<temp>0.00</temp>
<bpm>0</bpm>
<rpm>0.00</rpm>
</extensions>
</trkpt>
<trkpt lat="32.593448639" lon="35.004875183">
  <ele>51.323746</ele>
  <time>2012-06-23T03:39:18Z</time>
<extensions>
<speed>7.0</speed>
<temp>0.00</temp>
<bpm>0</bpm>
<rpm>0.00</rpm>
</extensions>
</trkpt>
<trkpt lat="32.593391418" lon="35.004901886">
  <ele>51.735855</ele>
  <time>2012-06-23T03:39:19Z</time>
<extensions>
<speed>6.9</speed>
<temp>0.00</temp>
<bpm>0</bpm>
<rpm>0.00</rpm>
</extensions>
</trkpt>
<trkpt lat="32.593334198" lon="35.004932404">
  <ele>52.201675</ele>
  <time>2012-06-23T03:39:20Z</time>
<extensions>
<speed>6.9</speed>
<temp>0.00</temp>
<bpm>0</bpm>
<rpm>0.00</rpm>
</extensions>
</trkpt>
<trkpt lat="32.593280792" lon="35.004959106">
  <ele>52.593277</ele>
  <time>2012-06-23T03:39:21Z</time>
<extensions>
<speed>6.6</speed>
<temp>0.00</temp>
<bpm>0</bpm>
<rpm>0.00</rpm>
</extensions>
</trkpt>
<trkpt lat="32.593231201" lon="35.004993439">
  <ele>52.864761</ele>
  <time>2012-06-23T03:39:22Z</time>
<extensions>
<speed>6.2</speed>
<temp>0.00</temp>
<bpm>0</bpm>
<rpm>0.00</rpm>
</extensions>
</trkpt>
<trkpt lat="32.593177795" lon="35.005020142">
  <ele>53.004410</ele>
  <time>2012-06-23T03:39:23Z</time>
<extensions>
<speed>6.2</speed>
<temp>0.00</temp>
<bpm>0</bpm>
<rpm>0.00</rpm>
</extensions>
</trkpt>
<trkpt lat="32.593128204" lon="35.005039215">
  <ele>53.071793</ele>
  <time>2012-06-23T03:39:24Z</time>
<extensions>
<speed>6.1</speed>
<temp>0.00</temp>
<bpm>0</bpm>
<rpm>0.00</rpm>
</extensions>
</trkpt>
<trkpt lat="32.593074799" lon="35.005062103">
  <ele>53.366714</ele>
  <time>2012-06-23T03:39:25Z</time>
<extensions>
<speed>6.0</speed>
<temp>0.00</temp>
<bpm>0</bpm>
<rpm>0.00</rpm>
</extensions>
</trkpt>
<trkpt lat="32.593025208" lon="35.005084991">
  <ele>53.104996</ele>
  <time>2012-06-23T03:39:26Z</time>
<extensions>
<speed>5.8</speed>
<temp>0.00</temp>
<bpm>0</bpm>
<rpm>0.00</rpm>
</extensions>
</trkpt>
<trkpt lat="32.592975616" lon="35.005111694">
  <ele>52.650894</ele>
  <time>2012-06-23T03:39:27Z</time>
<extensions>
<speed>5.7</speed>
<temp>0.00</temp>
<bpm>0</bpm>
<rpm>0.00</rpm>
</extensions>
</trkpt>
<trkpt lat="32.592933655" lon="35.005130768">
  <ele>52.859879</ele>
  <time>2012-06-23T03:39:28Z</time>
<extensions>
<speed>5.3</speed>
<temp>0.00</temp>
<bpm>0</bpm>
<rpm>0.00</rpm>
</extensions>
</trkpt>
<trkpt lat="32.592891693" lon="35.005157471">
  <ele>52.764175</ele>
  <time>2012-06-23T03:39:29Z</time>
<extensions>
<speed>4.9</speed>
<temp>0.00</temp>
<bpm>0</bpm>
<rpm>0.00</rpm>
</extensions>
</trkpt>
<trkpt lat="32.592853546" lon="35.005184174">
  <ele>52.879410</ele>
  <time>2012-06-23T03:39:30Z</time>
<extensions>
<speed>5.0</speed>
<temp>0.00</temp>
<bpm>0</bpm>
<rpm>0.00</rpm>
</extensions>
</trkpt>
<trkpt lat="32.592811584" lon="35.005207062">
  <ele>52.855972</ele>
  <time>2012-06-23T03:39:31Z</time>
<extensions>
<speed>4.8</speed>
<temp>0.00</temp>
<bpm>0</bpm>
<rpm>0.00</rpm>
</extensions>
</trkpt>
<trkpt lat="32.592769623" lon="35.005229950">
  <ele>53.006363</ele>
  <time>2012-06-23T03:39:32Z</time>
<extensions>
<speed>4.7</speed>
<temp>0.00</temp>
<bpm>0</bpm>
<rpm>0.00</rpm>
</extensions>
</trkpt>
<trkpt lat="32.592731476" lon="35.005249023">
  <ele>52.453629</ele>
  <time>2012-06-23T03:39:33Z</time>
<extensions>
<speed>4.4</speed>
<temp>0.00</temp>
<bpm>0</bpm>
<rpm>0.00</rpm>
</extensions>
</trkpt>
<trkpt lat="32.592689514" lon="35.005268097">
  <ele>51.898941</ele>
  <time>2012-06-23T03:39:34Z</time>
<extensions>
<speed>4.7</speed>
<temp>0.00</temp>
<bpm>0</bpm>
<rpm>0.00</rpm>
</extensions>
</trkpt>
<trkpt lat="32.592651367" lon="35.005287170">
  <ele>51.271011</ele>
  <time>2012-06-23T03:39:35Z</time>
<extensions>
<speed>5.1</speed>
<temp>0.00</temp>
<bpm>0</bpm>
<rpm>0.00</rpm>
</extensions>
</trkpt>
<trkpt lat="32.592601776" lon="35.005321503">
  <ele>50.304214</ele>
  <time>2012-06-23T03:39:36Z</time>
<extensions>
<speed>5.7</speed>
<temp>0.00</temp>
<bpm>0</bpm>
<rpm>0.00</rpm>
</extensions>
</trkpt>
<trkpt lat="32.592556000" lon="35.005348206">
  <ele>50.027847</ele>
  <time>2012-06-23T03:39:37Z</time>
<extensions>
<speed>5.9</speed>
<temp>0.00</temp>
<bpm>0</bpm>
<rpm>0.00</rpm>
</extensions>
</trkpt>
<trkpt lat="32.592502594" lon="35.005382538">
  <ele>49.831558</ele>
  <time>2012-06-23T03:39:38Z</time>
<extensions>
<speed>6.1</speed>
<temp>0.00</temp>
<bpm>0</bpm>
<rpm>0.00</rpm>
</extensions>
</trkpt>
<trkpt lat="32.592456818" lon="35.005409241">
  <ele>50.507339</ele>
  <time>2012-06-23T03:39:39Z</time>
<extensions>
<speed>5.2</speed>
<temp>0.00</temp>
<bpm>0</bpm>
<rpm>0.00</rpm>
</extensions>
</trkpt>
<trkpt lat="32.592426300" lon="35.005435944">
  <ele>50.975113</ele>
  <time>2012-06-23T03:39:40Z</time>
<extensions>
<speed>3.7</speed>
<temp>0.00</temp>
<bpm>0</bpm>
<rpm>0.00</rpm>
</extensions>
</trkpt>
<trkpt lat="32.592395782" lon="35.005455017">
  <ele>51.322769</ele>
  <time>2012-06-23T03:39:41Z</time>
<extensions>
<speed>3.6</speed>
<temp>0.00</temp>
<bpm>0</bpm>
<rpm>0.00</rpm>
</extensions>
</trkpt>
<trkpt lat="32.592361450" lon="35.005466461">
  <ele>51.850113</ele>
  <time>2012-06-23T03:39:42Z</time>
<extensions>
<speed>3.7</speed>
<temp>0.00</temp>
<bpm>0</bpm>
<rpm>0.00</rpm>
</extensions>
</trkpt>
<trkpt lat="32.592327118" lon="35.005481720">
  <ele>51.941910</ele>
  <time>2012-06-23T03:39:43Z</time>
<extensions>
<speed>3.9</speed>
<temp>0.00</temp>
<bpm>0</bpm>
<rpm>0.00</rpm>
</extensions>
</trkpt>
<trkpt lat="32.592292786" lon="35.005496979">
  <ele>52.472183</ele>
  <time>2012-06-23T03:39:44Z</time>
<extensions>
<speed>4.0</speed>
<temp>0.00</temp>
<bpm>0</bpm>
<rpm>0.00</rpm>
</extensions>
</trkpt>
<trkpt lat="32.592250824" lon="35.005512238">
  <ele>52.628433</ele>
  <time>2012-06-23T03:39:45Z</time>
<extensions>
<speed>4.6</speed>
<temp>0.00</temp>
<bpm>0</bpm>
<rpm>0.00</rpm>
</extensions>
</trkpt>
<trkpt lat="32.592208862" lon="35.005523682">
  <ele>52.658707</ele>
  <time>2012-06-23T03:39:46Z</time>
<extensions>
<speed>4.6</speed>
<temp>0.00</temp>
<bpm>0</bpm>
<rpm>0.00</rpm>
</extensions>
</trkpt>
<trkpt lat="32.592163086" lon="35.005535126">
  <ele>52.517105</ele>
  <time>2012-06-23T03:39:47Z</time>
<extensions>
<speed>4.5</speed>
<temp>0.00</temp>
<bpm>0</bpm>
<rpm>0.00</rpm>
</extensions>
</trkpt>
<trkpt lat="32.592117310" lon="35.005542755">
  <ele>52.415543</ele>
  <time>2012-06-23T03:39:48Z</time>
<extensions>
<speed>5.0</speed>
<temp>0.00</temp>
<bpm>0</bpm>
<rpm>0.00</rpm>
</extensions>
</trkpt>
<trkpt lat="32.592079163" lon="35.005550385">
  <ele>52.240738</ele>
  <time>2012-06-23T03:39:49Z</time>
<extensions>
<speed>4.5</speed>
<temp>0.00</temp>
<bpm>0</bpm>
<rpm>0.00</rpm>
</extensions>
</trkpt>
<trkpt lat="32.592044830" lon="35.005554199">
  <ele>51.918472</ele>
  <time>2012-06-23T03:39:50Z</time>
<extensions>
<speed>4.1</speed>
<temp>0.00</temp>
<bpm>0</bpm>
<rpm>0.00</rpm>
</extensions>
</trkpt>
<trkpt lat="32.592014313" lon="35.005573273">
  <ele>52.161636</ele>
  <time>2012-06-23T03:39:51Z</time>
<extensions>
<speed>4.1</speed>
<temp>0.00</temp>
<bpm>0</bpm>
<rpm>0.00</rpm>
</extensions>
</trkpt>
<trkpt lat="32.591979980" lon="35.005580902">
  <ele>52.063980</ele>
  <time>2012-06-23T03:39:52Z</time>
<extensions>
<speed>4.2</speed>
<temp>0.00</temp>
<bpm>0</bpm>
<rpm>0.00</rpm>
</extensions>
</trkpt>
<trkpt lat="32.591938019" lon="35.005592346">
  <ele>51.227066</ele>
  <time>2012-06-23T03:39:53Z</time>
<extensions>
<speed>4.3</speed>
<temp>0.00</temp>
<bpm>0</bpm>
<rpm>0.00</rpm>
</extensions>
</trkpt>
<trkpt lat="32.591899872" lon="35.005615234">
  <ele>51.447769</ele>
  <time>2012-06-23T03:39:54Z</time>
<extensions>
<speed>3.9</speed>
<temp>0.00</temp>
<bpm>0</bpm>
<rpm>0.00</rpm>
</extensions>
</trkpt>
<trkpt lat="32.591857910" lon="35.005615234">
  <ele>51.558121</ele>
  <time>2012-06-23T03:39:55Z</time>
<extensions>
<speed>4.2</speed>
<temp>0.00</temp>
<bpm>0</bpm>
<rpm>0.00</rpm>
</extensions>
</trkpt>
<trkpt lat="32.591815948" lon="35.005611420">
  <ele>50.655777</ele>
  <time>2012-06-23T03:39:56Z</time>
<extensions>
<speed>5.1</speed>
<temp>0.00</temp>
<bpm>0</bpm>
<rpm>0.00</rpm>
</extensions>
</trkpt>
<trkpt lat="32.591773987" lon="35.005634308">
  <ele>50.400894</ele>
  <time>2012-06-23T03:39:57Z</time>
<extensions>
<speed>6.0</speed>
<temp>0.00</temp>
<bpm>0</bpm>
<rpm>0.00</rpm>
</extensions>
</trkpt>
<trkpt lat="32.591735840" lon="35.005676270">
  <ele>50.658707</ele>
  <time>2012-06-23T03:39:58Z</time>
<extensions>
<speed>5.0</speed>
<temp>0.00</temp>
<bpm>0</bpm>
<rpm>0.00</rpm>
</extensions>
</trkpt>
<trkpt lat="32.591716766" lon="35.005722046">
  <ele>51.012222</ele>
  <time>2012-06-23T03:39:59Z</time>
<extensions>
<speed>4.5</speed>
<temp>0.00</temp>
<bpm>0</bpm>
<rpm>0.00</rpm>
</extensions>
</trkpt>
<trkpt lat="32.591716766" lon="35.005771637">
  <ele>50.914566</ele>
  <time>2012-06-23T03:40:00Z</time>
<extensions>
<speed>4.3</speed>
<temp>0.00</temp>
<bpm>0</bpm>
<rpm>0.00</rpm>
</extensions>
</trkpt>
<trkpt lat="32.591720581" lon="35.005821228">
  <ele>51.341324</ele>
  <time>2012-06-23T03:40:01Z</time>
<extensions>
<speed>4.1</speed>
<temp>0.00</temp>
<bpm>0</bpm>
<rpm>0.00</rpm>
</extensions>
</trkpt>
<trkpt lat="32.591728210" lon="35.005867004">
  <ele>51.704605</ele>
  <time>2012-06-23T03:40:02Z</time>
<extensions>
<speed>4.1</speed>
<temp>0.00</temp>
<bpm>0</bpm>
<rpm>0.00</rpm>
</extensions>
</trkpt>
<trkpt lat="32.591732025" lon="35.005916595">
  <ele>52.439957</ele>
  <time>2012-06-23T03:40:03Z</time>
<extensions>
<speed>4.1</speed>
<temp>0.00</temp>
<bpm>0</bpm>
<rpm>0.00</rpm>
</extensions>
</trkpt>
<trkpt lat="32.591739655" lon="35.005958557">
  <ele>52.784683</ele>
  <time>2012-06-23T03:40:04Z</time>
<extensions>
<speed>3.9</speed>
<temp>0.00</temp>
<bpm>0</bpm>
<rpm>0.00</rpm>
</extensions>
</trkpt>
<trkpt lat="32.591743469" lon="35.006004333">
  <ele>53.140152</ele>
  <time>2012-06-23T03:40:05Z</time>
<extensions>
<speed>3.7</speed>
<temp>0.00</temp>
<bpm>0</bpm>
<rpm>0.00</rpm>
</extensions>
</trkpt>
<trkpt lat="32.591743469" lon="35.006038666">
  <ele>52.737808</ele>
  <time>2012-06-23T03:40:06Z</time>
<extensions>
<speed>3.5</speed>
<temp>0.00</temp>
<bpm>0</bpm>
<rpm>0.00</rpm>
</extensions>
</trkpt>
<trkpt lat="32.591739655" lon="35.006076813">
  <ele>52.738785</ele>
  <time>2012-06-23T03:40:07Z</time>
<extensions>
<speed>3.4</speed>
<temp>0.00</temp>
<bpm>0</bpm>
<rpm>0.00</rpm>
</extensions>
</trkpt>
<trkpt lat="32.591732025" lon="35.006111145">
  <ele>51.952652</ele>
  <time>2012-06-23T03:40:08Z</time>
<extensions>
<speed>3.0</speed>
<temp>0.00</temp>
<bpm>0</bpm>
<rpm>0.00</rpm>
</extensions>
</trkpt>
<trkpt lat="32.591720581" lon="35.006141663">
  <ele>51.558121</ele>
  <time>2012-06-23T03:40:09Z</time>
<extensions>
<speed>3.2</speed>
<temp>0.00</temp>
<bpm>0</bpm>
<rpm>0.00</rpm>
</extensions>
</trkpt>
<trkpt lat="32.591701508" lon="35.006168365">
  <ele>51.185074</ele>
  <time>2012-06-23T03:40:10Z</time>
<extensions>
<speed>3.2</speed>
<temp>0.00</temp>
<bpm>0</bpm>
<rpm>0.00</rpm>
</extensions>
</trkpt>
<trkpt lat="32.591682434" lon="35.006195068">
  <ele>51.006363</ele>
  <time>2012-06-23T03:40:11Z</time>
<extensions>
<speed>3.4</speed>
<temp>0.00</temp>
<bpm>0</bpm>
<rpm>0.00</rpm>
</extensions>
</trkpt>
<trkpt lat="32.591659546" lon="35.006221771">
  <ele>50.771011</ele>
  <time>2012-06-23T03:40:12Z</time>
<extensions>
<speed>3.8</speed>
<temp>0.00</temp>
<bpm>0</bpm>
<rpm>0.00</rpm>
</extensions>
</trkpt>
<trkpt lat="32.591629028" lon="35.006252289">
  <ele>51.010269</ele>
  <time>2012-06-23T03:40:13Z</time>
<extensions>
<speed>4.1</speed>
<temp>0.00</temp>
<bpm>0</bpm>
<rpm>0.00</rpm>
</extensions>
</trkpt>
<trkpt lat="32.591602325" lon="35.006275177">
  <ele>50.474136</ele>
  <time>2012-06-23T03:40:14Z</time>
<extensions>
<speed>3.8</speed>
<temp>0.00</temp>
<bpm>0</bpm>
<rpm>0.00</rpm>
</extensions>
</trkpt>
<trkpt lat="32.591571808" lon="35.006301880">
  <ele>50.413589</ele>
  <time>2012-06-23T03:40:15Z</time>
<extensions>
<speed>3.7</speed>
<temp>0.00</temp>
<bpm>0</bpm>
<rpm>0.00</rpm>
</extensions>
</trkpt>
<trkpt lat="32.591541290" lon="35.006324768">
  <ele>50.281754</ele>
  <time>2012-06-23T03:40:16Z</time>
<extensions>
<speed>3.5</speed>
<temp>0.00</temp>
<bpm>0</bpm>
<rpm>0.00</rpm>
</extensions>
</trkpt>
<trkpt lat="32.591514587" lon="35.006336212">
  <ele>50.551285</ele>
  <time>2012-06-23T03:40:17Z</time>
<extensions>
<speed>3.6</speed>
<temp>0.00</temp>
<bpm>0</bpm>
<rpm>0.00</rpm>
</extensions>
</trkpt>
<trkpt lat="32.591487885" lon="35.006351471">
  <ele>50.735855</ele>
  <time>2012-06-23T03:40:18Z</time>
<extensions>
<speed>3.5</speed>
<temp>0.00</temp>
<bpm>0</bpm>
<rpm>0.00</rpm>
</extensions>
</trkpt>
<trkpt lat="32.591464996" lon="35.006374359">
  <ele>51.176285</ele>
  <time>2012-06-23T03:40:19Z</time>
<extensions>
<speed>3.4</speed>
<temp>0.00</temp>
<bpm>0</bpm>
<rpm>0.00</rpm>
</extensions>
</trkpt>
<trkpt lat="32.591438293" lon="35.006397247">
  <ele>51.617691</ele>
  <time>2012-06-23T03:40:20Z</time>
<extensions>
<speed>3.5</speed>
<temp>0.00</temp>
<bpm>0</bpm>
<rpm>0.00</rpm>
</extensions>
</trkpt>
<trkpt lat="32.591411591" lon="35.006420135">
  <ele>51.281754</ele>
  <time>2012-06-23T03:40:21Z</time>
<extensions>
<speed>3.1</speed>
<temp>0.00</temp>
<bpm>0</bpm>
<rpm>0.00</rpm>
</extensions>
</trkpt>
<trkpt lat="32.591388702" lon="35.006435394">
  <ele>51.512222</ele>
  <time>2012-06-23T03:40:22Z</time>
<extensions>
<speed>3.2</speed>
<temp>0.00</temp>
<bpm>0</bpm>
<rpm>0.00</rpm>
</extensions>
</trkpt>
<trkpt lat="32.591365814" lon="35.006454468">
  <ele>51.859879</ele>
  <time>2012-06-23T03:40:23Z</time>
<extensions>
<speed>3.2</speed>
<temp>0.00</temp>
<bpm>0</bpm>
<rpm>0.00</rpm>
</extensions>
</trkpt>
<trkpt lat="32.591346741" lon="35.006481171">
  <ele>51.829605</ele>
  <time>2012-06-23T03:40:24Z</time>
<extensions>
<speed>3.6</speed>
<temp>0.00</temp>
<bpm>0</bpm>
<rpm>0.00</rpm>
</extensions>
</trkpt>
<trkpt lat="32.591316223" lon="35.006507874">
  <ele>52.086441</ele>
  <time>2012-06-23T03:40:25Z</time>
<extensions>
<speed>3.7</speed>
<temp>0.00</temp>
<bpm>0</bpm>
<rpm>0.00</rpm>
</extensions>
</trkpt>
<trkpt lat="32.591285706" lon="35.006534576">
  <ele>52.110855</ele>
  <time>2012-06-23T03:40:26Z</time>
<extensions>
<speed>3.8</speed>
<temp>0.00</temp>
<bpm>0</bpm>
<rpm>0.00</rpm>
</extensions>
</trkpt>
<trkpt lat="32.591262817" lon="35.006549835">
  <ele>52.148941</ele>
  <time>2012-06-23T03:40:27Z</time>
<extensions>
<speed>3.6</speed>
<temp>0.00</temp>
<bpm>0</bpm>
<rpm>0.00</rpm>
</extensions>
</trkpt>
<trkpt lat="32.591232300" lon="35.006568909">
  <ele>52.714371</ele>
  <time>2012-06-23T03:40:28Z</time>
<extensions>
<speed>3.8</speed>
<temp>0.00</temp>
<bpm>0</bpm>
<rpm>0.00</rpm>
</extensions>
</trkpt>
<trkpt lat="32.591201782" lon="35.006599426">
  <ele>53.267105</ele>
  <time>2012-06-23T03:40:29Z</time>
<extensions>
<speed>3.8</speed>
<temp>0.00</temp>
<bpm>0</bpm>
<rpm>0.00</rpm>
</extensions>
</trkpt>
<trkpt lat="32.591178894" lon="35.006629944">
  <ele>53.171402</ele>
  <time>2012-06-23T03:40:30Z</time>
<extensions>
<speed>3.8</speed>
<temp>0.00</temp>
<bpm>0</bpm>
<rpm>0.00</rpm>
</extensions>
</trkpt>
<trkpt lat="32.591156006" lon="35.006660461">
  <ele>53.214371</ele>
  <time>2012-06-23T03:40:31Z</time>
<extensions>
<speed>3.7</speed>
<temp>0.00</temp>
<bpm>0</bpm>
<rpm>0.00</rpm>
</extensions>
</trkpt>
<trkpt lat="32.591129303" lon="35.006683350">
  <ele>53.110855</ele>
  <time>2012-06-23T03:40:32Z</time>
<extensions>
<speed>3.6</speed>
<temp>0.00</temp>
<bpm>0</bpm>
<rpm>0.00</rpm>
</extensions>
</trkpt>
<trkpt lat="32.591102600" lon="35.006706238">
  <ele>53.179214</ele>
  <time>2012-06-23T03:40:33Z</time>
<extensions>
<speed>3.2</speed>
<temp>0.00</temp>
<bpm>0</bpm>
<rpm>0.00</rpm>
</extensions>
</trkpt>
<trkpt lat="32.591079712" lon="35.006725311">
  <ele>52.582535</ele>
  <time>2012-06-23T03:40:34Z</time>
<extensions>
<speed>3.0</speed>
<temp>0.00</temp>
<bpm>0</bpm>
<rpm>0.00</rpm>
</extensions>
</trkpt>
<trkpt lat="32.591030121" lon="35.006752014">
  <ele>53.157730</ele>
  <time>2012-06-23T03:40:36Z</time>
<extensions>
<speed>3.3</speed>
<temp>0.00</temp>
<bpm>0</bpm>
<rpm>0.00</rpm>
</extensions>
</trkpt>
<trkpt lat="32.590999603" lon="35.006763458">
  <ele>53.436050</ele>
  <time>2012-06-23T03:40:37Z</time>
<extensions>
<speed>3.4</speed>
<temp>0.00</temp>
<bpm>0</bpm>
<rpm>0.00</rpm>
</extensions>
</trkpt>
<trkpt lat="32.590950012" lon="35.006744385">
  <ele>53.540543</ele>
  <time>2012-06-23T03:40:39Z</time>
<extensions>
<speed>2.6</speed>
<temp>0.00</temp>
<bpm>0</bpm>
<rpm>0.00</rpm>
</extensions>
</trkpt>
<trkpt lat="32.590915680" lon="35.006713867">
  <ele>54.074722</ele>
  <time>2012-06-23T03:40:41Z</time>
<extensions>
<speed>2.3</speed>
<temp>0.00</temp>
<bpm>0</bpm>
<rpm>0.00</rpm>
</extensions>
</trkpt>
<trkpt lat="32.590896606" lon="35.006645203">
  <ele>55.206558</ele>
  <time>2012-06-23T03:40:43Z</time>
<extensions>
<speed>2.6</speed>
<temp>0.00</temp>
<bpm>0</bpm>
<rpm>0.00</rpm>
</extensions>
</trkpt>
<trkpt lat="32.590885162" lon="35.006595612">
  <ele>57.306168</ele>
  <time>2012-06-23T03:40:44Z</time>
<extensions>
<speed>3.6</speed>
<temp>0.00</temp>
<bpm>0</bpm>
<rpm>0.00</rpm>
</extensions>
</trkpt>
<trkpt lat="32.590885162" lon="35.006553650">
  <ele>57.493668</ele>
  <time>2012-06-23T03:40:45Z</time>
<extensions>
<speed>3.7</speed>
<temp>0.00</temp>
<bpm>0</bpm>
<rpm>0.00</rpm>
</extensions>
</trkpt>
<trkpt lat="32.590881348" lon="35.006504059">
  <ele>58.318863</ele>
  <time>2012-06-23T03:40:46Z</time>
<extensions>
<speed>3.9</speed>
<temp>0.00</temp>
<bpm>0</bpm>
<rpm>0.00</rpm>
</extensions>
</trkpt>
<trkpt lat="32.590877533" lon="35.006458282">
  <ele>57.861832</ele>
  <time>2012-06-23T03:40:47Z</time>
<extensions>
<speed>3.8</speed>
<temp>0.00</temp>
<bpm>0</bpm>
<rpm>0.00</rpm>
</extensions>
</trkpt>
<trkpt lat="32.590869904" lon="35.006412506">
  <ele>57.943863</ele>
  <time>2012-06-23T03:40:48Z</time>
<extensions>
<speed>4.0</speed>
<temp>0.00</temp>
<bpm>0</bpm>
<rpm>0.00</rpm>
</extensions>
</trkpt>
<trkpt lat="32.590862274" lon="35.006370544">
  <ele>58.189957</ele>
  <time>2012-06-23T03:40:49Z</time>
<extensions>
<speed>3.8</speed>
<temp>0.00</temp>
<bpm>0</bpm>
<rpm>0.00</rpm>
</extensions>
</trkpt>
<trkpt lat="32.590854645" lon="35.006324768">
  <ele>58.737808</ele>
  <time>2012-06-23T03:40:50Z</time>
<extensions>
<speed>3.2</speed>
<temp>0.00</temp>
<bpm>0</bpm>
<rpm>0.00</rpm>
</extensions>
</trkpt>
<trkpt lat="32.590843201" lon="35.006282806">
  <ele>59.287613</ele>
  <time>2012-06-23T03:40:51Z</time>
<extensions>
<speed>3.6</speed>
<temp>0.00</temp>
<bpm>0</bpm>
<rpm>0.00</rpm>
</extensions>
</trkpt>
<trkpt lat="32.590839386" lon="35.006237030">
  <ele>59.407730</ele>
  <time>2012-06-23T03:40:52Z</time>
<extensions>
<speed>4.0</speed>
<temp>0.00</temp>
<bpm>0</bpm>
<rpm>0.00</rpm>
</extensions>
</trkpt>
<trkpt lat="32.590835571" lon="35.006191254">
  <ele>59.303238</ele>
  <time>2012-06-23T03:40:53Z</time>
<extensions>
<speed>4.3</speed>
<temp>0.00</temp>
<bpm>0</bpm>
<rpm>0.00</rpm>
</extensions>
</trkpt>
<trkpt lat="32.590824127" lon="35.006141663">
  <ele>59.630386</ele>
  <time>2012-06-23T03:40:54Z</time>
<extensions>
<speed>4.1</speed>
<temp>0.00</temp>
<bpm>0</bpm>
<rpm>0.00</rpm>
</extensions>
</trkpt>
<trkpt lat="32.590812683" lon="35.006099701">
  <ele>59.760269</ele>
  <time>2012-06-23T03:40:55Z</time>
<extensions>
<speed>3.8</speed>
<temp>0.00</temp>
<bpm>0</bpm>
<rpm>0.00</rpm>
</extensions>
</trkpt>
<trkpt lat="32.590801239" lon="35.006057739">
  <ele>60.331558</ele>
  <time>2012-06-23T03:40:56Z</time>
<extensions>
<speed>3.0</speed>
<temp>0.00</temp>
<bpm>0</bpm>
<rpm>0.00</rpm>
</extensions>
</trkpt>
<trkpt lat="32.590789795" lon="35.006011963">
  <ele>60.951675</ele>
  <time>2012-06-23T03:40:57Z</time>
<extensions>
<speed>3.5</speed>
<temp>0.00</temp>
<bpm>0</bpm>
<rpm>0.00</rpm>
</extensions>
</trkpt>
<trkpt lat="32.590782166" lon="35.005966187">
  <ele>60.747574</ele>
  <time>2012-06-23T03:40:58Z</time>
<extensions>
<speed>3.0</speed>
<temp>0.00</temp>
<bpm>0</bpm>
<rpm>0.00</rpm>
</extensions>
</trkpt>
<trkpt lat="32.590778351" lon="35.005928040">
  <ele>60.536636</ele>
  <time>2012-06-23T03:40:59Z</time>
<extensions>
<speed>3.0</speed>
<temp>0.00</temp>
<bpm>0</bpm>
<rpm>0.00</rpm>
</extensions>
</trkpt>
<trkpt lat="32.590778351" lon="35.005882263">
  <ele>60.650894</ele>
  <time>2012-06-23T03:41:00Z</time>
<extensions>
<speed>2.3</speed>
<temp>0.00</temp>
<bpm>0</bpm>
<rpm>0.00</rpm>
</extensions>
</trkpt>
<trkpt lat="32.590770721" lon="35.005847931">
  <ele>60.195816</ele>
  <time>2012-06-23T03:41:01Z</time>
<extensions>
<speed>1.8</speed>
<temp>0.00</temp>
<bpm>0</bpm>
<rpm>0.00</rpm>
</extensions>
</trkpt>
<trkpt lat="32.590766907" lon="35.005783081">
  <ele>59.347183</ele>
  <time>2012-06-23T03:41:03Z</time>
<extensions>
<speed>2.8</speed>
<temp>0.00</temp>
<bpm>0</bpm>
<rpm>0.00</rpm>
</extensions>
</trkpt>
<trkpt lat="32.590755463" lon="35.005744934">
  <ele>59.423355</ele>
  <time>2012-06-23T03:41:04Z</time>
<extensions>
<speed>2.1</speed>
<temp>0.00</temp>
<bpm>0</bpm>
<rpm>0.00</rpm>
</extensions>
</trkpt>
<trkpt lat="32.590751648" lon="35.005706787">
  <ele>59.467300</ele>
  <time>2012-06-23T03:41:05Z</time>
<extensions>
<speed>2.2</speed>
<temp>0.00</temp>
<bpm>0</bpm>
<rpm>0.00</rpm>
</extensions>
</trkpt>
<trkpt lat="32.590759277" lon="35.005668640">
  <ele>60.179214</ele>
  <time>2012-06-23T03:41:06Z</time>
<extensions>
<speed>3.5</speed>
<temp>0.00</temp>
<bpm>0</bpm>
<rpm>0.00</rpm>
</extensions>
</trkpt>
<trkpt lat="32.590755463" lon="35.005619049">
  <ele>60.196793</ele>
  <time>2012-06-23T03:41:07Z</time>
<extensions>
<speed>3.5</speed>
<temp>0.00</temp>
<bpm>0</bpm>
<rpm>0.00</rpm>
</extensions>
</trkpt>
<trkpt lat="32.590747833" lon="35.005577087">
  <ele>60.021988</ele>
  <time>2012-06-23T03:41:08Z</time>
<extensions>
<speed>3.6</speed>
<temp>0.00</temp>
<bpm>0</bpm>
<rpm>0.00</rpm>
</extensions>
</trkpt>
<trkpt lat="32.590740204" lon="35.005535126">
  <ele>59.450699</ele>
  <time>2012-06-23T03:41:09Z</time>
<extensions>
<speed>3.2</speed>
<temp>0.00</temp>
<bpm>0</bpm>
<rpm>0.00</rpm>
</extensions>
</trkpt>
<trkpt lat="32.590721130" lon="35.005500793">
  <ele>59.609879</ele>
  <time>2012-06-23T03:41:10Z</time>
<extensions>
<speed>2.5</speed>
<temp>0.00</temp>
<bpm>0</bpm>
<rpm>0.00</rpm>
</extensions>
</trkpt>
<trkpt lat="32.590721130" lon="35.005466461">
  <ele>59.005386</ele>
  <time>2012-06-23T03:41:11Z</time>
<extensions>
<speed>2.1</speed>
<temp>0.00</temp>
<bpm>0</bpm>
<rpm>0.00</rpm>
</extensions>
</trkpt>
<trkpt lat="32.590702057" lon="35.005432129">
  <ele>58.951675</ele>
  <time>2012-06-23T03:41:12Z</time>
<extensions>
<speed>2.9</speed>
<temp>0.00</temp>
<bpm>0</bpm>
<rpm>0.00</rpm>
</extensions>
</trkpt>
<trkpt lat="32.590682983" lon="35.005382538">
  <ele>59.119644</ele>
  <time>2012-06-23T03:41:13Z</time>
<extensions>
<speed>3.0</speed>
<temp>0.00</temp>
<bpm>0</bpm>
<rpm>0.00</rpm>
</extensions>
</trkpt>
<trkpt lat="32.590675354" lon="35.005332947">
  <ele>59.098160</ele>
  <time>2012-06-23T03:41:14Z</time>
<extensions>
<speed>2.8</speed>
<temp>0.00</temp>
<bpm>0</bpm>
<rpm>0.00</rpm>
</extensions>
</trkpt>
<trkpt lat="32.590667725" lon="35.005290985">
  <ele>58.060074</ele>
  <time>2012-06-23T03:41:15Z</time>
<extensions>
<speed>3.0</speed>
<temp>0.00</temp>
<bpm>0</bpm>
<rpm>0.00</rpm>
</extensions>
</trkpt>
<trkpt lat="32.590663910" lon="35.005241394">
  <ele>57.271988</ele>
  <time>2012-06-23T03:41:16Z</time>
<extensions>
<speed>3.8</speed>
<temp>0.00</temp>
<bpm>0</bpm>
<rpm>0.00</rpm>
</extensions>
</trkpt>
<trkpt lat="32.590660095" lon="35.005180359">
  <ele>57.597183</ele>
  <time>2012-06-23T03:41:17Z</time>
<extensions>
<speed>4.1</speed>
<temp>0.00</temp>
<bpm>0</bpm>
<rpm>0.00</rpm>
</extensions>
</trkpt>
<trkpt lat="32.590652466" lon="35.005111694">
  <ele>57.352066</ele>
  <time>2012-06-23T03:41:18Z</time>
<extensions>
<speed>4.2</speed>
<temp>0.00</temp>
<bpm>0</bpm>
<rpm>0.00</rpm>
</extensions>
</trkpt>
<trkpt lat="32.590648651" lon="35.005062103">
  <ele>57.165543</ele>
  <time>2012-06-23T03:41:19Z</time>
<extensions>
<speed>3.3</speed>
<temp>0.00</temp>
<bpm>0</bpm>
<rpm>0.00</rpm>
</extensions>
</trkpt>
<trkpt lat="32.590660095" lon="35.005004883">
  <ele>57.076675</ele>
  <time>2012-06-23T03:41:20Z</time>
<extensions>
<speed>3.9</speed>
<temp>0.00</temp>
<bpm>0</bpm>
<rpm>0.00</rpm>
</extensions>
</trkpt>
<trkpt lat="32.590660095" lon="35.004951477">
  <ele>56.148941</ele>
  <time>2012-06-23T03:41:21Z</time>
<extensions>
<speed>4.4</speed>
<temp>0.00</temp>
<bpm>0</bpm>
<rpm>0.00</rpm>
</extensions>
</trkpt>
<trkpt lat="32.590648651" lon="35.004894257">
  <ele>55.536636</ele>
  <time>2012-06-23T03:41:22Z</time>
<extensions>
<speed>4.6</speed>
<temp>0.00</temp>
<bpm>0</bpm>
<rpm>0.00</rpm>
</extensions>
</trkpt>
<trkpt lat="32.590641022" lon="35.004817963">
  <ele>55.734879</ele>
  <time>2012-06-23T03:41:23Z</time>
<extensions>
<speed>5.1</speed>
<temp>0.00</temp>
<bpm>0</bpm>
<rpm>0.00</rpm>
</extensions>
</trkpt>
<trkpt lat="32.590641022" lon="35.004753113">
  <ele>55.606949</ele>
  <time>2012-06-23T03:41:24Z</time>
<extensions>
<speed>5.1</speed>
<temp>0.00</temp>
<bpm>0</bpm>
<rpm>0.00</rpm>
</extensions>
</trkpt>
<trkpt lat="32.590663910" lon="35.004688263">
  <ele>56.267105</ele>
  <time>2012-06-23T03:41:25Z</time>
<extensions>
<speed>5.1</speed>
<temp>0.00</temp>
<bpm>0</bpm>
<rpm>0.00</rpm>
</extensions>
</trkpt>
<trkpt lat="32.590660095" lon="35.004627228">
  <ele>55.295425</ele>
  <time>2012-06-23T03:41:26Z</time>
<extensions>
<speed>4.9</speed>
<temp>0.00</temp>
<bpm>0</bpm>
<rpm>0.00</rpm>
</extensions>
</trkpt>
<trkpt lat="32.590660095" lon="35.004570007">
  <ele>55.129410</ele>
  <time>2012-06-23T03:41:27Z</time>
<extensions>
<speed>4.4</speed>
<temp>0.00</temp>
<bpm>0</bpm>
<rpm>0.00</rpm>
</extensions>
</trkpt>
<trkpt lat="32.590698242" lon="35.004505157">
  <ele>55.822769</ele>
  <time>2012-06-23T03:41:28Z</time>
<extensions>
<speed>4.4</speed>
<temp>0.00</temp>
<bpm>0</bpm>
<rpm>0.00</rpm>
</extensions>
</trkpt>
<trkpt lat="32.590702057" lon="35.004455566">
  <ele>56.709488</ele>
  <time>2012-06-23T03:41:29Z</time>
<extensions>
<speed>4.9</speed>
<temp>0.00</temp>
<bpm>0</bpm>
<rpm>0.00</rpm>
</extensions>
</trkpt>
<trkpt lat="32.590702057" lon="35.004394531">
  <ele>56.793472</ele>
  <time>2012-06-23T03:41:30Z</time>
<extensions>
<speed>5.1</speed>
<temp>0.00</temp>
<bpm>0</bpm>
<rpm>0.00</rpm>
</extensions>
</trkpt>
<trkpt lat="32.590705872" lon="35.004325867">
  <ele>56.242691</ele>
  <time>2012-06-23T03:41:31Z</time>
<extensions>
<speed>5.4</speed>
<temp>0.00</temp>
<bpm>0</bpm>
<rpm>0.00</rpm>
</extensions>
</trkpt>
<trkpt lat="32.590698242" lon="35.004261017">
  <ele>55.540543</ele>
  <time>2012-06-23T03:41:32Z</time>
<extensions>
<speed>5.3</speed>
<temp>0.00</temp>
<bpm>0</bpm>
<rpm>0.00</rpm>
</extensions>
</trkpt>
<trkpt lat="32.590690613" lon="35.004199982">
  <ele>55.826675</ele>
  <time>2012-06-23T03:41:33Z</time>
<extensions>
<speed>6.1</speed>
<temp>0.00</temp>
<bpm>0</bpm>
<rpm>0.00</rpm>
</extensions>
</trkpt>
<trkpt lat="32.590679169" lon="35.004127502">
  <ele>55.607925</ele>
  <time>2012-06-23T03:41:34Z</time>
<extensions>
<speed>6.5</speed>
<temp>0.00</temp>
<bpm>0</bpm>
<rpm>0.00</rpm>
</extensions>
</trkpt>
<trkpt lat="32.590682983" lon="35.004051208">
  <ele>55.632339</ele>
  <time>2012-06-23T03:41:35Z</time>
<extensions>
<speed>6.4</speed>
<temp>0.00</temp>
<bpm>0</bpm>
<rpm>0.00</rpm>
</extensions>
</trkpt>
<trkpt lat="32.590682983" lon="35.003978729">
  <ele>55.501480</ele>
  <time>2012-06-23T03:41:36Z</time>
<extensions>
<speed>7.0</speed>
<temp>0.00</temp>
<bpm>0</bpm>
<rpm>0.00</rpm>
</extensions>
</trkpt>
<trkpt lat="32.590686798" lon="35.003890991">
  <ele>54.569839</ele>
  <time>2012-06-23T03:41:37Z</time>
<extensions>
<speed>7.3</speed>
<temp>0.00</temp>
<bpm>0</bpm>
<rpm>0.00</rpm>
</extensions>
</trkpt>
<trkpt lat="32.590679169" lon="35.003799438">
  <ele>54.469254</ele>
  <time>2012-06-23T03:41:38Z</time>
<extensions>
<speed>7.5</speed>
<temp>0.00</temp>
<bpm>0</bpm>
<rpm>0.00</rpm>
</extensions>
</trkpt>
<trkpt lat="32.590660095" lon="35.003704071">
  <ele>55.257339</ele>
  <time>2012-06-23T03:41:39Z</time>
<extensions>
<speed>7.3</speed>
<temp>0.00</temp>
<bpm>0</bpm>
<rpm>0.00</rpm>
</extensions>
</trkpt>
<trkpt lat="32.590637207" lon="35.003620148">
  <ele>55.077652</ele>
  <time>2012-06-23T03:41:40Z</time>
<extensions>
<speed>7.6</speed>
<temp>0.00</temp>
<bpm>0</bpm>
<rpm>0.00</rpm>
</extensions>
</trkpt>
<trkpt lat="32.590610504" lon="35.003540039">
  <ele>55.168472</ele>
  <time>2012-06-23T03:41:41Z</time>
<extensions>
<speed>7.7</speed>
<temp>0.00</temp>
<bpm>0</bpm>
<rpm>0.00</rpm>
</extensions>
</trkpt>
<trkpt lat="32.590583801" lon="35.003452301">
  <ele>55.456558</ele>
  <time>2012-06-23T03:41:42Z</time>
<extensions>
<speed>7.6</speed>
<temp>0.00</temp>
<bpm>0</bpm>
<rpm>0.00</rpm>
</extensions>
</trkpt>
<trkpt lat="32.590557098" lon="35.003368378">
  <ele>55.596207</ele>
  <time>2012-06-23T03:41:43Z</time>
<extensions>
<speed>7.9</speed>
<temp>0.00</temp>
<bpm>0</bpm>
<rpm>0.00</rpm>
</extensions>
</trkpt>
<trkpt lat="32.590530396" lon="35.003280640">
  <ele>55.911636</ele>
  <time>2012-06-23T03:41:44Z</time>
<extensions>
<speed>8.1</speed>
<temp>0.00</temp>
<bpm>0</bpm>
<rpm>0.00</rpm>
</extensions>
</trkpt>
<trkpt lat="32.590503693" lon="35.003200531">
  <ele>55.645035</ele>
  <time>2012-06-23T03:41:45Z</time>
<extensions>
<speed>7.4</speed>
<temp>0.00</temp>
<bpm>0</bpm>
<rpm>0.00</rpm>
</extensions>
</trkpt>
<trkpt lat="32.590488434" lon="35.003131866">
  <ele>55.569839</ele>
  <time>2012-06-23T03:41:46Z</time>
<extensions>
<speed>6.9</speed>
<temp>0.00</temp>
<bpm>0</bpm>
<rpm>0.00</rpm>
</extensions>
</trkpt>
<trkpt lat="32.590473175" lon="35.003055573">
  <ele>55.391129</ele>
  <time>2012-06-23T03:41:47Z</time>
<extensions>
<speed>6.9</speed>
<temp>0.00</temp>
<bpm>0</bpm>
<rpm>0.00</rpm>
</extensions>
</trkpt>
<trkpt lat="32.590465546" lon="35.002979279">
  <ele>55.508316</ele>
  <time>2012-06-23T03:41:48Z</time>
<extensions>
<speed>7.1</speed>
<temp>0.00</temp>
<bpm>0</bpm>
<rpm>0.00</rpm>
</extensions>
</trkpt>
<trkpt lat="32.590461731" lon="35.002906799">
  <ele>55.581558</ele>
  <time>2012-06-23T03:41:49Z</time>
<extensions>
<speed>6.5</speed>
<temp>0.00</temp>
<bpm>0</bpm>
<rpm>0.00</rpm>
</extensions>
</trkpt>
<trkpt lat="32.590461731" lon="35.002838135">
  <ele>55.438980</ele>
  <time>2012-06-23T03:41:50Z</time>
<extensions>
<speed>5.7</speed>
<temp>0.00</temp>
<bpm>0</bpm>
<rpm>0.00</rpm>
</extensions>
</trkpt>
<trkpt lat="32.590450287" lon="35.002780914">
  <ele>54.864761</ele>
  <time>2012-06-23T03:41:51Z</time>
<extensions>
<speed>5.7</speed>
<temp>0.00</temp>
<bpm>0</bpm>
<rpm>0.00</rpm>
</extensions>
</trkpt>
<trkpt lat="32.590446472" lon="35.002723694">
  <ele>54.380386</ele>
  <time>2012-06-23T03:41:52Z</time>
<extensions>
<speed>4.6</speed>
<temp>0.00</temp>
<bpm>0</bpm>
<rpm>0.00</rpm>
</extensions>
</trkpt>
<trkpt lat="32.590442657" lon="35.002666473">
  <ele>54.088394</ele>
  <time>2012-06-23T03:41:53Z</time>
<extensions>
<speed>5.1</speed>
<temp>0.00</temp>
<bpm>0</bpm>
<rpm>0.00</rpm>
</extensions>
</trkpt>
<trkpt lat="32.590442657" lon="35.002605438">
  <ele>53.371597</ele>
  <time>2012-06-23T03:41:54Z</time>
<extensions>
<speed>5.2</speed>
<temp>0.00</temp>
<bpm>0</bpm>
<rpm>0.00</rpm>
</extensions>
</trkpt>
<trkpt lat="32.590454102" lon="35.002555847">
  <ele>53.180191</ele>
  <time>2012-06-23T03:41:55Z</time>
<extensions>
<speed>3.6</speed>
<temp>0.00</temp>
<bpm>0</bpm>
<rpm>0.00</rpm>
</extensions>
</trkpt>
<trkpt lat="32.590450287" lon="35.002498627">
  <ele>52.319839</ele>
  <time>2012-06-23T03:41:56Z</time>
<extensions>
<speed>4.3</speed>
<temp>0.00</temp>
<bpm>0</bpm>
<rpm>0.00</rpm>
</extensions>
</trkpt>
<trkpt lat="32.590446472" lon="35.002445221">
  <ele>51.807144</ele>
  <time>2012-06-23T03:41:57Z</time>
<extensions>
<speed>3.7</speed>
<temp>0.00</temp>
<bpm>0</bpm>
<rpm>0.00</rpm>
</extensions>
</trkpt>
<trkpt lat="32.590450287" lon="35.002399445">
  <ele>51.424332</ele>
  <time>2012-06-23T03:41:58Z</time>
<extensions>
<speed>4.1</speed>
<temp>0.00</temp>
<bpm>0</bpm>
<rpm>0.00</rpm>
</extensions>
</trkpt>
<trkpt lat="32.590450287" lon="35.002342224">
  <ele>51.238785</ele>
  <time>2012-06-23T03:41:59Z</time>
<extensions>
<speed>4.2</speed>
<temp>0.00</temp>
<bpm>0</bpm>
<rpm>0.00</rpm>
</extensions>
</trkpt>
<trkpt lat="32.590442657" lon="35.002277374">
  <ele>50.236832</ele>
  <time>2012-06-23T03:42:00Z</time>
<extensions>
<speed>5.0</speed>
<temp>0.00</temp>
<bpm>0</bpm>
<rpm>0.00</rpm>
</extensions>
</trkpt>
<trkpt lat="32.590446472" lon="35.002220154">
  <ele>49.469254</ele>
  <time>2012-06-23T03:42:01Z</time>
<extensions>
<speed>4.6</speed>
<temp>0.00</temp>
<bpm>0</bpm>
<rpm>0.00</rpm>
</extensions>
</trkpt>
<trkpt lat="32.590454102" lon="35.002159119">
  <ele>48.528824</ele>
  <time>2012-06-23T03:42:02Z</time>
<extensions>
<speed>5.1</speed>
<temp>0.00</temp>
<bpm>0</bpm>
<rpm>0.00</rpm>
</extensions>
</trkpt>
<trkpt lat="32.590446472" lon="35.002090454">
  <ele>47.746597</ele>
  <time>2012-06-23T03:42:03Z</time>
<extensions>
<speed>5.4</speed>
<temp>0.00</temp>
<bpm>0</bpm>
<rpm>0.00</rpm>
</extensions>
</trkpt>
<trkpt lat="32.590442657" lon="35.002017975">
  <ele>47.418472</ele>
  <time>2012-06-23T03:42:04Z</time>
<extensions>
<speed>5.2</speed>
<temp>0.00</temp>
<bpm>0</bpm>
<rpm>0.00</rpm>
</extensions>
</trkpt>
<trkpt lat="32.590431213" lon="35.001956940">
  <ele>46.513199</ele>
  <time>2012-06-23T03:42:05Z</time>
<extensions>
<speed>5.3</speed>
<temp>0.00</temp>
<bpm>0</bpm>
<rpm>0.00</rpm>
</extensions>
</trkpt>
<trkpt lat="32.590419769" lon="35.001899719">
  <ele>45.579605</ele>
  <time>2012-06-23T03:42:06Z</time>
<extensions>
<speed>5.1</speed>
<temp>0.00</temp>
<bpm>0</bpm>
<rpm>0.00</rpm>
</extensions>
</trkpt>
<trkpt lat="32.590419769" lon="35.001831055">
  <ele>45.300308</ele>
  <time>2012-06-23T03:42:07Z</time>
<extensions>
<speed>4.9</speed>
<temp>0.00</temp>
<bpm>0</bpm>
<rpm>0.00</rpm>
</extensions>
</trkpt>
<trkpt lat="32.590419769" lon="35.001773834">
  <ele>44.573746</ele>
  <time>2012-06-23T03:42:08Z</time>
<extensions>
<speed>4.9</speed>
<temp>0.00</temp>
<bpm>0</bpm>
<rpm>0.00</rpm>
</extensions>
</trkpt>
<trkpt lat="32.590419769" lon="35.001716614">
  <ele>44.092300</ele>
  <time>2012-06-23T03:42:09Z</time>
<extensions>
<speed>5.1</speed>
<temp>0.00</temp>
<bpm>0</bpm>
<rpm>0.00</rpm>
</extensions>
</trkpt>
<trkpt lat="32.590419769" lon="35.001655579">
  <ele>43.120621</ele>
  <time>2012-06-23T03:42:10Z</time>
<extensions>
<speed>5.4</speed>
<temp>0.00</temp>
<bpm>0</bpm>
<rpm>0.00</rpm>
</extensions>
</trkpt>
<trkpt lat="32.590419769" lon="35.001594543">
  <ele>42.461441</ele>
  <time>2012-06-23T03:42:11Z</time>
<extensions>
<speed>5.3</speed>
<temp>0.00</temp>
<bpm>0</bpm>
<rpm>0.00</rpm>
</extensions>
</trkpt>
<trkpt lat="32.590431213" lon="35.001525879">
  <ele>42.261246</ele>
  <time>2012-06-23T03:42:12Z</time>
<extensions>
<speed>5.7</speed>
<temp>0.00</temp>
<bpm>0</bpm>
<rpm>0.00</rpm>
</extensions>
</trkpt>
<trkpt lat="32.590435028" lon="35.001453400">
  <ele>41.948746</ele>
  <time>2012-06-23T03:42:13Z</time>
<extensions>
<speed>5.5</speed>
<temp>0.00</temp>
<bpm>0</bpm>
<rpm>0.00</rpm>
</extensions>
</trkpt>
<trkpt lat="32.590435028" lon="35.001392365">
  <ele>41.881363</ele>
  <time>2012-06-23T03:42:14Z</time>
<extensions>
<speed>5.6</speed>
<temp>0.00</temp>
<bpm>0</bpm>
<rpm>0.00</rpm>
</extensions>
</trkpt>
<trkpt lat="32.590435028" lon="35.001331329">
  <ele>41.008316</ele>
  <time>2012-06-23T03:42:15Z</time>
<extensions>
<speed>5.5</speed>
<temp>0.00</temp>
<bpm>0</bpm>
<rpm>0.00</rpm>
</extensions>
</trkpt>
<trkpt lat="32.590438843" lon="35.001270294">
  <ele>40.457535</ele>
  <time>2012-06-23T03:42:16Z</time>
<extensions>
<speed>5.9</speed>
<temp>0.00</temp>
<bpm>0</bpm>
<rpm>0.00</rpm>
</extensions>
</trkpt>
<trkpt lat="32.590442657" lon="35.001197815">
  <ele>40.316910</ele>
  <time>2012-06-23T03:42:17Z</time>
<extensions>
<speed>6.1</speed>
<temp>0.00</temp>
<bpm>0</bpm>
<rpm>0.00</rpm>
</extensions>
</trkpt>
<trkpt lat="32.590442657" lon="35.001129150">
  <ele>40.198746</ele>
  <time>2012-06-23T03:42:18Z</time>
<extensions>
<speed>5.6</speed>
<temp>0.00</temp>
<bpm>0</bpm>
<rpm>0.00</rpm>
</extensions>
</trkpt>
<trkpt lat="32.590450287" lon="35.001071930">
  <ele>39.763199</ele>
  <time>2012-06-23T03:42:19Z</time>
<extensions>
<speed>5.1</speed>
<temp>0.00</temp>
<bpm>0</bpm>
<rpm>0.00</rpm>
</extensions>
</trkpt>
<trkpt lat="32.590442657" lon="35.001007080">
  <ele>39.470230</ele>
  <time>2012-06-23T03:42:20Z</time>
<extensions>
<speed>4.4</speed>
<temp>0.00</temp>
<bpm>0</bpm>
<rpm>0.00</rpm>
</extensions>
</trkpt>
<trkpt lat="32.590442657" lon="35.000934601">
  <ele>39.713394</ele>
  <time>2012-06-23T03:42:21Z</time>
<extensions>
<speed>5.1</speed>
<temp>0.00</temp>
<bpm>0</bpm>
<rpm>0.00</rpm>
</extensions>
</trkpt>
<trkpt lat="32.590438843" lon="35.000877380">
  <ele>39.345230</ele>
  <time>2012-06-23T03:42:22Z</time>
<extensions>
<speed>4.9</speed>
<temp>0.00</temp>
<bpm>0</bpm>
<rpm>0.00</rpm>
</extensions>
</trkpt>
<trkpt lat="32.590446472" lon="35.000827789">
  <ele>39.092300</ele>
  <time>2012-06-23T03:42:23Z</time>
<extensions>
<speed>4.3</speed>
<temp>0.00</temp>
<bpm>0</bpm>
<rpm>0.00</rpm>
</extensions>
</trkpt>
<trkpt lat="32.590442657" lon="35.000766754">
  <ele>39.123550</ele>
  <time>2012-06-23T03:42:24Z</time>
<extensions>
<speed>4.0</speed>
<temp>0.00</temp>
<bpm>0</bpm>
<rpm>0.00</rpm>
</extensions>
</trkpt>
<trkpt lat="32.590442657" lon="35.000720978">
  <ele>38.503433</ele>
  <time>2012-06-23T03:42:25Z</time>
<extensions>
<speed>3.9</speed>
<temp>0.00</temp>
<bpm>0</bpm>
<rpm>0.00</rpm>
</extensions>
</trkpt>
<trkpt lat="32.590438843" lon="35.000675201">
  <ele>37.803238</ele>
  <time>2012-06-23T03:42:26Z</time>
<extensions>
<speed>3.8</speed>
<temp>0.00</temp>
<bpm>0</bpm>
<rpm>0.00</rpm>
</extensions>
</trkpt>
<trkpt lat="32.590431213" lon="35.000633240">
  <ele>36.917496</ele>
  <time>2012-06-23T03:42:27Z</time>
<extensions>
<speed>4.4</speed>
<temp>0.00</temp>
<bpm>0</bpm>
<rpm>0.00</rpm>
</extensions>
</trkpt>
<trkpt lat="32.590435028" lon="35.000576019">
  <ele>36.896011</ele>
  <time>2012-06-23T03:42:28Z</time>
<extensions>
<speed>4.3</speed>
<temp>0.00</temp>
<bpm>0</bpm>
<rpm>0.00</rpm>
</extensions>
</trkpt>
<trkpt lat="32.590442657" lon="35.000518799">
  <ele>37.195816</ele>
  <time>2012-06-23T03:42:29Z</time>
<extensions>
<speed>4.8</speed>
<temp>0.00</temp>
<bpm>0</bpm>
<rpm>0.00</rpm>
</extensions>
</trkpt>
<trkpt lat="32.590438843" lon="35.000465393">
  <ele>36.824722</ele>
  <time>2012-06-23T03:42:30Z</time>
<extensions>
<speed>5.2</speed>
<temp>0.00</temp>
<bpm>0</bpm>
<rpm>0.00</rpm>
</extensions>
</trkpt>
<trkpt lat="32.590446472" lon="35.000400543">
  <ele>37.357925</ele>
  <time>2012-06-23T03:42:31Z</time>
<extensions>
<speed>4.7</speed>
<temp>0.00</temp>
<bpm>0</bpm>
<rpm>0.00</rpm>
</extensions>
</trkpt>
<trkpt lat="32.590446472" lon="35.000335693">
  <ele>37.528824</ele>
  <time>2012-06-23T03:42:32Z</time>
<extensions>
<speed>4.0</speed>
<temp>0.00</temp>
<bpm>0</bpm>
<rpm>0.00</rpm>
</extensions>
</trkpt>
<trkpt lat="32.590446472" lon="35.000267029">
  <ele>38.017105</ele>
  <time>2012-06-23T03:42:33Z</time>
<extensions>
<speed>4.8</speed>
<temp>0.00</temp>
<bpm>0</bpm>
<rpm>0.00</rpm>
</extensions>
</trkpt>
<trkpt lat="32.590450287" lon="35.000194550">
  <ele>38.359879</ele>
  <time>2012-06-23T03:42:34Z</time>
<extensions>
<speed>5.6</speed>
<temp>0.00</temp>
<bpm>0</bpm>
<rpm>0.00</rpm>
</extensions>
</trkpt>
<trkpt lat="32.590454102" lon="35.000125885">
  <ele>38.295425</ele>
  <time>2012-06-23T03:42:35Z</time>
<extensions>
<speed>5.4</speed>
<temp>0.00</temp>
<bpm>0</bpm>
<rpm>0.00</rpm>
</extensions>
</trkpt>
<trkpt lat="32.590461731" lon="35.000061035">
  <ele>38.062027</ele>
  <time>2012-06-23T03:42:36Z</time>
<extensions>
<speed>5.3</speed>
<temp>0.00</temp>
<bpm>0</bpm>
<rpm>0.00</rpm>
</extensions>
</trkpt>
<trkpt lat="32.590465546" lon="35.000003815">
  <ele>37.842300</ele>
  <time>2012-06-23T03:42:37Z</time>
<extensions>
<speed>5.8</speed>
<temp>0.00</temp>
<bpm>0</bpm>
<rpm>0.00</rpm>
</extensions>
</trkpt>
<trkpt lat="32.590469360" lon="34.999927521">
  <ele>38.594254</ele>
  <time>2012-06-23T03:42:38Z</time>
<extensions>
<speed>5.7</speed>
<temp>0.00</temp>
<bpm>0</bpm>
<rpm>0.00</rpm>
</extensions>
</trkpt>
<trkpt lat="32.590476990" lon="34.999858856">
  <ele>39.091324</ele>
  <time>2012-06-23T03:42:39Z</time>
<extensions>
<speed>5.7</speed>
<temp>0.00</temp>
<bpm>0</bpm>
<rpm>0.00</rpm>
</extensions>
</trkpt>
<trkpt lat="32.590492249" lon="34.999786377">
  <ele>39.868668</ele>
  <time>2012-06-23T03:42:40Z</time>
<extensions>
<speed>5.1</speed>
<temp>0.00</temp>
<bpm>0</bpm>
<rpm>0.00</rpm>
</extensions>
</trkpt>
<trkpt lat="32.590499878" lon="34.999725342">
  <ele>39.846207</ele>
  <time>2012-06-23T03:42:41Z</time>
<extensions>
<speed>5.7</speed>
<temp>0.00</temp>
<bpm>0</bpm>
<rpm>0.00</rpm>
</extensions>
</trkpt>
<trkpt lat="32.590518951" lon="34.999668121">
  <ele>41.457535</ele>
  <time>2012-06-23T03:42:42Z</time>
<extensions>
<speed>5.3</speed>
<temp>0.00</temp>
<bpm>0</bpm>
<rpm>0.00</rpm>
</extensions>
</trkpt>
<trkpt lat="32.590530396" lon="34.999607086">
  <ele>42.544449</ele>
  <time>2012-06-23T03:42:43Z</time>
<extensions>
<speed>5.3</speed>
<temp>0.00</temp>
<bpm>0</bpm>
<rpm>0.00</rpm>
</extensions>
</trkpt>
<trkpt lat="32.590538025" lon="34.999538422">
  <ele>43.790543</ele>
  <time>2012-06-23T03:42:44Z</time>
<extensions>
<speed>5.4</speed>
<temp>0.00</temp>
<bpm>0</bpm>
<rpm>0.00</rpm>
</extensions>
</trkpt>
<trkpt lat="32.590557098" lon="34.999477386">
  <ele>45.097183</ele>
  <time>2012-06-23T03:42:45Z</time>
<extensions>
<speed>5.2</speed>
<temp>0.00</temp>
<bpm>0</bpm>
<rpm>0.00</rpm>
</extensions>
</trkpt>
<trkpt lat="32.590560913" lon="34.999416351">
  <ele>45.780777</ele>
  <time>2012-06-23T03:42:46Z</time>
<extensions>
<speed>5.5</speed>
<temp>0.00</temp>
<bpm>0</bpm>
<rpm>0.00</rpm>
</extensions>
</trkpt>
<trkpt lat="32.590557098" lon="34.999362946">
  <ele>46.130386</ele>
  <time>2012-06-23T03:42:47Z</time>
<extensions>
<speed>5.5</speed>
<temp>0.00</temp>
<bpm>0</bpm>
<rpm>0.00</rpm>
</extensions>
</trkpt>
<trkpt lat="32.590557098" lon="34.999301910">
  <ele>46.467300</ele>
  <time>2012-06-23T03:42:48Z</time>
<extensions>
<speed>5.1</speed>
<temp>0.00</temp>
<bpm>0</bpm>
<rpm>0.00</rpm>
</extensions>
</trkpt>
<trkpt lat="32.590560913" lon="34.999244690">
  <ele>46.944839</ele>
  <time>2012-06-23T03:42:49Z</time>
<extensions>
<speed>5.0</speed>
<temp>0.00</temp>
<bpm>0</bpm>
<rpm>0.00</rpm>
</extensions>
</trkpt>
<trkpt lat="32.590564728" lon="34.999191284">
  <ele>47.576675</ele>
  <time>2012-06-23T03:42:50Z</time>
<extensions>
<speed>5.1</speed>
<temp>0.00</temp>
<bpm>0</bpm>
<rpm>0.00</rpm>
</extensions>
</trkpt>
<trkpt lat="32.590560913" lon="34.999137878">
  <ele>47.789566</ele>
  <time>2012-06-23T03:42:51Z</time>
<extensions>
<speed>4.8</speed>
<temp>0.00</temp>
<bpm>0</bpm>
<rpm>0.00</rpm>
</extensions>
</trkpt>
<trkpt lat="32.590579987" lon="34.999065399">
  <ele>48.304214</ele>
  <time>2012-06-23T03:42:52Z</time>
<extensions>
<speed>4.5</speed>
<temp>0.00</temp>
<bpm>0</bpm>
<rpm>0.00</rpm>
</extensions>
</trkpt>
<trkpt lat="32.590579987" lon="34.999008179">
  <ele>48.862808</ele>
  <time>2012-06-23T03:42:53Z</time>
<extensions>
<speed>5.2</speed>
<temp>0.00</temp>
<bpm>0</bpm>
<rpm>0.00</rpm>
</extensions>
</trkpt>
<trkpt lat="32.590579987" lon="34.998947144">
  <ele>49.357925</ele>
  <time>2012-06-23T03:42:54Z</time>
<extensions>
<speed>5.5</speed>
<temp>0.00</temp>
<bpm>0</bpm>
<rpm>0.00</rpm>
</extensions>
</trkpt>
<trkpt lat="32.590579987" lon="34.998878479">
  <ele>50.374527</ele>
  <time>2012-06-23T03:42:55Z</time>
<extensions>
<speed>5.7</speed>
<temp>0.00</temp>
<bpm>0</bpm>
<rpm>0.00</rpm>
</extensions>
</trkpt>
<trkpt lat="32.590568542" lon="34.998817444">
  <ele>50.532730</ele>
  <time>2012-06-23T03:42:56Z</time>
<extensions>
<speed>5.7</speed>
<temp>0.00</temp>
<bpm>0</bpm>
<rpm>0.00</rpm>
</extensions>
</trkpt>
<trkpt lat="32.590557098" lon="34.998760223">
  <ele>50.515152</ele>
  <time>2012-06-23T03:42:57Z</time>
<extensions>
<speed>5.5</speed>
<temp>0.00</temp>
<bpm>0</bpm>
<rpm>0.00</rpm>
</extensions>
</trkpt>
<trkpt lat="32.590541840" lon="34.998703003">
  <ele>50.983902</ele>
  <time>2012-06-23T03:42:58Z</time>
<extensions>
<speed>5.7</speed>
<temp>0.00</temp>
<bpm>0</bpm>
<rpm>0.00</rpm>
</extensions>
</trkpt>
<trkpt lat="32.590522766" lon="34.998622894">
  <ele>52.494644</ele>
  <time>2012-06-23T03:42:59Z</time>
<extensions>
<speed>5.9</speed>
<temp>0.00</temp>
<bpm>0</bpm>
<rpm>0.00</rpm>
</extensions>
</trkpt>
<trkpt lat="32.590503693" lon="34.998558044">
  <ele>53.205582</ele>
  <time>2012-06-23T03:43:00Z</time>
<extensions>
<speed>6.1</speed>
<temp>0.00</temp>
<bpm>0</bpm>
<rpm>0.00</rpm>
</extensions>
</trkpt>
<trkpt lat="32.590488434" lon="34.998489380">
  <ele>54.120621</ele>
  <time>2012-06-23T03:43:01Z</time>
<extensions>
<speed>5.8</speed>
<temp>0.00</temp>
<bpm>0</bpm>
<rpm>0.00</rpm>
</extensions>
</trkpt>
<trkpt lat="32.590469360" lon="34.998424530">
  <ele>54.887222</ele>
  <time>2012-06-23T03:43:02Z</time>
<extensions>
<speed>5.7</speed>
<temp>0.00</temp>
<bpm>0</bpm>
<rpm>0.00</rpm>
</extensions>
</trkpt>
<trkpt lat="32.590446472" lon="34.998355865">
  <ele>55.798355</ele>
  <time>2012-06-23T03:43:03Z</time>
<extensions>
<speed>5.9</speed>
<temp>0.00</temp>
<bpm>0</bpm>
<rpm>0.00</rpm>
</extensions>
</trkpt>
<trkpt lat="32.590427399" lon="34.998291016">
  <ele>55.355972</ele>
  <time>2012-06-23T03:43:04Z</time>
<extensions>
<speed>6.3</speed>
<temp>0.00</temp>
<bpm>0</bpm>
<rpm>0.00</rpm>
</extensions>
</trkpt>
<trkpt lat="32.590404510" lon="34.998229980">
  <ele>55.141129</ele>
  <time>2012-06-23T03:43:05Z</time>
<extensions>
<speed>6.1</speed>
<temp>0.00</temp>
<bpm>0</bpm>
<rpm>0.00</rpm>
</extensions>
</trkpt>
<trkpt lat="32.590381622" lon="34.998168945">
  <ele>55.170425</ele>
  <time>2012-06-23T03:43:06Z</time>
<extensions>
<speed>6.3</speed>
<temp>0.00</temp>
<bpm>0</bpm>
<rpm>0.00</rpm>
</extensions>
</trkpt>
<trkpt lat="32.590362549" lon="34.998107910">
  <ele>54.521011</ele>
  <time>2012-06-23T03:43:07Z</time>
<extensions>
<speed>6.1</speed>
<temp>0.00</temp>
<bpm>0</bpm>
<rpm>0.00</rpm>
</extensions>
</trkpt>
<trkpt lat="32.590332031" lon="34.998046875">
  <ele>54.200699</ele>
  <time>2012-06-23T03:43:08Z</time>
<extensions>
<speed>5.8</speed>
<temp>0.00</temp>
<bpm>0</bpm>
<rpm>0.00</rpm>
</extensions>
</trkpt>
<trkpt lat="32.590320587" lon="34.997989655">
  <ele>53.866714</ele>
  <time>2012-06-23T03:43:09Z</time>
<extensions>
<speed>5.5</speed>
<temp>0.00</temp>
<bpm>0</bpm>
<rpm>0.00</rpm>
</extensions>
</trkpt>
<trkpt lat="32.590297699" lon="34.997932434">
  <ele>53.749527</ele>
  <time>2012-06-23T03:43:10Z</time>
<extensions>
<speed>5.4</speed>
<temp>0.00</temp>
<bpm>0</bpm>
<rpm>0.00</rpm>
</extensions>
</trkpt>
<trkpt lat="32.590278625" lon="34.997875214">
  <ele>53.759293</ele>
  <time>2012-06-23T03:43:11Z</time>
<extensions>
<speed>5.3</speed>
<temp>0.00</temp>
<bpm>0</bpm>
<rpm>0.00</rpm>
</extensions>
</trkpt>
<trkpt lat="32.590255737" lon="34.997821808">
  <ele>53.252457</ele>
  <time>2012-06-23T03:43:12Z</time>
<extensions>
<speed>5.1</speed>
<temp>0.00</temp>
<bpm>0</bpm>
<rpm>0.00</rpm>
</extensions>
</trkpt>
<trkpt lat="32.590229034" lon="34.997772217">
  <ele>52.650894</ele>
  <time>2012-06-23T03:43:13Z</time>
<extensions>
<speed>5.2</speed>
<temp>0.00</temp>
<bpm>0</bpm>
<rpm>0.00</rpm>
</extensions>
</trkpt>
<trkpt lat="32.590206146" lon="34.997718811">
  <ele>52.310074</ele>
  <time>2012-06-23T03:43:14Z</time>
<extensions>
<speed>5.2</speed>
<temp>0.00</temp>
<bpm>0</bpm>
<rpm>0.00</rpm>
</extensions>
</trkpt>
<trkpt lat="32.590183258" lon="34.997673035">
  <ele>51.953629</ele>
  <time>2012-06-23T03:43:15Z</time>
<extensions>
<speed>5.3</speed>
<temp>0.00</temp>
<bpm>0</bpm>
<rpm>0.00</rpm>
</extensions>
</trkpt>
<trkpt lat="32.590164185" lon="34.997619629">
  <ele>51.685074</ele>
  <time>2012-06-23T03:43:16Z</time>
<extensions>
<speed>5.1</speed>
<temp>0.00</temp>
<bpm>0</bpm>
<rpm>0.00</rpm>
</extensions>
</trkpt>
<trkpt lat="32.590145111" lon="34.997570038">
  <ele>50.845230</ele>
  <time>2012-06-23T03:43:17Z</time>
<extensions>
<speed>4.7</speed>
<temp>0.00</temp>
<bpm>0</bpm>
<rpm>0.00</rpm>
</extensions>
</trkpt>
<trkpt lat="32.590122223" lon="34.997516632">
  <ele>50.648941</ele>
  <time>2012-06-23T03:43:18Z</time>
<extensions>
<speed>4.7</speed>
<temp>0.00</temp>
<bpm>0</bpm>
<rpm>0.00</rpm>
</extensions>
</trkpt>
<trkpt lat="32.590114594" lon="34.997467041">
  <ele>50.148941</ele>
  <time>2012-06-23T03:43:19Z</time>
<extensions>
<speed>4.5</speed>
<temp>0.00</temp>
<bpm>0</bpm>
<rpm>0.00</rpm>
</extensions>
</trkpt>
<trkpt lat="32.590095520" lon="34.997417450">
  <ele>49.396988</ele>
  <time>2012-06-23T03:43:20Z</time>
<extensions>
<speed>4.8</speed>
<temp>0.00</temp>
<bpm>0</bpm>
<rpm>0.00</rpm>
</extensions>
</trkpt>
<trkpt lat="32.590072632" lon="34.997367859">
  <ele>48.595230</ele>
  <time>2012-06-23T03:43:21Z</time>
<extensions>
<speed>5.2</speed>
<temp>0.00</temp>
<bpm>0</bpm>
<rpm>0.00</rpm>
</extensions>
</trkpt>
<trkpt lat="32.590053558" lon="34.997314453">
  <ele>48.051285</ele>
  <time>2012-06-23T03:43:22Z</time>
<extensions>
<speed>5.5</speed>
<temp>0.00</temp>
<bpm>0</bpm>
<rpm>0.00</rpm>
</extensions>
</trkpt>
<trkpt lat="32.590034485" lon="34.997238159">
  <ele>48.901871</ele>
  <time>2012-06-23T03:43:23Z</time>
<extensions>
<speed>5.9</speed>
<temp>0.00</temp>
<bpm>0</bpm>
<rpm>0.00</rpm>
</extensions>
</trkpt>
<trkpt lat="32.590015411" lon="34.997161865">
  <ele>50.449722</ele>
  <time>2012-06-23T03:43:24Z</time>
<extensions>
<speed>6.0</speed>
<temp>0.00</temp>
<bpm>0</bpm>
<rpm>0.00</rpm>
</extensions>
</trkpt>
<trkpt lat="32.589996338" lon="34.997104645">
  <ele>50.039566</ele>
  <time>2012-06-23T03:43:25Z</time>
<extensions>
<speed>5.4</speed>
<temp>0.00</temp>
<bpm>0</bpm>
<rpm>0.00</rpm>
</extensions>
</trkpt>
<trkpt lat="32.589973450" lon="34.997035980">
  <ele>51.005386</ele>
  <time>2012-06-23T03:43:26Z</time>
<extensions>
<speed>5.8</speed>
<temp>0.00</temp>
<bpm>0</bpm>
<rpm>0.00</rpm>
</extensions>
</trkpt>
<trkpt lat="32.589958191" lon="34.996978760">
  <ele>51.062027</ele>
  <time>2012-06-23T03:43:27Z</time>
<extensions>
<speed>5.6</speed>
<temp>0.00</temp>
<bpm>0</bpm>
<rpm>0.00</rpm>
</extensions>
</trkpt>
<trkpt lat="32.589942932" lon="34.996921539">
  <ele>51.105972</ele>
  <time>2012-06-23T03:43:28Z</time>
<extensions>
<speed>5.5</speed>
<temp>0.00</temp>
<bpm>0</bpm>
<rpm>0.00</rpm>
</extensions>
</trkpt>
<trkpt lat="32.589923859" lon="34.996864319">
  <ele>51.201675</ele>
  <time>2012-06-23T03:43:29Z</time>
<extensions>
<speed>5.3</speed>
<temp>0.00</temp>
<bpm>0</bpm>
<rpm>0.00</rpm>
</extensions>
</trkpt>
<trkpt lat="32.589904785" lon="34.996810913">
  <ele>51.057144</ele>
  <time>2012-06-23T03:43:30Z</time>
<extensions>
<speed>5.5</speed>
<temp>0.00</temp>
<bpm>0</bpm>
<rpm>0.00</rpm>
</extensions>
</trkpt>
<trkpt lat="32.589885712" lon="34.996746063">
  <ele>51.612808</ele>
  <time>2012-06-23T03:43:31Z</time>
<extensions>
<speed>5.7</speed>
<temp>0.00</temp>
<bpm>0</bpm>
<rpm>0.00</rpm>
</extensions>
</trkpt>
<trkpt lat="32.589862823" lon="34.996685028">
  <ele>52.325699</ele>
  <time>2012-06-23T03:43:32Z</time>
<extensions>
<speed>5.8</speed>
<temp>0.00</temp>
<bpm>0</bpm>
<rpm>0.00</rpm>
</extensions>
</trkpt>
<trkpt lat="32.589836121" lon="34.996620178">
  <ele>52.225113</ele>
  <time>2012-06-23T03:43:33Z</time>
<extensions>
<speed>6.0</speed>
<temp>0.00</temp>
<bpm>0</bpm>
<rpm>0.00</rpm>
</extensions>
</trkpt>
<trkpt lat="32.589813232" lon="34.996559143">
  <ele>52.642105</ele>
  <time>2012-06-23T03:43:34Z</time>
<extensions>
<speed>6.2</speed>
<temp>0.00</temp>
<bpm>0</bpm>
<rpm>0.00</rpm>
</extensions>
</trkpt>
<trkpt lat="32.589790344" lon="34.996494293">
  <ele>52.860855</ele>
  <time>2012-06-23T03:43:35Z</time>
<extensions>
<speed>5.8</speed>
<temp>0.00</temp>
<bpm>0</bpm>
<rpm>0.00</rpm>
</extensions>
</trkpt>
<trkpt lat="32.589767456" lon="34.996440887">
  <ele>52.025894</ele>
  <time>2012-06-23T03:43:36Z</time>
<extensions>
<speed>6.0</speed>
<temp>0.00</temp>
<bpm>0</bpm>
<rpm>0.00</rpm>
</extensions>
</trkpt>
<trkpt lat="32.589748383" lon="34.996387482">
  <ele>52.473160</ele>
  <time>2012-06-23T03:43:37Z</time>
<extensions>
<speed>5.5</speed>
<temp>0.00</temp>
<bpm>0</bpm>
<rpm>0.00</rpm>
</extensions>
</trkpt>
<trkpt lat="32.589725494" lon="34.996330261">
  <ele>52.721207</ele>
  <time>2012-06-23T03:43:38Z</time>
<extensions>
<speed>5.1</speed>
<temp>0.00</temp>
<bpm>0</bpm>
<rpm>0.00</rpm>
</extensions>
</trkpt>
<trkpt lat="32.589702606" lon="34.996284485">
  <ele>53.009293</ele>
  <time>2012-06-23T03:43:39Z</time>
<extensions>
<speed>5.2</speed>
<temp>0.00</temp>
<bpm>0</bpm>
<rpm>0.00</rpm>
</extensions>
</trkpt>
<trkpt lat="32.589679718" lon="34.996234894">
  <ele>53.251480</ele>
  <time>2012-06-23T03:43:40Z</time>
<extensions>
<speed>4.8</speed>
<temp>0.00</temp>
<bpm>0</bpm>
<rpm>0.00</rpm>
</extensions>
</trkpt>
<trkpt lat="32.589656830" lon="34.996189117">
  <ele>52.923355</ele>
  <time>2012-06-23T03:43:41Z</time>
<extensions>
<speed>4.8</speed>
<temp>0.00</temp>
<bpm>0</bpm>
<rpm>0.00</rpm>
</extensions>
</trkpt>
<trkpt lat="32.589637756" lon="34.996143341">
  <ele>52.253433</ele>
  <time>2012-06-23T03:43:42Z</time>
<extensions>
<speed>4.5</speed>
<temp>0.00</temp>
<bpm>0</bpm>
<rpm>0.00</rpm>
</extensions>
</trkpt>
<trkpt lat="32.589618683" lon="34.996097565">
  <ele>51.705582</ele>
  <time>2012-06-23T03:43:43Z</time>
<extensions>
<speed>4.8</speed>
<temp>0.00</temp>
<bpm>0</bpm>
<rpm>0.00</rpm>
</extensions>
</trkpt>
<trkpt lat="32.589595795" lon="34.996047974">
  <ele>51.669449</ele>
  <time>2012-06-23T03:43:44Z</time>
<extensions>
<speed>4.9</speed>
<temp>0.00</temp>
<bpm>0</bpm>
<rpm>0.00</rpm>
</extensions>
</trkpt>
<trkpt lat="32.589569092" lon="34.995990753">
  <ele>52.511246</ele>
  <time>2012-06-23T03:43:45Z</time>
<extensions>
<speed>5.0</speed>
<temp>0.00</temp>
<bpm>0</bpm>
<rpm>0.00</rpm>
</extensions>
</trkpt>
<trkpt lat="32.589546204" lon="34.995941162">
  <ele>52.239761</ele>
  <time>2012-06-23T03:43:46Z</time>
<extensions>
<speed>5.1</speed>
<temp>0.00</temp>
<bpm>0</bpm>
<rpm>0.00</rpm>
</extensions>
</trkpt>
<trkpt lat="32.589527130" lon="34.995883942">
  <ele>52.658707</ele>
  <time>2012-06-23T03:43:47Z</time>
<extensions>
<speed>5.1</speed>
<temp>0.00</temp>
<bpm>0</bpm>
<rpm>0.00</rpm>
</extensions>
</trkpt>
<trkpt lat="32.589504242" lon="34.995834351">
  <ele>52.660660</ele>
  <time>2012-06-23T03:43:48Z</time>
<extensions>
<speed>5.5</speed>
<temp>0.00</temp>
<bpm>0</bpm>
<rpm>0.00</rpm>
</extensions>
</trkpt>
<trkpt lat="32.589477539" lon="34.995780945">
  <ele>52.671402</ele>
  <time>2012-06-23T03:43:49Z</time>
<extensions>
<speed>5.7</speed>
<temp>0.00</temp>
<bpm>0</bpm>
<rpm>0.00</rpm>
</extensions>
</trkpt>
<trkpt lat="32.589450836" lon="34.995731354">
  <ele>52.664566</ele>
  <time>2012-06-23T03:43:50Z</time>
<extensions>
<speed>5.1</speed>
<temp>0.00</temp>
<bpm>0</bpm>
<rpm>0.00</rpm>
</extensions>
</trkpt>
<trkpt lat="32.589424133" lon="34.995685577">
  <ele>52.293472</ele>
  <time>2012-06-23T03:43:51Z</time>
<extensions>
<speed>5.1</speed>
<temp>0.00</temp>
<bpm>0</bpm>
<rpm>0.00</rpm>
</extensions>
</trkpt>
<trkpt lat="32.589393616" lon="34.995639801">
  <ele>52.332535</ele>
  <time>2012-06-23T03:43:52Z</time>
<extensions>
<speed>5.2</speed>
<temp>0.00</temp>
<bpm>0</bpm>
<rpm>0.00</rpm>
</extensions>
</trkpt>
<trkpt lat="32.589363098" lon="34.995601654">
  <ele>52.369644</ele>
  <time>2012-06-23T03:43:53Z</time>
<extensions>
<speed>5.0</speed>
<temp>0.00</temp>
<bpm>0</bpm>
<rpm>0.00</rpm>
</extensions>
</trkpt>
<trkpt lat="32.589328766" lon="34.995559692">
  <ele>52.071793</ele>
  <time>2012-06-23T03:43:54Z</time>
<extensions>
<speed>5.2</speed>
<temp>0.00</temp>
<bpm>0</bpm>
<rpm>0.00</rpm>
</extensions>
</trkpt>
<trkpt lat="32.589294434" lon="34.995525360">
  <ele>52.125504</ele>
  <time>2012-06-23T03:43:55Z</time>
<extensions>
<speed>5.3</speed>
<temp>0.00</temp>
<bpm>0</bpm>
<rpm>0.00</rpm>
</extensions>
</trkpt>
<trkpt lat="32.589256287" lon="34.995479584">
  <ele>53.245621</ele>
  <time>2012-06-23T03:43:56Z</time>
<extensions>
<speed>5.1</speed>
<temp>0.00</temp>
<bpm>0</bpm>
<rpm>0.00</rpm>
</extensions>
</trkpt>
<trkpt lat="32.589225769" lon="34.995441437">
  <ele>53.477066</ele>
  <time>2012-06-23T03:43:57Z</time>
<extensions>
<speed>4.9</speed>
<temp>0.00</temp>
<bpm>0</bpm>
<rpm>0.00</rpm>
</extensions>
</trkpt>
<trkpt lat="32.589199066" lon="34.995395660">
  <ele>53.858902</ele>
  <time>2012-06-23T03:43:58Z</time>
<extensions>
<speed>4.8</speed>
<temp>0.00</temp>
<bpm>0</bpm>
<rpm>0.00</rpm>
</extensions>
</trkpt>
<trkpt lat="32.589168549" lon="34.995357513">
  <ele>54.259293</ele>
  <time>2012-06-23T03:43:59Z</time>
<extensions>
<speed>4.5</speed>
<temp>0.00</temp>
<bpm>0</bpm>
<rpm>0.00</rpm>
</extensions>
</trkpt>
<trkpt lat="32.589141846" lon="34.995326996">
  <ele>54.548355</ele>
  <time>2012-06-23T03:44:00Z</time>
<extensions>
<speed>4.5</speed>
<temp>0.00</temp>
<bpm>0</bpm>
<rpm>0.00</rpm>
</extensions>
</trkpt>
<trkpt lat="32.589111328" lon="34.995292664">
  <ele>54.447769</ele>
  <time>2012-06-23T03:44:01Z</time>
<extensions>
<speed>4.1</speed>
<temp>0.00</temp>
<bpm>0</bpm>
<rpm>0.00</rpm>
</extensions>
</trkpt>
<trkpt lat="32.589088440" lon="34.995262146">
  <ele>53.929214</ele>
  <time>2012-06-23T03:44:02Z</time>
<extensions>
<speed>4.0</speed>
<temp>0.00</temp>
<bpm>0</bpm>
<rpm>0.00</rpm>
</extensions>
</trkpt>
<trkpt lat="32.589061737" lon="34.995223999">
  <ele>54.230972</ele>
  <time>2012-06-23T03:44:03Z</time>
<extensions>
<speed>4.3</speed>
<temp>0.00</temp>
<bpm>0</bpm>
<rpm>0.00</rpm>
</extensions>
</trkpt>
<trkpt lat="32.589035034" lon="34.995185852">
  <ele>54.892105</ele>
  <time>2012-06-23T03:44:04Z</time>
<extensions>
<speed>4.2</speed>
<temp>0.00</temp>
<bpm>0</bpm>
<rpm>0.00</rpm>
</extensions>
</trkpt>
<trkpt lat="32.589008331" lon="34.995143890">
  <ele>55.875504</ele>
  <time>2012-06-23T03:44:05Z</time>
<extensions>
<speed>4.2</speed>
<temp>0.00</temp>
<bpm>0</bpm>
<rpm>0.00</rpm>
</extensions>
</trkpt>
<trkpt lat="32.588977814" lon="34.995117188">
  <ele>56.299332</ele>
  <time>2012-06-23T03:44:06Z</time>
<extensions>
<speed>3.9</speed>
<temp>0.00</temp>
<bpm>0</bpm>
<rpm>0.00</rpm>
</extensions>
</trkpt>
<trkpt lat="32.588954926" lon="34.995090485">
  <ele>55.912613</ele>
  <time>2012-06-23T03:44:07Z</time>
<extensions>
<speed>3.8</speed>
<temp>0.00</temp>
<bpm>0</bpm>
<rpm>0.00</rpm>
</extensions>
</trkpt>
<trkpt lat="32.588928223" lon="34.995059967">
  <ele>55.578629</ele>
  <time>2012-06-23T03:44:08Z</time>
<extensions>
<speed>3.8</speed>
<temp>0.00</temp>
<bpm>0</bpm>
<rpm>0.00</rpm>
</extensions>
</trkpt>
<trkpt lat="32.588901520" lon="34.995029449">
  <ele>55.301285</ele>
  <time>2012-06-23T03:44:09Z</time>
<extensions>
<speed>3.8</speed>
<temp>0.00</temp>
<bpm>0</bpm>
<rpm>0.00</rpm>
</extensions>
</trkpt>
<trkpt lat="32.588874817" lon="34.994998932">
  <ele>55.592300</ele>
  <time>2012-06-23T03:44:10Z</time>
<extensions>
<speed>3.9</speed>
<temp>0.00</temp>
<bpm>0</bpm>
<rpm>0.00</rpm>
</extensions>
</trkpt>
<trkpt lat="32.588848114" lon="34.994976044">
  <ele>55.684097</ele>
  <time>2012-06-23T03:44:11Z</time>
<extensions>
<speed>3.8</speed>
<temp>0.00</temp>
<bpm>0</bpm>
<rpm>0.00</rpm>
</extensions>
</trkpt>
<trkpt lat="32.588821411" lon="34.994953156">
  <ele>55.769058</ele>
  <time>2012-06-23T03:44:12Z</time>
<extensions>
<speed>3.7</speed>
<temp>0.00</temp>
<bpm>0</bpm>
<rpm>0.00</rpm>
</extensions>
</trkpt>
<trkpt lat="32.588794708" lon="34.994926453">
  <ele>55.742691</ele>
  <time>2012-06-23T03:44:13Z</time>
<extensions>
<speed>3.3</speed>
<temp>0.00</temp>
<bpm>0</bpm>
<rpm>0.00</rpm>
</extensions>
</trkpt>
<trkpt lat="32.588768005" lon="34.994911194">
  <ele>55.612808</ele>
  <time>2012-06-23T03:44:14Z</time>
<extensions>
<speed>3.2</speed>
<temp>0.00</temp>
<bpm>0</bpm>
<rpm>0.00</rpm>
</extensions>
</trkpt>
<trkpt lat="32.588741302" lon="34.994888306">
  <ele>55.751480</ele>
  <time>2012-06-23T03:44:15Z</time>
<extensions>
<speed>3.3</speed>
<temp>0.00</temp>
<bpm>0</bpm>
<rpm>0.00</rpm>
</extensions>
</trkpt>
<trkpt lat="32.588699341" lon="34.994853973">
  <ele>55.318863</ele>
  <time>2012-06-23T03:44:17Z</time>
<extensions>
<speed>2.8</speed>
<temp>0.00</temp>
<bpm>0</bpm>
<rpm>0.00</rpm>
</extensions>
</trkpt>
<trkpt lat="32.588653564" lon="34.994819641">
  <ele>55.897964</ele>
  <time>2012-06-23T03:44:19Z</time>
<extensions>
<speed>2.6</speed>
<temp>0.00</temp>
<bpm>0</bpm>
<rpm>0.00</rpm>
</extensions>
</trkpt>
<trkpt lat="32.588611603" lon="34.994792938">
  <ele>55.885269</ele>
  <time>2012-06-23T03:44:21Z</time>
<extensions>
<speed>2.8</speed>
<temp>0.00</temp>
<bpm>0</bpm>
<rpm>0.00</rpm>
</extensions>
</trkpt>
<trkpt lat="32.588588715" lon="34.994773865">
  <ele>55.418472</ele>
  <time>2012-06-23T03:44:22Z</time>
<extensions>
<speed>3.0</speed>
<temp>0.00</temp>
<bpm>0</bpm>
<rpm>0.00</rpm>
</extensions>
</trkpt>
<trkpt lat="32.588565826" lon="34.994758606">
  <ele>54.747574</ele>
  <time>2012-06-23T03:44:23Z</time>
<extensions>
<speed>3.0</speed>
<temp>0.00</temp>
<bpm>0</bpm>
<rpm>0.00</rpm>
</extensions>
</trkpt>
<trkpt lat="32.588539124" lon="34.994735718">
  <ele>54.529800</ele>
  <time>2012-06-23T03:44:24Z</time>
<extensions>
<speed>2.7</speed>
<temp>0.00</temp>
<bpm>0</bpm>
<rpm>0.00</rpm>
</extensions>
</trkpt>
<trkpt lat="32.588497162" lon="34.994701385">
  <ele>54.034683</ele>
  <time>2012-06-23T03:44:26Z</time>
<extensions>
<speed>2.9</speed>
<temp>0.00</temp>
<bpm>0</bpm>
<rpm>0.00</rpm>
</extensions>
</trkpt>
<trkpt lat="32.588470459" lon="34.994682312">
  <ele>54.313980</ele>
  <time>2012-06-23T03:44:27Z</time>
<extensions>
<speed>3.0</speed>
<temp>0.00</temp>
<bpm>0</bpm>
<rpm>0.00</rpm>
</extensions>
</trkpt>
<trkpt lat="32.588447571" lon="34.994667053">
  <ele>55.149918</ele>
  <time>2012-06-23T03:44:28Z</time>
<extensions>
<speed>2.8</speed>
<temp>0.00</temp>
<bpm>0</bpm>
<rpm>0.00</rpm>
</extensions>
</trkpt>
<trkpt lat="32.588401794" lon="34.994636536">
  <ele>55.400894</ele>
  <time>2012-06-23T03:44:30Z</time>
<extensions>
<speed>3.0</speed>
<temp>0.00</temp>
<bpm>0</bpm>
<rpm>0.00</rpm>
</extensions>
</trkpt>
<trkpt lat="32.588375092" lon="34.994625092">
  <ele>55.567886</ele>
  <time>2012-06-23T03:44:31Z</time>
<extensions>
<speed>3.1</speed>
<temp>0.00</temp>
<bpm>0</bpm>
<rpm>0.00</rpm>
</extensions>
</trkpt>
<trkpt lat="32.588344574" lon="34.994606018">
  <ele>55.005386</ele>
  <time>2012-06-23T03:44:32Z</time>
<extensions>
<speed>3.5</speed>
<temp>0.00</temp>
<bpm>0</bpm>
<rpm>0.00</rpm>
</extensions>
</trkpt>
<trkpt lat="32.588317871" lon="34.994586945">
  <ele>54.552261</ele>
  <time>2012-06-23T03:44:33Z</time>
<extensions>
<speed>3.9</speed>
<temp>0.00</temp>
<bpm>0</bpm>
<rpm>0.00</rpm>
</extensions>
</trkpt>
<trkpt lat="32.588287354" lon="34.994564056">
  <ele>55.127457</ele>
  <time>2012-06-23T03:44:34Z</time>
<extensions>
<speed>3.6</speed>
<temp>0.00</temp>
<bpm>0</bpm>
<rpm>0.00</rpm>
</extensions>
</trkpt>
<trkpt lat="32.588260651" lon="34.994544983">
  <ele>55.146011</ele>
  <time>2012-06-23T03:44:35Z</time>
<extensions>
<speed>3.4</speed>
<temp>0.00</temp>
<bpm>0</bpm>
<rpm>0.00</rpm>
</extensions>
</trkpt>
<trkpt lat="32.588237762" lon="34.994522095">
  <ele>54.980972</ele>
  <time>2012-06-23T03:44:36Z</time>
<extensions>
<speed>3.5</speed>
<temp>0.00</temp>
<bpm>0</bpm>
<rpm>0.00</rpm>
</extensions>
</trkpt>
<trkpt lat="32.588211060" lon="34.994499207">
  <ele>55.564957</ele>
  <time>2012-06-23T03:44:37Z</time>
<extensions>
<speed>3.6</speed>
<temp>0.00</temp>
<bpm>0</bpm>
<rpm>0.00</rpm>
</extensions>
</trkpt>
<trkpt lat="32.588188171" lon="34.994476318">
  <ele>55.875504</ele>
  <time>2012-06-23T03:44:38Z</time>
<extensions>
<speed>3.4</speed>
<temp>0.00</temp>
<bpm>0</bpm>
<rpm>0.00</rpm>
</extensions>
</trkpt>
<trkpt lat="32.588165283" lon="34.994453430">
  <ele>55.984879</ele>
  <time>2012-06-23T03:44:39Z</time>
<extensions>
<speed>3.4</speed>
<temp>0.00</temp>
<bpm>0</bpm>
<rpm>0.00</rpm>
</extensions>
</trkpt>
<trkpt lat="32.588138580" lon="34.994426727">
  <ele>56.639175</ele>
  <time>2012-06-23T03:44:40Z</time>
<extensions>
<speed>3.6</speed>
<temp>0.00</temp>
<bpm>0</bpm>
<rpm>0.00</rpm>
</extensions>
</trkpt>
<trkpt lat="32.588115692" lon="34.994407654">
  <ele>57.079605</ele>
  <time>2012-06-23T03:44:41Z</time>
<extensions>
<speed>3.5</speed>
<temp>0.00</temp>
<bpm>0</bpm>
<rpm>0.00</rpm>
</extensions>
</trkpt>
<trkpt lat="32.588088989" lon="34.994384766">
  <ele>57.619644</ele>
  <time>2012-06-23T03:44:42Z</time>
<extensions>
<speed>3.2</speed>
<temp>0.00</temp>
<bpm>0</bpm>
<rpm>0.00</rpm>
</extensions>
</trkpt>
<trkpt lat="32.588066101" lon="34.994369507">
  <ele>58.507339</ele>
  <time>2012-06-23T03:44:43Z</time>
<extensions>
<speed>2.9</speed>
<temp>0.00</temp>
<bpm>0</bpm>
<rpm>0.00</rpm>
</extensions>
</trkpt>
<trkpt lat="32.588027954" lon="34.994327545">
  <ele>58.852066</ele>
  <time>2012-06-23T03:44:45Z</time>
<extensions>
<speed>2.9</speed>
<temp>0.00</temp>
<bpm>0</bpm>
<rpm>0.00</rpm>
</extensions>
</trkpt>
<trkpt lat="32.587985992" lon="34.994285583">
  <ele>59.786636</ele>
  <time>2012-06-23T03:44:47Z</time>
<extensions>
<speed>3.0</speed>
<temp>0.00</temp>
<bpm>0</bpm>
<rpm>0.00</rpm>
</extensions>
</trkpt>
<trkpt lat="32.587966919" lon="34.994262695">
  <ele>60.356949</ele>
  <time>2012-06-23T03:44:48Z</time>
<extensions>
<speed>3.2</speed>
<temp>0.00</temp>
<bpm>0</bpm>
<rpm>0.00</rpm>
</extensions>
</trkpt>
<trkpt lat="32.587944031" lon="34.994239807">
  <ele>60.418472</ele>
  <time>2012-06-23T03:44:49Z</time>
<extensions>
<speed>3.1</speed>
<temp>0.00</temp>
<bpm>0</bpm>
<rpm>0.00</rpm>
</extensions>
</trkpt>
<trkpt lat="32.587921143" lon="34.994220734">
  <ele>60.329605</ele>
  <time>2012-06-23T03:44:50Z</time>
<extensions>
<speed>3.0</speed>
<temp>0.00</temp>
<bpm>0</bpm>
<rpm>0.00</rpm>
</extensions>
</trkpt>
<trkpt lat="32.587898254" lon="34.994197845">
  <ele>60.437027</ele>
  <time>2012-06-23T03:44:51Z</time>
<extensions>
<speed>3.1</speed>
<temp>0.00</temp>
<bpm>0</bpm>
<rpm>0.00</rpm>
</extensions>
</trkpt>
<trkpt lat="32.587867737" lon="34.994152069">
  <ele>60.364761</ele>
  <time>2012-06-23T03:44:53Z</time>
<extensions>
<speed>2.9</speed>
<temp>0.00</temp>
<bpm>0</bpm>
<rpm>0.00</rpm>
</extensions>
</trkpt>
<trkpt lat="32.587844849" lon="34.994132996">
  <ele>60.107925</ele>
  <time>2012-06-23T03:44:54Z</time>
<extensions>
<speed>2.6</speed>
<temp>0.00</temp>
<bpm>0</bpm>
<rpm>0.00</rpm>
</extensions>
</trkpt>
<trkpt lat="32.587818146" lon="34.994113922">
  <ele>60.121597</ele>
  <time>2012-06-23T03:44:55Z</time>
<extensions>
<speed>3.0</speed>
<temp>0.00</temp>
<bpm>0</bpm>
<rpm>0.00</rpm>
</extensions>
</trkpt>
<trkpt lat="32.587795258" lon="34.994094849">
  <ele>59.777847</ele>
  <time>2012-06-23T03:44:56Z</time>
<extensions>
<speed>3.1</speed>
<temp>0.00</temp>
<bpm>0</bpm>
<rpm>0.00</rpm>
</extensions>
</trkpt>
<trkpt lat="32.587772369" lon="34.994071960">
  <ele>59.850113</ele>
  <time>2012-06-23T03:44:57Z</time>
<extensions>
<speed>3.2</speed>
<temp>0.00</temp>
<bpm>0</bpm>
<rpm>0.00</rpm>
</extensions>
</trkpt>
<trkpt lat="32.587753296" lon="34.994045258">
  <ele>60.208511</ele>
  <time>2012-06-23T03:44:58Z</time>
<extensions>
<speed>3.6</speed>
<temp>0.00</temp>
<bpm>0</bpm>
<rpm>0.00</rpm>
</extensions>
</trkpt>
<trkpt lat="32.587734222" lon="34.994022369">
  <ele>59.717300</ele>
  <time>2012-06-23T03:44:59Z</time>
<extensions>
<speed>3.4</speed>
<temp>0.00</temp>
<bpm>0</bpm>
<rpm>0.00</rpm>
</extensions>
</trkpt>
<trkpt lat="32.587707520" lon="34.993999481">
  <ele>59.760269</ele>
  <time>2012-06-23T03:45:00Z</time>
<extensions>
<speed>2.9</speed>
<temp>0.00</temp>
<bpm>0</bpm>
<rpm>0.00</rpm>
</extensions>
</trkpt>
<trkpt lat="32.587684631" lon="34.993980408">
  <ele>59.426285</ele>
  <time>2012-06-23T03:45:01Z</time>
<extensions>
<speed>2.9</speed>
<temp>0.00</temp>
<bpm>0</bpm>
<rpm>0.00</rpm>
</extensions>
</trkpt>
<trkpt lat="32.587654114" lon="34.993965149">
  <ele>59.078629</ele>
  <time>2012-06-23T03:45:02Z</time>
<extensions>
<speed>3.0</speed>
<temp>0.00</temp>
<bpm>0</bpm>
<rpm>0.00</rpm>
</extensions>
</trkpt>
<trkpt lat="32.587623596" lon="34.993946075">
  <ele>59.303238</ele>
  <time>2012-06-23T03:45:03Z</time>
<extensions>
<speed>3.3</speed>
<temp>0.00</temp>
<bpm>0</bpm>
<rpm>0.00</rpm>
</extensions>
</trkpt>
<trkpt lat="32.587589264" lon="34.993919373">
  <ele>59.414566</ele>
  <time>2012-06-23T03:45:04Z</time>
<extensions>
<speed>3.5</speed>
<temp>0.00</temp>
<bpm>0</bpm>
<rpm>0.00</rpm>
</extensions>
</trkpt>
<trkpt lat="32.587562561" lon="34.993900299">
  <ele>59.593277</ele>
  <time>2012-06-23T03:45:05Z</time>
<extensions>
<speed>3.3</speed>
<temp>0.00</temp>
<bpm>0</bpm>
<rpm>0.00</rpm>
</extensions>
</trkpt>
<trkpt lat="32.587532043" lon="34.993885040">
  <ele>60.301285</ele>
  <time>2012-06-23T03:45:06Z</time>
<extensions>
<speed>3.4</speed>
<temp>0.00</temp>
<bpm>0</bpm>
<rpm>0.00</rpm>
</extensions>
</trkpt>
<trkpt lat="32.587509155" lon="34.993869781">
  <ele>60.864761</ele>
  <time>2012-06-23T03:45:07Z</time>
<extensions>
<speed>3.3</speed>
<temp>0.00</temp>
<bpm>0</bpm>
<rpm>0.00</rpm>
</extensions>
</trkpt>
<trkpt lat="32.587478638" lon="34.993854523">
  <ele>60.528824</ele>
  <time>2012-06-23T03:45:08Z</time>
<extensions>
<speed>3.4</speed>
<temp>0.00</temp>
<bpm>0</bpm>
<rpm>0.00</rpm>
</extensions>
</trkpt>
<trkpt lat="32.587451935" lon="34.993839264">
  <ele>60.359879</ele>
  <time>2012-06-23T03:45:09Z</time>
<extensions>
<speed>3.4</speed>
<temp>0.00</temp>
<bpm>0</bpm>
<rpm>0.00</rpm>
</extensions>
</trkpt>
<trkpt lat="32.587425232" lon="34.993824005">
  <ele>60.630386</ele>
  <time>2012-06-23T03:45:10Z</time>
<extensions>
<speed>3.4</speed>
<temp>0.00</temp>
<bpm>0</bpm>
<rpm>0.00</rpm>
</extensions>
</trkpt>
<trkpt lat="32.587390900" lon="34.993812561">
  <ele>60.698746</ele>
  <time>2012-06-23T03:45:11Z</time>
<extensions>
<speed>3.3</speed>
<temp>0.00</temp>
<bpm>0</bpm>
<rpm>0.00</rpm>
</extensions>
</trkpt>
<trkpt lat="32.587364197" lon="34.993797302">
  <ele>60.692886</ele>
  <time>2012-06-23T03:45:12Z</time>
<extensions>
<speed>3.1</speed>
<temp>0.00</temp>
<bpm>0</bpm>
<rpm>0.00</rpm>
</extensions>
</trkpt>
<trkpt lat="32.587337494" lon="34.993778229">
  <ele>61.000504</ele>
  <time>2012-06-23T03:45:13Z</time>
<extensions>
<speed>3.2</speed>
<temp>0.00</temp>
<bpm>0</bpm>
<rpm>0.00</rpm>
</extensions>
</trkpt>
<trkpt lat="32.587306976" lon="34.993762970">
  <ele>60.673355</ele>
  <time>2012-06-23T03:45:14Z</time>
<extensions>
<speed>3.4</speed>
<temp>0.00</temp>
<bpm>0</bpm>
<rpm>0.00</rpm>
</extensions>
</trkpt>
<trkpt lat="32.587276459" lon="34.993743896">
  <ele>60.243668</ele>
  <time>2012-06-23T03:45:15Z</time>
<extensions>
<speed>3.8</speed>
<temp>0.00</temp>
<bpm>0</bpm>
<rpm>0.00</rpm>
</extensions>
</trkpt>
<trkpt lat="32.587253571" lon="34.993713379">
  <ele>60.501480</ele>
  <time>2012-06-23T03:45:16Z</time>
<extensions>
<speed>4.0</speed>
<temp>0.00</temp>
<bpm>0</bpm>
<rpm>0.00</rpm>
</extensions>
</trkpt>
<trkpt lat="32.587223053" lon="34.993682861">
  <ele>61.034683</ele>
  <time>2012-06-23T03:45:17Z</time>
<extensions>
<speed>3.9</speed>
<temp>0.00</temp>
<bpm>0</bpm>
<rpm>0.00</rpm>
</extensions>
</trkpt>
<trkpt lat="32.587200165" lon="34.993648529">
  <ele>61.226089</ele>
  <time>2012-06-23T03:45:18Z</time>
<extensions>
<speed>4.1</speed>
<temp>0.00</temp>
<bpm>0</bpm>
<rpm>0.00</rpm>
</extensions>
</trkpt>
<trkpt lat="32.587173462" lon="34.993614197">
  <ele>61.211441</ele>
  <time>2012-06-23T03:45:19Z</time>
<extensions>
<speed>4.0</speed>
<temp>0.00</temp>
<bpm>0</bpm>
<rpm>0.00</rpm>
</extensions>
</trkpt>
<trkpt lat="32.587150574" lon="34.993587494">
  <ele>60.879410</ele>
  <time>2012-06-23T03:45:20Z</time>
<extensions>
<speed>4.0</speed>
<temp>0.00</temp>
<bpm>0</bpm>
<rpm>0.00</rpm>
</extensions>
</trkpt>
<trkpt lat="32.587127686" lon="34.993556976">
  <ele>61.103043</ele>
  <time>2012-06-23T03:45:21Z</time>
<extensions>
<speed>3.8</speed>
<temp>0.00</temp>
<bpm>0</bpm>
<rpm>0.00</rpm>
</extensions>
</trkpt>
<trkpt lat="32.587100983" lon="34.993530273">
  <ele>61.194839</ele>
  <time>2012-06-23T03:45:22Z</time>
<extensions>
<speed>3.9</speed>
<temp>0.00</temp>
<bpm>0</bpm>
<rpm>0.00</rpm>
</extensions>
</trkpt>
<trkpt lat="32.587078094" lon="34.993495941">
  <ele>61.287613</ele>
  <time>2012-06-23T03:45:23Z</time>
<extensions>
<speed>3.9</speed>
<temp>0.00</temp>
<bpm>0</bpm>
<rpm>0.00</rpm>
</extensions>
</trkpt>
<trkpt lat="32.587055206" lon="34.993465424">
  <ele>61.204605</ele>
  <time>2012-06-23T03:45:24Z</time>
<extensions>
<speed>3.9</speed>
<temp>0.00</temp>
<bpm>0</bpm>
<rpm>0.00</rpm>
</extensions>
</trkpt>
<trkpt lat="32.587032318" lon="34.993427277">
  <ele>61.289566</ele>
  <time>2012-06-23T03:45:25Z</time>
<extensions>
<speed>4.4</speed>
<temp>0.00</temp>
<bpm>0</bpm>
<rpm>0.00</rpm>
</extensions>
</trkpt>
<trkpt lat="32.587009430" lon="34.993400574">
  <ele>60.628433</ele>
  <time>2012-06-23T03:45:26Z</time>
<extensions>
<speed>4.1</speed>
<temp>0.00</temp>
<bpm>0</bpm>
<rpm>0.00</rpm>
</extensions>
</trkpt>
<trkpt lat="32.586990356" lon="34.993377686">
  <ele>59.845230</ele>
  <time>2012-06-23T03:45:27Z</time>
<extensions>
<speed>4.1</speed>
<temp>0.00</temp>
<bpm>0</bpm>
<rpm>0.00</rpm>
</extensions>
</trkpt>
<trkpt lat="32.586963654" lon="34.993343353">
  <ele>60.013199</ele>
  <time>2012-06-23T03:45:28Z</time>
<extensions>
<speed>4.5</speed>
<temp>0.00</temp>
<bpm>0</bpm>
<rpm>0.00</rpm>
</extensions>
</trkpt>
<trkpt lat="32.586933136" lon="34.993301392">
  <ele>60.160660</ele>
  <time>2012-06-23T03:45:29Z</time>
<extensions>
<speed>4.7</speed>
<temp>0.00</temp>
<bpm>0</bpm>
<rpm>0.00</rpm>
</extensions>
</trkpt>
<trkpt lat="32.586898804" lon="34.993267059">
  <ele>59.936050</ele>
  <time>2012-06-23T03:45:30Z</time>
<extensions>
<speed>4.6</speed>
<temp>0.00</temp>
<bpm>0</bpm>
<rpm>0.00</rpm>
</extensions>
</trkpt>
<trkpt lat="32.586864471" lon="34.993240356">
  <ele>59.973160</ele>
  <time>2012-06-23T03:45:31Z</time>
<extensions>
<speed>4.5</speed>
<temp>0.00</temp>
<bpm>0</bpm>
<rpm>0.00</rpm>
</extensions>
</trkpt>
<trkpt lat="32.586833954" lon="34.993202209">
  <ele>60.257339</ele>
  <time>2012-06-23T03:45:32Z</time>
<extensions>
<speed>4.5</speed>
<temp>0.00</temp>
<bpm>0</bpm>
<rpm>0.00</rpm>
</extensions>
</trkpt>
<trkpt lat="32.586803436" lon="34.993167877">
  <ele>60.106949</ele>
  <time>2012-06-23T03:45:33Z</time>
<extensions>
<speed>4.4</speed>
<temp>0.00</temp>
<bpm>0</bpm>
<rpm>0.00</rpm>
</extensions>
</trkpt>
<trkpt lat="32.586776733" lon="34.993129730">
  <ele>59.639175</ele>
  <time>2012-06-23T03:45:34Z</time>
<extensions>
<speed>4.5</speed>
<temp>0.00</temp>
<bpm>0</bpm>
<rpm>0.00</rpm>
</extensions>
</trkpt>
<trkpt lat="32.586750031" lon="34.993095398">
  <ele>59.632339</ele>
  <time>2012-06-23T03:45:35Z</time>
<extensions>
<speed>4.5</speed>
<temp>0.00</temp>
<bpm>0</bpm>
<rpm>0.00</rpm>
</extensions>
</trkpt>
<trkpt lat="32.586719513" lon="34.993057251">
  <ele>59.347183</ele>
  <time>2012-06-23T03:45:36Z</time>
<extensions>
<speed>4.2</speed>
<temp>0.00</temp>
<bpm>0</bpm>
<rpm>0.00</rpm>
</extensions>
</trkpt>
<trkpt lat="32.586692810" lon="34.993026733">
  <ele>59.054214</ele>
  <time>2012-06-23T03:45:37Z</time>
<extensions>
<speed>4.5</speed>
<temp>0.00</temp>
<bpm>0</bpm>
<rpm>0.00</rpm>
</extensions>
</trkpt>
<trkpt lat="32.586658478" lon="34.992996216">
  <ele>58.994644</ele>
  <time>2012-06-23T03:45:38Z</time>
<extensions>
<speed>4.4</speed>
<temp>0.00</temp>
<bpm>0</bpm>
<rpm>0.00</rpm>
</extensions>
</trkpt>
<trkpt lat="32.586631775" lon="34.992961884">
  <ele>58.727066</ele>
  <time>2012-06-23T03:45:39Z</time>
<extensions>
<speed>4.5</speed>
<temp>0.00</temp>
<bpm>0</bpm>
<rpm>0.00</rpm>
</extensions>
</trkpt>
<trkpt lat="32.586597443" lon="34.992935181">
  <ele>58.590347</ele>
  <time>2012-06-23T03:45:40Z</time>
<extensions>
<speed>4.3</speed>
<temp>0.00</temp>
<bpm>0</bpm>
<rpm>0.00</rpm>
</extensions>
</trkpt>
<trkpt lat="32.586563110" lon="34.992900848">
  <ele>57.952652</ele>
  <time>2012-06-23T03:45:41Z</time>
<extensions>
<speed>4.3</speed>
<temp>0.00</temp>
<bpm>0</bpm>
<rpm>0.00</rpm>
</extensions>
</trkpt>
<trkpt lat="32.586528778" lon="34.992870331">
  <ele>58.479019</ele>
  <time>2012-06-23T03:45:42Z</time>
<extensions>
<speed>4.0</speed>
<temp>0.00</temp>
<bpm>0</bpm>
<rpm>0.00</rpm>
</extensions>
</trkpt>
<trkpt lat="32.586494446" lon="34.992828369">
  <ele>60.286636</ele>
  <time>2012-06-23T03:45:43Z</time>
<extensions>
<speed>4.5</speed>
<temp>0.00</temp>
<bpm>0</bpm>
<rpm>0.00</rpm>
</extensions>
</trkpt>
<trkpt lat="32.586463928" lon="34.992797852">
  <ele>60.484879</ele>
  <time>2012-06-23T03:45:44Z</time>
<extensions>
<speed>4.2</speed>
<temp>0.00</temp>
<bpm>0</bpm>
<rpm>0.00</rpm>
</extensions>
</trkpt>
<trkpt lat="32.586437225" lon="34.992767334">
  <ele>60.558121</ele>
  <time>2012-06-23T03:45:45Z</time>
<extensions>
<speed>3.9</speed>
<temp>0.00</temp>
<bpm>0</bpm>
<rpm>0.00</rpm>
</extensions>
</trkpt>
<trkpt lat="32.586406708" lon="34.992740631">
  <ele>60.624527</ele>
  <time>2012-06-23T03:45:46Z</time>
<extensions>
<speed>4.2</speed>
<temp>0.00</temp>
<bpm>0</bpm>
<rpm>0.00</rpm>
</extensions>
</trkpt>
<trkpt lat="32.586372375" lon="34.992706299">
  <ele>61.692886</ele>
  <time>2012-06-23T03:45:47Z</time>
<extensions>
<speed>4.6</speed>
<temp>0.00</temp>
<bpm>0</bpm>
<rpm>0.00</rpm>
</extensions>
</trkpt>
<trkpt lat="32.586341858" lon="34.992671967">
  <ele>62.104019</ele>
  <time>2012-06-23T03:45:48Z</time>
<extensions>
<speed>4.2</speed>
<temp>0.00</temp>
<bpm>0</bpm>
<rpm>0.00</rpm>
</extensions>
</trkpt>
<trkpt lat="32.586318970" lon="34.992633820">
  <ele>63.336441</ele>
  <time>2012-06-23T03:45:49Z</time>
<extensions>
<speed>4.1</speed>
<temp>0.00</temp>
<bpm>0</bpm>
<rpm>0.00</rpm>
</extensions>
</trkpt>
<trkpt lat="32.586288452" lon="34.992603302">
  <ele>63.052261</ele>
  <time>2012-06-23T03:45:50Z</time>
<extensions>
<speed>4.1</speed>
<temp>0.00</temp>
<bpm>0</bpm>
<rpm>0.00</rpm>
</extensions>
</trkpt>
<trkpt lat="32.586254120" lon="34.992572784">
  <ele>63.362808</ele>
  <time>2012-06-23T03:45:51Z</time>
<extensions>
<speed>4.2</speed>
<temp>0.00</temp>
<bpm>0</bpm>
<rpm>0.00</rpm>
</extensions>
</trkpt>
<trkpt lat="32.586231232" lon="34.992546082">
  <ele>63.596207</ele>
  <time>2012-06-23T03:45:52Z</time>
<extensions>
<speed>4.0</speed>
<temp>0.00</temp>
<bpm>0</bpm>
<rpm>0.00</rpm>
</extensions>
</trkpt>
<trkpt lat="32.586200714" lon="34.992515564">
  <ele>63.817886</ele>
  <time>2012-06-23T03:45:53Z</time>
<extensions>
<speed>4.4</speed>
<temp>0.00</temp>
<bpm>0</bpm>
<rpm>0.00</rpm>
</extensions>
</trkpt>
<trkpt lat="32.586166382" lon="34.992488861">
  <ele>64.215851</ele>
  <time>2012-06-23T03:45:54Z</time>
<extensions>
<speed>4.1</speed>
<temp>0.00</temp>
<bpm>0</bpm>
<rpm>0.00</rpm>
</extensions>
</trkpt>
<trkpt lat="32.586132050" lon="34.992462158">
  <ele>63.968277</ele>
  <time>2012-06-23T03:45:55Z</time>
<extensions>
<speed>4.2</speed>
<temp>0.00</temp>
<bpm>0</bpm>
<rpm>0.00</rpm>
</extensions>
</trkpt>
<trkpt lat="32.586105347" lon="34.992435455">
  <ele>64.061554</ele>
  <time>2012-06-23T03:45:56Z</time>
<extensions>
<speed>4.1</speed>
<temp>0.00</temp>
<bpm>0</bpm>
<rpm>0.00</rpm>
</extensions>
</trkpt>
<trkpt lat="32.586078644" lon="34.992404938">
  <ele>63.911636</ele>
  <time>2012-06-23T03:45:57Z</time>
<extensions>
<speed>4.1</speed>
<temp>0.00</temp>
<bpm>0</bpm>
<rpm>0.00</rpm>
</extensions>
</trkpt>
<trkpt lat="32.586048126" lon="34.992378235">
  <ele>64.088898</ele>
  <time>2012-06-23T03:45:58Z</time>
<extensions>
<speed>4.3</speed>
<temp>0.00</temp>
<bpm>0</bpm>
<rpm>0.00</rpm>
</extensions>
</trkpt>
<trkpt lat="32.586021423" lon="34.992351532">
  <ele>63.559097</ele>
  <time>2012-06-23T03:45:59Z</time>
<extensions>
<speed>4.2</speed>
<temp>0.00</temp>
<bpm>0</bpm>
<rpm>0.00</rpm>
</extensions>
</trkpt>
<trkpt lat="32.585987091" lon="34.992321014">
  <ele>64.227570</ele>
  <time>2012-06-23T03:46:00Z</time>
<extensions>
<speed>4.1</speed>
<temp>0.00</temp>
<bpm>0</bpm>
<rpm>0.00</rpm>
</extensions>
</trkpt>
<trkpt lat="32.585960388" lon="34.992290497">
  <ele>63.855972</ele>
  <time>2012-06-23T03:46:01Z</time>
<extensions>
<speed>4.1</speed>
<temp>0.00</temp>
<bpm>0</bpm>
<rpm>0.00</rpm>
</extensions>
</trkpt>
<trkpt lat="32.585929871" lon="34.992267609">
  <ele>63.979996</ele>
  <time>2012-06-23T03:46:02Z</time>
<extensions>
<speed>4.0</speed>
<temp>0.00</temp>
<bpm>0</bpm>
<rpm>0.00</rpm>
</extensions>
</trkpt>
<trkpt lat="32.585903168" lon="34.992240906">
  <ele>63.297379</ele>
  <time>2012-06-23T03:46:03Z</time>
<extensions>
<speed>3.9</speed>
<temp>0.00</temp>
<bpm>0</bpm>
<rpm>0.00</rpm>
</extensions>
</trkpt>
<trkpt lat="32.585876465" lon="34.992214203">
  <ele>62.766129</ele>
  <time>2012-06-23T03:46:04Z</time>
<extensions>
<speed>4.0</speed>
<temp>0.00</temp>
<bpm>0</bpm>
<rpm>0.00</rpm>
</extensions>
</trkpt>
<trkpt lat="32.585845947" lon="34.992187500">
  <ele>62.594254</ele>
  <time>2012-06-23T03:46:05Z</time>
<extensions>
<speed>4.1</speed>
<temp>0.00</temp>
<bpm>0</bpm>
<rpm>0.00</rpm>
</extensions>
</trkpt>
<trkpt lat="32.585823059" lon="34.992164612">
  <ele>62.019058</ele>
  <time>2012-06-23T03:46:06Z</time>
<extensions>
<speed>4.1</speed>
<temp>0.00</temp>
<bpm>0</bpm>
<rpm>0.00</rpm>
</extensions>
</trkpt>
<trkpt lat="32.585796356" lon="34.992141724">
  <ele>61.895035</ele>
  <time>2012-06-23T03:46:07Z</time>
<extensions>
<speed>3.8</speed>
<temp>0.00</temp>
<bpm>0</bpm>
<rpm>0.00</rpm>
</extensions>
</trkpt>
<trkpt lat="32.585765839" lon="34.992115021">
  <ele>61.914566</ele>
  <time>2012-06-23T03:46:08Z</time>
<extensions>
<speed>4.0</speed>
<temp>0.00</temp>
<bpm>0</bpm>
<rpm>0.00</rpm>
</extensions>
</trkpt>
<trkpt lat="32.585735321" lon="34.992088318">
  <ele>62.607925</ele>
  <time>2012-06-23T03:46:09Z</time>
<extensions>
<speed>3.9</speed>
<temp>0.00</temp>
<bpm>0</bpm>
<rpm>0.00</rpm>
</extensions>
</trkpt>
<trkpt lat="32.585712433" lon="34.992065430">
  <ele>62.381363</ele>
  <time>2012-06-23T03:46:10Z</time>
<extensions>
<speed>4.0</speed>
<temp>0.00</temp>
<bpm>0</bpm>
<rpm>0.00</rpm>
</extensions>
</trkpt>
<trkpt lat="32.585685730" lon="34.992034912">
  <ele>62.272964</ele>
  <time>2012-06-23T03:46:11Z</time>
<extensions>
<speed>3.6</speed>
<temp>0.00</temp>
<bpm>0</bpm>
<rpm>0.00</rpm>
</extensions>
</trkpt>
<trkpt lat="32.585659027" lon="34.992004395">
  <ele>63.113785</ele>
  <time>2012-06-23T03:46:12Z</time>
<extensions>
<speed>3.2</speed>
<temp>0.00</temp>
<bpm>0</bpm>
<rpm>0.00</rpm>
</extensions>
</trkpt>
<trkpt lat="32.585639954" lon="34.991977692">
  <ele>63.576675</ele>
  <time>2012-06-23T03:46:13Z</time>
<extensions>
<speed>2.8</speed>
<temp>0.00</temp>
<bpm>0</bpm>
<rpm>0.00</rpm>
</extensions>
</trkpt>
<trkpt lat="32.585620880" lon="34.991950989">
  <ele>63.664566</ele>
  <time>2012-06-23T03:46:14Z</time>
<extensions>
<speed>2.9</speed>
<temp>0.00</temp>
<bpm>0</bpm>
<rpm>0.00</rpm>
</extensions>
</trkpt>
<trkpt lat="32.585597992" lon="34.991924286">
  <ele>64.428741</ele>
  <time>2012-06-23T03:46:15Z</time>
<extensions>
<speed>3.4</speed>
<temp>0.00</temp>
<bpm>0</bpm>
<rpm>0.00</rpm>
</extensions>
</trkpt>
<trkpt lat="32.585578918" lon="34.991893768">
  <ele>64.286163</ele>
  <time>2012-06-23T03:46:16Z</time>
<extensions>
<speed>3.1</speed>
<temp>0.00</temp>
<bpm>0</bpm>
<rpm>0.00</rpm>
</extensions>
</trkpt>
<trkpt lat="32.585552216" lon="34.991874695">
  <ele>65.036163</ele>
  <time>2012-06-23T03:46:17Z</time>
<extensions>
<speed>3.0</speed>
<temp>0.00</temp>
<bpm>0</bpm>
<rpm>0.00</rpm>
</extensions>
</trkpt>
<trkpt lat="32.585529327" lon="34.991855621">
  <ele>65.653351</ele>
  <time>2012-06-23T03:46:18Z</time>
<extensions>
<speed>3.2</speed>
<temp>0.00</temp>
<bpm>0</bpm>
<rpm>0.00</rpm>
</extensions>
</trkpt>
<trkpt lat="32.585502625" lon="34.991836548">
  <ele>66.170929</ele>
  <time>2012-06-23T03:46:19Z</time>
<extensions>
<speed>3.5</speed>
<temp>0.00</temp>
<bpm>0</bpm>
<rpm>0.00</rpm>
</extensions>
</trkpt>
<trkpt lat="32.585475922" lon="34.991813660">
  <ele>66.831085</ele>
  <time>2012-06-23T03:46:20Z</time>
<extensions>
<speed>3.5</speed>
<temp>0.00</temp>
<bpm>0</bpm>
<rpm>0.00</rpm>
</extensions>
</trkpt>
<trkpt lat="32.585453033" lon="34.991794586">
  <ele>67.364288</ele>
  <time>2012-06-23T03:46:21Z</time>
<extensions>
<speed>3.1</speed>
<temp>0.00</temp>
<bpm>0</bpm>
<rpm>0.00</rpm>
</extensions>
</trkpt>
<trkpt lat="32.585411072" lon="34.991767883">
  <ele>68.501007</ele>
  <time>2012-06-23T03:46:23Z</time>
<extensions>
<speed>2.2</speed>
<temp>0.00</temp>
<bpm>0</bpm>
<rpm>0.00</rpm>
</extensions>
</trkpt>
<trkpt lat="32.585384369" lon="34.991760254">
  <ele>68.977570</ele>
  <time>2012-06-23T03:46:25Z</time>
<extensions>
<speed>1.7</speed>
<temp>0.00</temp>
<bpm>0</bpm>
<rpm>0.00</rpm>
</extensions>
</trkpt>
<trkpt lat="32.585350037" lon="34.991744995">
  <ele>69.352570</ele>
  <time>2012-06-23T03:46:27Z</time>
<extensions>
<speed>1.7</speed>
<temp>0.00</temp>
<bpm>0</bpm>
<rpm>0.00</rpm>
</extensions>
</trkpt>
<trkpt lat="32.585311890" lon="34.991744995">
  <ele>70.491241</ele>
  <time>2012-06-23T03:46:29Z</time>
<extensions>
<speed>1.5</speed>
<temp>0.00</temp>
<bpm>0</bpm>
<rpm>0.00</rpm>
</extensions>
</trkpt>
<trkpt lat="32.585285187" lon="34.991756439">
  <ele>71.354523</ele>
  <time>2012-06-23T03:46:31Z</time>
<extensions>
<speed>1.5</speed>
<temp>0.00</temp>
<bpm>0</bpm>
<rpm>0.00</rpm>
</extensions>
</trkpt>
<trkpt lat="32.585258484" lon="34.991760254">
  <ele>72.061554</ele>
  <time>2012-06-23T03:46:33Z</time>
<extensions>
<speed>1.3</speed>
<temp>0.00</temp>
<bpm>0</bpm>
<rpm>0.00</rpm>
</extensions>
</trkpt>
<trkpt lat="32.585231781" lon="34.991775513">
  <ele>72.268585</ele>
  <time>2012-06-23T03:46:35Z</time>
<extensions>
<speed>1.0</speed>
<temp>0.00</temp>
<bpm>0</bpm>
<rpm>0.00</rpm>
</extensions>
</trkpt>
<trkpt lat="32.585205078" lon="34.991794586">
  <ele>72.471710</ele>
  <time>2012-06-23T03:46:38Z</time>
<extensions>
<speed>0.9</speed>
<temp>0.00</temp>
<bpm>0</bpm>
<rpm>0.00</rpm>
</extensions>
</trkpt>
<trkpt lat="32.585166931" lon="34.991809845">
  <ele>72.618195</ele>
  <time>2012-06-23T03:46:41Z</time>
<extensions>
<speed>1.8</speed>
<temp>0.00</temp>
<bpm>0</bpm>
<rpm>0.00</rpm>
</extensions>
</trkpt>
<trkpt lat="32.585136414" lon="34.991825104">
  <ele>72.133820</ele>
  <time>2012-06-23T03:46:43Z</time>
<extensions>
<speed>2.4</speed>
<temp>0.00</temp>
<bpm>0</bpm>
<rpm>0.00</rpm>
</extensions>
</trkpt>
<trkpt lat="32.585098267" lon="34.991855621">
  <ele>72.209991</ele>
  <time>2012-06-23T03:46:45Z</time>
<extensions>
<speed>2.6</speed>
<temp>0.00</temp>
<bpm>0</bpm>
<rpm>0.00</rpm>
</extensions>
</trkpt>
<trkpt lat="32.585060120" lon="34.991897583">
  <ele>72.227570</ele>
  <time>2012-06-23T03:46:47Z</time>
<extensions>
<speed>3.1</speed>
<temp>0.00</temp>
<bpm>0</bpm>
<rpm>0.00</rpm>
</extensions>
</trkpt>
<trkpt lat="32.585048676" lon="34.991928101">
  <ele>72.022491</ele>
  <time>2012-06-23T03:46:48Z</time>
<extensions>
<speed>3.0</speed>
<temp>0.00</temp>
<bpm>0</bpm>
<rpm>0.00</rpm>
</extensions>
</trkpt>
<trkpt lat="32.585037231" lon="34.991958618">
  <ele>72.739288</ele>
  <time>2012-06-23T03:46:49Z</time>
<extensions>
<speed>2.9</speed>
<temp>0.00</temp>
<bpm>0</bpm>
<rpm>0.00</rpm>
</extensions>
</trkpt>
<trkpt lat="32.585018158" lon="34.992019653">
  <ele>72.946320</ele>
  <time>2012-06-23T03:46:51Z</time>
<extensions>
<speed>2.9</speed>
<temp>0.00</temp>
<bpm>0</bpm>
<rpm>0.00</rpm>
</extensions>
</trkpt>
<trkpt lat="32.585006714" lon="34.992080688">
  <ele>73.012726</ele>
  <time>2012-06-23T03:46:53Z</time>
<extensions>
<speed>3.0</speed>
<temp>0.00</temp>
<bpm>0</bpm>
<rpm>0.00</rpm>
</extensions>
</trkpt>
<trkpt lat="32.585002899" lon="34.992118835">
  <ele>74.145538</ele>
  <time>2012-06-23T03:46:54Z</time>
<extensions>
<speed>2.4</speed>
<temp>0.00</temp>
<bpm>0</bpm>
<rpm>0.00</rpm>
</extensions>
</trkpt>
<trkpt lat="32.585002899" lon="34.992179871">
  <ele>74.293976</ele>
  <time>2012-06-23T03:46:56Z</time>
<extensions>
<speed>2.2</speed>
<temp>0.00</temp>
<bpm>0</bpm>
<rpm>0.00</rpm>
</extensions>
</trkpt>
<trkpt lat="32.585010529" lon="34.992237091">
  <ele>74.317413</ele>
  <time>2012-06-23T03:46:58Z</time>
<extensions>
<speed>2.5</speed>
<temp>0.00</temp>
<bpm>0</bpm>
<rpm>0.00</rpm>
</extensions>
</trkpt>
<trkpt lat="32.585014343" lon="34.992275238">
  <ele>74.711945</ele>
  <time>2012-06-23T03:47:00Z</time>
<extensions>
<speed>2.1</speed>
<temp>0.00</temp>
<bpm>0</bpm>
<rpm>0.00</rpm>
</extensions>
</trkpt>
<trkpt lat="32.585010529" lon="34.992317200">
  <ele>75.354523</ele>
  <time>2012-06-23T03:47:02Z</time>
<extensions>
<speed>1.8</speed>
<temp>0.00</temp>
<bpm>0</bpm>
<rpm>0.00</rpm>
</extensions>
</trkpt>
<trkpt lat="32.585002899" lon="34.992351532">
  <ele>75.235382</ele>
  <time>2012-06-23T03:47:04Z</time>
<extensions>
<speed>2.0</speed>
<temp>0.00</temp>
<bpm>0</bpm>
<rpm>0.00</rpm>
</extensions>
</trkpt>
<trkpt lat="32.584987640" lon="34.992382050">
  <ele>74.059601</ele>
  <time>2012-06-23T03:47:06Z</time>
<extensions>
<speed>2.1</speed>
<temp>0.00</temp>
<bpm>0</bpm>
<rpm>0.00</rpm>
</extensions>
</trkpt>
<trkpt lat="32.584968567" lon="34.992420197">
  <ele>73.952179</ele>
  <time>2012-06-23T03:47:08Z</time>
<extensions>
<speed>2.4</speed>
<temp>0.00</temp>
<bpm>0</bpm>
<rpm>0.00</rpm>
</extensions>
</trkpt>
<trkpt lat="32.584953308" lon="34.992469788">
  <ele>74.395538</ele>
  <time>2012-06-23T03:47:10Z</time>
<extensions>
<speed>2.4</speed>
<temp>0.00</temp>
<bpm>0</bpm>
<rpm>0.00</rpm>
</extensions>
</trkpt>
<trkpt lat="32.584945679" lon="34.992511749">
  <ele>75.297882</ele>
  <time>2012-06-23T03:47:12Z</time>
<extensions>
<speed>1.8</speed>
<temp>0.00</temp>
<bpm>0</bpm>
<rpm>0.00</rpm>
</extensions>
</trkpt>
<trkpt lat="32.584976196" lon="34.992546082">
  <ele>76.084991</ele>
  <time>2012-06-23T03:47:14Z</time>
<extensions>
<speed>1.8</speed>
<temp>0.00</temp>
<bpm>0</bpm>
<rpm>0.00</rpm>
</extensions>
</trkpt>
<trkpt lat="32.585010529" lon="34.992568970">
  <ele>76.237335</ele>
  <time>2012-06-23T03:47:16Z</time>
<extensions>
<speed>1.6</speed>
<temp>0.00</temp>
<bpm>0</bpm>
<rpm>0.00</rpm>
</extensions>
</trkpt>
<trkpt lat="32.585044861" lon="34.992584229">
  <ele>75.981476</ele>
  <time>2012-06-23T03:47:18Z</time>
<extensions>
<speed>1.9</speed>
<temp>0.00</temp>
<bpm>0</bpm>
<rpm>0.00</rpm>
</extensions>
</trkpt>
<trkpt lat="32.585086823" lon="34.992599487">
  <ele>75.717804</ele>
  <time>2012-06-23T03:47:20Z</time>
<extensions>
<speed>1.8</speed>
<temp>0.00</temp>
<bpm>0</bpm>
<rpm>0.00</rpm>
</extensions>
</trkpt>
<trkpt lat="32.585121155" lon="34.992618561">
  <ele>76.106476</ele>
  <time>2012-06-23T03:47:22Z</time>
<extensions>
<speed>1.6</speed>
<temp>0.00</temp>
<bpm>0</bpm>
<rpm>0.00</rpm>
</extensions>
</trkpt>
<trkpt lat="32.585147858" lon="34.992633820">
  <ele>76.516632</ele>
  <time>2012-06-23T03:47:24Z</time>
<extensions>
<speed>1.8</speed>
<temp>0.00</temp>
<bpm>0</bpm>
<rpm>0.00</rpm>
</extensions>
</trkpt>
<trkpt lat="32.585178375" lon="34.992649078">
  <ele>76.952179</ele>
  <time>2012-06-23T03:47:26Z</time>
<extensions>
<speed>1.5</speed>
<temp>0.00</temp>
<bpm>0</bpm>
<rpm>0.00</rpm>
</extensions>
</trkpt>
<trkpt lat="32.585205078" lon="34.992664337">
  <ele>78.258820</ele>
  <time>2012-06-23T03:47:27Z</time>
<extensions>
<speed>1.7</speed>
<temp>0.00</temp>
<bpm>0</bpm>
<rpm>0.00</rpm>
</extensions>
</trkpt>
<trkpt lat="32.585235596" lon="34.992691040">
  <ele>79.213898</ele>
  <time>2012-06-23T03:47:29Z</time>
<extensions>
<speed>1.7</speed>
<temp>0.00</temp>
<bpm>0</bpm>
<rpm>0.00</rpm>
</extensions>
</trkpt>
<trkpt lat="32.585254669" lon="34.992717743">
  <ele>79.844757</ele>
  <time>2012-06-23T03:47:32Z</time>
<extensions>
<speed>1.5</speed>
<temp>0.00</temp>
<bpm>0</bpm>
<rpm>0.00</rpm>
</extensions>
</trkpt>
<trkpt lat="32.585273743" lon="34.992755890">
  <ele>81.008820</ele>
  <time>2012-06-23T03:47:34Z</time>
<extensions>
<speed>1.6</speed>
<temp>0.00</temp>
<bpm>0</bpm>
<rpm>0.00</rpm>
</extensions>
</trkpt>
<trkpt lat="32.585289001" lon="34.992790222">
  <ele>80.965851</ele>
  <time>2012-06-23T03:47:37Z</time>
<extensions>
<speed>1.2</speed>
<temp>0.00</temp>
<bpm>0</bpm>
<rpm>0.00</rpm>
</extensions>
</trkpt>
<trkpt lat="32.585285187" lon="34.992832184">
  <ele>80.622101</ele>
  <time>2012-06-23T03:47:40Z</time>
<extensions>
<speed>1.5</speed>
<temp>0.00</temp>
<bpm>0</bpm>
<rpm>0.00</rpm>
</extensions>
</trkpt>
<trkpt lat="32.585281372" lon="34.992866516">
  <ele>80.821320</ele>
  <time>2012-06-23T03:47:42Z</time>
<extensions>
<speed>1.5</speed>
<temp>0.00</temp>
<bpm>0</bpm>
<rpm>0.00</rpm>
</extensions>
</trkpt>
<trkpt lat="32.585285187" lon="34.992900848">
  <ele>81.354523</ele>
  <time>2012-06-23T03:47:44Z</time>
<extensions>
<speed>1.5</speed>
<temp>0.00</temp>
<bpm>0</bpm>
<rpm>0.00</rpm>
</extensions>
</trkpt>
<trkpt lat="32.585269928" lon="34.992927551">
  <ele>81.911163</ele>
  <time>2012-06-23T03:47:46Z</time>
<extensions>
<speed>1.3</speed>
<temp>0.00</temp>
<bpm>0</bpm>
<rpm>0.00</rpm>
</extensions>
</trkpt>
<trkpt lat="32.585266113" lon="34.992969513">
  <ele>82.479523</ele>
  <time>2012-06-23T03:47:49Z</time>
<extensions>
<speed>1.8</speed>
<temp>0.00</temp>
<bpm>0</bpm>
<rpm>0.00</rpm>
</extensions>
</trkpt>
<trkpt lat="32.585266113" lon="34.993003845">
  <ele>83.338898</ele>
  <time>2012-06-23T03:47:51Z</time>
<extensions>
<speed>1.4</speed>
<temp>0.00</temp>
<bpm>0</bpm>
<rpm>0.00</rpm>
</extensions>
</trkpt>
<trkpt lat="32.585281372" lon="34.993041992">
  <ele>84.028351</ele>
  <time>2012-06-23T03:47:54Z</time>
<extensions>
<speed>1.2</speed>
<temp>0.00</temp>
<bpm>0</bpm>
<rpm>0.00</rpm>
</extensions>
</trkpt>
<trkpt lat="32.585311890" lon="34.993072510">
  <ele>85.229523</ele>
  <time>2012-06-23T03:47:58Z</time>
<extensions>
<speed>1.1</speed>
<temp>0.00</temp>
<bpm>0</bpm>
<rpm>0.00</rpm>
</extensions>
</trkpt>
<trkpt lat="32.585342407" lon="34.993095398">
  <ele>85.001007</ele>
  <time>2012-06-23T03:48:00Z</time>
<extensions>
<speed>1.6</speed>
<temp>0.00</temp>
<bpm>0</bpm>
<rpm>0.00</rpm>
</extensions>
</trkpt>
<trkpt lat="32.585357666" lon="34.993125916">
  <ele>85.557648</ele>
  <time>2012-06-23T03:48:02Z</time>
<extensions>
<speed>1.5</speed>
<temp>0.00</temp>
<bpm>0</bpm>
<rpm>0.00</rpm>
</extensions>
</trkpt>
<trkpt lat="32.585372925" lon="34.993156433">
  <ele>85.393585</ele>
  <time>2012-06-23T03:48:04Z</time>
<extensions>
<speed>1.2</speed>
<temp>0.00</temp>
<bpm>0</bpm>
<rpm>0.00</rpm>
</extensions>
</trkpt>
<trkpt lat="32.585395813" lon="34.993194580">
  <ele>86.569366</ele>
  <time>2012-06-23T03:48:07Z</time>
<extensions>
<speed>1.6</speed>
<temp>0.00</temp>
<bpm>0</bpm>
<rpm>0.00</rpm>
</extensions>
</trkpt>
<trkpt lat="32.585418701" lon="34.993232727">
  <ele>87.239288</ele>
  <time>2012-06-23T03:48:10Z</time>
<extensions>
<speed>1.7</speed>
<temp>0.00</temp>
<bpm>0</bpm>
<rpm>0.00</rpm>
</extensions>
</trkpt>
<trkpt lat="32.585437775" lon="34.993259430">
  <ele>87.616241</ele>
  <time>2012-06-23T03:48:12Z</time>
<extensions>
<speed>1.5</speed>
<temp>0.00</temp>
<bpm>0</bpm>
<rpm>0.00</rpm>
</extensions>
</trkpt>
<trkpt lat="32.585453033" lon="34.993286133">
  <ele>88.284210</ele>
  <time>2012-06-23T03:48:14Z</time>
<extensions>
<speed>1.6</speed>
<temp>0.00</temp>
<bpm>0</bpm>
<rpm>0.00</rpm>
</extensions>
</trkpt>
<trkpt lat="32.585475922" lon="34.993320465">
  <ele>88.751007</ele>
  <time>2012-06-23T03:48:16Z</time>
<extensions>
<speed>1.7</speed>
<temp>0.00</temp>
<bpm>0</bpm>
<rpm>0.00</rpm>
</extensions>
</trkpt>
<trkpt lat="32.585498810" lon="34.993362427">
  <ele>89.682648</ele>
  <time>2012-06-23T03:48:18Z</time>
<extensions>
<speed>1.4</speed>
<temp>0.00</temp>
<bpm>0</bpm>
<rpm>0.00</rpm>
</extensions>
</trkpt>
<trkpt lat="32.585514069" lon="34.993396759">
  <ele>90.852570</ele>
  <time>2012-06-23T03:48:21Z</time>
<extensions>
<speed>1.2</speed>
<temp>0.00</temp>
<bpm>0</bpm>
<rpm>0.00</rpm>
</extensions>
</trkpt>
<trkpt lat="32.585521698" lon="34.993438721">
  <ele>91.045929</ele>
  <time>2012-06-23T03:48:24Z</time>
<extensions>
<speed>1.3</speed>
<temp>0.00</temp>
<bpm>0</bpm>
<rpm>0.00</rpm>
</extensions>
</trkpt>
<trkpt lat="32.585494995" lon="34.993469238">
  <ele>90.278351</ele>
  <time>2012-06-23T03:48:27Z</time>
<extensions>
<speed>1.3</speed>
<temp>0.00</temp>
<bpm>0</bpm>
<rpm>0.00</rpm>
</extensions>
</trkpt>
<trkpt lat="32.585472107" lon="34.993492126">
  <ele>90.200226</ele>
  <time>2012-06-23T03:48:30Z</time>
<extensions>
<speed>1.3</speed>
<temp>0.00</temp>
<bpm>0</bpm>
<rpm>0.00</rpm>
</extensions>
</trkpt>
<trkpt lat="32.585464478" lon="34.993522644">
  <ele>90.542023</ele>
  <time>2012-06-23T03:48:32Z</time>
<extensions>
<speed>1.7</speed>
<temp>0.00</temp>
<bpm>0</bpm>
<rpm>0.00</rpm>
</extensions>
</trkpt>
<trkpt lat="32.585468292" lon="34.993568420">
  <ele>90.793976</ele>
  <time>2012-06-23T03:48:34Z</time>
<extensions>
<speed>1.4</speed>
<temp>0.00</temp>
<bpm>0</bpm>
<rpm>0.00</rpm>
</extensions>
</trkpt>
<trkpt lat="32.585475922" lon="34.993606567">
  <ele>91.102570</ele>
  <time>2012-06-23T03:48:36Z</time>
<extensions>
<speed>1.6</speed>
<temp>0.00</temp>
<bpm>0</bpm>
<rpm>0.00</rpm>
</extensions>
</trkpt>
<trkpt lat="32.585483551" lon="34.993640900">
  <ele>91.461945</ele>
  <time>2012-06-23T03:48:38Z</time>
<extensions>
<speed>1.8</speed>
<temp>0.00</temp>
<bpm>0</bpm>
<rpm>0.00</rpm>
</extensions>
</trkpt>
<trkpt lat="32.585491180" lon="34.993671417">
  <ele>91.217804</ele>
  <time>2012-06-23T03:48:40Z</time>
<extensions>
<speed>1.6</speed>
<temp>0.00</temp>
<bpm>0</bpm>
<rpm>0.00</rpm>
</extensions>
</trkpt>
<trkpt lat="32.585506439" lon="34.993701935">
  <ele>91.700226</ele>
  <time>2012-06-23T03:48:42Z</time>
<extensions>
<speed>1.6</speed>
<temp>0.00</temp>
<bpm>0</bpm>
<rpm>0.00</rpm>
</extensions>
</trkpt>
<trkpt lat="32.585506439" lon="34.993740082">
  <ele>93.501007</ele>
  <time>2012-06-23T03:48:44Z</time>
<extensions>
<speed>1.3</speed>
<temp>0.00</temp>
<bpm>0</bpm>
<rpm>0.00</rpm>
</extensions>
</trkpt>
<trkpt lat="32.585517883" lon="34.993785858">
  <ele>93.680695</ele>
  <time>2012-06-23T03:48:47Z</time>
<extensions>
<speed>1.3</speed>
<temp>0.00</temp>
<bpm>0</bpm>
<rpm>0.00</rpm>
</extensions>
</trkpt>
<trkpt lat="32.585533142" lon="34.993824005">
  <ele>94.491241</ele>
  <time>2012-06-23T03:48:50Z</time>
<extensions>
<speed>1.5</speed>
<temp>0.00</temp>
<bpm>0</bpm>
<rpm>0.00</rpm>
</extensions>
</trkpt>
<trkpt lat="32.585548401" lon="34.993858337">
  <ele>95.420929</ele>
  <time>2012-06-23T03:48:52Z</time>
<extensions>
<speed>1.5</speed>
<temp>0.00</temp>
<bpm>0</bpm>
<rpm>0.00</rpm>
</extensions>
</trkpt>
<trkpt lat="32.585563660" lon="34.993896484">
  <ele>96.403351</ele>
  <time>2012-06-23T03:48:55Z</time>
<extensions>
<speed>1.4</speed>
<temp>0.00</temp>
<bpm>0</bpm>
<rpm>0.00</rpm>
</extensions>
</trkpt>
<trkpt lat="32.585590363" lon="34.993927002">
  <ele>96.368195</ele>
  <time>2012-06-23T03:48:58Z</time>
<extensions>
<speed>1.5</speed>
<temp>0.00</temp>
<bpm>0</bpm>
<rpm>0.00</rpm>
</extensions>
</trkpt>
<trkpt lat="32.585605621" lon="34.993957520">
  <ele>96.981476</ele>
  <time>2012-06-23T03:49:00Z</time>
<extensions>
<speed>1.5</speed>
<temp>0.00</temp>
<bpm>0</bpm>
<rpm>0.00</rpm>
</extensions>
</trkpt>
<trkpt lat="32.585628510" lon="34.993988037">
  <ele>97.758820</ele>
  <time>2012-06-23T03:49:03Z</time>
<extensions>
<speed>1.5</speed>
<temp>0.00</temp>
<bpm>0</bpm>
<rpm>0.00</rpm>
</extensions>
</trkpt>
<trkpt lat="32.585647583" lon="34.994010925">
  <ele>98.122101</ele>
  <time>2012-06-23T03:49:05Z</time>
<extensions>
<speed>1.4</speed>
<temp>0.00</temp>
<bpm>0</bpm>
<rpm>0.00</rpm>
</extensions>
</trkpt>
<trkpt lat="32.585670471" lon="34.994033813">
  <ele>99.075226</ele>
  <time>2012-06-23T03:49:07Z</time>
<extensions>
<speed>1.4</speed>
<temp>0.00</temp>
<bpm>0</bpm>
<rpm>0.00</rpm>
</extensions>
</trkpt>
<trkpt lat="32.585681915" lon="34.994064331">
  <ele>99.161163</ele>
  <time>2012-06-23T03:49:09Z</time>
<extensions>
<speed>1.4</speed>
<temp>0.00</temp>
<bpm>0</bpm>
<rpm>0.00</rpm>
</extensions>
</trkpt>
<trkpt lat="32.585700989" lon="34.994094849">
  <ele>99.053741</ele>
  <time>2012-06-23T03:49:11Z</time>
<extensions>
<speed>1.7</speed>
<temp>0.00</temp>
<bpm>0</bpm>
<rpm>0.00</rpm>
</extensions>
</trkpt>
<trkpt lat="32.585712433" lon="34.994121552">
  <ele>99.872101</ele>
  <time>2012-06-23T03:49:13Z</time>
<extensions>
<speed>1.4</speed>
<temp>0.00</temp>
<bpm>0</bpm>
<rpm>0.00</rpm>
</extensions>
</trkpt>
<trkpt lat="32.585697174" lon="34.994155884">
  <ele>99.823273</ele>
  <time>2012-06-23T03:49:16Z</time>
<extensions>
<speed>1.5</speed>
<temp>0.00</temp>
<bpm>0</bpm>
<rpm>0.00</rpm>
</extensions>
</trkpt>
<trkpt lat="32.585674286" lon="34.994167328">
  <ele>98.903351</ele>
  <time>2012-06-23T03:49:18Z</time>
<extensions>
<speed>1.6</speed>
<temp>0.00</temp>
<bpm>0</bpm>
<rpm>0.00</rpm>
</extensions>
</trkpt>
<trkpt lat="32.585636139" lon="34.994186401">
  <ele>98.805695</ele>
  <time>2012-06-23T03:49:21Z</time>
<extensions>
<speed>2.0</speed>
<temp>0.00</temp>
<bpm>0</bpm>
<rpm>0.00</rpm>
</extensions>
</trkpt>
<trkpt lat="32.585601807" lon="34.994209290">
  <ele>98.961945</ele>
  <time>2012-06-23T03:49:24Z</time>
<extensions>
<speed>1.8</speed>
<temp>0.00</temp>
<bpm>0</bpm>
<rpm>0.00</rpm>
</extensions>
</trkpt>
<trkpt lat="32.585575104" lon="34.994247437">
  <ele>99.126007</ele>
  <time>2012-06-23T03:49:27Z</time>
<extensions>
<speed>1.8</speed>
<temp>0.00</temp>
<bpm>0</bpm>
<rpm>0.00</rpm>
</extensions>
</trkpt>
<trkpt lat="32.585552216" lon="34.994281769">
  <ele>99.088898</ele>
  <time>2012-06-23T03:49:30Z</time>
<extensions>
<speed>1.4</speed>
<temp>0.00</temp>
<bpm>0</bpm>
<rpm>0.00</rpm>
</extensions>
</trkpt>
<trkpt lat="32.585529327" lon="34.994308472">
  <ele>100.114288</ele>
  <time>2012-06-23T03:49:34Z</time>
<extensions>
<speed>0.6</speed>
<temp>0.00</temp>
<bpm>0</bpm>
<rpm>0.00</rpm>
</extensions>
</trkpt>
<trkpt lat="32.585510254" lon="34.994346619">
  <ele>100.895538</ele>
  <time>2012-06-23T03:49:38Z</time>
<extensions>
<speed>1.1</speed>
<temp>0.00</temp>
<bpm>0</bpm>
<rpm>0.00</rpm>
</extensions>
</trkpt>
<trkpt lat="32.585491180" lon="34.994377136">
  <ele>102.249054</ele>
  <time>2012-06-23T03:49:41Z</time>
<extensions>
<speed>1.1</speed>
<temp>0.00</temp>
<bpm>0</bpm>
<rpm>0.00</rpm>
</extensions>
</trkpt>
<trkpt lat="32.585464478" lon="34.994388580">
  <ele>103.209991</ele>
  <time>2012-06-23T03:49:43Z</time>
<extensions>
<speed>0.8</speed>
<temp>0.00</temp>
<bpm>0</bpm>
<rpm>0.00</rpm>
</extensions>
</trkpt>
<trkpt lat="32.585437775" lon="34.994400024">
  <ele>104.004913</ele>
  <time>2012-06-23T03:49:47Z</time>
<extensions>
<speed>0.8</speed>
<temp>0.00</temp>
<bpm>0</bpm>
<rpm>0.00</rpm>
</extensions>
</trkpt>
<trkpt lat="32.585414886" lon="34.994415283">
  <ele>104.049835</ele>
  <time>2012-06-23T03:49:50Z</time>
<extensions>
<speed>1.5</speed>
<temp>0.00</temp>
<bpm>0</bpm>
<rpm>0.00</rpm>
</extensions>
</trkpt>
<trkpt lat="32.585388184" lon="34.994430542">
  <ele>104.311554</ele>
  <time>2012-06-23T03:49:52Z</time>
<extensions>
<speed>1.5</speed>
<temp>0.00</temp>
<bpm>0</bpm>
<rpm>0.00</rpm>
</extensions>
</trkpt>
<trkpt lat="32.585361481" lon="34.994472504">
  <ele>105.194366</ele>
  <time>2012-06-23T03:49:55Z</time>
<extensions>
<speed>1.7</speed>
<temp>0.00</temp>
<bpm>0</bpm>
<rpm>0.00</rpm>
</extensions>
</trkpt>
<trkpt lat="32.585350037" lon="34.994510651">
  <ele>103.942413</ele>
  <time>2012-06-23T03:49:57Z</time>
<extensions>
<speed>2.0</speed>
<temp>0.00</temp>
<bpm>0</bpm>
<rpm>0.00</rpm>
</extensions>
</trkpt>
<trkpt lat="32.585342407" lon="34.994552612">
  <ele>104.165070</ele>
  <time>2012-06-23T03:49:59Z</time>
<extensions>
<speed>1.7</speed>
<temp>0.00</temp>
<bpm>0</bpm>
<rpm>0.00</rpm>
</extensions>
</trkpt>
<trkpt lat="32.585330963" lon="34.994586945">
  <ele>103.876007</ele>
  <time>2012-06-23T03:50:01Z</time>
<extensions>
<speed>1.8</speed>
<temp>0.00</temp>
<bpm>0</bpm>
<rpm>0.00</rpm>
</extensions>
</trkpt>
<trkpt lat="32.585319519" lon="34.994617462">
  <ele>104.758820</ele>
  <time>2012-06-23T03:50:03Z</time>
<extensions>
<speed>1.6</speed>
<temp>0.00</temp>
<bpm>0</bpm>
<rpm>0.00</rpm>
</extensions>
</trkpt>
<trkpt lat="32.585304260" lon="34.994644165">
  <ele>104.973663</ele>
  <time>2012-06-23T03:50:05Z</time>
<extensions>
<speed>1.9</speed>
<temp>0.00</temp>
<bpm>0</bpm>
<rpm>0.00</rpm>
</extensions>
</trkpt>
<trkpt lat="32.585281372" lon="34.994670868">
  <ele>104.717804</ele>
  <time>2012-06-23T03:50:07Z</time>
<extensions>
<speed>1.6</speed>
<temp>0.00</temp>
<bpm>0</bpm>
<rpm>0.00</rpm>
</extensions>
</trkpt>
<trkpt lat="32.585266113" lon="34.994705200">
  <ele>105.299835</ele>
  <time>2012-06-23T03:50:09Z</time>
<extensions>
<speed>1.8</speed>
<temp>0.00</temp>
<bpm>0</bpm>
<rpm>0.00</rpm>
</extensions>
</trkpt>
<trkpt lat="32.585250854" lon="34.994739532">
  <ele>105.432648</ele>
  <time>2012-06-23T03:50:11Z</time>
<extensions>
<speed>1.7</speed>
<temp>0.00</temp>
<bpm>0</bpm>
<rpm>0.00</rpm>
</extensions>
</trkpt>
<trkpt lat="32.585227966" lon="34.994770050">
  <ele>106.010773</ele>
  <time>2012-06-23T03:50:13Z</time>
<extensions>
<speed>1.7</speed>
<temp>0.00</temp>
<bpm>0</bpm>
<rpm>0.00</rpm>
</extensions>
</trkpt>
<trkpt lat="32.585216522" lon="34.994800568">
  <ele>105.959991</ele>
  <time>2012-06-23T03:50:15Z</time>
<extensions>
<speed>1.7</speed>
<temp>0.00</temp>
<bpm>0</bpm>
<rpm>0.00</rpm>
</extensions>
</trkpt>
<trkpt lat="32.585193634" lon="34.994827271">
  <ele>106.538116</ele>
  <time>2012-06-23T03:50:17Z</time>
<extensions>
<speed>1.6</speed>
<temp>0.00</temp>
<bpm>0</bpm>
<rpm>0.00</rpm>
</extensions>
</trkpt>
<trkpt lat="32.585178375" lon="34.994853973">
  <ele>106.518585</ele>
  <time>2012-06-23T03:50:19Z</time>
<extensions>
<speed>1.7</speed>
<temp>0.00</temp>
<bpm>0</bpm>
<rpm>0.00</rpm>
</extensions>
</trkpt>
<trkpt lat="32.585159302" lon="34.994880676">
  <ele>106.567413</ele>
  <time>2012-06-23T03:50:21Z</time>
<extensions>
<speed>1.7</speed>
<temp>0.00</temp>
<bpm>0</bpm>
<rpm>0.00</rpm>
</extensions>
</trkpt>
<trkpt lat="32.585147858" lon="34.994918823">
  <ele>107.381866</ele>
  <time>2012-06-23T03:50:23Z</time>
<extensions>
<speed>1.5</speed>
<temp>0.00</temp>
<bpm>0</bpm>
<rpm>0.00</rpm>
</extensions>
</trkpt>
<trkpt lat="32.585136414" lon="34.994956970">
  <ele>106.844757</ele>
  <time>2012-06-23T03:50:26Z</time>
<extensions>
<speed>1.8</speed>
<temp>0.00</temp>
<bpm>0</bpm>
<rpm>0.00</rpm>
</extensions>
</trkpt>
<trkpt lat="32.585128784" lon="34.994983673">
  <ele>108.088898</ele>
  <time>2012-06-23T03:50:27Z</time>
<extensions>
<speed>1.6</speed>
<temp>0.00</temp>
<bpm>0</bpm>
<rpm>0.00</rpm>
</extensions>
</trkpt>
<trkpt lat="32.585132599" lon="34.995029449">
  <ele>109.081085</ele>
  <time>2012-06-23T03:50:29Z</time>
<extensions>
<speed>2.0</speed>
<temp>0.00</temp>
<bpm>0</bpm>
<rpm>0.00</rpm>
</extensions>
</trkpt>
<trkpt lat="32.585124969" lon="34.995071411">
  <ele>110.389679</ele>
  <time>2012-06-23T03:50:31Z</time>
<extensions>
<speed>1.6</speed>
<temp>0.00</temp>
<bpm>0</bpm>
<rpm>0.00</rpm>
</extensions>
</trkpt>
<trkpt lat="32.585136414" lon="34.995113373">
  <ele>110.782257</ele>
  <time>2012-06-23T03:50:33Z</time>
<extensions>
<speed>2.1</speed>
<temp>0.00</temp>
<bpm>0</bpm>
<rpm>0.00</rpm>
</extensions>
</trkpt>
<trkpt lat="32.585155487" lon="34.995147705">
  <ele>111.122101</ele>
  <time>2012-06-23T03:50:35Z</time>
<extensions>
<speed>1.6</speed>
<temp>0.00</temp>
<bpm>0</bpm>
<rpm>0.00</rpm>
</extensions>
</trkpt>
<trkpt lat="32.585174561" lon="34.995174408">
  <ele>111.342804</ele>
  <time>2012-06-23T03:50:37Z</time>
<extensions>
<speed>1.5</speed>
<temp>0.00</temp>
<bpm>0</bpm>
<rpm>0.00</rpm>
</extensions>
</trkpt>
<trkpt lat="32.585208893" lon="34.995201111">
  <ele>111.823273</ele>
  <time>2012-06-23T03:50:40Z</time>
<extensions>
<speed>1.2</speed>
<temp>0.00</temp>
<bpm>0</bpm>
<rpm>0.00</rpm>
</extensions>
</trkpt>
<trkpt lat="32.585227966" lon="34.995227814">
  <ele>112.627960</ele>
  <time>2012-06-23T03:50:42Z</time>
<extensions>
<speed>1.4</speed>
<temp>0.00</temp>
<bpm>0</bpm>
<rpm>0.00</rpm>
</extensions>
</trkpt>
<trkpt lat="32.585250854" lon="34.995254517">
  <ele>113.543976</ele>
  <time>2012-06-23T03:50:44Z</time>
<extensions>
<speed>1.5</speed>
<temp>0.00</temp>
<bpm>0</bpm>
<rpm>0.00</rpm>
</extensions>
</trkpt>
<trkpt lat="32.585292816" lon="34.995269775">
  <ele>114.586945</ele>
  <time>2012-06-23T03:50:45Z</time>
<extensions>
<speed>1.5</speed>
<temp>0.00</temp>
<bpm>0</bpm>
<rpm>0.00</rpm>
</extensions>
</trkpt>
<trkpt lat="32.585308075" lon="34.995296478">
  <ele>115.108429</ele>
  <time>2012-06-23T03:50:47Z</time>
<extensions>
<speed>1.5</speed>
<temp>0.00</temp>
<bpm>0</bpm>
<rpm>0.00</rpm>
</extensions>
</trkpt>
<trkpt lat="32.585327148" lon="34.995323181">
  <ele>115.288116</ele>
  <time>2012-06-23T03:50:49Z</time>
<extensions>
<speed>1.8</speed>
<temp>0.00</temp>
<bpm>0</bpm>
<rpm>0.00</rpm>
</extensions>
</trkpt>
<trkpt lat="32.585357666" lon="34.995349884">
  <ele>116.014679</ele>
  <time>2012-06-23T03:50:51Z</time>
<extensions>
<speed>1.5</speed>
<temp>0.00</temp>
<bpm>0</bpm>
<rpm>0.00</rpm>
</extensions>
</trkpt>
<trkpt lat="32.585388184" lon="34.995361328">
  <ele>117.526398</ele>
  <time>2012-06-23T03:50:53Z</time>
<extensions>
<speed>1.8</speed>
<temp>0.00</temp>
<bpm>0</bpm>
<rpm>0.00</rpm>
</extensions>
</trkpt>
<trkpt lat="32.585422516" lon="34.995338440">
  <ele>118.733429</ele>
  <time>2012-06-23T03:50:56Z</time>
<extensions>
<speed>1.8</speed>
<temp>0.00</temp>
<bpm>0</bpm>
<rpm>0.00</rpm>
</extensions>
</trkpt>
<trkpt lat="32.585460663" lon="34.995326996">
  <ele>119.797882</ele>
  <time>2012-06-23T03:50:58Z</time>
<extensions>
<speed>1.7</speed>
<temp>0.00</temp>
<bpm>0</bpm>
<rpm>0.00</rpm>
</extensions>
</trkpt>
<trkpt lat="32.585483551" lon="34.995311737">
  <ele>120.518585</ele>
  <time>2012-06-23T03:51:00Z</time>
<extensions>
<speed>1.5</speed>
<temp>0.00</temp>
<bpm>0</bpm>
<rpm>0.00</rpm>
</extensions>
</trkpt>
<trkpt lat="32.585529327" lon="34.995296478">
  <ele>120.602570</ele>
  <time>2012-06-23T03:51:03Z</time>
<extensions>
<speed>1.8</speed>
<temp>0.00</temp>
<bpm>0</bpm>
<rpm>0.00</rpm>
</extensions>
</trkpt>
<trkpt lat="32.585556030" lon="34.995281219">
  <ele>121.112335</ele>
  <time>2012-06-23T03:51:05Z</time>
<extensions>
<speed>1.6</speed>
<temp>0.00</temp>
<bpm>0</bpm>
<rpm>0.00</rpm>
</extensions>
</trkpt>
<trkpt lat="32.585586548" lon="34.995277405">
  <ele>121.034210</ele>
  <time>2012-06-23T03:51:07Z</time>
<extensions>
<speed>1.3</speed>
<temp>0.00</temp>
<bpm>0</bpm>
<rpm>0.00</rpm>
</extensions>
</trkpt>
<trkpt lat="32.585609436" lon="34.995281219">
  <ele>119.497101</ele>
  <time>2012-06-23T03:51:09Z</time>
<extensions>
<speed>1.5</speed>
<temp>0.00</temp>
<bpm>0</bpm>
<rpm>0.00</rpm>
</extensions>
</trkpt>
<trkpt lat="32.585636139" lon="34.995296478">
  <ele>118.501007</ele>
  <time>2012-06-23T03:51:11Z</time>
<extensions>
<speed>1.2</speed>
<temp>0.00</temp>
<bpm>0</bpm>
<rpm>0.00</rpm>
</extensions>
</trkpt>
<trkpt lat="32.585651398" lon="34.995319366">
  <ele>119.393585</ele>
  <time>2012-06-23T03:51:13Z</time>
<extensions>
<speed>1.2</speed>
<temp>0.00</temp>
<bpm>0</bpm>
<rpm>0.00</rpm>
</extensions>
</trkpt>
<trkpt lat="32.585681915" lon="34.995338440">
  <ele>119.803741</ele>
  <time>2012-06-23T03:51:15Z</time>
<extensions>
<speed>1.3</speed>
<temp>0.00</temp>
<bpm>0</bpm>
<rpm>0.00</rpm>
</extensions>
</trkpt>
<trkpt lat="32.585693359" lon="34.995368958">
  <ele>119.489288</ele>
  <time>2012-06-23T03:51:18Z</time>
<extensions>
<speed>1.4</speed>
<temp>0.00</temp>
<bpm>0</bpm>
<rpm>0.00</rpm>
</extensions>
</trkpt>
<trkpt lat="32.585700989" lon="34.995399475">
  <ele>119.938507</ele>
  <time>2012-06-23T03:51:20Z</time>
<extensions>
<speed>1.5</speed>
<temp>0.00</temp>
<bpm>0</bpm>
<rpm>0.00</rpm>
</extensions>
</trkpt>
<trkpt lat="32.585712433" lon="34.995433807">
  <ele>119.751007</ele>
  <time>2012-06-23T03:51:22Z</time>
<extensions>
<speed>2.0</speed>
<temp>0.00</temp>
<bpm>0</bpm>
<rpm>0.00</rpm>
</extensions>
</trkpt>
<trkpt lat="32.585720062" lon="34.995475769">
  <ele>120.424835</ele>
  <time>2012-06-23T03:51:24Z</time>
<extensions>
<speed>1.6</speed>
<temp>0.00</temp>
<bpm>0</bpm>
<rpm>0.00</rpm>
</extensions>
</trkpt>
<trkpt lat="32.585723877" lon="34.995513916">
  <ele>121.014679</ele>
  <time>2012-06-23T03:51:26Z</time>
<extensions>
<speed>1.6</speed>
<temp>0.00</temp>
<bpm>0</bpm>
<rpm>0.00</rpm>
</extensions>
</trkpt>
<trkpt lat="32.585704803" lon="34.995540619">
  <ele>120.518585</ele>
  <time>2012-06-23T03:51:29Z</time>
<extensions>
<speed>1.2</speed>
<temp>0.00</temp>
<bpm>0</bpm>
<rpm>0.00</rpm>
</extensions>
</trkpt>
<trkpt lat="32.585689545" lon="34.995571136">
  <ele>120.211945</ele>
  <time>2012-06-23T03:51:32Z</time>
<extensions>
<speed>1.3</speed>
<temp>0.00</temp>
<bpm>0</bpm>
<rpm>0.00</rpm>
</extensions>
</trkpt>
<trkpt lat="32.585681915" lon="34.995620728">
  <ele>120.631866</ele>
  <time>2012-06-23T03:51:35Z</time>
<extensions>
<speed>2.0</speed>
<temp>0.00</temp>
<bpm>0</bpm>
<rpm>0.00</rpm>
</extensions>
</trkpt>
<trkpt lat="32.585674286" lon="34.995666504">
  <ele>121.362335</ele>
  <time>2012-06-23T03:51:37Z</time>
<extensions>
<speed>1.6</speed>
<temp>0.00</temp>
<bpm>0</bpm>
<rpm>0.00</rpm>
</extensions>
</trkpt>
<trkpt lat="32.585685730" lon="34.995697021">
  <ele>122.694366</ele>
  <time>2012-06-23T03:51:39Z</time>
<extensions>
<speed>1.8</speed>
<temp>0.00</temp>
<bpm>0</bpm>
<rpm>0.00</rpm>
</extensions>
</trkpt>
<trkpt lat="32.585716248" lon="34.995716095">
  <ele>122.264679</ele>
  <time>2012-06-23T03:51:41Z</time>
<extensions>
<speed>1.7</speed>
<temp>0.00</temp>
<bpm>0</bpm>
<rpm>0.00</rpm>
</extensions>
</trkpt>
<trkpt lat="32.585742950" lon="34.995738983">
  <ele>122.538116</ele>
  <time>2012-06-23T03:51:43Z</time>
<extensions>
<speed>1.8</speed>
<temp>0.00</temp>
<bpm>0</bpm>
<rpm>0.00</rpm>
</extensions>
</trkpt>
<trkpt lat="32.585784912" lon="34.995742798">
  <ele>123.797882</ele>
  <time>2012-06-23T03:51:45Z</time>
<extensions>
<speed>1.5</speed>
<temp>0.00</temp>
<bpm>0</bpm>
<rpm>0.00</rpm>
</extensions>
</trkpt>
<trkpt lat="32.585811615" lon="34.995738983">
  <ele>124.819366</ele>
  <time>2012-06-23T03:51:47Z</time>
<extensions>
<speed>1.6</speed>
<temp>0.00</temp>
<bpm>0</bpm>
<rpm>0.00</rpm>
</extensions>
</trkpt>
<trkpt lat="32.585845947" lon="34.995738983">
  <ele>123.647491</ele>
  <time>2012-06-23T03:51:49Z</time>
<extensions>
<speed>1.6</speed>
<temp>0.00</temp>
<bpm>0</bpm>
<rpm>0.00</rpm>
</extensions>
</trkpt>
<trkpt lat="32.585880280" lon="34.995750427">
  <ele>123.366241</ele>
  <time>2012-06-23T03:51:51Z</time>
<extensions>
<speed>2.0</speed>
<temp>0.00</temp>
<bpm>0</bpm>
<rpm>0.00</rpm>
</extensions>
</trkpt>
<trkpt lat="32.585914612" lon="34.995754242">
  <ele>124.147491</ele>
  <time>2012-06-23T03:51:53Z</time>
<extensions>
<speed>1.8</speed>
<temp>0.00</temp>
<bpm>0</bpm>
<rpm>0.00</rpm>
</extensions>
</trkpt>
<trkpt lat="32.585952759" lon="34.995758057">
  <ele>124.446320</ele>
  <time>2012-06-23T03:51:55Z</time>
<extensions>
<speed>1.8</speed>
<temp>0.00</temp>
<bpm>0</bpm>
<rpm>0.00</rpm>
</extensions>
</trkpt>
<trkpt lat="32.585987091" lon="34.995754242">
  <ele>124.956085</ele>
  <time>2012-06-23T03:51:57Z</time>
<extensions>
<speed>1.9</speed>
<temp>0.00</temp>
<bpm>0</bpm>
<rpm>0.00</rpm>
</extensions>
</trkpt>
<trkpt lat="32.586021423" lon="34.995754242">
  <ele>124.958038</ele>
  <time>2012-06-23T03:51:59Z</time>
<extensions>
<speed>2.0</speed>
<temp>0.00</temp>
<bpm>0</bpm>
<rpm>0.00</rpm>
</extensions>
</trkpt>
<trkpt lat="32.586059570" lon="34.995765686">
  <ele>124.813507</ele>
  <time>2012-06-23T03:52:01Z</time>
<extensions>
<speed>1.7</speed>
<temp>0.00</temp>
<bpm>0</bpm>
<rpm>0.00</rpm>
</extensions>
</trkpt>
<trkpt lat="32.586097717" lon="34.995761871">
  <ele>124.901398</ele>
  <time>2012-06-23T03:52:03Z</time>
<extensions>
<speed>2.2</speed>
<temp>0.00</temp>
<bpm>0</bpm>
<rpm>0.00</rpm>
</extensions>
</trkpt>
<trkpt lat="32.586143494" lon="34.995750427">
  <ele>125.682648</ele>
  <time>2012-06-23T03:52:05Z</time>
<extensions>
<speed>2.3</speed>
<temp>0.00</temp>
<bpm>0</bpm>
<rpm>0.00</rpm>
</extensions>
</trkpt>
<trkpt lat="32.586181641" lon="34.995742798">
  <ele>126.557648</ele>
  <time>2012-06-23T03:52:07Z</time>
<extensions>
<speed>1.7</speed>
<temp>0.00</temp>
<bpm>0</bpm>
<rpm>0.00</rpm>
</extensions>
</trkpt>
<trkpt lat="32.586215973" lon="34.995738983">
  <ele>126.887726</ele>
  <time>2012-06-23T03:52:09Z</time>
<extensions>
<speed>2.1</speed>
<temp>0.00</temp>
<bpm>0</bpm>
<rpm>0.00</rpm>
</extensions>
</trkpt>
<trkpt lat="32.586261749" lon="34.995735168">
  <ele>126.926788</ele>
  <time>2012-06-23T03:52:11Z</time>
<extensions>
<speed>3.0</speed>
<temp>0.00</temp>
<bpm>0</bpm>
<rpm>0.00</rpm>
</extensions>
</trkpt>
<trkpt lat="32.586292267" lon="34.995738983">
  <ele>126.897491</ele>
  <time>2012-06-23T03:52:12Z</time>
<extensions>
<speed>3.4</speed>
<temp>0.00</temp>
<bpm>0</bpm>
<rpm>0.00</rpm>
</extensions>
</trkpt>
<trkpt lat="32.586318970" lon="34.995742798">
  <ele>127.586945</ele>
  <time>2012-06-23T03:52:13Z</time>
<extensions>
<speed>3.2</speed>
<temp>0.00</temp>
<bpm>0</bpm>
<rpm>0.00</rpm>
</extensions>
</trkpt>
<trkpt lat="32.586353302" lon="34.995750427">
  <ele>127.071320</ele>
  <time>2012-06-23T03:52:14Z</time>
<extensions>
<speed>2.9</speed>
<temp>0.00</temp>
<bpm>0</bpm>
<rpm>0.00</rpm>
</extensions>
</trkpt>
<trkpt lat="32.586376190" lon="34.995765686">
  <ele>128.072327</ele>
  <time>2012-06-23T03:52:15Z</time>
<extensions>
<speed>2.9</speed>
<temp>0.00</temp>
<bpm>0</bpm>
<rpm>0.00</rpm>
</extensions>
</trkpt>
<trkpt lat="32.586421967" lon="34.995792389">
  <ele>127.717804</ele>
  <time>2012-06-23T03:52:17Z</time>
<extensions>
<speed>2.8</speed>
<temp>0.00</temp>
<bpm>0</bpm>
<rpm>0.00</rpm>
</extensions>
</trkpt>
<trkpt lat="32.586448669" lon="34.995803833">
  <ele>127.877960</ele>
  <time>2012-06-23T03:52:18Z</time>
<extensions>
<speed>3.4</speed>
<temp>0.00</temp>
<bpm>0</bpm>
<rpm>0.00</rpm>
</extensions>
</trkpt>
<trkpt lat="32.586494446" lon="34.995796204">
  <ele>127.073273</ele>
  <time>2012-06-23T03:52:21Z</time>
<extensions>
<speed>3.1</speed>
<temp>0.00</temp>
<bpm>0</bpm>
<rpm>0.00</rpm>
</extensions>
</trkpt>
<trkpt lat="32.586521149" lon="34.995780945">
  <ele>127.682648</ele>
  <time>2012-06-23T03:52:22Z</time>
<extensions>
<speed>3.9</speed>
<temp>0.00</temp>
<bpm>0</bpm>
<rpm>0.00</rpm>
</extensions>
</trkpt>
<trkpt lat="32.586555481" lon="34.995761871">
  <ele>126.883820</ele>
  <time>2012-06-23T03:52:23Z</time>
<extensions>
<speed>4.4</speed>
<temp>0.00</temp>
<bpm>0</bpm>
<rpm>0.00</rpm>
</extensions>
</trkpt>
<trkpt lat="32.586593628" lon="34.995746613">
  <ele>126.743195</ele>
  <time>2012-06-23T03:52:24Z</time>
<extensions>
<speed>4.5</speed>
<temp>0.00</temp>
<bpm>0</bpm>
<rpm>0.00</rpm>
</extensions>
</trkpt>
<trkpt lat="32.586639404" lon="34.995738983">
  <ele>125.827179</ele>
  <time>2012-06-23T03:52:25Z</time>
<extensions>
<speed>5.1</speed>
<temp>0.00</temp>
<bpm>0</bpm>
<rpm>0.00</rpm>
</extensions>
</trkpt>
<trkpt lat="32.586685181" lon="34.995750427">
  <ele>124.983429</ele>
  <time>2012-06-23T03:52:26Z</time>
<extensions>
<speed>5.4</speed>
<temp>0.00</temp>
<bpm>0</bpm>
<rpm>0.00</rpm>
</extensions>
</trkpt>
<trkpt lat="32.586715698" lon="34.995773315">
  <ele>124.975616</ele>
  <time>2012-06-23T03:52:27Z</time>
<extensions>
<speed>3.9</speed>
<temp>0.00</temp>
<bpm>0</bpm>
<rpm>0.00</rpm>
</extensions>
</trkpt>
<trkpt lat="32.586715698" lon="34.995834351">
  <ele>123.797882</ele>
  <time>2012-06-23T03:52:29Z</time>
<extensions>
<speed>2.3</speed>
<temp>0.00</temp>
<bpm>0</bpm>
<rpm>0.00</rpm>
</extensions>
</trkpt>
<trkpt lat="32.586704254" lon="34.995868683">
  <ele>123.124054</ele>
  <time>2012-06-23T03:52:31Z</time>
<extensions>
<speed>1.4</speed>
<temp>0.00</temp>
<bpm>0</bpm>
<rpm>0.00</rpm>
</extensions>
</trkpt>
<trkpt lat="32.586700439" lon="34.995906830">
  <ele>123.583038</ele>
  <time>2012-06-23T03:52:33Z</time>
<extensions>
<speed>2.0</speed>
<temp>0.00</temp>
<bpm>0</bpm>
<rpm>0.00</rpm>
</extensions>
</trkpt>
<trkpt lat="32.586696625" lon="34.995944977">
  <ele>123.676788</ele>
  <time>2012-06-23T03:52:35Z</time>
<extensions>
<speed>1.8</speed>
<temp>0.00</temp>
<bpm>0</bpm>
<rpm>0.00</rpm>
</extensions>
</trkpt>
<trkpt lat="32.586673737" lon="34.995971680">
  <ele>123.516632</ele>
  <time>2012-06-23T03:52:37Z</time>
<extensions>
<speed>2.0</speed>
<temp>0.00</temp>
<bpm>0</bpm>
<rpm>0.00</rpm>
</extensions>
</trkpt>
<trkpt lat="32.586654663" lon="34.995998383">
  <ele>122.747101</ele>
  <time>2012-06-23T03:52:39Z</time>
<extensions>
<speed>1.7</speed>
<temp>0.00</temp>
<bpm>0</bpm>
<rpm>0.00</rpm>
</extensions>
</trkpt>
<trkpt lat="32.586627960" lon="34.996036530">
  <ele>123.793976</ele>
  <time>2012-06-23T03:52:41Z</time>
<extensions>
<speed>1.9</speed>
<temp>0.00</temp>
<bpm>0</bpm>
<rpm>0.00</rpm>
</extensions>
</trkpt>
<trkpt lat="32.586631775" lon="34.996082306">
  <ele>123.889679</ele>
  <time>2012-06-23T03:52:44Z</time>
<extensions>
<speed>1.9</speed>
<temp>0.00</temp>
<bpm>0</bpm>
<rpm>0.00</rpm>
</extensions>
</trkpt>
<trkpt lat="32.586627960" lon="34.996131897">
  <ele>124.413116</ele>
  <time>2012-06-23T03:52:46Z</time>
<extensions>
<speed>1.9</speed>
<temp>0.00</temp>
<bpm>0</bpm>
<rpm>0.00</rpm>
</extensions>
</trkpt>
<trkpt lat="32.586631775" lon="34.996166229">
  <ele>124.864288</ele>
  <time>2012-06-23T03:52:48Z</time>
<extensions>
<speed>1.2</speed>
<temp>0.00</temp>
<bpm>0</bpm>
<rpm>0.00</rpm>
</extensions>
</trkpt>
<trkpt lat="32.586639404" lon="34.996200562">
  <ele>125.034210</ele>
  <time>2012-06-23T03:52:50Z</time>
<extensions>
<speed>1.5</speed>
<temp>0.00</temp>
<bpm>0</bpm>
<rpm>0.00</rpm>
</extensions>
</trkpt>
<trkpt lat="32.586639404" lon="34.996242523">
  <ele>126.561554</ele>
  <time>2012-06-23T03:52:52Z</time>
<extensions>
<speed>2.0</speed>
<temp>0.00</temp>
<bpm>0</bpm>
<rpm>0.00</rpm>
</extensions>
</trkpt>
<trkpt lat="32.586647034" lon="34.996276855">
  <ele>127.762726</ele>
  <time>2012-06-23T03:52:54Z</time>
<extensions>
<speed>1.6</speed>
<temp>0.00</temp>
<bpm>0</bpm>
<rpm>0.00</rpm>
</extensions>
</trkpt>
<trkpt lat="32.586658478" lon="34.996307373">
  <ele>128.775452</ele>
  <time>2012-06-23T03:52:56Z</time>
<extensions>
<speed>1.3</speed>
<temp>0.00</temp>
<bpm>0</bpm>
<rpm>0.00</rpm>
</extensions>
</trkpt>
<trkpt lat="32.586669922" lon="34.996341705">
  <ele>130.630920</ele>
  <time>2012-06-23T03:52:58Z</time>
<extensions>
<speed>1.5</speed>
<temp>0.00</temp>
<bpm>0</bpm>
<rpm>0.00</rpm>
</extensions>
</trkpt>
<trkpt lat="32.586677551" lon="34.996376038">
  <ele>132.380920</ele>
  <time>2012-06-23T03:53:00Z</time>
<extensions>
<speed>1.6</speed>
<temp>0.00</temp>
<bpm>0</bpm>
<rpm>0.00</rpm>
</extensions>
</trkpt>
<trkpt lat="32.586685181" lon="34.996414185">
  <ele>133.498108</ele>
  <time>2012-06-23T03:53:02Z</time>
<extensions>
<speed>1.4</speed>
<temp>0.00</temp>
<bpm>0</bpm>
<rpm>0.00</rpm>
</extensions>
</trkpt>
<trkpt lat="32.586688995" lon="34.996459961">
  <ele>133.994202</ele>
  <time>2012-06-23T03:53:05Z</time>
<extensions>
<speed>1.9</speed>
<temp>0.00</temp>
<bpm>0</bpm>
<rpm>0.00</rpm>
</extensions>
</trkpt>
<trkpt lat="32.586708069" lon="34.996501923">
  <ele>134.873108</ele>
  <time>2012-06-23T03:53:07Z</time>
<extensions>
<speed>1.4</speed>
<temp>0.00</temp>
<bpm>0</bpm>
<rpm>0.00</rpm>
</extensions>
</trkpt>
<trkpt lat="32.586708069" lon="34.996532440">
  <ele>136.134827</ele>
  <time>2012-06-23T03:53:09Z</time>
<extensions>
<speed>1.1</speed>
<temp>0.00</temp>
<bpm>0</bpm>
<rpm>0.00</rpm>
</extensions>
</trkpt>
<trkpt lat="32.586708069" lon="34.996570587">
  <ele>136.400452</ele>
  <time>2012-06-23T03:53:12Z</time>
<extensions>
<speed>1.5</speed>
<temp>0.00</temp>
<bpm>0</bpm>
<rpm>0.00</rpm>
</extensions>
</trkpt>
<trkpt lat="32.586715698" lon="34.996604919">
  <ele>136.962952</ele>
  <time>2012-06-23T03:53:14Z</time>
<extensions>
<speed>1.3</speed>
<temp>0.00</temp>
<bpm>0</bpm>
<rpm>0.00</rpm>
</extensions>
</trkpt>
<trkpt lat="32.586723328" lon="34.996635437">
  <ele>137.630920</ele>
  <time>2012-06-23T03:53:16Z</time>
<extensions>
<speed>1.6</speed>
<temp>0.00</temp>
<bpm>0</bpm>
<rpm>0.00</rpm>
</extensions>
</trkpt>
<trkpt lat="32.586734772" lon="34.996665955">
  <ele>138.580139</ele>
  <time>2012-06-23T03:53:18Z</time>
<extensions>
<speed>1.4</speed>
<temp>0.00</temp>
<bpm>0</bpm>
<rpm>0.00</rpm>
</extensions>
</trkpt>
<trkpt lat="32.586746216" lon="34.996700287">
  <ele>139.693420</ele>
  <time>2012-06-23T03:53:20Z</time>
<extensions>
<speed>1.4</speed>
<temp>0.00</temp>
<bpm>0</bpm>
<rpm>0.00</rpm>
</extensions>
</trkpt>
<trkpt lat="32.586772919" lon="34.996726990">
  <ele>140.400452</ele>
  <time>2012-06-23T03:53:22Z</time>
<extensions>
<speed>1.7</speed>
<temp>0.00</temp>
<bpm>0</bpm>
<rpm>0.00</rpm>
</extensions>
</trkpt>
<trkpt lat="32.586799622" lon="34.996749878">
  <ele>140.912170</ele>
  <time>2012-06-23T03:53:24Z</time>
<extensions>
<speed>1.2</speed>
<temp>0.00</temp>
<bpm>0</bpm>
<rpm>0.00</rpm>
</extensions>
</trkpt>
<trkpt lat="32.586830139" lon="34.996765137">
  <ele>140.748108</ele>
  <time>2012-06-23T03:53:26Z</time>
<extensions>
<speed>0.9</speed>
<temp>0.00</temp>
<bpm>0</bpm>
<rpm>0.00</rpm>
</extensions>
</trkpt>
<trkpt lat="32.586845398" lon="34.996807098">
  <ele>142.103577</ele>
  <time>2012-06-23T03:53:29Z</time>
<extensions>
<speed>1.6</speed>
<temp>0.00</temp>
<bpm>0</bpm>
<rpm>0.00</rpm>
</extensions>
</trkpt>
<trkpt lat="32.586864471" lon="34.996833801">
  <ele>142.138733</ele>
  <time>2012-06-23T03:53:31Z</time>
<extensions>
<speed>1.5</speed>
<temp>0.00</temp>
<bpm>0</bpm>
<rpm>0.00</rpm>
</extensions>
</trkpt>
<trkpt lat="32.586868286" lon="34.996864319">
  <ele>142.923889</ele>
  <time>2012-06-23T03:53:33Z</time>
<extensions>
<speed>1.3</speed>
<temp>0.00</temp>
<bpm>0</bpm>
<rpm>0.00</rpm>
</extensions>
</trkpt>
<trkpt lat="32.586864471" lon="34.996906281">
  <ele>143.181702</ele>
  <time>2012-06-23T03:53:36Z</time>
<extensions>
<speed>1.4</speed>
<temp>0.00</temp>
<bpm>0</bpm>
<rpm>0.00</rpm>
</extensions>
</trkpt>
<trkpt lat="32.586853027" lon="34.996940613">
  <ele>143.498108</ele>
  <time>2012-06-23T03:53:39Z</time>
<extensions>
<speed>1.6</speed>
<temp>0.00</temp>
<bpm>0</bpm>
<rpm>0.00</rpm>
</extensions>
</trkpt>
<trkpt lat="32.586841583" lon="34.996974945">
  <ele>142.951233</ele>
  <time>2012-06-23T03:53:42Z</time>
<extensions>
<speed>1.1</speed>
<temp>0.00</temp>
<bpm>0</bpm>
<rpm>0.00</rpm>
</extensions>
</trkpt>
<trkpt lat="32.586830139" lon="34.997009277">
  <ele>142.939514</ele>
  <time>2012-06-23T03:53:44Z</time>
<extensions>
<speed>1.4</speed>
<temp>0.00</temp>
<bpm>0</bpm>
<rpm>0.00</rpm>
</extensions>
</trkpt>
<trkpt lat="32.586814880" lon="34.997039795">
  <ele>141.517639</ele>
  <time>2012-06-23T03:53:46Z</time>
<extensions>
<speed>1.4</speed>
<temp>0.00</temp>
<bpm>0</bpm>
<rpm>0.00</rpm>
</extensions>
</trkpt>
<trkpt lat="32.586799622" lon="34.997074127">
  <ele>140.177795</ele>
  <time>2012-06-23T03:53:49Z</time>
<extensions>
<speed>1.4</speed>
<temp>0.00</temp>
<bpm>0</bpm>
<rpm>0.00</rpm>
</extensions>
</trkpt>
<trkpt lat="32.586780548" lon="34.997097015">
  <ele>139.544983</ele>
  <time>2012-06-23T03:53:51Z</time>
<extensions>
<speed>1.4</speed>
<temp>0.00</temp>
<bpm>0</bpm>
<rpm>0.00</rpm>
</extensions>
</trkpt>
<trkpt lat="32.586765289" lon="34.997123718">
  <ele>138.681702</ele>
  <time>2012-06-23T03:53:54Z</time>
<extensions>
<speed>1.5</speed>
<temp>0.00</temp>
<bpm>0</bpm>
<rpm>0.00</rpm>
</extensions>
</trkpt>
<trkpt lat="32.586738586" lon="34.997154236">
  <ele>138.017639</ele>
  <time>2012-06-23T03:53:57Z</time>
<extensions>
<speed>1.3</speed>
<temp>0.00</temp>
<bpm>0</bpm>
<rpm>0.00</rpm>
</extensions>
</trkpt>
<trkpt lat="32.586715698" lon="34.997188568">
  <ele>138.419983</ele>
  <time>2012-06-23T03:54:00Z</time>
<extensions>
<speed>1.4</speed>
<temp>0.00</temp>
<bpm>0</bpm>
<rpm>0.00</rpm>
</extensions>
</trkpt>
<trkpt lat="32.586708069" lon="34.997222900">
  <ele>139.427795</ele>
  <time>2012-06-23T03:54:02Z</time>
<extensions>
<speed>1.4</speed>
<temp>0.00</temp>
<bpm>0</bpm>
<rpm>0.00</rpm>
</extensions>
</trkpt>
<trkpt lat="32.586696625" lon="34.997257233">
  <ele>141.529358</ele>
  <time>2012-06-23T03:54:04Z</time>
<extensions>
<speed>1.2</speed>
<temp>0.00</temp>
<bpm>0</bpm>
<rpm>0.00</rpm>
</extensions>
</trkpt>
<trkpt lat="32.586708069" lon="34.997291565">
  <ele>141.283264</ele>
  <time>2012-06-23T03:54:06Z</time>
<extensions>
<speed>1.6</speed>
<temp>0.00</temp>
<bpm>0</bpm>
<rpm>0.00</rpm>
</extensions>
</trkpt>
<trkpt lat="32.586719513" lon="34.997322083">
  <ele>142.099670</ele>
  <time>2012-06-23T03:54:08Z</time>
<extensions>
<speed>1.4</speed>
<temp>0.00</temp>
<bpm>0</bpm>
<rpm>0.00</rpm>
</extensions>
</trkpt>
<trkpt lat="32.586738586" lon="34.997352600">
  <ele>142.884827</ele>
  <time>2012-06-23T03:54:10Z</time>
<extensions>
<speed>1.7</speed>
<temp>0.00</temp>
<bpm>0</bpm>
<rpm>0.00</rpm>
</extensions>
</trkpt>
<trkpt lat="32.586769104" lon="34.997367859">
  <ele>143.587952</ele>
  <time>2012-06-23T03:54:12Z</time>
<extensions>
<speed>2.3</speed>
<temp>0.00</temp>
<bpm>0</bpm>
<rpm>0.00</rpm>
</extensions>
</trkpt>
<trkpt lat="32.586799622" lon="34.997364044">
  <ele>144.666077</ele>
  <time>2012-06-23T03:54:14Z</time>
<extensions>
<speed>1.8</speed>
<temp>0.00</temp>
<bpm>0</bpm>
<rpm>0.00</rpm>
</extensions>
</trkpt>
<trkpt lat="32.586833954" lon="34.997329712">
  <ele>145.306702</ele>
  <time>2012-06-23T03:54:16Z</time>
<extensions>
<speed>2.2</speed>
<temp>0.00</temp>
<bpm>0</bpm>
<rpm>0.00</rpm>
</extensions>
</trkpt>
<trkpt lat="32.586845398" lon="34.997299194">
  <ele>145.771545</ele>
  <time>2012-06-23T03:54:18Z</time>
<extensions>
<speed>1.4</speed>
<temp>0.00</temp>
<bpm>0</bpm>
<rpm>0.00</rpm>
</extensions>
</trkpt>
<trkpt lat="32.586864471" lon="34.997272491">
  <ele>146.228577</ele>
  <time>2012-06-23T03:54:20Z</time>
<extensions>
<speed>1.4</speed>
<temp>0.00</temp>
<bpm>0</bpm>
<rpm>0.00</rpm>
</extensions>
</trkpt>
<trkpt lat="32.586894989" lon="34.997261047">
  <ele>145.978577</ele>
  <time>2012-06-23T03:54:22Z</time>
<extensions>
<speed>2.3</speed>
<temp>0.00</temp>
<bpm>0</bpm>
<rpm>0.00</rpm>
</extensions>
</trkpt>
<trkpt lat="32.586933136" lon="34.997234344">
  <ele>146.052795</ele>
  <time>2012-06-23T03:54:24Z</time>
<extensions>
<speed>2.4</speed>
<temp>0.00</temp>
<bpm>0</bpm>
<rpm>0.00</rpm>
</extensions>
</trkpt>
<trkpt lat="32.586967468" lon="34.997207642">
  <ele>146.158264</ele>
  <time>2012-06-23T03:54:26Z</time>
<extensions>
<speed>1.7</speed>
<temp>0.00</temp>
<bpm>0</bpm>
<rpm>0.00</rpm>
</extensions>
</trkpt>
<trkpt lat="32.586994171" lon="34.997192383">
  <ele>146.634827</ele>
  <time>2012-06-23T03:54:28Z</time>
<extensions>
<speed>1.7</speed>
<temp>0.00</temp>
<bpm>0</bpm>
<rpm>0.00</rpm>
</extensions>
</trkpt>
<trkpt lat="32.587020874" lon="34.997173309">
  <ele>147.146545</ele>
  <time>2012-06-23T03:54:30Z</time>
<extensions>
<speed>1.6</speed>
<temp>0.00</temp>
<bpm>0</bpm>
<rpm>0.00</rpm>
</extensions>
</trkpt>
<trkpt lat="32.587059021" lon="34.997150421">
  <ele>147.009827</ele>
  <time>2012-06-23T03:54:32Z</time>
<extensions>
<speed>1.8</speed>
<temp>0.00</temp>
<bpm>0</bpm>
<rpm>0.00</rpm>
</extensions>
</trkpt>
<trkpt lat="32.587089539" lon="34.997138977">
  <ele>146.279358</ele>
  <time>2012-06-23T03:54:34Z</time>
<extensions>
<speed>1.5</speed>
<temp>0.00</temp>
<bpm>0</bpm>
<rpm>0.00</rpm>
</extensions>
</trkpt>
<trkpt lat="32.587116241" lon="34.997127533">
  <ele>146.404358</ele>
  <time>2012-06-23T03:54:36Z</time>
<extensions>
<speed>1.7</speed>
<temp>0.00</temp>
<bpm>0</bpm>
<rpm>0.00</rpm>
</extensions>
</trkpt>
<trkpt lat="32.587135315" lon="34.997108459">
  <ele>147.330139</ele>
  <time>2012-06-23T03:54:38Z</time>
<extensions>
<speed>2.1</speed>
<temp>0.00</temp>
<bpm>0</bpm>
<rpm>0.00</rpm>
</extensions>
</trkpt>
<trkpt lat="32.587162018" lon="34.997077942">
  <ele>147.505920</ele>
  <time>2012-06-23T03:54:40Z</time>
<extensions>
<speed>2.0</speed>
<temp>0.00</temp>
<bpm>0</bpm>
<rpm>0.00</rpm>
</extensions>
</trkpt>
<trkpt lat="32.587184906" lon="34.997039795">
  <ele>147.509827</ele>
  <time>2012-06-23T03:54:42Z</time>
<extensions>
<speed>2.3</speed>
<temp>0.00</temp>
<bpm>0</bpm>
<rpm>0.00</rpm>
</extensions>
</trkpt>
<trkpt lat="32.587207794" lon="34.997005463">
  <ele>147.400452</ele>
  <time>2012-06-23T03:54:44Z</time>
<extensions>
<speed>1.8</speed>
<temp>0.00</temp>
<bpm>0</bpm>
<rpm>0.00</rpm>
</extensions>
</trkpt>
<trkpt lat="32.587238312" lon="34.996971130">
  <ele>147.271545</ele>
  <time>2012-06-23T03:54:46Z</time>
<extensions>
<speed>2.1</speed>
<temp>0.00</temp>
<bpm>0</bpm>
<rpm>0.00</rpm>
</extensions>
</trkpt>
<trkpt lat="32.587276459" lon="34.996940613">
  <ele>147.275452</ele>
  <time>2012-06-23T03:54:48Z</time>
<extensions>
<speed>2.6</speed>
<temp>0.00</temp>
<bpm>0</bpm>
<rpm>0.00</rpm>
</extensions>
</trkpt>
<trkpt lat="32.587314606" lon="34.996913910">
  <ele>146.771545</ele>
  <time>2012-06-23T03:54:50Z</time>
<extensions>
<speed>2.3</speed>
<temp>0.00</temp>
<bpm>0</bpm>
<rpm>0.00</rpm>
</extensions>
</trkpt>
<trkpt lat="32.587345123" lon="34.996891022">
  <ele>147.619202</ele>
  <time>2012-06-23T03:54:52Z</time>
<extensions>
<speed>2.2</speed>
<temp>0.00</temp>
<bpm>0</bpm>
<rpm>0.00</rpm>
</extensions>
</trkpt>
<trkpt lat="32.587375641" lon="34.996860504">
  <ele>148.123108</ele>
  <time>2012-06-23T03:54:54Z</time>
<extensions>
<speed>2.2</speed>
<temp>0.00</temp>
<bpm>0</bpm>
<rpm>0.00</rpm>
</extensions>
</trkpt>
<trkpt lat="32.587421417" lon="34.996833801">
  <ele>148.142639</ele>
  <time>2012-06-23T03:54:56Z</time>
<extensions>
<speed>3.0</speed>
<temp>0.00</temp>
<bpm>0</bpm>
<rpm>0.00</rpm>
</extensions>
</trkpt>
<trkpt lat="32.587463379" lon="34.996826172">
  <ele>147.123108</ele>
  <time>2012-06-23T03:54:58Z</time>
<extensions>
<speed>2.0</speed>
<temp>0.00</temp>
<bpm>0</bpm>
<rpm>0.00</rpm>
</extensions>
</trkpt>
<trkpt lat="32.587493896" lon="34.996822357">
  <ele>146.759827</ele>
  <time>2012-06-23T03:55:00Z</time>
<extensions>
<speed>1.6</speed>
<temp>0.00</temp>
<bpm>0</bpm>
<rpm>0.00</rpm>
</extensions>
</trkpt>
<trkpt lat="32.587524414" lon="34.996795654">
  <ele>147.193420</ele>
  <time>2012-06-23T03:55:02Z</time>
<extensions>
<speed>2.4</speed>
<temp>0.00</temp>
<bpm>0</bpm>
<rpm>0.00</rpm>
</extensions>
</trkpt>
<trkpt lat="32.587570190" lon="34.996772766">
  <ele>147.564514</ele>
  <time>2012-06-23T03:55:04Z</time>
<extensions>
<speed>2.6</speed>
<temp>0.00</temp>
<bpm>0</bpm>
<rpm>0.00</rpm>
</extensions>
</trkpt>
<trkpt lat="32.587619781" lon="34.996772766">
  <ele>146.412170</ele>
  <time>2012-06-23T03:55:06Z</time>
<extensions>
<speed>2.5</speed>
<temp>0.00</temp>
<bpm>0</bpm>
<rpm>0.00</rpm>
</extensions>
</trkpt>
<trkpt lat="32.587646484" lon="34.996780396">
  <ele>145.072327</ele>
  <time>2012-06-23T03:55:07Z</time>
<extensions>
<speed>2.6</speed>
<temp>0.00</temp>
<bpm>0</bpm>
<rpm>0.00</rpm>
</extensions>
</trkpt>
<trkpt lat="32.587669373" lon="34.996807098">
  <ele>145.068420</ele>
  <time>2012-06-23T03:55:09Z</time>
<extensions>
<speed>1.9</speed>
<temp>0.00</temp>
<bpm>0</bpm>
<rpm>0.00</rpm>
</extensions>
</trkpt>
<trkpt lat="32.587692261" lon="34.996837616">
  <ele>144.810608</ele>
  <time>2012-06-23T03:55:11Z</time>
<extensions>
<speed>1.5</speed>
<temp>0.00</temp>
<bpm>0</bpm>
<rpm>0.00</rpm>
</extensions>
</trkpt>
<trkpt lat="32.587715149" lon="34.996860504">
  <ele>145.537170</ele>
  <time>2012-06-23T03:55:13Z</time>
<extensions>
<speed>1.5</speed>
<temp>0.00</temp>
<bpm>0</bpm>
<rpm>0.00</rpm>
</extensions>
</trkpt>
<trkpt lat="32.587741852" lon="34.996875763">
  <ele>145.880920</ele>
  <time>2012-06-23T03:55:15Z</time>
<extensions>
<speed>1.7</speed>
<temp>0.00</temp>
<bpm>0</bpm>
<rpm>0.00</rpm>
</extensions>
</trkpt>
<trkpt lat="32.587776184" lon="34.996887207">
  <ele>146.306702</ele>
  <time>2012-06-23T03:55:17Z</time>
<extensions>
<speed>2.0</speed>
<temp>0.00</temp>
<bpm>0</bpm>
<rpm>0.00</rpm>
</extensions>
</trkpt>
<trkpt lat="32.587795258" lon="34.996913910">
  <ele>145.779358</ele>
  <time>2012-06-23T03:55:19Z</time>
<extensions>
<speed>1.7</speed>
<temp>0.00</temp>
<bpm>0</bpm>
<rpm>0.00</rpm>
</extensions>
</trkpt>
<trkpt lat="32.587810516" lon="34.996944427">
  <ele>145.896545</ele>
  <time>2012-06-23T03:55:21Z</time>
<extensions>
<speed>1.6</speed>
<temp>0.00</temp>
<bpm>0</bpm>
<rpm>0.00</rpm>
</extensions>
</trkpt>
<trkpt lat="32.587806702" lon="34.996986389">
  <ele>146.388733</ele>
  <time>2012-06-23T03:55:23Z</time>
<extensions>
<speed>1.7</speed>
<temp>0.00</temp>
<bpm>0</bpm>
<rpm>0.00</rpm>
</extensions>
</trkpt>
<trkpt lat="32.587799072" lon="34.997020721">
  <ele>146.697327</ele>
  <time>2012-06-23T03:55:25Z</time>
<extensions>
<speed>1.6</speed>
<temp>0.00</temp>
<bpm>0</bpm>
<rpm>0.00</rpm>
</extensions>
</trkpt>
<trkpt lat="32.587806702" lon="34.997058868">
  <ele>146.982483</ele>
  <time>2012-06-23T03:55:27Z</time>
<extensions>
<speed>1.5</speed>
<temp>0.00</temp>
<bpm>0</bpm>
<rpm>0.00</rpm>
</extensions>
</trkpt>
<trkpt lat="32.587802887" lon="34.997089386">
  <ele>147.314514</ele>
  <time>2012-06-23T03:55:29Z</time>
<extensions>
<speed>1.7</speed>
<temp>0.00</temp>
<bpm>0</bpm>
<rpm>0.00</rpm>
</extensions>
</trkpt>
<trkpt lat="32.587795258" lon="34.997119904">
  <ele>147.169983</ele>
  <time>2012-06-23T03:55:31Z</time>
<extensions>
<speed>1.7</speed>
<temp>0.00</temp>
<bpm>0</bpm>
<rpm>0.00</rpm>
</extensions>
</trkpt>
<trkpt lat="32.587787628" lon="34.997154236">
  <ele>147.619202</ele>
  <time>2012-06-23T03:55:33Z</time>
<extensions>
<speed>1.7</speed>
<temp>0.00</temp>
<bpm>0</bpm>
<rpm>0.00</rpm>
</extensions>
</trkpt>
<trkpt lat="32.587783813" lon="34.997192383">
  <ele>148.873108</ele>
  <time>2012-06-23T03:55:35Z</time>
<extensions>
<speed>1.6</speed>
<temp>0.00</temp>
<bpm>0</bpm>
<rpm>0.00</rpm>
</extensions>
</trkpt>
<trkpt lat="32.587787628" lon="34.997222900">
  <ele>150.013733</ele>
  <time>2012-06-23T03:55:37Z</time>
<extensions>
<speed>1.5</speed>
<temp>0.00</temp>
<bpm>0</bpm>
<rpm>0.00</rpm>
</extensions>
</trkpt>
<trkpt lat="32.587787628" lon="34.997268677">
  <ele>150.666077</ele>
  <time>2012-06-23T03:55:40Z</time>
<extensions>
<speed>1.5</speed>
<temp>0.00</temp>
<bpm>0</bpm>
<rpm>0.00</rpm>
</extensions>
</trkpt>
<trkpt lat="32.587783813" lon="34.997303009">
  <ele>151.009827</ele>
  <time>2012-06-23T03:55:42Z</time>
<extensions>
<speed>1.6</speed>
<temp>0.00</temp>
<bpm>0</bpm>
<rpm>0.00</rpm>
</extensions>
</trkpt>
<trkpt lat="32.587787628" lon="34.997341156">
  <ele>151.732483</ele>
  <time>2012-06-23T03:55:44Z</time>
<extensions>
<speed>1.6</speed>
<temp>0.00</temp>
<bpm>0</bpm>
<rpm>0.00</rpm>
</extensions>
</trkpt>
<trkpt lat="32.587783813" lon="34.997379303">
  <ele>152.248108</ele>
  <time>2012-06-23T03:55:46Z</time>
<extensions>
<speed>1.6</speed>
<temp>0.00</temp>
<bpm>0</bpm>
<rpm>0.00</rpm>
</extensions>
</trkpt>
<trkpt lat="32.587779999" lon="34.997428894">
  <ele>152.896545</ele>
  <time>2012-06-23T03:55:49Z</time>
<extensions>
<speed>1.6</speed>
<temp>0.00</temp>
<bpm>0</bpm>
<rpm>0.00</rpm>
</extensions>
</trkpt>
<trkpt lat="32.587772369" lon="34.997459412">
  <ele>153.060608</ele>
  <time>2012-06-23T03:55:51Z</time>
<extensions>
<speed>1.7</speed>
<temp>0.00</temp>
<bpm>0</bpm>
<rpm>0.00</rpm>
</extensions>
</trkpt>
<trkpt lat="32.587768555" lon="34.997493744">
  <ele>153.123108</ele>
  <time>2012-06-23T03:55:53Z</time>
<extensions>
<speed>1.3</speed>
<temp>0.00</temp>
<bpm>0</bpm>
<rpm>0.00</rpm>
</extensions>
</trkpt>
<trkpt lat="32.587757111" lon="34.997535706">
  <ele>153.502014</ele>
  <time>2012-06-23T03:55:56Z</time>
<extensions>
<speed>1.8</speed>
<temp>0.00</temp>
<bpm>0</bpm>
<rpm>0.00</rpm>
</extensions>
</trkpt>
<trkpt lat="32.587757111" lon="34.997570038">
  <ele>154.072327</ele>
  <time>2012-06-23T03:55:58Z</time>
<extensions>
<speed>1.2</speed>
<temp>0.00</temp>
<bpm>0</bpm>
<rpm>0.00</rpm>
</extensions>
</trkpt>
<trkpt lat="32.587741852" lon="34.997600555">
  <ele>154.119202</ele>
  <time>2012-06-23T03:56:01Z</time>
<extensions>
<speed>1.4</speed>
<temp>0.00</temp>
<bpm>0</bpm>
<rpm>0.00</rpm>
</extensions>
</trkpt>
<trkpt lat="32.587707520" lon="34.997608185">
  <ele>152.775452</ele>
  <time>2012-06-23T03:56:04Z</time>
<extensions>
<speed>1.6</speed>
<temp>0.00</temp>
<bpm>0</bpm>
<rpm>0.00</rpm>
</extensions>
</trkpt>
<trkpt lat="32.587684631" lon="34.997585297">
  <ele>152.533264</ele>
  <time>2012-06-23T03:56:06Z</time>
<extensions>
<speed>1.4</speed>
<temp>0.00</temp>
<bpm>0</bpm>
<rpm>0.00</rpm>
</extensions>
</trkpt>
<trkpt lat="32.587650299" lon="34.997592926">
  <ele>154.279358</ele>
  <time>2012-06-23T03:56:09Z</time>
<extensions>
<speed>0.2</speed>
<temp>0.00</temp>
<bpm>0</bpm>
<rpm>0.00</rpm>
</extensions>
</trkpt>
<trkpt lat="32.587677002" lon="34.997604370">
  <ele>155.263733</ele>
  <time>2012-06-23T03:56:44Z</time>
<extensions>
<speed>0.0</speed>
<temp>0.00</temp>
<bpm>0</bpm>
<rpm>0.00</rpm>
</extensions>
</trkpt>
<trkpt lat="32.587711334" lon="34.997600555">
  <ele>155.834045</ele>
  <time>2012-06-23T04:00:38Z</time>
<extensions>
<speed>2.6</speed>
<temp>0.00</temp>
<bpm>0</bpm>
<rpm>0.00</rpm>
</extensions>
</trkpt>
<trkpt lat="32.587760925" lon="34.997596741">
  <ele>155.611389</ele>
  <time>2012-06-23T04:00:40Z</time>
<extensions>
<speed>2.3</speed>
<temp>0.00</temp>
<bpm>0</bpm>
<rpm>0.00</rpm>
</extensions>
</trkpt>
<trkpt lat="32.587787628" lon="34.997627258">
  <ele>155.505920</ele>
  <time>2012-06-23T04:00:42Z</time>
<extensions>
<speed>2.5</speed>
<temp>0.00</temp>
<bpm>0</bpm>
<rpm>0.00</rpm>
</extensions>
</trkpt>
<trkpt lat="32.587799072" lon="34.997657776">
  <ele>155.224670</ele>
  <time>2012-06-23T04:00:43Z</time>
<extensions>
<speed>2.9</speed>
<temp>0.00</temp>
<bpm>0</bpm>
<rpm>0.00</rpm>
</extensions>
</trkpt>
<trkpt lat="32.587818146" lon="34.997688293">
  <ele>154.970764</ele>
  <time>2012-06-23T04:00:44Z</time>
<extensions>
<speed>3.6</speed>
<temp>0.00</temp>
<bpm>0</bpm>
<rpm>0.00</rpm>
</extensions>
</trkpt>
<trkpt lat="32.587825775" lon="34.997726440">
  <ele>155.166077</ele>
  <time>2012-06-23T04:00:45Z</time>
<extensions>
<speed>3.7</speed>
<temp>0.00</temp>
<bpm>0</bpm>
<rpm>0.00</rpm>
</extensions>
</trkpt>
<trkpt lat="32.587833405" lon="34.997772217">
  <ele>155.845764</ele>
  <time>2012-06-23T04:00:46Z</time>
<extensions>
<speed>4.0</speed>
<temp>0.00</temp>
<bpm>0</bpm>
<rpm>0.00</rpm>
</extensions>
</trkpt>
<trkpt lat="32.587844849" lon="34.997817993">
  <ele>155.533264</ele>
  <time>2012-06-23T04:00:47Z</time>
<extensions>
<speed>4.3</speed>
<temp>0.00</temp>
<bpm>0</bpm>
<rpm>0.00</rpm>
</extensions>
</trkpt>
<trkpt lat="32.587852478" lon="34.997863770">
  <ele>155.685608</ele>
  <time>2012-06-23T04:00:48Z</time>
<extensions>
<speed>3.9</speed>
<temp>0.00</temp>
<bpm>0</bpm>
<rpm>0.00</rpm>
</extensions>
</trkpt>
<trkpt lat="32.587856293" lon="34.997905731">
  <ele>155.775452</ele>
  <time>2012-06-23T04:00:49Z</time>
<extensions>
<speed>4.2</speed>
<temp>0.00</temp>
<bpm>0</bpm>
<rpm>0.00</rpm>
</extensions>
</trkpt>
<trkpt lat="32.587871552" lon="34.997951508">
  <ele>155.513733</ele>
  <time>2012-06-23T04:00:50Z</time>
<extensions>
<speed>4.3</speed>
<temp>0.00</temp>
<bpm>0</bpm>
<rpm>0.00</rpm>
</extensions>
</trkpt>
<trkpt lat="32.587898254" lon="34.997993469">
  <ele>155.216858</ele>
  <time>2012-06-23T04:00:51Z</time>
<extensions>
<speed>4.9</speed>
<temp>0.00</temp>
<bpm>0</bpm>
<rpm>0.00</rpm>
</extensions>
</trkpt>
<trkpt lat="32.587928772" lon="34.998031616">
  <ele>154.841858</ele>
  <time>2012-06-23T04:00:52Z</time>
<extensions>
<speed>4.4</speed>
<temp>0.00</temp>
<bpm>0</bpm>
<rpm>0.00</rpm>
</extensions>
</trkpt>
<trkpt lat="32.587951660" lon="34.998062134">
  <ele>154.220764</ele>
  <time>2012-06-23T04:00:53Z</time>
<extensions>
<speed>3.5</speed>
<temp>0.00</temp>
<bpm>0</bpm>
<rpm>0.00</rpm>
</extensions>
</trkpt>
<trkpt lat="32.587970734" lon="34.998088837">
  <ele>153.888733</ele>
  <time>2012-06-23T04:00:54Z</time>
<extensions>
<speed>3.3</speed>
<temp>0.00</temp>
<bpm>0</bpm>
<rpm>0.00</rpm>
</extensions>
</trkpt>
<trkpt lat="32.587997437" lon="34.998123169">
  <ele>153.693420</ele>
  <time>2012-06-23T04:00:55Z</time>
<extensions>
<speed>3.9</speed>
<temp>0.00</temp>
<bpm>0</bpm>
<rpm>0.00</rpm>
</extensions>
</trkpt>
<trkpt lat="32.588027954" lon="34.998153687">
  <ele>153.904358</ele>
  <time>2012-06-23T04:00:56Z</time>
<extensions>
<speed>4.4</speed>
<temp>0.00</temp>
<bpm>0</bpm>
<rpm>0.00</rpm>
</extensions>
</trkpt>
<trkpt lat="32.588054657" lon="34.998195648">
  <ele>153.162170</ele>
  <time>2012-06-23T04:00:57Z</time>
<extensions>
<speed>5.5</speed>
<temp>0.00</temp>
<bpm>0</bpm>
<rpm>0.00</rpm>
</extensions>
</trkpt>
<trkpt lat="32.588088989" lon="34.998245239">
  <ele>152.619202</ele>
  <time>2012-06-23T04:00:58Z</time>
<extensions>
<speed>5.5</speed>
<temp>0.00</temp>
<bpm>0</bpm>
<rpm>0.00</rpm>
</extensions>
</trkpt>
<trkpt lat="32.588119507" lon="34.998287201">
  <ele>151.834045</ele>
  <time>2012-06-23T04:00:59Z</time>
<extensions>
<speed>5.2</speed>
<temp>0.00</temp>
<bpm>0</bpm>
<rpm>0.00</rpm>
</extensions>
</trkpt>
<trkpt lat="32.588153839" lon="34.998332977">
  <ele>151.056702</ele>
  <time>2012-06-23T04:01:00Z</time>
<extensions>
<speed>5.2</speed>
<temp>0.00</temp>
<bpm>0</bpm>
<rpm>0.00</rpm>
</extensions>
</trkpt>
<trkpt lat="32.588184357" lon="34.998371124">
  <ele>150.498108</ele>
  <time>2012-06-23T04:01:01Z</time>
<extensions>
<speed>4.8</speed>
<temp>0.00</temp>
<bpm>0</bpm>
<rpm>0.00</rpm>
</extensions>
</trkpt>
<trkpt lat="32.588214874" lon="34.998413086">
  <ele>150.005920</ele>
  <time>2012-06-23T04:01:02Z</time>
<extensions>
<speed>4.8</speed>
<temp>0.00</temp>
<bpm>0</bpm>
<rpm>0.00</rpm>
</extensions>
</trkpt>
<trkpt lat="32.588237762" lon="34.998443604">
  <ele>149.744202</ele>
  <time>2012-06-23T04:01:03Z</time>
<extensions>
<speed>3.3</speed>
<temp>0.00</temp>
<bpm>0</bpm>
<rpm>0.00</rpm>
</extensions>
</trkpt>
<trkpt lat="32.588268280" lon="34.998466492">
  <ele>149.267639</ele>
  <time>2012-06-23T04:01:04Z</time>
<extensions>
<speed>3.2</speed>
<temp>0.00</temp>
<bpm>0</bpm>
<rpm>0.00</rpm>
</extensions>
</trkpt>
<trkpt lat="32.588310242" lon="34.998493195">
  <ele>148.802795</ele>
  <time>2012-06-23T04:01:05Z</time>
<extensions>
<speed>3.9</speed>
<temp>0.00</temp>
<bpm>0</bpm>
<rpm>0.00</rpm>
</extensions>
</trkpt>
<trkpt lat="32.588348389" lon="34.998527527">
  <ele>148.736389</ele>
  <time>2012-06-23T04:01:06Z</time>
<extensions>
<speed>4.4</speed>
<temp>0.00</temp>
<bpm>0</bpm>
<rpm>0.00</rpm>
</extensions>
</trkpt>
<trkpt lat="32.588390350" lon="34.998554230">
  <ele>148.068420</ele>
  <time>2012-06-23T04:01:07Z</time>
<extensions>
<speed>4.8</speed>
<temp>0.00</temp>
<bpm>0</bpm>
<rpm>0.00</rpm>
</extensions>
</trkpt>
<trkpt lat="32.588447571" lon="34.998588562">
  <ele>147.650452</ele>
  <time>2012-06-23T04:01:08Z</time>
<extensions>
<speed>5.5</speed>
<temp>0.00</temp>
<bpm>0</bpm>
<rpm>0.00</rpm>
</extensions>
</trkpt>
<trkpt lat="32.588493347" lon="34.998615265">
  <ele>147.591858</ele>
  <time>2012-06-23T04:01:09Z</time>
<extensions>
<speed>4.8</speed>
<temp>0.00</temp>
<bpm>0</bpm>
<rpm>0.00</rpm>
</extensions>
</trkpt>
<trkpt lat="32.588542938" lon="34.998638153">
  <ele>147.095764</ele>
  <time>2012-06-23T04:01:10Z</time>
<extensions>
<speed>5.0</speed>
<temp>0.00</temp>
<bpm>0</bpm>
<rpm>0.00</rpm>
</extensions>
</trkpt>
<trkpt lat="32.588588715" lon="34.998661041">
  <ele>147.607483</ele>
  <time>2012-06-23T04:01:11Z</time>
<extensions>
<speed>5.7</speed>
<temp>0.00</temp>
<bpm>0</bpm>
<rpm>0.00</rpm>
</extensions>
</trkpt>
<trkpt lat="32.588645935" lon="34.998680115">
  <ele>147.228577</ele>
  <time>2012-06-23T04:01:12Z</time>
<extensions>
<speed>6.3</speed>
<temp>0.00</temp>
<bpm>0</bpm>
<rpm>0.00</rpm>
</extensions>
</trkpt>
<trkpt lat="32.588699341" lon="34.998703003">
  <ele>147.291077</ele>
  <time>2012-06-23T04:01:13Z</time>
<extensions>
<speed>6.0</speed>
<temp>0.00</temp>
<bpm>0</bpm>
<rpm>0.00</rpm>
</extensions>
</trkpt>
<trkpt lat="32.588760376" lon="34.998722076">
  <ele>146.685608</ele>
  <time>2012-06-23T04:01:14Z</time>
<extensions>
<speed>5.8</speed>
<temp>0.00</temp>
<bpm>0</bpm>
<rpm>0.00</rpm>
</extensions>
</trkpt>
<trkpt lat="32.588806152" lon="34.998737335">
  <ele>146.127014</ele>
  <time>2012-06-23T04:01:15Z</time>
<extensions>
<speed>5.0</speed>
<temp>0.00</temp>
<bpm>0</bpm>
<rpm>0.00</rpm>
</extensions>
</trkpt>
<trkpt lat="32.588848114" lon="34.998760223">
  <ele>146.103577</ele>
  <time>2012-06-23T04:01:16Z</time>
<extensions>
<speed>4.6</speed>
<temp>0.00</temp>
<bpm>0</bpm>
<rpm>0.00</rpm>
</extensions>
</trkpt>
<trkpt lat="32.588878632" lon="34.998779297">
  <ele>146.076233</ele>
  <time>2012-06-23T04:01:17Z</time>
<extensions>
<speed>3.3</speed>
<temp>0.00</temp>
<bpm>0</bpm>
<rpm>0.00</rpm>
</extensions>
</trkpt>
<trkpt lat="32.588912964" lon="34.998794556">
  <ele>146.466858</ele>
  <time>2012-06-23T04:01:18Z</time>
<extensions>
<speed>3.2</speed>
<temp>0.00</temp>
<bpm>0</bpm>
<rpm>0.00</rpm>
</extensions>
</trkpt>
<trkpt lat="32.588947296" lon="34.998802185">
  <ele>146.193420</ele>
  <time>2012-06-23T04:01:19Z</time>
<extensions>
<speed>2.9</speed>
<temp>0.00</temp>
<bpm>0</bpm>
<rpm>0.00</rpm>
</extensions>
</trkpt>
<trkpt lat="32.588977814" lon="34.998809814">
  <ele>146.974670</ele>
  <time>2012-06-23T04:01:20Z</time>
<extensions>
<speed>2.6</speed>
<temp>0.00</temp>
<bpm>0</bpm>
<rpm>0.00</rpm>
</extensions>
</trkpt>
<trkpt lat="32.589004517" lon="34.998821259">
  <ele>146.998108</ele>
  <time>2012-06-23T04:01:21Z</time>
<extensions>
<speed>3.2</speed>
<temp>0.00</temp>
<bpm>0</bpm>
<rpm>0.00</rpm>
</extensions>
</trkpt>
<trkpt lat="32.589031219" lon="34.998840332">
  <ele>146.177795</ele>
  <time>2012-06-23T04:01:22Z</time>
<extensions>
<speed>3.4</speed>
<temp>0.00</temp>
<bpm>0</bpm>
<rpm>0.00</rpm>
</extensions>
</trkpt>
<trkpt lat="32.589054108" lon="34.998867035">
  <ele>145.982483</ele>
  <time>2012-06-23T04:01:23Z</time>
<extensions>
<speed>3.6</speed>
<temp>0.00</temp>
<bpm>0</bpm>
<rpm>0.00</rpm>
</extensions>
</trkpt>
<trkpt lat="32.589080811" lon="34.998901367">
  <ele>145.978577</ele>
  <time>2012-06-23T04:01:24Z</time>
<extensions>
<speed>4.5</speed>
<temp>0.00</temp>
<bpm>0</bpm>
<rpm>0.00</rpm>
</extensions>
</trkpt>
<trkpt lat="32.589107513" lon="34.998931885">
  <ele>145.923889</ele>
  <time>2012-06-23T04:01:25Z</time>
<extensions>
<speed>4.7</speed>
<temp>0.00</temp>
<bpm>0</bpm>
<rpm>0.00</rpm>
</extensions>
</trkpt>
<trkpt lat="32.589138031" lon="34.998966217">
  <ele>146.400452</ele>
  <time>2012-06-23T04:01:26Z</time>
<extensions>
<speed>3.9</speed>
<temp>0.00</temp>
<bpm>0</bpm>
<rpm>0.00</rpm>
</extensions>
</trkpt>
<trkpt lat="32.589160919" lon="34.998996735">
  <ele>146.861389</ele>
  <time>2012-06-23T04:01:27Z</time>
<extensions>
<speed>3.4</speed>
<temp>0.00</temp>
<bpm>0</bpm>
<rpm>0.00</rpm>
</extensions>
</trkpt>
<trkpt lat="32.589179993" lon="34.999027252">
  <ele>146.209045</ele>
  <time>2012-06-23T04:01:28Z</time>
<extensions>
<speed>4.1</speed>
<temp>0.00</temp>
<bpm>0</bpm>
<rpm>0.00</rpm>
</extensions>
</trkpt>
<trkpt lat="32.589202881" lon="34.999061584">
  <ele>145.646545</ele>
  <time>2012-06-23T04:01:29Z</time>
<extensions>
<speed>4.3</speed>
<temp>0.00</temp>
<bpm>0</bpm>
<rpm>0.00</rpm>
</extensions>
</trkpt>
<trkpt lat="32.589225769" lon="34.999099731">
  <ele>146.068420</ele>
  <time>2012-06-23T04:01:30Z</time>
<extensions>
<speed>4.1</speed>
<temp>0.00</temp>
<bpm>0</bpm>
<rpm>0.00</rpm>
</extensions>
</trkpt>
<trkpt lat="32.589244843" lon="34.999134064">
  <ele>145.658264</ele>
  <time>2012-06-23T04:01:31Z</time>
<extensions>
<speed>4.3</speed>
<temp>0.00</temp>
<bpm>0</bpm>
<rpm>0.00</rpm>
</extensions>
</trkpt>
<trkpt lat="32.589267731" lon="34.999172211">
  <ele>144.919983</ele>
  <time>2012-06-23T04:01:32Z</time>
<extensions>
<speed>4.7</speed>
<temp>0.00</temp>
<bpm>0</bpm>
<rpm>0.00</rpm>
</extensions>
</trkpt>
<trkpt lat="32.589286804" lon="34.999217987">
  <ele>144.209045</ele>
  <time>2012-06-23T04:01:33Z</time>
<extensions>
<speed>5.0</speed>
<temp>0.00</temp>
<bpm>0</bpm>
<rpm>0.00</rpm>
</extensions>
</trkpt>
<trkpt lat="32.589302063" lon="34.999267578">
  <ele>143.357483</ele>
  <time>2012-06-23T04:01:34Z</time>
<extensions>
<speed>5.4</speed>
<temp>0.00</temp>
<bpm>0</bpm>
<rpm>0.00</rpm>
</extensions>
</trkpt>
<trkpt lat="32.589309692" lon="34.999324799">
  <ele>142.791077</ele>
  <time>2012-06-23T04:01:35Z</time>
<extensions>
<speed>5.4</speed>
<temp>0.00</temp>
<bpm>0</bpm>
<rpm>0.00</rpm>
</extensions>
</trkpt>
<trkpt lat="32.589328766" lon="34.999382019">
  <ele>141.572327</ele>
  <time>2012-06-23T04:01:36Z</time>
<extensions>
<speed>5.3</speed>
<temp>0.00</temp>
<bpm>0</bpm>
<rpm>0.00</rpm>
</extensions>
</trkpt>
<trkpt lat="32.589340210" lon="34.999427795">
  <ele>140.869202</ele>
  <time>2012-06-23T04:01:37Z</time>
<extensions>
<speed>4.7</speed>
<temp>0.00</temp>
<bpm>0</bpm>
<rpm>0.00</rpm>
</extensions>
</trkpt>
<trkpt lat="32.589344025" lon="34.999477386">
  <ele>139.529358</ele>
  <time>2012-06-23T04:01:38Z</time>
<extensions>
<speed>4.3</speed>
<temp>0.00</temp>
<bpm>0</bpm>
<rpm>0.00</rpm>
</extensions>
</trkpt>
<trkpt lat="32.589351654" lon="34.999519348">
  <ele>138.923889</ele>
  <time>2012-06-23T04:01:39Z</time>
<extensions>
<speed>3.2</speed>
<temp>0.00</temp>
<bpm>0</bpm>
<rpm>0.00</rpm>
</extensions>
</trkpt>
<trkpt lat="32.589328766" lon="34.999572754">
  <ele>137.337952</ele>
  <time>2012-06-23T04:01:41Z</time>
<extensions>
<speed>2.9</speed>
<temp>0.00</temp>
<bpm>0</bpm>
<rpm>0.00</rpm>
</extensions>
</trkpt>
<trkpt lat="32.589317322" lon="34.999603271">
  <ele>136.818420</ele>
  <time>2012-06-23T04:01:42Z</time>
<extensions>
<speed>3.0</speed>
<temp>0.00</temp>
<bpm>0</bpm>
<rpm>0.00</rpm>
</extensions>
</trkpt>
<trkpt lat="32.589302063" lon="34.999641418">
  <ele>135.841858</ele>
  <time>2012-06-23T04:01:43Z</time>
<extensions>
<speed>3.6</speed>
<temp>0.00</temp>
<bpm>0</bpm>
<rpm>0.00</rpm>
</extensions>
</trkpt>
<trkpt lat="32.589298248" lon="34.999679565">
  <ele>134.990295</ele>
  <time>2012-06-23T04:01:44Z</time>
<extensions>
<speed>3.7</speed>
<temp>0.00</temp>
<bpm>0</bpm>
<rpm>0.00</rpm>
</extensions>
</trkpt>
<trkpt lat="32.589290619" lon="34.999721527">
  <ele>134.416077</ele>
  <time>2012-06-23T04:01:45Z</time>
<extensions>
<speed>3.5</speed>
<temp>0.00</temp>
<bpm>0</bpm>
<rpm>0.00</rpm>
</extensions>
</trkpt>
<trkpt lat="32.589290619" lon="34.999767303">
  <ele>133.888733</ele>
  <time>2012-06-23T04:01:46Z</time>
<extensions>
<speed>4.1</speed>
<temp>0.00</temp>
<bpm>0</bpm>
<rpm>0.00</rpm>
</extensions>
</trkpt>
<trkpt lat="32.589298248" lon="34.999820709">
  <ele>133.130920</ele>
  <time>2012-06-23T04:01:47Z</time>
<extensions>
<speed>4.5</speed>
<temp>0.00</temp>
<bpm>0</bpm>
<rpm>0.00</rpm>
</extensions>
</trkpt>
<trkpt lat="32.589313507" lon="34.999866486">
  <ele>132.318420</ele>
  <time>2012-06-23T04:01:48Z</time>
<extensions>
<speed>4.7</speed>
<temp>0.00</temp>
<bpm>0</bpm>
<rpm>0.00</rpm>
</extensions>
</trkpt>
<trkpt lat="32.589324951" lon="34.999916077">
  <ele>131.693420</ele>
  <time>2012-06-23T04:01:49Z</time>
<extensions>
<speed>5.0</speed>
<temp>0.00</temp>
<bpm>0</bpm>
<rpm>0.00</rpm>
</extensions>
</trkpt>
<trkpt lat="32.589340210" lon="34.999969482">
  <ele>130.767639</ele>
  <time>2012-06-23T04:01:50Z</time>
<extensions>
<speed>4.8</speed>
<temp>0.00</temp>
<bpm>0</bpm>
<rpm>0.00</rpm>
</extensions>
</trkpt>
<trkpt lat="32.589347839" lon="35.000022888">
  <ele>129.744202</ele>
  <time>2012-06-23T04:01:51Z</time>
<extensions>
<speed>4.7</speed>
<temp>0.00</temp>
<bpm>0</bpm>
<rpm>0.00</rpm>
</extensions>
</trkpt>
<trkpt lat="32.589351654" lon="35.000076294">
  <ele>129.150452</ele>
  <time>2012-06-23T04:01:52Z</time>
<extensions>
<speed>4.4</speed>
<temp>0.00</temp>
<bpm>0</bpm>
<rpm>0.00</rpm>
</extensions>
</trkpt>
<trkpt lat="32.589370728" lon="35.000133514">
  <ele>128.009827</ele>
  <time>2012-06-23T04:01:53Z</time>
<extensions>
<speed>5.1</speed>
<temp>0.00</temp>
<bpm>0</bpm>
<rpm>0.00</rpm>
</extensions>
</trkpt>
<trkpt lat="32.589382172" lon="35.000186920">
  <ele>126.844757</ele>
  <time>2012-06-23T04:01:54Z</time>
<extensions>
<speed>4.5</speed>
<temp>0.00</temp>
<bpm>0</bpm>
<rpm>0.00</rpm>
</extensions>
</trkpt>
<trkpt lat="32.589393616" lon="35.000244141">
  <ele>125.983429</ele>
  <time>2012-06-23T04:01:55Z</time>
<extensions>
<speed>4.4</speed>
<temp>0.00</temp>
<bpm>0</bpm>
<rpm>0.00</rpm>
</extensions>
</trkpt>
<trkpt lat="32.589401245" lon="35.000293732">
  <ele>125.708038</ele>
  <time>2012-06-23T04:01:56Z</time>
<extensions>
<speed>4.2</speed>
<temp>0.00</temp>
<bpm>0</bpm>
<rpm>0.00</rpm>
</extensions>
</trkpt>
<trkpt lat="32.589405060" lon="35.000339508">
  <ele>125.352570</ele>
  <time>2012-06-23T04:01:57Z</time>
<extensions>
<speed>4.2</speed>
<temp>0.00</temp>
<bpm>0</bpm>
<rpm>0.00</rpm>
</extensions>
</trkpt>
<trkpt lat="32.589412689" lon="35.000385284">
  <ele>125.143585</ele>
  <time>2012-06-23T04:01:58Z</time>
<extensions>
<speed>2.9</speed>
<temp>0.00</temp>
<bpm>0</bpm>
<rpm>0.00</rpm>
</extensions>
</trkpt>
<trkpt lat="32.589416504" lon="35.000419617">
  <ele>124.762726</ele>
  <time>2012-06-23T04:01:59Z</time>
<extensions>
<speed>2.9</speed>
<temp>0.00</temp>
<bpm>0</bpm>
<rpm>0.00</rpm>
</extensions>
</trkpt>
<trkpt lat="32.589427948" lon="35.000453949">
  <ele>124.936554</ele>
  <time>2012-06-23T04:02:00Z</time>
<extensions>
<speed>2.2</speed>
<temp>0.00</temp>
<bpm>0</bpm>
<rpm>0.00</rpm>
</extensions>
</trkpt>
<trkpt lat="32.589443207" lon="35.000499725">
  <ele>124.209991</ele>
  <time>2012-06-23T04:02:02Z</time>
<extensions>
<speed>2.1</speed>
<temp>0.00</temp>
<bpm>0</bpm>
<rpm>0.00</rpm>
</extensions>
</trkpt>
<trkpt lat="32.589443207" lon="35.000549316">
  <ele>123.012726</ele>
  <time>2012-06-23T04:02:04Z</time>
<extensions>
<speed>2.9</speed>
<temp>0.00</temp>
<bpm>0</bpm>
<rpm>0.00</rpm>
</extensions>
</trkpt>
<trkpt lat="32.589443207" lon="35.000587463">
  <ele>122.678741</ele>
  <time>2012-06-23T04:02:05Z</time>
<extensions>
<speed>3.6</speed>
<temp>0.00</temp>
<bpm>0</bpm>
<rpm>0.00</rpm>
</extensions>
</trkpt>
<trkpt lat="32.589431763" lon="35.000637054">
  <ele>121.907257</ele>
  <time>2012-06-23T04:02:06Z</time>
<extensions>
<speed>4.5</speed>
<temp>0.00</temp>
<bpm>0</bpm>
<rpm>0.00</rpm>
</extensions>
</trkpt>
<trkpt lat="32.589424133" lon="35.000690460">
  <ele>121.172882</ele>
  <time>2012-06-23T04:02:07Z</time>
<extensions>
<speed>5.1</speed>
<temp>0.00</temp>
<bpm>0</bpm>
<rpm>0.00</rpm>
</extensions>
</trkpt>
<trkpt lat="32.589424133" lon="35.000755310">
  <ele>119.680695</ele>
  <time>2012-06-23T04:02:08Z</time>
<extensions>
<speed>5.6</speed>
<temp>0.00</temp>
<bpm>0</bpm>
<rpm>0.00</rpm>
</extensions>
</trkpt>
<trkpt lat="32.589420319" lon="35.000816345">
  <ele>119.198273</ele>
  <time>2012-06-23T04:02:09Z</time>
<extensions>
<speed>5.6</speed>
<temp>0.00</temp>
<bpm>0</bpm>
<rpm>0.00</rpm>
</extensions>
</trkpt>
<trkpt lat="32.589405060" lon="35.000885010">
  <ele>118.178741</ele>
  <time>2012-06-23T04:02:10Z</time>
<extensions>
<speed>6.0</speed>
<temp>0.00</temp>
<bpm>0</bpm>
<rpm>0.00</rpm>
</extensions>
</trkpt>
<trkpt lat="32.589397430" lon="35.000946045">
  <ele>116.624054</ele>
  <time>2012-06-23T04:02:11Z</time>
<extensions>
<speed>5.7</speed>
<temp>0.00</temp>
<bpm>0</bpm>
<rpm>0.00</rpm>
</extensions>
</trkpt>
<trkpt lat="32.589389801" lon="35.001007080">
  <ele>115.674835</ele>
  <time>2012-06-23T04:02:12Z</time>
<extensions>
<speed>4.8</speed>
<temp>0.00</temp>
<bpm>0</bpm>
<rpm>0.00</rpm>
</extensions>
</trkpt>
<trkpt lat="32.589385986" lon="35.001071930">
  <ele>116.690460</ele>
  <time>2012-06-23T04:02:13Z</time>
<extensions>
<speed>4.8</speed>
<temp>0.00</temp>
<bpm>0</bpm>
<rpm>0.00</rpm>
</extensions>
</trkpt>
<trkpt lat="32.589385986" lon="35.001129150">
  <ele>116.467804</ele>
  <time>2012-06-23T04:02:14Z</time>
<extensions>
<speed>4.9</speed>
<temp>0.00</temp>
<bpm>0</bpm>
<rpm>0.00</rpm>
</extensions>
</trkpt>
<trkpt lat="32.589378357" lon="35.001182556">
  <ele>116.774445</ele>
  <time>2012-06-23T04:02:15Z</time>
<extensions>
<speed>4.5</speed>
<temp>0.00</temp>
<bpm>0</bpm>
<rpm>0.00</rpm>
</extensions>
</trkpt>
<trkpt lat="32.589370728" lon="35.001235962">
  <ele>115.809601</ele>
  <time>2012-06-23T04:02:16Z</time>
<extensions>
<speed>4.3</speed>
<temp>0.00</temp>
<bpm>0</bpm>
<rpm>0.00</rpm>
</extensions>
</trkpt>
<trkpt lat="32.589363098" lon="35.001281738">
  <ele>115.508820</ele>
  <time>2012-06-23T04:02:17Z</time>
<extensions>
<speed>4.0</speed>
<temp>0.00</temp>
<bpm>0</bpm>
<rpm>0.00</rpm>
</extensions>
</trkpt>
<trkpt lat="32.589366913" lon="35.001319885">
  <ele>114.434601</ele>
  <time>2012-06-23T04:02:18Z</time>
<extensions>
<speed>3.1</speed>
<temp>0.00</temp>
<bpm>0</bpm>
<rpm>0.00</rpm>
</extensions>
</trkpt>
<trkpt lat="32.589363098" lon="35.001358032">
  <ele>115.487335</ele>
  <time>2012-06-23T04:02:19Z</time>
<extensions>
<speed>3.0</speed>
<temp>0.00</temp>
<bpm>0</bpm>
<rpm>0.00</rpm>
</extensions>
</trkpt>
<trkpt lat="32.589363098" lon="35.001403809">
  <ele>115.299835</ele>
  <time>2012-06-23T04:02:20Z</time>
<extensions>
<speed>3.8</speed>
<temp>0.00</temp>
<bpm>0</bpm>
<rpm>0.00</rpm>
</extensions>
</trkpt>
<trkpt lat="32.589389801" lon="35.001483917">
  <ele>117.704132</ele>
  <time>2012-06-23T04:02:21Z</time>
<extensions>
<speed>4.4</speed>
<temp>0.00</temp>
<bpm>0</bpm>
<rpm>0.00</rpm>
</extensions>
</trkpt>
<trkpt lat="32.589397430" lon="35.001525879">
  <ele>116.995148</ele>
  <time>2012-06-23T04:02:22Z</time>
<extensions>
<speed>4.4</speed>
<temp>0.00</temp>
<bpm>0</bpm>
<rpm>0.00</rpm>
</extensions>
</trkpt>
<trkpt lat="32.589393616" lon="35.001575470">
  <ele>117.266632</ele>
  <time>2012-06-23T04:02:23Z</time>
<extensions>
<speed>4.0</speed>
<temp>0.00</temp>
<bpm>0</bpm>
<rpm>0.00</rpm>
</extensions>
</trkpt>
<trkpt lat="32.589393616" lon="35.001617432">
  <ele>116.782257</ele>
  <time>2012-06-23T04:02:24Z</time>
<extensions>
<speed>4.2</speed>
<temp>0.00</temp>
<bpm>0</bpm>
<rpm>0.00</rpm>
</extensions>
</trkpt>
<trkpt lat="32.589393616" lon="35.001659393">
  <ele>116.377960</ele>
  <time>2012-06-23T04:02:25Z</time>
<extensions>
<speed>4.1</speed>
<temp>0.00</temp>
<bpm>0</bpm>
<rpm>0.00</rpm>
</extensions>
</trkpt>
<trkpt lat="32.589389801" lon="35.001697540">
  <ele>115.030304</ele>
  <time>2012-06-23T04:02:26Z</time>
<extensions>
<speed>3.8</speed>
<temp>0.00</temp>
<bpm>0</bpm>
<rpm>0.00</rpm>
</extensions>
</trkpt>
<trkpt lat="32.589385986" lon="35.001731873">
  <ele>113.499054</ele>
  <time>2012-06-23T04:02:27Z</time>
<extensions>
<speed>3.2</speed>
<temp>0.00</temp>
<bpm>0</bpm>
<rpm>0.00</rpm>
</extensions>
</trkpt>
<trkpt lat="32.589385986" lon="35.001766205">
  <ele>113.032257</ele>
  <time>2012-06-23T04:02:28Z</time>
<extensions>
<speed>3.1</speed>
<temp>0.00</temp>
<bpm>0</bpm>
<rpm>0.00</rpm>
</extensions>
</trkpt>
<trkpt lat="32.589389801" lon="35.001823425">
  <ele>113.627960</ele>
  <time>2012-06-23T04:02:30Z</time>
<extensions>
<speed>2.0</speed>
<temp>0.00</temp>
<bpm>0</bpm>
<rpm>0.00</rpm>
</extensions>
</trkpt>
<trkpt lat="32.589401245" lon="35.001903534">
  <ele>113.907257</ele>
  <time>2012-06-23T04:02:32Z</time>
<extensions>
<speed>3.3</speed>
<temp>0.00</temp>
<bpm>0</bpm>
<rpm>0.00</rpm>
</extensions>
</trkpt>
<trkpt lat="32.589405060" lon="35.001945496">
  <ele>114.042023</ele>
  <time>2012-06-23T04:02:33Z</time>
<extensions>
<speed>4.1</speed>
<temp>0.00</temp>
<bpm>0</bpm>
<rpm>0.00</rpm>
</extensions>
</trkpt>
<trkpt lat="32.589412689" lon="35.001995087">
  <ele>113.278351</ele>
  <time>2012-06-23T04:02:34Z</time>
<extensions>
<speed>5.0</speed>
<temp>0.00</temp>
<bpm>0</bpm>
<rpm>0.00</rpm>
</extensions>
</trkpt>
<trkpt lat="32.589412689" lon="35.002052307">
  <ele>112.334991</ele>
  <time>2012-06-23T04:02:35Z</time>
<extensions>
<speed>5.1</speed>
<temp>0.00</temp>
<bpm>0</bpm>
<rpm>0.00</rpm>
</extensions>
</trkpt>
<trkpt lat="32.589412689" lon="35.002113342">
  <ele>111.448273</ele>
  <time>2012-06-23T04:02:36Z</time>
<extensions>
<speed>5.5</speed>
<temp>0.00</temp>
<bpm>0</bpm>
<rpm>0.00</rpm>
</extensions>
</trkpt>
<trkpt lat="32.589397430" lon="35.002166748">
  <ele>110.721710</ele>
  <time>2012-06-23T04:02:37Z</time>
<extensions>
<speed>5.3</speed>
<temp>0.00</temp>
<bpm>0</bpm>
<rpm>0.00</rpm>
</extensions>
</trkpt>
<trkpt lat="32.589389801" lon="35.002223969">
  <ele>110.297882</ele>
  <time>2012-06-23T04:02:38Z</time>
<extensions>
<speed>5.5</speed>
<temp>0.00</temp>
<bpm>0</bpm>
<rpm>0.00</rpm>
</extensions>
</trkpt>
<trkpt lat="32.589370728" lon="35.002281189">
  <ele>109.182648</ele>
  <time>2012-06-23T04:02:39Z</time>
<extensions>
<speed>6.0</speed>
<temp>0.00</temp>
<bpm>0</bpm>
<rpm>0.00</rpm>
</extensions>
</trkpt>
<trkpt lat="32.589355469" lon="35.002346039">
  <ele>108.647491</ele>
  <time>2012-06-23T04:02:40Z</time>
<extensions>
<speed>5.4</speed>
<temp>0.00</temp>
<bpm>0</bpm>
<rpm>0.00</rpm>
</extensions>
</trkpt>
<trkpt lat="32.589347839" lon="35.002403259">
  <ele>107.856476</ele>
  <time>2012-06-23T04:02:41Z</time>
<extensions>
<speed>5.5</speed>
<temp>0.00</temp>
<bpm>0</bpm>
<rpm>0.00</rpm>
</extensions>
</trkpt>
<trkpt lat="32.589332581" lon="35.002464294">
  <ele>107.442413</ele>
  <time>2012-06-23T04:02:42Z</time>
<extensions>
<speed>5.8</speed>
<temp>0.00</temp>
<bpm>0</bpm>
<rpm>0.00</rpm>
</extensions>
</trkpt>
<trkpt lat="32.589305878" lon="35.002521515">
  <ele>106.694366</ele>
  <time>2012-06-23T04:02:43Z</time>
<extensions>
<speed>5.7</speed>
<temp>0.00</temp>
<bpm>0</bpm>
<rpm>0.00</rpm>
</extensions>
</trkpt>
<trkpt lat="32.589282990" lon="35.002578735">
  <ele>106.206085</ele>
  <time>2012-06-23T04:02:44Z</time>
<extensions>
<speed>5.9</speed>
<temp>0.00</temp>
<bpm>0</bpm>
<rpm>0.00</rpm>
</extensions>
</trkpt>
<trkpt lat="32.589260101" lon="35.002643585">
  <ele>105.807648</ele>
  <time>2012-06-23T04:02:45Z</time>
<extensions>
<speed>6.3</speed>
<temp>0.00</temp>
<bpm>0</bpm>
<rpm>0.00</rpm>
</extensions>
</trkpt>
<trkpt lat="32.589229584" lon="35.002704620">
  <ele>105.190460</ele>
  <time>2012-06-23T04:02:46Z</time>
<extensions>
<speed>6.2</speed>
<temp>0.00</temp>
<bpm>0</bpm>
<rpm>0.00</rpm>
</extensions>
</trkpt>
<trkpt lat="32.589206696" lon="35.002758026">
  <ele>104.592804</ele>
  <time>2012-06-23T04:02:47Z</time>
<extensions>
<speed>5.4</speed>
<temp>0.00</temp>
<bpm>0</bpm>
<rpm>0.00</rpm>
</extensions>
</trkpt>
<trkpt lat="32.589210510" lon="35.002819061">
  <ele>104.264679</ele>
  <time>2012-06-23T04:02:48Z</time>
<extensions>
<speed>5.0</speed>
<temp>0.00</temp>
<bpm>0</bpm>
<rpm>0.00</rpm>
</extensions>
</trkpt>
<trkpt lat="32.589221954" lon="35.002876282">
  <ele>103.877960</ele>
  <time>2012-06-23T04:02:49Z</time>
<extensions>
<speed>4.4</speed>
<temp>0.00</temp>
<bpm>0</bpm>
<rpm>0.00</rpm>
</extensions>
</trkpt>
<trkpt lat="32.589241028" lon="35.002933502">
  <ele>103.092804</ele>
  <time>2012-06-23T04:02:50Z</time>
<extensions>
<speed>3.7</speed>
<temp>0.00</temp>
<bpm>0</bpm>
<rpm>0.00</rpm>
</extensions>
</trkpt>
<trkpt lat="32.589256287" lon="35.002994537">
  <ele>103.352570</ele>
  <time>2012-06-23T04:02:51Z</time>
<extensions>
<speed>3.7</speed>
<temp>0.00</temp>
<bpm>0</bpm>
<rpm>0.00</rpm>
</extensions>
</trkpt>
<trkpt lat="32.589290619" lon="35.003063202">
  <ele>103.788116</ele>
  <time>2012-06-23T04:02:52Z</time>
<extensions>
<speed>3.9</speed>
<temp>0.00</temp>
<bpm>0</bpm>
<rpm>0.00</rpm>
</extensions>
</trkpt>
<trkpt lat="32.589313507" lon="35.003105164">
  <ele>103.463898</ele>
  <time>2012-06-23T04:02:53Z</time>
<extensions>
<speed>4.0</speed>
<temp>0.00</temp>
<bpm>0</bpm>
<rpm>0.00</rpm>
</extensions>
</trkpt>
<trkpt lat="32.589344025" lon="35.003150940">
  <ele>102.831085</ele>
  <time>2012-06-23T04:02:54Z</time>
<extensions>
<speed>4.7</speed>
<temp>0.00</temp>
<bpm>0</bpm>
<rpm>0.00</rpm>
</extensions>
</trkpt>
<trkpt lat="32.589393616" lon="35.003200531">
  <ele>102.182648</ele>
  <time>2012-06-23T04:02:55Z</time>
<extensions>
<speed>5.2</speed>
<temp>0.00</temp>
<bpm>0</bpm>
<rpm>0.00</rpm>
</extensions>
</trkpt>
<trkpt lat="32.589427948" lon="35.003250122">
  <ele>101.627960</ele>
  <time>2012-06-23T04:02:56Z</time>
<extensions>
<speed>5.4</speed>
<temp>0.00</temp>
<bpm>0</bpm>
<rpm>0.00</rpm>
</extensions>
</trkpt>
<trkpt lat="32.589458466" lon="35.003303528">
  <ele>101.038116</ele>
  <time>2012-06-23T04:02:57Z</time>
<extensions>
<speed>5.5</speed>
<temp>0.00</temp>
<bpm>0</bpm>
<rpm>0.00</rpm>
</extensions>
</trkpt>
<trkpt lat="32.589492798" lon="35.003353119">
  <ele>100.551788</ele>
  <time>2012-06-23T04:02:58Z</time>
<extensions>
<speed>5.6</speed>
<temp>0.00</temp>
<bpm>0</bpm>
<rpm>0.00</rpm>
</extensions>
</trkpt>
<trkpt lat="32.589527130" lon="35.003410339">
  <ele>99.762726</ele>
  <time>2012-06-23T04:02:59Z</time>
<extensions>
<speed>6.1</speed>
<temp>0.00</temp>
<bpm>0</bpm>
<rpm>0.00</rpm>
</extensions>
</trkpt>
<trkpt lat="32.589553833" lon="35.003471375">
  <ele>98.831085</ele>
  <time>2012-06-23T04:03:00Z</time>
<extensions>
<speed>5.8</speed>
<temp>0.00</temp>
<bpm>0</bpm>
<rpm>0.00</rpm>
</extensions>
</trkpt>
<trkpt lat="32.589572906" lon="35.003528595">
  <ele>98.096710</ele>
  <time>2012-06-23T04:03:01Z</time>
<extensions>
<speed>5.4</speed>
<temp>0.00</temp>
<bpm>0</bpm>
<rpm>0.00</rpm>
</extensions>
</trkpt>
<trkpt lat="32.589595795" lon="35.003578186">
  <ele>97.372101</ele>
  <time>2012-06-23T04:03:02Z</time>
<extensions>
<speed>5.2</speed>
<temp>0.00</temp>
<bpm>0</bpm>
<rpm>0.00</rpm>
</extensions>
</trkpt>
<trkpt lat="32.589618683" lon="35.003635406">
  <ele>96.885773</ele>
  <time>2012-06-23T04:03:03Z</time>
<extensions>
<speed>5.3</speed>
<temp>0.00</temp>
<bpm>0</bpm>
<rpm>0.00</rpm>
</extensions>
</trkpt>
<trkpt lat="32.589649200" lon="35.003711700">
  <ele>97.567413</ele>
  <time>2012-06-23T04:03:04Z</time>
<extensions>
<speed>4.8</speed>
<temp>0.00</temp>
<bpm>0</bpm>
<rpm>0.00</rpm>
</extensions>
</trkpt>
<trkpt lat="32.589672089" lon="35.003757477">
  <ele>97.190460</ele>
  <time>2012-06-23T04:03:05Z</time>
<extensions>
<speed>4.4</speed>
<temp>0.00</temp>
<bpm>0</bpm>
<rpm>0.00</rpm>
</extensions>
</trkpt>
<trkpt lat="32.589694977" lon="35.003799438">
  <ele>96.641632</ele>
  <time>2012-06-23T04:03:06Z</time>
<extensions>
<speed>3.8</speed>
<temp>0.00</temp>
<bpm>0</bpm>
<rpm>0.00</rpm>
</extensions>
</trkpt>
<trkpt lat="32.589721680" lon="35.003841400">
  <ele>97.682648</ele>
  <time>2012-06-23T04:03:07Z</time>
<extensions>
<speed>2.6</speed>
<temp>0.00</temp>
<bpm>0</bpm>
<rpm>0.00</rpm>
</extensions>
</trkpt>
<trkpt lat="32.589744568" lon="35.003864288">
  <ele>97.407257</ele>
  <time>2012-06-23T04:03:08Z</time>
<extensions>
<speed>2.9</speed>
<temp>0.00</temp>
<bpm>0</bpm>
<rpm>0.00</rpm>
</extensions>
</trkpt>
<trkpt lat="32.589759827" lon="35.003898621">
  <ele>97.653351</ele>
  <time>2012-06-23T04:03:09Z</time>
<extensions>
<speed>3.0</speed>
<temp>0.00</temp>
<bpm>0</bpm>
<rpm>0.00</rpm>
</extensions>
</trkpt>
<trkpt lat="32.589782715" lon="35.003971100">
  <ele>98.393585</ele>
  <time>2012-06-23T04:03:11Z</time>
<extensions>
<speed>3.3</speed>
<temp>0.00</temp>
<bpm>0</bpm>
<rpm>0.00</rpm>
</extensions>
</trkpt>
<trkpt lat="32.589805603" lon="35.004016876">
  <ele>98.499054</ele>
  <time>2012-06-23T04:03:12Z</time>
<extensions>
<speed>4.1</speed>
<temp>0.00</temp>
<bpm>0</bpm>
<rpm>0.00</rpm>
</extensions>
</trkpt>
<trkpt lat="32.589832306" lon="35.004070282">
  <ele>98.682648</ele>
  <time>2012-06-23T04:03:13Z</time>
<extensions>
<speed>4.9</speed>
<temp>0.00</temp>
<bpm>0</bpm>
<rpm>0.00</rpm>
</extensions>
</trkpt>
<trkpt lat="32.589851379" lon="35.004123688">
  <ele>98.163116</ele>
  <time>2012-06-23T04:03:14Z</time>
<extensions>
<speed>4.9</speed>
<temp>0.00</temp>
<bpm>0</bpm>
<rpm>0.00</rpm>
</extensions>
</trkpt>
<trkpt lat="32.589866638" lon="35.004173279">
  <ele>97.807648</ele>
  <time>2012-06-23T04:03:15Z</time>
<extensions>
<speed>4.6</speed>
<temp>0.00</temp>
<bpm>0</bpm>
<rpm>0.00</rpm>
</extensions>
</trkpt>
<trkpt lat="32.589878082" lon="35.004222870">
  <ele>97.635773</ele>
  <time>2012-06-23T04:03:16Z</time>
<extensions>
<speed>4.1</speed>
<temp>0.00</temp>
<bpm>0</bpm>
<rpm>0.00</rpm>
</extensions>
</trkpt>
<trkpt lat="32.589889526" lon="35.004272461">
  <ele>97.268585</ele>
  <time>2012-06-23T04:03:17Z</time>
<extensions>
<speed>4.5</speed>
<temp>0.00</temp>
<bpm>0</bpm>
<rpm>0.00</rpm>
</extensions>
</trkpt>
<trkpt lat="32.589912415" lon="35.004333496">
  <ele>97.922882</ele>
  <time>2012-06-23T04:03:18Z</time>
<extensions>
<speed>5.1</speed>
<temp>0.00</temp>
<bpm>0</bpm>
<rpm>0.00</rpm>
</extensions>
</trkpt>
<trkpt lat="32.589916229" lon="35.004390717">
  <ele>97.184601</ele>
  <time>2012-06-23T04:03:19Z</time>
<extensions>
<speed>5.8</speed>
<temp>0.00</temp>
<bpm>0</bpm>
<rpm>0.00</rpm>
</extensions>
</trkpt>
<trkpt lat="32.589931488" lon="35.004451752">
  <ele>96.497101</ele>
  <time>2012-06-23T04:03:20Z</time>
<extensions>
<speed>6.2</speed>
<temp>0.00</temp>
<bpm>0</bpm>
<rpm>0.00</rpm>
</extensions>
</trkpt>
<trkpt lat="32.589950562" lon="35.004512787">
  <ele>95.870148</ele>
  <time>2012-06-23T04:03:21Z</time>
<extensions>
<speed>5.9</speed>
<temp>0.00</temp>
<bpm>0</bpm>
<rpm>0.00</rpm>
</extensions>
</trkpt>
<trkpt lat="32.589969635" lon="35.004573822">
  <ele>95.440460</ele>
  <time>2012-06-23T04:03:22Z</time>
<extensions>
<speed>6.3</speed>
<temp>0.00</temp>
<bpm>0</bpm>
<rpm>0.00</rpm>
</extensions>
</trkpt>
<trkpt lat="32.589988708" lon="35.004634857">
  <ele>95.188507</ele>
  <time>2012-06-23T04:03:23Z</time>
<extensions>
<speed>5.9</speed>
<temp>0.00</temp>
<bpm>0</bpm>
<rpm>0.00</rpm>
</extensions>
</trkpt>
<trkpt lat="32.589981079" lon="35.004692078">
  <ele>94.014679</ele>
  <time>2012-06-23T04:03:24Z</time>
<extensions>
<speed>5.0</speed>
<temp>0.00</temp>
<bpm>0</bpm>
<rpm>0.00</rpm>
</extensions>
</trkpt>
<trkpt lat="32.589981079" lon="35.004737854">
  <ele>93.485382</ele>
  <time>2012-06-23T04:03:25Z</time>
<extensions>
<speed>4.1</speed>
<temp>0.00</temp>
<bpm>0</bpm>
<rpm>0.00</rpm>
</extensions>
</trkpt>
<trkpt lat="32.589984894" lon="35.004779816">
  <ele>93.215851</ele>
  <time>2012-06-23T04:03:26Z</time>
<extensions>
<speed>3.6</speed>
<temp>0.00</temp>
<bpm>0</bpm>
<rpm>0.00</rpm>
</extensions>
</trkpt>
<trkpt lat="32.590000153" lon="35.004829407">
  <ele>93.311554</ele>
  <time>2012-06-23T04:03:27Z</time>
<extensions>
<speed>4.9</speed>
<temp>0.00</temp>
<bpm>0</bpm>
<rpm>0.00</rpm>
</extensions>
</trkpt>
<trkpt lat="32.590011597" lon="35.004878998">
  <ele>92.780304</ele>
  <time>2012-06-23T04:03:28Z</time>
<extensions>
<speed>4.7</speed>
<temp>0.00</temp>
<bpm>0</bpm>
<rpm>0.00</rpm>
</extensions>
</trkpt>
<trkpt lat="32.590019226" lon="35.004928589">
  <ele>92.393585</ele>
  <time>2012-06-23T04:03:29Z</time>
<extensions>
<speed>4.6</speed>
<temp>0.00</temp>
<bpm>0</bpm>
<rpm>0.00</rpm>
</extensions>
</trkpt>
<trkpt lat="32.590030670" lon="35.004974365">
  <ele>92.292023</ele>
  <time>2012-06-23T04:03:30Z</time>
<extensions>
<speed>3.8</speed>
<temp>0.00</temp>
<bpm>0</bpm>
<rpm>0.00</rpm>
</extensions>
</trkpt>
<trkpt lat="32.590038300" lon="35.005016327">
  <ele>91.641632</ele>
  <time>2012-06-23T04:03:31Z</time>
<extensions>
<speed>4.5</speed>
<temp>0.00</temp>
<bpm>0</bpm>
<rpm>0.00</rpm>
</extensions>
</trkpt>
<trkpt lat="32.590049744" lon="35.005062103">
  <ele>91.239288</ele>
  <time>2012-06-23T04:03:32Z</time>
<extensions>
<speed>4.5</speed>
<temp>0.00</temp>
<bpm>0</bpm>
<rpm>0.00</rpm>
</extensions>
</trkpt>
<trkpt lat="32.590061188" lon="35.005115509">
  <ele>90.782257</ele>
  <time>2012-06-23T04:03:33Z</time>
<extensions>
<speed>5.6</speed>
<temp>0.00</temp>
<bpm>0</bpm>
<rpm>0.00</rpm>
</extensions>
</trkpt>
<trkpt lat="32.590076447" lon="35.005176544">
  <ele>90.385773</ele>
  <time>2012-06-23T04:03:34Z</time>
<extensions>
<speed>6.0</speed>
<temp>0.00</temp>
<bpm>0</bpm>
<rpm>0.00</rpm>
</extensions>
</trkpt>
<trkpt lat="32.590084076" lon="35.005237579">
  <ele>89.889679</ele>
  <time>2012-06-23T04:03:35Z</time>
<extensions>
<speed>6.4</speed>
<temp>0.00</temp>
<bpm>0</bpm>
<rpm>0.00</rpm>
</extensions>
</trkpt>
<trkpt lat="32.590099335" lon="35.005306244">
  <ele>89.436554</ele>
  <time>2012-06-23T04:03:36Z</time>
<extensions>
<speed>6.4</speed>
<temp>0.00</temp>
<bpm>0</bpm>
<rpm>0.00</rpm>
</extensions>
</trkpt>
<trkpt lat="32.590106964" lon="35.005374908">
  <ele>88.958038</ele>
  <time>2012-06-23T04:03:37Z</time>
<extensions>
<speed>6.1</speed>
<temp>0.00</temp>
<bpm>0</bpm>
<rpm>0.00</rpm>
</extensions>
</trkpt>
<trkpt lat="32.590118408" lon="35.005439758">
  <ele>88.645538</ele>
  <time>2012-06-23T04:03:38Z</time>
<extensions>
<speed>6.2</speed>
<temp>0.00</temp>
<bpm>0</bpm>
<rpm>0.00</rpm>
</extensions>
</trkpt>
<trkpt lat="32.590133667" lon="35.005504608">
  <ele>87.954132</ele>
  <time>2012-06-23T04:03:39Z</time>
<extensions>
<speed>6.6</speed>
<temp>0.00</temp>
<bpm>0</bpm>
<rpm>0.00</rpm>
</extensions>
</trkpt>
<trkpt lat="32.590129852" lon="35.005573273">
  <ele>86.909210</ele>
  <time>2012-06-23T04:03:40Z</time>
<extensions>
<speed>6.1</speed>
<temp>0.00</temp>
<bpm>0</bpm>
<rpm>0.00</rpm>
</extensions>
</trkpt>
<trkpt lat="32.590129852" lon="35.005638123">
  <ele>86.430695</ele>
  <time>2012-06-23T04:03:41Z</time>
<extensions>
<speed>5.8</speed>
<temp>0.00</temp>
<bpm>0</bpm>
<rpm>0.00</rpm>
</extensions>
</trkpt>
<trkpt lat="32.590145111" lon="35.005695343">
  <ele>86.196320</ele>
  <time>2012-06-23T04:03:42Z</time>
<extensions>
<speed>5.3</speed>
<temp>0.00</temp>
<bpm>0</bpm>
<rpm>0.00</rpm>
</extensions>
</trkpt>
<trkpt lat="32.590148926" lon="35.005752563">
  <ele>85.506866</ele>
  <time>2012-06-23T04:03:43Z</time>
<extensions>
<speed>5.5</speed>
<temp>0.00</temp>
<bpm>0</bpm>
<rpm>0.00</rpm>
</extensions>
</trkpt>
<trkpt lat="32.590160370" lon="35.005813599">
  <ele>85.307648</ele>
  <time>2012-06-23T04:03:44Z</time>
<extensions>
<speed>6.1</speed>
<temp>0.00</temp>
<bpm>0</bpm>
<rpm>0.00</rpm>
</extensions>
</trkpt>
<trkpt lat="32.590167999" lon="35.005882263">
  <ele>84.842804</ele>
  <time>2012-06-23T04:03:45Z</time>
<extensions>
<speed>6.7</speed>
<temp>0.00</temp>
<bpm>0</bpm>
<rpm>0.00</rpm>
</extensions>
</trkpt>
<trkpt lat="32.590175629" lon="35.005954742">
  <ele>84.557648</ele>
  <time>2012-06-23T04:03:46Z</time>
<extensions>
<speed>6.4</speed>
<temp>0.00</temp>
<bpm>0</bpm>
<rpm>0.00</rpm>
</extensions>
</trkpt>
<trkpt lat="32.590190887" lon="35.006027222">
  <ele>84.790070</ele>
  <time>2012-06-23T04:03:47Z</time>
<extensions>
<speed>6.2</speed>
<temp>0.00</temp>
<bpm>0</bpm>
<rpm>0.00</rpm>
</extensions>
</trkpt>
<trkpt lat="32.590202332" lon="35.006099701">
  <ele>85.198273</ele>
  <time>2012-06-23T04:03:48Z</time>
<extensions>
<speed>5.7</speed>
<temp>0.00</temp>
<bpm>0</bpm>
<rpm>0.00</rpm>
</extensions>
</trkpt>
<trkpt lat="32.590209961" lon="35.006156921">
  <ele>84.807648</ele>
  <time>2012-06-23T04:03:49Z</time>
<extensions>
<speed>5.6</speed>
<temp>0.00</temp>
<bpm>0</bpm>
<rpm>0.00</rpm>
</extensions>
</trkpt>
<trkpt lat="32.590221405" lon="35.006210327">
  <ele>83.536163</ele>
  <time>2012-06-23T04:03:50Z</time>
<extensions>
<speed>5.5</speed>
<temp>0.00</temp>
<bpm>0</bpm>
<rpm>0.00</rpm>
</extensions>
</trkpt>
<trkpt lat="32.590225220" lon="35.006271362">
  <ele>82.532257</ele>
  <time>2012-06-23T04:03:51Z</time>
<extensions>
<speed>5.8</speed>
<temp>0.00</temp>
<bpm>0</bpm>
<rpm>0.00</rpm>
</extensions>
</trkpt>
<trkpt lat="32.590225220" lon="35.006332397">
  <ele>81.727570</ele>
  <time>2012-06-23T04:03:52Z</time>
<extensions>
<speed>5.4</speed>
<temp>0.00</temp>
<bpm>0</bpm>
<rpm>0.00</rpm>
</extensions>
</trkpt>
<trkpt lat="32.590229034" lon="35.006393433">
  <ele>81.524445</ele>
  <time>2012-06-23T04:03:53Z</time>
<extensions>
<speed>5.2</speed>
<temp>0.00</temp>
<bpm>0</bpm>
<rpm>0.00</rpm>
</extensions>
</trkpt>
<trkpt lat="32.590232849" lon="35.006454468">
  <ele>80.788116</ele>
  <time>2012-06-23T04:03:54Z</time>
<extensions>
<speed>6.1</speed>
<temp>0.00</temp>
<bpm>0</bpm>
<rpm>0.00</rpm>
</extensions>
</trkpt>
<trkpt lat="32.590229034" lon="35.006515503">
  <ele>79.356476</ele>
  <time>2012-06-23T04:03:55Z</time>
<extensions>
<speed>6.2</speed>
<temp>0.00</temp>
<bpm>0</bpm>
<rpm>0.00</rpm>
</extensions>
</trkpt>
<trkpt lat="32.590236664" lon="35.006584167">
  <ele>78.715851</ele>
  <time>2012-06-23T04:03:56Z</time>
<extensions>
<speed>6.2</speed>
<temp>0.00</temp>
<bpm>0</bpm>
<rpm>0.00</rpm>
</extensions>
</trkpt>
<trkpt lat="32.590232849" lon="35.006645203">
  <ele>77.790070</ele>
  <time>2012-06-23T04:03:57Z</time>
<extensions>
<speed>5.9</speed>
<temp>0.00</temp>
<bpm>0</bpm>
<rpm>0.00</rpm>
</extensions>
</trkpt>
<trkpt lat="32.590221405" lon="35.006702423">
  <ele>76.805695</ele>
  <time>2012-06-23T04:03:58Z</time>
<extensions>
<speed>4.9</speed>
<temp>0.00</temp>
<bpm>0</bpm>
<rpm>0.00</rpm>
</extensions>
</trkpt>
<trkpt lat="32.590209961" lon="35.006748199">
  <ele>75.333038</ele>
  <time>2012-06-23T04:03:59Z</time>
<extensions>
<speed>4.2</speed>
<temp>0.00</temp>
<bpm>0</bpm>
<rpm>0.00</rpm>
</extensions>
</trkpt>
<trkpt lat="32.590209961" lon="35.006790161">
  <ele>73.807648</ele>
  <time>2012-06-23T04:04:00Z</time>
<extensions>
<speed>3.3</speed>
<temp>0.00</temp>
<bpm>0</bpm>
<rpm>0.00</rpm>
</extensions>
</trkpt>
<trkpt lat="32.590225220" lon="35.006832123">
  <ele>74.034210</ele>
  <time>2012-06-23T04:04:01Z</time>
<extensions>
<speed>2.4</speed>
<temp>0.00</temp>
<bpm>0</bpm>
<rpm>0.00</rpm>
</extensions>
</trkpt>
<trkpt lat="32.590221405" lon="35.006904602">
  <ele>73.737335</ele>
  <time>2012-06-23T04:04:03Z</time>
<extensions>
<speed>2.8</speed>
<temp>0.00</temp>
<bpm>0</bpm>
<rpm>0.00</rpm>
</extensions>
</trkpt>
<trkpt lat="32.590236664" lon="35.006950378">
  <ele>74.651398</ele>
  <time>2012-06-23T04:04:04Z</time>
<extensions>
<speed>2.9</speed>
<temp>0.00</temp>
<bpm>0</bpm>
<rpm>0.00</rpm>
</extensions>
</trkpt>
<trkpt lat="32.590217590" lon="35.007007599">
  <ele>75.049835</ele>
  <time>2012-06-23T04:04:06Z</time>
<extensions>
<speed>2.0</speed>
<temp>0.00</temp>
<bpm>0</bpm>
<rpm>0.00</rpm>
</extensions>
</trkpt>
<trkpt lat="32.590198517" lon="35.007049561">
  <ele>74.221710</ele>
  <time>2012-06-23T04:04:08Z</time>
<extensions>
<speed>2.6</speed>
<temp>0.00</temp>
<bpm>0</bpm>
<rpm>0.00</rpm>
</extensions>
</trkpt>
<trkpt lat="32.590187073" lon="35.007087708">
  <ele>74.502960</ele>
  <time>2012-06-23T04:04:09Z</time>
<extensions>
<speed>3.5</speed>
<temp>0.00</temp>
<bpm>0</bpm>
<rpm>0.00</rpm>
</extensions>
</trkpt>
<trkpt lat="32.590175629" lon="35.007114410">
  <ele>74.586945</ele>
  <time>2012-06-23T04:04:10Z</time>
<extensions>
<speed>3.0</speed>
<temp>0.00</temp>
<bpm>0</bpm>
<rpm>0.00</rpm>
</extensions>
</trkpt>
<trkpt lat="32.590160370" lon="35.007152557">
  <ele>73.989288</ele>
  <time>2012-06-23T04:04:11Z</time>
<extensions>
<speed>3.6</speed>
<temp>0.00</temp>
<bpm>0</bpm>
<rpm>0.00</rpm>
</extensions>
</trkpt>
<trkpt lat="32.590152740" lon="35.007190704">
  <ele>73.411163</ele>
  <time>2012-06-23T04:04:12Z</time>
<extensions>
<speed>3.7</speed>
<temp>0.00</temp>
<bpm>0</bpm>
<rpm>0.00</rpm>
</extensions>
</trkpt>
<trkpt lat="32.590156555" lon="35.007228851">
  <ele>72.639679</ele>
  <time>2012-06-23T04:04:13Z</time>
<extensions>
<speed>3.5</speed>
<temp>0.00</temp>
<bpm>0</bpm>
<rpm>0.00</rpm>
</extensions>
</trkpt>
<trkpt lat="32.590156555" lon="35.007274628">
  <ele>71.518585</ele>
  <time>2012-06-23T04:04:14Z</time>
<extensions>
<speed>3.3</speed>
<temp>0.00</temp>
<bpm>0</bpm>
<rpm>0.00</rpm>
</extensions>
</trkpt>
<trkpt lat="32.590156555" lon="35.007308960">
  <ele>70.549835</ele>
  <time>2012-06-23T04:04:15Z</time>
<extensions>
<speed>2.9</speed>
<temp>0.00</temp>
<bpm>0</bpm>
<rpm>0.00</rpm>
</extensions>
</trkpt>
<trkpt lat="32.590152740" lon="35.007335663">
  <ele>69.475616</ele>
  <time>2012-06-23T04:04:16Z</time>
<extensions>
<speed>3.5</speed>
<temp>0.00</temp>
<bpm>0</bpm>
<rpm>0.00</rpm>
</extensions>
</trkpt>
<trkpt lat="32.590145111" lon="35.007377625">
  <ele>67.766632</ele>
  <time>2012-06-23T04:04:17Z</time>
<extensions>
<speed>3.7</speed>
<temp>0.00</temp>
<bpm>0</bpm>
<rpm>0.00</rpm>
</extensions>
</trkpt>
<trkpt lat="32.590133667" lon="35.007419586">
  <ele>66.987335</ele>
  <time>2012-06-23T04:04:18Z</time>
<extensions>
<speed>3.7</speed>
<temp>0.00</temp>
<bpm>0</bpm>
<rpm>0.00</rpm>
</extensions>
</trkpt>
<trkpt lat="32.590133667" lon="35.007457733">
  <ele>65.149445</ele>
  <time>2012-06-23T04:04:19Z</time>
<extensions>
<speed>3.5</speed>
<temp>0.00</temp>
<bpm>0</bpm>
<rpm>0.00</rpm>
</extensions>
</trkpt>
<trkpt lat="32.590133667" lon="35.007495880">
  <ele>63.743668</ele>
  <time>2012-06-23T04:04:20Z</time>
<extensions>
<speed>3.0</speed>
<temp>0.00</temp>
<bpm>0</bpm>
<rpm>0.00</rpm>
</extensions>
</trkpt>
<trkpt lat="32.590133667" lon="35.007534027">
  <ele>62.669449</ele>
  <time>2012-06-23T04:04:21Z</time>
<extensions>
<speed>3.1</speed>
<temp>0.00</temp>
<bpm>0</bpm>
<rpm>0.00</rpm>
</extensions>
</trkpt>
<trkpt lat="32.590129852" lon="35.007564545">
  <ele>60.932144</ele>
  <time>2012-06-23T04:04:22Z</time>
<extensions>
<speed>2.9</speed>
<temp>0.00</temp>
<bpm>0</bpm>
<rpm>0.00</rpm>
</extensions>
</trkpt>
<trkpt lat="32.590122223" lon="35.007595062">
  <ele>60.591324</ele>
  <time>2012-06-23T04:04:23Z</time>
<extensions>
<speed>3.2</speed>
<temp>0.00</temp>
<bpm>0</bpm>
<rpm>0.00</rpm>
</extensions>
</trkpt>
<trkpt lat="32.590106964" lon="35.007637024">
  <ele>62.224136</ele>
  <time>2012-06-23T04:04:24Z</time>
<extensions>
<speed>3.5</speed>
<temp>0.00</temp>
<bpm>0</bpm>
<rpm>0.00</rpm>
</extensions>
</trkpt>
<trkpt lat="32.590084076" lon="35.007667542">
  <ele>62.934097</ele>
  <time>2012-06-23T04:04:25Z</time>
<extensions>
<speed>3.0</speed>
<temp>0.00</temp>
<bpm>0</bpm>
<rpm>0.00</rpm>
</extensions>
</trkpt>
<trkpt lat="32.590068817" lon="35.007698059">
  <ele>63.130386</ele>
  <time>2012-06-23T04:04:26Z</time>
<extensions>
<speed>2.3</speed>
<temp>0.00</temp>
<bpm>0</bpm>
<rpm>0.00</rpm>
</extensions>
</trkpt>
<trkpt lat="32.590072632" lon="35.007728577">
  <ele>63.246597</ele>
  <time>2012-06-23T04:04:27Z</time>
<extensions>
<speed>2.6</speed>
<temp>0.00</temp>
<bpm>0</bpm>
<rpm>0.00</rpm>
</extensions>
</trkpt>
<trkpt lat="32.590072632" lon="35.007801056">
  <ele>62.380386</ele>
  <time>2012-06-23T04:04:29Z</time>
<extensions>
<speed>4.7</speed>
<temp>0.00</temp>
<bpm>0</bpm>
<rpm>0.00</rpm>
</extensions>
</trkpt>
<trkpt lat="32.590065002" lon="35.007865906">
  <ele>61.490738</ele>
  <time>2012-06-23T04:04:30Z</time>
<extensions>
<speed>6.3</speed>
<temp>0.00</temp>
<bpm>0</bpm>
<rpm>0.00</rpm>
</extensions>
</trkpt>
<trkpt lat="32.590053558" lon="35.007930756">
  <ele>60.654800</ele>
  <time>2012-06-23T04:04:31Z</time>
<extensions>
<speed>5.4</speed>
<temp>0.00</temp>
<bpm>0</bpm>
<rpm>0.00</rpm>
</extensions>
</trkpt>
<trkpt lat="32.590034485" lon="35.007976532">
  <ele>60.813004</ele>
  <time>2012-06-23T04:04:32Z</time>
<extensions>
<speed>3.7</speed>
<temp>0.00</temp>
<bpm>0</bpm>
<rpm>0.00</rpm>
</extensions>
</trkpt>
<trkpt lat="32.590003967" lon="35.007999420">
  <ele>61.525894</ele>
  <time>2012-06-23T04:04:33Z</time>
<extensions>
<speed>3.6</speed>
<temp>0.00</temp>
<bpm>0</bpm>
<rpm>0.00</rpm>
</extensions>
</trkpt>
<trkpt lat="32.589969635" lon="35.008026123">
  <ele>62.130386</ele>
  <time>2012-06-23T04:04:34Z</time>
<extensions>
<speed>2.3</speed>
<temp>0.00</temp>
<bpm>0</bpm>
<rpm>0.00</rpm>
</extensions>
</trkpt>
<trkpt lat="32.589954376" lon="35.008049011">
  <ele>64.372101</ele>
  <time>2012-06-23T04:04:35Z</time>
<extensions>
<speed>1.0</speed>
<temp>0.00</temp>
<bpm>0</bpm>
<rpm>0.00</rpm>
</extensions>
</trkpt>
<trkpt lat="32.589927673" lon="35.008075714">
  <ele>66.551788</ele>
  <time>2012-06-23T04:04:37Z</time>
<extensions>
<speed>0.3</speed>
<temp>0.00</temp>
<bpm>0</bpm>
<rpm>0.00</rpm>
</extensions>
</trkpt>
<trkpt lat="32.589897156" lon="35.008098602">
  <ele>66.551788</ele>
  <time>2012-06-23T04:05:48Z</time>
<extensions>
<speed>1.1</speed>
<temp>0.00</temp>
<bpm>0</bpm>
<rpm>0.00</rpm>
</extensions>
</trkpt>
<trkpt lat="32.589874268" lon="35.008132935">
  <ele>67.379913</ele>
  <time>2012-06-23T04:05:50Z</time>
<extensions>
<speed>1.6</speed>
<temp>0.00</temp>
<bpm>0</bpm>
<rpm>0.00</rpm>
</extensions>
</trkpt>
<trkpt lat="32.589847565" lon="35.008171082">
  <ele>68.249054</ele>
  <time>2012-06-23T04:05:52Z</time>
<extensions>
<speed>1.8</speed>
<temp>0.00</temp>
<bpm>0</bpm>
<rpm>0.00</rpm>
</extensions>
</trkpt>
<trkpt lat="32.589820862" lon="35.008209229">
  <ele>68.422882</ele>
  <time>2012-06-23T04:05:54Z</time>
<extensions>
<speed>2.3</speed>
<temp>0.00</temp>
<bpm>0</bpm>
<rpm>0.00</rpm>
</extensions>
</trkpt>
<trkpt lat="32.589797974" lon="35.008251190">
  <ele>68.588898</ele>
  <time>2012-06-23T04:05:56Z</time>
<extensions>
<speed>2.3</speed>
<temp>0.00</temp>
<bpm>0</bpm>
<rpm>0.00</rpm>
</extensions>
</trkpt>
<trkpt lat="32.589775085" lon="35.008296967">
  <ele>68.393585</ele>
  <time>2012-06-23T04:05:58Z</time>
<extensions>
<speed>2.0</speed>
<temp>0.00</temp>
<bpm>0</bpm>
<rpm>0.00</rpm>
</extensions>
</trkpt>
<trkpt lat="32.589756012" lon="35.008342743">
  <ele>68.633820</ele>
  <time>2012-06-23T04:06:00Z</time>
<extensions>
<speed>1.9</speed>
<temp>0.00</temp>
<bpm>0</bpm>
<rpm>0.00</rpm>
</extensions>
</trkpt>
<trkpt lat="32.589736938" lon="35.008380890">
  <ele>68.475616</ele>
  <time>2012-06-23T04:06:02Z</time>
<extensions>
<speed>1.8</speed>
<temp>0.00</temp>
<bpm>0</bpm>
<rpm>0.00</rpm>
</extensions>
</trkpt>
<trkpt lat="32.589714050" lon="35.008415222">
  <ele>68.667023</ele>
  <time>2012-06-23T04:06:04Z</time>
<extensions>
<speed>1.9</speed>
<temp>0.00</temp>
<bpm>0</bpm>
<rpm>0.00</rpm>
</extensions>
</trkpt>
<trkpt lat="32.589691162" lon="35.008449554">
  <ele>69.163116</ele>
  <time>2012-06-23T04:06:06Z</time>
<extensions>
<speed>1.7</speed>
<temp>0.00</temp>
<bpm>0</bpm>
<rpm>0.00</rpm>
</extensions>
</trkpt>
<trkpt lat="32.589683533" lon="35.008487701">
  <ele>69.461945</ele>
  <time>2012-06-23T04:06:08Z</time>
<extensions>
<speed>1.7</speed>
<temp>0.00</temp>
<bpm>0</bpm>
<rpm>0.00</rpm>
</extensions>
</trkpt>
<trkpt lat="32.589660645" lon="35.008522034">
  <ele>69.854523</ele>
  <time>2012-06-23T04:06:10Z</time>
<extensions>
<speed>1.7</speed>
<temp>0.00</temp>
<bpm>0</bpm>
<rpm>0.00</rpm>
</extensions>
</trkpt>
<trkpt lat="32.589645386" lon="35.008552551">
  <ele>69.819366</ele>
  <time>2012-06-23T04:06:12Z</time>
<extensions>
<speed>1.4</speed>
<temp>0.00</temp>
<bpm>0</bpm>
<rpm>0.00</rpm>
</extensions>
</trkpt>
<trkpt lat="32.589626312" lon="35.008590698">
  <ele>70.579132</ele>
  <time>2012-06-23T04:06:14Z</time>
<extensions>
<speed>1.8</speed>
<temp>0.00</temp>
<bpm>0</bpm>
<rpm>0.00</rpm>
</extensions>
</trkpt>
<trkpt lat="32.589603424" lon="35.008636475">
  <ele>71.020538</ele>
  <time>2012-06-23T04:06:16Z</time>
<extensions>
<speed>1.9</speed>
<temp>0.00</temp>
<bpm>0</bpm>
<rpm>0.00</rpm>
</extensions>
</trkpt>
<trkpt lat="32.589603424" lon="35.008674622">
  <ele>71.141632</ele>
  <time>2012-06-23T04:06:18Z</time>
<extensions>
<speed>2.0</speed>
<temp>0.00</temp>
<bpm>0</bpm>
<rpm>0.00</rpm>
</extensions>
</trkpt>
<trkpt lat="32.589591980" lon="35.008712769">
  <ele>71.709991</ele>
  <time>2012-06-23T04:06:20Z</time>
<extensions>
<speed>1.7</speed>
<temp>0.00</temp>
<bpm>0</bpm>
<rpm>0.00</rpm>
</extensions>
</trkpt>
<trkpt lat="32.589576721" lon="35.008754730">
  <ele>71.770538</ele>
  <time>2012-06-23T04:06:22Z</time>
<extensions>
<speed>1.8</speed>
<temp>0.00</temp>
<bpm>0</bpm>
<rpm>0.00</rpm>
</extensions>
</trkpt>
<trkpt lat="32.589565277" lon="35.008800507">
  <ele>72.221710</ele>
  <time>2012-06-23T04:06:24Z</time>
<extensions>
<speed>1.7</speed>
<temp>0.00</temp>
<bpm>0</bpm>
<rpm>0.00</rpm>
</extensions>
</trkpt>
<trkpt lat="32.589550018" lon="35.008838654">
  <ele>73.100616</ele>
  <time>2012-06-23T04:06:26Z</time>
<extensions>
<speed>2.0</speed>
<temp>0.00</temp>
<bpm>0</bpm>
<rpm>0.00</rpm>
</extensions>
</trkpt>
<trkpt lat="32.589534760" lon="35.008876801">
  <ele>72.784210</ele>
  <time>2012-06-23T04:06:29Z</time>
<extensions>
<speed>1.7</speed>
<temp>0.00</temp>
<bpm>0</bpm>
<rpm>0.00</rpm>
</extensions>
</trkpt>
<trkpt lat="32.589515686" lon="35.008907318">
  <ele>73.001007</ele>
  <time>2012-06-23T04:06:31Z</time>
<extensions>
<speed>1.7</speed>
<temp>0.00</temp>
<bpm>0</bpm>
<rpm>0.00</rpm>
</extensions>
</trkpt>
<trkpt lat="32.589511871" lon="35.008953094">
  <ele>72.879913</ele>
  <time>2012-06-23T04:06:34Z</time>
<extensions>
<speed>1.5</speed>
<temp>0.00</temp>
<bpm>0</bpm>
<rpm>0.00</rpm>
</extensions>
</trkpt>
<trkpt lat="32.589504242" lon="35.008991241">
  <ele>73.700226</ele>
  <time>2012-06-23T04:06:36Z</time>
<extensions>
<speed>1.5</speed>
<temp>0.00</temp>
<bpm>0</bpm>
<rpm>0.00</rpm>
</extensions>
</trkpt>
<trkpt lat="32.589496613" lon="35.009040833">
  <ele>74.340851</ele>
  <time>2012-06-23T04:06:38Z</time>
<extensions>
<speed>1.7</speed>
<temp>0.00</temp>
<bpm>0</bpm>
<rpm>0.00</rpm>
</extensions>
</trkpt>
<trkpt lat="32.589485168" lon="35.009075165">
  <ele>73.764679</ele>
  <time>2012-06-23T04:06:40Z</time>
<extensions>
<speed>1.6</speed>
<temp>0.00</temp>
<bpm>0</bpm>
<rpm>0.00</rpm>
</extensions>
</trkpt>
<trkpt lat="32.589473724" lon="35.009109497">
  <ele>74.274445</ele>
  <time>2012-06-23T04:06:42Z</time>
<extensions>
<speed>1.2</speed>
<temp>0.00</temp>
<bpm>0</bpm>
<rpm>0.00</rpm>
</extensions>
</trkpt>
<trkpt lat="32.589469910" lon="35.009159088">
  <ele>75.762726</ele>
  <time>2012-06-23T04:06:44Z</time>
<extensions>
<speed>1.4</speed>
<temp>0.00</temp>
<bpm>0</bpm>
<rpm>0.00</rpm>
</extensions>
</trkpt>
<trkpt lat="32.589458466" lon="35.009193420">
  <ele>76.428741</ele>
  <time>2012-06-23T04:06:46Z</time>
<extensions>
<speed>1.5</speed>
<temp>0.00</temp>
<bpm>0</bpm>
<rpm>0.00</rpm>
</extensions>
</trkpt>
<trkpt lat="32.589454651" lon="35.009231567">
  <ele>77.008820</ele>
  <time>2012-06-23T04:06:48Z</time>
<extensions>
<speed>1.4</speed>
<temp>0.00</temp>
<bpm>0</bpm>
<rpm>0.00</rpm>
</extensions>
</trkpt>
<trkpt lat="32.589458466" lon="35.009277344">
  <ele>77.713898</ele>
  <time>2012-06-23T04:06:50Z</time>
<extensions>
<speed>1.2</speed>
<temp>0.00</temp>
<bpm>0</bpm>
<rpm>0.00</rpm>
</extensions>
</trkpt>
<trkpt lat="32.589450836" lon="35.009319305">
  <ele>77.893585</ele>
  <time>2012-06-23T04:06:53Z</time>
<extensions>
<speed>1.6</speed>
<temp>0.00</temp>
<bpm>0</bpm>
<rpm>0.00</rpm>
</extensions>
</trkpt>
<trkpt lat="32.589447021" lon="35.009357452">
  <ele>78.573273</ele>
  <time>2012-06-23T04:06:55Z</time>
<extensions>
<speed>1.3</speed>
<temp>0.00</temp>
<bpm>0</bpm>
<rpm>0.00</rpm>
</extensions>
</trkpt>
<trkpt lat="32.589435577" lon="35.009391785">
  <ele>78.280304</ele>
  <time>2012-06-23T04:06:58Z</time>
<extensions>
<speed>1.2</speed>
<temp>0.00</temp>
<bpm>0</bpm>
<rpm>0.00</rpm>
</extensions>
</trkpt>
<trkpt lat="32.589431763" lon="35.009433746">
  <ele>79.145538</ele>
  <time>2012-06-23T04:07:01Z</time>
<extensions>
<speed>1.5</speed>
<temp>0.00</temp>
<bpm>0</bpm>
<rpm>0.00</rpm>
</extensions>
</trkpt>
<trkpt lat="32.589443207" lon="35.009471893">
  <ele>79.743195</ele>
  <time>2012-06-23T04:07:03Z</time>
<extensions>
<speed>1.6</speed>
<temp>0.00</temp>
<bpm>0</bpm>
<rpm>0.00</rpm>
</extensions>
</trkpt>
<trkpt lat="32.589435577" lon="35.009502411">
  <ele>81.270538</ele>
  <time>2012-06-23T04:07:04Z</time>
<extensions>
<speed>1.5</speed>
<temp>0.00</temp>
<bpm>0</bpm>
<rpm>0.00</rpm>
</extensions>
</trkpt>
<trkpt lat="32.589424133" lon="35.009536743">
  <ele>82.047882</ele>
  <time>2012-06-23T04:07:07Z</time>
<extensions>
<speed>1.3</speed>
<temp>0.00</temp>
<bpm>0</bpm>
<rpm>0.00</rpm>
</extensions>
</trkpt>
<trkpt lat="32.589416504" lon="35.009578705">
  <ele>82.571320</ele>
  <time>2012-06-23T04:07:10Z</time>
<extensions>
<speed>1.2</speed>
<temp>0.00</temp>
<bpm>0</bpm>
<rpm>0.00</rpm>
</extensions>
</trkpt>
<trkpt lat="32.589408875" lon="35.009620667">
  <ele>82.762726</ele>
  <time>2012-06-23T04:07:13Z</time>
<extensions>
<speed>1.5</speed>
<temp>0.00</temp>
<bpm>0</bpm>
<rpm>0.00</rpm>
</extensions>
</trkpt>
<trkpt lat="32.589412689" lon="35.009662628">
  <ele>83.702179</ele>
  <time>2012-06-23T04:07:16Z</time>
<extensions>
<speed>1.2</speed>
<temp>0.00</temp>
<bpm>0</bpm>
<rpm>0.00</rpm>
</extensions>
</trkpt>
<trkpt lat="32.589416504" lon="35.009708405">
  <ele>83.938507</ele>
  <time>2012-06-23T04:07:19Z</time>
<extensions>
<speed>1.3</speed>
<temp>0.00</temp>
<bpm>0</bpm>
<rpm>0.00</rpm>
</extensions>
</trkpt>
<trkpt lat="32.589427948" lon="35.009746552">
  <ele>84.032257</ele>
  <time>2012-06-23T04:07:21Z</time>
<extensions>
<speed>1.3</speed>
<temp>0.00</temp>
<bpm>0</bpm>
<rpm>0.00</rpm>
</extensions>
</trkpt>
<trkpt lat="32.589435577" lon="35.009784698">
  <ele>84.305695</ele>
  <time>2012-06-23T04:07:24Z</time>
<extensions>
<speed>1.3</speed>
<temp>0.00</temp>
<bpm>0</bpm>
<rpm>0.00</rpm>
</extensions>
</trkpt>
<trkpt lat="32.589420319" lon="35.009822845">
  <ele>84.532257</ele>
  <time>2012-06-23T04:07:27Z</time>
<extensions>
<speed>1.4</speed>
<temp>0.00</temp>
<bpm>0</bpm>
<rpm>0.00</rpm>
</extensions>
</trkpt>
<trkpt lat="32.589405060" lon="35.009860992">
  <ele>84.395538</ele>
  <time>2012-06-23T04:07:30Z</time>
<extensions>
<speed>1.0</speed>
<temp>0.00</temp>
<bpm>0</bpm>
<rpm>0.00</rpm>
</extensions>
</trkpt>
<trkpt lat="32.589401245" lon="35.009891510">
  <ele>84.893585</ele>
  <time>2012-06-23T04:07:33Z</time>
<extensions>
<speed>1.0</speed>
<temp>0.00</temp>
<bpm>0</bpm>
<rpm>0.00</rpm>
</extensions>
</trkpt>
<trkpt lat="32.589382172" lon="35.009937286">
  <ele>86.952179</ele>
  <time>2012-06-23T04:07:34Z</time>
<extensions>
<speed>1.3</speed>
<temp>0.00</temp>
<bpm>0</bpm>
<rpm>0.00</rpm>
</extensions>
</trkpt>
<trkpt lat="32.589370728" lon="35.009975433">
  <ele>87.292023</ele>
  <time>2012-06-23T04:07:36Z</time>
<extensions>
<speed>1.5</speed>
<temp>0.00</temp>
<bpm>0</bpm>
<rpm>0.00</rpm>
</extensions>
</trkpt>
<trkpt lat="32.589374542" lon="35.010013580">
  <ele>87.497101</ele>
  <time>2012-06-23T04:07:38Z</time>
<extensions>
<speed>1.3</speed>
<temp>0.00</temp>
<bpm>0</bpm>
<rpm>0.00</rpm>
</extensions>
</trkpt>
<trkpt lat="32.589374542" lon="35.010047913">
  <ele>87.618195</ele>
  <time>2012-06-23T04:07:40Z</time>
<extensions>
<speed>1.5</speed>
<temp>0.00</temp>
<bpm>0</bpm>
<rpm>0.00</rpm>
</extensions>
</trkpt>
<trkpt lat="32.589378357" lon="35.010078430">
  <ele>88.049835</ele>
  <time>2012-06-23T04:07:42Z</time>
<extensions>
<speed>1.4</speed>
<temp>0.00</temp>
<bpm>0</bpm>
<rpm>0.00</rpm>
</extensions>
</trkpt>
<trkpt lat="32.589359283" lon="35.010116577">
  <ele>88.106476</ele>
  <time>2012-06-23T04:07:46Z</time>
<extensions>
<speed>1.3</speed>
<temp>0.00</temp>
<bpm>0</bpm>
<rpm>0.00</rpm>
</extensions>
</trkpt>
<trkpt lat="32.589363098" lon="35.010154724">
  <ele>88.180695</ele>
  <time>2012-06-23T04:07:49Z</time>
<extensions>
<speed>1.3</speed>
<temp>0.00</temp>
<bpm>0</bpm>
<rpm>0.00</rpm>
</extensions>
</trkpt>
<trkpt lat="32.589363098" lon="35.010196686">
  <ele>87.971710</ele>
  <time>2012-06-23T04:07:52Z</time>
<extensions>
<speed>1.3</speed>
<temp>0.00</temp>
<bpm>0</bpm>
<rpm>0.00</rpm>
</extensions>
</trkpt>
<trkpt lat="32.589366913" lon="35.010231018">
  <ele>88.272491</ele>
  <time>2012-06-23T04:07:54Z</time>
<extensions>
<speed>1.4</speed>
<temp>0.00</temp>
<bpm>0</bpm>
<rpm>0.00</rpm>
</extensions>
</trkpt>
<trkpt lat="32.589378357" lon="35.010272980">
  <ele>88.709991</ele>
  <time>2012-06-23T04:07:56Z</time>
<extensions>
<speed>1.4</speed>
<temp>0.00</temp>
<bpm>0</bpm>
<rpm>0.00</rpm>
</extensions>
</trkpt>
<trkpt lat="32.589393616" lon="35.010299683">
  <ele>89.090851</ele>
  <time>2012-06-23T04:07:58Z</time>
<extensions>
<speed>1.2</speed>
<temp>0.00</temp>
<bpm>0</bpm>
<rpm>0.00</rpm>
</extensions>
</trkpt>
<trkpt lat="32.589397430" lon="35.010334015">
  <ele>88.967804</ele>
  <time>2012-06-23T04:08:00Z</time>
<extensions>
<speed>1.2</speed>
<temp>0.00</temp>
<bpm>0</bpm>
<rpm>0.00</rpm>
</extensions>
</trkpt>
<trkpt lat="32.589389801" lon="35.010364532">
  <ele>89.768585</ele>
  <time>2012-06-23T04:08:03Z</time>
<extensions>
<speed>1.1</speed>
<temp>0.00</temp>
<bpm>0</bpm>
<rpm>0.00</rpm>
</extensions>
</trkpt>
<trkpt lat="32.589366913" lon="35.010395050">
  <ele>90.065460</ele>
  <time>2012-06-23T04:08:06Z</time>
<extensions>
<speed>1.3</speed>
<temp>0.00</temp>
<bpm>0</bpm>
<rpm>0.00</rpm>
</extensions>
</trkpt>
<trkpt lat="32.589344025" lon="35.010429382">
  <ele>90.961945</ele>
  <time>2012-06-23T04:08:09Z</time>
<extensions>
<speed>1.8</speed>
<temp>0.00</temp>
<bpm>0</bpm>
<rpm>0.00</rpm>
</extensions>
</trkpt>
<trkpt lat="32.589332581" lon="35.010456085">
  <ele>91.727570</ele>
  <time>2012-06-23T04:08:12Z</time>
<extensions>
<speed>1.3</speed>
<temp>0.00</temp>
<bpm>0</bpm>
<rpm>0.00</rpm>
</extensions>
</trkpt>
<trkpt lat="32.589321136" lon="35.010498047">
  <ele>91.362335</ele>
  <time>2012-06-23T04:08:15Z</time>
<extensions>
<speed>1.1</speed>
<temp>0.00</temp>
<bpm>0</bpm>
<rpm>0.00</rpm>
</extensions>
</trkpt>
<trkpt lat="32.589309692" lon="35.010551453">
  <ele>93.782257</ele>
  <time>2012-06-23T04:08:18Z</time>
<extensions>
<speed>0.9</speed>
<temp>0.00</temp>
<bpm>0</bpm>
<rpm>0.00</rpm>
</extensions>
</trkpt>
<trkpt lat="32.589305878" lon="35.010589600">
  <ele>94.155304</ele>
  <time>2012-06-23T04:08:21Z</time>
<extensions>
<speed>1.3</speed>
<temp>0.00</temp>
<bpm>0</bpm>
<rpm>0.00</rpm>
</extensions>
</trkpt>
<trkpt lat="32.589294434" lon="35.010620117">
  <ele>94.252960</ele>
  <time>2012-06-23T04:08:24Z</time>
<extensions>
<speed>1.0</speed>
<temp>0.00</temp>
<bpm>0</bpm>
<rpm>0.00</rpm>
</extensions>
</trkpt>
<trkpt lat="32.589271545" lon="35.010646820">
  <ele>94.129913</ele>
  <time>2012-06-23T04:08:27Z</time>
<extensions>
<speed>1.2</speed>
<temp>0.00</temp>
<bpm>0</bpm>
<rpm>0.00</rpm>
</extensions>
</trkpt>
<trkpt lat="32.589263916" lon="35.010688782">
  <ele>94.938507</ele>
  <time>2012-06-23T04:08:30Z</time>
<extensions>
<speed>1.0</speed>
<temp>0.00</temp>
<bpm>0</bpm>
<rpm>0.00</rpm>
</extensions>
</trkpt>
<trkpt lat="32.589252472" lon="35.010723114">
  <ele>95.956085</ele>
  <time>2012-06-23T04:08:33Z</time>
<extensions>
<speed>0.9</speed>
<temp>0.00</temp>
<bpm>0</bpm>
<rpm>0.00</rpm>
</extensions>
</trkpt>
<trkpt lat="32.589237213" lon="35.010757446">
  <ele>95.797882</ele>
  <time>2012-06-23T04:08:36Z</time>
<extensions>
<speed>1.1</speed>
<temp>0.00</temp>
<bpm>0</bpm>
<rpm>0.00</rpm>
</extensions>
</trkpt>
<trkpt lat="32.589218140" lon="35.010787964">
  <ele>96.241241</ele>
  <time>2012-06-23T04:08:38Z</time>
<extensions>
<speed>0.9</speed>
<temp>0.00</temp>
<bpm>0</bpm>
<rpm>0.00</rpm>
</extensions>
</trkpt>
<trkpt lat="32.589225769" lon="35.010837555">
  <ele>97.553741</ele>
  <time>2012-06-23T04:08:41Z</time>
<extensions>
<speed>1.2</speed>
<temp>0.00</temp>
<bpm>0</bpm>
<rpm>0.00</rpm>
</extensions>
</trkpt>
<trkpt lat="32.589191437" lon="35.010860443">
  <ele>97.913116</ele>
  <time>2012-06-23T04:08:43Z</time>
<extensions>
<speed>1.4</speed>
<temp>0.00</temp>
<bpm>0</bpm>
<rpm>0.00</rpm>
</extensions>
</trkpt>
<trkpt lat="32.589172363" lon="35.010890961">
  <ele>98.471710</ele>
  <time>2012-06-23T04:08:45Z</time>
<extensions>
<speed>1.4</speed>
<temp>0.00</temp>
<bpm>0</bpm>
<rpm>0.00</rpm>
</extensions>
</trkpt>
<trkpt lat="32.589157104" lon="35.010925293">
  <ele>99.204132</ele>
  <time>2012-06-23T04:08:48Z</time>
<extensions>
<speed>1.0</speed>
<temp>0.00</temp>
<bpm>0</bpm>
<rpm>0.00</rpm>
</extensions>
</trkpt>
<trkpt lat="32.589130402" lon="35.010967255">
  <ele>99.934601</ele>
  <time>2012-06-23T04:08:52Z</time>
<extensions>
<speed>1.2</speed>
<temp>0.00</temp>
<bpm>0</bpm>
<rpm>0.00</rpm>
</extensions>
</trkpt>
<trkpt lat="32.589126587" lon="35.010997772">
  <ele>99.692413</ele>
  <time>2012-06-23T04:08:55Z</time>
<extensions>
<speed>1.1</speed>
<temp>0.00</temp>
<bpm>0</bpm>
<rpm>0.00</rpm>
</extensions>
</trkpt>
<trkpt lat="32.589115143" lon="35.011035919">
  <ele>99.932648</ele>
  <time>2012-06-23T04:08:58Z</time>
<extensions>
<speed>1.1</speed>
<temp>0.00</temp>
<bpm>0</bpm>
<rpm>0.00</rpm>
</extensions>
</trkpt>
<trkpt lat="32.589084625" lon="35.011070251">
  <ele>100.327179</ele>
  <time>2012-06-23T04:09:01Z</time>
<extensions>
<speed>1.0</speed>
<temp>0.00</temp>
<bpm>0</bpm>
<rpm>0.00</rpm>
</extensions>
</trkpt>
<trkpt lat="32.589073181" lon="35.011108398">
  <ele>99.305695</ele>
  <time>2012-06-23T04:09:04Z</time>
<extensions>
<speed>0.8</speed>
<temp>0.00</temp>
<bpm>0</bpm>
<rpm>0.00</rpm>
</extensions>
</trkpt>
<trkpt lat="32.589038849" lon="35.011138916">
  <ele>99.194366</ele>
  <time>2012-06-23T04:09:07Z</time>
<extensions>
<speed>1.1</speed>
<temp>0.00</temp>
<bpm>0</bpm>
<rpm>0.00</rpm>
</extensions>
</trkpt>
<trkpt lat="32.589015961" lon="35.011169434">
  <ele>99.397491</ele>
  <time>2012-06-23T04:09:09Z</time>
<extensions>
<speed>1.3</speed>
<temp>0.00</temp>
<bpm>0</bpm>
<rpm>0.00</rpm>
</extensions>
</trkpt>
<trkpt lat="32.589000702" lon="35.011207581">
  <ele>100.383820</ele>
  <time>2012-06-23T04:09:12Z</time>
<extensions>
<speed>1.3</speed>
<temp>0.00</temp>
<bpm>0</bpm>
<rpm>0.00</rpm>
</extensions>
</trkpt>
<trkpt lat="32.588977814" lon="35.011234283">
  <ele>100.909210</ele>
  <time>2012-06-23T04:09:15Z</time>
<extensions>
<speed>1.3</speed>
<temp>0.00</temp>
<bpm>0</bpm>
<rpm>0.00</rpm>
</extensions>
</trkpt>
<trkpt lat="32.588962555" lon="35.011268616">
  <ele>101.061554</ele>
  <time>2012-06-23T04:09:18Z</time>
<extensions>
<speed>1.4</speed>
<temp>0.00</temp>
<bpm>0</bpm>
<rpm>0.00</rpm>
</extensions>
</trkpt>
<trkpt lat="32.588954926" lon="35.011299133">
  <ele>101.432648</ele>
  <time>2012-06-23T04:09:20Z</time>
<extensions>
<speed>1.6</speed>
<temp>0.00</temp>
<bpm>0</bpm>
<rpm>0.00</rpm>
</extensions>
</trkpt>
<trkpt lat="32.588947296" lon="35.011348724">
  <ele>102.126007</ele>
  <time>2012-06-23T04:09:23Z</time>
<extensions>
<speed>1.7</speed>
<temp>0.00</temp>
<bpm>0</bpm>
<rpm>0.00</rpm>
</extensions>
</trkpt>
<trkpt lat="32.588932037" lon="35.011386871">
  <ele>102.463898</ele>
  <time>2012-06-23T04:09:26Z</time>
<extensions>
<speed>1.5</speed>
<temp>0.00</temp>
<bpm>0</bpm>
<rpm>0.00</rpm>
</extensions>
</trkpt>
<trkpt lat="32.588912964" lon="35.011436462">
  <ele>102.928741</ele>
  <time>2012-06-23T04:09:29Z</time>
<extensions>
<speed>1.5</speed>
<temp>0.00</temp>
<bpm>0</bpm>
<rpm>0.00</rpm>
</extensions>
</trkpt>
<trkpt lat="32.588901520" lon="35.011470795">
  <ele>102.690460</ele>
  <time>2012-06-23T04:09:31Z</time>
<extensions>
<speed>1.7</speed>
<temp>0.00</temp>
<bpm>0</bpm>
<rpm>0.00</rpm>
</extensions>
</trkpt>
<trkpt lat="32.588890076" lon="35.011505127">
  <ele>103.151398</ele>
  <time>2012-06-23T04:09:33Z</time>
<extensions>
<speed>1.5</speed>
<temp>0.00</temp>
<bpm>0</bpm>
<rpm>0.00</rpm>
</extensions>
</trkpt>
<trkpt lat="32.588882446" lon="35.011547089">
  <ele>104.338898</ele>
  <time>2012-06-23T04:09:35Z</time>
<extensions>
<speed>1.3</speed>
<temp>0.00</temp>
<bpm>0</bpm>
<rpm>0.00</rpm>
</extensions>
</trkpt>
<trkpt lat="32.588874817" lon="35.011585236">
  <ele>104.461945</ele>
  <time>2012-06-23T04:09:37Z</time>
<extensions>
<speed>1.5</speed>
<temp>0.00</temp>
<bpm>0</bpm>
<rpm>0.00</rpm>
</extensions>
</trkpt>
<trkpt lat="32.588867188" lon="35.011627197">
  <ele>104.813507</ele>
  <time>2012-06-23T04:09:40Z</time>
<extensions>
<speed>1.5</speed>
<temp>0.00</temp>
<bpm>0</bpm>
<rpm>0.00</rpm>
</extensions>
</trkpt>
<trkpt lat="32.588867188" lon="35.011657715">
  <ele>105.637726</ele>
  <time>2012-06-23T04:09:42Z</time>
<extensions>
<speed>1.3</speed>
<temp>0.00</temp>
<bpm>0</bpm>
<rpm>0.00</rpm>
</extensions>
</trkpt>
<trkpt lat="32.588855743" lon="35.011695862">
  <ele>105.684601</ele>
  <time>2012-06-23T04:09:45Z</time>
<extensions>
<speed>1.2</speed>
<temp>0.00</temp>
<bpm>0</bpm>
<rpm>0.00</rpm>
</extensions>
</trkpt>
<trkpt lat="32.588851929" lon="35.011730194">
  <ele>105.815460</ele>
  <time>2012-06-23T04:09:47Z</time>
<extensions>
<speed>1.1</speed>
<temp>0.00</temp>
<bpm>0</bpm>
<rpm>0.00</rpm>
</extensions>
</trkpt>
<trkpt lat="32.588848114" lon="35.011768341">
  <ele>105.653351</ele>
  <time>2012-06-23T04:09:50Z</time>
<extensions>
<speed>1.1</speed>
<temp>0.00</temp>
<bpm>0</bpm>
<rpm>0.00</rpm>
</extensions>
</trkpt>
<trkpt lat="32.588851929" lon="35.011802673">
  <ele>106.325226</ele>
  <time>2012-06-23T04:09:52Z</time>
<extensions>
<speed>1.2</speed>
<temp>0.00</temp>
<bpm>0</bpm>
<rpm>0.00</rpm>
</extensions>
</trkpt>
<trkpt lat="32.588829041" lon="35.011833191">
  <ele>105.338898</ele>
  <time>2012-06-23T04:09:55Z</time>
<extensions>
<speed>1.5</speed>
<temp>0.00</temp>
<bpm>0</bpm>
<rpm>0.00</rpm>
</extensions>
</trkpt>
<trkpt lat="32.588829041" lon="35.011871338">
  <ele>106.260773</ele>
  <time>2012-06-23T04:09:57Z</time>
<extensions>
<speed>1.4</speed>
<temp>0.00</temp>
<bpm>0</bpm>
<rpm>0.00</rpm>
</extensions>
</trkpt>
<trkpt lat="32.588832855" lon="35.011901855">
  <ele>106.940460</ele>
  <time>2012-06-23T04:09:59Z</time>
<extensions>
<speed>1.4</speed>
<temp>0.00</temp>
<bpm>0</bpm>
<rpm>0.00</rpm>
</extensions>
</trkpt>
<trkpt lat="32.588851929" lon="35.011940002">
  <ele>107.973663</ele>
  <time>2012-06-23T04:10:01Z</time>
<extensions>
<speed>1.4</speed>
<temp>0.00</temp>
<bpm>0</bpm>
<rpm>0.00</rpm>
</extensions>
</trkpt>
<trkpt lat="32.588851929" lon="35.011985779">
  <ele>109.376007</ele>
  <time>2012-06-23T04:10:03Z</time>
<extensions>
<speed>1.1</speed>
<temp>0.00</temp>
<bpm>0</bpm>
<rpm>0.00</rpm>
</extensions>
</trkpt>
<trkpt lat="32.588855743" lon="35.012020111">
  <ele>110.094757</ele>
  <time>2012-06-23T04:10:05Z</time>
<extensions>
<speed>1.2</speed>
<temp>0.00</temp>
<bpm>0</bpm>
<rpm>0.00</rpm>
</extensions>
</trkpt>
<trkpt lat="32.588882446" lon="35.012054443">
  <ele>110.180695</ele>
  <time>2012-06-23T04:10:07Z</time>
<extensions>
<speed>2.4</speed>
<temp>0.00</temp>
<bpm>0</bpm>
<rpm>0.00</rpm>
</extensions>
</trkpt>
<trkpt lat="32.588909149" lon="35.012088776">
  <ele>110.350616</ele>
  <time>2012-06-23T04:10:09Z</time>
<extensions>
<speed>1.3</speed>
<temp>0.00</temp>
<bpm>0</bpm>
<rpm>0.00</rpm>
</extensions>
</trkpt>
<trkpt lat="32.588935852" lon="35.012123108">
  <ele>112.020538</ele>
  <time>2012-06-23T04:10:12Z</time>
<extensions>
<speed>1.0</speed>
<temp>0.00</temp>
<bpm>0</bpm>
<rpm>0.00</rpm>
</extensions>
</trkpt>
<trkpt lat="32.588966370" lon="35.012142181">
  <ele>111.516632</ele>
  <time>2012-06-23T04:10:14Z</time>
<extensions>
<speed>1.3</speed>
<temp>0.00</temp>
<bpm>0</bpm>
<rpm>0.00</rpm>
</extensions>
</trkpt>
<trkpt lat="32.589000702" lon="35.012153625">
  <ele>111.571320</ele>
  <time>2012-06-23T04:10:17Z</time>
<extensions>
<speed>1.3</speed>
<temp>0.00</temp>
<bpm>0</bpm>
<rpm>0.00</rpm>
</extensions>
</trkpt>
<trkpt lat="32.589031219" lon="35.012149811">
  <ele>111.270538</ele>
  <time>2012-06-23T04:10:20Z</time>
<extensions>
<speed>1.1</speed>
<temp>0.00</temp>
<bpm>0</bpm>
<rpm>0.00</rpm>
</extensions>
</trkpt>
<trkpt lat="32.589065552" lon="35.012161255">
  <ele>110.377960</ele>
  <time>2012-06-23T04:10:48Z</time>
<extensions>
<speed>0.6</speed>
<temp>0.00</temp>
<bpm>0</bpm>
<rpm>0.00</rpm>
</extensions>
</trkpt>
<trkpt lat="32.589088440" lon="35.012157440">
  <ele>111.596710</ele>
  <time>2012-06-23T04:10:51Z</time>
<extensions>
<speed>1.3</speed>
<temp>0.00</temp>
<bpm>0</bpm>
<rpm>0.00</rpm>
</extensions>
</trkpt>
<trkpt lat="32.589118958" lon="35.012161255">
  <ele>110.600616</ele>
  <time>2012-06-23T04:10:53Z</time>
<extensions>
<speed>1.2</speed>
<temp>0.00</temp>
<bpm>0</bpm>
<rpm>0.00</rpm>
</extensions>
</trkpt>
<trkpt lat="32.589157104" lon="35.012191772">
  <ele>110.506866</ele>
  <time>2012-06-23T04:10:56Z</time>
<extensions>
<speed>1.8</speed>
<temp>0.00</temp>
<bpm>0</bpm>
<rpm>0.00</rpm>
</extensions>
</trkpt>
<trkpt lat="32.589183807" lon="35.012203217">
  <ele>110.790070</ele>
  <time>2012-06-23T04:10:58Z</time>
<extensions>
<speed>1.4</speed>
<temp>0.00</temp>
<bpm>0</bpm>
<rpm>0.00</rpm>
</extensions>
</trkpt>
<trkpt lat="32.589218140" lon="35.012226105">
  <ele>111.838898</ele>
  <time>2012-06-23T04:11:00Z</time>
<extensions>
<speed>1.6</speed>
<temp>0.00</temp>
<bpm>0</bpm>
<rpm>0.00</rpm>
</extensions>
</trkpt>
<trkpt lat="32.589241028" lon="35.012245178">
  <ele>111.614288</ele>
  <time>2012-06-23T04:11:02Z</time>
<extensions>
<speed>1.1</speed>
<temp>0.00</temp>
<bpm>0</bpm>
<rpm>0.00</rpm>
</extensions>
</trkpt>
<trkpt lat="32.589271545" lon="35.012264252">
  <ele>111.711945</ele>
  <time>2012-06-23T04:11:05Z</time>
<extensions>
<speed>1.5</speed>
<temp>0.00</temp>
<bpm>0</bpm>
<rpm>0.00</rpm>
</extensions>
</trkpt>
<trkpt lat="32.589294434" lon="35.012290955">
  <ele>111.258820</ele>
  <time>2012-06-23T04:11:07Z</time>
<extensions>
<speed>1.5</speed>
<temp>0.00</temp>
<bpm>0</bpm>
<rpm>0.00</rpm>
</extensions>
</trkpt>
<trkpt lat="32.589328766" lon="35.012313843">
  <ele>111.551788</ele>
  <time>2012-06-23T04:11:10Z</time>
<extensions>
<speed>1.4</speed>
<temp>0.00</temp>
<bpm>0</bpm>
<rpm>0.00</rpm>
</extensions>
</trkpt>
<trkpt lat="32.589355469" lon="35.012321472">
  <ele>111.952179</ele>
  <time>2012-06-23T04:11:12Z</time>
<extensions>
<speed>1.3</speed>
<temp>0.00</temp>
<bpm>0</bpm>
<rpm>0.00</rpm>
</extensions>
</trkpt>
<trkpt lat="32.589385986" lon="35.012325287">
  <ele>112.657257</ele>
  <time>2012-06-23T04:11:14Z</time>
<extensions>
<speed>1.7</speed>
<temp>0.00</temp>
<bpm>0</bpm>
<rpm>0.00</rpm>
</extensions>
</trkpt>
<trkpt lat="32.589427948" lon="35.012344360">
  <ele>113.674835</ele>
  <time>2012-06-23T04:11:16Z</time>
<extensions>
<speed>1.8</speed>
<temp>0.00</temp>
<bpm>0</bpm>
<rpm>0.00</rpm>
</extensions>
</trkpt>
<trkpt lat="32.589454651" lon="35.012348175">
  <ele>113.395538</ele>
  <time>2012-06-23T04:11:18Z</time>
<extensions>
<speed>1.2</speed>
<temp>0.00</temp>
<bpm>0</bpm>
<rpm>0.00</rpm>
</extensions>
</trkpt>
<trkpt lat="32.589488983" lon="35.012359619">
  <ele>113.395538</ele>
  <time>2012-06-23T04:11:20Z</time>
<extensions>
<speed>1.9</speed>
<temp>0.00</temp>
<bpm>0</bpm>
<rpm>0.00</rpm>
</extensions>
</trkpt>
<trkpt lat="32.589530945" lon="35.012371063">
  <ele>113.965851</ele>
  <time>2012-06-23T04:11:22Z</time>
<extensions>
<speed>1.7</speed>
<temp>0.00</temp>
<bpm>0</bpm>
<rpm>0.00</rpm>
</extensions>
</trkpt>
<trkpt lat="32.589561462" lon="35.012386322">
  <ele>113.877960</ele>
  <time>2012-06-23T04:11:24Z</time>
<extensions>
<speed>1.8</speed>
<temp>0.00</temp>
<bpm>0</bpm>
<rpm>0.00</rpm>
</extensions>
</trkpt>
<trkpt lat="32.589599609" lon="35.012409210">
  <ele>114.217804</ele>
  <time>2012-06-23T04:11:27Z</time>
<extensions>
<speed>1.8</speed>
<temp>0.00</temp>
<bpm>0</bpm>
<rpm>0.00</rpm>
</extensions>
</trkpt>
<trkpt lat="32.589633942" lon="35.012432098">
  <ele>114.370148</ele>
  <time>2012-06-23T04:11:29Z</time>
<extensions>
<speed>2.2</speed>
<temp>0.00</temp>
<bpm>0</bpm>
<rpm>0.00</rpm>
</extensions>
</trkpt>
<trkpt lat="32.589668274" lon="35.012454987">
  <ele>115.461945</ele>
  <time>2012-06-23T04:11:31Z</time>
<extensions>
<speed>1.7</speed>
<temp>0.00</temp>
<bpm>0</bpm>
<rpm>0.00</rpm>
</extensions>
</trkpt>
<trkpt lat="32.589691162" lon="35.012474060">
  <ele>115.670929</ele>
  <time>2012-06-23T04:11:33Z</time>
<extensions>
<speed>1.8</speed>
<temp>0.00</temp>
<bpm>0</bpm>
<rpm>0.00</rpm>
</extensions>
</trkpt>
<trkpt lat="32.589717865" lon="35.012493134">
  <ele>115.584991</ele>
  <time>2012-06-23T04:11:35Z</time>
<extensions>
<speed>2.0</speed>
<temp>0.00</temp>
<bpm>0</bpm>
<rpm>0.00</rpm>
</extensions>
</trkpt>
<trkpt lat="32.589748383" lon="35.012512207">
  <ele>115.768585</ele>
  <time>2012-06-23T04:11:37Z</time>
<extensions>
<speed>1.8</speed>
<temp>0.00</temp>
<bpm>0</bpm>
<rpm>0.00</rpm>
</extensions>
</trkpt>
<trkpt lat="32.589782715" lon="35.012538910">
  <ele>116.692413</ele>
  <time>2012-06-23T04:11:39Z</time>
<extensions>
<speed>1.9</speed>
<temp>0.00</temp>
<bpm>0</bpm>
<rpm>0.00</rpm>
</extensions>
</trkpt>
<trkpt lat="32.589817047" lon="35.012554169">
  <ele>117.104523</ele>
  <time>2012-06-23T04:11:41Z</time>
<extensions>
<speed>1.9</speed>
<temp>0.00</temp>
<bpm>0</bpm>
<rpm>0.00</rpm>
</extensions>
</trkpt>
<trkpt lat="32.589851379" lon="35.012573242">
  <ele>117.502960</ele>
  <time>2012-06-23T04:11:43Z</time>
<extensions>
<speed>2.0</speed>
<temp>0.00</temp>
<bpm>0</bpm>
<rpm>0.00</rpm>
</extensions>
</trkpt>
<trkpt lat="32.589874268" lon="35.012596130">
  <ele>117.401398</ele>
  <time>2012-06-23T04:11:45Z</time>
<extensions>
<speed>1.6</speed>
<temp>0.00</temp>
<bpm>0</bpm>
<rpm>0.00</rpm>
</extensions>
</trkpt>
<trkpt lat="32.589900970" lon="35.012615204">
  <ele>118.001007</ele>
  <time>2012-06-23T04:11:46Z</time>
<extensions>
<speed>2.2</speed>
<temp>0.00</temp>
<bpm>0</bpm>
<rpm>0.00</rpm>
</extensions>
</trkpt>
<trkpt lat="32.589931488" lon="35.012638092">
  <ele>118.407257</ele>
  <time>2012-06-23T04:11:48Z</time>
<extensions>
<speed>1.8</speed>
<temp>0.00</temp>
<bpm>0</bpm>
<rpm>0.00</rpm>
</extensions>
</trkpt>
<trkpt lat="32.589958191" lon="35.012657166">
  <ele>118.170929</ele>
  <time>2012-06-23T04:11:50Z</time>
<extensions>
<speed>1.6</speed>
<temp>0.00</temp>
<bpm>0</bpm>
<rpm>0.00</rpm>
</extensions>
</trkpt>
<trkpt lat="32.589984894" lon="35.012676239">
  <ele>117.745148</ele>
  <time>2012-06-23T04:11:52Z</time>
<extensions>
<speed>1.6</speed>
<temp>0.00</temp>
<bpm>0</bpm>
<rpm>0.00</rpm>
</extensions>
</trkpt>
<trkpt lat="32.590023041" lon="35.012699127">
  <ele>118.586945</ele>
  <time>2012-06-23T04:11:54Z</time>
<extensions>
<speed>1.7</speed>
<temp>0.00</temp>
<bpm>0</bpm>
<rpm>0.00</rpm>
</extensions>
</trkpt>
<trkpt lat="32.590053558" lon="35.012722015">
  <ele>118.292023</ele>
  <time>2012-06-23T04:11:56Z</time>
<extensions>
<speed>1.6</speed>
<temp>0.00</temp>
<bpm>0</bpm>
<rpm>0.00</rpm>
</extensions>
</trkpt>
<trkpt lat="32.590076447" lon="35.012741089">
  <ele>118.768585</ele>
  <time>2012-06-23T04:11:58Z</time>
<extensions>
<speed>1.8</speed>
<temp>0.00</temp>
<bpm>0</bpm>
<rpm>0.00</rpm>
</extensions>
</trkpt>
<trkpt lat="32.590106964" lon="35.012767792">
  <ele>118.932648</ele>
  <time>2012-06-23T04:12:00Z</time>
<extensions>
<speed>2.1</speed>
<temp>0.00</temp>
<bpm>0</bpm>
<rpm>0.00</rpm>
</extensions>
</trkpt>
<trkpt lat="32.590133667" lon="35.012790680">
  <ele>119.952179</ele>
  <time>2012-06-23T04:12:02Z</time>
<extensions>
<speed>1.7</speed>
<temp>0.00</temp>
<bpm>0</bpm>
<rpm>0.00</rpm>
</extensions>
</trkpt>
<trkpt lat="32.590175629" lon="35.012813568">
  <ele>121.053741</ele>
  <time>2012-06-23T04:12:05Z</time>
<extensions>
<speed>1.7</speed>
<temp>0.00</temp>
<bpm>0</bpm>
<rpm>0.00</rpm>
</extensions>
</trkpt>
<trkpt lat="32.590209961" lon="35.012825012">
  <ele>121.817413</ele>
  <time>2012-06-23T04:12:07Z</time>
<extensions>
<speed>1.9</speed>
<temp>0.00</temp>
<bpm>0</bpm>
<rpm>0.00</rpm>
</extensions>
</trkpt>
<trkpt lat="32.590244293" lon="35.012840271">
  <ele>121.856476</ele>
  <time>2012-06-23T04:12:09Z</time>
<extensions>
<speed>2.1</speed>
<temp>0.00</temp>
<bpm>0</bpm>
<rpm>0.00</rpm>
</extensions>
</trkpt>
<trkpt lat="32.590274811" lon="35.012866974">
  <ele>121.952179</ele>
  <time>2012-06-23T04:12:12Z</time>
<extensions>
<speed>1.2</speed>
<temp>0.00</temp>
<bpm>0</bpm>
<rpm>0.00</rpm>
</extensions>
</trkpt>
<trkpt lat="32.590297699" lon="35.012897491">
  <ele>121.952179</ele>
  <time>2012-06-23T04:12:15Z</time>
<extensions>
<speed>1.2</speed>
<temp>0.00</temp>
<bpm>0</bpm>
<rpm>0.00</rpm>
</extensions>
</trkpt>
<trkpt lat="32.590335846" lon="35.012924194">
  <ele>122.883820</ele>
  <time>2012-06-23T04:12:17Z</time>
<extensions>
<speed>1.9</speed>
<temp>0.00</temp>
<bpm>0</bpm>
<rpm>0.00</rpm>
</extensions>
</trkpt>
<trkpt lat="32.590377808" lon="35.012947083">
  <ele>123.575226</ele>
  <time>2012-06-23T04:12:19Z</time>
<extensions>
<speed>2.1</speed>
<temp>0.00</temp>
<bpm>0</bpm>
<rpm>0.00</rpm>
</extensions>
</trkpt>
<trkpt lat="32.590408325" lon="35.012969971">
  <ele>122.387726</ele>
  <time>2012-06-23T04:12:21Z</time>
<extensions>
<speed>1.8</speed>
<temp>0.00</temp>
<bpm>0</bpm>
<rpm>0.00</rpm>
</extensions>
</trkpt>
<trkpt lat="32.590423584" lon="35.012992859">
  <ele>122.940460</ele>
  <time>2012-06-23T04:12:23Z</time>
<extensions>
<speed>1.5</speed>
<temp>0.00</temp>
<bpm>0</bpm>
<rpm>0.00</rpm>
</extensions>
</trkpt>
<trkpt lat="32.590454102" lon="35.013015747">
  <ele>122.821320</ele>
  <time>2012-06-23T04:12:25Z</time>
<extensions>
<speed>1.6</speed>
<temp>0.00</temp>
<bpm>0</bpm>
<rpm>0.00</rpm>
</extensions>
</trkpt>
<trkpt lat="32.590496063" lon="35.013042450">
  <ele>123.551788</ele>
  <time>2012-06-23T04:12:28Z</time>
<extensions>
<speed>2.0</speed>
<temp>0.00</temp>
<bpm>0</bpm>
<rpm>0.00</rpm>
</extensions>
</trkpt>
<trkpt lat="32.590530396" lon="35.013065338">
  <ele>124.129913</ele>
  <time>2012-06-23T04:12:30Z</time>
<extensions>
<speed>1.9</speed>
<temp>0.00</temp>
<bpm>0</bpm>
<rpm>0.00</rpm>
</extensions>
</trkpt>
<trkpt lat="32.590564728" lon="35.013095856">
  <ele>124.657257</ele>
  <time>2012-06-23T04:12:32Z</time>
<extensions>
<speed>1.8</speed>
<temp>0.00</temp>
<bpm>0</bpm>
<rpm>0.00</rpm>
</extensions>
</trkpt>
<trkpt lat="32.590602875" lon="35.013122559">
  <ele>125.444366</ele>
  <time>2012-06-23T04:12:34Z</time>
<extensions>
<speed>1.9</speed>
<temp>0.00</temp>
<bpm>0</bpm>
<rpm>0.00</rpm>
</extensions>
</trkpt>
<trkpt lat="32.590625763" lon="35.013145447">
  <ele>125.553741</ele>
  <time>2012-06-23T04:12:36Z</time>
<extensions>
<speed>1.9</speed>
<temp>0.00</temp>
<bpm>0</bpm>
<rpm>0.00</rpm>
</extensions>
</trkpt>
<trkpt lat="32.590660095" lon="35.013156891">
  <ele>125.284210</ele>
  <time>2012-06-23T04:12:38Z</time>
<extensions>
<speed>2.0</speed>
<temp>0.00</temp>
<bpm>0</bpm>
<rpm>0.00</rpm>
</extensions>
</trkpt>
<trkpt lat="32.590686798" lon="35.013179779">
  <ele>125.809601</ele>
  <time>2012-06-23T04:12:41Z</time>
<extensions>
<speed>1.0</speed>
<temp>0.00</temp>
<bpm>0</bpm>
<rpm>0.00</rpm>
</extensions>
</trkpt>
<trkpt lat="32.590709686" lon="35.013202667">
  <ele>126.215851</ele>
  <time>2012-06-23T04:12:43Z</time>
<extensions>
<speed>1.6</speed>
<temp>0.00</temp>
<bpm>0</bpm>
<rpm>0.00</rpm>
</extensions>
</trkpt>
<trkpt lat="32.590740204" lon="35.013225555">
  <ele>127.270538</ele>
  <time>2012-06-23T04:12:45Z</time>
<extensions>
<speed>1.6</speed>
<temp>0.00</temp>
<bpm>0</bpm>
<rpm>0.00</rpm>
</extensions>
</trkpt>
<trkpt lat="32.590770721" lon="35.013252258">
  <ele>128.095764</ele>
  <time>2012-06-23T04:12:48Z</time>
<extensions>
<speed>1.3</speed>
<temp>0.00</temp>
<bpm>0</bpm>
<rpm>0.00</rpm>
</extensions>
</trkpt>
<trkpt lat="32.590793610" lon="35.013267517">
  <ele>128.517639</ele>
  <time>2012-06-23T04:12:50Z</time>
<extensions>
<speed>1.5</speed>
<temp>0.00</temp>
<bpm>0</bpm>
<rpm>0.00</rpm>
</extensions>
</trkpt>
<trkpt lat="32.590820313" lon="35.013282776">
  <ele>129.228577</ele>
  <time>2012-06-23T04:12:52Z</time>
<extensions>
<speed>1.7</speed>
<temp>0.00</temp>
<bpm>0</bpm>
<rpm>0.00</rpm>
</extensions>
</trkpt>
<trkpt lat="32.590862274" lon="35.013305664">
  <ele>128.459045</ele>
  <time>2012-06-23T04:12:54Z</time>
<extensions>
<speed>2.1</speed>
<temp>0.00</temp>
<bpm>0</bpm>
<rpm>0.00</rpm>
</extensions>
</trkpt>
<trkpt lat="32.590892792" lon="35.013320923">
  <ele>129.138733</ele>
  <time>2012-06-23T04:12:55Z</time>
<extensions>
<speed>2.1</speed>
<temp>0.00</temp>
<bpm>0</bpm>
<rpm>0.00</rpm>
</extensions>
</trkpt>
<trkpt lat="32.590930939" lon="35.013339996">
  <ele>130.127014</ele>
  <time>2012-06-23T04:12:57Z</time>
<extensions>
<speed>1.9</speed>
<temp>0.00</temp>
<bpm>0</bpm>
<rpm>0.00</rpm>
</extensions>
</trkpt>
<trkpt lat="32.590969086" lon="35.013362885">
  <ele>130.623108</ele>
  <time>2012-06-23T04:12:59Z</time>
<extensions>
<speed>2.3</speed>
<temp>0.00</temp>
<bpm>0</bpm>
<rpm>0.00</rpm>
</extensions>
</trkpt>
<trkpt lat="32.590999603" lon="35.013401031">
  <ele>130.259827</ele>
  <time>2012-06-23T04:13:01Z</time>
<extensions>
<speed>2.1</speed>
<temp>0.00</temp>
<bpm>0</bpm>
<rpm>0.00</rpm>
</extensions>
</trkpt>
<trkpt lat="32.591011047" lon="35.013435364">
  <ele>129.642639</ele>
  <time>2012-06-23T04:13:03Z</time>
<extensions>
<speed>1.8</speed>
<temp>0.00</temp>
<bpm>0</bpm>
<rpm>0.00</rpm>
</extensions>
</trkpt>
<trkpt lat="32.591014862" lon="35.013473511">
  <ele>128.986389</ele>
  <time>2012-06-23T04:13:05Z</time>
<extensions>
<speed>1.8</speed>
<temp>0.00</temp>
<bpm>0</bpm>
<rpm>0.00</rpm>
</extensions>
</trkpt>
<trkpt lat="32.591011047" lon="35.013507843">
  <ele>128.896545</ele>
  <time>2012-06-23T04:13:07Z</time>
<extensions>
<speed>1.8</speed>
<temp>0.00</temp>
<bpm>0</bpm>
<rpm>0.00</rpm>
</extensions>
</trkpt>
<trkpt lat="32.590991974" lon="35.013549805">
  <ele>128.482483</ele>
  <time>2012-06-23T04:13:09Z</time>
<extensions>
<speed>1.9</speed>
<temp>0.00</temp>
<bpm>0</bpm>
<rpm>0.00</rpm>
</extensions>
</trkpt>
<trkpt lat="32.590961456" lon="35.013580322">
  <ele>127.739288</ele>
  <time>2012-06-23T04:13:11Z</time>
<extensions>
<speed>1.9</speed>
<temp>0.00</temp>
<bpm>0</bpm>
<rpm>0.00</rpm>
</extensions>
</trkpt>
<trkpt lat="32.590946198" lon="35.013610840">
  <ele>127.235382</ele>
  <time>2012-06-23T04:13:13Z</time>
<extensions>
<speed>1.8</speed>
<temp>0.00</temp>
<bpm>0</bpm>
<rpm>0.00</rpm>
</extensions>
</trkpt>
<trkpt lat="32.590915680" lon="35.013637543">
  <ele>127.403351</ele>
  <time>2012-06-23T04:13:15Z</time>
<extensions>
<speed>1.8</speed>
<temp>0.00</temp>
<bpm>0</bpm>
<rpm>0.00</rpm>
</extensions>
</trkpt>
<trkpt lat="32.590900421" lon="35.013664246">
  <ele>127.473663</ele>
  <time>2012-06-23T04:13:17Z</time>
<extensions>
<speed>1.6</speed>
<temp>0.00</temp>
<bpm>0</bpm>
<rpm>0.00</rpm>
</extensions>
</trkpt>
<trkpt lat="32.590877533" lon="35.013687134">
  <ele>127.376007</ele>
  <time>2012-06-23T04:13:19Z</time>
<extensions>
<speed>1.5</speed>
<temp>0.00</temp>
<bpm>0</bpm>
<rpm>0.00</rpm>
</extensions>
</trkpt>
<trkpt lat="32.590850830" lon="35.013702393">
  <ele>126.899445</ele>
  <time>2012-06-23T04:13:21Z</time>
<extensions>
<speed>1.5</speed>
<temp>0.00</temp>
<bpm>0</bpm>
<rpm>0.00</rpm>
</extensions>
</trkpt>
<trkpt lat="32.590812683" lon="35.013732910">
  <ele>126.467804</ele>
  <time>2012-06-23T04:13:24Z</time>
<extensions>
<speed>1.8</speed>
<temp>0.00</temp>
<bpm>0</bpm>
<rpm>0.00</rpm>
</extensions>
</trkpt>
<trkpt lat="32.590785980" lon="35.013748169">
  <ele>126.198273</ele>
  <time>2012-06-23T04:13:26Z</time>
<extensions>
<speed>1.7</speed>
<temp>0.00</temp>
<bpm>0</bpm>
<rpm>0.00</rpm>
</extensions>
</trkpt>
<trkpt lat="32.590766907" lon="35.013767242">
  <ele>126.374054</ele>
  <time>2012-06-23T04:13:28Z</time>
<extensions>
<speed>1.6</speed>
<temp>0.00</temp>
<bpm>0</bpm>
<rpm>0.00</rpm>
</extensions>
</trkpt>
<trkpt lat="32.590740204" lon="35.013790131">
  <ele>126.877960</ele>
  <time>2012-06-23T04:13:29Z</time>
<extensions>
<speed>1.8</speed>
<temp>0.00</temp>
<bpm>0</bpm>
<rpm>0.00</rpm>
</extensions>
</trkpt>
<trkpt lat="32.590709686" lon="35.013805389">
  <ele>126.868195</ele>
  <time>2012-06-23T04:13:31Z</time>
<extensions>
<speed>1.9</speed>
<temp>0.00</temp>
<bpm>0</bpm>
<rpm>0.00</rpm>
</extensions>
</trkpt>
<trkpt lat="32.590675354" lon="35.013820648">
  <ele>127.129913</ele>
  <time>2012-06-23T04:13:33Z</time>
<extensions>
<speed>1.9</speed>
<temp>0.00</temp>
<bpm>0</bpm>
<rpm>0.00</rpm>
</extensions>
</trkpt>
<trkpt lat="32.590637207" lon="35.013843536">
  <ele>127.674835</ele>
  <time>2012-06-23T04:13:35Z</time>
<extensions>
<speed>1.9</speed>
<temp>0.00</temp>
<bpm>0</bpm>
<rpm>0.00</rpm>
</extensions>
</trkpt>
<trkpt lat="32.590606689" lon="35.013854980">
  <ele>127.293976</ele>
  <time>2012-06-23T04:13:37Z</time>
<extensions>
<speed>1.6</speed>
<temp>0.00</temp>
<bpm>0</bpm>
<rpm>0.00</rpm>
</extensions>
</trkpt>
<trkpt lat="32.590572357" lon="35.013862610">
  <ele>127.135773</ele>
  <time>2012-06-23T04:13:39Z</time>
<extensions>
<speed>1.8</speed>
<temp>0.00</temp>
<bpm>0</bpm>
<rpm>0.00</rpm>
</extensions>
</trkpt>
<trkpt lat="32.590534210" lon="35.013854980">
  <ele>127.491241</ele>
  <time>2012-06-23T04:13:41Z</time>
<extensions>
<speed>1.8</speed>
<temp>0.00</temp>
<bpm>0</bpm>
<rpm>0.00</rpm>
</extensions>
</trkpt>
<trkpt lat="32.590499878" lon="35.013847351">
  <ele>127.459991</ele>
  <time>2012-06-23T04:13:43Z</time>
<extensions>
<speed>1.8</speed>
<temp>0.00</temp>
<bpm>0</bpm>
<rpm>0.00</rpm>
</extensions>
</trkpt>
<trkpt lat="32.590465546" lon="35.013839722">
  <ele>127.872101</ele>
  <time>2012-06-23T04:13:45Z</time>
<extensions>
<speed>1.8</speed>
<temp>0.00</temp>
<bpm>0</bpm>
<rpm>0.00</rpm>
</extensions>
</trkpt>
<trkpt lat="32.590431213" lon="35.013839722">
  <ele>127.157257</ele>
  <time>2012-06-23T04:13:47Z</time>
<extensions>
<speed>1.8</speed>
<temp>0.00</temp>
<bpm>0</bpm>
<rpm>0.00</rpm>
</extensions>
</trkpt>
<trkpt lat="32.590400696" lon="35.013839722">
  <ele>126.700226</ele>
  <time>2012-06-23T04:13:49Z</time>
<extensions>
<speed>1.7</speed>
<temp>0.00</temp>
<bpm>0</bpm>
<rpm>0.00</rpm>
</extensions>
</trkpt>
<trkpt lat="32.590370178" lon="35.013835907">
  <ele>125.889679</ele>
  <time>2012-06-23T04:13:51Z</time>
<extensions>
<speed>1.6</speed>
<temp>0.00</temp>
<bpm>0</bpm>
<rpm>0.00</rpm>
</extensions>
</trkpt>
<trkpt lat="32.590335846" lon="35.013832092">
  <ele>125.551788</ele>
  <time>2012-06-23T04:13:53Z</time>
<extensions>
<speed>1.6</speed>
<temp>0.00</temp>
<bpm>0</bpm>
<rpm>0.00</rpm>
</extensions>
</trkpt>
<trkpt lat="32.590305328" lon="35.013820648">
  <ele>124.887726</ele>
  <time>2012-06-23T04:13:55Z</time>
<extensions>
<speed>1.5</speed>
<temp>0.00</temp>
<bpm>0</bpm>
<rpm>0.00</rpm>
</extensions>
</trkpt>
<trkpt lat="32.590270996" lon="35.013809204">
  <ele>124.569366</ele>
  <time>2012-06-23T04:13:57Z</time>
<extensions>
<speed>1.7</speed>
<temp>0.00</temp>
<bpm>0</bpm>
<rpm>0.00</rpm>
</extensions>
</trkpt>
<trkpt lat="32.590244293" lon="35.013801575">
  <ele>123.795929</ele>
  <time>2012-06-23T04:13:59Z</time>
<extensions>
<speed>1.5</speed>
<temp>0.00</temp>
<bpm>0</bpm>
<rpm>0.00</rpm>
</extensions>
</trkpt>
<trkpt lat="32.590213776" lon="35.013793945">
  <ele>123.356476</ele>
  <time>2012-06-23T04:14:01Z</time>
<extensions>
<speed>1.5</speed>
<temp>0.00</temp>
<bpm>0</bpm>
<rpm>0.00</rpm>
</extensions>
</trkpt>
<trkpt lat="32.590167999" lon="35.013797760">
  <ele>123.678741</ele>
  <time>2012-06-23T04:14:03Z</time>
<extensions>
<speed>1.8</speed>
<temp>0.00</temp>
<bpm>0</bpm>
<rpm>0.00</rpm>
</extensions>
</trkpt>
<trkpt lat="32.590126038" lon="35.013778687">
  <ele>124.502960</ele>
  <time>2012-06-23T04:14:06Z</time>
<extensions>
<speed>1.3</speed>
<temp>0.00</temp>
<bpm>0</bpm>
<rpm>0.00</rpm>
</extensions>
</trkpt>
<trkpt lat="32.590091705" lon="35.013778687">
  <ele>124.315460</ele>
  <time>2012-06-23T04:14:09Z</time>
<extensions>
<speed>0.9</speed>
<temp>0.00</temp>
<bpm>0</bpm>
<rpm>0.00</rpm>
</extensions>
</trkpt>
<trkpt lat="32.590068817" lon="35.013767242">
  <ele>125.235382</ele>
  <time>2012-06-23T04:16:35Z</time>
<extensions>
<speed>0.0</speed>
<temp>0.00</temp>
<bpm>0</bpm>
<rpm>0.00</rpm>
</extensions>
</trkpt>
<trkpt lat="32.590080261" lon="35.013793945">
  <ele>127.967804</ele>
  <time>2012-06-23T04:17:29Z</time>
<extensions>
<speed>0.0</speed>
<temp>0.00</temp>
<bpm>0</bpm>
<rpm>0.00</rpm>
</extensions>
</trkpt>
<trkpt lat="32.590072632" lon="35.013793945">
  <ele>130.884827</ele>
  <time>2012-06-23T04:20:46Z</time>
<extensions>
<speed>0.0</speed>
<temp>0.00</temp>
<bpm>0</bpm>
<rpm>0.00</rpm>
</extensions>
</trkpt>
<trkpt lat="32.590065002" lon="35.013835907">
  <ele>132.267639</ele>
  <time>2012-06-23T04:21:58Z</time>
<extensions>
<speed>1.5</speed>
<temp>0.00</temp>
<bpm>0</bpm>
<rpm>0.00</rpm>
</extensions>
</trkpt>
<trkpt lat="32.590049744" lon="35.013889313">
  <ele>132.377014</ele>
  <time>2012-06-23T04:22:00Z</time>
<extensions>
<speed>2.1</speed>
<temp>0.00</temp>
<bpm>0</bpm>
<rpm>0.00</rpm>
</extensions>
</trkpt>
<trkpt lat="32.590030670" lon="35.013916016">
  <ele>132.279358</ele>
  <time>2012-06-23T04:22:01Z</time>
<extensions>
<speed>2.4</speed>
<temp>0.00</temp>
<bpm>0</bpm>
<rpm>0.00</rpm>
</extensions>
</trkpt>
<trkpt lat="32.590007782" lon="35.013938904">
  <ele>133.318420</ele>
  <time>2012-06-23T04:22:02Z</time>
<extensions>
<speed>3.0</speed>
<temp>0.00</temp>
<bpm>0</bpm>
<rpm>0.00</rpm>
</extensions>
</trkpt>
<trkpt lat="32.589981079" lon="35.013954163">
  <ele>133.404358</ele>
  <time>2012-06-23T04:22:03Z</time>
<extensions>
<speed>3.2</speed>
<temp>0.00</temp>
<bpm>0</bpm>
<rpm>0.00</rpm>
</extensions>
</trkpt>
<trkpt lat="32.589946747" lon="35.013969421">
  <ele>133.037170</ele>
  <time>2012-06-23T04:22:04Z</time>
<extensions>
<speed>3.8</speed>
<temp>0.00</temp>
<bpm>0</bpm>
<rpm>0.00</rpm>
</extensions>
</trkpt>
<trkpt lat="32.589904785" lon="35.013977051">
  <ele>133.666077</ele>
  <time>2012-06-23T04:22:05Z</time>
<extensions>
<speed>4.6</speed>
<temp>0.00</temp>
<bpm>0</bpm>
<rpm>0.00</rpm>
</extensions>
</trkpt>
<trkpt lat="32.589859009" lon="35.013984680">
  <ele>133.798889</ele>
  <time>2012-06-23T04:22:06Z</time>
<extensions>
<speed>4.9</speed>
<temp>0.00</temp>
<bpm>0</bpm>
<rpm>0.00</rpm>
</extensions>
</trkpt>
<trkpt lat="32.589813232" lon="35.013984680">
  <ele>133.576233</ele>
  <time>2012-06-23T04:22:07Z</time>
<extensions>
<speed>4.8</speed>
<temp>0.00</temp>
<bpm>0</bpm>
<rpm>0.00</rpm>
</extensions>
</trkpt>
<trkpt lat="32.589771271" lon="35.013980865">
  <ele>132.904358</ele>
  <time>2012-06-23T04:22:08Z</time>
<extensions>
<speed>4.9</speed>
<temp>0.00</temp>
<bpm>0</bpm>
<rpm>0.00</rpm>
</extensions>
</trkpt>
<trkpt lat="32.589725494" lon="35.013980865">
  <ele>132.716858</ele>
  <time>2012-06-23T04:22:09Z</time>
<extensions>
<speed>4.7</speed>
<temp>0.00</temp>
<bpm>0</bpm>
<rpm>0.00</rpm>
</extensions>
</trkpt>
<trkpt lat="32.589687347" lon="35.013977051">
  <ele>132.525452</ele>
  <time>2012-06-23T04:22:10Z</time>
<extensions>
<speed>4.0</speed>
<temp>0.00</temp>
<bpm>0</bpm>
<rpm>0.00</rpm>
</extensions>
</trkpt>
<trkpt lat="32.589641571" lon="35.013980865">
  <ele>133.177795</ele>
  <time>2012-06-23T04:22:11Z</time>
<extensions>
<speed>4.3</speed>
<temp>0.00</temp>
<bpm>0</bpm>
<rpm>0.00</rpm>
</extensions>
</trkpt>
<trkpt lat="32.589599609" lon="35.013977051">
  <ele>132.982483</ele>
  <time>2012-06-23T04:22:12Z</time>
<extensions>
<speed>4.5</speed>
<temp>0.00</temp>
<bpm>0</bpm>
<rpm>0.00</rpm>
</extensions>
</trkpt>
<trkpt lat="32.589553833" lon="35.013973236">
  <ele>133.443420</ele>
  <time>2012-06-23T04:22:13Z</time>
<extensions>
<speed>5.0</speed>
<temp>0.00</temp>
<bpm>0</bpm>
<rpm>0.00</rpm>
</extensions>
</trkpt>
<trkpt lat="32.589511871" lon="35.013980865">
  <ele>133.302795</ele>
  <time>2012-06-23T04:22:14Z</time>
<extensions>
<speed>4.1</speed>
<temp>0.00</temp>
<bpm>0</bpm>
<rpm>0.00</rpm>
</extensions>
</trkpt>
<trkpt lat="32.589469910" lon="35.013984680">
  <ele>133.084045</ele>
  <time>2012-06-23T04:22:15Z</time>
<extensions>
<speed>4.1</speed>
<temp>0.00</temp>
<bpm>0</bpm>
<rpm>0.00</rpm>
</extensions>
</trkpt>
<trkpt lat="32.589427948" lon="35.013988495">
  <ele>132.623108</ele>
  <time>2012-06-23T04:22:16Z</time>
<extensions>
<speed>4.0</speed>
<temp>0.00</temp>
<bpm>0</bpm>
<rpm>0.00</rpm>
</extensions>
</trkpt>
<trkpt lat="32.589389801" lon="35.013984680">
  <ele>132.533264</ele>
  <time>2012-06-23T04:22:17Z</time>
<extensions>
<speed>4.3</speed>
<temp>0.00</temp>
<bpm>0</bpm>
<rpm>0.00</rpm>
</extensions>
</trkpt>
<trkpt lat="32.589340210" lon="35.013988495">
  <ele>132.361389</ele>
  <time>2012-06-23T04:22:18Z</time>
<extensions>
<speed>5.0</speed>
<temp>0.00</temp>
<bpm>0</bpm>
<rpm>0.00</rpm>
</extensions>
</trkpt>
<trkpt lat="32.589294434" lon="35.013992310">
  <ele>132.486389</ele>
  <time>2012-06-23T04:22:19Z</time>
<extensions>
<speed>4.8</speed>
<temp>0.00</temp>
<bpm>0</bpm>
<rpm>0.00</rpm>
</extensions>
</trkpt>
<trkpt lat="32.589244843" lon="35.013988495">
  <ele>132.259827</ele>
  <time>2012-06-23T04:22:20Z</time>
<extensions>
<speed>5.3</speed>
<temp>0.00</temp>
<bpm>0</bpm>
<rpm>0.00</rpm>
</extensions>
</trkpt>
<trkpt lat="32.589195251" lon="35.013977051">
  <ele>131.857483</ele>
  <time>2012-06-23T04:22:21Z</time>
<extensions>
<speed>5.1</speed>
<temp>0.00</temp>
<bpm>0</bpm>
<rpm>0.00</rpm>
</extensions>
</trkpt>
<trkpt lat="32.589149475" lon="35.013965607">
  <ele>131.681702</ele>
  <time>2012-06-23T04:22:22Z</time>
<extensions>
<speed>4.7</speed>
<temp>0.00</temp>
<bpm>0</bpm>
<rpm>0.00</rpm>
</extensions>
</trkpt>
<trkpt lat="32.589111328" lon="35.013954163">
  <ele>132.076233</ele>
  <time>2012-06-23T04:22:23Z</time>
<extensions>
<speed>3.9</speed>
<temp>0.00</temp>
<bpm>0</bpm>
<rpm>0.00</rpm>
</extensions>
</trkpt>
<trkpt lat="32.589076996" lon="35.013961792">
  <ele>130.716858</ele>
  <time>2012-06-23T04:22:24Z</time>
<extensions>
<speed>3.7</speed>
<temp>0.00</temp>
<bpm>0</bpm>
<rpm>0.00</rpm>
</extensions>
</trkpt>
<trkpt lat="32.589050293" lon="35.013980865">
  <ele>130.302795</ele>
  <time>2012-06-23T04:22:25Z</time>
<extensions>
<speed>3.7</speed>
<temp>0.00</temp>
<bpm>0</bpm>
<rpm>0.00</rpm>
</extensions>
</trkpt>
<trkpt lat="32.589019775" lon="35.014011383">
  <ele>129.767639</ele>
  <time>2012-06-23T04:22:26Z</time>
<extensions>
<speed>4.0</speed>
<temp>0.00</temp>
<bpm>0</bpm>
<rpm>0.00</rpm>
</extensions>
</trkpt>
<trkpt lat="32.588977814" lon="35.014022827">
  <ele>129.912170</ele>
  <time>2012-06-23T04:22:27Z</time>
<extensions>
<speed>4.5</speed>
<temp>0.00</temp>
<bpm>0</bpm>
<rpm>0.00</rpm>
</extensions>
</trkpt>
<trkpt lat="32.588932037" lon="35.014030457">
  <ele>129.513733</ele>
  <time>2012-06-23T04:22:28Z</time>
<extensions>
<speed>4.7</speed>
<temp>0.00</temp>
<bpm>0</bpm>
<rpm>0.00</rpm>
</extensions>
</trkpt>
<trkpt lat="32.588893890" lon="35.014034271">
  <ele>128.970764</ele>
  <time>2012-06-23T04:22:29Z</time>
<extensions>
<speed>4.3</speed>
<temp>0.00</temp>
<bpm>0</bpm>
<rpm>0.00</rpm>
</extensions>
</trkpt>
<trkpt lat="32.588851929" lon="35.014049530">
  <ele>128.673889</ele>
  <time>2012-06-23T04:22:30Z</time>
<extensions>
<speed>4.1</speed>
<temp>0.00</temp>
<bpm>0</bpm>
<rpm>0.00</rpm>
</extensions>
</trkpt>
<trkpt lat="32.588817596" lon="35.014080048">
  <ele>128.353577</ele>
  <time>2012-06-23T04:22:31Z</time>
<extensions>
<speed>3.6</speed>
<temp>0.00</temp>
<bpm>0</bpm>
<rpm>0.00</rpm>
</extensions>
</trkpt>
<trkpt lat="32.588790894" lon="35.014102936">
  <ele>127.784210</ele>
  <time>2012-06-23T04:22:32Z</time>
<extensions>
<speed>3.5</speed>
<temp>0.00</temp>
<bpm>0</bpm>
<rpm>0.00</rpm>
</extensions>
</trkpt>
<trkpt lat="32.588764191" lon="35.014129639">
  <ele>127.038116</ele>
  <time>2012-06-23T04:22:33Z</time>
<extensions>
<speed>3.5</speed>
<temp>0.00</temp>
<bpm>0</bpm>
<rpm>0.00</rpm>
</extensions>
</trkpt>
<trkpt lat="32.588741302" lon="35.014156342">
  <ele>126.473663</ele>
  <time>2012-06-23T04:22:34Z</time>
<extensions>
<speed>3.1</speed>
<temp>0.00</temp>
<bpm>0</bpm>
<rpm>0.00</rpm>
</extensions>
</trkpt>
<trkpt lat="32.588710785" lon="35.014175415">
  <ele>125.731476</ele>
  <time>2012-06-23T04:22:35Z</time>
<extensions>
<speed>2.4</speed>
<temp>0.00</temp>
<bpm>0</bpm>
<rpm>0.00</rpm>
</extensions>
</trkpt>
<trkpt lat="32.588684082" lon="35.014186859">
  <ele>125.102570</ele>
  <time>2012-06-23T04:22:36Z</time>
<extensions>
<speed>2.4</speed>
<temp>0.00</temp>
<bpm>0</bpm>
<rpm>0.00</rpm>
</extensions>
</trkpt>
<trkpt lat="32.588626862" lon="35.014198303">
  <ele>124.708038</ele>
  <time>2012-06-23T04:22:38Z</time>
<extensions>
<speed>3.3</speed>
<temp>0.00</temp>
<bpm>0</bpm>
<rpm>0.00</rpm>
</extensions>
</trkpt>
<trkpt lat="32.588592529" lon="35.014194489">
  <ele>123.891632</ele>
  <time>2012-06-23T04:22:39Z</time>
<extensions>
<speed>3.9</speed>
<temp>0.00</temp>
<bpm>0</bpm>
<rpm>0.00</rpm>
</extensions>
</trkpt>
<trkpt lat="32.588562012" lon="35.014183044">
  <ele>122.879913</ele>
  <time>2012-06-23T04:22:40Z</time>
<extensions>
<speed>4.1</speed>
<temp>0.00</temp>
<bpm>0</bpm>
<rpm>0.00</rpm>
</extensions>
</trkpt>
<trkpt lat="32.588520050" lon="35.014171600">
  <ele>122.485382</ele>
  <time>2012-06-23T04:22:41Z</time>
<extensions>
<speed>4.3</speed>
<temp>0.00</temp>
<bpm>0</bpm>
<rpm>0.00</rpm>
</extensions>
</trkpt>
<trkpt lat="32.588478088" lon="35.014160156">
  <ele>123.022491</ele>
  <time>2012-06-23T04:22:42Z</time>
<extensions>
<speed>4.2</speed>
<temp>0.00</temp>
<bpm>0</bpm>
<rpm>0.00</rpm>
</extensions>
</trkpt>
<trkpt lat="32.588436127" lon="35.014148712">
  <ele>122.928741</ele>
  <time>2012-06-23T04:22:43Z</time>
<extensions>
<speed>3.9</speed>
<temp>0.00</temp>
<bpm>0</bpm>
<rpm>0.00</rpm>
</extensions>
</trkpt>
<trkpt lat="32.588405609" lon="35.014133453">
  <ele>122.735382</ele>
  <time>2012-06-23T04:22:44Z</time>
<extensions>
<speed>3.9</speed>
<temp>0.00</temp>
<bpm>0</bpm>
<rpm>0.00</rpm>
</extensions>
</trkpt>
<trkpt lat="32.588378906" lon="35.014110565">
  <ele>123.315460</ele>
  <time>2012-06-23T04:22:45Z</time>
<extensions>
<speed>3.0</speed>
<temp>0.00</temp>
<bpm>0</bpm>
<rpm>0.00</rpm>
</extensions>
</trkpt>
<trkpt lat="32.588325500" lon="35.014114380">
  <ele>123.917023</ele>
  <time>2012-06-23T04:22:47Z</time>
<extensions>
<speed>2.1</speed>
<temp>0.00</temp>
<bpm>0</bpm>
<rpm>0.00</rpm>
</extensions>
</trkpt>
<trkpt lat="32.588298798" lon="35.014137268">
  <ele>122.868195</ele>
  <time>2012-06-23T04:22:48Z</time>
<extensions>
<speed>2.8</speed>
<temp>0.00</temp>
<bpm>0</bpm>
<rpm>0.00</rpm>
</extensions>
</trkpt>
<trkpt lat="32.588245392" lon="35.014171600">
  <ele>123.376007</ele>
  <time>2012-06-23T04:22:50Z</time>
<extensions>
<speed>2.3</speed>
<temp>0.00</temp>
<bpm>0</bpm>
<rpm>0.00</rpm>
</extensions>
</trkpt>
<trkpt lat="32.588214874" lon="35.014198303">
  <ele>123.340851</ele>
  <time>2012-06-23T04:22:51Z</time>
<extensions>
<speed>2.8</speed>
<temp>0.00</temp>
<bpm>0</bpm>
<rpm>0.00</rpm>
</extensions>
</trkpt>
<trkpt lat="32.588191986" lon="35.014225006">
  <ele>121.678741</ele>
  <time>2012-06-23T04:22:52Z</time>
<extensions>
<speed>2.6</speed>
<temp>0.00</temp>
<bpm>0</bpm>
<rpm>0.00</rpm>
</extensions>
</trkpt>
<trkpt lat="32.588172913" lon="35.014251709">
  <ele>121.436554</ele>
  <time>2012-06-23T04:22:53Z</time>
<extensions>
<speed>2.1</speed>
<temp>0.00</temp>
<bpm>0</bpm>
<rpm>0.00</rpm>
</extensions>
</trkpt>
<trkpt lat="32.588142395" lon="35.014274597">
  <ele>121.407257</ele>
  <time>2012-06-23T04:22:54Z</time>
<extensions>
<speed>3.1</speed>
<temp>0.00</temp>
<bpm>0</bpm>
<rpm>0.00</rpm>
</extensions>
</trkpt>
<trkpt lat="32.588115692" lon="35.014297485">
  <ele>120.247101</ele>
  <time>2012-06-23T04:22:55Z</time>
<extensions>
<speed>3.8</speed>
<temp>0.00</temp>
<bpm>0</bpm>
<rpm>0.00</rpm>
</extensions>
</trkpt>
<trkpt lat="32.588077545" lon="35.014320374">
  <ele>120.034210</ele>
  <time>2012-06-23T04:22:56Z</time>
<extensions>
<speed>3.7</speed>
<temp>0.00</temp>
<bpm>0</bpm>
<rpm>0.00</rpm>
</extensions>
</trkpt>
<trkpt lat="32.588043213" lon="35.014320374">
  <ele>119.586945</ele>
  <time>2012-06-23T04:22:57Z</time>
<extensions>
<speed>3.4</speed>
<temp>0.00</temp>
<bpm>0</bpm>
<rpm>0.00</rpm>
</extensions>
</trkpt>
<trkpt lat="32.588012695" lon="35.014328003">
  <ele>119.725616</ele>
  <time>2012-06-23T04:22:58Z</time>
<extensions>
<speed>3.1</speed>
<temp>0.00</temp>
<bpm>0</bpm>
<rpm>0.00</rpm>
</extensions>
</trkpt>
<trkpt lat="32.588035583" lon="35.014347076">
  <ele>120.807648</ele>
  <time>2012-06-23T04:23:11Z</time>
<extensions>
<speed>0.9</speed>
<temp>0.00</temp>
<bpm>0</bpm>
<rpm>0.00</rpm>
</extensions>
</trkpt>
<trkpt lat="32.588062286" lon="35.014358521">
  <ele>121.831085</ele>
  <time>2012-06-23T04:23:14Z</time>
<extensions>
<speed>1.0</speed>
<temp>0.00</temp>
<bpm>0</bpm>
<rpm>0.00</rpm>
</extensions>
</trkpt>
<trkpt lat="32.588031769" lon="35.014366150">
  <ele>123.092804</ele>
  <time>2012-06-23T04:23:32Z</time>
<extensions>
<speed>2.3</speed>
<temp>0.00</temp>
<bpm>0</bpm>
<rpm>0.00</rpm>
</extensions>
</trkpt>
<trkpt lat="32.587982178" lon="35.014373779">
  <ele>122.737335</ele>
  <time>2012-06-23T04:23:34Z</time>
<extensions>
<speed>2.4</speed>
<temp>0.00</temp>
<bpm>0</bpm>
<rpm>0.00</rpm>
</extensions>
</trkpt>
<trkpt lat="32.587955475" lon="35.014396667">
  <ele>122.692413</ele>
  <time>2012-06-23T04:23:36Z</time>
<extensions>
<speed>0.8</speed>
<temp>0.00</temp>
<bpm>0</bpm>
<rpm>0.00</rpm>
</extensions>
</trkpt>
<trkpt lat="32.587989807" lon="35.014404297">
  <ele>123.626007</ele>
  <time>2012-06-23T04:23:44Z</time>
<extensions>
<speed>1.0</speed>
<temp>0.00</temp>
<bpm>0</bpm>
<rpm>0.00</rpm>
</extensions>
</trkpt>
<trkpt lat="32.588024139" lon="35.014400482">
  <ele>124.254913</ele>
  <time>2012-06-23T04:23:47Z</time>
<extensions>
<speed>1.3</speed>
<temp>0.00</temp>
<bpm>0</bpm>
<rpm>0.00</rpm>
</extensions>
</trkpt>
<trkpt lat="32.588054657" lon="35.014396667">
  <ele>124.706085</ele>
  <time>2012-06-23T04:23:49Z</time>
<extensions>
<speed>1.2</speed>
<temp>0.00</temp>
<bpm>0</bpm>
<rpm>0.00</rpm>
</extensions>
</trkpt>
<trkpt lat="32.588020325" lon="35.014381409">
  <ele>124.174835</ele>
  <time>2012-06-23T04:24:00Z</time>
<extensions>
<speed>1.4</speed>
<temp>0.00</temp>
<bpm>0</bpm>
<rpm>0.00</rpm>
</extensions>
</trkpt>
<trkpt lat="32.587982178" lon="35.014381409">
  <ele>123.626007</ele>
  <time>2012-06-23T04:24:02Z</time>
<extensions>
<speed>2.1</speed>
<temp>0.00</temp>
<bpm>0</bpm>
<rpm>0.00</rpm>
</extensions>
</trkpt>
<trkpt lat="32.587951660" lon="35.014381409">
  <ele>123.042023</ele>
  <time>2012-06-23T04:24:04Z</time>
<extensions>
<speed>1.4</speed>
<temp>0.00</temp>
<bpm>0</bpm>
<rpm>0.00</rpm>
</extensions>
</trkpt>
<trkpt lat="32.587928772" lon="35.014404297">
  <ele>122.553741</ele>
  <time>2012-06-23T04:24:06Z</time>
<extensions>
<speed>1.3</speed>
<temp>0.00</temp>
<bpm>0</bpm>
<rpm>0.00</rpm>
</extensions>
</trkpt>
<trkpt lat="32.587905884" lon="35.014442444">
  <ele>121.985382</ele>
  <time>2012-06-23T04:24:08Z</time>
<extensions>
<speed>2.0</speed>
<temp>0.00</temp>
<bpm>0</bpm>
<rpm>0.00</rpm>
</extensions>
</trkpt>
<trkpt lat="32.587890625" lon="35.014480591">
  <ele>121.180695</ele>
  <time>2012-06-23T04:24:10Z</time>
<extensions>
<speed>1.1</speed>
<temp>0.00</temp>
<bpm>0</bpm>
<rpm>0.00</rpm>
</extensions>
</trkpt>
<trkpt lat="32.587875366" lon="35.014507294">
  <ele>119.217804</ele>
  <time>2012-06-23T04:24:13Z</time>
<extensions>
<speed>1.4</speed>
<temp>0.00</temp>
<bpm>0</bpm>
<rpm>0.00</rpm>
</extensions>
</trkpt>
<trkpt lat="32.587860107" lon="35.014533997">
  <ele>116.952179</ele>
  <time>2012-06-23T04:24:15Z</time>
<extensions>
<speed>1.1</speed>
<temp>0.00</temp>
<bpm>0</bpm>
<rpm>0.00</rpm>
</extensions>
</trkpt>
<trkpt lat="32.587829590" lon="35.014545441">
  <ele>115.995148</ele>
  <time>2012-06-23T04:24:17Z</time>
<extensions>
<speed>2.2</speed>
<temp>0.00</temp>
<bpm>0</bpm>
<rpm>0.00</rpm>
</extensions>
</trkpt>
<trkpt lat="32.587795258" lon="35.014568329">
  <ele>115.274445</ele>
  <time>2012-06-23T04:24:18Z</time>
<extensions>
<speed>2.4</speed>
<temp>0.00</temp>
<bpm>0</bpm>
<rpm>0.00</rpm>
</extensions>
</trkpt>
<trkpt lat="32.587772369" lon="35.014587402">
  <ele>114.418976</ele>
  <time>2012-06-23T04:24:19Z</time>
<extensions>
<speed>1.6</speed>
<temp>0.00</temp>
<bpm>0</bpm>
<rpm>0.00</rpm>
</extensions>
</trkpt>
<trkpt lat="32.587749481" lon="35.014617920">
  <ele>113.741241</ele>
  <time>2012-06-23T04:24:21Z</time>
<extensions>
<speed>4.5</speed>
<temp>0.00</temp>
<bpm>0</bpm>
<rpm>0.00</rpm>
</extensions>
</trkpt>
<trkpt lat="32.587692261" lon="35.014698029">
  <ele>112.292023</ele>
  <time>2012-06-23T04:24:22Z</time>
<extensions>
<speed>4.9</speed>
<temp>0.00</temp>
<bpm>0</bpm>
<rpm>0.00</rpm>
</extensions>
</trkpt>
<trkpt lat="32.587673187" lon="35.014736176">
  <ele>111.006866</ele>
  <time>2012-06-23T04:24:23Z</time>
<extensions>
<speed>1.0</speed>
<temp>0.00</temp>
<bpm>0</bpm>
<rpm>0.00</rpm>
</extensions>
</trkpt>
<trkpt lat="32.587635040" lon="35.014804840">
  <ele>113.372101</ele>
  <time>2012-06-23T04:24:26Z</time>
<extensions>
<speed>1.3</speed>
<temp>0.00</temp>
<bpm>0</bpm>
<rpm>0.00</rpm>
</extensions>
</trkpt>
<trkpt lat="32.587619781" lon="35.014835358">
  <ele>113.569366</ele>
  <time>2012-06-23T04:24:27Z</time>
<extensions>
<speed>1.1</speed>
<temp>0.00</temp>
<bpm>0</bpm>
<rpm>0.00</rpm>
</extensions>
</trkpt>
<trkpt lat="32.587581635" lon="35.014823914">
  <ele>113.778351</ele>
  <time>2012-06-23T04:24:30Z</time>
<extensions>
<speed>1.1</speed>
<temp>0.00</temp>
<bpm>0</bpm>
<rpm>0.00</rpm>
</extensions>
</trkpt>
<trkpt lat="32.587554932" lon="35.014816284">
  <ele>113.924835</ele>
  <time>2012-06-23T04:24:34Z</time>
<extensions>
<speed>0.2</speed>
<temp>0.00</temp>
<bpm>0</bpm>
<rpm>0.00</rpm>
</extensions>
</trkpt>
<trkpt lat="32.587524414" lon="35.014797211">
  <ele>113.629913</ele>
  <time>2012-06-23T04:24:39Z</time>
<extensions>
<speed>0.9</speed>
<temp>0.00</temp>
<bpm>0</bpm>
<rpm>0.00</rpm>
</extensions>
</trkpt>
<trkpt lat="32.587497711" lon="35.014785767">
  <ele>113.786163</ele>
  <time>2012-06-23T04:24:41Z</time>
<extensions>
<speed>1.1</speed>
<temp>0.00</temp>
<bpm>0</bpm>
<rpm>0.00</rpm>
</extensions>
</trkpt>
<trkpt lat="32.587471008" lon="35.014759064">
  <ele>113.612335</ele>
  <time>2012-06-23T04:24:44Z</time>
<extensions>
<speed>1.0</speed>
<temp>0.00</temp>
<bpm>0</bpm>
<rpm>0.00</rpm>
</extensions>
</trkpt>
<trkpt lat="32.587444305" lon="35.014747620">
  <ele>113.467804</ele>
  <time>2012-06-23T04:24:47Z</time>
<extensions>
<speed>0.9</speed>
<temp>0.00</temp>
<bpm>0</bpm>
<rpm>0.00</rpm>
</extensions>
</trkpt>
<trkpt lat="32.587402344" lon="35.014743805">
  <ele>113.501007</ele>
  <time>2012-06-23T04:24:50Z</time>
<extensions>
<speed>1.0</speed>
<temp>0.00</temp>
<bpm>0</bpm>
<rpm>0.00</rpm>
</extensions>
</trkpt>
<trkpt lat="32.587375641" lon="35.014736176">
  <ele>113.713898</ele>
  <time>2012-06-23T04:24:52Z</time>
<extensions>
<speed>1.0</speed>
<temp>0.00</temp>
<bpm>0</bpm>
<rpm>0.00</rpm>
</extensions>
</trkpt>
<trkpt lat="32.587341309" lon="35.014728546">
  <ele>113.778351</ele>
  <time>2012-06-23T04:24:56Z</time>
<extensions>
<speed>1.0</speed>
<temp>0.00</temp>
<bpm>0</bpm>
<rpm>0.00</rpm>
</extensions>
</trkpt>
<trkpt lat="32.587303162" lon="35.014717102">
  <ele>113.895538</ele>
  <time>2012-06-23T04:24:59Z</time>
<extensions>
<speed>0.9</speed>
<temp>0.00</temp>
<bpm>0</bpm>
<rpm>0.00</rpm>
</extensions>
</trkpt>
<trkpt lat="32.587268829" lon="35.014717102">
  <ele>114.237335</ele>
  <time>2012-06-23T04:25:03Z</time>
<extensions>
<speed>0.9</speed>
<temp>0.00</temp>
<bpm>0</bpm>
<rpm>0.00</rpm>
</extensions>
</trkpt>
<trkpt lat="32.587242126" lon="35.014720917">
  <ele>114.751007</ele>
  <time>2012-06-23T04:25:06Z</time>
<extensions>
<speed>0.9</speed>
<temp>0.00</temp>
<bpm>0</bpm>
<rpm>0.00</rpm>
</extensions>
</trkpt>
<trkpt lat="32.587215424" lon="35.014720917">
  <ele>115.006866</ele>
  <time>2012-06-23T04:25:09Z</time>
<extensions>
<speed>0.8</speed>
<temp>0.00</temp>
<bpm>0</bpm>
<rpm>0.00</rpm>
</extensions>
</trkpt>
<trkpt lat="32.587173462" lon="35.014724731">
  <ele>115.088898</ele>
  <time>2012-06-23T04:25:12Z</time>
<extensions>
<speed>1.2</speed>
<temp>0.00</temp>
<bpm>0</bpm>
<rpm>0.00</rpm>
</extensions>
</trkpt>
<trkpt lat="32.587139130" lon="35.014709473">
  <ele>115.323273</ele>
  <time>2012-06-23T04:25:16Z</time>
<extensions>
<speed>1.1</speed>
<temp>0.00</temp>
<bpm>0</bpm>
<rpm>0.00</rpm>
</extensions>
</trkpt>
<trkpt lat="32.587104797" lon="35.014709473">
  <ele>115.342804</ele>
  <time>2012-06-23T04:25:19Z</time>
<extensions>
<speed>1.0</speed>
<temp>0.00</temp>
<bpm>0</bpm>
<rpm>0.00</rpm>
</extensions>
</trkpt>
<trkpt lat="32.587078094" lon="35.014698029">
  <ele>116.102570</ele>
  <time>2012-06-23T04:25:23Z</time>
<extensions>
<speed>1.0</speed>
<temp>0.00</temp>
<bpm>0</bpm>
<rpm>0.00</rpm>
</extensions>
</trkpt>
<trkpt lat="32.587047577" lon="35.014656067">
  <ele>118.225616</ele>
  <time>2012-06-23T04:25:25Z</time>
<extensions>
<speed>1.3</speed>
<temp>0.00</temp>
<bpm>0</bpm>
<rpm>0.00</rpm>
</extensions>
</trkpt>
<trkpt lat="32.587013245" lon="35.014659882">
  <ele>118.172882</ele>
  <time>2012-06-23T04:25:27Z</time>
<extensions>
<speed>1.5</speed>
<temp>0.00</temp>
<bpm>0</bpm>
<rpm>0.00</rpm>
</extensions>
</trkpt>
<trkpt lat="32.586990356" lon="35.014659882">
  <ele>119.401398</ele>
  <time>2012-06-23T04:25:29Z</time>
<extensions>
<speed>1.0</speed>
<temp>0.00</temp>
<bpm>0</bpm>
<rpm>0.00</rpm>
</extensions>
</trkpt>
<trkpt lat="32.586967468" lon="35.014678955">
  <ele>120.762726</ele>
  <time>2012-06-23T04:25:33Z</time>
<extensions>
<speed>1.2</speed>
<temp>0.00</temp>
<bpm>0</bpm>
<rpm>0.00</rpm>
</extensions>
</trkpt>
<trkpt lat="32.586971283" lon="35.014724731">
  <ele>121.905304</ele>
  <time>2012-06-23T04:25:36Z</time>
<extensions>
<speed>1.0</speed>
<temp>0.00</temp>
<bpm>0</bpm>
<rpm>0.00</rpm>
</extensions>
</trkpt>
<trkpt lat="32.586982727" lon="35.014755249">
  <ele>123.473663</ele>
  <time>2012-06-23T04:25:39Z</time>
<extensions>
<speed>1.0</speed>
<temp>0.00</temp>
<bpm>0</bpm>
<rpm>0.00</rpm>
</extensions>
</trkpt>
<trkpt lat="32.586997986" lon="35.014789581">
  <ele>125.094757</ele>
  <time>2012-06-23T04:25:41Z</time>
<extensions>
<speed>0.8</speed>
<temp>0.00</temp>
<bpm>0</bpm>
<rpm>0.00</rpm>
</extensions>
</trkpt>
<trkpt lat="32.587020874" lon="35.014808655">
  <ele>126.278351</ele>
  <time>2012-06-23T04:25:44Z</time>
<extensions>
<speed>1.0</speed>
<temp>0.00</temp>
<bpm>0</bpm>
<rpm>0.00</rpm>
</extensions>
</trkpt>
<trkpt lat="32.587039948" lon="35.014839172">
  <ele>128.228577</ele>
  <time>2012-06-23T04:25:46Z</time>
<extensions>
<speed>0.7</speed>
<temp>0.00</temp>
<bpm>0</bpm>
<rpm>0.00</rpm>
</extensions>
</trkpt>
<trkpt lat="32.587066650" lon="35.014850616">
  <ele>129.166077</ele>
  <time>2012-06-23T04:25:48Z</time>
<extensions>
<speed>0.9</speed>
<temp>0.00</temp>
<bpm>0</bpm>
<rpm>0.00</rpm>
</extensions>
</trkpt>
<trkpt lat="32.587081909" lon="35.014873505">
  <ele>130.814514</ele>
  <time>2012-06-23T04:25:51Z</time>
<extensions>
<speed>0.9</speed>
<temp>0.00</temp>
<bpm>0</bpm>
<rpm>0.00</rpm>
</extensions>
</trkpt>
<trkpt lat="32.587104797" lon="35.014892578">
  <ele>132.025452</ele>
  <time>2012-06-23T04:25:54Z</time>
<extensions>
<speed>0.8</speed>
<temp>0.00</temp>
<bpm>0</bpm>
<rpm>0.00</rpm>
</extensions>
</trkpt>
<trkpt lat="32.587120056" lon="35.014896393">
  <ele>134.377014</ele>
  <time>2012-06-23T04:26:03Z</time>
<extensions>
<speed>0.3</speed>
<temp>0.00</temp>
<bpm>0</bpm>
<rpm>0.00</rpm>
</extensions>
</trkpt>
<trkpt lat="32.587146759" lon="35.014896393">
  <ele>135.224670</ele>
  <time>2012-06-23T04:26:07Z</time>
<extensions>
<speed>0.3</speed>
<temp>0.00</temp>
<bpm>0</bpm>
<rpm>0.00</rpm>
</extensions>
</trkpt>
<trkpt lat="32.587181091" lon="35.014881134">
  <ele>135.939514</ele>
  <time>2012-06-23T04:26:17Z</time>
<extensions>
<speed>0.3</speed>
<temp>0.00</temp>
<bpm>0</bpm>
<rpm>0.00</rpm>
</extensions>
</trkpt>
<trkpt lat="32.587211609" lon="35.014892578">
  <ele>137.044983</ele>
  <time>2012-06-23T04:26:24Z</time>
<extensions>
<speed>0.6</speed>
<temp>0.00</temp>
<bpm>0</bpm>
<rpm>0.00</rpm>
</extensions>
</trkpt>
<trkpt lat="32.587230682" lon="35.014915466">
  <ele>136.666077</ele>
  <time>2012-06-23T04:26:28Z</time>
<extensions>
<speed>0.8</speed>
<temp>0.00</temp>
<bpm>0</bpm>
<rpm>0.00</rpm>
</extensions>
</trkpt>
<trkpt lat="32.587253571" lon="35.014942169">
  <ele>136.419983</ele>
  <time>2012-06-23T04:26:30Z</time>
<extensions>
<speed>1.5</speed>
<temp>0.00</temp>
<bpm>0</bpm>
<rpm>0.00</rpm>
</extensions>
</trkpt>
<trkpt lat="32.587291718" lon="35.014953613">
  <ele>136.584045</ele>
  <time>2012-06-23T04:26:31Z</time>
<extensions>
<speed>1.8</speed>
<temp>0.00</temp>
<bpm>0</bpm>
<rpm>0.00</rpm>
</extensions>
</trkpt>
<trkpt lat="32.587333679" lon="35.014980316">
  <ele>136.630920</ele>
  <time>2012-06-23T04:26:33Z</time>
<extensions>
<speed>2.1</speed>
<temp>0.00</temp>
<bpm>0</bpm>
<rpm>0.00</rpm>
</extensions>
</trkpt>
<trkpt lat="32.587356567" lon="35.015014648">
  <ele>136.560608</ele>
  <time>2012-06-23T04:26:35Z</time>
<extensions>
<speed>2.3</speed>
<temp>0.00</temp>
<bpm>0</bpm>
<rpm>0.00</rpm>
</extensions>
</trkpt>
<trkpt lat="32.587383270" lon="35.015033722">
  <ele>136.353577</ele>
  <time>2012-06-23T04:26:37Z</time>
<extensions>
<speed>2.3</speed>
<temp>0.00</temp>
<bpm>0</bpm>
<rpm>0.00</rpm>
</extensions>
</trkpt>
<trkpt lat="32.587417603" lon="35.015064240">
  <ele>136.404358</ele>
  <time>2012-06-23T04:26:39Z</time>
<extensions>
<speed>2.2</speed>
<temp>0.00</temp>
<bpm>0</bpm>
<rpm>0.00</rpm>
</extensions>
</trkpt>
<trkpt lat="32.587440491" lon="35.015090942">
  <ele>136.052795</ele>
  <time>2012-06-23T04:26:40Z</time>
<extensions>
<speed>2.8</speed>
<temp>0.00</temp>
<bpm>0</bpm>
<rpm>0.00</rpm>
</extensions>
</trkpt>
<trkpt lat="32.587467194" lon="35.015132904">
  <ele>135.869202</ele>
  <time>2012-06-23T04:26:42Z</time>
<extensions>
<speed>3.3</speed>
<temp>0.00</temp>
<bpm>0</bpm>
<rpm>0.00</rpm>
</extensions>
</trkpt>
<trkpt lat="32.587493896" lon="35.015171051">
  <ele>136.111389</ele>
  <time>2012-06-23T04:26:44Z</time>
<extensions>
<speed>2.2</speed>
<temp>0.00</temp>
<bpm>0</bpm>
<rpm>0.00</rpm>
</extensions>
</trkpt>
<trkpt lat="32.587524414" lon="35.015201569">
  <ele>136.334045</ele>
  <time>2012-06-23T04:26:46Z</time>
<extensions>
<speed>2.0</speed>
<temp>0.00</temp>
<bpm>0</bpm>
<rpm>0.00</rpm>
</extensions>
</trkpt>
<trkpt lat="32.587547302" lon="35.015224457">
  <ele>136.322327</ele>
  <time>2012-06-23T04:26:48Z</time>
<extensions>
<speed>1.7</speed>
<temp>0.00</temp>
<bpm>0</bpm>
<rpm>0.00</rpm>
</extensions>
</trkpt>
<trkpt lat="32.587558746" lon="35.015258789">
  <ele>135.189514</ele>
  <time>2012-06-23T04:26:50Z</time>
<extensions>
<speed>2.3</speed>
<temp>0.00</temp>
<bpm>0</bpm>
<rpm>0.00</rpm>
</extensions>
</trkpt>
<trkpt lat="32.587589264" lon="35.015270233">
  <ele>135.544983</ele>
  <time>2012-06-23T04:26:51Z</time>
<extensions>
<speed>2.5</speed>
<temp>0.00</temp>
<bpm>0</bpm>
<rpm>0.00</rpm>
</extensions>
</trkpt>
<trkpt lat="32.587623596" lon="35.015316010">
  <ele>134.107483</ele>
  <time>2012-06-23T04:26:53Z</time>
<extensions>
<speed>2.1</speed>
<temp>0.00</temp>
<bpm>0</bpm>
<rpm>0.00</rpm>
</extensions>
</trkpt>
<trkpt lat="32.587631226" lon="35.015354156">
  <ele>134.298889</ele>
  <time>2012-06-23T04:26:55Z</time>
<extensions>
<speed>2.0</speed>
<temp>0.00</temp>
<bpm>0</bpm>
<rpm>0.00</rpm>
</extensions>
</trkpt>
<trkpt lat="32.587650299" lon="35.015392303">
  <ele>134.638733</ele>
  <time>2012-06-23T04:26:57Z</time>
<extensions>
<speed>2.2</speed>
<temp>0.00</temp>
<bpm>0</bpm>
<rpm>0.00</rpm>
</extensions>
</trkpt>
<trkpt lat="32.587673187" lon="35.015434265">
  <ele>135.611389</ele>
  <time>2012-06-23T04:26:59Z</time>
<extensions>
<speed>1.9</speed>
<temp>0.00</temp>
<bpm>0</bpm>
<rpm>0.00</rpm>
</extensions>
</trkpt>
<trkpt lat="32.587696075" lon="35.015460968">
  <ele>136.068420</ele>
  <time>2012-06-23T04:27:01Z</time>
<extensions>
<speed>2.3</speed>
<temp>0.00</temp>
<bpm>0</bpm>
<rpm>0.00</rpm>
</extensions>
</trkpt>
<trkpt lat="32.587711334" lon="35.015495300">
  <ele>135.959045</ele>
  <time>2012-06-23T04:27:03Z</time>
<extensions>
<speed>2.1</speed>
<temp>0.00</temp>
<bpm>0</bpm>
<rpm>0.00</rpm>
</extensions>
</trkpt>
<trkpt lat="32.587734222" lon="35.015533447">
  <ele>136.345764</ele>
  <time>2012-06-23T04:27:05Z</time>
<extensions>
<speed>1.6</speed>
<temp>0.00</temp>
<bpm>0</bpm>
<rpm>0.00</rpm>
</extensions>
</trkpt>
<trkpt lat="32.587749481" lon="35.015563965">
  <ele>135.923889</ele>
  <time>2012-06-23T04:27:07Z</time>
<extensions>
<speed>1.9</speed>
<temp>0.00</temp>
<bpm>0</bpm>
<rpm>0.00</rpm>
</extensions>
</trkpt>
<trkpt lat="32.587764740" lon="35.015602112">
  <ele>136.123108</ele>
  <time>2012-06-23T04:27:10Z</time>
<extensions>
<speed>1.9</speed>
<temp>0.00</temp>
<bpm>0</bpm>
<rpm>0.00</rpm>
</extensions>
</trkpt>
<trkpt lat="32.587760925" lon="35.015636444">
  <ele>135.869202</ele>
  <time>2012-06-23T04:27:12Z</time>
<extensions>
<speed>2.2</speed>
<temp>0.00</temp>
<bpm>0</bpm>
<rpm>0.00</rpm>
</extensions>
</trkpt>
<trkpt lat="32.587764740" lon="35.015678406">
  <ele>136.130920</ele>
  <time>2012-06-23T04:27:14Z</time>
<extensions>
<speed>1.8</speed>
<temp>0.00</temp>
<bpm>0</bpm>
<rpm>0.00</rpm>
</extensions>
</trkpt>
<trkpt lat="32.587764740" lon="35.015712738">
  <ele>136.459045</ele>
  <time>2012-06-23T04:27:16Z</time>
<extensions>
<speed>2.0</speed>
<temp>0.00</temp>
<bpm>0</bpm>
<rpm>0.00</rpm>
</extensions>
</trkpt>
<trkpt lat="32.587772369" lon="35.015750885">
  <ele>137.052795</ele>
  <time>2012-06-23T04:27:18Z</time>
<extensions>
<speed>2.0</speed>
<temp>0.00</temp>
<bpm>0</bpm>
<rpm>0.00</rpm>
</extensions>
</trkpt>
<trkpt lat="32.587772369" lon="35.015796661">
  <ele>137.177795</ele>
  <time>2012-06-23T04:27:20Z</time>
<extensions>
<speed>1.9</speed>
<temp>0.00</temp>
<bpm>0</bpm>
<rpm>0.00</rpm>
</extensions>
</trkpt>
<trkpt lat="32.587772369" lon="35.015834808">
  <ele>137.869202</ele>
  <time>2012-06-23T04:27:22Z</time>
<extensions>
<speed>2.1</speed>
<temp>0.00</temp>
<bpm>0</bpm>
<rpm>0.00</rpm>
</extensions>
</trkpt>
<trkpt lat="32.587772369" lon="35.015876770">
  <ele>138.669983</ele>
  <time>2012-06-23T04:27:24Z</time>
<extensions>
<speed>1.9</speed>
<temp>0.00</temp>
<bpm>0</bpm>
<rpm>0.00</rpm>
</extensions>
</trkpt>
<trkpt lat="32.587776184" lon="35.015914917">
  <ele>138.681702</ele>
  <time>2012-06-23T04:27:26Z</time>
<extensions>
<speed>2.0</speed>
<temp>0.00</temp>
<bpm>0</bpm>
<rpm>0.00</rpm>
</extensions>
</trkpt>
<trkpt lat="32.587772369" lon="35.015953064">
  <ele>138.755920</ele>
  <time>2012-06-23T04:27:28Z</time>
<extensions>
<speed>1.8</speed>
<temp>0.00</temp>
<bpm>0</bpm>
<rpm>0.00</rpm>
</extensions>
</trkpt>
<trkpt lat="32.587776184" lon="35.015991211">
  <ele>139.166077</ele>
  <time>2012-06-23T04:27:30Z</time>
<extensions>
<speed>2.0</speed>
<temp>0.00</temp>
<bpm>0</bpm>
<rpm>0.00</rpm>
</extensions>
</trkpt>
<trkpt lat="32.587783813" lon="35.016044617">
  <ele>138.923889</ele>
  <time>2012-06-23T04:27:33Z</time>
<extensions>
<speed>2.2</speed>
<temp>0.00</temp>
<bpm>0</bpm>
<rpm>0.00</rpm>
</extensions>
</trkpt>
<trkpt lat="32.587787628" lon="35.016098022">
  <ele>139.021545</ele>
  <time>2012-06-23T04:27:35Z</time>
<extensions>
<speed>2.0</speed>
<temp>0.00</temp>
<bpm>0</bpm>
<rpm>0.00</rpm>
</extensions>
</trkpt>
<trkpt lat="32.587791443" lon="35.016143799">
  <ele>138.775452</ele>
  <time>2012-06-23T04:27:37Z</time>
<extensions>
<speed>2.0</speed>
<temp>0.00</temp>
<bpm>0</bpm>
<rpm>0.00</rpm>
</extensions>
</trkpt>
<trkpt lat="32.587799072" lon="35.016181946">
  <ele>138.916077</ele>
  <time>2012-06-23T04:27:39Z</time>
<extensions>
<speed>1.8</speed>
<temp>0.00</temp>
<bpm>0</bpm>
<rpm>0.00</rpm>
</extensions>
</trkpt>
<trkpt lat="32.587814331" lon="35.016216278">
  <ele>139.337952</ele>
  <time>2012-06-23T04:27:41Z</time>
<extensions>
<speed>1.9</speed>
<temp>0.00</temp>
<bpm>0</bpm>
<rpm>0.00</rpm>
</extensions>
</trkpt>
<trkpt lat="32.587821960" lon="35.016262054">
  <ele>139.794983</ele>
  <time>2012-06-23T04:27:43Z</time>
<extensions>
<speed>1.8</speed>
<temp>0.00</temp>
<bpm>0</bpm>
<rpm>0.00</rpm>
</extensions>
</trkpt>
<trkpt lat="32.587837219" lon="35.016300201">
  <ele>140.291077</ele>
  <time>2012-06-23T04:27:45Z</time>
<extensions>
<speed>1.9</speed>
<temp>0.00</temp>
<bpm>0</bpm>
<rpm>0.00</rpm>
</extensions>
</trkpt>
<trkpt lat="32.587848663" lon="35.016338348">
  <ele>140.482483</ele>
  <time>2012-06-23T04:27:47Z</time>
<extensions>
<speed>1.9</speed>
<temp>0.00</temp>
<bpm>0</bpm>
<rpm>0.00</rpm>
</extensions>
</trkpt>
<trkpt lat="32.587882996" lon="35.016376495">
  <ele>140.447327</ele>
  <time>2012-06-23T04:27:49Z</time>
<extensions>
<speed>2.4</speed>
<temp>0.00</temp>
<bpm>0</bpm>
<rpm>0.00</rpm>
</extensions>
</trkpt>
<trkpt lat="32.587898254" lon="35.016422272">
  <ele>140.580139</ele>
  <time>2012-06-23T04:27:51Z</time>
<extensions>
<speed>2.0</speed>
<temp>0.00</temp>
<bpm>0</bpm>
<rpm>0.00</rpm>
</extensions>
</trkpt>
<trkpt lat="32.587921143" lon="35.016464233">
  <ele>141.052795</ele>
  <time>2012-06-23T04:27:53Z</time>
<extensions>
<speed>2.2</speed>
<temp>0.00</temp>
<bpm>0</bpm>
<rpm>0.00</rpm>
</extensions>
</trkpt>
<trkpt lat="32.587951660" lon="35.016506195">
  <ele>141.517639</ele>
  <time>2012-06-23T04:27:55Z</time>
<extensions>
<speed>2.4</speed>
<temp>0.00</temp>
<bpm>0</bpm>
<rpm>0.00</rpm>
</extensions>
</trkpt>
<trkpt lat="32.587997437" lon="35.016548157">
  <ele>141.841858</ele>
  <time>2012-06-23T04:27:57Z</time>
<extensions>
<speed>2.6</speed>
<temp>0.00</temp>
<bpm>0</bpm>
<rpm>0.00</rpm>
</extensions>
</trkpt>
<trkpt lat="32.588047028" lon="35.016578674">
  <ele>142.322327</ele>
  <time>2012-06-23T04:27:59Z</time>
<extensions>
<speed>3.2</speed>
<temp>0.00</temp>
<bpm>0</bpm>
<rpm>0.00</rpm>
</extensions>
</trkpt>
<trkpt lat="32.588073730" lon="35.016616821">
  <ele>142.283264</ele>
  <time>2012-06-23T04:28:01Z</time>
<extensions>
<speed>2.8</speed>
<temp>0.00</temp>
<bpm>0</bpm>
<rpm>0.00</rpm>
</extensions>
</trkpt>
<trkpt lat="32.588100433" lon="35.016635895">
  <ele>142.814514</ele>
  <time>2012-06-23T04:28:02Z</time>
<extensions>
<speed>2.8</speed>
<temp>0.00</temp>
<bpm>0</bpm>
<rpm>0.00</rpm>
</extensions>
</trkpt>
<trkpt lat="32.588142395" lon="35.016666412">
  <ele>143.279358</ele>
  <time>2012-06-23T04:28:04Z</time>
<extensions>
<speed>2.3</speed>
<temp>0.00</temp>
<bpm>0</bpm>
<rpm>0.00</rpm>
</extensions>
</trkpt>
<trkpt lat="32.588195801" lon="35.016696930">
  <ele>143.556702</ele>
  <time>2012-06-23T04:28:06Z</time>
<extensions>
<speed>3.1</speed>
<temp>0.00</temp>
<bpm>0</bpm>
<rpm>0.00</rpm>
</extensions>
</trkpt>
<trkpt lat="32.588233948" lon="35.016716003">
  <ele>143.404358</ele>
  <time>2012-06-23T04:28:08Z</time>
<extensions>
<speed>2.5</speed>
<temp>0.00</temp>
<bpm>0</bpm>
<rpm>0.00</rpm>
</extensions>
</trkpt>
<trkpt lat="32.588264465" lon="35.016723633">
  <ele>143.076233</ele>
  <time>2012-06-23T04:28:09Z</time>
<extensions>
<speed>2.6</speed>
<temp>0.00</temp>
<bpm>0</bpm>
<rpm>0.00</rpm>
</extensions>
</trkpt>
<trkpt lat="32.588302612" lon="35.016750336">
  <ele>143.677795</ele>
  <time>2012-06-23T04:28:11Z</time>
<extensions>
<speed>2.2</speed>
<temp>0.00</temp>
<bpm>0</bpm>
<rpm>0.00</rpm>
</extensions>
</trkpt>
<trkpt lat="32.588344574" lon="35.016780853">
  <ele>143.935608</ele>
  <time>2012-06-23T04:28:13Z</time>
<extensions>
<speed>2.1</speed>
<temp>0.00</temp>
<bpm>0</bpm>
<rpm>0.00</rpm>
</extensions>
</trkpt>
<trkpt lat="32.588386536" lon="35.016796112">
  <ele>143.966858</ele>
  <time>2012-06-23T04:28:15Z</time>
<extensions>
<speed>2.9</speed>
<temp>0.00</temp>
<bpm>0</bpm>
<rpm>0.00</rpm>
</extensions>
</trkpt>
<trkpt lat="32.588413239" lon="35.016803741">
  <ele>144.970764</ele>
  <time>2012-06-23T04:28:16Z</time>
<extensions>
<speed>2.9</speed>
<temp>0.00</temp>
<bpm>0</bpm>
<rpm>0.00</rpm>
</extensions>
</trkpt>
<trkpt lat="32.588432312" lon="35.016826630">
  <ele>144.080139</ele>
  <time>2012-06-23T04:28:17Z</time>
<extensions>
<speed>2.9</speed>
<temp>0.00</temp>
<bpm>0</bpm>
<rpm>0.00</rpm>
</extensions>
</trkpt>
<trkpt lat="32.588459015" lon="35.016841888">
  <ele>144.408264</ele>
  <time>2012-06-23T04:28:18Z</time>
<extensions>
<speed>2.5</speed>
<temp>0.00</temp>
<bpm>0</bpm>
<rpm>0.00</rpm>
</extensions>
</trkpt>
<trkpt lat="32.588497162" lon="35.016864777">
  <ele>144.341858</ele>
  <time>2012-06-23T04:28:20Z</time>
<extensions>
<speed>2.5</speed>
<temp>0.00</temp>
<bpm>0</bpm>
<rpm>0.00</rpm>
</extensions>
</trkpt>
<trkpt lat="32.588531494" lon="35.016883850">
  <ele>144.818420</ele>
  <time>2012-06-23T04:28:22Z</time>
<extensions>
<speed>2.5</speed>
<temp>0.00</temp>
<bpm>0</bpm>
<rpm>0.00</rpm>
</extensions>
</trkpt>
<trkpt lat="32.588573456" lon="35.016921997">
  <ele>145.752014</ele>
  <time>2012-06-23T04:28:24Z</time>
<extensions>
<speed>2.7</speed>
<temp>0.00</temp>
<bpm>0</bpm>
<rpm>0.00</rpm>
</extensions>
</trkpt>
<trkpt lat="32.588600159" lon="35.016963959">
  <ele>146.005920</ele>
  <time>2012-06-23T04:28:26Z</time>
<extensions>
<speed>2.4</speed>
<temp>0.00</temp>
<bpm>0</bpm>
<rpm>0.00</rpm>
</extensions>
</trkpt>
<trkpt lat="32.588626862" lon="35.017017365">
  <ele>146.408264</ele>
  <time>2012-06-23T04:28:28Z</time>
<extensions>
<speed>2.8</speed>
<temp>0.00</temp>
<bpm>0</bpm>
<rpm>0.00</rpm>
</extensions>
</trkpt>
<trkpt lat="32.588645935" lon="35.017066956">
  <ele>147.029358</ele>
  <time>2012-06-23T04:28:30Z</time>
<extensions>
<speed>2.1</speed>
<temp>0.00</temp>
<bpm>0</bpm>
<rpm>0.00</rpm>
</extensions>
</trkpt>
<trkpt lat="32.588668823" lon="35.017112732">
  <ele>147.752014</ele>
  <time>2012-06-23T04:28:32Z</time>
<extensions>
<speed>2.5</speed>
<temp>0.00</temp>
<bpm>0</bpm>
<rpm>0.00</rpm>
</extensions>
</trkpt>
<trkpt lat="32.588684082" lon="35.017154694">
  <ele>148.435608</ele>
  <time>2012-06-23T04:28:34Z</time>
<extensions>
<speed>2.2</speed>
<temp>0.00</temp>
<bpm>0</bpm>
<rpm>0.00</rpm>
</extensions>
</trkpt>
<trkpt lat="32.588703156" lon="35.017200470">
  <ele>149.556702</ele>
  <time>2012-06-23T04:28:36Z</time>
<extensions>
<speed>2.2</speed>
<temp>0.00</temp>
<bpm>0</bpm>
<rpm>0.00</rpm>
</extensions>
</trkpt>
<trkpt lat="32.588714600" lon="35.017242432">
  <ele>149.654358</ele>
  <time>2012-06-23T04:28:38Z</time>
<extensions>
<speed>2.3</speed>
<temp>0.00</temp>
<bpm>0</bpm>
<rpm>0.00</rpm>
</extensions>
</trkpt>
<trkpt lat="32.588726044" lon="35.017288208">
  <ele>150.826233</ele>
  <time>2012-06-23T04:28:40Z</time>
<extensions>
<speed>2.3</speed>
<temp>0.00</temp>
<bpm>0</bpm>
<rpm>0.00</rpm>
</extensions>
</trkpt>
<trkpt lat="32.588729858" lon="35.017341614">
  <ele>151.431702</ele>
  <time>2012-06-23T04:28:42Z</time>
<extensions>
<speed>2.5</speed>
<temp>0.00</temp>
<bpm>0</bpm>
<rpm>0.00</rpm>
</extensions>
</trkpt>
<trkpt lat="32.588737488" lon="35.017387390">
  <ele>151.849670</ele>
  <time>2012-06-23T04:28:44Z</time>
<extensions>
<speed>2.1</speed>
<temp>0.00</temp>
<bpm>0</bpm>
<rpm>0.00</rpm>
</extensions>
</trkpt>
<trkpt lat="32.588741302" lon="35.017440796">
  <ele>153.111389</ele>
  <time>2012-06-23T04:28:46Z</time>
<extensions>
<speed>2.0</speed>
<temp>0.00</temp>
<bpm>0</bpm>
<rpm>0.00</rpm>
</extensions>
</trkpt>
<trkpt lat="32.588752747" lon="35.017486572">
  <ele>152.517639</ele>
  <time>2012-06-23T04:28:48Z</time>
<extensions>
<speed>1.9</speed>
<temp>0.00</temp>
<bpm>0</bpm>
<rpm>0.00</rpm>
</extensions>
</trkpt>
<trkpt lat="32.588756561" lon="35.017536163">
  <ele>151.677795</ele>
  <time>2012-06-23T04:28:50Z</time>
<extensions>
<speed>1.8</speed>
<temp>0.00</temp>
<bpm>0</bpm>
<rpm>0.00</rpm>
</extensions>
</trkpt>
<trkpt lat="32.588752747" lon="35.017581940">
  <ele>151.146545</ele>
  <time>2012-06-23T04:28:53Z</time>
<extensions>
<speed>1.6</speed>
<temp>0.00</temp>
<bpm>0</bpm>
<rpm>0.00</rpm>
</extensions>
</trkpt>
<trkpt lat="32.588745117" lon="35.017620087">
  <ele>150.697327</ele>
  <time>2012-06-23T04:28:55Z</time>
<extensions>
<speed>2.1</speed>
<temp>0.00</temp>
<bpm>0</bpm>
<rpm>0.00</rpm>
</extensions>
</trkpt>
<trkpt lat="32.588745117" lon="35.017658234">
  <ele>149.845764</ele>
  <time>2012-06-23T04:28:57Z</time>
<extensions>
<speed>1.8</speed>
<temp>0.00</temp>
<bpm>0</bpm>
<rpm>0.00</rpm>
</extensions>
</trkpt>
<trkpt lat="32.588756561" lon="35.017715454">
  <ele>150.892639</ele>
  <time>2012-06-23T04:28:59Z</time>
<extensions>
<speed>1.4</speed>
<temp>0.00</temp>
<bpm>0</bpm>
<rpm>0.00</rpm>
</extensions>
</trkpt>
<trkpt lat="32.588760376" lon="35.017749786">
  <ele>150.927795</ele>
  <time>2012-06-23T04:29:01Z</time>
<extensions>
<speed>1.5</speed>
<temp>0.00</temp>
<bpm>0</bpm>
<rpm>0.00</rpm>
</extensions>
</trkpt>
<trkpt lat="32.588745117" lon="35.017791748">
  <ele>149.791077</ele>
  <time>2012-06-23T04:29:03Z</time>
<extensions>
<speed>2.1</speed>
<temp>0.00</temp>
<bpm>0</bpm>
<rpm>0.00</rpm>
</extensions>
</trkpt>
<trkpt lat="32.588733673" lon="35.017848969">
  <ele>149.400452</ele>
  <time>2012-06-23T04:29:05Z</time>
<extensions>
<speed>2.3</speed>
<temp>0.00</temp>
<bpm>0</bpm>
<rpm>0.00</rpm>
</extensions>
</trkpt>
<trkpt lat="32.588726044" lon="35.017894745">
  <ele>148.728577</ele>
  <time>2012-06-23T04:29:07Z</time>
<extensions>
<speed>1.9</speed>
<temp>0.00</temp>
<bpm>0</bpm>
<rpm>0.00</rpm>
</extensions>
</trkpt>
<trkpt lat="32.588741302" lon="35.017948151">
  <ele>148.115295</ele>
  <time>2012-06-23T04:29:09Z</time>
<extensions>
<speed>1.8</speed>
<temp>0.00</temp>
<bpm>0</bpm>
<rpm>0.00</rpm>
</extensions>
</trkpt>
<trkpt lat="32.588745117" lon="35.017978668">
  <ele>148.502014</ele>
  <time>2012-06-23T04:29:10Z</time>
<extensions>
<speed>2.3</speed>
<temp>0.00</temp>
<bpm>0</bpm>
<rpm>0.00</rpm>
</extensions>
</trkpt>
<trkpt lat="32.588752747" lon="35.018047333">
  <ele>148.552795</ele>
  <time>2012-06-23T04:29:12Z</time>
<extensions>
<speed>2.5</speed>
<temp>0.00</temp>
<bpm>0</bpm>
<rpm>0.00</rpm>
</extensions>
</trkpt>
<trkpt lat="32.588752747" lon="35.018100739">
  <ele>147.794983</ele>
  <time>2012-06-23T04:29:14Z</time>
<extensions>
<speed>2.7</speed>
<temp>0.00</temp>
<bpm>0</bpm>
<rpm>0.00</rpm>
</extensions>
</trkpt>
<trkpt lat="32.588764191" lon="35.018165588">
  <ele>147.837952</ele>
  <time>2012-06-23T04:29:16Z</time>
<extensions>
<speed>3.5</speed>
<temp>0.00</temp>
<bpm>0</bpm>
<rpm>0.00</rpm>
</extensions>
</trkpt>
<trkpt lat="32.588764191" lon="35.018199921">
  <ele>147.369202</ele>
  <time>2012-06-23T04:29:17Z</time>
<extensions>
<speed>3.4</speed>
<temp>0.00</temp>
<bpm>0</bpm>
<rpm>0.00</rpm>
</extensions>
</trkpt>
<trkpt lat="32.588760376" lon="35.018238068">
  <ele>146.986389</ele>
  <time>2012-06-23T04:29:18Z</time>
<extensions>
<speed>3.0</speed>
<temp>0.00</temp>
<bpm>0</bpm>
<rpm>0.00</rpm>
</extensions>
</trkpt>
<trkpt lat="32.588760376" lon="35.018287659">
  <ele>148.025452</ele>
  <time>2012-06-23T04:29:19Z</time>
<extensions>
<speed>2.9</speed>
<temp>0.00</temp>
<bpm>0</bpm>
<rpm>0.00</rpm>
</extensions>
</trkpt>
<trkpt lat="32.588748932" lon="35.018341064">
  <ele>148.380920</ele>
  <time>2012-06-23T04:29:21Z</time>
<extensions>
<speed>2.5</speed>
<temp>0.00</temp>
<bpm>0</bpm>
<rpm>0.00</rpm>
</extensions>
</trkpt>
<trkpt lat="32.588748932" lon="35.018375397">
  <ele>148.693420</ele>
  <time>2012-06-23T04:29:22Z</time>
<extensions>
<speed>2.5</speed>
<temp>0.00</temp>
<bpm>0</bpm>
<rpm>0.00</rpm>
</extensions>
</trkpt>
<trkpt lat="32.588741302" lon="35.018424988">
  <ele>148.318420</ele>
  <time>2012-06-23T04:29:24Z</time>
<extensions>
<speed>2.4</speed>
<temp>0.00</temp>
<bpm>0</bpm>
<rpm>0.00</rpm>
</extensions>
</trkpt>
<trkpt lat="32.588737488" lon="35.018497467">
  <ele>149.677795</ele>
  <time>2012-06-23T04:29:26Z</time>
<extensions>
<speed>2.7</speed>
<temp>0.00</temp>
<bpm>0</bpm>
<rpm>0.00</rpm>
</extensions>
</trkpt>
<trkpt lat="32.588718414" lon="35.018543243">
  <ele>148.568420</ele>
  <time>2012-06-23T04:29:28Z</time>
<extensions>
<speed>2.0</speed>
<temp>0.00</temp>
<bpm>0</bpm>
<rpm>0.00</rpm>
</extensions>
</trkpt>
<trkpt lat="32.588714600" lon="35.018596649">
  <ele>148.154358</ele>
  <time>2012-06-23T04:29:30Z</time>
<extensions>
<speed>2.4</speed>
<temp>0.00</temp>
<bpm>0</bpm>
<rpm>0.00</rpm>
</extensions>
</trkpt>
<trkpt lat="32.588695526" lon="35.018653870">
  <ele>147.216858</ele>
  <time>2012-06-23T04:29:32Z</time>
<extensions>
<speed>2.3</speed>
<temp>0.00</temp>
<bpm>0</bpm>
<rpm>0.00</rpm>
</extensions>
</trkpt>
<trkpt lat="32.588684082" lon="35.018711090">
  <ele>145.990295</ele>
  <time>2012-06-23T04:29:34Z</time>
<extensions>
<speed>2.2</speed>
<temp>0.00</temp>
<bpm>0</bpm>
<rpm>0.00</rpm>
</extensions>
</trkpt>
<trkpt lat="32.588668823" lon="35.018756866">
  <ele>145.134827</ele>
  <time>2012-06-23T04:29:36Z</time>
<extensions>
<speed>2.2</speed>
<temp>0.00</temp>
<bpm>0</bpm>
<rpm>0.00</rpm>
</extensions>
</trkpt>
<trkpt lat="32.588653564" lon="35.018798828">
  <ele>144.654358</ele>
  <time>2012-06-23T04:29:38Z</time>
<extensions>
<speed>1.9</speed>
<temp>0.00</temp>
<bpm>0</bpm>
<rpm>0.00</rpm>
</extensions>
</trkpt>
<trkpt lat="32.588645935" lon="35.018829346">
  <ele>144.513733</ele>
  <time>2012-06-23T04:29:40Z</time>
<extensions>
<speed>1.6</speed>
<temp>0.00</temp>
<bpm>0</bpm>
<rpm>0.00</rpm>
</extensions>
</trkpt>
<trkpt lat="32.588638306" lon="35.018867493">
  <ele>144.166077</ele>
  <time>2012-06-23T04:29:42Z</time>
<extensions>
<speed>1.6</speed>
<temp>0.00</temp>
<bpm>0</bpm>
<rpm>0.00</rpm>
</extensions>
</trkpt>
<trkpt lat="32.588619232" lon="35.018905640">
  <ele>143.380920</ele>
  <time>2012-06-23T04:29:44Z</time>
<extensions>
<speed>2.3</speed>
<temp>0.00</temp>
<bpm>0</bpm>
<rpm>0.00</rpm>
</extensions>
</trkpt>
<trkpt lat="32.588603973" lon="35.018959045">
  <ele>143.337952</ele>
  <time>2012-06-23T04:29:46Z</time>
<extensions>
<speed>2.8</speed>
<temp>0.00</temp>
<bpm>0</bpm>
<rpm>0.00</rpm>
</extensions>
</trkpt>
<trkpt lat="32.588584900" lon="35.018985748">
  <ele>143.091858</ele>
  <time>2012-06-23T04:29:47Z</time>
<extensions>
<speed>2.8</speed>
<temp>0.00</temp>
<bpm>0</bpm>
<rpm>0.00</rpm>
</extensions>
</trkpt>
<trkpt lat="32.588573456" lon="35.019012451">
  <ele>142.607483</ele>
  <time>2012-06-23T04:29:48Z</time>
<extensions>
<speed>2.6</speed>
<temp>0.00</temp>
<bpm>0</bpm>
<rpm>0.00</rpm>
</extensions>
</trkpt>
<trkpt lat="32.588562012" lon="35.019046783">
  <ele>142.459045</ele>
  <time>2012-06-23T04:29:49Z</time>
<extensions>
<speed>2.8</speed>
<temp>0.00</temp>
<bpm>0</bpm>
<rpm>0.00</rpm>
</extensions>
</trkpt>
<trkpt lat="32.588550568" lon="35.019077301">
  <ele>142.607483</ele>
  <time>2012-06-23T04:29:50Z</time>
<extensions>
<speed>2.7</speed>
<temp>0.00</temp>
<bpm>0</bpm>
<rpm>0.00</rpm>
</extensions>
</trkpt>
<trkpt lat="32.588535309" lon="35.019104004">
  <ele>142.240295</ele>
  <time>2012-06-23T04:29:51Z</time>
<extensions>
<speed>2.5</speed>
<temp>0.00</temp>
<bpm>0</bpm>
<rpm>0.00</rpm>
</extensions>
</trkpt>
<trkpt lat="32.588520050" lon="35.019130707">
  <ele>142.494202</ele>
  <time>2012-06-23T04:29:52Z</time>
<extensions>
<speed>2.6</speed>
<temp>0.00</temp>
<bpm>0</bpm>
<rpm>0.00</rpm>
</extensions>
</trkpt>
<trkpt lat="32.588508606" lon="35.019191742">
  <ele>141.322327</ele>
  <time>2012-06-23T04:29:54Z</time>
<extensions>
<speed>2.6</speed>
<temp>0.00</temp>
<bpm>0</bpm>
<rpm>0.00</rpm>
</extensions>
</trkpt>
<trkpt lat="32.588497162" lon="35.019226074">
  <ele>140.599670</ele>
  <time>2012-06-23T04:29:55Z</time>
<extensions>
<speed>3.1</speed>
<temp>0.00</temp>
<bpm>0</bpm>
<rpm>0.00</rpm>
</extensions>
</trkpt>
<trkpt lat="32.588489532" lon="35.019256592">
  <ele>140.252014</ele>
  <time>2012-06-23T04:29:56Z</time>
<extensions>
<speed>2.9</speed>
<temp>0.00</temp>
<bpm>0</bpm>
<rpm>0.00</rpm>
</extensions>
</trkpt>
<trkpt lat="32.588470459" lon="35.019294739">
  <ele>139.560608</ele>
  <time>2012-06-23T04:29:57Z</time>
<extensions>
<speed>2.4</speed>
<temp>0.00</temp>
<bpm>0</bpm>
<rpm>0.00</rpm>
</extensions>
</trkpt>
<trkpt lat="32.588447571" lon="35.019359589">
  <ele>138.447327</ele>
  <time>2012-06-23T04:29:59Z</time>
<extensions>
<speed>3.0</speed>
<temp>0.00</temp>
<bpm>0</bpm>
<rpm>0.00</rpm>
</extensions>
</trkpt>
<trkpt lat="32.588436127" lon="35.019390106">
  <ele>138.634827</ele>
  <time>2012-06-23T04:30:00Z</time>
<extensions>
<speed>2.8</speed>
<temp>0.00</temp>
<bpm>0</bpm>
<rpm>0.00</rpm>
</extensions>
</trkpt>
<trkpt lat="32.588420868" lon="35.019424438">
  <ele>138.478577</ele>
  <time>2012-06-23T04:30:01Z</time>
<extensions>
<speed>3.0</speed>
<temp>0.00</temp>
<bpm>0</bpm>
<rpm>0.00</rpm>
</extensions>
</trkpt>
<trkpt lat="32.588409424" lon="35.019462585">
  <ele>138.974670</ele>
  <time>2012-06-23T04:30:02Z</time>
<extensions>
<speed>2.6</speed>
<temp>0.00</temp>
<bpm>0</bpm>
<rpm>0.00</rpm>
</extensions>
</trkpt>
<trkpt lat="32.588405609" lon="35.019496918">
  <ele>139.107483</ele>
  <time>2012-06-23T04:30:03Z</time>
<extensions>
<speed>2.2</speed>
<temp>0.00</temp>
<bpm>0</bpm>
<rpm>0.00</rpm>
</extensions>
</trkpt>
<trkpt lat="32.588386536" lon="35.019554138">
  <ele>139.822327</ele>
  <time>2012-06-23T04:30:05Z</time>
<extensions>
<speed>2.0</speed>
<temp>0.00</temp>
<bpm>0</bpm>
<rpm>0.00</rpm>
</extensions>
</trkpt>
<trkpt lat="32.588390350" lon="35.019588470">
  <ele>141.943420</ele>
  <time>2012-06-23T04:30:06Z</time>
<extensions>
<speed>2.1</speed>
<temp>0.00</temp>
<bpm>0</bpm>
<rpm>0.00</rpm>
</extensions>
</trkpt>
<trkpt lat="32.588371277" lon="35.019676208">
  <ele>145.107483</ele>
  <time>2012-06-23T04:30:08Z</time>
<extensions>
<speed>2.0</speed>
<temp>0.00</temp>
<bpm>0</bpm>
<rpm>0.00</rpm>
</extensions>
</trkpt>
<trkpt lat="32.588363647" lon="35.019729614">
  <ele>147.435608</ele>
  <time>2012-06-23T04:30:10Z</time>
<extensions>
<speed>2.2</speed>
<temp>0.00</temp>
<bpm>0</bpm>
<rpm>0.00</rpm>
</extensions>
</trkpt>
<trkpt lat="32.588359833" lon="35.019775391">
  <ele>148.404358</ele>
  <time>2012-06-23T04:30:12Z</time>
<extensions>
<speed>1.6</speed>
<temp>0.00</temp>
<bpm>0</bpm>
<rpm>0.00</rpm>
</extensions>
</trkpt>
<trkpt lat="32.588329315" lon="35.019798279">
  <ele>147.201233</ele>
  <time>2012-06-23T04:30:14Z</time>
<extensions>
<speed>2.1</speed>
<temp>0.00</temp>
<bpm>0</bpm>
<rpm>0.00</rpm>
</extensions>
</trkpt>
<trkpt lat="32.588298798" lon="35.019809723">
  <ele>147.072327</ele>
  <time>2012-06-23T04:30:16Z</time>
<extensions>
<speed>1.4</speed>
<temp>0.00</temp>
<bpm>0</bpm>
<rpm>0.00</rpm>
</extensions>
</trkpt>
<trkpt lat="32.588268280" lon="35.019817352">
  <ele>147.353577</ele>
  <time>2012-06-23T04:30:18Z</time>
<extensions>
<speed>1.3</speed>
<temp>0.00</temp>
<bpm>0</bpm>
<rpm>0.00</rpm>
</extensions>
</trkpt>
<trkpt lat="32.588272095" lon="35.019847870">
  <ele>147.916077</ele>
  <time>2012-06-23T04:30:21Z</time>
<extensions>
<speed>0.7</speed>
<temp>0.00</temp>
<bpm>0</bpm>
<rpm>0.00</rpm>
</extensions>
</trkpt>
<trkpt lat="32.588291168" lon="35.019878387">
  <ele>149.935608</ele>
  <time>2012-06-23T04:30:22Z</time>
<extensions>
<speed>1.3</speed>
<temp>0.00</temp>
<bpm>0</bpm>
<rpm>0.00</rpm>
</extensions>
</trkpt>
<trkpt lat="32.588329315" lon="35.019863129">
  <ele>151.642639</ele>
  <time>2012-06-23T04:30:26Z</time>
<extensions>
<speed>1.7</speed>
<temp>0.00</temp>
<bpm>0</bpm>
<rpm>0.00</rpm>
</extensions>
</trkpt>
<trkpt lat="32.588344574" lon="35.019832611">
  <ele>151.689514</ele>
  <time>2012-06-23T04:30:28Z</time>
<extensions>
<speed>1.4</speed>
<temp>0.00</temp>
<bpm>0</bpm>
<rpm>0.00</rpm>
</extensions>
</trkpt>
<trkpt lat="32.588363647" lon="35.019794464">
  <ele>152.544983</ele>
  <time>2012-06-23T04:30:31Z</time>
<extensions>
<speed>1.8</speed>
<temp>0.00</temp>
<bpm>0</bpm>
<rpm>0.00</rpm>
</extensions>
</trkpt>
<trkpt lat="32.588390350" lon="35.019756317">
  <ele>153.193420</ele>
  <time>2012-06-23T04:30:33Z</time>
<extensions>
<speed>2.0</speed>
<temp>0.00</temp>
<bpm>0</bpm>
<rpm>0.00</rpm>
</extensions>
</trkpt>
<trkpt lat="32.588413239" lon="35.019706726">
  <ele>152.861389</ele>
  <time>2012-06-23T04:30:35Z</time>
<extensions>
<speed>2.0</speed>
<temp>0.00</temp>
<bpm>0</bpm>
<rpm>0.00</rpm>
</extensions>
</trkpt>
<trkpt lat="32.588424683" lon="35.019657135">
  <ele>152.384827</ele>
  <time>2012-06-23T04:30:37Z</time>
<extensions>
<speed>2.0</speed>
<temp>0.00</temp>
<bpm>0</bpm>
<rpm>0.00</rpm>
</extensions>
</trkpt>
<trkpt lat="32.588451385" lon="35.019607544">
  <ele>152.154358</ele>
  <time>2012-06-23T04:30:39Z</time>
<extensions>
<speed>2.4</speed>
<temp>0.00</temp>
<bpm>0</bpm>
<rpm>0.00</rpm>
</extensions>
</trkpt>
<trkpt lat="32.588462830" lon="35.019577026">
  <ele>152.419983</ele>
  <time>2012-06-23T04:30:40Z</time>
<extensions>
<speed>2.4</speed>
<temp>0.00</temp>
<bpm>0</bpm>
<rpm>0.00</rpm>
</extensions>
</trkpt>
<trkpt lat="32.588478088" lon="35.019527435">
  <ele>152.595764</ele>
  <time>2012-06-23T04:30:41Z</time>
<extensions>
<speed>2.9</speed>
<temp>0.00</temp>
<bpm>0</bpm>
<rpm>0.00</rpm>
</extensions>
</trkpt>
<trkpt lat="32.588489532" lon="35.019496918">
  <ele>152.599670</ele>
  <time>2012-06-23T04:30:42Z</time>
<extensions>
<speed>2.8</speed>
<temp>0.00</temp>
<bpm>0</bpm>
<rpm>0.00</rpm>
</extensions>
</trkpt>
<trkpt lat="32.588493347" lon="35.019466400">
  <ele>152.736389</ele>
  <time>2012-06-23T04:30:43Z</time>
<extensions>
<speed>2.5</speed>
<temp>0.00</temp>
<bpm>0</bpm>
<rpm>0.00</rpm>
</extensions>
</trkpt>
<trkpt lat="32.588508606" lon="35.019416809">
  <ele>152.693420</ele>
  <time>2012-06-23T04:30:45Z</time>
<extensions>
<speed>2.3</speed>
<temp>0.00</temp>
<bpm>0</bpm>
<rpm>0.00</rpm>
</extensions>
</trkpt>
<trkpt lat="32.588512421" lon="35.019382477">
  <ele>153.064514</ele>
  <time>2012-06-23T04:30:46Z</time>
<extensions>
<speed>2.5</speed>
<temp>0.00</temp>
<bpm>0</bpm>
<rpm>0.00</rpm>
</extensions>
</trkpt>
<trkpt lat="32.588520050" lon="35.019348145">
  <ele>153.716858</ele>
  <time>2012-06-23T04:30:47Z</time>
<extensions>
<speed>2.4</speed>
<temp>0.00</temp>
<bpm>0</bpm>
<rpm>0.00</rpm>
</extensions>
</trkpt>
<trkpt lat="32.588520050" lon="35.019313812">
  <ele>153.541077</ele>
  <time>2012-06-23T04:30:48Z</time>
<extensions>
<speed>2.6</speed>
<temp>0.00</temp>
<bpm>0</bpm>
<rpm>0.00</rpm>
</extensions>
</trkpt>
<trkpt lat="32.588539124" lon="35.019256592">
  <ele>154.056702</ele>
  <time>2012-06-23T04:30:50Z</time>
<extensions>
<speed>2.4</speed>
<temp>0.00</temp>
<bpm>0</bpm>
<rpm>0.00</rpm>
</extensions>
</trkpt>
<trkpt lat="32.588546753" lon="35.019203186">
  <ele>153.669983</ele>
  <time>2012-06-23T04:30:52Z</time>
<extensions>
<speed>2.3</speed>
<temp>0.00</temp>
<bpm>0</bpm>
<rpm>0.00</rpm>
</extensions>
</trkpt>
<trkpt lat="32.588554382" lon="35.019165039">
  <ele>153.767639</ele>
  <time>2012-06-23T04:30:53Z</time>
<extensions>
<speed>2.6</speed>
<temp>0.00</temp>
<bpm>0</bpm>
<rpm>0.00</rpm>
</extensions>
</trkpt>
<trkpt lat="32.588565826" lon="35.019134521">
  <ele>153.119202</ele>
  <time>2012-06-23T04:30:54Z</time>
<extensions>
<speed>2.2</speed>
<temp>0.00</temp>
<bpm>0</bpm>
<rpm>0.00</rpm>
</extensions>
</trkpt>
<trkpt lat="32.588607788" lon="35.019088745">
  <ele>153.970764</ele>
  <time>2012-06-23T04:30:56Z</time>
<extensions>
<speed>1.9</speed>
<temp>0.00</temp>
<bpm>0</bpm>
<rpm>0.00</rpm>
</extensions>
</trkpt>
<trkpt lat="32.588630676" lon="35.019058228">
  <ele>154.720764</ele>
  <time>2012-06-23T04:30:58Z</time>
<extensions>
<speed>1.5</speed>
<temp>0.00</temp>
<bpm>0</bpm>
<rpm>0.00</rpm>
</extensions>
</trkpt>
<trkpt lat="32.588634491" lon="35.019016266">
  <ele>155.041077</ele>
  <time>2012-06-23T04:31:00Z</time>
<extensions>
<speed>1.3</speed>
<temp>0.00</temp>
<bpm>0</bpm>
<rpm>0.00</rpm>
</extensions>
</trkpt>
<trkpt lat="32.588642120" lon="35.018962860">
  <ele>154.904358</ele>
  <time>2012-06-23T04:31:02Z</time>
<extensions>
<speed>1.0</speed>
<temp>0.00</temp>
<bpm>0</bpm>
<rpm>0.00</rpm>
</extensions>
</trkpt>
<trkpt lat="32.588615417" lon="35.018981934">
  <ele>154.095764</ele>
  <time>2012-06-23T04:31:05Z</time>
<extensions>
<speed>1.2</speed>
<temp>0.00</temp>
<bpm>0</bpm>
<rpm>0.00</rpm>
</extensions>
</trkpt>
<trkpt lat="32.588615417" lon="35.019020081">
  <ele>154.349670</ele>
  <time>2012-06-23T04:31:08Z</time>
<extensions>
<speed>1.0</speed>
<temp>0.00</temp>
<bpm>0</bpm>
<rpm>0.00</rpm>
</extensions>
</trkpt>
<trkpt lat="32.588607788" lon="35.019054413">
  <ele>153.115295</ele>
  <time>2012-06-23T04:31:10Z</time>
<extensions>
<speed>1.6</speed>
<temp>0.00</temp>
<bpm>0</bpm>
<rpm>0.00</rpm>
</extensions>
</trkpt>
<trkpt lat="32.588592529" lon="35.019084930">
  <ele>152.505920</ele>
  <time>2012-06-23T04:31:12Z</time>
<extensions>
<speed>1.9</speed>
<temp>0.00</temp>
<bpm>0</bpm>
<rpm>0.00</rpm>
</extensions>
</trkpt>
<trkpt lat="32.588588715" lon="35.019123077">
  <ele>151.712952</ele>
  <time>2012-06-23T04:31:14Z</time>
<extensions>
<speed>1.9</speed>
<temp>0.00</temp>
<bpm>0</bpm>
<rpm>0.00</rpm>
</extensions>
</trkpt>
<trkpt lat="32.588569641" lon="35.019157410">
  <ele>150.794983</ele>
  <time>2012-06-23T04:31:16Z</time>
<extensions>
<speed>1.5</speed>
<temp>0.00</temp>
<bpm>0</bpm>
<rpm>0.00</rpm>
</extensions>
</trkpt>
<trkpt lat="32.588550568" lon="35.019184113">
  <ele>150.513733</ele>
  <time>2012-06-23T04:31:18Z</time>
<extensions>
<speed>1.7</speed>
<temp>0.00</temp>
<bpm>0</bpm>
<rpm>0.00</rpm>
</extensions>
</trkpt>
<trkpt lat="32.588539124" lon="35.019218445">
  <ele>150.119202</ele>
  <time>2012-06-23T04:31:20Z</time>
<extensions>
<speed>2.0</speed>
<temp>0.00</temp>
<bpm>0</bpm>
<rpm>0.00</rpm>
</extensions>
</trkpt>
<trkpt lat="32.588531494" lon="35.019248962">
  <ele>149.599670</ele>
  <time>2012-06-23T04:31:21Z</time>
<extensions>
<speed>2.3</speed>
<temp>0.00</temp>
<bpm>0</bpm>
<rpm>0.00</rpm>
</extensions>
</trkpt>
<trkpt lat="32.588512421" lon="35.019302368">
  <ele>148.951233</ele>
  <time>2012-06-23T04:31:23Z</time>
<extensions>
<speed>2.5</speed>
<temp>0.00</temp>
<bpm>0</bpm>
<rpm>0.00</rpm>
</extensions>
</trkpt>
<trkpt lat="32.588500977" lon="35.019329071">
  <ele>148.412170</ele>
  <time>2012-06-23T04:31:24Z</time>
<extensions>
<speed>2.5</speed>
<temp>0.00</temp>
<bpm>0</bpm>
<rpm>0.00</rpm>
</extensions>
</trkpt>
<trkpt lat="32.588493347" lon="35.019359589">
  <ele>147.330139</ele>
  <time>2012-06-23T04:31:25Z</time>
<extensions>
<speed>2.9</speed>
<temp>0.00</temp>
<bpm>0</bpm>
<rpm>0.00</rpm>
</extensions>
</trkpt>
<trkpt lat="32.588478088" lon="35.019390106">
  <ele>146.849670</ele>
  <time>2012-06-23T04:31:26Z</time>
<extensions>
<speed>3.0</speed>
<temp>0.00</temp>
<bpm>0</bpm>
<rpm>0.00</rpm>
</extensions>
</trkpt>
<trkpt lat="32.588459015" lon="35.019420624">
  <ele>146.521545</ele>
  <time>2012-06-23T04:31:27Z</time>
<extensions>
<speed>3.1</speed>
<temp>0.00</temp>
<bpm>0</bpm>
<rpm>0.00</rpm>
</extensions>
</trkpt>
<trkpt lat="32.588447571" lon="35.019454956">
  <ele>145.783264</ele>
  <time>2012-06-23T04:31:28Z</time>
<extensions>
<speed>2.8</speed>
<temp>0.00</temp>
<bpm>0</bpm>
<rpm>0.00</rpm>
</extensions>
</trkpt>
<trkpt lat="32.588432312" lon="35.019485474">
  <ele>145.252014</ele>
  <time>2012-06-23T04:31:29Z</time>
<extensions>
<speed>2.6</speed>
<temp>0.00</temp>
<bpm>0</bpm>
<rpm>0.00</rpm>
</extensions>
</trkpt>
<trkpt lat="32.588409424" lon="35.019535065">
  <ele>144.802795</ele>
  <time>2012-06-23T04:31:31Z</time>
<extensions>
<speed>2.7</speed>
<temp>0.00</temp>
<bpm>0</bpm>
<rpm>0.00</rpm>
</extensions>
</trkpt>
<trkpt lat="32.588397980" lon="35.019565582">
  <ele>144.845764</ele>
  <time>2012-06-23T04:31:32Z</time>
<extensions>
<speed>2.7</speed>
<temp>0.00</temp>
<bpm>0</bpm>
<rpm>0.00</rpm>
</extensions>
</trkpt>
<trkpt lat="32.588378906" lon="35.019596100">
  <ele>145.013733</ele>
  <time>2012-06-23T04:31:33Z</time>
<extensions>
<speed>3.1</speed>
<temp>0.00</temp>
<bpm>0</bpm>
<rpm>0.00</rpm>
</extensions>
</trkpt>
<trkpt lat="32.588367462" lon="35.019626617">
  <ele>145.681702</ele>
  <time>2012-06-23T04:31:34Z</time>
<extensions>
<speed>2.6</speed>
<temp>0.00</temp>
<bpm>0</bpm>
<rpm>0.00</rpm>
</extensions>
</trkpt>
<trkpt lat="32.588336945" lon="35.019683838">
  <ele>146.197327</ele>
  <time>2012-06-23T04:31:36Z</time>
<extensions>
<speed>2.4</speed>
<temp>0.00</temp>
<bpm>0</bpm>
<rpm>0.00</rpm>
</extensions>
</trkpt>
<trkpt lat="32.588302612" lon="35.019725800">
  <ele>145.783264</ele>
  <time>2012-06-23T04:31:38Z</time>
<extensions>
<speed>2.5</speed>
<temp>0.00</temp>
<bpm>0</bpm>
<rpm>0.00</rpm>
</extensions>
</trkpt>
<trkpt lat="32.588279724" lon="35.019763947">
  <ele>146.181702</ele>
  <time>2012-06-23T04:31:39Z</time>
<extensions>
<speed>3.1</speed>
<temp>0.00</temp>
<bpm>0</bpm>
<rpm>0.00</rpm>
</extensions>
</trkpt>
<trkpt lat="32.588260651" lon="35.019790649">
  <ele>146.728577</ele>
  <time>2012-06-23T04:31:40Z</time>
<extensions>
<speed>2.6</speed>
<temp>0.00</temp>
<bpm>0</bpm>
<rpm>0.00</rpm>
</extensions>
</trkpt>
<trkpt lat="32.588237762" lon="35.019809723">
  <ele>147.029358</ele>
  <time>2012-06-23T04:31:41Z</time>
<extensions>
<speed>2.9</speed>
<temp>0.00</temp>
<bpm>0</bpm>
<rpm>0.00</rpm>
</extensions>
</trkpt>
<trkpt lat="32.588195801" lon="35.019844055">
  <ele>148.037170</ele>
  <time>2012-06-23T04:31:43Z</time>
<extensions>
<speed>2.8</speed>
<temp>0.00</temp>
<bpm>0</bpm>
<rpm>0.00</rpm>
</extensions>
</trkpt>
<trkpt lat="32.588153839" lon="35.019859314">
  <ele>148.037170</ele>
  <time>2012-06-23T04:31:45Z</time>
<extensions>
<speed>2.6</speed>
<temp>0.00</temp>
<bpm>0</bpm>
<rpm>0.00</rpm>
</extensions>
</trkpt>
<trkpt lat="32.588104248" lon="35.019855499">
  <ele>147.826233</ele>
  <time>2012-06-23T04:31:47Z</time>
<extensions>
<speed>2.8</speed>
<temp>0.00</temp>
<bpm>0</bpm>
<rpm>0.00</rpm>
</extensions>
</trkpt>
<trkpt lat="32.588069916" lon="35.019863129">
  <ele>147.357483</ele>
  <time>2012-06-23T04:31:48Z</time>
<extensions>
<speed>3.0</speed>
<temp>0.00</temp>
<bpm>0</bpm>
<rpm>0.00</rpm>
</extensions>
</trkpt>
<trkpt lat="32.588043213" lon="35.019866943">
  <ele>146.908264</ele>
  <time>2012-06-23T04:31:49Z</time>
<extensions>
<speed>2.8</speed>
<temp>0.00</temp>
<bpm>0</bpm>
<rpm>0.00</rpm>
</extensions>
</trkpt>
<trkpt lat="32.588012695" lon="35.019866943">
  <ele>146.056702</ele>
  <time>2012-06-23T04:31:50Z</time>
<extensions>
<speed>3.2</speed>
<temp>0.00</temp>
<bpm>0</bpm>
<rpm>0.00</rpm>
</extensions>
</trkpt>
<trkpt lat="32.587978363" lon="35.019859314">
  <ele>145.978577</ele>
  <time>2012-06-23T04:31:51Z</time>
<extensions>
<speed>2.9</speed>
<temp>0.00</temp>
<bpm>0</bpm>
<rpm>0.00</rpm>
</extensions>
</trkpt>
<trkpt lat="32.587944031" lon="35.019851685">
  <ele>145.830139</ele>
  <time>2012-06-23T04:31:52Z</time>
<extensions>
<speed>2.7</speed>
<temp>0.00</temp>
<bpm>0</bpm>
<rpm>0.00</rpm>
</extensions>
</trkpt>
<trkpt lat="32.587917328" lon="35.019844055">
  <ele>145.705139</ele>
  <time>2012-06-23T04:31:53Z</time>
<extensions>
<speed>3.0</speed>
<temp>0.00</temp>
<bpm>0</bpm>
<rpm>0.00</rpm>
</extensions>
</trkpt>
<trkpt lat="32.587890625" lon="35.019836426">
  <ele>145.502014</ele>
  <time>2012-06-23T04:31:54Z</time>
<extensions>
<speed>3.1</speed>
<temp>0.00</temp>
<bpm>0</bpm>
<rpm>0.00</rpm>
</extensions>
</trkpt>
<trkpt lat="32.587860107" lon="35.019828796">
  <ele>145.794983</ele>
  <time>2012-06-23T04:31:55Z</time>
<extensions>
<speed>2.8</speed>
<temp>0.00</temp>
<bpm>0</bpm>
<rpm>0.00</rpm>
</extensions>
</trkpt>
<trkpt lat="32.587802887" lon="35.019832611">
  <ele>148.646545</ele>
  <time>2012-06-23T04:31:56Z</time>
<extensions>
<speed>3.0</speed>
<temp>0.00</temp>
<bpm>0</bpm>
<rpm>0.00</rpm>
</extensions>
</trkpt>
<trkpt lat="32.587764740" lon="35.019821167">
  <ele>149.814514</ele>
  <time>2012-06-23T04:31:57Z</time>
<extensions>
<speed>3.1</speed>
<temp>0.00</temp>
<bpm>0</bpm>
<rpm>0.00</rpm>
</extensions>
</trkpt>
<trkpt lat="32.587734222" lon="35.019809723">
  <ele>150.400452</ele>
  <time>2012-06-23T04:31:58Z</time>
<extensions>
<speed>3.0</speed>
<temp>0.00</temp>
<bpm>0</bpm>
<rpm>0.00</rpm>
</extensions>
</trkpt>
<trkpt lat="32.587711334" lon="35.019794464">
  <ele>150.923889</ele>
  <time>2012-06-23T04:31:59Z</time>
<extensions>
<speed>3.1</speed>
<temp>0.00</temp>
<bpm>0</bpm>
<rpm>0.00</rpm>
</extensions>
</trkpt>
<trkpt lat="32.587677002" lon="35.019786835">
  <ele>151.712952</ele>
  <time>2012-06-23T04:32:00Z</time>
<extensions>
<speed>3.3</speed>
<temp>0.00</temp>
<bpm>0</bpm>
<rpm>0.00</rpm>
</extensions>
</trkpt>
<trkpt lat="32.587646484" lon="35.019771576">
  <ele>152.330139</ele>
  <time>2012-06-23T04:32:01Z</time>
<extensions>
<speed>3.2</speed>
<temp>0.00</temp>
<bpm>0</bpm>
<rpm>0.00</rpm>
</extensions>
</trkpt>
<trkpt lat="32.587612152" lon="35.019756317">
  <ele>152.779358</ele>
  <time>2012-06-23T04:32:02Z</time>
<extensions>
<speed>3.2</speed>
<temp>0.00</temp>
<bpm>0</bpm>
<rpm>0.00</rpm>
</extensions>
</trkpt>
<trkpt lat="32.587585449" lon="35.019744873">
  <ele>152.927795</ele>
  <time>2012-06-23T04:32:03Z</time>
<extensions>
<speed>3.2</speed>
<temp>0.00</temp>
<bpm>0</bpm>
<rpm>0.00</rpm>
</extensions>
</trkpt>
<trkpt lat="32.587554932" lon="35.019737244">
  <ele>152.841858</ele>
  <time>2012-06-23T04:32:04Z</time>
<extensions>
<speed>3.1</speed>
<temp>0.00</temp>
<bpm>0</bpm>
<rpm>0.00</rpm>
</extensions>
</trkpt>
<trkpt lat="32.587528229" lon="35.019733429">
  <ele>152.615295</ele>
  <time>2012-06-23T04:32:05Z</time>
<extensions>
<speed>3.0</speed>
<temp>0.00</temp>
<bpm>0</bpm>
<rpm>0.00</rpm>
</extensions>
</trkpt>
<trkpt lat="32.587501526" lon="35.019725800">
  <ele>152.798889</ele>
  <time>2012-06-23T04:32:06Z</time>
<extensions>
<speed>2.8</speed>
<temp>0.00</temp>
<bpm>0</bpm>
<rpm>0.00</rpm>
</extensions>
</trkpt>
<trkpt lat="32.587474823" lon="35.019718170">
  <ele>152.669983</ele>
  <time>2012-06-23T04:32:07Z</time>
<extensions>
<speed>3.1</speed>
<temp>0.00</temp>
<bpm>0</bpm>
<rpm>0.00</rpm>
</extensions>
</trkpt>
<trkpt lat="32.587421417" lon="35.019695282">
  <ele>152.837952</ele>
  <time>2012-06-23T04:32:09Z</time>
<extensions>
<speed>3.2</speed>
<temp>0.00</temp>
<bpm>0</bpm>
<rpm>0.00</rpm>
</extensions>
</trkpt>
<trkpt lat="32.587390900" lon="35.019687653">
  <ele>152.291077</ele>
  <time>2012-06-23T04:32:10Z</time>
<extensions>
<speed>3.2</speed>
<temp>0.00</temp>
<bpm>0</bpm>
<rpm>0.00</rpm>
</extensions>
</trkpt>
<trkpt lat="32.587341309" lon="35.019676208">
  <ele>149.888733</ele>
  <time>2012-06-23T04:32:12Z</time>
<extensions>
<speed>3.0</speed>
<temp>0.00</temp>
<bpm>0</bpm>
<rpm>0.00</rpm>
</extensions>
</trkpt>
<trkpt lat="32.587314606" lon="35.019668579">
  <ele>150.416077</ele>
  <time>2012-06-23T04:32:13Z</time>
<extensions>
<speed>2.7</speed>
<temp>0.00</temp>
<bpm>0</bpm>
<rpm>0.00</rpm>
</extensions>
</trkpt>
<trkpt lat="32.587287903" lon="35.019664764">
  <ele>150.580139</ele>
  <time>2012-06-23T04:32:14Z</time>
<extensions>
<speed>2.8</speed>
<temp>0.00</temp>
<bpm>0</bpm>
<rpm>0.00</rpm>
</extensions>
</trkpt>
<trkpt lat="32.587261200" lon="35.019657135">
  <ele>150.564514</ele>
  <time>2012-06-23T04:32:15Z</time>
<extensions>
<speed>3.1</speed>
<temp>0.00</temp>
<bpm>0</bpm>
<rpm>0.00</rpm>
</extensions>
</trkpt>
<trkpt lat="32.587226868" lon="35.019649506">
  <ele>150.677795</ele>
  <time>2012-06-23T04:32:16Z</time>
<extensions>
<speed>3.3</speed>
<temp>0.00</temp>
<bpm>0</bpm>
<rpm>0.00</rpm>
</extensions>
</trkpt>
<trkpt lat="32.587200165" lon="35.019638062">
  <ele>150.255920</ele>
  <time>2012-06-23T04:32:17Z</time>
<extensions>
<speed>3.0</speed>
<temp>0.00</temp>
<bpm>0</bpm>
<rpm>0.00</rpm>
</extensions>
</trkpt>
<trkpt lat="32.587169647" lon="35.019634247">
  <ele>150.841858</ele>
  <time>2012-06-23T04:32:18Z</time>
<extensions>
<speed>2.8</speed>
<temp>0.00</temp>
<bpm>0</bpm>
<rpm>0.00</rpm>
</extensions>
</trkpt>
<trkpt lat="32.587142944" lon="35.019622803">
  <ele>150.748108</ele>
  <time>2012-06-23T04:32:19Z</time>
<extensions>
<speed>2.8</speed>
<temp>0.00</temp>
<bpm>0</bpm>
<rpm>0.00</rpm>
</extensions>
</trkpt>
<trkpt lat="32.587112427" lon="35.019618988">
  <ele>150.537170</ele>
  <time>2012-06-23T04:32:20Z</time>
<extensions>
<speed>3.1</speed>
<temp>0.00</temp>
<bpm>0</bpm>
<rpm>0.00</rpm>
</extensions>
</trkpt>
<trkpt lat="32.587085724" lon="35.019611359">
  <ele>150.544983</ele>
  <time>2012-06-23T04:32:21Z</time>
<extensions>
<speed>2.9</speed>
<temp>0.00</temp>
<bpm>0</bpm>
<rpm>0.00</rpm>
</extensions>
</trkpt>
<trkpt lat="32.587028503" lon="35.019596100">
  <ele>151.677795</ele>
  <time>2012-06-23T04:32:23Z</time>
<extensions>
<speed>2.7</speed>
<temp>0.00</temp>
<bpm>0</bpm>
<rpm>0.00</rpm>
</extensions>
</trkpt>
<trkpt lat="32.587001801" lon="35.019592285">
  <ele>151.783264</ele>
  <time>2012-06-23T04:32:24Z</time>
<extensions>
<speed>2.8</speed>
<temp>0.00</temp>
<bpm>0</bpm>
<rpm>0.00</rpm>
</extensions>
</trkpt>
<trkpt lat="32.586967468" lon="35.019592285">
  <ele>151.884827</ele>
  <time>2012-06-23T04:32:25Z</time>
<extensions>
<speed>2.9</speed>
<temp>0.00</temp>
<bpm>0</bpm>
<rpm>0.00</rpm>
</extensions>
</trkpt>
<trkpt lat="32.586914063" lon="35.019584656">
  <ele>151.349670</ele>
  <time>2012-06-23T04:32:27Z</time>
<extensions>
<speed>2.8</speed>
<temp>0.00</temp>
<bpm>0</bpm>
<rpm>0.00</rpm>
</extensions>
</trkpt>
<trkpt lat="32.586887360" lon="35.019580841">
  <ele>151.505920</ele>
  <time>2012-06-23T04:32:28Z</time>
<extensions>
<speed>2.8</speed>
<temp>0.00</temp>
<bpm>0</bpm>
<rpm>0.00</rpm>
</extensions>
</trkpt>
<trkpt lat="32.586856842" lon="35.019573212">
  <ele>151.166077</ele>
  <time>2012-06-23T04:32:29Z</time>
<extensions>
<speed>2.8</speed>
<temp>0.00</temp>
<bpm>0</bpm>
<rpm>0.00</rpm>
</extensions>
</trkpt>
<trkpt lat="32.586799622" lon="35.019557953">
  <ele>151.263733</ele>
  <time>2012-06-23T04:32:31Z</time>
<extensions>
<speed>2.8</speed>
<temp>0.00</temp>
<bpm>0</bpm>
<rpm>0.00</rpm>
</extensions>
</trkpt>
<trkpt lat="32.586746216" lon="35.019550323">
  <ele>152.287170</ele>
  <time>2012-06-23T04:32:33Z</time>
<extensions>
<speed>2.8</speed>
<temp>0.00</temp>
<bpm>0</bpm>
<rpm>0.00</rpm>
</extensions>
</trkpt>
<trkpt lat="32.586715698" lon="35.019550323">
  <ele>153.369202</ele>
  <time>2012-06-23T04:32:34Z</time>
<extensions>
<speed>2.8</speed>
<temp>0.00</temp>
<bpm>0</bpm>
<rpm>0.00</rpm>
</extensions>
</trkpt>
<trkpt lat="32.586662292" lon="35.019535065">
  <ele>153.490295</ele>
  <time>2012-06-23T04:32:36Z</time>
<extensions>
<speed>3.3</speed>
<temp>0.00</temp>
<bpm>0</bpm>
<rpm>0.00</rpm>
</extensions>
</trkpt>
<trkpt lat="32.586631775" lon="35.019531250">
  <ele>153.509827</ele>
  <time>2012-06-23T04:32:37Z</time>
<extensions>
<speed>3.5</speed>
<temp>0.00</temp>
<bpm>0</bpm>
<rpm>0.00</rpm>
</extensions>
</trkpt>
<trkpt lat="32.586582184" lon="35.019527435">
  <ele>154.544983</ele>
  <time>2012-06-23T04:32:38Z</time>
<extensions>
<speed>3.7</speed>
<temp>0.00</temp>
<bpm>0</bpm>
<rpm>0.00</rpm>
</extensions>
</trkpt>
<trkpt lat="32.586555481" lon="35.019519806">
  <ele>154.669983</ele>
  <time>2012-06-23T04:32:39Z</time>
<extensions>
<speed>3.3</speed>
<temp>0.00</temp>
<bpm>0</bpm>
<rpm>0.00</rpm>
</extensions>
</trkpt>
<trkpt lat="32.586521149" lon="35.019515991">
  <ele>155.752014</ele>
  <time>2012-06-23T04:32:40Z</time>
<extensions>
<speed>3.1</speed>
<temp>0.00</temp>
<bpm>0</bpm>
<rpm>0.00</rpm>
</extensions>
</trkpt>
<trkpt lat="32.586490631" lon="35.019504547">
  <ele>155.744202</ele>
  <time>2012-06-23T04:32:41Z</time>
<extensions>
<speed>3.2</speed>
<temp>0.00</temp>
<bpm>0</bpm>
<rpm>0.00</rpm>
</extensions>
</trkpt>
<trkpt lat="32.586452484" lon="35.019508362">
  <ele>156.306702</ele>
  <time>2012-06-23T04:32:42Z</time>
<extensions>
<speed>3.4</speed>
<temp>0.00</temp>
<bpm>0</bpm>
<rpm>0.00</rpm>
</extensions>
</trkpt>
<trkpt lat="32.586425781" lon="35.019500732">
  <ele>155.779358</ele>
  <time>2012-06-23T04:32:43Z</time>
<extensions>
<speed>3.4</speed>
<temp>0.00</temp>
<bpm>0</bpm>
<rpm>0.00</rpm>
</extensions>
</trkpt>
<trkpt lat="32.586395264" lon="35.019496918">
  <ele>155.509827</ele>
  <time>2012-06-23T04:32:44Z</time>
<extensions>
<speed>3.1</speed>
<temp>0.00</temp>
<bpm>0</bpm>
<rpm>0.00</rpm>
</extensions>
</trkpt>
<trkpt lat="32.586357117" lon="35.019485474">
  <ele>154.877014</ele>
  <time>2012-06-23T04:32:45Z</time>
<extensions>
<speed>3.2</speed>
<temp>0.00</temp>
<bpm>0</bpm>
<rpm>0.00</rpm>
</extensions>
</trkpt>
<trkpt lat="32.586322784" lon="35.019485474">
  <ele>154.236389</ele>
  <time>2012-06-23T04:32:46Z</time>
<extensions>
<speed>3.3</speed>
<temp>0.00</temp>
<bpm>0</bpm>
<rpm>0.00</rpm>
</extensions>
</trkpt>
<trkpt lat="32.586292267" lon="35.019477844">
  <ele>153.666077</ele>
  <time>2012-06-23T04:32:47Z</time>
<extensions>
<speed>3.2</speed>
<temp>0.00</temp>
<bpm>0</bpm>
<rpm>0.00</rpm>
</extensions>
</trkpt>
<trkpt lat="32.586265564" lon="35.019470215">
  <ele>152.529358</ele>
  <time>2012-06-23T04:32:48Z</time>
<extensions>
<speed>3.1</speed>
<temp>0.00</temp>
<bpm>0</bpm>
<rpm>0.00</rpm>
</extensions>
</trkpt>
<trkpt lat="32.586227417" lon="35.019466400">
  <ele>152.240295</ele>
  <time>2012-06-23T04:32:49Z</time>
<extensions>
<speed>3.4</speed>
<temp>0.00</temp>
<bpm>0</bpm>
<rpm>0.00</rpm>
</extensions>
</trkpt>
<trkpt lat="32.586193085" lon="35.019454956">
  <ele>152.521545</ele>
  <time>2012-06-23T04:32:50Z</time>
<extensions>
<speed>3.2</speed>
<temp>0.00</temp>
<bpm>0</bpm>
<rpm>0.00</rpm>
</extensions>
</trkpt>
<trkpt lat="32.586166382" lon="35.019447327">
  <ele>153.326233</ele>
  <time>2012-06-23T04:32:51Z</time>
<extensions>
<speed>3.1</speed>
<temp>0.00</temp>
<bpm>0</bpm>
<rpm>0.00</rpm>
</extensions>
</trkpt>
<trkpt lat="32.586135864" lon="35.019439697">
  <ele>153.794983</ele>
  <time>2012-06-23T04:32:52Z</time>
<extensions>
<speed>2.7</speed>
<temp>0.00</temp>
<bpm>0</bpm>
<rpm>0.00</rpm>
</extensions>
</trkpt>
<trkpt lat="32.586105347" lon="35.019432068">
  <ele>154.537170</ele>
  <time>2012-06-23T04:32:53Z</time>
<extensions>
<speed>2.9</speed>
<temp>0.00</temp>
<bpm>0</bpm>
<rpm>0.00</rpm>
</extensions>
</trkpt>
<trkpt lat="32.586059570" lon="35.019412994">
  <ele>155.173889</ele>
  <time>2012-06-23T04:32:55Z</time>
<extensions>
<speed>2.8</speed>
<temp>0.00</temp>
<bpm>0</bpm>
<rpm>0.00</rpm>
</extensions>
</trkpt>
<trkpt lat="32.586032867" lon="35.019405365">
  <ele>154.939514</ele>
  <time>2012-06-23T04:32:56Z</time>
<extensions>
<speed>3.3</speed>
<temp>0.00</temp>
<bpm>0</bpm>
<rpm>0.00</rpm>
</extensions>
</trkpt>
<trkpt lat="32.585998535" lon="35.019393921">
  <ele>154.478577</ele>
  <time>2012-06-23T04:32:57Z</time>
<extensions>
<speed>3.5</speed>
<temp>0.00</temp>
<bpm>0</bpm>
<rpm>0.00</rpm>
</extensions>
</trkpt>
<trkpt lat="32.585964203" lon="35.019390106">
  <ele>154.127014</ele>
  <time>2012-06-23T04:32:58Z</time>
<extensions>
<speed>3.5</speed>
<temp>0.00</temp>
<bpm>0</bpm>
<rpm>0.00</rpm>
</extensions>
</trkpt>
<trkpt lat="32.585926056" lon="35.019382477">
  <ele>154.365295</ele>
  <time>2012-06-23T04:32:59Z</time>
<extensions>
<speed>3.6</speed>
<temp>0.00</temp>
<bpm>0</bpm>
<rpm>0.00</rpm>
</extensions>
</trkpt>
<trkpt lat="32.585880280" lon="35.019378662">
  <ele>155.166077</ele>
  <time>2012-06-23T04:33:00Z</time>
<extensions>
<speed>3.8</speed>
<temp>0.00</temp>
<bpm>0</bpm>
<rpm>0.00</rpm>
</extensions>
</trkpt>
<trkpt lat="32.585849762" lon="35.019371033">
  <ele>155.377014</ele>
  <time>2012-06-23T04:33:01Z</time>
<extensions>
<speed>3.9</speed>
<temp>0.00</temp>
<bpm>0</bpm>
<rpm>0.00</rpm>
</extensions>
</trkpt>
<trkpt lat="32.585819244" lon="35.019363403">
  <ele>155.216858</ele>
  <time>2012-06-23T04:33:02Z</time>
<extensions>
<speed>3.5</speed>
<temp>0.00</temp>
<bpm>0</bpm>
<rpm>0.00</rpm>
</extensions>
</trkpt>
<trkpt lat="32.585784912" lon="35.019363403">
  <ele>155.134827</ele>
  <time>2012-06-23T04:33:03Z</time>
<extensions>
<speed>3.5</speed>
<temp>0.00</temp>
<bpm>0</bpm>
<rpm>0.00</rpm>
</extensions>
</trkpt>
<trkpt lat="32.585750580" lon="35.019359589">
  <ele>155.369202</ele>
  <time>2012-06-23T04:33:04Z</time>
<extensions>
<speed>3.5</speed>
<temp>0.00</temp>
<bpm>0</bpm>
<rpm>0.00</rpm>
</extensions>
</trkpt>
<trkpt lat="32.585723877" lon="35.019359589">
  <ele>154.576233</ele>
  <time>2012-06-23T04:33:05Z</time>
<extensions>
<speed>3.2</speed>
<temp>0.00</temp>
<bpm>0</bpm>
<rpm>0.00</rpm>
</extensions>
</trkpt>
<trkpt lat="32.585685730" lon="35.019344330">
  <ele>156.357483</ele>
  <time>2012-06-23T04:33:06Z</time>
<extensions>
<speed>3.6</speed>
<temp>0.00</temp>
<bpm>0</bpm>
<rpm>0.00</rpm>
</extensions>
</trkpt>
<trkpt lat="32.585651398" lon="35.019336700">
  <ele>155.822327</ele>
  <time>2012-06-23T04:33:07Z</time>
<extensions>
<speed>3.6</speed>
<temp>0.00</temp>
<bpm>0</bpm>
<rpm>0.00</rpm>
</extensions>
</trkpt>
<trkpt lat="32.585594177" lon="35.019317627">
  <ele>155.166077</ele>
  <time>2012-06-23T04:33:09Z</time>
<extensions>
<speed>3.7</speed>
<temp>0.00</temp>
<bpm>0</bpm>
<rpm>0.00</rpm>
</extensions>
</trkpt>
<trkpt lat="32.585559845" lon="35.019302368">
  <ele>155.119202</ele>
  <time>2012-06-23T04:33:10Z</time>
<extensions>
<speed>3.6</speed>
<temp>0.00</temp>
<bpm>0</bpm>
<rpm>0.00</rpm>
</extensions>
</trkpt>
<trkpt lat="32.585529327" lon="35.019287109">
  <ele>154.818420</ele>
  <time>2012-06-23T04:33:11Z</time>
<extensions>
<speed>3.6</speed>
<temp>0.00</temp>
<bpm>0</bpm>
<rpm>0.00</rpm>
</extensions>
</trkpt>
<trkpt lat="32.585494995" lon="35.019271851">
  <ele>155.283264</ele>
  <time>2012-06-23T04:33:12Z</time>
<extensions>
<speed>3.5</speed>
<temp>0.00</temp>
<bpm>0</bpm>
<rpm>0.00</rpm>
</extensions>
</trkpt>
<trkpt lat="32.585468292" lon="35.019256592">
  <ele>155.318420</ele>
  <time>2012-06-23T04:33:13Z</time>
<extensions>
<speed>3.7</speed>
<temp>0.00</temp>
<bpm>0</bpm>
<rpm>0.00</rpm>
</extensions>
</trkpt>
<trkpt lat="32.585433960" lon="35.019248962">
  <ele>155.263733</ele>
  <time>2012-06-23T04:33:14Z</time>
<extensions>
<speed>3.4</speed>
<temp>0.00</temp>
<bpm>0</bpm>
<rpm>0.00</rpm>
</extensions>
</trkpt>
<trkpt lat="32.585395813" lon="35.019237518">
  <ele>154.759827</ele>
  <time>2012-06-23T04:33:15Z</time>
<extensions>
<speed>3.4</speed>
<temp>0.00</temp>
<bpm>0</bpm>
<rpm>0.00</rpm>
</extensions>
</trkpt>
<trkpt lat="32.585365295" lon="35.019229889">
  <ele>153.822327</ele>
  <time>2012-06-23T04:33:16Z</time>
<extensions>
<speed>3.3</speed>
<temp>0.00</temp>
<bpm>0</bpm>
<rpm>0.00</rpm>
</extensions>
</trkpt>
<trkpt lat="32.585342407" lon="35.019207001">
  <ele>153.763733</ele>
  <time>2012-06-23T04:33:17Z</time>
<extensions>
<speed>3.5</speed>
<temp>0.00</temp>
<bpm>0</bpm>
<rpm>0.00</rpm>
</extensions>
</trkpt>
<trkpt lat="32.585311890" lon="35.019180298">
  <ele>153.334045</ele>
  <time>2012-06-23T04:33:18Z</time>
<extensions>
<speed>3.6</speed>
<temp>0.00</temp>
<bpm>0</bpm>
<rpm>0.00</rpm>
</extensions>
</trkpt>
<trkpt lat="32.585273743" lon="35.019161224">
  <ele>153.677795</ele>
  <time>2012-06-23T04:33:19Z</time>
<extensions>
<speed>3.5</speed>
<temp>0.00</temp>
<bpm>0</bpm>
<rpm>0.00</rpm>
</extensions>
</trkpt>
<trkpt lat="32.585243225" lon="35.019134521">
  <ele>153.970764</ele>
  <time>2012-06-23T04:33:20Z</time>
<extensions>
<speed>3.4</speed>
<temp>0.00</temp>
<bpm>0</bpm>
<rpm>0.00</rpm>
</extensions>
</trkpt>
<trkpt lat="32.585220337" lon="35.019111633">
  <ele>153.822327</ele>
  <time>2012-06-23T04:33:21Z</time>
<extensions>
<speed>3.4</speed>
<temp>0.00</temp>
<bpm>0</bpm>
<rpm>0.00</rpm>
</extensions>
</trkpt>
<trkpt lat="32.585197449" lon="35.019088745">
  <ele>154.451233</ele>
  <time>2012-06-23T04:33:22Z</time>
<extensions>
<speed>3.2</speed>
<temp>0.00</temp>
<bpm>0</bpm>
<rpm>0.00</rpm>
</extensions>
</trkpt>
<trkpt lat="32.585174561" lon="35.019065857">
  <ele>154.404358</ele>
  <time>2012-06-23T04:33:23Z</time>
<extensions>
<speed>3.0</speed>
<temp>0.00</temp>
<bpm>0</bpm>
<rpm>0.00</rpm>
</extensions>
</trkpt>
<trkpt lat="32.585151672" lon="35.019042969">
  <ele>154.271545</ele>
  <time>2012-06-23T04:33:24Z</time>
<extensions>
<speed>3.6</speed>
<temp>0.00</temp>
<bpm>0</bpm>
<rpm>0.00</rpm>
</extensions>
</trkpt>
<trkpt lat="32.585121155" lon="35.019020081">
  <ele>154.377014</ele>
  <time>2012-06-23T04:33:25Z</time>
<extensions>
<speed>3.5</speed>
<temp>0.00</temp>
<bpm>0</bpm>
<rpm>0.00</rpm>
</extensions>
</trkpt>
<trkpt lat="32.585098267" lon="35.018993378">
  <ele>154.869202</ele>
  <time>2012-06-23T04:33:26Z</time>
<extensions>
<speed>3.3</speed>
<temp>0.00</temp>
<bpm>0</bpm>
<rpm>0.00</rpm>
</extensions>
</trkpt>
<trkpt lat="32.585075378" lon="35.018970490">
  <ele>154.377014</ele>
  <time>2012-06-23T04:33:27Z</time>
<extensions>
<speed>3.2</speed>
<temp>0.00</temp>
<bpm>0</bpm>
<rpm>0.00</rpm>
</extensions>
</trkpt>
<trkpt lat="32.585033417" lon="35.018924713">
  <ele>155.072327</ele>
  <time>2012-06-23T04:33:29Z</time>
<extensions>
<speed>3.2</speed>
<temp>0.00</temp>
<bpm>0</bpm>
<rpm>0.00</rpm>
</extensions>
</trkpt>
<trkpt lat="32.585010529" lon="35.018901825">
  <ele>155.302795</ele>
  <time>2012-06-23T04:33:30Z</time>
<extensions>
<speed>2.7</speed>
<temp>0.00</temp>
<bpm>0</bpm>
<rpm>0.00</rpm>
</extensions>
</trkpt>
<trkpt lat="32.584991455" lon="35.018878937">
  <ele>155.880920</ele>
  <time>2012-06-23T04:33:31Z</time>
<extensions>
<speed>2.9</speed>
<temp>0.00</temp>
<bpm>0</bpm>
<rpm>0.00</rpm>
</extensions>
</trkpt>
<trkpt lat="32.584945679" lon="35.018848419">
  <ele>154.587952</ele>
  <time>2012-06-23T04:33:33Z</time>
<extensions>
<speed>2.7</speed>
<temp>0.00</temp>
<bpm>0</bpm>
<rpm>0.00</rpm>
</extensions>
</trkpt>
<trkpt lat="32.584922791" lon="35.018829346">
  <ele>154.642639</ele>
  <time>2012-06-23T04:33:34Z</time>
<extensions>
<speed>2.6</speed>
<temp>0.00</temp>
<bpm>0</bpm>
<rpm>0.00</rpm>
</extensions>
</trkpt>
<trkpt lat="32.584896088" lon="35.018814087">
  <ele>154.619202</ele>
  <time>2012-06-23T04:33:35Z</time>
<extensions>
<speed>2.3</speed>
<temp>0.00</temp>
<bpm>0</bpm>
<rpm>0.00</rpm>
</extensions>
</trkpt>
<trkpt lat="32.584861755" lon="35.018787384">
  <ele>154.841858</ele>
  <time>2012-06-23T04:33:37Z</time>
<extensions>
<speed>1.8</speed>
<temp>0.00</temp>
<bpm>0</bpm>
<rpm>0.00</rpm>
</extensions>
</trkpt>
<trkpt lat="32.584823608" lon="35.018753052">
  <ele>154.810608</ele>
  <time>2012-06-23T04:33:39Z</time>
<extensions>
<speed>2.3</speed>
<temp>0.00</temp>
<bpm>0</bpm>
<rpm>0.00</rpm>
</extensions>
</trkpt>
<trkpt lat="32.584785461" lon="35.018718719">
  <ele>155.068420</ele>
  <time>2012-06-23T04:33:41Z</time>
<extensions>
<speed>1.7</speed>
<temp>0.00</temp>
<bpm>0</bpm>
<rpm>0.00</rpm>
</extensions>
</trkpt>
<trkpt lat="32.584754944" lon="35.018692017">
  <ele>155.134827</ele>
  <time>2012-06-23T04:33:43Z</time>
<extensions>
<speed>1.9</speed>
<temp>0.00</temp>
<bpm>0</bpm>
<rpm>0.00</rpm>
</extensions>
</trkpt>
<trkpt lat="32.584712982" lon="35.018680573">
  <ele>156.357483</ele>
  <time>2012-06-23T04:33:45Z</time>
<extensions>
<speed>1.7</speed>
<temp>0.00</temp>
<bpm>0</bpm>
<rpm>0.00</rpm>
</extensions>
</trkpt>
<trkpt lat="32.584671021" lon="35.018680573">
  <ele>157.142639</ele>
  <time>2012-06-23T04:33:47Z</time>
<extensions>
<speed>2.2</speed>
<temp>0.00</temp>
<bpm>0</bpm>
<rpm>0.00</rpm>
</extensions>
</trkpt>
<trkpt lat="32.584625244" lon="35.018703461">
  <ele>156.654358</ele>
  <time>2012-06-23T04:33:49Z</time>
<extensions>
<speed>2.3</speed>
<temp>0.00</temp>
<bpm>0</bpm>
<rpm>0.00</rpm>
</extensions>
</trkpt>
<trkpt lat="32.584583282" lon="35.018753052">
  <ele>156.115295</ele>
  <time>2012-06-23T04:33:51Z</time>
<extensions>
<speed>3.0</speed>
<temp>0.00</temp>
<bpm>0</bpm>
<rpm>0.00</rpm>
</extensions>
</trkpt>
<trkpt lat="32.584568024" lon="35.018783569">
  <ele>155.810608</ele>
  <time>2012-06-23T04:33:52Z</time>
<extensions>
<speed>2.3</speed>
<temp>0.00</temp>
<bpm>0</bpm>
<rpm>0.00</rpm>
</extensions>
</trkpt>
<trkpt lat="32.584556580" lon="35.018814087">
  <ele>155.384827</ele>
  <time>2012-06-23T04:33:53Z</time>
<extensions>
<speed>2.4</speed>
<temp>0.00</temp>
<bpm>0</bpm>
<rpm>0.00</rpm>
</extensions>
</trkpt>
<trkpt lat="32.584545135" lon="35.018859863">
  <ele>155.419983</ele>
  <time>2012-06-23T04:33:55Z</time>
<extensions>
<speed>2.1</speed>
<temp>0.00</temp>
<bpm>0</bpm>
<rpm>0.00</rpm>
</extensions>
</trkpt>
<trkpt lat="32.584529877" lon="35.018882751">
  <ele>155.529358</ele>
  <time>2012-06-23T04:33:56Z</time>
<extensions>
<speed>2.1</speed>
<temp>0.00</temp>
<bpm>0</bpm>
<rpm>0.00</rpm>
</extensions>
</trkpt>
<trkpt lat="32.584487915" lon="35.018917084">
  <ele>155.478577</ele>
  <time>2012-06-23T04:33:58Z</time>
<extensions>
<speed>2.3</speed>
<temp>0.00</temp>
<bpm>0</bpm>
<rpm>0.00</rpm>
</extensions>
</trkpt>
<trkpt lat="32.584449768" lon="35.018955231">
  <ele>155.439514</ele>
  <time>2012-06-23T04:34:00Z</time>
<extensions>
<speed>2.7</speed>
<temp>0.00</temp>
<bpm>0</bpm>
<rpm>0.00</rpm>
</extensions>
</trkpt>
<trkpt lat="32.584423065" lon="35.019008636">
  <ele>155.099670</ele>
  <time>2012-06-23T04:34:02Z</time>
<extensions>
<speed>2.6</speed>
<temp>0.00</temp>
<bpm>0</bpm>
<rpm>0.00</rpm>
</extensions>
</trkpt>
<trkpt lat="32.584403992" lon="35.019058228">
  <ele>155.662170</ele>
  <time>2012-06-23T04:34:04Z</time>
<extensions>
<speed>2.3</speed>
<temp>0.00</temp>
<bpm>0</bpm>
<rpm>0.00</rpm>
</extensions>
</trkpt>
<trkpt lat="32.584392548" lon="35.019111633">
  <ele>156.048889</ele>
  <time>2012-06-23T04:34:06Z</time>
<extensions>
<speed>2.0</speed>
<temp>0.00</temp>
<bpm>0</bpm>
<rpm>0.00</rpm>
</extensions>
</trkpt>
<trkpt lat="32.584377289" lon="35.019168854">
  <ele>156.115295</ele>
  <time>2012-06-23T04:34:08Z</time>
<extensions>
<speed>2.1</speed>
<temp>0.00</temp>
<bpm>0</bpm>
<rpm>0.00</rpm>
</extensions>
</trkpt>
<trkpt lat="32.584365845" lon="35.019207001">
  <ele>156.888733</ele>
  <time>2012-06-23T04:34:09Z</time>
<extensions>
<speed>2.4</speed>
<temp>0.00</temp>
<bpm>0</bpm>
<rpm>0.00</rpm>
</extensions>
</trkpt>
<trkpt lat="32.584354401" lon="35.019271851">
  <ele>156.470764</ele>
  <time>2012-06-23T04:34:11Z</time>
<extensions>
<speed>2.3</speed>
<temp>0.00</temp>
<bpm>0</bpm>
<rpm>0.00</rpm>
</extensions>
</trkpt>
<trkpt lat="32.584339142" lon="35.019298553">
  <ele>157.334045</ele>
  <time>2012-06-23T04:34:12Z</time>
<extensions>
<speed>2.8</speed>
<temp>0.00</temp>
<bpm>0</bpm>
<rpm>0.00</rpm>
</extensions>
</trkpt>
<trkpt lat="32.584308624" lon="35.019344330">
  <ele>156.556702</ele>
  <time>2012-06-23T04:34:14Z</time>
<extensions>
<speed>3.0</speed>
<temp>0.00</temp>
<bpm>0</bpm>
<rpm>0.00</rpm>
</extensions>
</trkpt>
<trkpt lat="32.584274292" lon="35.019390106">
  <ele>157.064514</ele>
  <time>2012-06-23T04:34:16Z</time>
<extensions>
<speed>2.1</speed>
<temp>0.00</temp>
<bpm>0</bpm>
<rpm>0.00</rpm>
</extensions>
</trkpt>
<trkpt lat="32.584243774" lon="35.019432068">
  <ele>157.322327</ele>
  <time>2012-06-23T04:34:18Z</time>
<extensions>
<speed>2.4</speed>
<temp>0.00</temp>
<bpm>0</bpm>
<rpm>0.00</rpm>
</extensions>
</trkpt>
<trkpt lat="32.584220886" lon="35.019454956">
  <ele>157.353577</ele>
  <time>2012-06-23T04:34:19Z</time>
<extensions>
<speed>2.9</speed>
<temp>0.00</temp>
<bpm>0</bpm>
<rpm>0.00</rpm>
</extensions>
</trkpt>
<trkpt lat="32.584182739" lon="35.019500732">
  <ele>157.392639</ele>
  <time>2012-06-23T04:34:21Z</time>
<extensions>
<speed>2.7</speed>
<temp>0.00</temp>
<bpm>0</bpm>
<rpm>0.00</rpm>
</extensions>
</trkpt>
<trkpt lat="32.584159851" lon="35.019538879">
  <ele>159.091858</ele>
  <time>2012-06-23T04:34:22Z</time>
<extensions>
<speed>3.4</speed>
<temp>0.00</temp>
<bpm>0</bpm>
<rpm>0.00</rpm>
</extensions>
</trkpt>
<trkpt lat="32.584144592" lon="35.019573212">
  <ele>159.068420</ele>
  <time>2012-06-23T04:34:23Z</time>
<extensions>
<speed>3.8</speed>
<temp>0.00</temp>
<bpm>0</bpm>
<rpm>0.00</rpm>
</extensions>
</trkpt>
<trkpt lat="32.584125519" lon="35.019611359">
  <ele>159.552795</ele>
  <time>2012-06-23T04:34:24Z</time>
<extensions>
<speed>3.4</speed>
<temp>0.00</temp>
<bpm>0</bpm>
<rpm>0.00</rpm>
</extensions>
</trkpt>
<trkpt lat="32.584110260" lon="35.019649506">
  <ele>160.521545</ele>
  <time>2012-06-23T04:34:25Z</time>
<extensions>
<speed>3.9</speed>
<temp>0.00</temp>
<bpm>0</bpm>
<rpm>0.00</rpm>
</extensions>
</trkpt>
<trkpt lat="32.584087372" lon="35.019687653">
  <ele>159.986389</ele>
  <time>2012-06-23T04:34:26Z</time>
<extensions>
<speed>3.7</speed>
<temp>0.00</temp>
<bpm>0</bpm>
<rpm>0.00</rpm>
</extensions>
</trkpt>
<trkpt lat="32.584068298" lon="35.019714355">
  <ele>160.095764</ele>
  <time>2012-06-23T04:34:27Z</time>
<extensions>
<speed>3.3</speed>
<temp>0.00</temp>
<bpm>0</bpm>
<rpm>0.00</rpm>
</extensions>
</trkpt>
<trkpt lat="32.584041595" lon="35.019737244">
  <ele>160.736389</ele>
  <time>2012-06-23T04:34:28Z</time>
<extensions>
<speed>3.3</speed>
<temp>0.00</temp>
<bpm>0</bpm>
<rpm>0.00</rpm>
</extensions>
</trkpt>
<trkpt lat="32.584018707" lon="35.019760132">
  <ele>160.548889</ele>
  <time>2012-06-23T04:34:29Z</time>
<extensions>
<speed>2.7</speed>
<temp>0.00</temp>
<bpm>0</bpm>
<rpm>0.00</rpm>
</extensions>
</trkpt>
<trkpt lat="32.583992004" lon="35.019786835">
  <ele>161.162170</ele>
  <time>2012-06-23T04:34:30Z</time>
<extensions>
<speed>3.3</speed>
<temp>0.00</temp>
<bpm>0</bpm>
<rpm>0.00</rpm>
</extensions>
</trkpt>
<trkpt lat="32.583969116" lon="35.019813538">
  <ele>160.509827</ele>
  <time>2012-06-23T04:34:31Z</time>
<extensions>
<speed>2.9</speed>
<temp>0.00</temp>
<bpm>0</bpm>
<rpm>0.00</rpm>
</extensions>
</trkpt>
<trkpt lat="32.583946228" lon="35.019836426">
  <ele>160.814514</ele>
  <time>2012-06-23T04:34:32Z</time>
<extensions>
<speed>3.2</speed>
<temp>0.00</temp>
<bpm>0</bpm>
<rpm>0.00</rpm>
</extensions>
</trkpt>
<trkpt lat="32.583923340" lon="35.019866943">
  <ele>160.283264</ele>
  <time>2012-06-23T04:34:33Z</time>
<extensions>
<speed>3.1</speed>
<temp>0.00</temp>
<bpm>0</bpm>
<rpm>0.00</rpm>
</extensions>
</trkpt>
<trkpt lat="32.583904266" lon="35.019889832">
  <ele>159.966858</ele>
  <time>2012-06-23T04:34:34Z</time>
<extensions>
<speed>3.3</speed>
<temp>0.00</temp>
<bpm>0</bpm>
<rpm>0.00</rpm>
</extensions>
</trkpt>
<trkpt lat="32.583885193" lon="35.019924164">
  <ele>160.033264</ele>
  <time>2012-06-23T04:34:35Z</time>
<extensions>
<speed>3.0</speed>
<temp>0.00</temp>
<bpm>0</bpm>
<rpm>0.00</rpm>
</extensions>
</trkpt>
<trkpt lat="32.583862305" lon="35.019950867">
  <ele>159.611389</ele>
  <time>2012-06-23T04:34:36Z</time>
<extensions>
<speed>2.4</speed>
<temp>0.00</temp>
<bpm>0</bpm>
<rpm>0.00</rpm>
</extensions>
</trkpt>
<trkpt lat="32.583820343" lon="35.019981384">
  <ele>159.716858</ele>
  <time>2012-06-23T04:34:38Z</time>
<extensions>
<speed>2.0</speed>
<temp>0.00</temp>
<bpm>0</bpm>
<rpm>0.00</rpm>
</extensions>
</trkpt>
<trkpt lat="32.583793640" lon="35.020019531">
  <ele>159.236389</ele>
  <time>2012-06-23T04:34:40Z</time>
<extensions>
<speed>1.7</speed>
<temp>0.00</temp>
<bpm>0</bpm>
<rpm>0.00</rpm>
</extensions>
</trkpt>
<trkpt lat="32.583736420" lon="35.020042419">
  <ele>158.318420</ele>
  <time>2012-06-23T04:34:42Z</time>
<extensions>
<speed>2.3</speed>
<temp>0.00</temp>
<bpm>0</bpm>
<rpm>0.00</rpm>
</extensions>
</trkpt>
<trkpt lat="32.583709717" lon="35.020050049">
  <ele>158.728577</ele>
  <time>2012-06-23T04:34:43Z</time>
<extensions>
<speed>2.4</speed>
<temp>0.00</temp>
<bpm>0</bpm>
<rpm>0.00</rpm>
</extensions>
</trkpt>
<trkpt lat="32.583683014" lon="35.020042419">
  <ele>159.169983</ele>
  <time>2012-06-23T04:34:44Z</time>
<extensions>
<speed>3.0</speed>
<temp>0.00</temp>
<bpm>0</bpm>
<rpm>0.00</rpm>
</extensions>
</trkpt>
<trkpt lat="32.583656311" lon="35.020027161">
  <ele>159.002014</ele>
  <time>2012-06-23T04:34:45Z</time>
<extensions>
<speed>3.2</speed>
<temp>0.00</temp>
<bpm>0</bpm>
<rpm>0.00</rpm>
</extensions>
</trkpt>
<trkpt lat="32.583610535" lon="35.019996643">
  <ele>159.095764</ele>
  <time>2012-06-23T04:34:47Z</time>
<extensions>
<speed>2.4</speed>
<temp>0.00</temp>
<bpm>0</bpm>
<rpm>0.00</rpm>
</extensions>
</trkpt>
<trkpt lat="32.583587646" lon="35.019985199">
  <ele>158.009827</ele>
  <time>2012-06-23T04:34:48Z</time>
<extensions>
<speed>2.7</speed>
<temp>0.00</temp>
<bpm>0</bpm>
<rpm>0.00</rpm>
</extensions>
</trkpt>
<trkpt lat="32.583560944" lon="35.019969940">
  <ele>158.275452</ele>
  <time>2012-06-23T04:34:49Z</time>
<extensions>
<speed>2.6</speed>
<temp>0.00</temp>
<bpm>0</bpm>
<rpm>0.00</rpm>
</extensions>
</trkpt>
<trkpt lat="32.583538055" lon="35.019947052">
  <ele>158.978577</ele>
  <time>2012-06-23T04:34:50Z</time>
<extensions>
<speed>2.8</speed>
<temp>0.00</temp>
<bpm>0</bpm>
<rpm>0.00</rpm>
</extensions>
</trkpt>
<trkpt lat="32.583515167" lon="35.019927979">
  <ele>159.544983</ele>
  <time>2012-06-23T04:34:51Z</time>
<extensions>
<speed>2.9</speed>
<temp>0.00</temp>
<bpm>0</bpm>
<rpm>0.00</rpm>
</extensions>
</trkpt>
<trkpt lat="32.583488464" lon="35.019901276">
  <ele>160.451233</ele>
  <time>2012-06-23T04:34:52Z</time>
<extensions>
<speed>2.9</speed>
<temp>0.00</temp>
<bpm>0</bpm>
<rpm>0.00</rpm>
</extensions>
</trkpt>
<trkpt lat="32.583473206" lon="35.019874573">
  <ele>160.783264</ele>
  <time>2012-06-23T04:34:53Z</time>
<extensions>
<speed>2.8</speed>
<temp>0.00</temp>
<bpm>0</bpm>
<rpm>0.00</rpm>
</extensions>
</trkpt>
<trkpt lat="32.583457947" lon="35.019821167">
  <ele>161.814514</ele>
  <time>2012-06-23T04:34:55Z</time>
<extensions>
<speed>2.4</speed>
<temp>0.00</temp>
<bpm>0</bpm>
<rpm>0.00</rpm>
</extensions>
</trkpt>
<trkpt lat="32.583477020" lon="35.019767761">
  <ele>162.884827</ele>
  <time>2012-06-23T04:34:57Z</time>
<extensions>
<speed>2.9</speed>
<temp>0.00</temp>
<bpm>0</bpm>
<rpm>0.00</rpm>
</extensions>
</trkpt>
<trkpt lat="32.583488464" lon="35.019733429">
  <ele>164.400452</ele>
  <time>2012-06-23T04:34:58Z</time>
<extensions>
<speed>2.7</speed>
<temp>0.00</temp>
<bpm>0</bpm>
<rpm>0.00</rpm>
</extensions>
</trkpt>
<trkpt lat="32.583507538" lon="35.019702911">
  <ele>165.627014</ele>
  <time>2012-06-23T04:34:59Z</time>
<extensions>
<speed>2.6</speed>
<temp>0.00</temp>
<bpm>0</bpm>
<rpm>0.00</rpm>
</extensions>
</trkpt>
<trkpt lat="32.583530426" lon="35.019687653">
  <ele>166.400452</ele>
  <time>2012-06-23T04:35:00Z</time>
<extensions>
<speed>2.6</speed>
<temp>0.00</temp>
<bpm>0</bpm>
<rpm>0.00</rpm>
</extensions>
</trkpt>
<trkpt lat="32.583557129" lon="35.019645691">
  <ele>168.197327</ele>
  <time>2012-06-23T04:35:02Z</time>
<extensions>
<speed>2.5</speed>
<temp>0.00</temp>
<bpm>0</bpm>
<rpm>0.00</rpm>
</extensions>
</trkpt>
<trkpt lat="32.583591461" lon="35.019607544">
  <ele>170.466858</ele>
  <time>2012-06-23T04:35:04Z</time>
<extensions>
<speed>2.4</speed>
<temp>0.00</temp>
<bpm>0</bpm>
<rpm>0.00</rpm>
</extensions>
</trkpt>
<trkpt lat="32.583621979" lon="35.019569397">
  <ele>171.865295</ele>
  <time>2012-06-23T04:35:06Z</time>
<extensions>
<speed>2.5</speed>
<temp>0.00</temp>
<bpm>0</bpm>
<rpm>0.00</rpm>
</extensions>
</trkpt>
<trkpt lat="32.583656311" lon="35.019546509">
  <ele>172.900452</ele>
  <time>2012-06-23T04:35:08Z</time>
<extensions>
<speed>1.9</speed>
<temp>0.00</temp>
<bpm>0</bpm>
<rpm>0.00</rpm>
</extensions>
</trkpt>
<trkpt lat="32.583686829" lon="35.019515991">
  <ele>174.095764</ele>
  <time>2012-06-23T04:35:10Z</time>
<extensions>
<speed>2.0</speed>
<temp>0.00</temp>
<bpm>0</bpm>
<rpm>0.00</rpm>
</extensions>
</trkpt>
<trkpt lat="32.583721161" lon="35.019489288">
  <ele>173.806702</ele>
  <time>2012-06-23T04:35:12Z</time>
<extensions>
<speed>2.0</speed>
<temp>0.00</temp>
<bpm>0</bpm>
<rpm>0.00</rpm>
</extensions>
</trkpt>
<trkpt lat="32.583755493" lon="35.019474030">
  <ele>173.615295</ele>
  <time>2012-06-23T04:35:14Z</time>
<extensions>
<speed>2.2</speed>
<temp>0.00</temp>
<bpm>0</bpm>
<rpm>0.00</rpm>
</extensions>
</trkpt>
<trkpt lat="32.583786011" lon="35.019435883">
  <ele>174.064514</ele>
  <time>2012-06-23T04:35:16Z</time>
<extensions>
<speed>2.4</speed>
<temp>0.00</temp>
<bpm>0</bpm>
<rpm>0.00</rpm>
</extensions>
</trkpt>
<trkpt lat="32.583827972" lon="35.019393921">
  <ele>175.072327</ele>
  <time>2012-06-23T04:35:18Z</time>
<extensions>
<speed>2.2</speed>
<temp>0.00</temp>
<bpm>0</bpm>
<rpm>0.00</rpm>
</extensions>
</trkpt>
<trkpt lat="32.583858490" lon="35.019355774">
  <ele>175.978577</ele>
  <time>2012-06-23T04:35:20Z</time>
<extensions>
<speed>2.6</speed>
<temp>0.00</temp>
<bpm>0</bpm>
<rpm>0.00</rpm>
</extensions>
</trkpt>
<trkpt lat="32.583885193" lon="35.019317627">
  <ele>175.587952</ele>
  <time>2012-06-23T04:35:22Z</time>
<extensions>
<speed>1.9</speed>
<temp>0.00</temp>
<bpm>0</bpm>
<rpm>0.00</rpm>
</extensions>
</trkpt>
<trkpt lat="32.583908081" lon="35.019283295">
  <ele>174.810608</ele>
  <time>2012-06-23T04:35:24Z</time>
<extensions>
<speed>2.0</speed>
<temp>0.00</temp>
<bpm>0</bpm>
<rpm>0.00</rpm>
</extensions>
</trkpt>
<trkpt lat="32.583930969" lon="35.019245148">
  <ele>175.009827</ele>
  <time>2012-06-23T04:35:26Z</time>
<extensions>
<speed>2.0</speed>
<temp>0.00</temp>
<bpm>0</bpm>
<rpm>0.00</rpm>
</extensions>
</trkpt>
<trkpt lat="32.583950043" lon="35.019199371">
  <ele>174.580139</ele>
  <time>2012-06-23T04:35:28Z</time>
<extensions>
<speed>1.7</speed>
<temp>0.00</temp>
<bpm>0</bpm>
<rpm>0.00</rpm>
</extensions>
</trkpt>
<trkpt lat="32.583965302" lon="35.019165039">
  <ele>174.423889</ele>
  <time>2012-06-23T04:35:30Z</time>
<extensions>
<speed>1.8</speed>
<temp>0.00</temp>
<bpm>0</bpm>
<rpm>0.00</rpm>
</extensions>
</trkpt>
<trkpt lat="32.583984375" lon="35.019130707">
  <ele>173.134827</ele>
  <time>2012-06-23T04:35:32Z</time>
<extensions>
<speed>1.8</speed>
<temp>0.00</temp>
<bpm>0</bpm>
<rpm>0.00</rpm>
</extensions>
</trkpt>
<trkpt lat="32.584003448" lon="35.019084930">
  <ele>172.220764</ele>
  <time>2012-06-23T04:35:34Z</time>
<extensions>
<speed>1.7</speed>
<temp>0.00</temp>
<bpm>0</bpm>
<rpm>0.00</rpm>
</extensions>
</trkpt>
<trkpt lat="32.584014893" lon="35.019054413">
  <ele>172.005920</ele>
  <time>2012-06-23T04:35:36Z</time>
<extensions>
<speed>1.2</speed>
<temp>0.00</temp>
<bpm>0</bpm>
<rpm>0.00</rpm>
</extensions>
</trkpt>
<trkpt lat="32.584018707" lon="35.019001007">
  <ele>171.220764</ele>
  <time>2012-06-23T04:35:38Z</time>
<extensions>
<speed>1.4</speed>
<temp>0.00</temp>
<bpm>0</bpm>
<rpm>0.00</rpm>
</extensions>
</trkpt>
<trkpt lat="32.584030151" lon="35.018959045">
  <ele>171.209045</ele>
  <time>2012-06-23T04:35:40Z</time>
<extensions>
<speed>1.7</speed>
<temp>0.00</temp>
<bpm>0</bpm>
<rpm>0.00</rpm>
</extensions>
</trkpt>
<trkpt lat="32.584041595" lon="35.018924713">
  <ele>170.923889</ele>
  <time>2012-06-23T04:35:42Z</time>
<extensions>
<speed>1.2</speed>
<temp>0.00</temp>
<bpm>0</bpm>
<rpm>0.00</rpm>
</extensions>
</trkpt>
<trkpt lat="32.584049225" lon="35.018886566">
  <ele>170.115295</ele>
  <time>2012-06-23T04:35:44Z</time>
<extensions>
<speed>1.6</speed>
<temp>0.00</temp>
<bpm>0</bpm>
<rpm>0.00</rpm>
</extensions>
</trkpt>
<trkpt lat="32.584053040" lon="35.018836975">
  <ele>169.904358</ele>
  <time>2012-06-23T04:35:46Z</time>
<extensions>
<speed>1.6</speed>
<temp>0.00</temp>
<bpm>0</bpm>
<rpm>0.00</rpm>
</extensions>
</trkpt>
<trkpt lat="32.584056854" lon="35.018802643">
  <ele>169.869202</ele>
  <time>2012-06-23T04:35:48Z</time>
<extensions>
<speed>1.3</speed>
<temp>0.00</temp>
<bpm>0</bpm>
<rpm>0.00</rpm>
</extensions>
</trkpt>
<trkpt lat="32.584064484" lon="35.018760681">
  <ele>169.552795</ele>
  <time>2012-06-23T04:35:50Z</time>
<extensions>
<speed>1.5</speed>
<temp>0.00</temp>
<bpm>0</bpm>
<rpm>0.00</rpm>
</extensions>
</trkpt>
<trkpt lat="32.584064484" lon="35.018722534">
  <ele>169.037170</ele>
  <time>2012-06-23T04:35:52Z</time>
<extensions>
<speed>1.4</speed>
<temp>0.00</temp>
<bpm>0</bpm>
<rpm>0.00</rpm>
</extensions>
</trkpt>
<trkpt lat="32.584075928" lon="35.018692017">
  <ele>168.689514</ele>
  <time>2012-06-23T04:35:54Z</time>
<extensions>
<speed>1.7</speed>
<temp>0.00</temp>
<bpm>0</bpm>
<rpm>0.00</rpm>
</extensions>
</trkpt>
<trkpt lat="32.584091187" lon="35.018646240">
  <ele>168.236389</ele>
  <time>2012-06-23T04:35:56Z</time>
<extensions>
<speed>1.9</speed>
<temp>0.00</temp>
<bpm>0</bpm>
<rpm>0.00</rpm>
</extensions>
</trkpt>
<trkpt lat="32.584106445" lon="35.018608093">
  <ele>168.419983</ele>
  <time>2012-06-23T04:35:58Z</time>
<extensions>
<speed>1.8</speed>
<temp>0.00</temp>
<bpm>0</bpm>
<rpm>0.00</rpm>
</extensions>
</trkpt>
<trkpt lat="32.584121704" lon="35.018569946">
  <ele>167.541077</ele>
  <time>2012-06-23T04:36:00Z</time>
<extensions>
<speed>1.5</speed>
<temp>0.00</temp>
<bpm>0</bpm>
<rpm>0.00</rpm>
</extensions>
</trkpt>
<trkpt lat="32.584133148" lon="35.018524170">
  <ele>165.607483</ele>
  <time>2012-06-23T04:36:03Z</time>
<extensions>
<speed>1.7</speed>
<temp>0.00</temp>
<bpm>0</bpm>
<rpm>0.00</rpm>
</extensions>
</trkpt>
<trkpt lat="32.584144592" lon="35.018489838">
  <ele>165.794983</ele>
  <time>2012-06-23T04:36:05Z</time>
<extensions>
<speed>1.6</speed>
<temp>0.00</temp>
<bpm>0</bpm>
<rpm>0.00</rpm>
</extensions>
</trkpt>
<trkpt lat="32.584159851" lon="35.018444061">
  <ele>165.013733</ele>
  <time>2012-06-23T04:36:07Z</time>
<extensions>
<speed>1.6</speed>
<temp>0.00</temp>
<bpm>0</bpm>
<rpm>0.00</rpm>
</extensions>
</trkpt>
<trkpt lat="32.584175110" lon="35.018405914">
  <ele>164.533264</ele>
  <time>2012-06-23T04:36:09Z</time>
<extensions>
<speed>1.7</speed>
<temp>0.00</temp>
<bpm>0</bpm>
<rpm>0.00</rpm>
</extensions>
</trkpt>
<trkpt lat="32.584182739" lon="35.018356323">
  <ele>164.154358</ele>
  <time>2012-06-23T04:36:11Z</time>
<extensions>
<speed>1.6</speed>
<temp>0.00</temp>
<bpm>0</bpm>
<rpm>0.00</rpm>
</extensions>
</trkpt>
<trkpt lat="32.584186554" lon="35.018306732">
  <ele>164.681702</ele>
  <time>2012-06-23T04:36:13Z</time>
<extensions>
<speed>1.5</speed>
<temp>0.00</temp>
<bpm>0</bpm>
<rpm>0.00</rpm>
</extensions>
</trkpt>
<trkpt lat="32.584197998" lon="35.018264771">
  <ele>164.357483</ele>
  <time>2012-06-23T04:36:15Z</time>
<extensions>
<speed>1.8</speed>
<temp>0.00</temp>
<bpm>0</bpm>
<rpm>0.00</rpm>
</extensions>
</trkpt>
<trkpt lat="32.584209442" lon="35.018218994">
  <ele>164.947327</ele>
  <time>2012-06-23T04:36:17Z</time>
<extensions>
<speed>1.8</speed>
<temp>0.00</temp>
<bpm>0</bpm>
<rpm>0.00</rpm>
</extensions>
</trkpt>
<trkpt lat="32.584209442" lon="35.018173218">
  <ele>166.779358</ele>
  <time>2012-06-23T04:36:18Z</time>
<extensions>
<speed>2.3</speed>
<temp>0.00</temp>
<bpm>0</bpm>
<rpm>0.00</rpm>
</extensions>
</trkpt>
<trkpt lat="32.584220886" lon="35.018123627">
  <ele>167.802795</ele>
  <time>2012-06-23T04:36:20Z</time>
<extensions>
<speed>1.6</speed>
<temp>0.00</temp>
<bpm>0</bpm>
<rpm>0.00</rpm>
</extensions>
</trkpt>
<trkpt lat="32.584228516" lon="35.018077850">
  <ele>168.091858</ele>
  <time>2012-06-23T04:36:22Z</time>
<extensions>
<speed>1.8</speed>
<temp>0.00</temp>
<bpm>0</bpm>
<rpm>0.00</rpm>
</extensions>
</trkpt>
<trkpt lat="32.584239960" lon="35.018035889">
  <ele>169.396545</ele>
  <time>2012-06-23T04:36:24Z</time>
<extensions>
<speed>1.7</speed>
<temp>0.00</temp>
<bpm>0</bpm>
<rpm>0.00</rpm>
</extensions>
</trkpt>
<trkpt lat="32.584255219" lon="35.017993927">
  <ele>170.119202</ele>
  <time>2012-06-23T04:36:26Z</time>
<extensions>
<speed>2.0</speed>
<temp>0.00</temp>
<bpm>0</bpm>
<rpm>0.00</rpm>
</extensions>
</trkpt>
<trkpt lat="32.584274292" lon="35.017951965">
  <ele>171.541077</ele>
  <time>2012-06-23T04:36:28Z</time>
<extensions>
<speed>1.8</speed>
<temp>0.00</temp>
<bpm>0</bpm>
<rpm>0.00</rpm>
</extensions>
</trkpt>
<trkpt lat="32.584289551" lon="35.017913818">
  <ele>171.814514</ele>
  <time>2012-06-23T04:36:30Z</time>
<extensions>
<speed>1.6</speed>
<temp>0.00</temp>
<bpm>0</bpm>
<rpm>0.00</rpm>
</extensions>
</trkpt>
<trkpt lat="32.584293365" lon="35.017875671">
  <ele>173.127014</ele>
  <time>2012-06-23T04:36:32Z</time>
<extensions>
<speed>1.7</speed>
<temp>0.00</temp>
<bpm>0</bpm>
<rpm>0.00</rpm>
</extensions>
</trkpt>
<trkpt lat="32.584304810" lon="35.017837524">
  <ele>173.724670</ele>
  <time>2012-06-23T04:36:34Z</time>
<extensions>
<speed>1.7</speed>
<temp>0.00</temp>
<bpm>0</bpm>
<rpm>0.00</rpm>
</extensions>
</trkpt>
<trkpt lat="32.584304810" lon="35.017791748">
  <ele>173.669983</ele>
  <time>2012-06-23T04:36:36Z</time>
<extensions>
<speed>1.8</speed>
<temp>0.00</temp>
<bpm>0</bpm>
<rpm>0.00</rpm>
</extensions>
</trkpt>
<trkpt lat="32.584300995" lon="35.017749786">
  <ele>174.185608</ele>
  <time>2012-06-23T04:36:38Z</time>
<extensions>
<speed>1.9</speed>
<temp>0.00</temp>
<bpm>0</bpm>
<rpm>0.00</rpm>
</extensions>
</trkpt>
<trkpt lat="32.584297180" lon="35.017704010">
  <ele>174.150452</ele>
  <time>2012-06-23T04:36:40Z</time>
<extensions>
<speed>1.9</speed>
<temp>0.00</temp>
<bpm>0</bpm>
<rpm>0.00</rpm>
</extensions>
</trkpt>
<trkpt lat="32.584293365" lon="35.017665863">
  <ele>173.919983</ele>
  <time>2012-06-23T04:36:42Z</time>
<extensions>
<speed>1.4</speed>
<temp>0.00</temp>
<bpm>0</bpm>
<rpm>0.00</rpm>
</extensions>
</trkpt>
<trkpt lat="32.584289551" lon="35.017623901">
  <ele>173.685608</ele>
  <time>2012-06-23T04:36:44Z</time>
<extensions>
<speed>1.4</speed>
<temp>0.00</temp>
<bpm>0</bpm>
<rpm>0.00</rpm>
</extensions>
</trkpt>
<trkpt lat="32.584289551" lon="35.017578125">
  <ele>173.564514</ele>
  <time>2012-06-23T04:36:46Z</time>
<extensions>
<speed>1.5</speed>
<temp>0.00</temp>
<bpm>0</bpm>
<rpm>0.00</rpm>
</extensions>
</trkpt>
<trkpt lat="32.584289551" lon="35.017532349">
  <ele>174.298889</ele>
  <time>2012-06-23T04:36:48Z</time>
<extensions>
<speed>2.1</speed>
<temp>0.00</temp>
<bpm>0</bpm>
<rpm>0.00</rpm>
</extensions>
</trkpt>
<trkpt lat="32.584285736" lon="35.017482758">
  <ele>175.232483</ele>
  <time>2012-06-23T04:36:50Z</time>
<extensions>
<speed>1.8</speed>
<temp>0.00</temp>
<bpm>0</bpm>
<rpm>0.00</rpm>
</extensions>
</trkpt>
<trkpt lat="32.584281921" lon="35.017444611">
  <ele>175.662170</ele>
  <time>2012-06-23T04:36:52Z</time>
<extensions>
<speed>1.7</speed>
<temp>0.00</temp>
<bpm>0</bpm>
<rpm>0.00</rpm>
</extensions>
</trkpt>
<trkpt lat="32.584281921" lon="35.017398834">
  <ele>175.822327</ele>
  <time>2012-06-23T04:36:54Z</time>
<extensions>
<speed>1.6</speed>
<temp>0.00</temp>
<bpm>0</bpm>
<rpm>0.00</rpm>
</extensions>
</trkpt>
<trkpt lat="32.584281921" lon="35.017353058">
  <ele>175.533264</ele>
  <time>2012-06-23T04:36:56Z</time>
<extensions>
<speed>2.0</speed>
<temp>0.00</temp>
<bpm>0</bpm>
<rpm>0.00</rpm>
</extensions>
</trkpt>
<trkpt lat="32.584281921" lon="35.017307281">
  <ele>176.044983</ele>
  <time>2012-06-23T04:36:58Z</time>
<extensions>
<speed>1.5</speed>
<temp>0.00</temp>
<bpm>0</bpm>
<rpm>0.00</rpm>
</extensions>
</trkpt>
<trkpt lat="32.584293365" lon="35.017265320">
  <ele>176.548889</ele>
  <time>2012-06-23T04:37:00Z</time>
<extensions>
<speed>1.4</speed>
<temp>0.00</temp>
<bpm>0</bpm>
<rpm>0.00</rpm>
</extensions>
</trkpt>
<trkpt lat="32.584297180" lon="35.017223358">
  <ele>176.689514</ele>
  <time>2012-06-23T04:37:02Z</time>
<extensions>
<speed>1.5</speed>
<temp>0.00</temp>
<bpm>0</bpm>
<rpm>0.00</rpm>
</extensions>
</trkpt>
<trkpt lat="32.584304810" lon="35.017181396">
  <ele>176.783264</ele>
  <time>2012-06-23T04:37:04Z</time>
<extensions>
<speed>1.6</speed>
<temp>0.00</temp>
<bpm>0</bpm>
<rpm>0.00</rpm>
</extensions>
</trkpt>
<trkpt lat="32.584308624" lon="35.017135620">
  <ele>177.064514</ele>
  <time>2012-06-23T04:37:06Z</time>
<extensions>
<speed>1.9</speed>
<temp>0.00</temp>
<bpm>0</bpm>
<rpm>0.00</rpm>
</extensions>
</trkpt>
<trkpt lat="32.584300995" lon="35.017082214">
  <ele>177.283264</ele>
  <time>2012-06-23T04:37:08Z</time>
<extensions>
<speed>1.6</speed>
<temp>0.00</temp>
<bpm>0</bpm>
<rpm>0.00</rpm>
</extensions>
</trkpt>
<trkpt lat="32.584308624" lon="35.017051697">
  <ele>178.724670</ele>
  <time>2012-06-23T04:37:09Z</time>
<extensions>
<speed>2.0</speed>
<temp>0.00</temp>
<bpm>0</bpm>
<rpm>0.00</rpm>
</extensions>
</trkpt>
<trkpt lat="32.584312439" lon="35.017013550">
  <ele>179.767639</ele>
  <time>2012-06-23T04:37:10Z</time>
<extensions>
<speed>2.0</speed>
<temp>0.00</temp>
<bpm>0</bpm>
<rpm>0.00</rpm>
</extensions>
</trkpt>
<trkpt lat="32.584312439" lon="35.016956329">
  <ele>181.181702</ele>
  <time>2012-06-23T04:37:12Z</time>
<extensions>
<speed>2.4</speed>
<temp>0.00</temp>
<bpm>0</bpm>
<rpm>0.00</rpm>
</extensions>
</trkpt>
<trkpt lat="32.584312439" lon="35.016899109">
  <ele>182.298889</ele>
  <time>2012-06-23T04:37:14Z</time>
<extensions>
<speed>2.1</speed>
<temp>0.00</temp>
<bpm>0</bpm>
<rpm>0.00</rpm>
</extensions>
</trkpt>
<trkpt lat="32.584320068" lon="35.016853333">
  <ele>183.544983</ele>
  <time>2012-06-23T04:37:16Z</time>
<extensions>
<speed>2.0</speed>
<temp>0.00</temp>
<bpm>0</bpm>
<rpm>0.00</rpm>
</extensions>
</trkpt>
<trkpt lat="32.584323883" lon="35.016811371">
  <ele>184.380920</ele>
  <time>2012-06-23T04:37:18Z</time>
<extensions>
<speed>2.0</speed>
<temp>0.00</temp>
<bpm>0</bpm>
<rpm>0.00</rpm>
</extensions>
</trkpt>
<trkpt lat="32.584327698" lon="35.016765594">
  <ele>184.326233</ele>
  <time>2012-06-23T04:37:20Z</time>
<extensions>
<speed>2.2</speed>
<temp>0.00</temp>
<bpm>0</bpm>
<rpm>0.00</rpm>
</extensions>
</trkpt>
<trkpt lat="32.584331512" lon="35.016719818">
  <ele>184.896545</ele>
  <time>2012-06-23T04:37:22Z</time>
<extensions>
<speed>2.4</speed>
<temp>0.00</temp>
<bpm>0</bpm>
<rpm>0.00</rpm>
</extensions>
</trkpt>
<trkpt lat="32.584335327" lon="35.016662598">
  <ele>185.802795</ele>
  <time>2012-06-23T04:37:24Z</time>
<extensions>
<speed>1.8</speed>
<temp>0.00</temp>
<bpm>0</bpm>
<rpm>0.00</rpm>
</extensions>
</trkpt>
<trkpt lat="32.584339142" lon="35.016628265">
  <ele>186.197327</ele>
  <time>2012-06-23T04:37:26Z</time>
<extensions>
<speed>1.9</speed>
<temp>0.00</temp>
<bpm>0</bpm>
<rpm>0.00</rpm>
</extensions>
</trkpt>
<trkpt lat="32.584354401" lon="35.016578674">
  <ele>187.587952</ele>
  <time>2012-06-23T04:37:28Z</time>
<extensions>
<speed>2.3</speed>
<temp>0.00</temp>
<bpm>0</bpm>
<rpm>0.00</rpm>
</extensions>
</trkpt>
<trkpt lat="32.584358215" lon="35.016521454">
  <ele>188.595764</ele>
  <time>2012-06-23T04:37:30Z</time>
<extensions>
<speed>2.6</speed>
<temp>0.00</temp>
<bpm>0</bpm>
<rpm>0.00</rpm>
</extensions>
</trkpt>
<trkpt lat="32.584358215" lon="35.016471863">
  <ele>189.033264</ele>
  <time>2012-06-23T04:37:32Z</time>
<extensions>
<speed>2.0</speed>
<temp>0.00</temp>
<bpm>0</bpm>
<rpm>0.00</rpm>
</extensions>
</trkpt>
<trkpt lat="32.584373474" lon="35.016429901">
  <ele>190.412170</ele>
  <time>2012-06-23T04:37:34Z</time>
<extensions>
<speed>2.3</speed>
<temp>0.00</temp>
<bpm>0</bpm>
<rpm>0.00</rpm>
</extensions>
</trkpt>
<trkpt lat="32.584388733" lon="35.016368866">
  <ele>192.209045</ele>
  <time>2012-06-23T04:37:36Z</time>
<extensions>
<speed>3.2</speed>
<temp>0.00</temp>
<bpm>0</bpm>
<rpm>0.00</rpm>
</extensions>
</trkpt>
<trkpt lat="32.584388733" lon="35.016338348">
  <ele>191.435608</ele>
  <time>2012-06-23T04:37:37Z</time>
<extensions>
<speed>2.8</speed>
<temp>0.00</temp>
<bpm>0</bpm>
<rpm>0.00</rpm>
</extensions>
</trkpt>
<trkpt lat="32.584396362" lon="35.016277313">
  <ele>191.181702</ele>
  <time>2012-06-23T04:37:39Z</time>
<extensions>
<speed>2.8</speed>
<temp>0.00</temp>
<bpm>0</bpm>
<rpm>0.00</rpm>
</extensions>
</trkpt>
<trkpt lat="32.584400177" lon="35.016223907">
  <ele>190.209045</ele>
  <time>2012-06-23T04:37:41Z</time>
<extensions>
<speed>2.7</speed>
<temp>0.00</temp>
<bpm>0</bpm>
<rpm>0.00</rpm>
</extensions>
</trkpt>
<trkpt lat="32.584407806" lon="35.016147614">
  <ele>190.814514</ele>
  <time>2012-06-23T04:37:43Z</time>
<extensions>
<speed>2.8</speed>
<temp>0.00</temp>
<bpm>0</bpm>
<rpm>0.00</rpm>
</extensions>
</trkpt>
<trkpt lat="32.584407806" lon="35.016113281">
  <ele>190.697327</ele>
  <time>2012-06-23T04:37:44Z</time>
<extensions>
<speed>2.9</speed>
<temp>0.00</temp>
<bpm>0</bpm>
<rpm>0.00</rpm>
</extensions>
</trkpt>
<trkpt lat="32.584411621" lon="35.016048431">
  <ele>190.619202</ele>
  <time>2012-06-23T04:37:46Z</time>
<extensions>
<speed>2.9</speed>
<temp>0.00</temp>
<bpm>0</bpm>
<rpm>0.00</rpm>
</extensions>
</trkpt>
<trkpt lat="32.584423065" lon="35.015983582">
  <ele>190.970764</ele>
  <time>2012-06-23T04:37:48Z</time>
<extensions>
<speed>3.0</speed>
<temp>0.00</temp>
<bpm>0</bpm>
<rpm>0.00</rpm>
</extensions>
</trkpt>
<trkpt lat="32.584426880" lon="35.015953064">
  <ele>190.177795</ele>
  <time>2012-06-23T04:37:49Z</time>
<extensions>
<speed>2.9</speed>
<temp>0.00</temp>
<bpm>0</bpm>
<rpm>0.00</rpm>
</extensions>
</trkpt>
<trkpt lat="32.584438324" lon="35.015922546">
  <ele>189.630920</ele>
  <time>2012-06-23T04:37:50Z</time>
<extensions>
<speed>3.2</speed>
<temp>0.00</temp>
<bpm>0</bpm>
<rpm>0.00</rpm>
</extensions>
</trkpt>
<trkpt lat="32.584442139" lon="35.015892029">
  <ele>189.298889</ele>
  <time>2012-06-23T04:37:51Z</time>
<extensions>
<speed>2.7</speed>
<temp>0.00</temp>
<bpm>0</bpm>
<rpm>0.00</rpm>
</extensions>
</trkpt>
<trkpt lat="32.584445953" lon="35.015853882">
  <ele>189.990295</ele>
  <time>2012-06-23T04:37:52Z</time>
<extensions>
<speed>2.9</speed>
<temp>0.00</temp>
<bpm>0</bpm>
<rpm>0.00</rpm>
</extensions>
</trkpt>
<trkpt lat="32.584445953" lon="35.015819550">
  <ele>189.138733</ele>
  <time>2012-06-23T04:37:53Z</time>
<extensions>
<speed>2.7</speed>
<temp>0.00</temp>
<bpm>0</bpm>
<rpm>0.00</rpm>
</extensions>
</trkpt>
<trkpt lat="32.584453583" lon="35.015758514">
  <ele>188.365295</ele>
  <time>2012-06-23T04:37:55Z</time>
<extensions>
<speed>3.1</speed>
<temp>0.00</temp>
<bpm>0</bpm>
<rpm>0.00</rpm>
</extensions>
</trkpt>
<trkpt lat="32.584457397" lon="35.015720367">
  <ele>188.330139</ele>
  <time>2012-06-23T04:37:56Z</time>
<extensions>
<speed>3.1</speed>
<temp>0.00</temp>
<bpm>0</bpm>
<rpm>0.00</rpm>
</extensions>
</trkpt>
<trkpt lat="32.584457397" lon="35.015686035">
  <ele>188.048889</ele>
  <time>2012-06-23T04:37:57Z</time>
<extensions>
<speed>3.2</speed>
<temp>0.00</temp>
<bpm>0</bpm>
<rpm>0.00</rpm>
</extensions>
</trkpt>
<trkpt lat="32.584457397" lon="35.015651703">
  <ele>187.849670</ele>
  <time>2012-06-23T04:37:58Z</time>
<extensions>
<speed>3.3</speed>
<temp>0.00</temp>
<bpm>0</bpm>
<rpm>0.00</rpm>
</extensions>
</trkpt>
<trkpt lat="32.584465027" lon="35.015617371">
  <ele>187.537170</ele>
  <time>2012-06-23T04:37:59Z</time>
<extensions>
<speed>3.2</speed>
<temp>0.00</temp>
<bpm>0</bpm>
<rpm>0.00</rpm>
</extensions>
</trkpt>
<trkpt lat="32.584465027" lon="35.015579224">
  <ele>188.150452</ele>
  <time>2012-06-23T04:38:00Z</time>
<extensions>
<speed>3.4</speed>
<temp>0.00</temp>
<bpm>0</bpm>
<rpm>0.00</rpm>
</extensions>
</trkpt>
<trkpt lat="32.584472656" lon="35.015541077">
  <ele>187.658264</ele>
  <time>2012-06-23T04:38:01Z</time>
<extensions>
<speed>3.3</speed>
<temp>0.00</temp>
<bpm>0</bpm>
<rpm>0.00</rpm>
</extensions>
</trkpt>
<trkpt lat="32.584472656" lon="35.015510559">
  <ele>187.830139</ele>
  <time>2012-06-23T04:38:02Z</time>
<extensions>
<speed>3.2</speed>
<temp>0.00</temp>
<bpm>0</bpm>
<rpm>0.00</rpm>
</extensions>
</trkpt>
<trkpt lat="32.584472656" lon="35.015464783">
  <ele>187.880920</ele>
  <time>2012-06-23T04:38:03Z</time>
<extensions>
<speed>3.0</speed>
<temp>0.00</temp>
<bpm>0</bpm>
<rpm>0.00</rpm>
</extensions>
</trkpt>
<trkpt lat="32.584476471" lon="35.015430450">
  <ele>187.669983</ele>
  <time>2012-06-23T04:38:04Z</time>
<extensions>
<speed>3.0</speed>
<temp>0.00</temp>
<bpm>0</bpm>
<rpm>0.00</rpm>
</extensions>
</trkpt>
<trkpt lat="32.584484100" lon="35.015361786">
  <ele>186.904358</ele>
  <time>2012-06-23T04:38:06Z</time>
<extensions>
<speed>3.1</speed>
<temp>0.00</temp>
<bpm>0</bpm>
<rpm>0.00</rpm>
</extensions>
</trkpt>
<trkpt lat="32.584487915" lon="35.015327454">
  <ele>186.529358</ele>
  <time>2012-06-23T04:38:07Z</time>
<extensions>
<speed>3.2</speed>
<temp>0.00</temp>
<bpm>0</bpm>
<rpm>0.00</rpm>
</extensions>
</trkpt>
<trkpt lat="32.584495544" lon="35.015289307">
  <ele>186.119202</ele>
  <time>2012-06-23T04:38:08Z</time>
<extensions>
<speed>3.1</speed>
<temp>0.00</temp>
<bpm>0</bpm>
<rpm>0.00</rpm>
</extensions>
</trkpt>
<trkpt lat="32.584499359" lon="35.015254974">
  <ele>185.916077</ele>
  <time>2012-06-23T04:38:09Z</time>
<extensions>
<speed>3.2</speed>
<temp>0.00</temp>
<bpm>0</bpm>
<rpm>0.00</rpm>
</extensions>
</trkpt>
<trkpt lat="32.584499359" lon="35.015216827">
  <ele>185.802795</ele>
  <time>2012-06-23T04:38:10Z</time>
<extensions>
<speed>3.5</speed>
<temp>0.00</temp>
<bpm>0</bpm>
<rpm>0.00</rpm>
</extensions>
</trkpt>
<trkpt lat="32.584491730" lon="35.015174866">
  <ele>186.099670</ele>
  <time>2012-06-23T04:38:11Z</time>
<extensions>
<speed>4.2</speed>
<temp>0.00</temp>
<bpm>0</bpm>
<rpm>0.00</rpm>
</extensions>
</trkpt>
<trkpt lat="32.584487915" lon="35.015129089">
  <ele>185.689514</ele>
  <time>2012-06-23T04:38:12Z</time>
<extensions>
<speed>4.5</speed>
<temp>0.00</temp>
<bpm>0</bpm>
<rpm>0.00</rpm>
</extensions>
</trkpt>
<trkpt lat="32.584487915" lon="35.015071869">
  <ele>186.533264</ele>
  <time>2012-06-23T04:38:13Z</time>
<extensions>
<speed>4.6</speed>
<temp>0.00</temp>
<bpm>0</bpm>
<rpm>0.00</rpm>
</extensions>
</trkpt>
<trkpt lat="32.584484100" lon="35.015022278">
  <ele>186.509827</ele>
  <time>2012-06-23T04:38:14Z</time>
<extensions>
<speed>4.6</speed>
<temp>0.00</temp>
<bpm>0</bpm>
<rpm>0.00</rpm>
</extensions>
</trkpt>
<trkpt lat="32.584484100" lon="35.014980316">
  <ele>186.697327</ele>
  <time>2012-06-23T04:38:15Z</time>
<extensions>
<speed>3.7</speed>
<temp>0.00</temp>
<bpm>0</bpm>
<rpm>0.00</rpm>
</extensions>
</trkpt>
<trkpt lat="32.584480286" lon="35.014938354">
  <ele>186.212952</ele>
  <time>2012-06-23T04:38:16Z</time>
<extensions>
<speed>4.1</speed>
<temp>0.00</temp>
<bpm>0</bpm>
<rpm>0.00</rpm>
</extensions>
</trkpt>
<trkpt lat="32.584487915" lon="35.014888763">
  <ele>186.044983</ele>
  <time>2012-06-23T04:38:17Z</time>
<extensions>
<speed>4.3</speed>
<temp>0.00</temp>
<bpm>0</bpm>
<rpm>0.00</rpm>
</extensions>
</trkpt>
<trkpt lat="32.584491730" lon="35.014839172">
  <ele>185.587952</ele>
  <time>2012-06-23T04:38:18Z</time>
<extensions>
<speed>4.3</speed>
<temp>0.00</temp>
<bpm>0</bpm>
<rpm>0.00</rpm>
</extensions>
</trkpt>
<trkpt lat="32.584499359" lon="35.014793396">
  <ele>184.888733</ele>
  <time>2012-06-23T04:38:19Z</time>
<extensions>
<speed>3.6</speed>
<temp>0.00</temp>
<bpm>0</bpm>
<rpm>0.00</rpm>
</extensions>
</trkpt>
<trkpt lat="32.584503174" lon="35.014759064">
  <ele>184.552795</ele>
  <time>2012-06-23T04:38:20Z</time>
<extensions>
<speed>3.2</speed>
<temp>0.00</temp>
<bpm>0</bpm>
<rpm>0.00</rpm>
</extensions>
</trkpt>
<trkpt lat="32.584499359" lon="35.014682770">
  <ele>184.142639</ele>
  <time>2012-06-23T04:38:22Z</time>
<extensions>
<speed>2.2</speed>
<temp>0.00</temp>
<bpm>0</bpm>
<rpm>0.00</rpm>
</extensions>
</trkpt>
<trkpt lat="32.584484100" lon="35.014644623">
  <ele>183.908264</ele>
  <time>2012-06-23T04:38:24Z</time>
<extensions>
<speed>1.8</speed>
<temp>0.00</temp>
<bpm>0</bpm>
<rpm>0.00</rpm>
</extensions>
</trkpt>
<trkpt lat="32.584491730" lon="35.014598846">
  <ele>184.318420</ele>
  <time>2012-06-23T04:38:26Z</time>
<extensions>
<speed>2.2</speed>
<temp>0.00</temp>
<bpm>0</bpm>
<rpm>0.00</rpm>
</extensions>
</trkpt>
<trkpt lat="32.584499359" lon="35.014564514">
  <ele>184.541077</ele>
  <time>2012-06-23T04:38:27Z</time>
<extensions>
<speed>3.2</speed>
<temp>0.00</temp>
<bpm>0</bpm>
<rpm>0.00</rpm>
</extensions>
</trkpt>
<trkpt lat="32.584506989" lon="35.014526367">
  <ele>184.185608</ele>
  <time>2012-06-23T04:38:28Z</time>
<extensions>
<speed>3.0</speed>
<temp>0.00</temp>
<bpm>0</bpm>
<rpm>0.00</rpm>
</extensions>
</trkpt>
<trkpt lat="32.584506989" lon="35.014488220">
  <ele>184.404358</ele>
  <time>2012-06-23T04:38:29Z</time>
<extensions>
<speed>3.0</speed>
<temp>0.00</temp>
<bpm>0</bpm>
<rpm>0.00</rpm>
</extensions>
</trkpt>
<trkpt lat="32.584503174" lon="35.014427185">
  <ele>184.255920</ele>
  <time>2012-06-23T04:38:31Z</time>
<extensions>
<speed>2.8</speed>
<temp>0.00</temp>
<bpm>0</bpm>
<rpm>0.00</rpm>
</extensions>
</trkpt>
<trkpt lat="32.584499359" lon="35.014392853">
  <ele>184.185608</ele>
  <time>2012-06-23T04:38:32Z</time>
<extensions>
<speed>3.0</speed>
<temp>0.00</temp>
<bpm>0</bpm>
<rpm>0.00</rpm>
</extensions>
</trkpt>
<trkpt lat="32.584499359" lon="35.014362335">
  <ele>183.841858</ele>
  <time>2012-06-23T04:38:33Z</time>
<extensions>
<speed>3.0</speed>
<temp>0.00</temp>
<bpm>0</bpm>
<rpm>0.00</rpm>
</extensions>
</trkpt>
<trkpt lat="32.584499359" lon="35.014316559">
  <ele>183.904358</ele>
  <time>2012-06-23T04:38:34Z</time>
<extensions>
<speed>3.5</speed>
<temp>0.00</temp>
<bpm>0</bpm>
<rpm>0.00</rpm>
</extensions>
</trkpt>
<trkpt lat="32.584503174" lon="35.014274597">
  <ele>183.209045</ele>
  <time>2012-06-23T04:38:35Z</time>
<extensions>
<speed>3.5</speed>
<temp>0.00</temp>
<bpm>0</bpm>
<rpm>0.00</rpm>
</extensions>
</trkpt>
<trkpt lat="32.584503174" lon="35.014228821">
  <ele>183.017639</ele>
  <time>2012-06-23T04:38:36Z</time>
<extensions>
<speed>3.8</speed>
<temp>0.00</temp>
<bpm>0</bpm>
<rpm>0.00</rpm>
</extensions>
</trkpt>
<trkpt lat="32.584503174" lon="35.014186859">
  <ele>182.763733</ele>
  <time>2012-06-23T04:38:37Z</time>
<extensions>
<speed>3.4</speed>
<temp>0.00</temp>
<bpm>0</bpm>
<rpm>0.00</rpm>
</extensions>
</trkpt>
<trkpt lat="32.584499359" lon="35.014148712">
  <ele>182.931702</ele>
  <time>2012-06-23T04:38:38Z</time>
<extensions>
<speed>3.6</speed>
<temp>0.00</temp>
<bpm>0</bpm>
<rpm>0.00</rpm>
</extensions>
</trkpt>
<trkpt lat="32.584487915" lon="35.014102936">
  <ele>182.669983</ele>
  <time>2012-06-23T04:38:39Z</time>
<extensions>
<speed>3.7</speed>
<temp>0.00</temp>
<bpm>0</bpm>
<rpm>0.00</rpm>
</extensions>
</trkpt>
<trkpt lat="32.584487915" lon="35.014053345">
  <ele>182.369202</ele>
  <time>2012-06-23T04:38:40Z</time>
<extensions>
<speed>3.8</speed>
<temp>0.00</temp>
<bpm>0</bpm>
<rpm>0.00</rpm>
</extensions>
</trkpt>
<trkpt lat="32.584484100" lon="35.014007568">
  <ele>183.107483</ele>
  <time>2012-06-23T04:38:41Z</time>
<extensions>
<speed>3.9</speed>
<temp>0.00</temp>
<bpm>0</bpm>
<rpm>0.00</rpm>
</extensions>
</trkpt>
<trkpt lat="32.584472656" lon="35.013969421">
  <ele>183.091858</ele>
  <time>2012-06-23T04:38:42Z</time>
<extensions>
<speed>3.6</speed>
<temp>0.00</temp>
<bpm>0</bpm>
<rpm>0.00</rpm>
</extensions>
</trkpt>
<trkpt lat="32.584461212" lon="35.013923645">
  <ele>182.849670</ele>
  <time>2012-06-23T04:38:43Z</time>
<extensions>
<speed>4.0</speed>
<temp>0.00</temp>
<bpm>0</bpm>
<rpm>0.00</rpm>
</extensions>
</trkpt>
<trkpt lat="32.584453583" lon="35.013889313">
  <ele>182.607483</ele>
  <time>2012-06-23T04:38:44Z</time>
<extensions>
<speed>4.0</speed>
<temp>0.00</temp>
<bpm>0</bpm>
<rpm>0.00</rpm>
</extensions>
</trkpt>
<trkpt lat="32.584445953" lon="35.013851166">
  <ele>182.259827</ele>
  <time>2012-06-23T04:38:45Z</time>
<extensions>
<speed>3.8</speed>
<temp>0.00</temp>
<bpm>0</bpm>
<rpm>0.00</rpm>
</extensions>
</trkpt>
<trkpt lat="32.584442139" lon="35.013813019">
  <ele>182.318420</ele>
  <time>2012-06-23T04:38:46Z</time>
<extensions>
<speed>3.7</speed>
<temp>0.00</temp>
<bpm>0</bpm>
<rpm>0.00</rpm>
</extensions>
</trkpt>
<trkpt lat="32.584438324" lon="35.013748169">
  <ele>182.802795</ele>
  <time>2012-06-23T04:38:48Z</time>
<extensions>
<speed>3.4</speed>
<temp>0.00</temp>
<bpm>0</bpm>
<rpm>0.00</rpm>
</extensions>
</trkpt>
<trkpt lat="32.584442139" lon="35.013710022">
  <ele>182.412170</ele>
  <time>2012-06-23T04:38:49Z</time>
<extensions>
<speed>3.6</speed>
<temp>0.00</temp>
<bpm>0</bpm>
<rpm>0.00</rpm>
</extensions>
</trkpt>
<trkpt lat="32.584438324" lon="35.013671875">
  <ele>182.584045</ele>
  <time>2012-06-23T04:38:50Z</time>
<extensions>
<speed>3.5</speed>
<temp>0.00</temp>
<bpm>0</bpm>
<rpm>0.00</rpm>
</extensions>
</trkpt>
<trkpt lat="32.584438324" lon="35.013633728">
  <ele>182.353577</ele>
  <time>2012-06-23T04:38:51Z</time>
<extensions>
<speed>3.8</speed>
<temp>0.00</temp>
<bpm>0</bpm>
<rpm>0.00</rpm>
</extensions>
</trkpt>
<trkpt lat="32.584438324" lon="35.013595581">
  <ele>181.959045</ele>
  <time>2012-06-23T04:38:52Z</time>
<extensions>
<speed>3.7</speed>
<temp>0.00</temp>
<bpm>0</bpm>
<rpm>0.00</rpm>
</extensions>
</trkpt>
<trkpt lat="32.584442139" lon="35.013557434">
  <ele>181.474670</ele>
  <time>2012-06-23T04:38:53Z</time>
<extensions>
<speed>3.5</speed>
<temp>0.00</temp>
<bpm>0</bpm>
<rpm>0.00</rpm>
</extensions>
</trkpt>
<trkpt lat="32.584445953" lon="35.013515472">
  <ele>181.158264</ele>
  <time>2012-06-23T04:38:54Z</time>
<extensions>
<speed>3.8</speed>
<temp>0.00</temp>
<bpm>0</bpm>
<rpm>0.00</rpm>
</extensions>
</trkpt>
<trkpt lat="32.584453583" lon="35.013477325">
  <ele>180.767639</ele>
  <time>2012-06-23T04:38:55Z</time>
<extensions>
<speed>3.6</speed>
<temp>0.00</temp>
<bpm>0</bpm>
<rpm>0.00</rpm>
</extensions>
</trkpt>
<trkpt lat="32.584461212" lon="35.013427734">
  <ele>179.509827</ele>
  <time>2012-06-23T04:38:56Z</time>
<extensions>
<speed>4.1</speed>
<temp>0.00</temp>
<bpm>0</bpm>
<rpm>0.00</rpm>
</extensions>
</trkpt>
<trkpt lat="32.584468842" lon="35.013385773">
  <ele>179.627014</ele>
  <time>2012-06-23T04:38:57Z</time>
<extensions>
<speed>4.1</speed>
<temp>0.00</temp>
<bpm>0</bpm>
<rpm>0.00</rpm>
</extensions>
</trkpt>
<trkpt lat="32.584480286" lon="35.013343811">
  <ele>179.486389</ele>
  <time>2012-06-23T04:38:58Z</time>
<extensions>
<speed>4.1</speed>
<temp>0.00</temp>
<bpm>0</bpm>
<rpm>0.00</rpm>
</extensions>
</trkpt>
<trkpt lat="32.584491730" lon="35.013301849">
  <ele>179.619202</ele>
  <time>2012-06-23T04:38:59Z</time>
<extensions>
<speed>4.2</speed>
<temp>0.00</temp>
<bpm>0</bpm>
<rpm>0.00</rpm>
</extensions>
</trkpt>
<trkpt lat="32.584510803" lon="35.013259888">
  <ele>178.998108</ele>
  <time>2012-06-23T04:39:00Z</time>
<extensions>
<speed>3.8</speed>
<temp>0.00</temp>
<bpm>0</bpm>
<rpm>0.00</rpm>
</extensions>
</trkpt>
<trkpt lat="32.584526062" lon="35.013214111">
  <ele>181.669983</ele>
  <time>2012-06-23T04:39:01Z</time>
<extensions>
<speed>4.0</speed>
<temp>0.00</temp>
<bpm>0</bpm>
<rpm>0.00</rpm>
</extensions>
</trkpt>
<trkpt lat="32.584537506" lon="35.013172150">
  <ele>182.212952</ele>
  <time>2012-06-23T04:39:02Z</time>
<extensions>
<speed>3.4</speed>
<temp>0.00</temp>
<bpm>0</bpm>
<rpm>0.00</rpm>
</extensions>
</trkpt>
<trkpt lat="32.584545135" lon="35.013141632">
  <ele>182.470764</ele>
  <time>2012-06-23T04:39:03Z</time>
<extensions>
<speed>2.9</speed>
<temp>0.00</temp>
<bpm>0</bpm>
<rpm>0.00</rpm>
</extensions>
</trkpt>
<trkpt lat="32.584552765" lon="35.013107300">
  <ele>182.236389</ele>
  <time>2012-06-23T04:39:04Z</time>
<extensions>
<speed>2.7</speed>
<temp>0.00</temp>
<bpm>0</bpm>
<rpm>0.00</rpm>
</extensions>
</trkpt>
<trkpt lat="32.584556580" lon="35.013076782">
  <ele>182.490295</ele>
  <time>2012-06-23T04:39:05Z</time>
<extensions>
<speed>2.1</speed>
<temp>0.00</temp>
<bpm>0</bpm>
<rpm>0.00</rpm>
</extensions>
</trkpt>
<trkpt lat="32.584564209" lon="35.013038635">
  <ele>182.322327</ele>
  <time>2012-06-23T04:39:07Z</time>
<extensions>
<speed>1.1</speed>
<temp>0.00</temp>
<bpm>0</bpm>
<rpm>0.00</rpm>
</extensions>
</trkpt>
<trkpt lat="32.584552765" lon="35.013023376">
  <ele>184.494202</ele>
  <time>2012-06-23T04:40:08Z</time>
<extensions>
<speed>0.0</speed>
<temp>0.00</temp>
<bpm>0</bpm>
<rpm>0.00</rpm>
</extensions>
</trkpt>
<trkpt lat="32.584537506" lon="35.012977600">
  <ele>184.837952</ele>
  <time>2012-06-23T04:42:32Z</time>
<extensions>
<speed>2.3</speed>
<temp>0.00</temp>
<bpm>0</bpm>
<rpm>0.00</rpm>
</extensions>
</trkpt>
<trkpt lat="32.584533691" lon="35.012916565">
  <ele>184.775452</ele>
  <time>2012-06-23T04:42:34Z</time>
<extensions>
<speed>2.9</speed>
<temp>0.00</temp>
<bpm>0</bpm>
<rpm>0.00</rpm>
</extensions>
</trkpt>
<trkpt lat="32.584533691" lon="35.012878418">
  <ele>185.212952</ele>
  <time>2012-06-23T04:42:35Z</time>
<extensions>
<speed>2.9</speed>
<temp>0.00</temp>
<bpm>0</bpm>
<rpm>0.00</rpm>
</extensions>
</trkpt>
<trkpt lat="32.584545135" lon="35.012844086">
  <ele>185.529358</ele>
  <time>2012-06-23T04:42:36Z</time>
<extensions>
<speed>3.1</speed>
<temp>0.00</temp>
<bpm>0</bpm>
<rpm>0.00</rpm>
</extensions>
</trkpt>
<trkpt lat="32.584564209" lon="35.012805939">
  <ele>185.193420</ele>
  <time>2012-06-23T04:42:37Z</time>
<extensions>
<speed>3.5</speed>
<temp>0.00</temp>
<bpm>0</bpm>
<rpm>0.00</rpm>
</extensions>
</trkpt>
<trkpt lat="32.584583282" lon="35.012775421">
  <ele>184.826233</ele>
  <time>2012-06-23T04:42:38Z</time>
<extensions>
<speed>3.1</speed>
<temp>0.00</temp>
<bpm>0</bpm>
<rpm>0.00</rpm>
</extensions>
</trkpt>
<trkpt lat="32.584602356" lon="35.012748718">
  <ele>184.603577</ele>
  <time>2012-06-23T04:42:39Z</time>
<extensions>
<speed>3.1</speed>
<temp>0.00</temp>
<bpm>0</bpm>
<rpm>0.00</rpm>
</extensions>
</trkpt>
<trkpt lat="32.584636688" lon="35.012691498">
  <ele>183.927795</ele>
  <time>2012-06-23T04:42:41Z</time>
<extensions>
<speed>3.1</speed>
<temp>0.00</temp>
<bpm>0</bpm>
<rpm>0.00</rpm>
</extensions>
</trkpt>
<trkpt lat="32.584648132" lon="35.012657166">
  <ele>183.451233</ele>
  <time>2012-06-23T04:42:42Z</time>
<extensions>
<speed>3.2</speed>
<temp>0.00</temp>
<bpm>0</bpm>
<rpm>0.00</rpm>
</extensions>
</trkpt>
<trkpt lat="32.584651947" lon="35.012607574">
  <ele>183.181702</ele>
  <time>2012-06-23T04:42:43Z</time>
<extensions>
<speed>4.2</speed>
<temp>0.00</temp>
<bpm>0</bpm>
<rpm>0.00</rpm>
</extensions>
</trkpt>
<trkpt lat="32.584659576" lon="35.012557983">
  <ele>182.810608</ele>
  <time>2012-06-23T04:42:44Z</time>
<extensions>
<speed>4.5</speed>
<temp>0.00</temp>
<bpm>0</bpm>
<rpm>0.00</rpm>
</extensions>
</trkpt>
<trkpt lat="32.584663391" lon="35.012496948">
  <ele>181.947327</ele>
  <time>2012-06-23T04:42:45Z</time>
<extensions>
<speed>5.0</speed>
<temp>0.00</temp>
<bpm>0</bpm>
<rpm>0.00</rpm>
</extensions>
</trkpt>
<trkpt lat="32.584671021" lon="35.012439728">
  <ele>182.353577</ele>
  <time>2012-06-23T04:42:46Z</time>
<extensions>
<speed>5.1</speed>
<temp>0.00</temp>
<bpm>0</bpm>
<rpm>0.00</rpm>
</extensions>
</trkpt>
<trkpt lat="32.584690094" lon="35.012386322">
  <ele>182.400452</ele>
  <time>2012-06-23T04:42:47Z</time>
<extensions>
<speed>5.1</speed>
<temp>0.00</temp>
<bpm>0</bpm>
<rpm>0.00</rpm>
</extensions>
</trkpt>
<trkpt lat="32.584712982" lon="35.012325287">
  <ele>183.209045</ele>
  <time>2012-06-23T04:42:48Z</time>
<extensions>
<speed>4.8</speed>
<temp>0.00</temp>
<bpm>0</bpm>
<rpm>0.00</rpm>
</extensions>
</trkpt>
<trkpt lat="32.584743500" lon="35.012271881">
  <ele>183.634827</ele>
  <time>2012-06-23T04:42:49Z</time>
<extensions>
<speed>5.1</speed>
<temp>0.00</temp>
<bpm>0</bpm>
<rpm>0.00</rpm>
</extensions>
</trkpt>
<trkpt lat="32.584774017" lon="35.012214661">
  <ele>184.361389</ele>
  <time>2012-06-23T04:42:50Z</time>
<extensions>
<speed>5.1</speed>
<temp>0.00</temp>
<bpm>0</bpm>
<rpm>0.00</rpm>
</extensions>
</trkpt>
<trkpt lat="32.584804535" lon="35.012165070">
  <ele>184.162170</ele>
  <time>2012-06-23T04:42:51Z</time>
<extensions>
<speed>4.6</speed>
<temp>0.00</temp>
<bpm>0</bpm>
<rpm>0.00</rpm>
</extensions>
</trkpt>
<trkpt lat="32.584835052" lon="35.012123108">
  <ele>184.435608</ele>
  <time>2012-06-23T04:42:52Z</time>
<extensions>
<speed>4.7</speed>
<temp>0.00</temp>
<bpm>0</bpm>
<rpm>0.00</rpm>
</extensions>
</trkpt>
<trkpt lat="32.584865570" lon="35.012081146">
  <ele>184.470764</ele>
  <time>2012-06-23T04:42:53Z</time>
<extensions>
<speed>4.7</speed>
<temp>0.00</temp>
<bpm>0</bpm>
<rpm>0.00</rpm>
</extensions>
</trkpt>
<trkpt lat="32.584888458" lon="35.012039185">
  <ele>183.939514</ele>
  <time>2012-06-23T04:42:54Z</time>
<extensions>
<speed>4.4</speed>
<temp>0.00</temp>
<bpm>0</bpm>
<rpm>0.00</rpm>
</extensions>
</trkpt>
<trkpt lat="32.584915161" lon="35.011997223">
  <ele>184.869202</ele>
  <time>2012-06-23T04:42:55Z</time>
<extensions>
<speed>4.4</speed>
<temp>0.00</temp>
<bpm>0</bpm>
<rpm>0.00</rpm>
</extensions>
</trkpt>
<trkpt lat="32.584941864" lon="35.011959076">
  <ele>185.162170</ele>
  <time>2012-06-23T04:42:56Z</time>
<extensions>
<speed>4.6</speed>
<temp>0.00</temp>
<bpm>0</bpm>
<rpm>0.00</rpm>
</extensions>
</trkpt>
<trkpt lat="32.584960938" lon="35.011917114">
  <ele>184.712952</ele>
  <time>2012-06-23T04:42:57Z</time>
<extensions>
<speed>4.6</speed>
<temp>0.00</temp>
<bpm>0</bpm>
<rpm>0.00</rpm>
</extensions>
</trkpt>
<trkpt lat="32.584983826" lon="35.011871338">
  <ele>184.931702</ele>
  <time>2012-06-23T04:42:58Z</time>
<extensions>
<speed>4.6</speed>
<temp>0.00</temp>
<bpm>0</bpm>
<rpm>0.00</rpm>
</extensions>
</trkpt>
<trkpt lat="32.585002899" lon="35.011825562">
  <ele>184.638733</ele>
  <time>2012-06-23T04:42:59Z</time>
<extensions>
<speed>4.6</speed>
<temp>0.00</temp>
<bpm>0</bpm>
<rpm>0.00</rpm>
</extensions>
</trkpt>
<trkpt lat="32.585018158" lon="35.011775970">
  <ele>184.919983</ele>
  <time>2012-06-23T04:43:00Z</time>
<extensions>
<speed>4.6</speed>
<temp>0.00</temp>
<bpm>0</bpm>
<rpm>0.00</rpm>
</extensions>
</trkpt>
<trkpt lat="32.585033417" lon="35.011730194">
  <ele>185.275452</ele>
  <time>2012-06-23T04:43:01Z</time>
<extensions>
<speed>4.1</speed>
<temp>0.00</temp>
<bpm>0</bpm>
<rpm>0.00</rpm>
</extensions>
</trkpt>
<trkpt lat="32.585041046" lon="35.011688232">
  <ele>185.255920</ele>
  <time>2012-06-23T04:43:02Z</time>
<extensions>
<speed>4.1</speed>
<temp>0.00</temp>
<bpm>0</bpm>
<rpm>0.00</rpm>
</extensions>
</trkpt>
<trkpt lat="32.585048676" lon="35.011650085">
  <ele>184.923889</ele>
  <time>2012-06-23T04:43:03Z</time>
<extensions>
<speed>4.0</speed>
<temp>0.00</temp>
<bpm>0</bpm>
<rpm>0.00</rpm>
</extensions>
</trkpt>
<trkpt lat="32.585060120" lon="35.011615753">
  <ele>184.787170</ele>
  <time>2012-06-23T04:43:04Z</time>
<extensions>
<speed>3.3</speed>
<temp>0.00</temp>
<bpm>0</bpm>
<rpm>0.00</rpm>
</extensions>
</trkpt>
<trkpt lat="32.585063934" lon="35.011577606">
  <ele>184.576233</ele>
  <time>2012-06-23T04:43:05Z</time>
<extensions>
<speed>2.9</speed>
<temp>0.00</temp>
<bpm>0</bpm>
<rpm>0.00</rpm>
</extensions>
</trkpt>
<trkpt lat="32.585063934" lon="35.011539459">
  <ele>184.330139</ele>
  <time>2012-06-23T04:43:06Z</time>
<extensions>
<speed>4.0</speed>
<temp>0.00</temp>
<bpm>0</bpm>
<rpm>0.00</rpm>
</extensions>
</trkpt>
<trkpt lat="32.585063934" lon="35.011489868">
  <ele>184.177795</ele>
  <time>2012-06-23T04:43:07Z</time>
<extensions>
<speed>4.1</speed>
<temp>0.00</temp>
<bpm>0</bpm>
<rpm>0.00</rpm>
</extensions>
</trkpt>
<trkpt lat="32.585067749" lon="35.011451721">
  <ele>184.146545</ele>
  <time>2012-06-23T04:43:08Z</time>
<extensions>
<speed>3.7</speed>
<temp>0.00</temp>
<bpm>0</bpm>
<rpm>0.00</rpm>
</extensions>
</trkpt>
<trkpt lat="32.585075378" lon="35.011409760">
  <ele>184.205139</ele>
  <time>2012-06-23T04:43:09Z</time>
<extensions>
<speed>3.6</speed>
<temp>0.00</temp>
<bpm>0</bpm>
<rpm>0.00</rpm>
</extensions>
</trkpt>
<trkpt lat="32.585075378" lon="35.011367798">
  <ele>184.322327</ele>
  <time>2012-06-23T04:43:10Z</time>
<extensions>
<speed>3.7</speed>
<temp>0.00</temp>
<bpm>0</bpm>
<rpm>0.00</rpm>
</extensions>
</trkpt>
<trkpt lat="32.585075378" lon="35.011325836">
  <ele>184.666077</ele>
  <time>2012-06-23T04:43:11Z</time>
<extensions>
<speed>3.4</speed>
<temp>0.00</temp>
<bpm>0</bpm>
<rpm>0.00</rpm>
</extensions>
</trkpt>
<trkpt lat="32.585071564" lon="35.011291504">
  <ele>184.209045</ele>
  <time>2012-06-23T04:43:12Z</time>
<extensions>
<speed>3.1</speed>
<temp>0.00</temp>
<bpm>0</bpm>
<rpm>0.00</rpm>
</extensions>
</trkpt>
<trkpt lat="32.585067749" lon="35.011249542">
  <ele>183.556702</ele>
  <time>2012-06-23T04:43:13Z</time>
<extensions>
<speed>3.3</speed>
<temp>0.00</temp>
<bpm>0</bpm>
<rpm>0.00</rpm>
</extensions>
</trkpt>
<trkpt lat="32.585063934" lon="35.011207581">
  <ele>182.810608</ele>
  <time>2012-06-23T04:43:14Z</time>
<extensions>
<speed>3.7</speed>
<temp>0.00</temp>
<bpm>0</bpm>
<rpm>0.00</rpm>
</extensions>
</trkpt>
<trkpt lat="32.585056305" lon="35.011161804">
  <ele>182.404358</ele>
  <time>2012-06-23T04:43:15Z</time>
<extensions>
<speed>3.9</speed>
<temp>0.00</temp>
<bpm>0</bpm>
<rpm>0.00</rpm>
</extensions>
</trkpt>
<trkpt lat="32.585048676" lon="35.011119843">
  <ele>182.005920</ele>
  <time>2012-06-23T04:43:16Z</time>
<extensions>
<speed>3.5</speed>
<temp>0.00</temp>
<bpm>0</bpm>
<rpm>0.00</rpm>
</extensions>
</trkpt>
<trkpt lat="32.585041046" lon="35.011077881">
  <ele>182.177795</ele>
  <time>2012-06-23T04:43:17Z</time>
<extensions>
<speed>3.6</speed>
<temp>0.00</temp>
<bpm>0</bpm>
<rpm>0.00</rpm>
</extensions>
</trkpt>
<trkpt lat="32.585033417" lon="35.011032104">
  <ele>182.220764</ele>
  <time>2012-06-23T04:43:18Z</time>
<extensions>
<speed>3.8</speed>
<temp>0.00</temp>
<bpm>0</bpm>
<rpm>0.00</rpm>
</extensions>
</trkpt>
<trkpt lat="32.585025787" lon="35.010997772">
  <ele>182.615295</ele>
  <time>2012-06-23T04:43:19Z</time>
<extensions>
<speed>3.7</speed>
<temp>0.00</temp>
<bpm>0</bpm>
<rpm>0.00</rpm>
</extensions>
</trkpt>
<trkpt lat="32.585010529" lon="35.010955811">
  <ele>182.228577</ele>
  <time>2012-06-23T04:43:20Z</time>
<extensions>
<speed>3.8</speed>
<temp>0.00</temp>
<bpm>0</bpm>
<rpm>0.00</rpm>
</extensions>
</trkpt>
<trkpt lat="32.584999084" lon="35.010925293">
  <ele>181.310608</ele>
  <time>2012-06-23T04:43:21Z</time>
<extensions>
<speed>3.4</speed>
<temp>0.00</temp>
<bpm>0</bpm>
<rpm>0.00</rpm>
</extensions>
</trkpt>
<trkpt lat="32.584987640" lon="35.010890961">
  <ele>181.287170</ele>
  <time>2012-06-23T04:43:22Z</time>
<extensions>
<speed>3.5</speed>
<temp>0.00</temp>
<bpm>0</bpm>
<rpm>0.00</rpm>
</extensions>
</trkpt>
<trkpt lat="32.584968567" lon="35.010856628">
  <ele>181.724670</ele>
  <time>2012-06-23T04:43:23Z</time>
<extensions>
<speed>3.8</speed>
<temp>0.00</temp>
<bpm>0</bpm>
<rpm>0.00</rpm>
</extensions>
</trkpt>
<trkpt lat="32.584945679" lon="35.010799408">
  <ele>182.322327</ele>
  <time>2012-06-23T04:43:24Z</time>
<extensions>
<speed>4.1</speed>
<temp>0.00</temp>
<bpm>0</bpm>
<rpm>0.00</rpm>
</extensions>
</trkpt>
<trkpt lat="32.584918976" lon="35.010753632">
  <ele>182.240295</ele>
  <time>2012-06-23T04:43:25Z</time>
<extensions>
<speed>4.3</speed>
<temp>0.00</temp>
<bpm>0</bpm>
<rpm>0.00</rpm>
</extensions>
</trkpt>
<trkpt lat="32.584892273" lon="35.010723114">
  <ele>182.814514</ele>
  <time>2012-06-23T04:43:26Z</time>
<extensions>
<speed>4.2</speed>
<temp>0.00</temp>
<bpm>0</bpm>
<rpm>0.00</rpm>
</extensions>
</trkpt>
<trkpt lat="32.584861755" lon="35.010681152">
  <ele>182.959045</ele>
  <time>2012-06-23T04:43:27Z</time>
<extensions>
<speed>4.4</speed>
<temp>0.00</temp>
<bpm>0</bpm>
<rpm>0.00</rpm>
</extensions>
</trkpt>
<trkpt lat="32.584835052" lon="35.010643005">
  <ele>182.240295</ele>
  <time>2012-06-23T04:43:28Z</time>
<extensions>
<speed>4.7</speed>
<temp>0.00</temp>
<bpm>0</bpm>
<rpm>0.00</rpm>
</extensions>
</trkpt>
<trkpt lat="32.584808350" lon="35.010604858">
  <ele>182.916077</ele>
  <time>2012-06-23T04:43:29Z</time>
<extensions>
<speed>4.6</speed>
<temp>0.00</temp>
<bpm>0</bpm>
<rpm>0.00</rpm>
</extensions>
</trkpt>
<trkpt lat="32.584781647" lon="35.010570526">
  <ele>182.638733</ele>
  <time>2012-06-23T04:43:30Z</time>
<extensions>
<speed>4.3</speed>
<temp>0.00</temp>
<bpm>0</bpm>
<rpm>0.00</rpm>
</extensions>
</trkpt>
<trkpt lat="32.584754944" lon="35.010532379">
  <ele>182.720764</ele>
  <time>2012-06-23T04:43:31Z</time>
<extensions>
<speed>4.4</speed>
<temp>0.00</temp>
<bpm>0</bpm>
<rpm>0.00</rpm>
</extensions>
</trkpt>
<trkpt lat="32.584732056" lon="35.010494232">
  <ele>183.564514</ele>
  <time>2012-06-23T04:43:32Z</time>
<extensions>
<speed>4.0</speed>
<temp>0.00</temp>
<bpm>0</bpm>
<rpm>0.00</rpm>
</extensions>
</trkpt>
<trkpt lat="32.584701538" lon="35.010456085">
  <ele>183.490295</ele>
  <time>2012-06-23T04:43:33Z</time>
<extensions>
<speed>4.3</speed>
<temp>0.00</temp>
<bpm>0</bpm>
<rpm>0.00</rpm>
</extensions>
</trkpt>
<trkpt lat="32.584678650" lon="35.010421753">
  <ele>183.615295</ele>
  <time>2012-06-23T04:43:34Z</time>
<extensions>
<speed>4.2</speed>
<temp>0.00</temp>
<bpm>0</bpm>
<rpm>0.00</rpm>
</extensions>
</trkpt>
<trkpt lat="32.584655762" lon="35.010395050">
  <ele>182.720764</ele>
  <time>2012-06-23T04:43:35Z</time>
<extensions>
<speed>3.7</speed>
<temp>0.00</temp>
<bpm>0</bpm>
<rpm>0.00</rpm>
</extensions>
</trkpt>
<trkpt lat="32.584632874" lon="35.010364532">
  <ele>181.677795</ele>
  <time>2012-06-23T04:43:36Z</time>
<extensions>
<speed>3.7</speed>
<temp>0.00</temp>
<bpm>0</bpm>
<rpm>0.00</rpm>
</extensions>
</trkpt>
<trkpt lat="32.584613800" lon="35.010330200">
  <ele>181.552795</ele>
  <time>2012-06-23T04:43:37Z</time>
<extensions>
<speed>3.7</speed>
<temp>0.00</temp>
<bpm>0</bpm>
<rpm>0.00</rpm>
</extensions>
</trkpt>
<trkpt lat="32.584594727" lon="35.010303497">
  <ele>180.318420</ele>
  <time>2012-06-23T04:43:38Z</time>
<extensions>
<speed>3.1</speed>
<temp>0.00</temp>
<bpm>0</bpm>
<rpm>0.00</rpm>
</extensions>
</trkpt>
<trkpt lat="32.584579468" lon="35.010272980">
  <ele>180.201233</ele>
  <time>2012-06-23T04:43:39Z</time>
<extensions>
<speed>3.1</speed>
<temp>0.00</temp>
<bpm>0</bpm>
<rpm>0.00</rpm>
</extensions>
</trkpt>
<trkpt lat="32.584548950" lon="35.010238647">
  <ele>180.462952</ele>
  <time>2012-06-23T04:43:40Z</time>
<extensions>
<speed>3.6</speed>
<temp>0.00</temp>
<bpm>0</bpm>
<rpm>0.00</rpm>
</extensions>
</trkpt>
<trkpt lat="32.584526062" lon="35.010204315">
  <ele>180.502014</ele>
  <time>2012-06-23T04:43:41Z</time>
<extensions>
<speed>4.0</speed>
<temp>0.00</temp>
<bpm>0</bpm>
<rpm>0.00</rpm>
</extensions>
</trkpt>
<trkpt lat="32.584495544" lon="35.010169983">
  <ele>180.974670</ele>
  <time>2012-06-23T04:43:42Z</time>
<extensions>
<speed>4.0</speed>
<temp>0.00</temp>
<bpm>0</bpm>
<rpm>0.00</rpm>
</extensions>
</trkpt>
<trkpt lat="32.584472656" lon="35.010135651">
  <ele>180.744202</ele>
  <time>2012-06-23T04:43:43Z</time>
<extensions>
<speed>4.5</speed>
<temp>0.00</temp>
<bpm>0</bpm>
<rpm>0.00</rpm>
</extensions>
</trkpt>
<trkpt lat="32.584445953" lon="35.010093689">
  <ele>180.884827</ele>
  <time>2012-06-23T04:43:44Z</time>
<extensions>
<speed>4.4</speed>
<temp>0.00</temp>
<bpm>0</bpm>
<rpm>0.00</rpm>
</extensions>
</trkpt>
<trkpt lat="32.584415436" lon="35.010055542">
  <ele>180.837952</ele>
  <time>2012-06-23T04:43:45Z</time>
<extensions>
<speed>4.5</speed>
<temp>0.00</temp>
<bpm>0</bpm>
<rpm>0.00</rpm>
</extensions>
</trkpt>
<trkpt lat="32.584392548" lon="35.010005951">
  <ele>179.998108</ele>
  <time>2012-06-23T04:43:46Z</time>
<extensions>
<speed>4.3</speed>
<temp>0.00</temp>
<bpm>0</bpm>
<rpm>0.00</rpm>
</extensions>
</trkpt>
<trkpt lat="32.584365845" lon="35.009967804">
  <ele>180.607483</ele>
  <time>2012-06-23T04:43:47Z</time>
<extensions>
<speed>4.2</speed>
<temp>0.00</temp>
<bpm>0</bpm>
<rpm>0.00</rpm>
</extensions>
</trkpt>
<trkpt lat="32.584342957" lon="35.009933472">
  <ele>180.591858</ele>
  <time>2012-06-23T04:43:48Z</time>
<extensions>
<speed>4.2</speed>
<temp>0.00</temp>
<bpm>0</bpm>
<rpm>0.00</rpm>
</extensions>
</trkpt>
<trkpt lat="32.584312439" lon="35.009891510">
  <ele>182.334045</ele>
  <time>2012-06-23T04:43:49Z</time>
<extensions>
<speed>4.3</speed>
<temp>0.00</temp>
<bpm>0</bpm>
<rpm>0.00</rpm>
</extensions>
</trkpt>
<trkpt lat="32.584285736" lon="35.009853363">
  <ele>182.197327</ele>
  <time>2012-06-23T04:43:50Z</time>
<extensions>
<speed>4.1</speed>
<temp>0.00</temp>
<bpm>0</bpm>
<rpm>0.00</rpm>
</extensions>
</trkpt>
<trkpt lat="32.584259033" lon="35.009815216">
  <ele>183.654358</ele>
  <time>2012-06-23T04:43:51Z</time>
<extensions>
<speed>4.2</speed>
<temp>0.00</temp>
<bpm>0</bpm>
<rpm>0.00</rpm>
</extensions>
</trkpt>
<trkpt lat="32.584239960" lon="35.009769440">
  <ele>183.392639</ele>
  <time>2012-06-23T04:43:52Z</time>
<extensions>
<speed>3.7</speed>
<temp>0.00</temp>
<bpm>0</bpm>
<rpm>0.00</rpm>
</extensions>
</trkpt>
<trkpt lat="32.584224701" lon="35.009738922">
  <ele>183.373108</ele>
  <time>2012-06-23T04:43:53Z</time>
<extensions>
<speed>3.9</speed>
<temp>0.00</temp>
<bpm>0</bpm>
<rpm>0.00</rpm>
</extensions>
</trkpt>
<trkpt lat="32.584209442" lon="35.009700775">
  <ele>183.369202</ele>
  <time>2012-06-23T04:43:54Z</time>
<extensions>
<speed>4.2</speed>
<temp>0.00</temp>
<bpm>0</bpm>
<rpm>0.00</rpm>
</extensions>
</trkpt>
<trkpt lat="32.584190369" lon="35.009658813">
  <ele>183.861389</ele>
  <time>2012-06-23T04:43:55Z</time>
<extensions>
<speed>4.3</speed>
<temp>0.00</temp>
<bpm>0</bpm>
<rpm>0.00</rpm>
</extensions>
</trkpt>
<trkpt lat="32.584171295" lon="35.009620667">
  <ele>183.595764</ele>
  <time>2012-06-23T04:43:56Z</time>
<extensions>
<speed>3.8</speed>
<temp>0.00</temp>
<bpm>0</bpm>
<rpm>0.00</rpm>
</extensions>
</trkpt>
<trkpt lat="32.584159851" lon="35.009582520">
  <ele>183.314514</ele>
  <time>2012-06-23T04:43:57Z</time>
<extensions>
<speed>4.1</speed>
<temp>0.00</temp>
<bpm>0</bpm>
<rpm>0.00</rpm>
</extensions>
</trkpt>
<trkpt lat="32.584152222" lon="35.009540558">
  <ele>182.908264</ele>
  <time>2012-06-23T04:43:58Z</time>
<extensions>
<speed>4.1</speed>
<temp>0.00</temp>
<bpm>0</bpm>
<rpm>0.00</rpm>
</extensions>
</trkpt>
<trkpt lat="32.584140778" lon="35.009502411">
  <ele>182.900452</ele>
  <time>2012-06-23T04:43:59Z</time>
<extensions>
<speed>4.0</speed>
<temp>0.00</temp>
<bpm>0</bpm>
<rpm>0.00</rpm>
</extensions>
</trkpt>
<trkpt lat="32.584129333" lon="35.009460449">
  <ele>182.908264</ele>
  <time>2012-06-23T04:44:00Z</time>
<extensions>
<speed>4.2</speed>
<temp>0.00</temp>
<bpm>0</bpm>
<rpm>0.00</rpm>
</extensions>
</trkpt>
<trkpt lat="32.584114075" lon="35.009418488">
  <ele>183.259827</ele>
  <time>2012-06-23T04:44:01Z</time>
<extensions>
<speed>4.4</speed>
<temp>0.00</temp>
<bpm>0</bpm>
<rpm>0.00</rpm>
</extensions>
</trkpt>
<trkpt lat="32.584102631" lon="35.009372711">
  <ele>182.779358</ele>
  <time>2012-06-23T04:44:02Z</time>
<extensions>
<speed>4.5</speed>
<temp>0.00</temp>
<bpm>0</bpm>
<rpm>0.00</rpm>
</extensions>
</trkpt>
<trkpt lat="32.584091187" lon="35.009326935">
  <ele>183.220764</ele>
  <time>2012-06-23T04:44:03Z</time>
<extensions>
<speed>4.2</speed>
<temp>0.00</temp>
<bpm>0</bpm>
<rpm>0.00</rpm>
</extensions>
</trkpt>
<trkpt lat="32.584075928" lon="35.009281158">
  <ele>183.716858</ele>
  <time>2012-06-23T04:44:04Z</time>
<extensions>
<speed>4.1</speed>
<temp>0.00</temp>
<bpm>0</bpm>
<rpm>0.00</rpm>
</extensions>
</trkpt>
<trkpt lat="32.584068298" lon="35.009235382">
  <ele>183.408264</ele>
  <time>2012-06-23T04:44:05Z</time>
<extensions>
<speed>4.1</speed>
<temp>0.00</temp>
<bpm>0</bpm>
<rpm>0.00</rpm>
</extensions>
</trkpt>
<trkpt lat="32.584060669" lon="35.009193420">
  <ele>183.228577</ele>
  <time>2012-06-23T04:44:06Z</time>
<extensions>
<speed>4.1</speed>
<temp>0.00</temp>
<bpm>0</bpm>
<rpm>0.00</rpm>
</extensions>
</trkpt>
<trkpt lat="32.584049225" lon="35.009147644">
  <ele>183.627014</ele>
  <time>2012-06-23T04:44:07Z</time>
<extensions>
<speed>4.1</speed>
<temp>0.00</temp>
<bpm>0</bpm>
<rpm>0.00</rpm>
</extensions>
</trkpt>
<trkpt lat="32.584037781" lon="35.009105682">
  <ele>182.951233</ele>
  <time>2012-06-23T04:44:08Z</time>
<extensions>
<speed>4.0</speed>
<temp>0.00</temp>
<bpm>0</bpm>
<rpm>0.00</rpm>
</extensions>
</trkpt>
<trkpt lat="32.584026337" lon="35.009059906">
  <ele>183.033264</ele>
  <time>2012-06-23T04:44:09Z</time>
<extensions>
<speed>4.3</speed>
<temp>0.00</temp>
<bpm>0</bpm>
<rpm>0.00</rpm>
</extensions>
</trkpt>
<trkpt lat="32.584018707" lon="35.009014130">
  <ele>183.068420</ele>
  <time>2012-06-23T04:44:10Z</time>
<extensions>
<speed>4.1</speed>
<temp>0.00</temp>
<bpm>0</bpm>
<rpm>0.00</rpm>
</extensions>
</trkpt>
<trkpt lat="32.584011078" lon="35.008968353">
  <ele>182.697327</ele>
  <time>2012-06-23T04:44:11Z</time>
<extensions>
<speed>4.3</speed>
<temp>0.00</temp>
<bpm>0</bpm>
<rpm>0.00</rpm>
</extensions>
</trkpt>
<trkpt lat="32.584007263" lon="35.008926392">
  <ele>182.025452</ele>
  <time>2012-06-23T04:44:12Z</time>
<extensions>
<speed>4.0</speed>
<temp>0.00</temp>
<bpm>0</bpm>
<rpm>0.00</rpm>
</extensions>
</trkpt>
<trkpt lat="32.584003448" lon="35.008884430">
  <ele>181.568420</ele>
  <time>2012-06-23T04:44:13Z</time>
<extensions>
<speed>4.0</speed>
<temp>0.00</temp>
<bpm>0</bpm>
<rpm>0.00</rpm>
</extensions>
</trkpt>
<trkpt lat="32.583999634" lon="35.008838654">
  <ele>181.525452</ele>
  <time>2012-06-23T04:44:14Z</time>
<extensions>
<speed>4.3</speed>
<temp>0.00</temp>
<bpm>0</bpm>
<rpm>0.00</rpm>
</extensions>
</trkpt>
<trkpt lat="32.583999634" lon="35.008789063">
  <ele>182.240295</ele>
  <time>2012-06-23T04:44:15Z</time>
<extensions>
<speed>4.6</speed>
<temp>0.00</temp>
<bpm>0</bpm>
<rpm>0.00</rpm>
</extensions>
</trkpt>
<trkpt lat="32.583999634" lon="35.008743286">
  <ele>181.935608</ele>
  <time>2012-06-23T04:44:16Z</time>
<extensions>
<speed>4.3</speed>
<temp>0.00</temp>
<bpm>0</bpm>
<rpm>0.00</rpm>
</extensions>
</trkpt>
<trkpt lat="32.584003448" lon="35.008693695">
  <ele>181.794983</ele>
  <time>2012-06-23T04:44:17Z</time>
<extensions>
<speed>4.4</speed>
<temp>0.00</temp>
<bpm>0</bpm>
<rpm>0.00</rpm>
</extensions>
</trkpt>
<trkpt lat="32.584007263" lon="35.008640289">
  <ele>182.431702</ele>
  <time>2012-06-23T04:44:18Z</time>
<extensions>
<speed>4.9</speed>
<temp>0.00</temp>
<bpm>0</bpm>
<rpm>0.00</rpm>
</extensions>
</trkpt>
<trkpt lat="32.584003448" lon="35.008586884">
  <ele>182.576233</ele>
  <time>2012-06-23T04:44:19Z</time>
<extensions>
<speed>4.8</speed>
<temp>0.00</temp>
<bpm>0</bpm>
<rpm>0.00</rpm>
</extensions>
</trkpt>
<trkpt lat="32.583995819" lon="35.008537292">
  <ele>183.119202</ele>
  <time>2012-06-23T04:44:20Z</time>
<extensions>
<speed>5.1</speed>
<temp>0.00</temp>
<bpm>0</bpm>
<rpm>0.00</rpm>
</extensions>
</trkpt>
<trkpt lat="32.583980560" lon="35.008483887">
  <ele>183.177795</ele>
  <time>2012-06-23T04:44:21Z</time>
<extensions>
<speed>5.0</speed>
<temp>0.00</temp>
<bpm>0</bpm>
<rpm>0.00</rpm>
</extensions>
</trkpt>
<trkpt lat="32.583961487" lon="35.008430481">
  <ele>182.669983</ele>
  <time>2012-06-23T04:44:22Z</time>
<extensions>
<speed>5.1</speed>
<temp>0.00</temp>
<bpm>0</bpm>
<rpm>0.00</rpm>
</extensions>
</trkpt>
<trkpt lat="32.583946228" lon="35.008380890">
  <ele>183.103577</ele>
  <time>2012-06-23T04:44:23Z</time>
<extensions>
<speed>5.2</speed>
<temp>0.00</temp>
<bpm>0</bpm>
<rpm>0.00</rpm>
</extensions>
</trkpt>
<trkpt lat="32.583930969" lon="35.008331299">
  <ele>183.369202</ele>
  <time>2012-06-23T04:44:24Z</time>
<extensions>
<speed>5.1</speed>
<temp>0.00</temp>
<bpm>0</bpm>
<rpm>0.00</rpm>
</extensions>
</trkpt>
<trkpt lat="32.583919525" lon="35.008285522">
  <ele>183.337952</ele>
  <time>2012-06-23T04:44:25Z</time>
<extensions>
<speed>4.7</speed>
<temp>0.00</temp>
<bpm>0</bpm>
<rpm>0.00</rpm>
</extensions>
</trkpt>
<trkpt lat="32.583911896" lon="35.008235931">
  <ele>183.209045</ele>
  <time>2012-06-23T04:44:26Z</time>
<extensions>
<speed>4.4</speed>
<temp>0.00</temp>
<bpm>0</bpm>
<rpm>0.00</rpm>
</extensions>
</trkpt>
<trkpt lat="32.583900452" lon="35.008193970">
  <ele>182.603577</ele>
  <time>2012-06-23T04:44:27Z</time>
<extensions>
<speed>4.0</speed>
<temp>0.00</temp>
<bpm>0</bpm>
<rpm>0.00</rpm>
</extensions>
</trkpt>
<trkpt lat="32.583892822" lon="35.008152008">
  <ele>182.494202</ele>
  <time>2012-06-23T04:44:28Z</time>
<extensions>
<speed>4.3</speed>
<temp>0.00</temp>
<bpm>0</bpm>
<rpm>0.00</rpm>
</extensions>
</trkpt>
<trkpt lat="32.583881378" lon="35.008110046">
  <ele>183.084045</ele>
  <time>2012-06-23T04:44:29Z</time>
<extensions>
<speed>4.3</speed>
<temp>0.00</temp>
<bpm>0</bpm>
<rpm>0.00</rpm>
</extensions>
</trkpt>
<trkpt lat="32.583869934" lon="35.008060455">
  <ele>182.556702</ele>
  <time>2012-06-23T04:44:30Z</time>
<extensions>
<speed>4.4</speed>
<temp>0.00</temp>
<bpm>0</bpm>
<rpm>0.00</rpm>
</extensions>
</trkpt>
<trkpt lat="32.583866119" lon="35.008014679">
  <ele>182.127014</ele>
  <time>2012-06-23T04:44:31Z</time>
<extensions>
<speed>4.6</speed>
<temp>0.00</temp>
<bpm>0</bpm>
<rpm>0.00</rpm>
</extensions>
</trkpt>
<trkpt lat="32.583866119" lon="35.007965088">
  <ele>181.556702</ele>
  <time>2012-06-23T04:44:32Z</time>
<extensions>
<speed>4.7</speed>
<temp>0.00</temp>
<bpm>0</bpm>
<rpm>0.00</rpm>
</extensions>
</trkpt>
<trkpt lat="32.583862305" lon="35.007915497">
  <ele>180.896545</ele>
  <time>2012-06-23T04:44:33Z</time>
<extensions>
<speed>4.7</speed>
<temp>0.00</temp>
<bpm>0</bpm>
<rpm>0.00</rpm>
</extensions>
</trkpt>
<trkpt lat="32.583866119" lon="35.007865906">
  <ele>180.822327</ele>
  <time>2012-06-23T04:44:34Z</time>
<extensions>
<speed>4.7</speed>
<temp>0.00</temp>
<bpm>0</bpm>
<rpm>0.00</rpm>
</extensions>
</trkpt>
<trkpt lat="32.583869934" lon="35.007812500">
  <ele>180.857483</ele>
  <time>2012-06-23T04:44:35Z</time>
<extensions>
<speed>4.6</speed>
<temp>0.00</temp>
<bpm>0</bpm>
<rpm>0.00</rpm>
</extensions>
</trkpt>
<trkpt lat="32.583873749" lon="35.007766724">
  <ele>181.544983</ele>
  <time>2012-06-23T04:44:36Z</time>
<extensions>
<speed>4.0</speed>
<temp>0.00</temp>
<bpm>0</bpm>
<rpm>0.00</rpm>
</extensions>
</trkpt>
<trkpt lat="32.583877563" lon="35.007724762">
  <ele>181.388733</ele>
  <time>2012-06-23T04:44:37Z</time>
<extensions>
<speed>4.0</speed>
<temp>0.00</temp>
<bpm>0</bpm>
<rpm>0.00</rpm>
</extensions>
</trkpt>
<trkpt lat="32.583877563" lon="35.007686615">
  <ele>180.259827</ele>
  <time>2012-06-23T04:44:38Z</time>
<extensions>
<speed>4.1</speed>
<temp>0.00</temp>
<bpm>0</bpm>
<rpm>0.00</rpm>
</extensions>
</trkpt>
<trkpt lat="32.583873749" lon="35.007637024">
  <ele>179.513733</ele>
  <time>2012-06-23T04:44:39Z</time>
<extensions>
<speed>4.1</speed>
<temp>0.00</temp>
<bpm>0</bpm>
<rpm>0.00</rpm>
</extensions>
</trkpt>
<trkpt lat="32.583877563" lon="35.007591248">
  <ele>179.111389</ele>
  <time>2012-06-23T04:44:40Z</time>
<extensions>
<speed>4.3</speed>
<temp>0.00</temp>
<bpm>0</bpm>
<rpm>0.00</rpm>
</extensions>
</trkpt>
<trkpt lat="32.583873749" lon="35.007541656">
  <ele>178.693420</ele>
  <time>2012-06-23T04:44:41Z</time>
<extensions>
<speed>4.4</speed>
<temp>0.00</temp>
<bpm>0</bpm>
<rpm>0.00</rpm>
</extensions>
</trkpt>
<trkpt lat="32.583866119" lon="35.007484436">
  <ele>179.048889</ele>
  <time>2012-06-23T04:44:42Z</time>
<extensions>
<speed>4.7</speed>
<temp>0.00</temp>
<bpm>0</bpm>
<rpm>0.00</rpm>
</extensions>
</trkpt>
<trkpt lat="32.583858490" lon="35.007438660">
  <ele>180.013733</ele>
  <time>2012-06-23T04:44:43Z</time>
<extensions>
<speed>3.6</speed>
<temp>0.00</temp>
<bpm>0</bpm>
<rpm>0.00</rpm>
</extensions>
</trkpt>
<trkpt lat="32.583854675" lon="35.007404327">
  <ele>179.748108</ele>
  <time>2012-06-23T04:44:44Z</time>
<extensions>
<speed>3.2</speed>
<temp>0.00</temp>
<bpm>0</bpm>
<rpm>0.00</rpm>
</extensions>
</trkpt>
<trkpt lat="32.583843231" lon="35.007369995">
  <ele>180.642639</ele>
  <time>2012-06-23T04:44:46Z</time>
<extensions>
<speed>0.4</speed>
<temp>0.00</temp>
<bpm>0</bpm>
<rpm>0.00</rpm>
</extensions>
</trkpt>
<trkpt lat="32.583820343" lon="35.007339478">
  <ele>181.744202</ele>
  <time>2012-06-23T04:45:08Z</time>
<extensions>
<speed>2.2</speed>
<temp>0.00</temp>
<bpm>0</bpm>
<rpm>0.00</rpm>
</extensions>
</trkpt>
<trkpt lat="32.583805084" lon="35.007312775">
  <ele>181.209045</ele>
  <time>2012-06-23T04:45:09Z</time>
<extensions>
<speed>2.8</speed>
<temp>0.00</temp>
<bpm>0</bpm>
<rpm>0.00</rpm>
</extensions>
</trkpt>
<trkpt lat="32.583786011" lon="35.007282257">
  <ele>181.388733</ele>
  <time>2012-06-23T04:45:10Z</time>
<extensions>
<speed>3.4</speed>
<temp>0.00</temp>
<bpm>0</bpm>
<rpm>0.00</rpm>
</extensions>
</trkpt>
<trkpt lat="32.583763123" lon="35.007255554">
  <ele>181.369202</ele>
  <time>2012-06-23T04:45:11Z</time>
<extensions>
<speed>3.8</speed>
<temp>0.00</temp>
<bpm>0</bpm>
<rpm>0.00</rpm>
</extensions>
</trkpt>
<trkpt lat="32.583732605" lon="35.007228851">
  <ele>182.166077</ele>
  <time>2012-06-23T04:45:12Z</time>
<extensions>
<speed>4.0</speed>
<temp>0.00</temp>
<bpm>0</bpm>
<rpm>0.00</rpm>
</extensions>
</trkpt>
<trkpt lat="32.583698273" lon="35.007202148">
  <ele>181.462952</ele>
  <time>2012-06-23T04:45:13Z</time>
<extensions>
<speed>3.9</speed>
<temp>0.00</temp>
<bpm>0</bpm>
<rpm>0.00</rpm>
</extensions>
</trkpt>
<trkpt lat="32.583667755" lon="35.007179260">
  <ele>181.314514</ele>
  <time>2012-06-23T04:45:14Z</time>
<extensions>
<speed>4.1</speed>
<temp>0.00</temp>
<bpm>0</bpm>
<rpm>0.00</rpm>
</extensions>
</trkpt>
<trkpt lat="32.583633423" lon="35.007160187">
  <ele>181.201233</ele>
  <time>2012-06-23T04:45:15Z</time>
<extensions>
<speed>4.2</speed>
<temp>0.00</temp>
<bpm>0</bpm>
<rpm>0.00</rpm>
</extensions>
</trkpt>
<trkpt lat="32.583602905" lon="35.007133484">
  <ele>181.166077</ele>
  <time>2012-06-23T04:45:16Z</time>
<extensions>
<speed>4.0</speed>
<temp>0.00</temp>
<bpm>0</bpm>
<rpm>0.00</rpm>
</extensions>
</trkpt>
<trkpt lat="32.583580017" lon="35.007102966">
  <ele>181.193420</ele>
  <time>2012-06-23T04:45:17Z</time>
<extensions>
<speed>3.5</speed>
<temp>0.00</temp>
<bpm>0</bpm>
<rpm>0.00</rpm>
</extensions>
</trkpt>
<trkpt lat="32.583560944" lon="35.007068634">
  <ele>181.603577</ele>
  <time>2012-06-23T04:45:18Z</time>
<extensions>
<speed>3.5</speed>
<temp>0.00</temp>
<bpm>0</bpm>
<rpm>0.00</rpm>
</extensions>
</trkpt>
<trkpt lat="32.583553314" lon="35.007038116">
  <ele>181.267639</ele>
  <time>2012-06-23T04:45:19Z</time>
<extensions>
<speed>2.8</speed>
<temp>0.00</temp>
<bpm>0</bpm>
<rpm>0.00</rpm>
</extensions>
</trkpt>
<trkpt lat="32.583560944" lon="35.006996155">
  <ele>181.974670</ele>
  <time>2012-06-23T04:45:21Z</time>
<extensions>
<speed>1.7</speed>
<temp>0.00</temp>
<bpm>0</bpm>
<rpm>0.00</rpm>
</extensions>
</trkpt>
<trkpt lat="32.583560944" lon="35.006946564">
  <ele>182.814514</ele>
  <time>2012-06-23T04:45:23Z</time>
<extensions>
<speed>2.5</speed>
<temp>0.00</temp>
<bpm>0</bpm>
<rpm>0.00</rpm>
</extensions>
</trkpt>
<trkpt lat="32.583568573" lon="35.006896973">
  <ele>183.619202</ele>
  <time>2012-06-23T04:45:25Z</time>
<extensions>
<speed>2.2</speed>
<temp>0.00</temp>
<bpm>0</bpm>
<rpm>0.00</rpm>
</extensions>
</trkpt>
<trkpt lat="32.583560944" lon="35.006835938">
  <ele>185.205139</ele>
  <time>2012-06-23T04:45:27Z</time>
<extensions>
<speed>2.6</speed>
<temp>0.00</temp>
<bpm>0</bpm>
<rpm>0.00</rpm>
</extensions>
</trkpt>
<trkpt lat="32.583549500" lon="35.006805420">
  <ele>184.498108</ele>
  <time>2012-06-23T04:45:28Z</time>
<extensions>
<speed>2.6</speed>
<temp>0.00</temp>
<bpm>0</bpm>
<rpm>0.00</rpm>
</extensions>
</trkpt>
<trkpt lat="32.583526611" lon="35.006771088">
  <ele>184.505920</ele>
  <time>2012-06-23T04:45:30Z</time>
<extensions>
<speed>1.8</speed>
<temp>0.00</temp>
<bpm>0</bpm>
<rpm>0.00</rpm>
</extensions>
</trkpt>
<trkpt lat="32.583541870" lon="35.006729126">
  <ele>184.935608</ele>
  <time>2012-06-23T04:45:32Z</time>
<extensions>
<speed>2.3</speed>
<temp>0.00</temp>
<bpm>0</bpm>
<rpm>0.00</rpm>
</extensions>
</trkpt>
<trkpt lat="32.583553314" lon="35.006690979">
  <ele>185.017639</ele>
  <time>2012-06-23T04:45:33Z</time>
<extensions>
<speed>2.7</speed>
<temp>0.00</temp>
<bpm>0</bpm>
<rpm>0.00</rpm>
</extensions>
</trkpt>
<trkpt lat="32.583553314" lon="35.006660461">
  <ele>185.462952</ele>
  <time>2012-06-23T04:45:34Z</time>
<extensions>
<speed>2.8</speed>
<temp>0.00</temp>
<bpm>0</bpm>
<rpm>0.00</rpm>
</extensions>
</trkpt>
<trkpt lat="32.583560944" lon="35.006626129">
  <ele>185.380920</ele>
  <time>2012-06-23T04:45:35Z</time>
<extensions>
<speed>3.0</speed>
<temp>0.00</temp>
<bpm>0</bpm>
<rpm>0.00</rpm>
</extensions>
</trkpt>
<trkpt lat="32.583576202" lon="35.006572723">
  <ele>184.869202</ele>
  <time>2012-06-23T04:45:37Z</time>
<extensions>
<speed>2.5</speed>
<temp>0.00</temp>
<bpm>0</bpm>
<rpm>0.00</rpm>
</extensions>
</trkpt>
<trkpt lat="32.583602905" lon="35.006523132">
  <ele>185.615295</ele>
  <time>2012-06-23T04:45:39Z</time>
<extensions>
<speed>3.0</speed>
<temp>0.00</temp>
<bpm>0</bpm>
<rpm>0.00</rpm>
</extensions>
</trkpt>
<trkpt lat="32.583618164" lon="35.006492615">
  <ele>185.986389</ele>
  <time>2012-06-23T04:45:40Z</time>
<extensions>
<speed>3.0</speed>
<temp>0.00</temp>
<bpm>0</bpm>
<rpm>0.00</rpm>
</extensions>
</trkpt>
<trkpt lat="32.583633423" lon="35.006465912">
  <ele>185.857483</ele>
  <time>2012-06-23T04:45:41Z</time>
<extensions>
<speed>3.0</speed>
<temp>0.00</temp>
<bpm>0</bpm>
<rpm>0.00</rpm>
</extensions>
</trkpt>
<trkpt lat="32.583641052" lon="35.006416321">
  <ele>185.306702</ele>
  <time>2012-06-23T04:45:43Z</time>
<extensions>
<speed>2.0</speed>
<temp>0.00</temp>
<bpm>0</bpm>
<rpm>0.00</rpm>
</extensions>
</trkpt>
<trkpt lat="32.583644867" lon="35.006366730">
  <ele>186.166077</ele>
  <time>2012-06-23T04:45:45Z</time>
<extensions>
<speed>2.4</speed>
<temp>0.00</temp>
<bpm>0</bpm>
<rpm>0.00</rpm>
</extensions>
</trkpt>
<trkpt lat="32.583637238" lon="35.006313324">
  <ele>187.033264</ele>
  <time>2012-06-23T04:45:47Z</time>
<extensions>
<speed>2.3</speed>
<temp>0.00</temp>
<bpm>0</bpm>
<rpm>0.00</rpm>
</extensions>
</trkpt>
<trkpt lat="32.583610535" lon="35.006259918">
  <ele>186.736389</ele>
  <time>2012-06-23T04:45:49Z</time>
<extensions>
<speed>2.8</speed>
<temp>0.00</temp>
<bpm>0</bpm>
<rpm>0.00</rpm>
</extensions>
</trkpt>
<trkpt lat="32.583587646" lon="35.006225586">
  <ele>186.728577</ele>
  <time>2012-06-23T04:45:50Z</time>
<extensions>
<speed>3.1</speed>
<temp>0.00</temp>
<bpm>0</bpm>
<rpm>0.00</rpm>
</extensions>
</trkpt>
<trkpt lat="32.583568573" lon="35.006191254">
  <ele>186.767639</ele>
  <time>2012-06-23T04:45:51Z</time>
<extensions>
<speed>2.8</speed>
<temp>0.00</temp>
<bpm>0</bpm>
<rpm>0.00</rpm>
</extensions>
</trkpt>
<trkpt lat="32.583549500" lon="35.006168365">
  <ele>186.783264</ele>
  <time>2012-06-23T04:45:52Z</time>
<extensions>
<speed>2.7</speed>
<temp>0.00</temp>
<bpm>0</bpm>
<rpm>0.00</rpm>
</extensions>
</trkpt>
<trkpt lat="32.583503723" lon="35.006145477">
  <ele>186.705139</ele>
  <time>2012-06-23T04:45:54Z</time>
<extensions>
<speed>2.9</speed>
<temp>0.00</temp>
<bpm>0</bpm>
<rpm>0.00</rpm>
</extensions>
</trkpt>
<trkpt lat="32.583473206" lon="35.006130219">
  <ele>186.943420</ele>
  <time>2012-06-23T04:45:55Z</time>
<extensions>
<speed>2.9</speed>
<temp>0.00</temp>
<bpm>0</bpm>
<rpm>0.00</rpm>
</extensions>
</trkpt>
<trkpt lat="32.583427429" lon="35.006095886">
  <ele>187.205139</ele>
  <time>2012-06-23T04:45:57Z</time>
<extensions>
<speed>3.0</speed>
<temp>0.00</temp>
<bpm>0</bpm>
<rpm>0.00</rpm>
</extensions>
</trkpt>
<trkpt lat="32.583404541" lon="35.006072998">
  <ele>187.127014</ele>
  <time>2012-06-23T04:45:58Z</time>
<extensions>
<speed>3.0</speed>
<temp>0.00</temp>
<bpm>0</bpm>
<rpm>0.00</rpm>
</extensions>
</trkpt>
<trkpt lat="32.583381653" lon="35.006057739">
  <ele>187.115295</ele>
  <time>2012-06-23T04:45:59Z</time>
<extensions>
<speed>3.0</speed>
<temp>0.00</temp>
<bpm>0</bpm>
<rpm>0.00</rpm>
</extensions>
</trkpt>
<trkpt lat="32.583351135" lon="35.006042480">
  <ele>186.076233</ele>
  <time>2012-06-23T04:46:00Z</time>
<extensions>
<speed>3.0</speed>
<temp>0.00</temp>
<bpm>0</bpm>
<rpm>0.00</rpm>
</extensions>
</trkpt>
<trkpt lat="32.583324432" lon="35.006027222">
  <ele>185.537170</ele>
  <time>2012-06-23T04:46:01Z</time>
<extensions>
<speed>3.5</speed>
<temp>0.00</temp>
<bpm>0</bpm>
<rpm>0.00</rpm>
</extensions>
</trkpt>
<trkpt lat="32.583297729" lon="35.006004333">
  <ele>185.740295</ele>
  <time>2012-06-23T04:46:02Z</time>
<extensions>
<speed>3.2</speed>
<temp>0.00</temp>
<bpm>0</bpm>
<rpm>0.00</rpm>
</extensions>
</trkpt>
<trkpt lat="32.583271027" lon="35.005989075">
  <ele>185.498108</ele>
  <time>2012-06-23T04:46:03Z</time>
<extensions>
<speed>2.8</speed>
<temp>0.00</temp>
<bpm>0</bpm>
<rpm>0.00</rpm>
</extensions>
</trkpt>
<trkpt lat="32.583225250" lon="35.005992889">
  <ele>185.037170</ele>
  <time>2012-06-23T04:46:05Z</time>
<extensions>
<speed>2.5</speed>
<temp>0.00</temp>
<bpm>0</bpm>
<rpm>0.00</rpm>
</extensions>
</trkpt>
<trkpt lat="32.583194733" lon="35.006031036">
  <ele>185.060608</ele>
  <time>2012-06-23T04:46:07Z</time>
<extensions>
<speed>1.9</speed>
<temp>0.00</temp>
<bpm>0</bpm>
<rpm>0.00</rpm>
</extensions>
</trkpt>
<trkpt lat="32.583160400" lon="35.006053925">
  <ele>184.861389</ele>
  <time>2012-06-23T04:46:10Z</time>
<extensions>
<speed>0.9</speed>
<temp>0.00</temp>
<bpm>0</bpm>
<rpm>0.00</rpm>
</extensions>
</trkpt>
<trkpt lat="32.583133698" lon="35.006034851">
  <ele>183.943420</ele>
  <time>2012-06-23T04:46:13Z</time>
<extensions>
<speed>1.7</speed>
<temp>0.00</temp>
<bpm>0</bpm>
<rpm>0.00</rpm>
</extensions>
</trkpt>
<trkpt lat="32.583122253" lon="35.006004333">
  <ele>184.740295</ele>
  <time>2012-06-23T04:46:15Z</time>
<extensions>
<speed>0.9</speed>
<temp>0.00</temp>
<bpm>0</bpm>
<rpm>0.00</rpm>
</extensions>
</trkpt>
<trkpt lat="32.583095551" lon="35.005970001">
  <ele>184.744202</ele>
  <time>2012-06-23T04:47:16Z</time>
<extensions>
<speed>3.2</speed>
<temp>0.00</temp>
<bpm>0</bpm>
<rpm>0.00</rpm>
</extensions>
</trkpt>
<trkpt lat="32.583072662" lon="35.005947113">
  <ele>184.888733</ele>
  <time>2012-06-23T04:47:17Z</time>
<extensions>
<speed>2.9</speed>
<temp>0.00</temp>
<bpm>0</bpm>
<rpm>0.00</rpm>
</extensions>
</trkpt>
<trkpt lat="32.583045959" lon="35.005928040">
  <ele>184.505920</ele>
  <time>2012-06-23T04:47:18Z</time>
<extensions>
<speed>3.2</speed>
<temp>0.00</temp>
<bpm>0</bpm>
<rpm>0.00</rpm>
</extensions>
</trkpt>
<trkpt lat="32.583011627" lon="35.005901337">
  <ele>183.408264</ele>
  <time>2012-06-23T04:47:19Z</time>
<extensions>
<speed>3.3</speed>
<temp>0.00</temp>
<bpm>0</bpm>
<rpm>0.00</rpm>
</extensions>
</trkpt>
<trkpt lat="32.582984924" lon="35.005882263">
  <ele>182.834045</ele>
  <time>2012-06-23T04:47:20Z</time>
<extensions>
<speed>2.4</speed>
<temp>0.00</temp>
<bpm>0</bpm>
<rpm>0.00</rpm>
</extensions>
</trkpt>
<trkpt lat="32.582962036" lon="35.005851746">
  <ele>182.587952</ele>
  <time>2012-06-23T04:47:21Z</time>
<extensions>
<speed>3.5</speed>
<temp>0.00</temp>
<bpm>0</bpm>
<rpm>0.00</rpm>
</extensions>
</trkpt>
<trkpt lat="32.582946777" lon="35.005813599">
  <ele>181.943420</ele>
  <time>2012-06-23T04:47:22Z</time>
<extensions>
<speed>3.8</speed>
<temp>0.00</temp>
<bpm>0</bpm>
<rpm>0.00</rpm>
</extensions>
</trkpt>
<trkpt lat="32.582935333" lon="35.005764008">
  <ele>182.146545</ele>
  <time>2012-06-23T04:47:23Z</time>
<extensions>
<speed>4.2</speed>
<temp>0.00</temp>
<bpm>0</bpm>
<rpm>0.00</rpm>
</extensions>
</trkpt>
<trkpt lat="32.582920074" lon="35.005718231">
  <ele>181.576233</ele>
  <time>2012-06-23T04:47:24Z</time>
<extensions>
<speed>4.3</speed>
<temp>0.00</temp>
<bpm>0</bpm>
<rpm>0.00</rpm>
</extensions>
</trkpt>
<trkpt lat="32.582901001" lon="35.005680084">
  <ele>181.779358</ele>
  <time>2012-06-23T04:47:25Z</time>
<extensions>
<speed>3.4</speed>
<temp>0.00</temp>
<bpm>0</bpm>
<rpm>0.00</rpm>
</extensions>
</trkpt>
<trkpt lat="32.582885742" lon="35.005649567">
  <ele>181.345764</ele>
  <time>2012-06-23T04:47:26Z</time>
<extensions>
<speed>3.0</speed>
<temp>0.00</temp>
<bpm>0</bpm>
<rpm>0.00</rpm>
</extensions>
</trkpt>
<trkpt lat="32.582866669" lon="35.005615234">
  <ele>180.705139</ele>
  <time>2012-06-23T04:47:27Z</time>
<extensions>
<speed>2.7</speed>
<temp>0.00</temp>
<bpm>0</bpm>
<rpm>0.00</rpm>
</extensions>
</trkpt>
<trkpt lat="32.582843781" lon="35.005588531">
  <ele>180.158264</ele>
  <time>2012-06-23T04:47:28Z</time>
<extensions>
<speed>3.1</speed>
<temp>0.00</temp>
<bpm>0</bpm>
<rpm>0.00</rpm>
</extensions>
</trkpt>
<trkpt lat="32.582820892" lon="35.005573273">
  <ele>179.341858</ele>
  <time>2012-06-23T04:47:29Z</time>
<extensions>
<speed>2.3</speed>
<temp>0.00</temp>
<bpm>0</bpm>
<rpm>0.00</rpm>
</extensions>
</trkpt>
<trkpt lat="32.582771301" lon="35.005588531">
  <ele>178.271545</ele>
  <time>2012-06-23T04:47:31Z</time>
<extensions>
<speed>2.9</speed>
<temp>0.00</temp>
<bpm>0</bpm>
<rpm>0.00</rpm>
</extensions>
</trkpt>
<trkpt lat="32.582744598" lon="35.005603790">
  <ele>177.962952</ele>
  <time>2012-06-23T04:47:32Z</time>
<extensions>
<speed>3.1</speed>
<temp>0.00</temp>
<bpm>0</bpm>
<rpm>0.00</rpm>
</extensions>
</trkpt>
<trkpt lat="32.582710266" lon="35.005611420">
  <ele>178.322327</ele>
  <time>2012-06-23T04:47:33Z</time>
<extensions>
<speed>3.5</speed>
<temp>0.00</temp>
<bpm>0</bpm>
<rpm>0.00</rpm>
</extensions>
</trkpt>
<trkpt lat="32.582679749" lon="35.005599976">
  <ele>177.236389</ele>
  <time>2012-06-23T04:47:34Z</time>
<extensions>
<speed>3.1</speed>
<temp>0.00</temp>
<bpm>0</bpm>
<rpm>0.00</rpm>
</extensions>
</trkpt>
<trkpt lat="32.582656860" lon="35.005584717">
  <ele>176.904358</ele>
  <time>2012-06-23T04:47:35Z</time>
<extensions>
<speed>3.1</speed>
<temp>0.00</temp>
<bpm>0</bpm>
<rpm>0.00</rpm>
</extensions>
</trkpt>
<trkpt lat="32.582626343" lon="35.005565643">
  <ele>176.712952</ele>
  <time>2012-06-23T04:47:36Z</time>
<extensions>
<speed>3.2</speed>
<temp>0.00</temp>
<bpm>0</bpm>
<rpm>0.00</rpm>
</extensions>
</trkpt>
<trkpt lat="32.582599640" lon="35.005542755">
  <ele>176.232483</ele>
  <time>2012-06-23T04:47:37Z</time>
<extensions>
<speed>3.0</speed>
<temp>0.00</temp>
<bpm>0</bpm>
<rpm>0.00</rpm>
</extensions>
</trkpt>
<trkpt lat="32.582576752" lon="35.005527496">
  <ele>175.845764</ele>
  <time>2012-06-23T04:47:38Z</time>
<extensions>
<speed>3.1</speed>
<temp>0.00</temp>
<bpm>0</bpm>
<rpm>0.00</rpm>
</extensions>
</trkpt>
<trkpt lat="32.582546234" lon="35.005489349">
  <ele>175.919983</ele>
  <time>2012-06-23T04:47:40Z</time>
<extensions>
<speed>1.5</speed>
<temp>0.00</temp>
<bpm>0</bpm>
<rpm>0.00</rpm>
</extensions>
</trkpt>
<trkpt lat="32.582527161" lon="35.005462646">
  <ele>177.302795</ele>
  <time>2012-06-23T04:47:54Z</time>
<extensions>
<speed>1.9</speed>
<temp>0.00</temp>
<bpm>0</bpm>
<rpm>0.00</rpm>
</extensions>
</trkpt>
<trkpt lat="32.582492828" lon="35.005420685">
  <ele>177.080139</ele>
  <time>2012-06-23T04:47:56Z</time>
<extensions>
<speed>2.8</speed>
<temp>0.00</temp>
<bpm>0</bpm>
<rpm>0.00</rpm>
</extensions>
</trkpt>
<trkpt lat="32.582477570" lon="35.005393982">
  <ele>176.150452</ele>
  <time>2012-06-23T04:47:57Z</time>
<extensions>
<speed>2.4</speed>
<temp>0.00</temp>
<bpm>0</bpm>
<rpm>0.00</rpm>
</extensions>
</trkpt>
<trkpt lat="32.582450867" lon="35.005355835">
  <ele>174.740295</ele>
  <time>2012-06-23T04:47:59Z</time>
<extensions>
<speed>2.4</speed>
<temp>0.00</temp>
<bpm>0</bpm>
<rpm>0.00</rpm>
</extensions>
</trkpt>
<trkpt lat="32.582424164" lon="35.005310059">
  <ele>172.709045</ele>
  <time>2012-06-23T04:48:01Z</time>
<extensions>
<speed>2.4</speed>
<temp>0.00</temp>
<bpm>0</bpm>
<rpm>0.00</rpm>
</extensions>
</trkpt>
<trkpt lat="32.582397461" lon="35.005290985">
  <ele>171.560608</ele>
  <time>2012-06-23T04:48:03Z</time>
<extensions>
<speed>1.7</speed>
<temp>0.00</temp>
<bpm>0</bpm>
<rpm>0.00</rpm>
</extensions>
</trkpt>
<trkpt lat="32.582351685" lon="35.005260468">
  <ele>169.966858</ele>
  <time>2012-06-23T04:48:05Z</time>
<extensions>
<speed>2.6</speed>
<temp>0.00</temp>
<bpm>0</bpm>
<rpm>0.00</rpm>
</extensions>
</trkpt>
<trkpt lat="32.582309723" lon="35.005245209">
  <ele>168.923889</ele>
  <time>2012-06-23T04:48:07Z</time>
<extensions>
<speed>2.1</speed>
<temp>0.00</temp>
<bpm>0</bpm>
<rpm>0.00</rpm>
</extensions>
</trkpt>
<trkpt lat="32.582283020" lon="35.005210876">
  <ele>166.404358</ele>
  <time>2012-06-23T04:48:09Z</time>
<extensions>
<speed>2.2</speed>
<temp>0.00</temp>
<bpm>0</bpm>
<rpm>0.00</rpm>
</extensions>
</trkpt>
<trkpt lat="32.582279205" lon="35.005172729">
  <ele>164.658264</ele>
  <time>2012-06-23T04:48:11Z</time>
<extensions>
<speed>1.8</speed>
<temp>0.00</temp>
<bpm>0</bpm>
<rpm>0.00</rpm>
</extensions>
</trkpt>
<trkpt lat="32.582275391" lon="35.005134583">
  <ele>163.041077</ele>
  <time>2012-06-23T04:48:13Z</time>
<extensions>
<speed>2.1</speed>
<temp>0.00</temp>
<bpm>0</bpm>
<rpm>0.00</rpm>
</extensions>
</trkpt>
<trkpt lat="32.582248688" lon="35.005096436">
  <ele>161.974670</ele>
  <time>2012-06-23T04:48:15Z</time>
<extensions>
<speed>1.8</speed>
<temp>0.00</temp>
<bpm>0</bpm>
<rpm>0.00</rpm>
</extensions>
</trkpt>
<trkpt lat="32.582221985" lon="35.005092621">
  <ele>161.349670</ele>
  <time>2012-06-23T04:48:17Z</time>
<extensions>
<speed>2.0</speed>
<temp>0.00</temp>
<bpm>0</bpm>
<rpm>0.00</rpm>
</extensions>
</trkpt>
<trkpt lat="32.582191467" lon="35.005073547">
  <ele>160.091858</ele>
  <time>2012-06-23T04:48:19Z</time>
<extensions>
<speed>2.2</speed>
<temp>0.00</temp>
<bpm>0</bpm>
<rpm>0.00</rpm>
</extensions>
</trkpt>
<trkpt lat="32.582164764" lon="35.005065918">
  <ele>159.330139</ele>
  <time>2012-06-23T04:48:20Z</time>
<extensions>
<speed>2.6</speed>
<temp>0.00</temp>
<bpm>0</bpm>
<rpm>0.00</rpm>
</extensions>
</trkpt>
<trkpt lat="32.582115173" lon="35.005054474">
  <ele>158.169983</ele>
  <time>2012-06-23T04:48:22Z</time>
<extensions>
<speed>2.0</speed>
<temp>0.00</temp>
<bpm>0</bpm>
<rpm>0.00</rpm>
</extensions>
</trkpt>
<trkpt lat="32.582088470" lon="35.005043030">
  <ele>158.166077</ele>
  <time>2012-06-23T04:48:23Z</time>
<extensions>
<speed>1.5</speed>
<temp>0.00</temp>
<bpm>0</bpm>
<rpm>0.00</rpm>
</extensions>
</trkpt>
<trkpt lat="32.582080841" lon="35.005008698">
  <ele>156.392639</ele>
  <time>2012-06-23T04:48:25Z</time>
<extensions>
<speed>2.5</speed>
<temp>0.00</temp>
<bpm>0</bpm>
<rpm>0.00</rpm>
</extensions>
</trkpt>
<trkpt lat="32.582092285" lon="35.004947662">
  <ele>153.658264</ele>
  <time>2012-06-23T04:48:27Z</time>
<extensions>
<speed>3.7</speed>
<temp>0.00</temp>
<bpm>0</bpm>
<rpm>0.00</rpm>
</extensions>
</trkpt>
<trkpt lat="32.582103729" lon="35.004913330">
  <ele>152.306702</ele>
  <time>2012-06-23T04:48:28Z</time>
<extensions>
<speed>3.2</speed>
<temp>0.00</temp>
<bpm>0</bpm>
<rpm>0.00</rpm>
</extensions>
</trkpt>
<trkpt lat="32.582111359" lon="35.004871368">
  <ele>151.857483</ele>
  <time>2012-06-23T04:48:29Z</time>
<extensions>
<speed>2.7</speed>
<temp>0.00</temp>
<bpm>0</bpm>
<rpm>0.00</rpm>
</extensions>
</trkpt>
<trkpt lat="32.582111359" lon="35.004821777">
  <ele>150.322327</ele>
  <time>2012-06-23T04:48:31Z</time>
<extensions>
<speed>2.4</speed>
<temp>0.00</temp>
<bpm>0</bpm>
<rpm>0.00</rpm>
</extensions>
</trkpt>
<trkpt lat="32.582115173" lon="35.004791260">
  <ele>148.830139</ele>
  <time>2012-06-23T04:48:32Z</time>
<extensions>
<speed>3.1</speed>
<temp>0.00</temp>
<bpm>0</bpm>
<rpm>0.00</rpm>
</extensions>
</trkpt>
<trkpt lat="32.582126617" lon="35.004760742">
  <ele>148.279358</ele>
  <time>2012-06-23T04:48:33Z</time>
<extensions>
<speed>3.4</speed>
<temp>0.00</temp>
<bpm>0</bpm>
<rpm>0.00</rpm>
</extensions>
</trkpt>
<trkpt lat="32.582138062" lon="35.004718781">
  <ele>147.638733</ele>
  <time>2012-06-23T04:48:34Z</time>
<extensions>
<speed>4.1</speed>
<temp>0.00</temp>
<bpm>0</bpm>
<rpm>0.00</rpm>
</extensions>
</trkpt>
<trkpt lat="32.582153320" lon="35.004680634">
  <ele>146.408264</ele>
  <time>2012-06-23T04:48:35Z</time>
<extensions>
<speed>4.0</speed>
<temp>0.00</temp>
<bpm>0</bpm>
<rpm>0.00</rpm>
</extensions>
</trkpt>
<trkpt lat="32.582160950" lon="35.004646301">
  <ele>144.115295</ele>
  <time>2012-06-23T04:48:36Z</time>
<extensions>
<speed>3.2</speed>
<temp>0.00</temp>
<bpm>0</bpm>
<rpm>0.00</rpm>
</extensions>
</trkpt>
<trkpt lat="32.582164764" lon="35.004611969">
  <ele>143.072327</ele>
  <time>2012-06-23T04:48:37Z</time>
<extensions>
<speed>3.0</speed>
<temp>0.00</temp>
<bpm>0</bpm>
<rpm>0.00</rpm>
</extensions>
</trkpt>
<trkpt lat="32.582183838" lon="35.004562378">
  <ele>141.627014</ele>
  <time>2012-06-23T04:48:39Z</time>
<extensions>
<speed>2.1</speed>
<temp>0.00</temp>
<bpm>0</bpm>
<rpm>0.00</rpm>
</extensions>
</trkpt>
<trkpt lat="32.582187653" lon="35.004520416">
  <ele>141.513733</ele>
  <time>2012-06-23T04:48:41Z</time>
<extensions>
<speed>1.1</speed>
<temp>0.00</temp>
<bpm>0</bpm>
<rpm>0.00</rpm>
</extensions>
</trkpt>
<trkpt lat="32.582176208" lon="35.004489899">
  <ele>140.197327</ele>
  <time>2012-06-23T04:48:43Z</time>
<extensions>
<speed>1.1</speed>
<temp>0.00</temp>
<bpm>0</bpm>
<rpm>0.00</rpm>
</extensions>
</trkpt>
<trkpt lat="32.582149506" lon="35.004478455">
  <ele>138.888733</ele>
  <time>2012-06-23T04:48:45Z</time>
<extensions>
<speed>1.9</speed>
<temp>0.00</temp>
<bpm>0</bpm>
<rpm>0.00</rpm>
</extensions>
</trkpt>
<trkpt lat="32.582134247" lon="35.004440308">
  <ele>136.716858</ele>
  <time>2012-06-23T04:48:47Z</time>
<extensions>
<speed>2.0</speed>
<temp>0.00</temp>
<bpm>0</bpm>
<rpm>0.00</rpm>
</extensions>
</trkpt>
<trkpt lat="32.582130432" lon="35.004402161">
  <ele>135.560608</ele>
  <time>2012-06-23T04:48:49Z</time>
<extensions>
<speed>1.3</speed>
<temp>0.00</temp>
<bpm>0</bpm>
<rpm>0.00</rpm>
</extensions>
</trkpt>
<trkpt lat="32.582153320" lon="35.004371643">
  <ele>133.884827</ele>
  <time>2012-06-23T04:48:51Z</time>
<extensions>
<speed>2.4</speed>
<temp>0.00</temp>
<bpm>0</bpm>
<rpm>0.00</rpm>
</extensions>
</trkpt>
<trkpt lat="32.582172394" lon="35.004333496">
  <ele>134.877014</ele>
  <time>2012-06-23T04:48:53Z</time>
<extensions>
<speed>1.6</speed>
<temp>0.00</temp>
<bpm>0</bpm>
<rpm>0.00</rpm>
</extensions>
</trkpt>
<trkpt lat="32.582183838" lon="35.004295349">
  <ele>134.400452</ele>
  <time>2012-06-23T04:48:55Z</time>
<extensions>
<speed>1.6</speed>
<temp>0.00</temp>
<bpm>0</bpm>
<rpm>0.00</rpm>
</extensions>
</trkpt>
<trkpt lat="32.582180023" lon="35.004261017">
  <ele>133.642639</ele>
  <time>2012-06-23T04:48:57Z</time>
<extensions>
<speed>0.6</speed>
<temp>0.00</temp>
<bpm>0</bpm>
<rpm>0.00</rpm>
</extensions>
</trkpt>
<trkpt lat="32.582149506" lon="35.004238129">
  <ele>131.966858</ele>
  <time>2012-06-23T04:49:00Z</time>
<extensions>
<speed>1.5</speed>
<temp>0.00</temp>
<bpm>0</bpm>
<rpm>0.00</rpm>
</extensions>
</trkpt>
<trkpt lat="32.582111359" lon="35.004222870">
  <ele>131.252014</ele>
  <time>2012-06-23T04:49:02Z</time>
<extensions>
<speed>1.6</speed>
<temp>0.00</temp>
<bpm>0</bpm>
<rpm>0.00</rpm>
</extensions>
</trkpt>
<trkpt lat="32.582084656" lon="35.004199982">
  <ele>130.224670</ele>
  <time>2012-06-23T04:49:04Z</time>
<extensions>
<speed>1.8</speed>
<temp>0.00</temp>
<bpm>0</bpm>
<rpm>0.00</rpm>
</extensions>
</trkpt>
<trkpt lat="32.582054138" lon="35.004169464">
  <ele>129.314514</ele>
  <time>2012-06-23T04:49:06Z</time>
<extensions>
<speed>1.6</speed>
<temp>0.00</temp>
<bpm>0</bpm>
<rpm>0.00</rpm>
</extensions>
</trkpt>
<trkpt lat="32.582015991" lon="35.004146576">
  <ele>128.400452</ele>
  <time>2012-06-23T04:49:08Z</time>
<extensions>
<speed>1.9</speed>
<temp>0.00</temp>
<bpm>0</bpm>
<rpm>0.00</rpm>
</extensions>
</trkpt>
<trkpt lat="32.581985474" lon="35.004108429">
  <ele>127.168976</ele>
  <time>2012-06-23T04:49:10Z</time>
<extensions>
<speed>2.1</speed>
<temp>0.00</temp>
<bpm>0</bpm>
<rpm>0.00</rpm>
</extensions>
</trkpt>
<trkpt lat="32.581970215" lon="35.004066467">
  <ele>125.237335</ele>
  <time>2012-06-23T04:49:12Z</time>
<extensions>
<speed>2.0</speed>
<temp>0.00</temp>
<bpm>0</bpm>
<rpm>0.00</rpm>
</extensions>
</trkpt>
<trkpt lat="32.581981659" lon="35.004028320">
  <ele>123.825226</ele>
  <time>2012-06-23T04:49:14Z</time>
<extensions>
<speed>1.8</speed>
<temp>0.00</temp>
<bpm>0</bpm>
<rpm>0.00</rpm>
</extensions>
</trkpt>
<trkpt lat="32.582000732" lon="35.003990173">
  <ele>122.278351</ele>
  <time>2012-06-23T04:49:16Z</time>
<extensions>
<speed>2.0</speed>
<temp>0.00</temp>
<bpm>0</bpm>
<rpm>0.00</rpm>
</extensions>
</trkpt>
<trkpt lat="32.582027435" lon="35.003952026">
  <ele>120.965851</ele>
  <time>2012-06-23T04:49:18Z</time>
<extensions>
<speed>1.8</speed>
<temp>0.00</temp>
<bpm>0</bpm>
<rpm>0.00</rpm>
</extensions>
</trkpt>
<trkpt lat="32.582038879" lon="35.003910065">
  <ele>118.956085</ele>
  <time>2012-06-23T04:49:20Z</time>
<extensions>
<speed>2.5</speed>
<temp>0.00</temp>
<bpm>0</bpm>
<rpm>0.00</rpm>
</extensions>
</trkpt>
<trkpt lat="32.582046509" lon="35.003875732">
  <ele>118.088898</ele>
  <time>2012-06-23T04:49:21Z</time>
<extensions>
<speed>2.1</speed>
<temp>0.00</temp>
<bpm>0</bpm>
<rpm>0.00</rpm>
</extensions>
</trkpt>
<trkpt lat="32.582054138" lon="35.003822327">
  <ele>116.645538</ele>
  <time>2012-06-23T04:49:23Z</time>
<extensions>
<speed>2.0</speed>
<temp>0.00</temp>
<bpm>0</bpm>
<rpm>0.00</rpm>
</extensions>
</trkpt>
<trkpt lat="32.582057953" lon="35.003753662">
  <ele>116.145538</ele>
  <time>2012-06-23T04:49:25Z</time>
<extensions>
<speed>2.5</speed>
<temp>0.00</temp>
<bpm>0</bpm>
<rpm>0.00</rpm>
</extensions>
</trkpt>
<trkpt lat="32.582057953" lon="35.003715515">
  <ele>115.600616</ele>
  <time>2012-06-23T04:49:26Z</time>
<extensions>
<speed>2.6</speed>
<temp>0.00</temp>
<bpm>0</bpm>
<rpm>0.00</rpm>
</extensions>
</trkpt>
<trkpt lat="32.582065582" lon="35.003681183">
  <ele>114.844757</ele>
  <time>2012-06-23T04:49:28Z</time>
<extensions>
<speed>2.2</speed>
<temp>0.00</temp>
<bpm>0</bpm>
<rpm>0.00</rpm>
</extensions>
</trkpt>
<trkpt lat="32.582099915" lon="35.003643036">
  <ele>112.954132</ele>
  <time>2012-06-23T04:49:30Z</time>
<extensions>
<speed>2.1</speed>
<temp>0.00</temp>
<bpm>0</bpm>
<rpm>0.00</rpm>
</extensions>
</trkpt>
<trkpt lat="32.582103729" lon="35.003608704">
  <ele>112.448273</ele>
  <time>2012-06-23T04:49:31Z</time>
<extensions>
<speed>1.7</speed>
<temp>0.00</temp>
<bpm>0</bpm>
<rpm>0.00</rpm>
</extensions>
</trkpt>
<trkpt lat="32.582092285" lon="35.003574371">
  <ele>113.215851</ele>
  <time>2012-06-23T04:49:32Z</time>
<extensions>
<speed>1.7</speed>
<temp>0.00</temp>
<bpm>0</bpm>
<rpm>0.00</rpm>
</extensions>
</trkpt>
<trkpt lat="32.582077026" lon="35.003536224">
  <ele>113.858429</ele>
  <time>2012-06-23T04:49:34Z</time>
<extensions>
<speed>0.5</speed>
<temp>0.00</temp>
<bpm>0</bpm>
<rpm>0.00</rpm>
</extensions>
</trkpt>
<trkpt lat="32.582057953" lon="35.003555298">
  <ele>112.770538</ele>
  <time>2012-06-23T04:50:35Z</time>
<extensions>
<speed>0.3</speed>
<temp>0.00</temp>
<bpm>0</bpm>
<rpm>0.00</rpm>
</extensions>
</trkpt>
<trkpt lat="32.582035065" lon="35.003585815">
  <ele>112.780304</ele>
  <time>2012-06-23T04:50:40Z</time>
<extensions>
<speed>1.0</speed>
<temp>0.00</temp>
<bpm>0</bpm>
<rpm>0.00</rpm>
</extensions>
</trkpt>
<trkpt lat="32.582012177" lon="35.003604889">
  <ele>113.573273</ele>
  <time>2012-06-23T04:50:42Z</time>
<extensions>
<speed>0.6</speed>
<temp>0.00</temp>
<bpm>0</bpm>
<rpm>0.00</rpm>
</extensions>
</trkpt>
<trkpt lat="32.581993103" lon="35.003620148">
  <ele>114.647491</ele>
  <time>2012-06-23T04:50:50Z</time>
<extensions>
<speed>0.1</speed>
<temp>0.00</temp>
<bpm>0</bpm>
<rpm>0.00</rpm>
</extensions>
</trkpt>
<trkpt lat="32.581966400" lon="35.003635406">
  <ele>114.715851</ele>
  <time>2012-06-23T04:51:19Z</time>
<extensions>
<speed>0.2</speed>
<temp>0.00</temp>
<bpm>0</bpm>
<rpm>0.00</rpm>
</extensions>
</trkpt>
<trkpt lat="32.581947327" lon="35.003646851">
  <ele>112.770538</ele>
  <time>2012-06-23T04:51:49Z</time>
<extensions>
<speed>0.1</speed>
<temp>0.00</temp>
<bpm>0</bpm>
<rpm>0.00</rpm>
</extensions>
</trkpt>
<trkpt lat="32.581920624" lon="35.003658295">
  <ele>112.612335</ele>
  <time>2012-06-23T04:51:53Z</time>
<extensions>
<speed>1.6</speed>
<temp>0.00</temp>
<bpm>0</bpm>
<rpm>0.00</rpm>
</extensions>
</trkpt>
<trkpt lat="32.581886292" lon="35.003669739">
  <ele>112.965851</ele>
  <time>2012-06-23T04:51:55Z</time>
<extensions>
<speed>2.2</speed>
<temp>0.00</temp>
<bpm>0</bpm>
<rpm>0.00</rpm>
</extensions>
</trkpt>
<trkpt lat="32.581848145" lon="35.003684998">
  <ele>113.272491</ele>
  <time>2012-06-23T04:51:57Z</time>
<extensions>
<speed>1.9</speed>
<temp>0.00</temp>
<bpm>0</bpm>
<rpm>0.00</rpm>
</extensions>
</trkpt>
<trkpt lat="32.581813812" lon="35.003700256">
  <ele>113.635773</ele>
  <time>2012-06-23T04:51:59Z</time>
<extensions>
<speed>1.5</speed>
<temp>0.00</temp>
<bpm>0</bpm>
<rpm>0.00</rpm>
</extensions>
</trkpt>
<trkpt lat="32.581783295" lon="35.003711700">
  <ele>114.006866</ele>
  <time>2012-06-23T04:52:01Z</time>
<extensions>
<speed>2.0</speed>
<temp>0.00</temp>
<bpm>0</bpm>
<rpm>0.00</rpm>
</extensions>
</trkpt>
<trkpt lat="32.581752777" lon="35.003738403">
  <ele>114.325226</ele>
  <time>2012-06-23T04:52:03Z</time>
<extensions>
<speed>2.0</speed>
<temp>0.00</temp>
<bpm>0</bpm>
<rpm>0.00</rpm>
</extensions>
</trkpt>
<trkpt lat="32.581722260" lon="35.003761292">
  <ele>114.747101</ele>
  <time>2012-06-23T04:52:05Z</time>
<extensions>
<speed>2.1</speed>
<temp>0.00</temp>
<bpm>0</bpm>
<rpm>0.00</rpm>
</extensions>
</trkpt>
<trkpt lat="32.581687927" lon="35.003784180">
  <ele>115.006866</ele>
  <time>2012-06-23T04:52:07Z</time>
<extensions>
<speed>1.8</speed>
<temp>0.00</temp>
<bpm>0</bpm>
<rpm>0.00</rpm>
</extensions>
</trkpt>
<trkpt lat="32.581665039" lon="35.003807068">
  <ele>115.305695</ele>
  <time>2012-06-23T04:52:09Z</time>
<extensions>
<speed>1.8</speed>
<temp>0.00</temp>
<bpm>0</bpm>
<rpm>0.00</rpm>
</extensions>
</trkpt>
<trkpt lat="32.581638336" lon="35.003833771">
  <ele>116.256866</ele>
  <time>2012-06-23T04:52:11Z</time>
<extensions>
<speed>1.7</speed>
<temp>0.00</temp>
<bpm>0</bpm>
<rpm>0.00</rpm>
</extensions>
</trkpt>
<trkpt lat="32.581611633" lon="35.003883362">
  <ele>117.344757</ele>
  <time>2012-06-23T04:52:13Z</time>
<extensions>
<speed>2.0</speed>
<temp>0.00</temp>
<bpm>0</bpm>
<rpm>0.00</rpm>
</extensions>
</trkpt>
<trkpt lat="32.581588745" lon="35.003910065">
  <ele>117.961945</ele>
  <time>2012-06-23T04:52:15Z</time>
<extensions>
<speed>1.9</speed>
<temp>0.00</temp>
<bpm>0</bpm>
<rpm>0.00</rpm>
</extensions>
</trkpt>
<trkpt lat="32.581558228" lon="35.003932953">
  <ele>118.415070</ele>
  <time>2012-06-23T04:52:17Z</time>
<extensions>
<speed>1.8</speed>
<temp>0.00</temp>
<bpm>0</bpm>
<rpm>0.00</rpm>
</extensions>
</trkpt>
<trkpt lat="32.581535339" lon="35.003963470">
  <ele>118.126007</ele>
  <time>2012-06-23T04:52:19Z</time>
<extensions>
<speed>2.2</speed>
<temp>0.00</temp>
<bpm>0</bpm>
<rpm>0.00</rpm>
</extensions>
</trkpt>
<trkpt lat="32.581501007" lon="35.003978729">
  <ele>118.055695</ele>
  <time>2012-06-23T04:52:21Z</time>
<extensions>
<speed>2.1</speed>
<temp>0.00</temp>
<bpm>0</bpm>
<rpm>0.00</rpm>
</extensions>
</trkpt>
<trkpt lat="32.581462860" lon="35.003990173">
  <ele>117.743195</ele>
  <time>2012-06-23T04:52:23Z</time>
<extensions>
<speed>2.3</speed>
<temp>0.00</temp>
<bpm>0</bpm>
<rpm>0.00</rpm>
</extensions>
</trkpt>
<trkpt lat="32.581420898" lon="35.004005432">
  <ele>118.403351</ele>
  <time>2012-06-23T04:52:25Z</time>
<extensions>
<speed>2.3</speed>
<temp>0.00</temp>
<bpm>0</bpm>
<rpm>0.00</rpm>
</extensions>
</trkpt>
<trkpt lat="32.581390381" lon="35.004032135">
  <ele>118.407257</ele>
  <time>2012-06-23T04:52:27Z</time>
<extensions>
<speed>2.3</speed>
<temp>0.00</temp>
<bpm>0</bpm>
<rpm>0.00</rpm>
</extensions>
</trkpt>
<trkpt lat="32.581363678" lon="35.004066467">
  <ele>117.985382</ele>
  <time>2012-06-23T04:52:29Z</time>
<extensions>
<speed>2.1</speed>
<temp>0.00</temp>
<bpm>0</bpm>
<rpm>0.00</rpm>
</extensions>
</trkpt>
<trkpt lat="32.581329346" lon="35.004085541">
  <ele>118.817413</ele>
  <time>2012-06-23T04:52:31Z</time>
<extensions>
<speed>2.3</speed>
<temp>0.00</temp>
<bpm>0</bpm>
<rpm>0.00</rpm>
</extensions>
</trkpt>
<trkpt lat="32.581283569" lon="35.004108429">
  <ele>119.065460</ele>
  <time>2012-06-23T04:52:33Z</time>
<extensions>
<speed>2.2</speed>
<temp>0.00</temp>
<bpm>0</bpm>
<rpm>0.00</rpm>
</extensions>
</trkpt>
<trkpt lat="32.581249237" lon="35.004135132">
  <ele>119.028351</ele>
  <time>2012-06-23T04:52:35Z</time>
<extensions>
<speed>1.9</speed>
<temp>0.00</temp>
<bpm>0</bpm>
<rpm>0.00</rpm>
</extensions>
</trkpt>
<trkpt lat="32.581222534" lon="35.004154205">
  <ele>119.793976</ele>
  <time>2012-06-23T04:52:37Z</time>
<extensions>
<speed>2.0</speed>
<temp>0.00</temp>
<bpm>0</bpm>
<rpm>0.00</rpm>
</extensions>
</trkpt>
<trkpt lat="32.581199646" lon="35.004188538">
  <ele>120.338898</ele>
  <time>2012-06-23T04:52:39Z</time>
<extensions>
<speed>2.2</speed>
<temp>0.00</temp>
<bpm>0</bpm>
<rpm>0.00</rpm>
</extensions>
</trkpt>
<trkpt lat="32.581172943" lon="35.004211426">
  <ele>120.885773</ele>
  <time>2012-06-23T04:52:41Z</time>
<extensions>
<speed>1.9</speed>
<temp>0.00</temp>
<bpm>0</bpm>
<rpm>0.00</rpm>
</extensions>
</trkpt>
<trkpt lat="32.581146240" lon="35.004241943">
  <ele>120.512726</ele>
  <time>2012-06-23T04:52:43Z</time>
<extensions>
<speed>2.1</speed>
<temp>0.00</temp>
<bpm>0</bpm>
<rpm>0.00</rpm>
</extensions>
</trkpt>
<trkpt lat="32.581119537" lon="35.004268646">
  <ele>120.583038</ele>
  <time>2012-06-23T04:52:45Z</time>
<extensions>
<speed>1.9</speed>
<temp>0.00</temp>
<bpm>0</bpm>
<rpm>0.00</rpm>
</extensions>
</trkpt>
<trkpt lat="32.581089020" lon="35.004306793">
  <ele>121.010773</ele>
  <time>2012-06-23T04:52:47Z</time>
<extensions>
<speed>2.1</speed>
<temp>0.00</temp>
<bpm>0</bpm>
<rpm>0.00</rpm>
</extensions>
</trkpt>
<trkpt lat="32.581054688" lon="35.004341125">
  <ele>120.395538</ele>
  <time>2012-06-23T04:52:49Z</time>
<extensions>
<speed>2.1</speed>
<temp>0.00</temp>
<bpm>0</bpm>
<rpm>0.00</rpm>
</extensions>
</trkpt>
<trkpt lat="32.581035614" lon="35.004386902">
  <ele>119.989288</ele>
  <time>2012-06-23T04:52:51Z</time>
<extensions>
<speed>2.3</speed>
<temp>0.00</temp>
<bpm>0</bpm>
<rpm>0.00</rpm>
</extensions>
</trkpt>
<trkpt lat="32.581016541" lon="35.004440308">
  <ele>119.897491</ele>
  <time>2012-06-23T04:52:53Z</time>
<extensions>
<speed>2.4</speed>
<temp>0.00</temp>
<bpm>0</bpm>
<rpm>0.00</rpm>
</extensions>
</trkpt>
<trkpt lat="32.580989838" lon="35.004493713">
  <ele>119.950226</ele>
  <time>2012-06-23T04:52:55Z</time>
<extensions>
<speed>2.4</speed>
<temp>0.00</temp>
<bpm>0</bpm>
<rpm>0.00</rpm>
</extensions>
</trkpt>
<trkpt lat="32.580959320" lon="35.004531860">
  <ele>120.168976</ele>
  <time>2012-06-23T04:52:57Z</time>
<extensions>
<speed>2.1</speed>
<temp>0.00</temp>
<bpm>0</bpm>
<rpm>0.00</rpm>
</extensions>
</trkpt>
<trkpt lat="32.580951691" lon="35.004573822">
  <ele>119.362335</ele>
  <time>2012-06-23T04:52:59Z</time>
<extensions>
<speed>2.3</speed>
<temp>0.00</temp>
<bpm>0</bpm>
<rpm>0.00</rpm>
</extensions>
</trkpt>
<trkpt lat="32.580936432" lon="35.004619598">
  <ele>119.872101</ele>
  <time>2012-06-23T04:53:01Z</time>
<extensions>
<speed>2.2</speed>
<temp>0.00</temp>
<bpm>0</bpm>
<rpm>0.00</rpm>
</extensions>
</trkpt>
<trkpt lat="32.580921173" lon="35.004669189">
  <ele>120.588898</ele>
  <time>2012-06-23T04:53:03Z</time>
<extensions>
<speed>2.0</speed>
<temp>0.00</temp>
<bpm>0</bpm>
<rpm>0.00</rpm>
</extensions>
</trkpt>
<trkpt lat="32.580917358" lon="35.004718781">
  <ele>121.627960</ele>
  <time>2012-06-23T04:53:05Z</time>
<extensions>
<speed>2.3</speed>
<temp>0.00</temp>
<bpm>0</bpm>
<rpm>0.00</rpm>
</extensions>
</trkpt>
<trkpt lat="32.580924988" lon="35.004749298">
  <ele>121.901398</ele>
  <time>2012-06-23T04:53:06Z</time>
<extensions>
<speed>2.5</speed>
<temp>0.00</temp>
<bpm>0</bpm>
<rpm>0.00</rpm>
</extensions>
</trkpt>
<trkpt lat="32.580932617" lon="35.004791260">
  <ele>122.069366</ele>
  <time>2012-06-23T04:53:07Z</time>
<extensions>
<speed>2.5</speed>
<temp>0.00</temp>
<bpm>0</bpm>
<rpm>0.00</rpm>
</extensions>
</trkpt>
<trkpt lat="32.580932617" lon="35.004844666">
  <ele>122.243195</ele>
  <time>2012-06-23T04:53:09Z</time>
<extensions>
<speed>2.4</speed>
<temp>0.00</temp>
<bpm>0</bpm>
<rpm>0.00</rpm>
</extensions>
</trkpt>
<trkpt lat="32.580928802" lon="35.004898071">
  <ele>121.387726</ele>
  <time>2012-06-23T04:53:11Z</time>
<extensions>
<speed>2.3</speed>
<temp>0.00</temp>
<bpm>0</bpm>
<rpm>0.00</rpm>
</extensions>
</trkpt>
<trkpt lat="32.580917358" lon="35.004940033">
  <ele>119.571320</ele>
  <time>2012-06-23T04:53:13Z</time>
<extensions>
<speed>1.9</speed>
<temp>0.00</temp>
<bpm>0</bpm>
<rpm>0.00</rpm>
</extensions>
</trkpt>
<trkpt lat="32.580913544" lon="35.004989624">
  <ele>119.137726</ele>
  <time>2012-06-23T04:53:15Z</time>
<extensions>
<speed>1.9</speed>
<temp>0.00</temp>
<bpm>0</bpm>
<rpm>0.00</rpm>
</extensions>
</trkpt>
<trkpt lat="32.580902100" lon="35.005035400">
  <ele>119.446320</ele>
  <time>2012-06-23T04:53:17Z</time>
<extensions>
<speed>1.6</speed>
<temp>0.00</temp>
<bpm>0</bpm>
<rpm>0.00</rpm>
</extensions>
</trkpt>
<trkpt lat="32.580898285" lon="35.005069733">
  <ele>119.192413</ele>
  <time>2012-06-23T04:53:19Z</time>
<extensions>
<speed>1.5</speed>
<temp>0.00</temp>
<bpm>0</bpm>
<rpm>0.00</rpm>
</extensions>
</trkpt>
<trkpt lat="32.580890656" lon="35.005115509">
  <ele>119.168976</ele>
  <time>2012-06-23T04:53:22Z</time>
<extensions>
<speed>1.6</speed>
<temp>0.00</temp>
<bpm>0</bpm>
<rpm>0.00</rpm>
</extensions>
</trkpt>
<trkpt lat="32.580875397" lon="35.005161285">
  <ele>120.036163</ele>
  <time>2012-06-23T04:53:24Z</time>
<extensions>
<speed>1.7</speed>
<temp>0.00</temp>
<bpm>0</bpm>
<rpm>0.00</rpm>
</extensions>
</trkpt>
<trkpt lat="32.580863953" lon="35.005207062">
  <ele>120.545929</ele>
  <time>2012-06-23T04:53:26Z</time>
<extensions>
<speed>1.7</speed>
<temp>0.00</temp>
<bpm>0</bpm>
<rpm>0.00</rpm>
</extensions>
</trkpt>
<trkpt lat="32.580856323" lon="35.005245209">
  <ele>120.547882</ele>
  <time>2012-06-23T04:53:28Z</time>
<extensions>
<speed>1.7</speed>
<temp>0.00</temp>
<bpm>0</bpm>
<rpm>0.00</rpm>
</extensions>
</trkpt>
<trkpt lat="32.580852509" lon="35.005287170">
  <ele>119.774445</ele>
  <time>2012-06-23T04:53:30Z</time>
<extensions>
<speed>1.9</speed>
<temp>0.00</temp>
<bpm>0</bpm>
<rpm>0.00</rpm>
</extensions>
</trkpt>
<trkpt lat="32.580856323" lon="35.005340576">
  <ele>119.395538</ele>
  <time>2012-06-23T04:53:32Z</time>
<extensions>
<speed>1.9</speed>
<temp>0.00</temp>
<bpm>0</bpm>
<rpm>0.00</rpm>
</extensions>
</trkpt>
<trkpt lat="32.580848694" lon="35.005390167">
  <ele>119.454132</ele>
  <time>2012-06-23T04:53:34Z</time>
<extensions>
<speed>2.0</speed>
<temp>0.00</temp>
<bpm>0</bpm>
<rpm>0.00</rpm>
</extensions>
</trkpt>
<trkpt lat="32.580852509" lon="35.005439758">
  <ele>119.038116</ele>
  <time>2012-06-23T04:53:36Z</time>
<extensions>
<speed>2.0</speed>
<temp>0.00</temp>
<bpm>0</bpm>
<rpm>0.00</rpm>
</extensions>
</trkpt>
<trkpt lat="32.580852509" lon="35.005477905">
  <ele>120.426788</ele>
  <time>2012-06-23T04:53:37Z</time>
<extensions>
<speed>2.3</speed>
<temp>0.00</temp>
<bpm>0</bpm>
<rpm>0.00</rpm>
</extensions>
</trkpt>
<trkpt lat="32.580856323" lon="35.005523682">
  <ele>120.792023</ele>
  <time>2012-06-23T04:53:38Z</time>
<extensions>
<speed>2.0</speed>
<temp>0.00</temp>
<bpm>0</bpm>
<rpm>0.00</rpm>
</extensions>
</trkpt>
<trkpt lat="32.580848694" lon="35.005569458">
  <ele>122.733429</ele>
  <time>2012-06-23T04:53:40Z</time>
<extensions>
<speed>2.1</speed>
<temp>0.00</temp>
<bpm>0</bpm>
<rpm>0.00</rpm>
</extensions>
</trkpt>
<trkpt lat="32.580848694" lon="35.005619049">
  <ele>123.139679</ele>
  <time>2012-06-23T04:53:42Z</time>
<extensions>
<speed>2.3</speed>
<temp>0.00</temp>
<bpm>0</bpm>
<rpm>0.00</rpm>
</extensions>
</trkpt>
<trkpt lat="32.580848694" lon="35.005668640">
  <ele>123.883820</ele>
  <time>2012-06-23T04:53:44Z</time>
<extensions>
<speed>2.4</speed>
<temp>0.00</temp>
<bpm>0</bpm>
<rpm>0.00</rpm>
</extensions>
</trkpt>
<trkpt lat="32.580852509" lon="35.005722046">
  <ele>123.940460</ele>
  <time>2012-06-23T04:53:46Z</time>
<extensions>
<speed>2.2</speed>
<temp>0.00</temp>
<bpm>0</bpm>
<rpm>0.00</rpm>
</extensions>
</trkpt>
<trkpt lat="32.580856323" lon="35.005779266">
  <ele>124.709991</ele>
  <time>2012-06-23T04:53:48Z</time>
<extensions>
<speed>2.2</speed>
<temp>0.00</temp>
<bpm>0</bpm>
<rpm>0.00</rpm>
</extensions>
</trkpt>
<trkpt lat="32.580852509" lon="35.005813599">
  <ele>124.915070</ele>
  <time>2012-06-23T04:53:49Z</time>
<extensions>
<speed>2.6</speed>
<temp>0.00</temp>
<bpm>0</bpm>
<rpm>0.00</rpm>
</extensions>
</trkpt>
<trkpt lat="32.580852509" lon="35.005859375">
  <ele>124.852570</ele>
  <time>2012-06-23T04:53:51Z</time>
<extensions>
<speed>2.2</speed>
<temp>0.00</temp>
<bpm>0</bpm>
<rpm>0.00</rpm>
</extensions>
</trkpt>
<trkpt lat="32.580848694" lon="35.005905151">
  <ele>125.862335</ele>
  <time>2012-06-23T04:53:53Z</time>
<extensions>
<speed>2.0</speed>
<temp>0.00</temp>
<bpm>0</bpm>
<rpm>0.00</rpm>
</extensions>
</trkpt>
<trkpt lat="32.580841064" lon="35.005947113">
  <ele>126.686554</ele>
  <time>2012-06-23T04:53:55Z</time>
<extensions>
<speed>2.1</speed>
<temp>0.00</temp>
<bpm>0</bpm>
<rpm>0.00</rpm>
</extensions>
</trkpt>
<trkpt lat="32.580841064" lon="35.005996704">
  <ele>128.556702</ele>
  <time>2012-06-23T04:53:57Z</time>
<extensions>
<speed>2.3</speed>
<temp>0.00</temp>
<bpm>0</bpm>
<rpm>0.00</rpm>
</extensions>
</trkpt>
<trkpt lat="32.580825806" lon="35.006042480">
  <ele>129.498108</ele>
  <time>2012-06-23T04:53:59Z</time>
<extensions>
<speed>2.2</speed>
<temp>0.00</temp>
<bpm>0</bpm>
<rpm>0.00</rpm>
</extensions>
</trkpt>
<trkpt lat="32.580833435" lon="35.006095886">
  <ele>130.146545</ele>
  <time>2012-06-23T04:54:01Z</time>
<extensions>
<speed>2.6</speed>
<temp>0.00</temp>
<bpm>0</bpm>
<rpm>0.00</rpm>
</extensions>
</trkpt>
<trkpt lat="32.580825806" lon="35.006141663">
  <ele>129.669983</ele>
  <time>2012-06-23T04:54:03Z</time>
<extensions>
<speed>2.2</speed>
<temp>0.00</temp>
<bpm>0</bpm>
<rpm>0.00</rpm>
</extensions>
</trkpt>
<trkpt lat="32.580821991" lon="35.006183624">
  <ele>130.365295</ele>
  <time>2012-06-23T04:54:05Z</time>
<extensions>
<speed>1.9</speed>
<temp>0.00</temp>
<bpm>0</bpm>
<rpm>0.00</rpm>
</extensions>
</trkpt>
<trkpt lat="32.580806732" lon="35.006225586">
  <ele>131.162170</ele>
  <time>2012-06-23T04:54:07Z</time>
<extensions>
<speed>2.0</speed>
<temp>0.00</temp>
<bpm>0</bpm>
<rpm>0.00</rpm>
</extensions>
</trkpt>
<trkpt lat="32.580791473" lon="35.006267548">
  <ele>131.720764</ele>
  <time>2012-06-23T04:54:09Z</time>
<extensions>
<speed>2.3</speed>
<temp>0.00</temp>
<bpm>0</bpm>
<rpm>0.00</rpm>
</extensions>
</trkpt>
<trkpt lat="32.580776215" lon="35.006324768">
  <ele>132.353577</ele>
  <time>2012-06-23T04:54:11Z</time>
<extensions>
<speed>2.1</speed>
<temp>0.00</temp>
<bpm>0</bpm>
<rpm>0.00</rpm>
</extensions>
</trkpt>
<trkpt lat="32.580783844" lon="35.006374359">
  <ele>133.494202</ele>
  <time>2012-06-23T04:54:13Z</time>
<extensions>
<speed>2.2</speed>
<temp>0.00</temp>
<bpm>0</bpm>
<rpm>0.00</rpm>
</extensions>
</trkpt>
<trkpt lat="32.580787659" lon="35.006423950">
  <ele>134.080139</ele>
  <time>2012-06-23T04:54:15Z</time>
<extensions>
<speed>2.1</speed>
<temp>0.00</temp>
<bpm>0</bpm>
<rpm>0.00</rpm>
</extensions>
</trkpt>
<trkpt lat="32.580799103" lon="35.006477356">
  <ele>134.173889</ele>
  <time>2012-06-23T04:54:17Z</time>
<extensions>
<speed>2.2</speed>
<temp>0.00</temp>
<bpm>0</bpm>
<rpm>0.00</rpm>
</extensions>
</trkpt>
<trkpt lat="32.580799103" lon="35.006519318">
  <ele>132.638733</ele>
  <time>2012-06-23T04:54:19Z</time>
<extensions>
<speed>2.0</speed>
<temp>0.00</temp>
<bpm>0</bpm>
<rpm>0.00</rpm>
</extensions>
</trkpt>
<trkpt lat="32.580806732" lon="35.006565094">
  <ele>132.752014</ele>
  <time>2012-06-23T04:54:21Z</time>
<extensions>
<speed>1.9</speed>
<temp>0.00</temp>
<bpm>0</bpm>
<rpm>0.00</rpm>
</extensions>
</trkpt>
<trkpt lat="32.580795288" lon="35.006599426">
  <ele>133.205139</ele>
  <time>2012-06-23T04:54:23Z</time>
<extensions>
<speed>2.1</speed>
<temp>0.00</temp>
<bpm>0</bpm>
<rpm>0.00</rpm>
</extensions>
</trkpt>
<trkpt lat="32.580768585" lon="35.006633759">
  <ele>133.380920</ele>
  <time>2012-06-23T04:54:25Z</time>
<extensions>
<speed>2.2</speed>
<temp>0.00</temp>
<bpm>0</bpm>
<rpm>0.00</rpm>
</extensions>
</trkpt>
<trkpt lat="32.580749512" lon="35.006675720">
  <ele>133.955139</ele>
  <time>2012-06-23T04:54:27Z</time>
<extensions>
<speed>2.3</speed>
<temp>0.00</temp>
<bpm>0</bpm>
<rpm>0.00</rpm>
</extensions>
</trkpt>
<trkpt lat="32.580745697" lon="35.006736755">
  <ele>136.322327</ele>
  <time>2012-06-23T04:54:29Z</time>
<extensions>
<speed>2.2</speed>
<temp>0.00</temp>
<bpm>0</bpm>
<rpm>0.00</rpm>
</extensions>
</trkpt>
<trkpt lat="32.580749512" lon="35.006786346">
  <ele>136.892639</ele>
  <time>2012-06-23T04:54:31Z</time>
<extensions>
<speed>2.3</speed>
<temp>0.00</temp>
<bpm>0</bpm>
<rpm>0.00</rpm>
</extensions>
</trkpt>
<trkpt lat="32.580749512" lon="35.006843567">
  <ele>137.806702</ele>
  <time>2012-06-23T04:54:33Z</time>
<extensions>
<speed>2.4</speed>
<temp>0.00</temp>
<bpm>0</bpm>
<rpm>0.00</rpm>
</extensions>
</trkpt>
<trkpt lat="32.580757141" lon="35.006900787">
  <ele>138.896545</ele>
  <time>2012-06-23T04:54:35Z</time>
<extensions>
<speed>2.5</speed>
<temp>0.00</temp>
<bpm>0</bpm>
<rpm>0.00</rpm>
</extensions>
</trkpt>
<trkpt lat="32.580768585" lon="35.006958008">
  <ele>138.455139</ele>
  <time>2012-06-23T04:54:37Z</time>
<extensions>
<speed>2.4</speed>
<temp>0.00</temp>
<bpm>0</bpm>
<rpm>0.00</rpm>
</extensions>
</trkpt>
<trkpt lat="32.580780029" lon="35.007011414">
  <ele>137.627014</ele>
  <time>2012-06-23T04:54:39Z</time>
<extensions>
<speed>2.4</speed>
<temp>0.00</temp>
<bpm>0</bpm>
<rpm>0.00</rpm>
</extensions>
</trkpt>
<trkpt lat="32.580799103" lon="35.007057190">
  <ele>136.470764</ele>
  <time>2012-06-23T04:54:41Z</time>
<extensions>
<speed>2.4</speed>
<temp>0.00</temp>
<bpm>0</bpm>
<rpm>0.00</rpm>
</extensions>
</trkpt>
<trkpt lat="32.580806732" lon="35.007102966">
  <ele>137.115295</ele>
  <time>2012-06-23T04:54:43Z</time>
<extensions>
<speed>2.3</speed>
<temp>0.00</temp>
<bpm>0</bpm>
<rpm>0.00</rpm>
</extensions>
</trkpt>
<trkpt lat="32.580799103" lon="35.007156372">
  <ele>138.236389</ele>
  <time>2012-06-23T04:54:45Z</time>
<extensions>
<speed>2.1</speed>
<temp>0.00</temp>
<bpm>0</bpm>
<rpm>0.00</rpm>
</extensions>
</trkpt>
<trkpt lat="32.580802917" lon="35.007209778">
  <ele>138.994202</ele>
  <time>2012-06-23T04:54:47Z</time>
<extensions>
<speed>2.3</speed>
<temp>0.00</temp>
<bpm>0</bpm>
<rpm>0.00</rpm>
</extensions>
</trkpt>
<trkpt lat="32.580802917" lon="35.007247925">
  <ele>138.459045</ele>
  <time>2012-06-23T04:54:49Z</time>
<extensions>
<speed>2.1</speed>
<temp>0.00</temp>
<bpm>0</bpm>
<rpm>0.00</rpm>
</extensions>
</trkpt>
<trkpt lat="32.580818176" lon="35.007305145">
  <ele>138.771545</ele>
  <time>2012-06-23T04:54:51Z</time>
<extensions>
<speed>2.8</speed>
<temp>0.00</temp>
<bpm>0</bpm>
<rpm>0.00</rpm>
</extensions>
</trkpt>
<trkpt lat="32.580829620" lon="35.007331848">
  <ele>138.134827</ele>
  <time>2012-06-23T04:54:52Z</time>
<extensions>
<speed>2.8</speed>
<temp>0.00</temp>
<bpm>0</bpm>
<rpm>0.00</rpm>
</extensions>
</trkpt>
<trkpt lat="32.580833435" lon="35.007381439">
  <ele>137.181702</ele>
  <time>2012-06-23T04:54:54Z</time>
<extensions>
<speed>2.5</speed>
<temp>0.00</temp>
<bpm>0</bpm>
<rpm>0.00</rpm>
</extensions>
</trkpt>
<trkpt lat="32.580829620" lon="35.007431030">
  <ele>137.447327</ele>
  <time>2012-06-23T04:54:56Z</time>
<extensions>
<speed>2.1</speed>
<temp>0.00</temp>
<bpm>0</bpm>
<rpm>0.00</rpm>
</extensions>
</trkpt>
<trkpt lat="32.580825806" lon="35.007480621">
  <ele>137.814514</ele>
  <time>2012-06-23T04:54:58Z</time>
<extensions>
<speed>1.7</speed>
<temp>0.00</temp>
<bpm>0</bpm>
<rpm>0.00</rpm>
</extensions>
</trkpt>
<trkpt lat="32.580821991" lon="35.007511139">
  <ele>138.935608</ele>
  <time>2012-06-23T04:55:00Z</time>
<extensions>
<speed>1.6</speed>
<temp>0.00</temp>
<bpm>0</bpm>
<rpm>0.00</rpm>
</extensions>
</trkpt>
<trkpt lat="32.580818176" lon="35.007545471">
  <ele>139.142639</ele>
  <time>2012-06-23T04:55:02Z</time>
<extensions>
<speed>1.9</speed>
<temp>0.00</temp>
<bpm>0</bpm>
<rpm>0.00</rpm>
</extensions>
</trkpt>
<trkpt lat="32.580810547" lon="35.007587433">
  <ele>138.908264</ele>
  <time>2012-06-23T04:55:04Z</time>
<extensions>
<speed>1.8</speed>
<temp>0.00</temp>
<bpm>0</bpm>
<rpm>0.00</rpm>
</extensions>
</trkpt>
<trkpt lat="32.580799103" lon="35.007629395">
  <ele>138.580139</ele>
  <time>2012-06-23T04:55:06Z</time>
<extensions>
<speed>1.7</speed>
<temp>0.00</temp>
<bpm>0</bpm>
<rpm>0.00</rpm>
</extensions>
</trkpt>
<trkpt lat="32.580791473" lon="35.007667542">
  <ele>139.087952</ele>
  <time>2012-06-23T04:55:08Z</time>
<extensions>
<speed>2.1</speed>
<temp>0.00</temp>
<bpm>0</bpm>
<rpm>0.00</rpm>
</extensions>
</trkpt>
<trkpt lat="32.580783844" lon="35.007701874">
  <ele>139.552795</ele>
  <time>2012-06-23T04:55:10Z</time>
<extensions>
<speed>1.6</speed>
<temp>0.00</temp>
<bpm>0</bpm>
<rpm>0.00</rpm>
</extensions>
</trkpt>
<trkpt lat="32.580776215" lon="35.007740021">
  <ele>139.959045</ele>
  <time>2012-06-23T04:55:12Z</time>
<extensions>
<speed>1.9</speed>
<temp>0.00</temp>
<bpm>0</bpm>
<rpm>0.00</rpm>
</extensions>
</trkpt>
<trkpt lat="32.580772400" lon="35.007778168">
  <ele>140.431702</ele>
  <time>2012-06-23T04:55:14Z</time>
<extensions>
<speed>1.6</speed>
<temp>0.00</temp>
<bpm>0</bpm>
<rpm>0.00</rpm>
</extensions>
</trkpt>
<trkpt lat="32.580764771" lon="35.007812500">
  <ele>141.615295</ele>
  <time>2012-06-23T04:55:16Z</time>
<extensions>
<speed>1.4</speed>
<temp>0.00</temp>
<bpm>0</bpm>
<rpm>0.00</rpm>
</extensions>
</trkpt>
<trkpt lat="32.580757141" lon="35.007854462">
  <ele>141.638733</ele>
  <time>2012-06-23T04:55:18Z</time>
<extensions>
<speed>1.6</speed>
<temp>0.00</temp>
<bpm>0</bpm>
<rpm>0.00</rpm>
</extensions>
</trkpt>
<trkpt lat="32.580753326" lon="35.007888794">
  <ele>142.412170</ele>
  <time>2012-06-23T04:55:20Z</time>
<extensions>
<speed>1.9</speed>
<temp>0.00</temp>
<bpm>0</bpm>
<rpm>0.00</rpm>
</extensions>
</trkpt>
<trkpt lat="32.580757141" lon="35.007926941">
  <ele>143.537170</ele>
  <time>2012-06-23T04:55:22Z</time>
<extensions>
<speed>0.9</speed>
<temp>0.00</temp>
<bpm>0</bpm>
<rpm>0.00</rpm>
</extensions>
</trkpt>
<trkpt lat="32.580791473" lon="35.007930756">
  <ele>143.443420</ele>
  <time>2012-06-23T04:55:25Z</time>
<extensions>
<speed>1.2</speed>
<temp>0.00</temp>
<bpm>0</bpm>
<rpm>0.00</rpm>
</extensions>
</trkpt>
<trkpt lat="32.580825806" lon="35.007919312">
  <ele>143.654358</ele>
  <time>2012-06-23T04:55:28Z</time>
<extensions>
<speed>1.4</speed>
<temp>0.00</temp>
<bpm>0</bpm>
<rpm>0.00</rpm>
</extensions>
</trkpt>
<trkpt lat="32.580856323" lon="35.007919312">
  <ele>142.658264</ele>
  <time>2012-06-23T04:55:30Z</time>
<extensions>
<speed>0.8</speed>
<temp>0.00</temp>
<bpm>0</bpm>
<rpm>0.00</rpm>
</extensions>
</trkpt>
<trkpt lat="32.580886841" lon="35.007915497">
  <ele>141.888733</ele>
  <time>2012-06-23T04:55:33Z</time>
<extensions>
<speed>1.2</speed>
<temp>0.00</temp>
<bpm>0</bpm>
<rpm>0.00</rpm>
</extensions>
</trkpt>
<trkpt lat="32.580917358" lon="35.007892609">
  <ele>141.974670</ele>
  <time>2012-06-23T04:56:04Z</time>
<extensions>
<speed>1.4</speed>
<temp>0.00</temp>
<bpm>0</bpm>
<rpm>0.00</rpm>
</extensions>
</trkpt>
<trkpt lat="32.580955505" lon="35.007873535">
  <ele>142.060608</ele>
  <time>2012-06-23T04:56:06Z</time>
<extensions>
<speed>1.6</speed>
<temp>0.00</temp>
<bpm>0</bpm>
<rpm>0.00</rpm>
</extensions>
</trkpt>
<trkpt lat="32.580993652" lon="35.007869720">
  <ele>141.904358</ele>
  <time>2012-06-23T04:56:08Z</time>
<extensions>
<speed>1.7</speed>
<temp>0.00</temp>
<bpm>0</bpm>
<rpm>0.00</rpm>
</extensions>
</trkpt>
<trkpt lat="32.581024170" lon="35.007850647">
  <ele>141.752014</ele>
  <time>2012-06-23T04:56:10Z</time>
<extensions>
<speed>1.5</speed>
<temp>0.00</temp>
<bpm>0</bpm>
<rpm>0.00</rpm>
</extensions>
</trkpt>
<trkpt lat="32.581058502" lon="35.007835388">
  <ele>141.623108</ele>
  <time>2012-06-23T04:56:12Z</time>
<extensions>
<speed>1.6</speed>
<temp>0.00</temp>
<bpm>0</bpm>
<rpm>0.00</rpm>
</extensions>
</trkpt>
<trkpt lat="32.581092834" lon="35.007823944">
  <ele>140.951233</ele>
  <time>2012-06-23T04:56:14Z</time>
<extensions>
<speed>2.0</speed>
<temp>0.00</temp>
<bpm>0</bpm>
<rpm>0.00</rpm>
</extensions>
</trkpt>
<trkpt lat="32.581130981" lon="35.007816315">
  <ele>140.634827</ele>
  <time>2012-06-23T04:56:16Z</time>
<extensions>
<speed>1.9</speed>
<temp>0.00</temp>
<bpm>0</bpm>
<rpm>0.00</rpm>
</extensions>
</trkpt>
<trkpt lat="32.581161499" lon="35.007808685">
  <ele>140.263733</ele>
  <time>2012-06-23T04:56:18Z</time>
<extensions>
<speed>1.9</speed>
<temp>0.00</temp>
<bpm>0</bpm>
<rpm>0.00</rpm>
</extensions>
</trkpt>
<trkpt lat="32.581211090" lon="35.007797241">
  <ele>140.627014</ele>
  <time>2012-06-23T04:56:20Z</time>
<extensions>
<speed>2.2</speed>
<temp>0.00</temp>
<bpm>0</bpm>
<rpm>0.00</rpm>
</extensions>
</trkpt>
<trkpt lat="32.581249237" lon="35.007785797">
  <ele>140.986389</ele>
  <time>2012-06-23T04:56:22Z</time>
<extensions>
<speed>2.0</speed>
<temp>0.00</temp>
<bpm>0</bpm>
<rpm>0.00</rpm>
</extensions>
</trkpt>
<trkpt lat="32.581283569" lon="35.007778168">
  <ele>140.482483</ele>
  <time>2012-06-23T04:56:24Z</time>
<extensions>
<speed>2.0</speed>
<temp>0.00</temp>
<bpm>0</bpm>
<rpm>0.00</rpm>
</extensions>
</trkpt>
<trkpt lat="32.581317902" lon="35.007766724">
  <ele>140.482483</ele>
  <time>2012-06-23T04:56:26Z</time>
<extensions>
<speed>2.0</speed>
<temp>0.00</temp>
<bpm>0</bpm>
<rpm>0.00</rpm>
</extensions>
</trkpt>
<trkpt lat="32.581356049" lon="35.007770538">
  <ele>140.482483</ele>
  <time>2012-06-23T04:56:28Z</time>
<extensions>
<speed>2.3</speed>
<temp>0.00</temp>
<bpm>0</bpm>
<rpm>0.00</rpm>
</extensions>
</trkpt>
<trkpt lat="32.581401825" lon="35.007770538">
  <ele>140.150452</ele>
  <time>2012-06-23T04:56:30Z</time>
<extensions>
<speed>2.4</speed>
<temp>0.00</temp>
<bpm>0</bpm>
<rpm>0.00</rpm>
</extensions>
</trkpt>
<trkpt lat="32.581436157" lon="35.007774353">
  <ele>139.576233</ele>
  <time>2012-06-23T04:56:32Z</time>
<extensions>
<speed>1.7</speed>
<temp>0.00</temp>
<bpm>0</bpm>
<rpm>0.00</rpm>
</extensions>
</trkpt>
<trkpt lat="32.581470490" lon="35.007778168">
  <ele>139.158264</ele>
  <time>2012-06-23T04:56:34Z</time>
<extensions>
<speed>2.1</speed>
<temp>0.00</temp>
<bpm>0</bpm>
<rpm>0.00</rpm>
</extensions>
</trkpt>
<trkpt lat="32.581516266" lon="35.007785797">
  <ele>138.912170</ele>
  <time>2012-06-23T04:56:36Z</time>
<extensions>
<speed>2.3</speed>
<temp>0.00</temp>
<bpm>0</bpm>
<rpm>0.00</rpm>
</extensions>
</trkpt>
<trkpt lat="32.581554413" lon="35.007804871">
  <ele>139.201233</ele>
  <time>2012-06-23T04:56:38Z</time>
<extensions>
<speed>2.2</speed>
<temp>0.00</temp>
<bpm>0</bpm>
<rpm>0.00</rpm>
</extensions>
</trkpt>
<trkpt lat="32.581592560" lon="35.007808685">
  <ele>138.998108</ele>
  <time>2012-06-23T04:56:40Z</time>
<extensions>
<speed>2.0</speed>
<temp>0.00</temp>
<bpm>0</bpm>
<rpm>0.00</rpm>
</extensions>
</trkpt>
<trkpt lat="32.581630707" lon="35.007797241">
  <ele>141.146545</ele>
  <time>2012-06-23T04:56:42Z</time>
<extensions>
<speed>2.1</speed>
<temp>0.00</temp>
<bpm>0</bpm>
<rpm>0.00</rpm>
</extensions>
</trkpt>
<trkpt lat="32.581672668" lon="35.007804871">
  <ele>141.525452</ele>
  <time>2012-06-23T04:56:44Z</time>
<extensions>
<speed>2.0</speed>
<temp>0.00</temp>
<bpm>0</bpm>
<rpm>0.00</rpm>
</extensions>
</trkpt>
<trkpt lat="32.581722260" lon="35.007812500">
  <ele>142.326233</ele>
  <time>2012-06-23T04:56:46Z</time>
<extensions>
<speed>2.4</speed>
<temp>0.00</temp>
<bpm>0</bpm>
<rpm>0.00</rpm>
</extensions>
</trkpt>
<trkpt lat="32.581764221" lon="35.007823944">
  <ele>143.130920</ele>
  <time>2012-06-23T04:56:48Z</time>
<extensions>
<speed>1.5</speed>
<temp>0.00</temp>
<bpm>0</bpm>
<rpm>0.00</rpm>
</extensions>
</trkpt>
<trkpt lat="32.581806183" lon="35.007839203">
  <ele>144.384827</ele>
  <time>2012-06-23T04:56:50Z</time>
<extensions>
<speed>2.0</speed>
<temp>0.00</temp>
<bpm>0</bpm>
<rpm>0.00</rpm>
</extensions>
</trkpt>
<trkpt lat="32.581848145" lon="35.007862091">
  <ele>145.087952</ele>
  <time>2012-06-23T04:56:52Z</time>
<extensions>
<speed>2.1</speed>
<temp>0.00</temp>
<bpm>0</bpm>
<rpm>0.00</rpm>
</extensions>
</trkpt>
<trkpt lat="32.581882477" lon="35.007884979">
  <ele>144.271545</ele>
  <time>2012-06-23T04:56:54Z</time>
<extensions>
<speed>2.2</speed>
<temp>0.00</temp>
<bpm>0</bpm>
<rpm>0.00</rpm>
</extensions>
</trkpt>
<trkpt lat="32.581912994" lon="35.007892609">
  <ele>145.294983</ele>
  <time>2012-06-23T04:56:56Z</time>
<extensions>
<speed>1.7</speed>
<temp>0.00</temp>
<bpm>0</bpm>
<rpm>0.00</rpm>
</extensions>
</trkpt>
<trkpt lat="32.581943512" lon="35.007915497">
  <ele>145.107483</ele>
  <time>2012-06-23T04:56:58Z</time>
<extensions>
<speed>2.2</speed>
<temp>0.00</temp>
<bpm>0</bpm>
<rpm>0.00</rpm>
</extensions>
</trkpt>
<trkpt lat="32.581977844" lon="35.007923126">
  <ele>145.502014</ele>
  <time>2012-06-23T04:57:00Z</time>
<extensions>
<speed>2.0</speed>
<temp>0.00</temp>
<bpm>0</bpm>
<rpm>0.00</rpm>
</extensions>
</trkpt>
<trkpt lat="32.582023621" lon="35.007930756">
  <ele>146.384827</ele>
  <time>2012-06-23T04:57:02Z</time>
<extensions>
<speed>2.3</speed>
<temp>0.00</temp>
<bpm>0</bpm>
<rpm>0.00</rpm>
</extensions>
</trkpt>
<trkpt lat="32.582061768" lon="35.007934570">
  <ele>147.052795</ele>
  <time>2012-06-23T04:57:03Z</time>
<extensions>
<speed>2.1</speed>
<temp>0.00</temp>
<bpm>0</bpm>
<rpm>0.00</rpm>
</extensions>
</trkpt>
<trkpt lat="32.582092285" lon="35.007949829">
  <ele>146.427795</ele>
  <time>2012-06-23T04:57:05Z</time>
<extensions>
<speed>1.9</speed>
<temp>0.00</temp>
<bpm>0</bpm>
<rpm>0.00</rpm>
</extensions>
</trkpt>
<trkpt lat="32.582118988" lon="35.007972717">
  <ele>146.720764</ele>
  <time>2012-06-23T04:57:07Z</time>
<extensions>
<speed>1.9</speed>
<temp>0.00</temp>
<bpm>0</bpm>
<rpm>0.00</rpm>
</extensions>
</trkpt>
<trkpt lat="32.582160950" lon="35.007991791">
  <ele>148.119202</ele>
  <time>2012-06-23T04:57:09Z</time>
<extensions>
<speed>1.9</speed>
<temp>0.00</temp>
<bpm>0</bpm>
<rpm>0.00</rpm>
</extensions>
</trkpt>
<trkpt lat="32.582191467" lon="35.008018494">
  <ele>149.435608</ele>
  <time>2012-06-23T04:57:11Z</time>
<extensions>
<speed>1.9</speed>
<temp>0.00</temp>
<bpm>0</bpm>
<rpm>0.00</rpm>
</extensions>
</trkpt>
<trkpt lat="32.582221985" lon="35.008029938">
  <ele>150.525452</ele>
  <time>2012-06-23T04:57:13Z</time>
<extensions>
<speed>1.6</speed>
<temp>0.00</temp>
<bpm>0</bpm>
<rpm>0.00</rpm>
</extensions>
</trkpt>
<trkpt lat="32.582248688" lon="35.008052826">
  <ele>150.857483</ele>
  <time>2012-06-23T04:57:15Z</time>
<extensions>
<speed>1.8</speed>
<temp>0.00</temp>
<bpm>0</bpm>
<rpm>0.00</rpm>
</extensions>
</trkpt>
<trkpt lat="32.582298279" lon="35.008083344">
  <ele>151.052795</ele>
  <time>2012-06-23T04:57:18Z</time>
<extensions>
<speed>2.0</speed>
<temp>0.00</temp>
<bpm>0</bpm>
<rpm>0.00</rpm>
</extensions>
</trkpt>
<trkpt lat="32.582321167" lon="35.008117676">
  <ele>151.361389</ele>
  <time>2012-06-23T04:57:20Z</time>
<extensions>
<speed>2.1</speed>
<temp>0.00</temp>
<bpm>0</bpm>
<rpm>0.00</rpm>
</extensions>
</trkpt>
<trkpt lat="32.582344055" lon="35.008148193">
  <ele>151.298889</ele>
  <time>2012-06-23T04:57:22Z</time>
<extensions>
<speed>1.8</speed>
<temp>0.00</temp>
<bpm>0</bpm>
<rpm>0.00</rpm>
</extensions>
</trkpt>
<trkpt lat="32.582370758" lon="35.008178711">
  <ele>151.275452</ele>
  <time>2012-06-23T04:57:24Z</time>
<extensions>
<speed>1.6</speed>
<temp>0.00</temp>
<bpm>0</bpm>
<rpm>0.00</rpm>
</extensions>
</trkpt>
<trkpt lat="32.582378387" lon="35.008209229">
  <ele>150.556702</ele>
  <time>2012-06-23T04:57:26Z</time>
<extensions>
<speed>1.7</speed>
<temp>0.00</temp>
<bpm>0</bpm>
<rpm>0.00</rpm>
</extensions>
</trkpt>
<trkpt lat="32.582397461" lon="35.008247375">
  <ele>151.150452</ele>
  <time>2012-06-23T04:57:28Z</time>
<extensions>
<speed>1.9</speed>
<temp>0.00</temp>
<bpm>0</bpm>
<rpm>0.00</rpm>
</extensions>
</trkpt>
<trkpt lat="32.582405090" lon="35.008277893">
  <ele>152.013733</ele>
  <time>2012-06-23T04:57:30Z</time>
<extensions>
<speed>1.9</speed>
<temp>0.00</temp>
<bpm>0</bpm>
<rpm>0.00</rpm>
</extensions>
</trkpt>
<trkpt lat="32.582420349" lon="35.008319855">
  <ele>152.537170</ele>
  <time>2012-06-23T04:57:32Z</time>
<extensions>
<speed>1.8</speed>
<temp>0.00</temp>
<bpm>0</bpm>
<rpm>0.00</rpm>
</extensions>
</trkpt>
<trkpt lat="32.582435608" lon="35.008358002">
  <ele>152.728577</ele>
  <time>2012-06-23T04:57:35Z</time>
<extensions>
<speed>1.3</speed>
<temp>0.00</temp>
<bpm>0</bpm>
<rpm>0.00</rpm>
</extensions>
</trkpt>
<trkpt lat="32.582443237" lon="35.008399963">
  <ele>152.873108</ele>
  <time>2012-06-23T04:57:38Z</time>
<extensions>
<speed>1.6</speed>
<temp>0.00</temp>
<bpm>0</bpm>
<rpm>0.00</rpm>
</extensions>
</trkpt>
<trkpt lat="32.582458496" lon="35.008438110">
  <ele>152.669983</ele>
  <time>2012-06-23T04:57:40Z</time>
<extensions>
<speed>2.1</speed>
<temp>0.00</temp>
<bpm>0</bpm>
<rpm>0.00</rpm>
</extensions>
</trkpt>
<trkpt lat="32.582473755" lon="35.008483887">
  <ele>152.931702</ele>
  <time>2012-06-23T04:57:42Z</time>
<extensions>
<speed>2.2</speed>
<temp>0.00</temp>
<bpm>0</bpm>
<rpm>0.00</rpm>
</extensions>
</trkpt>
<trkpt lat="32.582496643" lon="35.008518219">
  <ele>153.498108</ele>
  <time>2012-06-23T04:57:44Z</time>
<extensions>
<speed>2.0</speed>
<temp>0.00</temp>
<bpm>0</bpm>
<rpm>0.00</rpm>
</extensions>
</trkpt>
<trkpt lat="32.582527161" lon="35.008548737">
  <ele>153.502014</ele>
  <time>2012-06-23T04:57:46Z</time>
<extensions>
<speed>1.7</speed>
<temp>0.00</temp>
<bpm>0</bpm>
<rpm>0.00</rpm>
</extensions>
</trkpt>
<trkpt lat="32.582557678" lon="35.008571625">
  <ele>153.232483</ele>
  <time>2012-06-23T04:57:48Z</time>
<extensions>
<speed>2.6</speed>
<temp>0.00</temp>
<bpm>0</bpm>
<rpm>0.00</rpm>
</extensions>
</trkpt>
<trkpt lat="32.582599640" lon="35.008609772">
  <ele>153.959045</ele>
  <time>2012-06-23T04:57:50Z</time>
<extensions>
<speed>2.2</speed>
<temp>0.00</temp>
<bpm>0</bpm>
<rpm>0.00</rpm>
</extensions>
</trkpt>
<trkpt lat="32.582618713" lon="35.008647919">
  <ele>154.630920</ele>
  <time>2012-06-23T04:57:52Z</time>
<extensions>
<speed>2.2</speed>
<temp>0.00</temp>
<bpm>0</bpm>
<rpm>0.00</rpm>
</extensions>
</trkpt>
<trkpt lat="32.582641602" lon="35.008674622">
  <ele>154.919983</ele>
  <time>2012-06-23T04:57:54Z</time>
<extensions>
<speed>1.9</speed>
<temp>0.00</temp>
<bpm>0</bpm>
<rpm>0.00</rpm>
</extensions>
</trkpt>
<trkpt lat="32.582668304" lon="35.008701324">
  <ele>155.134827</ele>
  <time>2012-06-23T04:57:56Z</time>
<extensions>
<speed>1.9</speed>
<temp>0.00</temp>
<bpm>0</bpm>
<rpm>0.00</rpm>
</extensions>
</trkpt>
<trkpt lat="32.582687378" lon="35.008731842">
  <ele>155.283264</ele>
  <time>2012-06-23T04:57:58Z</time>
<extensions>
<speed>2.1</speed>
<temp>0.00</temp>
<bpm>0</bpm>
<rpm>0.00</rpm>
</extensions>
</trkpt>
<trkpt lat="32.582710266" lon="35.008762360">
  <ele>155.021545</ele>
  <time>2012-06-23T04:58:00Z</time>
<extensions>
<speed>2.1</speed>
<temp>0.00</temp>
<bpm>0</bpm>
<rpm>0.00</rpm>
</extensions>
</trkpt>
<trkpt lat="32.582740784" lon="35.008789063">
  <ele>155.279358</ele>
  <time>2012-06-23T04:58:02Z</time>
<extensions>
<speed>2.1</speed>
<temp>0.00</temp>
<bpm>0</bpm>
<rpm>0.00</rpm>
</extensions>
</trkpt>
<trkpt lat="32.582771301" lon="35.008823395">
  <ele>156.271545</ele>
  <time>2012-06-23T04:58:04Z</time>
<extensions>
<speed>2.0</speed>
<temp>0.00</temp>
<bpm>0</bpm>
<rpm>0.00</rpm>
</extensions>
</trkpt>
<trkpt lat="32.582801819" lon="35.008853912">
  <ele>156.486389</ele>
  <time>2012-06-23T04:58:06Z</time>
<extensions>
<speed>1.9</speed>
<temp>0.00</temp>
<bpm>0</bpm>
<rpm>0.00</rpm>
</extensions>
</trkpt>
<trkpt lat="32.582809448" lon="35.008895874">
  <ele>156.209045</ele>
  <time>2012-06-23T04:58:08Z</time>
<extensions>
<speed>2.2</speed>
<temp>0.00</temp>
<bpm>0</bpm>
<rpm>0.00</rpm>
</extensions>
</trkpt>
<trkpt lat="32.582820892" lon="35.008937836">
  <ele>156.759827</ele>
  <time>2012-06-23T04:58:10Z</time>
<extensions>
<speed>1.8</speed>
<temp>0.00</temp>
<bpm>0</bpm>
<rpm>0.00</rpm>
</extensions>
</trkpt>
<trkpt lat="32.582828522" lon="35.008979797">
  <ele>156.810608</ele>
  <time>2012-06-23T04:58:12Z</time>
<extensions>
<speed>2.1</speed>
<temp>0.00</temp>
<bpm>0</bpm>
<rpm>0.00</rpm>
</extensions>
</trkpt>
<trkpt lat="32.582832336" lon="35.009017944">
  <ele>156.740295</ele>
  <time>2012-06-23T04:58:14Z</time>
<extensions>
<speed>1.9</speed>
<temp>0.00</temp>
<bpm>0</bpm>
<rpm>0.00</rpm>
</extensions>
</trkpt>
<trkpt lat="32.582836151" lon="35.009056091">
  <ele>157.275452</ele>
  <time>2012-06-23T04:58:16Z</time>
<extensions>
<speed>1.7</speed>
<temp>0.00</temp>
<bpm>0</bpm>
<rpm>0.00</rpm>
</extensions>
</trkpt>
<trkpt lat="32.582859039" lon="35.009105682">
  <ele>157.615295</ele>
  <time>2012-06-23T04:58:18Z</time>
<extensions>
<speed>2.0</speed>
<temp>0.00</temp>
<bpm>0</bpm>
<rpm>0.00</rpm>
</extensions>
</trkpt>
<trkpt lat="32.582859039" lon="35.009147644">
  <ele>157.849670</ele>
  <time>2012-06-23T04:58:20Z</time>
<extensions>
<speed>1.5</speed>
<temp>0.00</temp>
<bpm>0</bpm>
<rpm>0.00</rpm>
</extensions>
</trkpt>
<trkpt lat="32.582866669" lon="35.009181976">
  <ele>158.005920</ele>
  <time>2012-06-23T04:58:22Z</time>
<extensions>
<speed>1.6</speed>
<temp>0.00</temp>
<bpm>0</bpm>
<rpm>0.00</rpm>
</extensions>
</trkpt>
<trkpt lat="32.582878113" lon="35.009216309">
  <ele>159.048889</ele>
  <time>2012-06-23T04:58:24Z</time>
<extensions>
<speed>1.5</speed>
<temp>0.00</temp>
<bpm>0</bpm>
<rpm>0.00</rpm>
</extensions>
</trkpt>
<trkpt lat="32.582885742" lon="35.009258270">
  <ele>159.509827</ele>
  <time>2012-06-23T04:58:26Z</time>
<extensions>
<speed>1.6</speed>
<temp>0.00</temp>
<bpm>0</bpm>
<rpm>0.00</rpm>
</extensions>
</trkpt>
<trkpt lat="32.582881927" lon="35.009300232">
  <ele>160.677795</ele>
  <time>2012-06-23T04:58:29Z</time>
<extensions>
<speed>1.4</speed>
<temp>0.00</temp>
<bpm>0</bpm>
<rpm>0.00</rpm>
</extensions>
</trkpt>
<trkpt lat="32.582897186" lon="35.009342194">
  <ele>162.103577</ele>
  <time>2012-06-23T04:58:32Z</time>
<extensions>
<speed>1.5</speed>
<temp>0.00</temp>
<bpm>0</bpm>
<rpm>0.00</rpm>
</extensions>
</trkpt>
<trkpt lat="32.582916260" lon="35.009380341">
  <ele>162.216858</ele>
  <time>2012-06-23T04:58:34Z</time>
<extensions>
<speed>1.4</speed>
<temp>0.00</temp>
<bpm>0</bpm>
<rpm>0.00</rpm>
</extensions>
</trkpt>
<trkpt lat="32.582931519" lon="35.009418488">
  <ele>162.095764</ele>
  <time>2012-06-23T04:58:37Z</time>
<extensions>
<speed>1.8</speed>
<temp>0.00</temp>
<bpm>0</bpm>
<rpm>0.00</rpm>
</extensions>
</trkpt>
<trkpt lat="32.582958221" lon="35.009452820">
  <ele>162.115295</ele>
  <time>2012-06-23T04:58:39Z</time>
<extensions>
<speed>1.9</speed>
<temp>0.00</temp>
<bpm>0</bpm>
<rpm>0.00</rpm>
</extensions>
</trkpt>
<trkpt lat="32.582988739" lon="35.009483337">
  <ele>161.830139</ele>
  <time>2012-06-23T04:58:41Z</time>
<extensions>
<speed>1.9</speed>
<temp>0.00</temp>
<bpm>0</bpm>
<rpm>0.00</rpm>
</extensions>
</trkpt>
<trkpt lat="32.583015442" lon="35.009517670">
  <ele>161.959045</ele>
  <time>2012-06-23T04:58:43Z</time>
<extensions>
<speed>1.9</speed>
<temp>0.00</temp>
<bpm>0</bpm>
<rpm>0.00</rpm>
</extensions>
</trkpt>
<trkpt lat="32.583045959" lon="35.009544373">
  <ele>161.267639</ele>
  <time>2012-06-23T04:58:45Z</time>
<extensions>
<speed>2.0</speed>
<temp>0.00</temp>
<bpm>0</bpm>
<rpm>0.00</rpm>
</extensions>
</trkpt>
<trkpt lat="32.583068848" lon="35.009574890">
  <ele>161.048889</ele>
  <time>2012-06-23T04:58:47Z</time>
<extensions>
<speed>1.7</speed>
<temp>0.00</temp>
<bpm>0</bpm>
<rpm>0.00</rpm>
</extensions>
</trkpt>
<trkpt lat="32.583087921" lon="35.009605408">
  <ele>160.591858</ele>
  <time>2012-06-23T04:58:49Z</time>
<extensions>
<speed>1.5</speed>
<temp>0.00</temp>
<bpm>0</bpm>
<rpm>0.00</rpm>
</extensions>
</trkpt>
<trkpt lat="32.583114624" lon="35.009628296">
  <ele>160.599670</ele>
  <time>2012-06-23T04:58:52Z</time>
<extensions>
<speed>1.4</speed>
<temp>0.00</temp>
<bpm>0</bpm>
<rpm>0.00</rpm>
</extensions>
</trkpt>
<trkpt lat="32.583126068" lon="35.009674072">
  <ele>161.361389</ele>
  <time>2012-06-23T04:58:55Z</time>
<extensions>
<speed>1.8</speed>
<temp>0.00</temp>
<bpm>0</bpm>
<rpm>0.00</rpm>
</extensions>
</trkpt>
<trkpt lat="32.583141327" lon="35.009712219">
  <ele>161.205139</ele>
  <time>2012-06-23T04:58:57Z</time>
<extensions>
<speed>1.9</speed>
<temp>0.00</temp>
<bpm>0</bpm>
<rpm>0.00</rpm>
</extensions>
</trkpt>
<trkpt lat="32.583164215" lon="35.009750366">
  <ele>161.627014</ele>
  <time>2012-06-23T04:58:59Z</time>
<extensions>
<speed>1.7</speed>
<temp>0.00</temp>
<bpm>0</bpm>
<rpm>0.00</rpm>
</extensions>
</trkpt>
<trkpt lat="32.583190918" lon="35.009773254">
  <ele>161.044983</ele>
  <time>2012-06-23T04:59:01Z</time>
<extensions>
<speed>1.9</speed>
<temp>0.00</temp>
<bpm>0</bpm>
<rpm>0.00</rpm>
</extensions>
</trkpt>
<trkpt lat="32.583209991" lon="35.009815216">
  <ele>161.345764</ele>
  <time>2012-06-23T04:59:03Z</time>
<extensions>
<speed>1.8</speed>
<temp>0.00</temp>
<bpm>0</bpm>
<rpm>0.00</rpm>
</extensions>
</trkpt>
<trkpt lat="32.583232880" lon="35.009853363">
  <ele>161.845764</ele>
  <time>2012-06-23T04:59:05Z</time>
<extensions>
<speed>2.0</speed>
<temp>0.00</temp>
<bpm>0</bpm>
<rpm>0.00</rpm>
</extensions>
</trkpt>
<trkpt lat="32.583251953" lon="35.009883881">
  <ele>162.025452</ele>
  <time>2012-06-23T04:59:07Z</time>
<extensions>
<speed>2.1</speed>
<temp>0.00</temp>
<bpm>0</bpm>
<rpm>0.00</rpm>
</extensions>
</trkpt>
<trkpt lat="32.583271027" lon="35.009914398">
  <ele>161.959045</ele>
  <time>2012-06-23T04:59:09Z</time>
<extensions>
<speed>1.9</speed>
<temp>0.00</temp>
<bpm>0</bpm>
<rpm>0.00</rpm>
</extensions>
</trkpt>
<trkpt lat="32.583286285" lon="35.009944916">
  <ele>162.119202</ele>
  <time>2012-06-23T04:59:11Z</time>
<extensions>
<speed>1.8</speed>
<temp>0.00</temp>
<bpm>0</bpm>
<rpm>0.00</rpm>
</extensions>
</trkpt>
<trkpt lat="32.583305359" lon="35.009975433">
  <ele>162.076233</ele>
  <time>2012-06-23T04:59:13Z</time>
<extensions>
<speed>1.7</speed>
<temp>0.00</temp>
<bpm>0</bpm>
<rpm>0.00</rpm>
</extensions>
</trkpt>
<trkpt lat="32.583312988" lon="35.010017395">
  <ele>162.111389</ele>
  <time>2012-06-23T04:59:15Z</time>
<extensions>
<speed>1.8</speed>
<temp>0.00</temp>
<bpm>0</bpm>
<rpm>0.00</rpm>
</extensions>
</trkpt>
<trkpt lat="32.583324432" lon="35.010047913">
  <ele>162.068420</ele>
  <time>2012-06-23T04:59:17Z</time>
<extensions>
<speed>1.9</speed>
<temp>0.00</temp>
<bpm>0</bpm>
<rpm>0.00</rpm>
</extensions>
</trkpt>
<trkpt lat="32.583328247" lon="35.010093689">
  <ele>162.740295</ele>
  <time>2012-06-23T04:59:19Z</time>
<extensions>
<speed>2.0</speed>
<temp>0.00</temp>
<bpm>0</bpm>
<rpm>0.00</rpm>
</extensions>
</trkpt>
<trkpt lat="32.583332062" lon="35.010139465">
  <ele>163.130920</ele>
  <time>2012-06-23T04:59:21Z</time>
<extensions>
<speed>2.0</speed>
<temp>0.00</temp>
<bpm>0</bpm>
<rpm>0.00</rpm>
</extensions>
</trkpt>
<trkpt lat="32.583343506" lon="35.010181427">
  <ele>163.712952</ele>
  <time>2012-06-23T04:59:23Z</time>
<extensions>
<speed>1.8</speed>
<temp>0.00</temp>
<bpm>0</bpm>
<rpm>0.00</rpm>
</extensions>
</trkpt>
<trkpt lat="32.583354950" lon="35.010211945">
  <ele>164.806702</ele>
  <time>2012-06-23T04:59:25Z</time>
<extensions>
<speed>1.7</speed>
<temp>0.00</temp>
<bpm>0</bpm>
<rpm>0.00</rpm>
</extensions>
</trkpt>
<trkpt lat="32.583377838" lon="35.010253906">
  <ele>166.209045</ele>
  <time>2012-06-23T04:59:28Z</time>
<extensions>
<speed>1.9</speed>
<temp>0.00</temp>
<bpm>0</bpm>
<rpm>0.00</rpm>
</extensions>
</trkpt>
<trkpt lat="32.583408356" lon="35.010292053">
  <ele>167.033264</ele>
  <time>2012-06-23T04:59:30Z</time>
<extensions>
<speed>2.0</speed>
<temp>0.00</temp>
<bpm>0</bpm>
<rpm>0.00</rpm>
</extensions>
</trkpt>
<trkpt lat="32.583435059" lon="35.010326385">
  <ele>167.478577</ele>
  <time>2012-06-23T04:59:32Z</time>
<extensions>
<speed>1.8</speed>
<temp>0.00</temp>
<bpm>0</bpm>
<rpm>0.00</rpm>
</extensions>
</trkpt>
<trkpt lat="32.583461761" lon="35.010353088">
  <ele>167.869202</ele>
  <time>2012-06-23T04:59:34Z</time>
<extensions>
<speed>2.1</speed>
<temp>0.00</temp>
<bpm>0</bpm>
<rpm>0.00</rpm>
</extensions>
</trkpt>
<trkpt lat="32.583488464" lon="35.010387421">
  <ele>168.166077</ele>
  <time>2012-06-23T04:59:36Z</time>
<extensions>
<speed>2.0</speed>
<temp>0.00</temp>
<bpm>0</bpm>
<rpm>0.00</rpm>
</extensions>
</trkpt>
<trkpt lat="32.583515167" lon="35.010417938">
  <ele>168.216858</ele>
  <time>2012-06-23T04:59:38Z</time>
<extensions>
<speed>2.1</speed>
<temp>0.00</temp>
<bpm>0</bpm>
<rpm>0.00</rpm>
</extensions>
</trkpt>
<trkpt lat="32.583541870" lon="35.010456085">
  <ele>169.025452</ele>
  <time>2012-06-23T04:59:40Z</time>
<extensions>
<speed>2.0</speed>
<temp>0.00</temp>
<bpm>0</bpm>
<rpm>0.00</rpm>
</extensions>
</trkpt>
<trkpt lat="32.583568573" lon="35.010490417">
  <ele>169.314514</ele>
  <time>2012-06-23T04:59:42Z</time>
<extensions>
<speed>2.2</speed>
<temp>0.00</temp>
<bpm>0</bpm>
<rpm>0.00</rpm>
</extensions>
</trkpt>
<trkpt lat="32.583606720" lon="35.010520935">
  <ele>169.334045</ele>
  <time>2012-06-23T04:59:44Z</time>
<extensions>
<speed>2.4</speed>
<temp>0.00</temp>
<bpm>0</bpm>
<rpm>0.00</rpm>
</extensions>
</trkpt>
<trkpt lat="32.583629608" lon="35.010555267">
  <ele>169.709045</ele>
  <time>2012-06-23T04:59:46Z</time>
<extensions>
<speed>2.1</speed>
<temp>0.00</temp>
<bpm>0</bpm>
<rpm>0.00</rpm>
</extensions>
</trkpt>
<trkpt lat="32.583648682" lon="35.010581970">
  <ele>170.263733</ele>
  <time>2012-06-23T04:59:48Z</time>
<extensions>
<speed>2.0</speed>
<temp>0.00</temp>
<bpm>0</bpm>
<rpm>0.00</rpm>
</extensions>
</trkpt>
<trkpt lat="32.583694458" lon="35.010604858">
  <ele>169.896545</ele>
  <time>2012-06-23T04:59:50Z</time>
<extensions>
<speed>2.8</speed>
<temp>0.00</temp>
<bpm>0</bpm>
<rpm>0.00</rpm>
</extensions>
</trkpt>
<trkpt lat="32.583717346" lon="35.010631561">
  <ele>169.576233</ele>
  <time>2012-06-23T04:59:51Z</time>
<extensions>
<speed>2.3</speed>
<temp>0.00</temp>
<bpm>0</bpm>
<rpm>0.00</rpm>
</extensions>
</trkpt>
<trkpt lat="32.583740234" lon="35.010669708">
  <ele>169.884827</ele>
  <time>2012-06-23T04:59:53Z</time>
<extensions>
<speed>2.4</speed>
<temp>0.00</temp>
<bpm>0</bpm>
<rpm>0.00</rpm>
</extensions>
</trkpt>
<trkpt lat="32.583759308" lon="35.010719299">
  <ele>170.427795</ele>
  <time>2012-06-23T04:59:55Z</time>
<extensions>
<speed>2.2</speed>
<temp>0.00</temp>
<bpm>0</bpm>
<rpm>0.00</rpm>
</extensions>
</trkpt>
<trkpt lat="32.583782196" lon="35.010761261">
  <ele>171.064514</ele>
  <time>2012-06-23T04:59:57Z</time>
<extensions>
<speed>2.2</speed>
<temp>0.00</temp>
<bpm>0</bpm>
<rpm>0.00</rpm>
</extensions>
</trkpt>
<trkpt lat="32.583786011" lon="35.010807037">
  <ele>171.666077</ele>
  <time>2012-06-23T04:59:59Z</time>
<extensions>
<speed>2.2</speed>
<temp>0.00</temp>
<bpm>0</bpm>
<rpm>0.00</rpm>
</extensions>
</trkpt>
<trkpt lat="32.583793640" lon="35.010852814">
  <ele>172.720764</ele>
  <time>2012-06-23T05:00:01Z</time>
<extensions>
<speed>2.2</speed>
<temp>0.00</temp>
<bpm>0</bpm>
<rpm>0.00</rpm>
</extensions>
</trkpt>
<trkpt lat="32.583801270" lon="35.010898590">
  <ele>174.103577</ele>
  <time>2012-06-23T05:00:03Z</time>
<extensions>
<speed>2.1</speed>
<temp>0.00</temp>
<bpm>0</bpm>
<rpm>0.00</rpm>
</extensions>
</trkpt>
<trkpt lat="32.583816528" lon="35.010944366">
  <ele>174.834045</ele>
  <time>2012-06-23T05:00:05Z</time>
<extensions>
<speed>2.2</speed>
<temp>0.00</temp>
<bpm>0</bpm>
<rpm>0.00</rpm>
</extensions>
</trkpt>
<trkpt lat="32.583816528" lon="35.010993958">
  <ele>174.435608</ele>
  <time>2012-06-23T05:00:07Z</time>
<extensions>
<speed>2.3</speed>
<temp>0.00</temp>
<bpm>0</bpm>
<rpm>0.00</rpm>
</extensions>
</trkpt>
<trkpt lat="32.583820343" lon="35.011039734">
  <ele>175.541077</ele>
  <time>2012-06-23T05:00:09Z</time>
<extensions>
<speed>2.1</speed>
<temp>0.00</temp>
<bpm>0</bpm>
<rpm>0.00</rpm>
</extensions>
</trkpt>
<trkpt lat="32.583816528" lon="35.011085510">
  <ele>175.927795</ele>
  <time>2012-06-23T05:00:11Z</time>
<extensions>
<speed>2.3</speed>
<temp>0.00</temp>
<bpm>0</bpm>
<rpm>0.00</rpm>
</extensions>
</trkpt>
<trkpt lat="32.583816528" lon="35.011135101">
  <ele>176.150452</ele>
  <time>2012-06-23T05:00:13Z</time>
<extensions>
<speed>2.3</speed>
<temp>0.00</temp>
<bpm>0</bpm>
<rpm>0.00</rpm>
</extensions>
</trkpt>
<trkpt lat="32.583820343" lon="35.011184692">
  <ele>177.400452</ele>
  <time>2012-06-23T05:00:15Z</time>
<extensions>
<speed>2.2</speed>
<temp>0.00</temp>
<bpm>0</bpm>
<rpm>0.00</rpm>
</extensions>
</trkpt>
<trkpt lat="32.583827972" lon="35.011234283">
  <ele>177.412170</ele>
  <time>2012-06-23T05:00:17Z</time>
<extensions>
<speed>2.1</speed>
<temp>0.00</temp>
<bpm>0</bpm>
<rpm>0.00</rpm>
</extensions>
</trkpt>
<trkpt lat="32.583824158" lon="35.011272430">
  <ele>178.123108</ele>
  <time>2012-06-23T05:00:19Z</time>
<extensions>
<speed>2.1</speed>
<temp>0.00</temp>
<bpm>0</bpm>
<rpm>0.00</rpm>
</extensions>
</trkpt>
<trkpt lat="32.583824158" lon="35.011310577">
  <ele>178.552795</ele>
  <time>2012-06-23T05:00:21Z</time>
<extensions>
<speed>1.9</speed>
<temp>0.00</temp>
<bpm>0</bpm>
<rpm>0.00</rpm>
</extensions>
</trkpt>
<trkpt lat="32.583812714" lon="35.011341095">
  <ele>178.396545</ele>
  <time>2012-06-23T05:00:23Z</time>
<extensions>
<speed>1.8</speed>
<temp>0.00</temp>
<bpm>0</bpm>
<rpm>0.00</rpm>
</extensions>
</trkpt>
<trkpt lat="32.583805084" lon="35.011379242">
  <ele>179.029358</ele>
  <time>2012-06-23T05:00:25Z</time>
<extensions>
<speed>1.8</speed>
<temp>0.00</temp>
<bpm>0</bpm>
<rpm>0.00</rpm>
</extensions>
</trkpt>
<trkpt lat="32.583782196" lon="35.011409760">
  <ele>178.845764</ele>
  <time>2012-06-23T05:00:27Z</time>
<extensions>
<speed>1.6</speed>
<temp>0.00</temp>
<bpm>0</bpm>
<rpm>0.00</rpm>
</extensions>
</trkpt>
<trkpt lat="32.583770752" lon="35.011440277">
  <ele>178.552795</ele>
  <time>2012-06-23T05:00:29Z</time>
<extensions>
<speed>1.7</speed>
<temp>0.00</temp>
<bpm>0</bpm>
<rpm>0.00</rpm>
</extensions>
</trkpt>
<trkpt lat="32.583763123" lon="35.011474609">
  <ele>179.025452</ele>
  <time>2012-06-23T05:00:31Z</time>
<extensions>
<speed>1.5</speed>
<temp>0.00</temp>
<bpm>0</bpm>
<rpm>0.00</rpm>
</extensions>
</trkpt>
<trkpt lat="32.583751678" lon="35.011505127">
  <ele>179.392639</ele>
  <time>2012-06-23T05:00:33Z</time>
<extensions>
<speed>1.6</speed>
<temp>0.00</temp>
<bpm>0</bpm>
<rpm>0.00</rpm>
</extensions>
</trkpt>
<trkpt lat="32.583744049" lon="35.011543274">
  <ele>179.052795</ele>
  <time>2012-06-23T05:00:35Z</time>
<extensions>
<speed>1.7</speed>
<temp>0.00</temp>
<bpm>0</bpm>
<rpm>0.00</rpm>
</extensions>
</trkpt>
<trkpt lat="32.583724976" lon="35.011577606">
  <ele>179.705139</ele>
  <time>2012-06-23T05:00:37Z</time>
<extensions>
<speed>1.8</speed>
<temp>0.00</temp>
<bpm>0</bpm>
<rpm>0.00</rpm>
</extensions>
</trkpt>
<trkpt lat="32.583709717" lon="35.011619568">
  <ele>180.466858</ele>
  <time>2012-06-23T05:00:39Z</time>
<extensions>
<speed>1.8</speed>
<temp>0.00</temp>
<bpm>0</bpm>
<rpm>0.00</rpm>
</extensions>
</trkpt>
<trkpt lat="32.583698273" lon="35.011657715">
  <ele>180.255920</ele>
  <time>2012-06-23T05:00:41Z</time>
<extensions>
<speed>1.7</speed>
<temp>0.00</temp>
<bpm>0</bpm>
<rpm>0.00</rpm>
</extensions>
</trkpt>
<trkpt lat="32.583686829" lon="35.011692047">
  <ele>180.197327</ele>
  <time>2012-06-23T05:00:43Z</time>
<extensions>
<speed>1.6</speed>
<temp>0.00</temp>
<bpm>0</bpm>
<rpm>0.00</rpm>
</extensions>
</trkpt>
<trkpt lat="32.583679199" lon="35.011730194">
  <ele>180.791077</ele>
  <time>2012-06-23T05:00:45Z</time>
<extensions>
<speed>1.9</speed>
<temp>0.00</temp>
<bpm>0</bpm>
<rpm>0.00</rpm>
</extensions>
</trkpt>
<trkpt lat="32.583683014" lon="35.011775970">
  <ele>181.334045</ele>
  <time>2012-06-23T05:00:47Z</time>
<extensions>
<speed>1.9</speed>
<temp>0.00</temp>
<bpm>0</bpm>
<rpm>0.00</rpm>
</extensions>
</trkpt>
<trkpt lat="32.583671570" lon="35.011817932">
  <ele>182.013733</ele>
  <time>2012-06-23T05:00:49Z</time>
<extensions>
<speed>2.2</speed>
<temp>0.00</temp>
<bpm>0</bpm>
<rpm>0.00</rpm>
</extensions>
</trkpt>
<trkpt lat="32.583671570" lon="35.011859894">
  <ele>182.439514</ele>
  <time>2012-06-23T05:00:51Z</time>
<extensions>
<speed>1.8</speed>
<temp>0.00</temp>
<bpm>0</bpm>
<rpm>0.00</rpm>
</extensions>
</trkpt>
<trkpt lat="32.583667755" lon="35.011894226">
  <ele>182.580139</ele>
  <time>2012-06-23T05:00:53Z</time>
<extensions>
<speed>1.7</speed>
<temp>0.00</temp>
<bpm>0</bpm>
<rpm>0.00</rpm>
</extensions>
</trkpt>
<trkpt lat="32.583660126" lon="35.011928558">
  <ele>182.849670</ele>
  <time>2012-06-23T05:00:55Z</time>
<extensions>
<speed>1.4</speed>
<temp>0.00</temp>
<bpm>0</bpm>
<rpm>0.00</rpm>
</extensions>
</trkpt>
<trkpt lat="32.583637238" lon="35.011966705">
  <ele>182.587952</ele>
  <time>2012-06-23T05:00:58Z</time>
<extensions>
<speed>1.4</speed>
<temp>0.00</temp>
<bpm>0</bpm>
<rpm>0.00</rpm>
</extensions>
</trkpt>
<trkpt lat="32.583629608" lon="35.011997223">
  <ele>182.439514</ele>
  <time>2012-06-23T05:01:00Z</time>
<extensions>
<speed>1.7</speed>
<temp>0.00</temp>
<bpm>0</bpm>
<rpm>0.00</rpm>
</extensions>
</trkpt>
<trkpt lat="32.583606720" lon="35.012031555">
  <ele>182.263733</ele>
  <time>2012-06-23T05:01:03Z</time>
<extensions>
<speed>1.6</speed>
<temp>0.00</temp>
<bpm>0</bpm>
<rpm>0.00</rpm>
</extensions>
</trkpt>
<trkpt lat="32.583583832" lon="35.012054443">
  <ele>181.923889</ele>
  <time>2012-06-23T05:01:05Z</time>
<extensions>
<speed>1.5</speed>
<temp>0.00</temp>
<bpm>0</bpm>
<rpm>0.00</rpm>
</extensions>
</trkpt>
<trkpt lat="32.583557129" lon="35.012088776">
  <ele>181.412170</ele>
  <time>2012-06-23T05:01:08Z</time>
<extensions>
<speed>1.7</speed>
<temp>0.00</temp>
<bpm>0</bpm>
<rpm>0.00</rpm>
</extensions>
</trkpt>
<trkpt lat="32.583522797" lon="35.012130737">
  <ele>181.427795</ele>
  <time>2012-06-23T05:01:11Z</time>
<extensions>
<speed>1.6</speed>
<temp>0.00</temp>
<bpm>0</bpm>
<rpm>0.00</rpm>
</extensions>
</trkpt>
<trkpt lat="32.583511353" lon="35.012176514">
  <ele>181.880920</ele>
  <time>2012-06-23T05:01:14Z</time>
<extensions>
<speed>1.5</speed>
<temp>0.00</temp>
<bpm>0</bpm>
<rpm>0.00</rpm>
</extensions>
</trkpt>
<trkpt lat="32.583499908" lon="35.012210846">
  <ele>182.236389</ele>
  <time>2012-06-23T05:01:16Z</time>
<extensions>
<speed>1.5</speed>
<temp>0.00</temp>
<bpm>0</bpm>
<rpm>0.00</rpm>
</extensions>
</trkpt>
<trkpt lat="32.583496094" lon="35.012248993">
  <ele>182.080139</ele>
  <time>2012-06-23T05:01:18Z</time>
<extensions>
<speed>1.8</speed>
<temp>0.00</temp>
<bpm>0</bpm>
<rpm>0.00</rpm>
</extensions>
</trkpt>
<trkpt lat="32.583492279" lon="35.012298584">
  <ele>182.505920</ele>
  <time>2012-06-23T05:01:20Z</time>
<extensions>
<speed>1.7</speed>
<temp>0.00</temp>
<bpm>0</bpm>
<rpm>0.00</rpm>
</extensions>
</trkpt>
<trkpt lat="32.583496094" lon="35.012355804">
  <ele>183.443420</ele>
  <time>2012-06-23T05:01:22Z</time>
<extensions>
<speed>1.8</speed>
<temp>0.00</temp>
<bpm>0</bpm>
<rpm>0.00</rpm>
</extensions>
</trkpt>
<trkpt lat="32.583496094" lon="35.012393951">
  <ele>183.568420</ele>
  <time>2012-06-23T05:01:24Z</time>
<extensions>
<speed>1.8</speed>
<temp>0.00</temp>
<bpm>0</bpm>
<rpm>0.00</rpm>
</extensions>
</trkpt>
<trkpt lat="32.583499908" lon="35.012439728">
  <ele>183.513733</ele>
  <time>2012-06-23T05:01:26Z</time>
<extensions>
<speed>2.1</speed>
<temp>0.00</temp>
<bpm>0</bpm>
<rpm>0.00</rpm>
</extensions>
</trkpt>
<trkpt lat="32.583507538" lon="35.012474060">
  <ele>183.759827</ele>
  <time>2012-06-23T05:01:27Z</time>
<extensions>
<speed>2.1</speed>
<temp>0.00</temp>
<bpm>0</bpm>
<rpm>0.00</rpm>
</extensions>
</trkpt>
<trkpt lat="32.583534241" lon="35.012504578">
  <ele>184.130920</ele>
  <time>2012-06-23T05:01:29Z</time>
<extensions>
<speed>2.4</speed>
<temp>0.00</temp>
<bpm>0</bpm>
<rpm>0.00</rpm>
</extensions>
</trkpt>
<trkpt lat="32.583560944" lon="35.012569427">
  <ele>184.193420</ele>
  <time>2012-06-23T05:01:31Z</time>
<extensions>
<speed>3.1</speed>
<temp>0.00</temp>
<bpm>0</bpm>
<rpm>0.00</rpm>
</extensions>
</trkpt>
<trkpt lat="32.583576202" lon="35.012603760">
  <ele>183.818420</ele>
  <time>2012-06-23T05:01:32Z</time>
<extensions>
<speed>3.3</speed>
<temp>0.00</temp>
<bpm>0</bpm>
<rpm>0.00</rpm>
</extensions>
</trkpt>
<trkpt lat="32.583587646" lon="35.012638092">
  <ele>183.802795</ele>
  <time>2012-06-23T05:01:33Z</time>
<extensions>
<speed>3.6</speed>
<temp>0.00</temp>
<bpm>0</bpm>
<rpm>0.00</rpm>
</extensions>
</trkpt>
<trkpt lat="32.583602905" lon="35.012676239">
  <ele>183.912170</ele>
  <time>2012-06-23T05:01:34Z</time>
<extensions>
<speed>3.5</speed>
<temp>0.00</temp>
<bpm>0</bpm>
<rpm>0.00</rpm>
</extensions>
</trkpt>
<trkpt lat="32.583614349" lon="35.012710571">
  <ele>184.380920</ele>
  <time>2012-06-23T05:01:35Z</time>
<extensions>
<speed>3.4</speed>
<temp>0.00</temp>
<bpm>0</bpm>
<rpm>0.00</rpm>
</extensions>
</trkpt>
<trkpt lat="32.583614349" lon="35.012744904">
  <ele>184.486389</ele>
  <time>2012-06-23T05:01:36Z</time>
<extensions>
<speed>3.2</speed>
<temp>0.00</temp>
<bpm>0</bpm>
<rpm>0.00</rpm>
</extensions>
</trkpt>
<trkpt lat="32.583618164" lon="35.012779236">
  <ele>184.548889</ele>
  <time>2012-06-23T05:01:37Z</time>
<extensions>
<speed>3.1</speed>
<temp>0.00</temp>
<bpm>0</bpm>
<rpm>0.00</rpm>
</extensions>
</trkpt>
<trkpt lat="32.583625793" lon="35.012813568">
  <ele>184.689514</ele>
  <time>2012-06-23T05:01:38Z</time>
<extensions>
<speed>2.9</speed>
<temp>0.00</temp>
<bpm>0</bpm>
<rpm>0.00</rpm>
</extensions>
</trkpt>
<trkpt lat="32.583641052" lon="35.012878418">
  <ele>184.740295</ele>
  <time>2012-06-23T05:01:40Z</time>
<extensions>
<speed>2.9</speed>
<temp>0.00</temp>
<bpm>0</bpm>
<rpm>0.00</rpm>
</extensions>
</trkpt>
<trkpt lat="32.583652496" lon="35.012943268">
  <ele>184.900452</ele>
  <time>2012-06-23T05:01:42Z</time>
<extensions>
<speed>2.7</speed>
<temp>0.00</temp>
<bpm>0</bpm>
<rpm>0.00</rpm>
</extensions>
</trkpt>
<trkpt lat="32.583660126" lon="35.012977600">
  <ele>185.228577</ele>
  <time>2012-06-23T05:01:43Z</time>
<extensions>
<speed>3.1</speed>
<temp>0.00</temp>
<bpm>0</bpm>
<rpm>0.00</rpm>
</extensions>
</trkpt>
<trkpt lat="32.583667755" lon="35.013011932">
  <ele>185.080139</ele>
  <time>2012-06-23T05:01:44Z</time>
<extensions>
<speed>3.3</speed>
<temp>0.00</temp>
<bpm>0</bpm>
<rpm>0.00</rpm>
</extensions>
</trkpt>
<trkpt lat="32.583679199" lon="35.013046265">
  <ele>185.505920</ele>
  <time>2012-06-23T05:01:45Z</time>
<extensions>
<speed>3.4</speed>
<temp>0.00</temp>
<bpm>0</bpm>
<rpm>0.00</rpm>
</extensions>
</trkpt>
<trkpt lat="32.583690643" lon="35.013088226">
  <ele>185.798889</ele>
  <time>2012-06-23T05:01:46Z</time>
<extensions>
<speed>3.5</speed>
<temp>0.00</temp>
<bpm>0</bpm>
<rpm>0.00</rpm>
</extensions>
</trkpt>
<trkpt lat="32.583698273" lon="35.013122559">
  <ele>185.884827</ele>
  <time>2012-06-23T05:01:47Z</time>
<extensions>
<speed>3.4</speed>
<temp>0.00</temp>
<bpm>0</bpm>
<rpm>0.00</rpm>
</extensions>
</trkpt>
<trkpt lat="32.583705902" lon="35.013156891">
  <ele>186.021545</ele>
  <time>2012-06-23T05:01:48Z</time>
<extensions>
<speed>3.2</speed>
<temp>0.00</temp>
<bpm>0</bpm>
<rpm>0.00</rpm>
</extensions>
</trkpt>
<trkpt lat="32.583717346" lon="35.013191223">
  <ele>186.310608</ele>
  <time>2012-06-23T05:01:49Z</time>
<extensions>
<speed>3.5</speed>
<temp>0.00</temp>
<bpm>0</bpm>
<rpm>0.00</rpm>
</extensions>
</trkpt>
<trkpt lat="32.583728790" lon="35.013221741">
  <ele>186.361389</ele>
  <time>2012-06-23T05:01:50Z</time>
<extensions>
<speed>3.1</speed>
<temp>0.00</temp>
<bpm>0</bpm>
<rpm>0.00</rpm>
</extensions>
</trkpt>
<trkpt lat="32.583751678" lon="35.013259888">
  <ele>186.041077</ele>
  <time>2012-06-23T05:01:52Z</time>
<extensions>
<speed>2.3</speed>
<temp>0.00</temp>
<bpm>0</bpm>
<rpm>0.00</rpm>
</extensions>
</trkpt>
<trkpt lat="32.583778381" lon="35.013294220">
  <ele>186.173889</ele>
  <time>2012-06-23T05:01:54Z</time>
<extensions>
<speed>1.9</speed>
<temp>0.00</temp>
<bpm>0</bpm>
<rpm>0.00</rpm>
</extensions>
</trkpt>
<trkpt lat="32.583808899" lon="35.013324738">
  <ele>186.873108</ele>
  <time>2012-06-23T05:01:56Z</time>
<extensions>
<speed>2.2</speed>
<temp>0.00</temp>
<bpm>0</bpm>
<rpm>0.00</rpm>
</extensions>
</trkpt>
<trkpt lat="32.583847046" lon="35.013336182">
  <ele>186.771545</ele>
  <time>2012-06-23T05:01:58Z</time>
<extensions>
<speed>1.9</speed>
<temp>0.00</temp>
<bpm>0</bpm>
<rpm>0.00</rpm>
</extensions>
</trkpt>
<trkpt lat="32.583889008" lon="35.013332367">
  <ele>186.599670</ele>
  <time>2012-06-23T05:02:00Z</time>
<extensions>
<speed>2.4</speed>
<temp>0.00</temp>
<bpm>0</bpm>
<rpm>0.00</rpm>
</extensions>
</trkpt>
<trkpt lat="32.583934784" lon="35.013320923">
  <ele>185.830139</ele>
  <time>2012-06-23T05:02:02Z</time>
<extensions>
<speed>2.6</speed>
<temp>0.00</temp>
<bpm>0</bpm>
<rpm>0.00</rpm>
</extensions>
</trkpt>
<trkpt lat="32.583961487" lon="35.013317108">
  <ele>187.060608</ele>
  <time>2012-06-23T05:02:03Z</time>
<extensions>
<speed>2.6</speed>
<temp>0.00</temp>
<bpm>0</bpm>
<rpm>0.00</rpm>
</extensions>
</trkpt>
<trkpt lat="32.584011078" lon="35.013305664">
  <ele>186.408264</ele>
  <time>2012-06-23T05:02:05Z</time>
<extensions>
<speed>2.9</speed>
<temp>0.00</temp>
<bpm>0</bpm>
<rpm>0.00</rpm>
</extensions>
</trkpt>
<trkpt lat="32.584045410" lon="35.013294220">
  <ele>185.728577</ele>
  <time>2012-06-23T05:02:06Z</time>
<extensions>
<speed>2.8</speed>
<temp>0.00</temp>
<bpm>0</bpm>
<rpm>0.00</rpm>
</extensions>
</trkpt>
<trkpt lat="32.584083557" lon="35.013282776">
  <ele>185.752014</ele>
  <time>2012-06-23T05:02:07Z</time>
<extensions>
<speed>2.9</speed>
<temp>0.00</temp>
<bpm>0</bpm>
<rpm>0.00</rpm>
</extensions>
</trkpt>
<trkpt lat="32.584114075" lon="35.013271332">
  <ele>185.435608</ele>
  <time>2012-06-23T05:02:08Z</time>
<extensions>
<speed>2.4</speed>
<temp>0.00</temp>
<bpm>0</bpm>
<rpm>0.00</rpm>
</extensions>
</trkpt>
<trkpt lat="32.584144592" lon="35.013256073">
  <ele>185.533264</ele>
  <time>2012-06-23T05:02:09Z</time>
<extensions>
<speed>2.5</speed>
<temp>0.00</temp>
<bpm>0</bpm>
<rpm>0.00</rpm>
</extensions>
</trkpt>
<trkpt lat="32.584171295" lon="35.013252258">
  <ele>185.685608</ele>
  <time>2012-06-23T05:02:10Z</time>
<extensions>
<speed>2.8</speed>
<temp>0.00</temp>
<bpm>0</bpm>
<rpm>0.00</rpm>
</extensions>
</trkpt>
<trkpt lat="32.584197998" lon="35.013240814">
  <ele>185.759827</ele>
  <time>2012-06-23T05:02:11Z</time>
<extensions>
<speed>3.3</speed>
<temp>0.00</temp>
<bpm>0</bpm>
<rpm>0.00</rpm>
</extensions>
</trkpt>
<trkpt lat="32.584239960" lon="35.013229370">
  <ele>186.755920</ele>
  <time>2012-06-23T05:02:12Z</time>
<extensions>
<speed>3.5</speed>
<temp>0.00</temp>
<bpm>0</bpm>
<rpm>0.00</rpm>
</extensions>
</trkpt>
<trkpt lat="32.584274292" lon="35.013225555">
  <ele>187.365295</ele>
  <time>2012-06-23T05:02:13Z</time>
<extensions>
<speed>2.9</speed>
<temp>0.00</temp>
<bpm>0</bpm>
<rpm>0.00</rpm>
</extensions>
</trkpt>
<trkpt lat="32.584320068" lon="35.013214111">
  <ele>187.412170</ele>
  <time>2012-06-23T05:02:15Z</time>
<extensions>
<speed>2.7</speed>
<temp>0.00</temp>
<bpm>0</bpm>
<rpm>0.00</rpm>
</extensions>
</trkpt>
<trkpt lat="32.584346771" lon="35.013198853">
  <ele>187.959045</ele>
  <time>2012-06-23T05:02:16Z</time>
<extensions>
<speed>3.1</speed>
<temp>0.00</temp>
<bpm>0</bpm>
<rpm>0.00</rpm>
</extensions>
</trkpt>
<trkpt lat="32.584384918" lon="35.013175964">
  <ele>187.271545</ele>
  <time>2012-06-23T05:02:17Z</time>
<extensions>
<speed>2.9</speed>
<temp>0.00</temp>
<bpm>0</bpm>
<rpm>0.00</rpm>
</extensions>
</trkpt>
<trkpt lat="32.584411621" lon="35.013156891">
  <ele>187.443420</ele>
  <time>2012-06-23T05:02:18Z</time>
<extensions>
<speed>3.0</speed>
<temp>0.00</temp>
<bpm>0</bpm>
<rpm>0.00</rpm>
</extensions>
</trkpt>
<trkpt lat="32.584438324" lon="35.013141632">
  <ele>186.935608</ele>
  <time>2012-06-23T05:02:19Z</time>
<extensions>
<speed>2.4</speed>
<temp>0.00</temp>
<bpm>0</bpm>
<rpm>0.00</rpm>
</extensions>
</trkpt>
<trkpt lat="32.584480286" lon="35.013111115">
  <ele>186.810608</ele>
  <time>2012-06-23T05:02:21Z</time>
<extensions>
<speed>1.7</speed>
<temp>0.00</temp>
<bpm>0</bpm>
<rpm>0.00</rpm>
</extensions>
</trkpt>
<trkpt lat="32.584506989" lon="35.013095856">
  <ele>186.525452</ele>
  <time>2012-06-23T05:02:24Z</time>
<extensions>
<speed>1.0</speed>
<temp>0.00</temp>
<bpm>0</bpm>
<rpm>0.00</rpm>
</extensions>
</trkpt>
<trkpt lat="32.584533691" lon="35.013080597">
  <ele>186.068420</ele>
  <time>2012-06-23T05:03:00Z</time>
<extensions>
<speed>0.4</speed>
<temp>0.00</temp>
<bpm>0</bpm>
<rpm>0.00</rpm>
</extensions>
</trkpt>
<trkpt lat="32.584541321" lon="35.013046265">
  <ele>186.455139</ele>
  <time>2012-06-23T05:06:52Z</time>
<extensions>
<speed>0.5</speed>
<temp>0.00</temp>
<bpm>0</bpm>
<rpm>0.00</rpm>
</extensions>
</trkpt>
<trkpt lat="32.584552765" lon="35.013015747">
  <ele>186.275452</ele>
  <time>2012-06-23T05:06:54Z</time>
<extensions>
<speed>1.3</speed>
<temp>0.00</temp>
<bpm>0</bpm>
<rpm>0.00</rpm>
</extensions>
</trkpt>
<trkpt lat="32.584571838" lon="35.012962341">
  <ele>186.162170</ele>
  <time>2012-06-23T05:06:56Z</time>
<extensions>
<speed>2.4</speed>
<temp>0.00</temp>
<bpm>0</bpm>
<rpm>0.00</rpm>
</extensions>
</trkpt>
<trkpt lat="32.584579468" lon="35.012916565">
  <ele>185.388733</ele>
  <time>2012-06-23T05:06:58Z</time>
<extensions>
<speed>1.7</speed>
<temp>0.00</temp>
<bpm>0</bpm>
<rpm>0.00</rpm>
</extensions>
</trkpt>
<trkpt lat="32.584598541" lon="35.012874603">
  <ele>184.919983</ele>
  <time>2012-06-23T05:07:00Z</time>
<extensions>
<speed>2.1</speed>
<temp>0.00</temp>
<bpm>0</bpm>
<rpm>0.00</rpm>
</extensions>
</trkpt>
<trkpt lat="32.584625244" lon="35.012825012">
  <ele>184.263733</ele>
  <time>2012-06-23T05:07:02Z</time>
<extensions>
<speed>2.2</speed>
<temp>0.00</temp>
<bpm>0</bpm>
<rpm>0.00</rpm>
</extensions>
</trkpt>
<trkpt lat="32.584644318" lon="35.012771606">
  <ele>183.888733</ele>
  <time>2012-06-23T05:07:04Z</time>
<extensions>
<speed>2.1</speed>
<temp>0.00</temp>
<bpm>0</bpm>
<rpm>0.00</rpm>
</extensions>
</trkpt>
<trkpt lat="32.584659576" lon="35.012714386">
  <ele>183.459045</ele>
  <time>2012-06-23T05:07:06Z</time>
<extensions>
<speed>2.9</speed>
<temp>0.00</temp>
<bpm>0</bpm>
<rpm>0.00</rpm>
</extensions>
</trkpt>
<trkpt lat="32.584671021" lon="35.012680054">
  <ele>183.291077</ele>
  <time>2012-06-23T05:07:07Z</time>
<extensions>
<speed>2.5</speed>
<temp>0.00</temp>
<bpm>0</bpm>
<rpm>0.00</rpm>
</extensions>
</trkpt>
<trkpt lat="32.584671021" lon="35.012641907">
  <ele>183.396545</ele>
  <time>2012-06-23T05:07:08Z</time>
<extensions>
<speed>3.1</speed>
<temp>0.00</temp>
<bpm>0</bpm>
<rpm>0.00</rpm>
</extensions>
</trkpt>
<trkpt lat="32.584686279" lon="35.012599945">
  <ele>183.712952</ele>
  <time>2012-06-23T05:07:09Z</time>
<extensions>
<speed>3.3</speed>
<temp>0.00</temp>
<bpm>0</bpm>
<rpm>0.00</rpm>
</extensions>
</trkpt>
<trkpt lat="32.584705353" lon="35.012569427">
  <ele>183.482483</ele>
  <time>2012-06-23T05:07:10Z</time>
<extensions>
<speed>3.1</speed>
<temp>0.00</temp>
<bpm>0</bpm>
<rpm>0.00</rpm>
</extensions>
</trkpt>
<trkpt lat="32.584724426" lon="35.012538910">
  <ele>183.423889</ele>
  <time>2012-06-23T05:07:11Z</time>
<extensions>
<speed>3.1</speed>
<temp>0.00</temp>
<bpm>0</bpm>
<rpm>0.00</rpm>
</extensions>
</trkpt>
<trkpt lat="32.584743500" lon="35.012519836">
  <ele>183.681702</ele>
  <time>2012-06-23T05:07:12Z</time>
<extensions>
<speed>3.1</speed>
<temp>0.00</temp>
<bpm>0</bpm>
<rpm>0.00</rpm>
</extensions>
</trkpt>
<trkpt lat="32.584774017" lon="35.012489319">
  <ele>183.287170</ele>
  <time>2012-06-23T05:07:13Z</time>
<extensions>
<speed>3.3</speed>
<temp>0.00</temp>
<bpm>0</bpm>
<rpm>0.00</rpm>
</extensions>
</trkpt>
<trkpt lat="32.584800720" lon="35.012466431">
  <ele>183.525452</ele>
  <time>2012-06-23T05:07:14Z</time>
<extensions>
<speed>3.8</speed>
<temp>0.00</temp>
<bpm>0</bpm>
<rpm>0.00</rpm>
</extensions>
</trkpt>
<trkpt lat="32.584831238" lon="35.012451172">
  <ele>183.720764</ele>
  <time>2012-06-23T05:07:15Z</time>
<extensions>
<speed>3.5</speed>
<temp>0.00</temp>
<bpm>0</bpm>
<rpm>0.00</rpm>
</extensions>
</trkpt>
<trkpt lat="32.584861755" lon="35.012439728">
  <ele>183.927795</ele>
  <time>2012-06-23T05:07:16Z</time>
<extensions>
<speed>3.4</speed>
<temp>0.00</temp>
<bpm>0</bpm>
<rpm>0.00</rpm>
</extensions>
</trkpt>
<trkpt lat="32.584903717" lon="35.012420654">
  <ele>184.419983</ele>
  <time>2012-06-23T05:07:17Z</time>
<extensions>
<speed>4.2</speed>
<temp>0.00</temp>
<bpm>0</bpm>
<rpm>0.00</rpm>
</extensions>
</trkpt>
<trkpt lat="32.584938049" lon="35.012397766">
  <ele>184.787170</ele>
  <time>2012-06-23T05:07:18Z</time>
<extensions>
<speed>3.9</speed>
<temp>0.00</temp>
<bpm>0</bpm>
<rpm>0.00</rpm>
</extensions>
</trkpt>
<trkpt lat="32.584968567" lon="35.012378693">
  <ele>184.849670</ele>
  <time>2012-06-23T05:07:19Z</time>
<extensions>
<speed>4.0</speed>
<temp>0.00</temp>
<bpm>0</bpm>
<rpm>0.00</rpm>
</extensions>
</trkpt>
<trkpt lat="32.585014343" lon="35.012351990">
  <ele>184.435608</ele>
  <time>2012-06-23T05:07:20Z</time>
<extensions>
<speed>4.1</speed>
<temp>0.00</temp>
<bpm>0</bpm>
<rpm>0.00</rpm>
</extensions>
</trkpt>
<trkpt lat="32.585044861" lon="35.012317657">
  <ele>185.283264</ele>
  <time>2012-06-23T05:07:21Z</time>
<extensions>
<speed>3.7</speed>
<temp>0.00</temp>
<bpm>0</bpm>
<rpm>0.00</rpm>
</extensions>
</trkpt>
<trkpt lat="32.585079193" lon="35.012306213">
  <ele>185.861389</ele>
  <time>2012-06-23T05:07:22Z</time>
<extensions>
<speed>4.0</speed>
<temp>0.00</temp>
<bpm>0</bpm>
<rpm>0.00</rpm>
</extensions>
</trkpt>
<trkpt lat="32.585109711" lon="35.012279510">
  <ele>185.271545</ele>
  <time>2012-06-23T05:07:23Z</time>
<extensions>
<speed>3.8</speed>
<temp>0.00</temp>
<bpm>0</bpm>
<rpm>0.00</rpm>
</extensions>
</trkpt>
<trkpt lat="32.585140228" lon="35.012252808">
  <ele>185.209045</ele>
  <time>2012-06-23T05:07:24Z</time>
<extensions>
<speed>3.7</speed>
<temp>0.00</temp>
<bpm>0</bpm>
<rpm>0.00</rpm>
</extensions>
</trkpt>
<trkpt lat="32.585166931" lon="35.012218475">
  <ele>184.080139</ele>
  <time>2012-06-23T05:07:25Z</time>
<extensions>
<speed>3.7</speed>
<temp>0.00</temp>
<bpm>0</bpm>
<rpm>0.00</rpm>
</extensions>
</trkpt>
<trkpt lat="32.585193634" lon="35.012184143">
  <ele>184.353577</ele>
  <time>2012-06-23T05:07:26Z</time>
<extensions>
<speed>4.0</speed>
<temp>0.00</temp>
<bpm>0</bpm>
<rpm>0.00</rpm>
</extensions>
</trkpt>
<trkpt lat="32.585216522" lon="35.012153625">
  <ele>184.720764</ele>
  <time>2012-06-23T05:07:27Z</time>
<extensions>
<speed>4.1</speed>
<temp>0.00</temp>
<bpm>0</bpm>
<rpm>0.00</rpm>
</extensions>
</trkpt>
<trkpt lat="32.585235596" lon="35.012111664">
  <ele>184.783264</ele>
  <time>2012-06-23T05:07:28Z</time>
<extensions>
<speed>4.0</speed>
<temp>0.00</temp>
<bpm>0</bpm>
<rpm>0.00</rpm>
</extensions>
</trkpt>
<trkpt lat="32.585250854" lon="35.012077332">
  <ele>183.837952</ele>
  <time>2012-06-23T05:07:29Z</time>
<extensions>
<speed>3.8</speed>
<temp>0.00</temp>
<bpm>0</bpm>
<rpm>0.00</rpm>
</extensions>
</trkpt>
<trkpt lat="32.585262299" lon="35.012027740">
  <ele>183.396545</ele>
  <time>2012-06-23T05:07:30Z</time>
<extensions>
<speed>4.2</speed>
<temp>0.00</temp>
<bpm>0</bpm>
<rpm>0.00</rpm>
</extensions>
</trkpt>
<trkpt lat="32.585269928" lon="35.011981964">
  <ele>182.990295</ele>
  <time>2012-06-23T05:07:31Z</time>
<extensions>
<speed>4.2</speed>
<temp>0.00</temp>
<bpm>0</bpm>
<rpm>0.00</rpm>
</extensions>
</trkpt>
<trkpt lat="32.585289001" lon="35.011940002">
  <ele>183.537170</ele>
  <time>2012-06-23T05:07:32Z</time>
<extensions>
<speed>3.9</speed>
<temp>0.00</temp>
<bpm>0</bpm>
<rpm>0.00</rpm>
</extensions>
</trkpt>
<trkpt lat="32.585304260" lon="35.011890411">
  <ele>183.462952</ele>
  <time>2012-06-23T05:07:33Z</time>
<extensions>
<speed>4.0</speed>
<temp>0.00</temp>
<bpm>0</bpm>
<rpm>0.00</rpm>
</extensions>
</trkpt>
<trkpt lat="32.585319519" lon="35.011844635">
  <ele>183.880920</ele>
  <time>2012-06-23T05:07:34Z</time>
<extensions>
<speed>3.9</speed>
<temp>0.00</temp>
<bpm>0</bpm>
<rpm>0.00</rpm>
</extensions>
</trkpt>
<trkpt lat="32.585338593" lon="35.011810303">
  <ele>183.986389</ele>
  <time>2012-06-23T05:07:35Z</time>
<extensions>
<speed>3.9</speed>
<temp>0.00</temp>
<bpm>0</bpm>
<rpm>0.00</rpm>
</extensions>
</trkpt>
<trkpt lat="32.585361481" lon="35.011768341">
  <ele>184.252014</ele>
  <time>2012-06-23T05:07:36Z</time>
<extensions>
<speed>3.9</speed>
<temp>0.00</temp>
<bpm>0</bpm>
<rpm>0.00</rpm>
</extensions>
</trkpt>
<trkpt lat="32.585380554" lon="35.011730194">
  <ele>183.517639</ele>
  <time>2012-06-23T05:07:37Z</time>
<extensions>
<speed>4.0</speed>
<temp>0.00</temp>
<bpm>0</bpm>
<rpm>0.00</rpm>
</extensions>
</trkpt>
<trkpt lat="32.585395813" lon="35.011688232">
  <ele>182.884827</ele>
  <time>2012-06-23T05:07:38Z</time>
<extensions>
<speed>3.9</speed>
<temp>0.00</temp>
<bpm>0</bpm>
<rpm>0.00</rpm>
</extensions>
</trkpt>
<trkpt lat="32.585403442" lon="35.011650085">
  <ele>183.048889</ele>
  <time>2012-06-23T05:07:39Z</time>
<extensions>
<speed>3.9</speed>
<temp>0.00</temp>
<bpm>0</bpm>
<rpm>0.00</rpm>
</extensions>
</trkpt>
<trkpt lat="32.585414886" lon="35.011611938">
  <ele>182.986389</ele>
  <time>2012-06-23T05:07:40Z</time>
<extensions>
<speed>3.7</speed>
<temp>0.00</temp>
<bpm>0</bpm>
<rpm>0.00</rpm>
</extensions>
</trkpt>
<trkpt lat="32.585422516" lon="35.011573792">
  <ele>182.377014</ele>
  <time>2012-06-23T05:07:41Z</time>
<extensions>
<speed>3.4</speed>
<temp>0.00</temp>
<bpm>0</bpm>
<rpm>0.00</rpm>
</extensions>
</trkpt>
<trkpt lat="32.585433960" lon="35.011539459">
  <ele>181.775452</ele>
  <time>2012-06-23T05:07:42Z</time>
<extensions>
<speed>3.5</speed>
<temp>0.00</temp>
<bpm>0</bpm>
<rpm>0.00</rpm>
</extensions>
</trkpt>
<trkpt lat="32.585453033" lon="35.011505127">
  <ele>181.369202</ele>
  <time>2012-06-23T05:07:43Z</time>
<extensions>
<speed>3.5</speed>
<temp>0.00</temp>
<bpm>0</bpm>
<rpm>0.00</rpm>
</extensions>
</trkpt>
<trkpt lat="32.585475922" lon="35.011478424">
  <ele>181.087952</ele>
  <time>2012-06-23T05:07:44Z</time>
<extensions>
<speed>3.5</speed>
<temp>0.00</temp>
<bpm>0</bpm>
<rpm>0.00</rpm>
</extensions>
</trkpt>
<trkpt lat="32.585510254" lon="35.011455536">
  <ele>182.572327</ele>
  <time>2012-06-23T05:07:45Z</time>
<extensions>
<speed>3.5</speed>
<temp>0.00</temp>
<bpm>0</bpm>
<rpm>0.00</rpm>
</extensions>
</trkpt>
<trkpt lat="32.585536957" lon="35.011425018">
  <ele>183.443420</ele>
  <time>2012-06-23T05:07:46Z</time>
<extensions>
<speed>3.2</speed>
<temp>0.00</temp>
<bpm>0</bpm>
<rpm>0.00</rpm>
</extensions>
</trkpt>
<trkpt lat="32.585556030" lon="35.011402130">
  <ele>183.673889</ele>
  <time>2012-06-23T05:07:47Z</time>
<extensions>
<speed>3.0</speed>
<temp>0.00</temp>
<bpm>0</bpm>
<rpm>0.00</rpm>
</extensions>
</trkpt>
<trkpt lat="32.585571289" lon="35.011375427">
  <ele>183.443420</ele>
  <time>2012-06-23T05:07:48Z</time>
<extensions>
<speed>3.2</speed>
<temp>0.00</temp>
<bpm>0</bpm>
<rpm>0.00</rpm>
</extensions>
</trkpt>
<trkpt lat="32.585590363" lon="35.011341095">
  <ele>183.552795</ele>
  <time>2012-06-23T05:07:49Z</time>
<extensions>
<speed>3.2</speed>
<temp>0.00</temp>
<bpm>0</bpm>
<rpm>0.00</rpm>
</extensions>
</trkpt>
<trkpt lat="32.585597992" lon="35.011299133">
  <ele>185.447327</ele>
  <time>2012-06-23T05:07:50Z</time>
<extensions>
<speed>2.7</speed>
<temp>0.00</temp>
<bpm>0</bpm>
<rpm>0.00</rpm>
</extensions>
</trkpt>
<trkpt lat="32.585594177" lon="35.011264801">
  <ele>185.377014</ele>
  <time>2012-06-23T05:07:51Z</time>
<extensions>
<speed>3.1</speed>
<temp>0.00</temp>
<bpm>0</bpm>
<rpm>0.00</rpm>
</extensions>
</trkpt>
<trkpt lat="32.585590363" lon="35.011226654">
  <ele>185.568420</ele>
  <time>2012-06-23T05:07:52Z</time>
<extensions>
<speed>3.5</speed>
<temp>0.00</temp>
<bpm>0</bpm>
<rpm>0.00</rpm>
</extensions>
</trkpt>
<trkpt lat="32.585590363" lon="35.011177063">
  <ele>186.712952</ele>
  <time>2012-06-23T05:07:53Z</time>
<extensions>
<speed>3.4</speed>
<temp>0.00</temp>
<bpm>0</bpm>
<rpm>0.00</rpm>
</extensions>
</trkpt>
<trkpt lat="32.585597992" lon="35.011131287">
  <ele>186.916077</ele>
  <time>2012-06-23T05:07:54Z</time>
<extensions>
<speed>3.2</speed>
<temp>0.00</temp>
<bpm>0</bpm>
<rpm>0.00</rpm>
</extensions>
</trkpt>
<trkpt lat="32.585590363" lon="35.011070251">
  <ele>187.201233</ele>
  <time>2012-06-23T05:07:56Z</time>
<extensions>
<speed>2.9</speed>
<temp>0.00</temp>
<bpm>0</bpm>
<rpm>0.00</rpm>
</extensions>
</trkpt>
<trkpt lat="32.585563660" lon="35.011009216">
  <ele>185.962952</ele>
  <time>2012-06-23T05:07:58Z</time>
<extensions>
<speed>3.1</speed>
<temp>0.00</temp>
<bpm>0</bpm>
<rpm>0.00</rpm>
</extensions>
</trkpt>
<trkpt lat="32.585552216" lon="35.010963440">
  <ele>185.982483</ele>
  <time>2012-06-23T05:07:59Z</time>
<extensions>
<speed>3.0</speed>
<temp>0.00</temp>
<bpm>0</bpm>
<rpm>0.00</rpm>
</extensions>
</trkpt>
<trkpt lat="32.585552216" lon="35.010929108">
  <ele>185.291077</ele>
  <time>2012-06-23T05:08:00Z</time>
<extensions>
<speed>2.9</speed>
<temp>0.00</temp>
<bpm>0</bpm>
<rpm>0.00</rpm>
</extensions>
</trkpt>
<trkpt lat="32.585552216" lon="35.010894775">
  <ele>184.818420</ele>
  <time>2012-06-23T05:08:01Z</time>
<extensions>
<speed>3.2</speed>
<temp>0.00</temp>
<bpm>0</bpm>
<rpm>0.00</rpm>
</extensions>
</trkpt>
<trkpt lat="32.585563660" lon="35.010864258">
  <ele>185.443420</ele>
  <time>2012-06-23T05:08:02Z</time>
<extensions>
<speed>3.1</speed>
<temp>0.00</temp>
<bpm>0</bpm>
<rpm>0.00</rpm>
</extensions>
</trkpt>
<trkpt lat="32.585563660" lon="35.010814667">
  <ele>186.095764</ele>
  <time>2012-06-23T05:08:03Z</time>
<extensions>
<speed>3.6</speed>
<temp>0.00</temp>
<bpm>0</bpm>
<rpm>0.00</rpm>
</extensions>
</trkpt>
<trkpt lat="32.585559845" lon="35.010776520">
  <ele>185.810608</ele>
  <time>2012-06-23T05:08:04Z</time>
<extensions>
<speed>2.9</speed>
<temp>0.00</temp>
<bpm>0</bpm>
<rpm>0.00</rpm>
</extensions>
</trkpt>
<trkpt lat="32.585559845" lon="35.010746002">
  <ele>185.455139</ele>
  <time>2012-06-23T05:08:05Z</time>
<extensions>
<speed>2.7</speed>
<temp>0.00</temp>
<bpm>0</bpm>
<rpm>0.00</rpm>
</extensions>
</trkpt>
<trkpt lat="32.585552216" lon="35.010681152">
  <ele>186.291077</ele>
  <time>2012-06-23T05:08:07Z</time>
<extensions>
<speed>2.7</speed>
<temp>0.00</temp>
<bpm>0</bpm>
<rpm>0.00</rpm>
</extensions>
</trkpt>
<trkpt lat="32.585536957" lon="35.010635376">
  <ele>184.916077</ele>
  <time>2012-06-23T05:08:09Z</time>
<extensions>
<speed>2.1</speed>
<temp>0.00</temp>
<bpm>0</bpm>
<rpm>0.00</rpm>
</extensions>
</trkpt>
<trkpt lat="32.585536957" lon="35.010589600">
  <ele>185.041077</ele>
  <time>2012-06-23T05:08:11Z</time>
<extensions>
<speed>1.5</speed>
<temp>0.00</temp>
<bpm>0</bpm>
<rpm>0.00</rpm>
</extensions>
</trkpt>
<trkpt lat="32.585517883" lon="35.010543823">
  <ele>186.490295</ele>
  <time>2012-06-23T05:08:13Z</time>
<extensions>
<speed>2.0</speed>
<temp>0.00</temp>
<bpm>0</bpm>
<rpm>0.00</rpm>
</extensions>
</trkpt>
<trkpt lat="32.585510254" lon="35.010490417">
  <ele>187.240295</ele>
  <time>2012-06-23T05:08:15Z</time>
<extensions>
<speed>1.8</speed>
<temp>0.00</temp>
<bpm>0</bpm>
<rpm>0.00</rpm>
</extensions>
</trkpt>
<trkpt lat="32.585502625" lon="35.010444641">
  <ele>189.267639</ele>
  <time>2012-06-23T05:08:17Z</time>
<extensions>
<speed>2.1</speed>
<temp>0.00</temp>
<bpm>0</bpm>
<rpm>0.00</rpm>
</extensions>
</trkpt>
<trkpt lat="32.585491180" lon="35.010391235">
  <ele>190.427795</ele>
  <time>2012-06-23T05:08:19Z</time>
<extensions>
<speed>1.9</speed>
<temp>0.00</temp>
<bpm>0</bpm>
<rpm>0.00</rpm>
</extensions>
</trkpt>
<trkpt lat="32.585483551" lon="35.010337830">
  <ele>191.021545</ele>
  <time>2012-06-23T05:08:21Z</time>
<extensions>
<speed>2.7</speed>
<temp>0.00</temp>
<bpm>0</bpm>
<rpm>0.00</rpm>
</extensions>
</trkpt>
<trkpt lat="32.585475922" lon="35.010284424">
  <ele>192.123108</ele>
  <time>2012-06-23T05:08:23Z</time>
<extensions>
<speed>2.3</speed>
<temp>0.00</temp>
<bpm>0</bpm>
<rpm>0.00</rpm>
</extensions>
</trkpt>
<trkpt lat="32.585460663" lon="35.010234833">
  <ele>192.103577</ele>
  <time>2012-06-23T05:08:25Z</time>
<extensions>
<speed>2.8</speed>
<temp>0.00</temp>
<bpm>0</bpm>
<rpm>0.00</rpm>
</extensions>
</trkpt>
<trkpt lat="32.585453033" lon="35.010177612">
  <ele>192.869202</ele>
  <time>2012-06-23T05:08:27Z</time>
<extensions>
<speed>2.6</speed>
<temp>0.00</temp>
<bpm>0</bpm>
<rpm>0.00</rpm>
</extensions>
</trkpt>
<trkpt lat="32.585441589" lon="35.010131836">
  <ele>192.060608</ele>
  <time>2012-06-23T05:08:29Z</time>
<extensions>
<speed>2.4</speed>
<temp>0.00</temp>
<bpm>0</bpm>
<rpm>0.00</rpm>
</extensions>
</trkpt>
<trkpt lat="32.585433960" lon="35.010078430">
  <ele>192.712952</ele>
  <time>2012-06-23T05:08:31Z</time>
<extensions>
<speed>2.1</speed>
<temp>0.00</temp>
<bpm>0</bpm>
<rpm>0.00</rpm>
</extensions>
</trkpt>
<trkpt lat="32.585430145" lon="35.010028839">
  <ele>192.986389</ele>
  <time>2012-06-23T05:08:33Z</time>
<extensions>
<speed>2.4</speed>
<temp>0.00</temp>
<bpm>0</bpm>
<rpm>0.00</rpm>
</extensions>
</trkpt>
<trkpt lat="32.585437775" lon="35.009979248">
  <ele>192.525452</ele>
  <time>2012-06-23T05:08:35Z</time>
<extensions>
<speed>2.1</speed>
<temp>0.00</temp>
<bpm>0</bpm>
<rpm>0.00</rpm>
</extensions>
</trkpt>
<trkpt lat="32.585441589" lon="35.009941101">
  <ele>191.939514</ele>
  <time>2012-06-23T05:08:37Z</time>
<extensions>
<speed>2.0</speed>
<temp>0.00</temp>
<bpm>0</bpm>
<rpm>0.00</rpm>
</extensions>
</trkpt>
<trkpt lat="32.585433960" lon="35.009895325">
  <ele>191.572327</ele>
  <time>2012-06-23T05:08:39Z</time>
<extensions>
<speed>2.2</speed>
<temp>0.00</temp>
<bpm>0</bpm>
<rpm>0.00</rpm>
</extensions>
</trkpt>
<trkpt lat="32.585430145" lon="35.009849548">
  <ele>191.466858</ele>
  <time>2012-06-23T05:08:41Z</time>
<extensions>
<speed>2.0</speed>
<temp>0.00</temp>
<bpm>0</bpm>
<rpm>0.00</rpm>
</extensions>
</trkpt>
<trkpt lat="32.585426331" lon="35.009784698">
  <ele>192.607483</ele>
  <time>2012-06-23T05:08:43Z</time>
<extensions>
<speed>2.7</speed>
<temp>0.00</temp>
<bpm>0</bpm>
<rpm>0.00</rpm>
</extensions>
</trkpt>
<trkpt lat="32.585430145" lon="35.009731293">
  <ele>192.806702</ele>
  <time>2012-06-23T05:08:45Z</time>
<extensions>
<speed>2.7</speed>
<temp>0.00</temp>
<bpm>0</bpm>
<rpm>0.00</rpm>
</extensions>
</trkpt>
<trkpt lat="32.585430145" lon="35.009696960">
  <ele>193.392639</ele>
  <time>2012-06-23T05:08:46Z</time>
<extensions>
<speed>2.7</speed>
<temp>0.00</temp>
<bpm>0</bpm>
<rpm>0.00</rpm>
</extensions>
</trkpt>
<trkpt lat="32.585426331" lon="35.009632111">
  <ele>193.603577</ele>
  <time>2012-06-23T05:08:48Z</time>
<extensions>
<speed>2.8</speed>
<temp>0.00</temp>
<bpm>0</bpm>
<rpm>0.00</rpm>
</extensions>
</trkpt>
<trkpt lat="32.585422516" lon="35.009597778">
  <ele>194.064514</ele>
  <time>2012-06-23T05:08:49Z</time>
<extensions>
<speed>3.0</speed>
<temp>0.00</temp>
<bpm>0</bpm>
<rpm>0.00</rpm>
</extensions>
</trkpt>
<trkpt lat="32.585422516" lon="35.009536743">
  <ele>194.447327</ele>
  <time>2012-06-23T05:08:51Z</time>
<extensions>
<speed>2.9</speed>
<temp>0.00</temp>
<bpm>0</bpm>
<rpm>0.00</rpm>
</extensions>
</trkpt>
<trkpt lat="32.585422516" lon="35.009502411">
  <ele>194.287170</ele>
  <time>2012-06-23T05:08:52Z</time>
<extensions>
<speed>3.0</speed>
<temp>0.00</temp>
<bpm>0</bpm>
<rpm>0.00</rpm>
</extensions>
</trkpt>
<trkpt lat="32.585418701" lon="35.009445190">
  <ele>194.982483</ele>
  <time>2012-06-23T05:08:54Z</time>
<extensions>
<speed>2.9</speed>
<temp>0.00</temp>
<bpm>0</bpm>
<rpm>0.00</rpm>
</extensions>
</trkpt>
<trkpt lat="32.585407257" lon="35.009391785">
  <ele>194.978577</ele>
  <time>2012-06-23T05:08:56Z</time>
<extensions>
<speed>2.4</speed>
<temp>0.00</temp>
<bpm>0</bpm>
<rpm>0.00</rpm>
</extensions>
</trkpt>
<trkpt lat="32.585395813" lon="35.009338379">
  <ele>194.052795</ele>
  <time>2012-06-23T05:08:58Z</time>
<extensions>
<speed>2.5</speed>
<temp>0.00</temp>
<bpm>0</bpm>
<rpm>0.00</rpm>
</extensions>
</trkpt>
<trkpt lat="32.585391998" lon="35.009307861">
  <ele>194.193420</ele>
  <time>2012-06-23T05:08:59Z</time>
<extensions>
<speed>2.7</speed>
<temp>0.00</temp>
<bpm>0</bpm>
<rpm>0.00</rpm>
</extensions>
</trkpt>
<trkpt lat="32.585391998" lon="35.009273529">
  <ele>194.193420</ele>
  <time>2012-06-23T05:09:00Z</time>
<extensions>
<speed>2.6</speed>
<temp>0.00</temp>
<bpm>0</bpm>
<rpm>0.00</rpm>
</extensions>
</trkpt>
<trkpt lat="32.585411072" lon="35.009235382">
  <ele>194.533264</ele>
  <time>2012-06-23T05:09:02Z</time>
<extensions>
<speed>2.3</speed>
<temp>0.00</temp>
<bpm>0</bpm>
<rpm>0.00</rpm>
</extensions>
</trkpt>
<trkpt lat="32.585449219" lon="35.009212494">
  <ele>195.052795</ele>
  <time>2012-06-23T05:09:04Z</time>
<extensions>
<speed>2.6</speed>
<temp>0.00</temp>
<bpm>0</bpm>
<rpm>0.00</rpm>
</extensions>
</trkpt>
<trkpt lat="32.585487366" lon="35.009178162">
  <ele>194.392639</ele>
  <time>2012-06-23T05:09:06Z</time>
<extensions>
<speed>2.7</speed>
<temp>0.00</temp>
<bpm>0</bpm>
<rpm>0.00</rpm>
</extensions>
</trkpt>
<trkpt lat="32.585498810" lon="35.009136200">
  <ele>194.740295</ele>
  <time>2012-06-23T05:09:08Z</time>
<extensions>
<speed>1.8</speed>
<temp>0.00</temp>
<bpm>0</bpm>
<rpm>0.00</rpm>
</extensions>
</trkpt>
<trkpt lat="32.585498810" lon="35.009109497">
  <ele>196.314514</ele>
  <time>2012-06-23T05:09:42Z</time>
<extensions>
<speed>0.1</speed>
<temp>0.00</temp>
<bpm>0</bpm>
<rpm>0.00</rpm>
</extensions>
</trkpt>
<trkpt lat="32.585487366" lon="35.009078979">
  <ele>195.720764</ele>
  <time>2012-06-23T05:10:07Z</time>
<extensions>
<speed>2.6</speed>
<temp>0.00</temp>
<bpm>0</bpm>
<rpm>0.00</rpm>
</extensions>
</trkpt>
<trkpt lat="32.585491180" lon="35.009037018">
  <ele>195.267639</ele>
  <time>2012-06-23T05:10:08Z</time>
<extensions>
<speed>3.7</speed>
<temp>0.00</temp>
<bpm>0</bpm>
<rpm>0.00</rpm>
</extensions>
</trkpt>
<trkpt lat="32.585502625" lon="35.008991241">
  <ele>194.498108</ele>
  <time>2012-06-23T05:10:09Z</time>
<extensions>
<speed>4.6</speed>
<temp>0.00</temp>
<bpm>0</bpm>
<rpm>0.00</rpm>
</extensions>
</trkpt>
<trkpt lat="32.585521698" lon="35.008941650">
  <ele>193.525452</ele>
  <time>2012-06-23T05:10:10Z</time>
<extensions>
<speed>5.1</speed>
<temp>0.00</temp>
<bpm>0</bpm>
<rpm>0.00</rpm>
</extensions>
</trkpt>
<trkpt lat="32.585540771" lon="35.008892059">
  <ele>192.783264</ele>
  <time>2012-06-23T05:10:11Z</time>
<extensions>
<speed>4.5</speed>
<temp>0.00</temp>
<bpm>0</bpm>
<rpm>0.00</rpm>
</extensions>
</trkpt>
<trkpt lat="32.585548401" lon="35.008842468">
  <ele>192.060608</ele>
  <time>2012-06-23T05:10:12Z</time>
<extensions>
<speed>4.5</speed>
<temp>0.00</temp>
<bpm>0</bpm>
<rpm>0.00</rpm>
</extensions>
</trkpt>
<trkpt lat="32.585540771" lon="35.008789063">
  <ele>191.502014</ele>
  <time>2012-06-23T05:10:13Z</time>
<extensions>
<speed>4.5</speed>
<temp>0.00</temp>
<bpm>0</bpm>
<rpm>0.00</rpm>
</extensions>
</trkpt>
<trkpt lat="32.585536957" lon="35.008728027">
  <ele>191.689514</ele>
  <time>2012-06-23T05:10:14Z</time>
<extensions>
<speed>5.1</speed>
<temp>0.00</temp>
<bpm>0</bpm>
<rpm>0.00</rpm>
</extensions>
</trkpt>
<trkpt lat="32.585533142" lon="35.008674622">
  <ele>191.127014</ele>
  <time>2012-06-23T05:10:15Z</time>
<extensions>
<speed>5.0</speed>
<temp>0.00</temp>
<bpm>0</bpm>
<rpm>0.00</rpm>
</extensions>
</trkpt>
<trkpt lat="32.585525513" lon="35.008625031">
  <ele>191.502014</ele>
  <time>2012-06-23T05:10:16Z</time>
<extensions>
<speed>4.4</speed>
<temp>0.00</temp>
<bpm>0</bpm>
<rpm>0.00</rpm>
</extensions>
</trkpt>
<trkpt lat="32.585525513" lon="35.008579254">
  <ele>190.490295</ele>
  <time>2012-06-23T05:10:17Z</time>
<extensions>
<speed>3.8</speed>
<temp>0.00</temp>
<bpm>0</bpm>
<rpm>0.00</rpm>
</extensions>
</trkpt>
<trkpt lat="32.585529327" lon="35.008537292">
  <ele>189.775452</ele>
  <time>2012-06-23T05:10:18Z</time>
<extensions>
<speed>3.6</speed>
<temp>0.00</temp>
<bpm>0</bpm>
<rpm>0.00</rpm>
</extensions>
</trkpt>
<trkpt lat="32.585533142" lon="35.008506775">
  <ele>188.197327</ele>
  <time>2012-06-23T05:10:19Z</time>
<extensions>
<speed>3.1</speed>
<temp>0.00</temp>
<bpm>0</bpm>
<rpm>0.00</rpm>
</extensions>
</trkpt>
<trkpt lat="32.585563660" lon="35.008487701">
  <ele>187.197327</ele>
  <time>2012-06-23T05:10:21Z</time>
<extensions>
<speed>1.1</speed>
<temp>0.00</temp>
<bpm>0</bpm>
<rpm>0.00</rpm>
</extensions>
</trkpt>
<trkpt lat="32.585586548" lon="35.008522034">
  <ele>185.416077</ele>
  <time>2012-06-23T05:10:23Z</time>
<extensions>
<speed>2.7</speed>
<temp>0.00</temp>
<bpm>0</bpm>
<rpm>0.00</rpm>
</extensions>
</trkpt>
<trkpt lat="32.585632324" lon="35.008525848">
  <ele>184.205139</ele>
  <time>2012-06-23T05:10:25Z</time>
<extensions>
<speed>2.4</speed>
<temp>0.00</temp>
<bpm>0</bpm>
<rpm>0.00</rpm>
</extensions>
</trkpt>
<trkpt lat="32.585659027" lon="35.008483887">
  <ele>181.841858</ele>
  <time>2012-06-23T05:10:27Z</time>
<extensions>
<speed>2.6</speed>
<temp>0.00</temp>
<bpm>0</bpm>
<rpm>0.00</rpm>
</extensions>
</trkpt>
<trkpt lat="32.585659027" lon="35.008445740">
  <ele>180.236389</ele>
  <time>2012-06-23T05:10:28Z</time>
<extensions>
<speed>3.6</speed>
<temp>0.00</temp>
<bpm>0</bpm>
<rpm>0.00</rpm>
</extensions>
</trkpt>
<trkpt lat="32.585659027" lon="35.008399963">
  <ele>178.529358</ele>
  <time>2012-06-23T05:10:29Z</time>
<extensions>
<speed>4.0</speed>
<temp>0.00</temp>
<bpm>0</bpm>
<rpm>0.00</rpm>
</extensions>
</trkpt>
<trkpt lat="32.585659027" lon="35.008361816">
  <ele>177.130920</ele>
  <time>2012-06-23T05:10:30Z</time>
<extensions>
<speed>3.4</speed>
<temp>0.00</temp>
<bpm>0</bpm>
<rpm>0.00</rpm>
</extensions>
</trkpt>
<trkpt lat="32.585659027" lon="35.008319855">
  <ele>174.998108</ele>
  <time>2012-06-23T05:10:31Z</time>
<extensions>
<speed>3.3</speed>
<temp>0.00</temp>
<bpm>0</bpm>
<rpm>0.00</rpm>
</extensions>
</trkpt>
<trkpt lat="32.585670471" lon="35.008293152">
  <ele>173.623108</ele>
  <time>2012-06-23T05:10:32Z</time>
<extensions>
<speed>2.8</speed>
<temp>0.00</temp>
<bpm>0</bpm>
<rpm>0.00</rpm>
</extensions>
</trkpt>
<trkpt lat="32.585681915" lon="35.008262634">
  <ele>172.763733</ele>
  <time>2012-06-23T05:10:33Z</time>
<extensions>
<speed>2.9</speed>
<temp>0.00</temp>
<bpm>0</bpm>
<rpm>0.00</rpm>
</extensions>
</trkpt>
<trkpt lat="32.585685730" lon="35.008239746">
  <ele>170.935608</ele>
  <time>2012-06-23T05:10:34Z</time>
<extensions>
<speed>2.4</speed>
<temp>0.00</temp>
<bpm>0</bpm>
<rpm>0.00</rpm>
</extensions>
</trkpt>
<trkpt lat="32.585678101" lon="35.008205414">
  <ele>169.013733</ele>
  <time>2012-06-23T05:10:35Z</time>
<extensions>
<speed>2.9</speed>
<temp>0.00</temp>
<bpm>0</bpm>
<rpm>0.00</rpm>
</extensions>
</trkpt>
<trkpt lat="32.585670471" lon="35.008167267">
  <ele>168.728577</ele>
  <time>2012-06-23T05:10:36Z</time>
<extensions>
<speed>3.4</speed>
<temp>0.00</temp>
<bpm>0</bpm>
<rpm>0.00</rpm>
</extensions>
</trkpt>
<trkpt lat="32.585662842" lon="35.008132935">
  <ele>168.798889</ele>
  <time>2012-06-23T05:10:37Z</time>
<extensions>
<speed>2.3</speed>
<temp>0.00</temp>
<bpm>0</bpm>
<rpm>0.00</rpm>
</extensions>
</trkpt>
<trkpt lat="32.585693359" lon="35.008090973">
  <ele>165.728577</ele>
  <time>2012-06-23T05:10:39Z</time>
<extensions>
<speed>3.1</speed>
<temp>0.00</temp>
<bpm>0</bpm>
<rpm>0.00</rpm>
</extensions>
</trkpt>
<trkpt lat="32.585712433" lon="35.008068085">
  <ele>164.103577</ele>
  <time>2012-06-23T05:10:40Z</time>
<extensions>
<speed>2.5</speed>
<temp>0.00</temp>
<bpm>0</bpm>
<rpm>0.00</rpm>
</extensions>
</trkpt>
<trkpt lat="32.585746765" lon="35.008033752">
  <ele>161.416077</ele>
  <time>2012-06-23T05:10:42Z</time>
<extensions>
<speed>2.3</speed>
<temp>0.00</temp>
<bpm>0</bpm>
<rpm>0.00</rpm>
</extensions>
</trkpt>
<trkpt lat="32.585758209" lon="35.008007050">
  <ele>162.595764</ele>
  <time>2012-06-23T05:10:43Z</time>
<extensions>
<speed>2.0</speed>
<temp>0.00</temp>
<bpm>0</bpm>
<rpm>0.00</rpm>
</extensions>
</trkpt>
<trkpt lat="32.585758209" lon="35.007946014">
  <ele>162.564514</ele>
  <time>2012-06-23T05:10:45Z</time>
<extensions>
<speed>1.8</speed>
<temp>0.00</temp>
<bpm>0</bpm>
<rpm>0.00</rpm>
</extensions>
</trkpt>
<trkpt lat="32.585739136" lon="35.007900238">
  <ele>160.873108</ele>
  <time>2012-06-23T05:10:47Z</time>
<extensions>
<speed>2.2</speed>
<temp>0.00</temp>
<bpm>0</bpm>
<rpm>0.00</rpm>
</extensions>
</trkpt>
<trkpt lat="32.585746765" lon="35.007843018">
  <ele>159.119202</ele>
  <time>2012-06-23T05:10:49Z</time>
<extensions>
<speed>3.3</speed>
<temp>0.00</temp>
<bpm>0</bpm>
<rpm>0.00</rpm>
</extensions>
</trkpt>
<trkpt lat="32.585758209" lon="35.007808685">
  <ele>159.392639</ele>
  <time>2012-06-23T05:10:50Z</time>
<extensions>
<speed>2.7</speed>
<temp>0.00</temp>
<bpm>0</bpm>
<rpm>0.00</rpm>
</extensions>
</trkpt>
<trkpt lat="32.585750580" lon="35.007747650">
  <ele>158.302795</ele>
  <time>2012-06-23T05:10:52Z</time>
<extensions>
<speed>2.9</speed>
<temp>0.00</temp>
<bpm>0</bpm>
<rpm>0.00</rpm>
</extensions>
</trkpt>
<trkpt lat="32.585731506" lon="35.007705688">
  <ele>158.498108</ele>
  <time>2012-06-23T05:10:53Z</time>
<extensions>
<speed>3.3</speed>
<temp>0.00</temp>
<bpm>0</bpm>
<rpm>0.00</rpm>
</extensions>
</trkpt>
<trkpt lat="32.585716248" lon="35.007678986">
  <ele>158.064514</ele>
  <time>2012-06-23T05:10:54Z</time>
<extensions>
<speed>1.9</speed>
<temp>0.00</temp>
<bpm>0</bpm>
<rpm>0.00</rpm>
</extensions>
</trkpt>
<trkpt lat="32.585685730" lon="35.007644653">
  <ele>156.884827</ele>
  <time>2012-06-23T05:10:56Z</time>
<extensions>
<speed>2.2</speed>
<temp>0.00</temp>
<bpm>0</bpm>
<rpm>0.00</rpm>
</extensions>
</trkpt>
<trkpt lat="32.585674286" lon="35.007610321">
  <ele>156.263733</ele>
  <time>2012-06-23T05:10:57Z</time>
<extensions>
<speed>3.3</speed>
<temp>0.00</temp>
<bpm>0</bpm>
<rpm>0.00</rpm>
</extensions>
</trkpt>
<trkpt lat="32.585666656" lon="35.007560730">
  <ele>155.267639</ele>
  <time>2012-06-23T05:10:58Z</time>
<extensions>
<speed>4.2</speed>
<temp>0.00</temp>
<bpm>0</bpm>
<rpm>0.00</rpm>
</extensions>
</trkpt>
<trkpt lat="32.585651398" lon="35.007518768">
  <ele>154.736389</ele>
  <time>2012-06-23T05:10:59Z</time>
<extensions>
<speed>4.1</speed>
<temp>0.00</temp>
<bpm>0</bpm>
<rpm>0.00</rpm>
</extensions>
</trkpt>
<trkpt lat="32.585628510" lon="35.007488251">
  <ele>153.888733</ele>
  <time>2012-06-23T05:11:00Z</time>
<extensions>
<speed>2.7</speed>
<temp>0.00</temp>
<bpm>0</bpm>
<rpm>0.00</rpm>
</extensions>
</trkpt>
<trkpt lat="32.585582733" lon="35.007434845">
  <ele>151.701233</ele>
  <time>2012-06-23T05:11:02Z</time>
<extensions>
<speed>2.5</speed>
<temp>0.00</temp>
<bpm>0</bpm>
<rpm>0.00</rpm>
</extensions>
</trkpt>
<trkpt lat="32.585571289" lon="35.007404327">
  <ele>150.779358</ele>
  <time>2012-06-23T05:11:03Z</time>
<extensions>
<speed>2.4</speed>
<temp>0.00</temp>
<bpm>0</bpm>
<rpm>0.00</rpm>
</extensions>
</trkpt>
<trkpt lat="32.585590363" lon="35.007362366">
  <ele>148.857483</ele>
  <time>2012-06-23T05:11:05Z</time>
<extensions>
<speed>2.0</speed>
<temp>0.00</temp>
<bpm>0</bpm>
<rpm>0.00</rpm>
</extensions>
</trkpt>
<trkpt lat="32.585628510" lon="35.007324219">
  <ele>148.591858</ele>
  <time>2012-06-23T05:11:07Z</time>
<extensions>
<speed>2.3</speed>
<temp>0.00</temp>
<bpm>0</bpm>
<rpm>0.00</rpm>
</extensions>
</trkpt>
<trkpt lat="32.585636139" lon="35.007289886">
  <ele>148.283264</ele>
  <time>2012-06-23T05:11:08Z</time>
<extensions>
<speed>2.6</speed>
<temp>0.00</temp>
<bpm>0</bpm>
<rpm>0.00</rpm>
</extensions>
</trkpt>
<trkpt lat="32.585624695" lon="35.007259369">
  <ele>147.544983</ele>
  <time>2012-06-23T05:11:09Z</time>
<extensions>
<speed>3.7</speed>
<temp>0.00</temp>
<bpm>0</bpm>
<rpm>0.00</rpm>
</extensions>
</trkpt>
<trkpt lat="32.585609436" lon="35.007217407">
  <ele>147.060608</ele>
  <time>2012-06-23T05:11:10Z</time>
<extensions>
<speed>3.9</speed>
<temp>0.00</temp>
<bpm>0</bpm>
<rpm>0.00</rpm>
</extensions>
</trkpt>
<trkpt lat="32.585590363" lon="35.007190704">
  <ele>146.919983</ele>
  <time>2012-06-23T05:11:11Z</time>
<extensions>
<speed>3.2</speed>
<temp>0.00</temp>
<bpm>0</bpm>
<rpm>0.00</rpm>
</extensions>
</trkpt>
<trkpt lat="32.585556030" lon="35.007156372">
  <ele>146.166077</ele>
  <time>2012-06-23T05:11:12Z</time>
<extensions>
<speed>3.6</speed>
<temp>0.00</temp>
<bpm>0</bpm>
<rpm>0.00</rpm>
</extensions>
</trkpt>
<trkpt lat="32.585529327" lon="35.007125854">
  <ele>145.080139</ele>
  <time>2012-06-23T05:11:13Z</time>
<extensions>
<speed>3.0</speed>
<temp>0.00</temp>
<bpm>0</bpm>
<rpm>0.00</rpm>
</extensions>
</trkpt>
<trkpt lat="32.585514069" lon="35.007091522">
  <ele>144.552795</ele>
  <time>2012-06-23T05:11:14Z</time>
<extensions>
<speed>2.9</speed>
<temp>0.00</temp>
<bpm>0</bpm>
<rpm>0.00</rpm>
</extensions>
</trkpt>
<trkpt lat="32.585460663" lon="35.007064819">
  <ele>144.259827</ele>
  <time>2012-06-23T05:11:16Z</time>
<extensions>
<speed>3.5</speed>
<temp>0.00</temp>
<bpm>0</bpm>
<rpm>0.00</rpm>
</extensions>
</trkpt>
<trkpt lat="32.585430145" lon="35.007041931">
  <ele>144.111389</ele>
  <time>2012-06-23T05:11:17Z</time>
<extensions>
<speed>3.6</speed>
<temp>0.00</temp>
<bpm>0</bpm>
<rpm>0.00</rpm>
</extensions>
</trkpt>
<trkpt lat="32.585399628" lon="35.007022858">
  <ele>143.279358</ele>
  <time>2012-06-23T05:11:18Z</time>
<extensions>
<speed>3.0</speed>
<temp>0.00</temp>
<bpm>0</bpm>
<rpm>0.00</rpm>
</extensions>
</trkpt>
<trkpt lat="32.585376740" lon="35.006996155">
  <ele>142.919983</ele>
  <time>2012-06-23T05:11:19Z</time>
<extensions>
<speed>3.1</speed>
<temp>0.00</temp>
<bpm>0</bpm>
<rpm>0.00</rpm>
</extensions>
</trkpt>
<trkpt lat="32.585361481" lon="35.006965637">
  <ele>142.291077</ele>
  <time>2012-06-23T05:11:20Z</time>
<extensions>
<speed>3.2</speed>
<temp>0.00</temp>
<bpm>0</bpm>
<rpm>0.00</rpm>
</extensions>
</trkpt>
<trkpt lat="32.585342407" lon="35.006927490">
  <ele>141.709045</ele>
  <time>2012-06-23T05:11:21Z</time>
<extensions>
<speed>3.8</speed>
<temp>0.00</temp>
<bpm>0</bpm>
<rpm>0.00</rpm>
</extensions>
</trkpt>
<trkpt lat="32.585311890" lon="35.006889343">
  <ele>141.263733</ele>
  <time>2012-06-23T05:11:22Z</time>
<extensions>
<speed>5.1</speed>
<temp>0.00</temp>
<bpm>0</bpm>
<rpm>0.00</rpm>
</extensions>
</trkpt>
<trkpt lat="32.585277557" lon="35.006835938">
  <ele>140.591858</ele>
  <time>2012-06-23T05:11:23Z</time>
<extensions>
<speed>5.5</speed>
<temp>0.00</temp>
<bpm>0</bpm>
<rpm>0.00</rpm>
</extensions>
</trkpt>
<trkpt lat="32.585212708" lon="35.006793976">
  <ele>140.603577</ele>
  <time>2012-06-23T05:11:24Z</time>
<extensions>
<speed>5.3</speed>
<temp>0.00</temp>
<bpm>0</bpm>
<rpm>0.00</rpm>
</extensions>
</trkpt>
<trkpt lat="32.585178375" lon="35.006713867">
  <ele>140.869202</ele>
  <time>2012-06-23T05:11:25Z</time>
<extensions>
<speed>4.5</speed>
<temp>0.00</temp>
<bpm>0</bpm>
<rpm>0.00</rpm>
</extensions>
</trkpt>
<trkpt lat="32.585155487" lon="35.006668091">
  <ele>140.935608</ele>
  <time>2012-06-23T05:11:26Z</time>
<extensions>
<speed>2.8</speed>
<temp>0.00</temp>
<bpm>0</bpm>
<rpm>0.00</rpm>
</extensions>
</trkpt>
<trkpt lat="32.585151672" lon="35.006610870">
  <ele>140.173889</ele>
  <time>2012-06-23T05:11:28Z</time>
<extensions>
<speed>1.8</speed>
<temp>0.00</temp>
<bpm>0</bpm>
<rpm>0.00</rpm>
</extensions>
</trkpt>
<trkpt lat="32.585151672" lon="35.006576538">
  <ele>140.279358</ele>
  <time>2012-06-23T05:11:30Z</time>
<extensions>
<speed>1.3</speed>
<temp>0.00</temp>
<bpm>0</bpm>
<rpm>0.00</rpm>
</extensions>
</trkpt>
<trkpt lat="32.585147858" lon="35.006523132">
  <ele>139.853577</ele>
  <time>2012-06-23T05:11:32Z</time>
<extensions>
<speed>1.7</speed>
<temp>0.00</temp>
<bpm>0</bpm>
<rpm>0.00</rpm>
</extensions>
</trkpt>
<trkpt lat="32.585155487" lon="35.006431580">
  <ele>141.509827</ele>
  <time>2012-06-23T05:11:34Z</time>
<extensions>
<speed>2.4</speed>
<temp>0.00</temp>
<bpm>0</bpm>
<rpm>0.00</rpm>
</extensions>
</trkpt>
<trkpt lat="32.585186005" lon="35.006366730">
  <ele>142.474670</ele>
  <time>2012-06-23T05:11:36Z</time>
<extensions>
<speed>3.6</speed>
<temp>0.00</temp>
<bpm>0</bpm>
<rpm>0.00</rpm>
</extensions>
</trkpt>
<trkpt lat="32.585205078" lon="35.006328583">
  <ele>143.306702</ele>
  <time>2012-06-23T05:11:37Z</time>
<extensions>
<speed>3.4</speed>
<temp>0.00</temp>
<bpm>0</bpm>
<rpm>0.00</rpm>
</extensions>
</trkpt>
<trkpt lat="32.585224152" lon="35.006282806">
  <ele>144.138733</ele>
  <time>2012-06-23T05:11:38Z</time>
<extensions>
<speed>3.6</speed>
<temp>0.00</temp>
<bpm>0</bpm>
<rpm>0.00</rpm>
</extensions>
</trkpt>
<trkpt lat="32.585235596" lon="35.006244659">
  <ele>143.568420</ele>
  <time>2012-06-23T05:11:39Z</time>
<extensions>
<speed>3.5</speed>
<temp>0.00</temp>
<bpm>0</bpm>
<rpm>0.00</rpm>
</extensions>
</trkpt>
<trkpt lat="32.585247040" lon="35.006206512">
  <ele>143.615295</ele>
  <time>2012-06-23T05:11:40Z</time>
<extensions>
<speed>3.6</speed>
<temp>0.00</temp>
<bpm>0</bpm>
<rpm>0.00</rpm>
</extensions>
</trkpt>
<trkpt lat="32.585254669" lon="35.006168365">
  <ele>143.728577</ele>
  <time>2012-06-23T05:11:41Z</time>
<extensions>
<speed>3.2</speed>
<temp>0.00</temp>
<bpm>0</bpm>
<rpm>0.00</rpm>
</extensions>
</trkpt>
<trkpt lat="32.585273743" lon="35.006134033">
  <ele>143.955139</ele>
  <time>2012-06-23T05:11:42Z</time>
<extensions>
<speed>3.5</speed>
<temp>0.00</temp>
<bpm>0</bpm>
<rpm>0.00</rpm>
</extensions>
</trkpt>
<trkpt lat="32.585289001" lon="35.006099701">
  <ele>144.720764</ele>
  <time>2012-06-23T05:11:43Z</time>
<extensions>
<speed>4.0</speed>
<temp>0.00</temp>
<bpm>0</bpm>
<rpm>0.00</rpm>
</extensions>
</trkpt>
<trkpt lat="32.585300446" lon="35.006057739">
  <ele>144.990295</ele>
  <time>2012-06-23T05:11:44Z</time>
<extensions>
<speed>3.8</speed>
<temp>0.00</temp>
<bpm>0</bpm>
<rpm>0.00</rpm>
</extensions>
</trkpt>
<trkpt lat="32.585308075" lon="35.006015778">
  <ele>145.419983</ele>
  <time>2012-06-23T05:11:45Z</time>
<extensions>
<speed>3.8</speed>
<temp>0.00</temp>
<bpm>0</bpm>
<rpm>0.00</rpm>
</extensions>
</trkpt>
<trkpt lat="32.585319519" lon="35.005981445">
  <ele>145.669983</ele>
  <time>2012-06-23T05:11:46Z</time>
<extensions>
<speed>3.6</speed>
<temp>0.00</temp>
<bpm>0</bpm>
<rpm>0.00</rpm>
</extensions>
</trkpt>
<trkpt lat="32.585338593" lon="35.005943298">
  <ele>145.943420</ele>
  <time>2012-06-23T05:11:47Z</time>
<extensions>
<speed>3.9</speed>
<temp>0.00</temp>
<bpm>0</bpm>
<rpm>0.00</rpm>
</extensions>
</trkpt>
<trkpt lat="32.585353851" lon="35.005905151">
  <ele>146.087952</ele>
  <time>2012-06-23T05:11:48Z</time>
<extensions>
<speed>4.0</speed>
<temp>0.00</temp>
<bpm>0</bpm>
<rpm>0.00</rpm>
</extensions>
</trkpt>
<trkpt lat="32.585357666" lon="35.005863190">
  <ele>146.939514</ele>
  <time>2012-06-23T05:11:49Z</time>
<extensions>
<speed>3.3</speed>
<temp>0.00</temp>
<bpm>0</bpm>
<rpm>0.00</rpm>
</extensions>
</trkpt>
<trkpt lat="32.585365295" lon="35.005828857">
  <ele>147.349670</ele>
  <time>2012-06-23T05:11:50Z</time>
<extensions>
<speed>3.0</speed>
<temp>0.00</temp>
<bpm>0</bpm>
<rpm>0.00</rpm>
</extensions>
</trkpt>
<trkpt lat="32.585369110" lon="35.005790710">
  <ele>147.755920</ele>
  <time>2012-06-23T05:11:51Z</time>
<extensions>
<speed>3.1</speed>
<temp>0.00</temp>
<bpm>0</bpm>
<rpm>0.00</rpm>
</extensions>
</trkpt>
<trkpt lat="32.585376740" lon="35.005752563">
  <ele>148.474670</ele>
  <time>2012-06-23T05:11:52Z</time>
<extensions>
<speed>3.1</speed>
<temp>0.00</temp>
<bpm>0</bpm>
<rpm>0.00</rpm>
</extensions>
</trkpt>
<trkpt lat="32.585388184" lon="35.005722046">
  <ele>148.810608</ele>
  <time>2012-06-23T05:11:53Z</time>
<extensions>
<speed>3.5</speed>
<temp>0.00</temp>
<bpm>0</bpm>
<rpm>0.00</rpm>
</extensions>
</trkpt>
<trkpt lat="32.585411072" lon="35.005687714">
  <ele>149.119202</ele>
  <time>2012-06-23T05:11:54Z</time>
<extensions>
<speed>3.7</speed>
<temp>0.00</temp>
<bpm>0</bpm>
<rpm>0.00</rpm>
</extensions>
</trkpt>
<trkpt lat="32.585433960" lon="35.005661011">
  <ele>149.701233</ele>
  <time>2012-06-23T05:11:55Z</time>
<extensions>
<speed>3.5</speed>
<temp>0.00</temp>
<bpm>0</bpm>
<rpm>0.00</rpm>
</extensions>
</trkpt>
<trkpt lat="32.585456848" lon="35.005626678">
  <ele>150.736389</ele>
  <time>2012-06-23T05:11:56Z</time>
<extensions>
<speed>3.8</speed>
<temp>0.00</temp>
<bpm>0</bpm>
<rpm>0.00</rpm>
</extensions>
</trkpt>
<trkpt lat="32.585479736" lon="35.005599976">
  <ele>151.529358</ele>
  <time>2012-06-23T05:11:57Z</time>
<extensions>
<speed>4.2</speed>
<temp>0.00</temp>
<bpm>0</bpm>
<rpm>0.00</rpm>
</extensions>
</trkpt>
<trkpt lat="32.585502625" lon="35.005573273">
  <ele>151.877014</ele>
  <time>2012-06-23T05:11:58Z</time>
<extensions>
<speed>3.4</speed>
<temp>0.00</temp>
<bpm>0</bpm>
<rpm>0.00</rpm>
</extensions>
</trkpt>
<trkpt lat="32.585525513" lon="35.005558014">
  <ele>151.818420</ele>
  <time>2012-06-23T05:11:59Z</time>
<extensions>
<speed>3.2</speed>
<temp>0.00</temp>
<bpm>0</bpm>
<rpm>0.00</rpm>
</extensions>
</trkpt>
<trkpt lat="32.585556030" lon="35.005546570">
  <ele>151.716858</ele>
  <time>2012-06-23T05:12:00Z</time>
<extensions>
<speed>3.7</speed>
<temp>0.00</temp>
<bpm>0</bpm>
<rpm>0.00</rpm>
</extensions>
</trkpt>
<trkpt lat="32.585586548" lon="35.005523682">
  <ele>152.658264</ele>
  <time>2012-06-23T05:12:01Z</time>
<extensions>
<speed>3.3</speed>
<temp>0.00</temp>
<bpm>0</bpm>
<rpm>0.00</rpm>
</extensions>
</trkpt>
<trkpt lat="32.585632324" lon="35.005466461">
  <ele>151.826233</ele>
  <time>2012-06-23T05:12:03Z</time>
<extensions>
<speed>4.4</speed>
<temp>0.00</temp>
<bpm>0</bpm>
<rpm>0.00</rpm>
</extensions>
</trkpt>
<trkpt lat="32.585659027" lon="35.005424500">
  <ele>152.267639</ele>
  <time>2012-06-23T05:12:04Z</time>
<extensions>
<speed>4.4</speed>
<temp>0.00</temp>
<bpm>0</bpm>
<rpm>0.00</rpm>
</extensions>
</trkpt>
<trkpt lat="32.585685730" lon="35.005386353">
  <ele>152.353577</ele>
  <time>2012-06-23T05:12:05Z</time>
<extensions>
<speed>4.4</speed>
<temp>0.00</temp>
<bpm>0</bpm>
<rpm>0.00</rpm>
</extensions>
</trkpt>
<trkpt lat="32.585716248" lon="35.005344391">
  <ele>152.564514</ele>
  <time>2012-06-23T05:12:06Z</time>
<extensions>
<speed>5.0</speed>
<temp>0.00</temp>
<bpm>0</bpm>
<rpm>0.00</rpm>
</extensions>
</trkpt>
<trkpt lat="32.585739136" lon="35.005294800">
  <ele>151.943420</ele>
  <time>2012-06-23T05:12:07Z</time>
<extensions>
<speed>5.1</speed>
<temp>0.00</temp>
<bpm>0</bpm>
<rpm>0.00</rpm>
</extensions>
</trkpt>
<trkpt lat="32.585758209" lon="35.005241394">
  <ele>152.021545</ele>
  <time>2012-06-23T05:12:08Z</time>
<extensions>
<speed>5.1</speed>
<temp>0.00</temp>
<bpm>0</bpm>
<rpm>0.00</rpm>
</extensions>
</trkpt>
<trkpt lat="32.585784912" lon="35.005203247">
  <ele>150.888733</ele>
  <time>2012-06-23T05:12:09Z</time>
<extensions>
<speed>4.1</speed>
<temp>0.00</temp>
<bpm>0</bpm>
<rpm>0.00</rpm>
</extensions>
</trkpt>
<trkpt lat="32.585811615" lon="35.005172729">
  <ele>150.709045</ele>
  <time>2012-06-23T05:12:10Z</time>
<extensions>
<speed>3.1</speed>
<temp>0.00</temp>
<bpm>0</bpm>
<rpm>0.00</rpm>
</extensions>
</trkpt>
<trkpt lat="32.585811615" lon="35.005111694">
  <ele>150.763733</ele>
  <time>2012-06-23T05:12:12Z</time>
<extensions>
<speed>2.2</speed>
<temp>0.00</temp>
<bpm>0</bpm>
<rpm>0.00</rpm>
</extensions>
</trkpt>
<trkpt lat="32.585815430" lon="35.005062103">
  <ele>151.084045</ele>
  <time>2012-06-23T05:12:14Z</time>
<extensions>
<speed>2.4</speed>
<temp>0.00</temp>
<bpm>0</bpm>
<rpm>0.00</rpm>
</extensions>
</trkpt>
<trkpt lat="32.585826874" lon="35.005031586">
  <ele>152.021545</ele>
  <time>2012-06-23T05:12:15Z</time>
<extensions>
<speed>2.4</speed>
<temp>0.00</temp>
<bpm>0</bpm>
<rpm>0.00</rpm>
</extensions>
</trkpt>
<trkpt lat="32.585834503" lon="35.005001068">
  <ele>151.970764</ele>
  <time>2012-06-23T05:12:16Z</time>
<extensions>
<speed>3.0</speed>
<temp>0.00</temp>
<bpm>0</bpm>
<rpm>0.00</rpm>
</extensions>
</trkpt>
<trkpt lat="32.585845947" lon="35.004966736">
  <ele>152.638733</ele>
  <time>2012-06-23T05:12:17Z</time>
<extensions>
<speed>3.2</speed>
<temp>0.00</temp>
<bpm>0</bpm>
<rpm>0.00</rpm>
</extensions>
</trkpt>
<trkpt lat="32.585857391" lon="35.004909515">
  <ele>152.982483</ele>
  <time>2012-06-23T05:12:19Z</time>
<extensions>
<speed>2.3</speed>
<temp>0.00</temp>
<bpm>0</bpm>
<rpm>0.00</rpm>
</extensions>
</trkpt>
<trkpt lat="32.585845947" lon="35.004859924">
  <ele>153.048889</ele>
  <time>2012-06-23T05:12:21Z</time>
<extensions>
<speed>2.0</speed>
<temp>0.00</temp>
<bpm>0</bpm>
<rpm>0.00</rpm>
</extensions>
</trkpt>
<trkpt lat="32.585815430" lon="35.004821777">
  <ele>153.263733</ele>
  <time>2012-06-23T05:12:23Z</time>
<extensions>
<speed>2.2</speed>
<temp>0.00</temp>
<bpm>0</bpm>
<rpm>0.00</rpm>
</extensions>
</trkpt>
<trkpt lat="32.585792542" lon="35.004783630">
  <ele>153.685608</ele>
  <time>2012-06-23T05:12:25Z</time>
<extensions>
<speed>1.9</speed>
<temp>0.00</temp>
<bpm>0</bpm>
<rpm>0.00</rpm>
</extensions>
</trkpt>
<trkpt lat="32.585769653" lon="35.004756927">
  <ele>153.771545</ele>
  <time>2012-06-23T05:12:27Z</time>
<extensions>
<speed>1.3</speed>
<temp>0.00</temp>
<bpm>0</bpm>
<rpm>0.00</rpm>
</extensions>
</trkpt>
<trkpt lat="32.585735321" lon="35.004745483">
  <ele>154.052795</ele>
  <time>2012-06-23T05:12:29Z</time>
<extensions>
<speed>2.2</speed>
<temp>0.00</temp>
<bpm>0</bpm>
<rpm>0.00</rpm>
</extensions>
</trkpt>
<trkpt lat="32.585708618" lon="35.004741669">
  <ele>153.919983</ele>
  <time>2012-06-23T05:12:30Z</time>
<extensions>
<speed>2.5</speed>
<temp>0.00</temp>
<bpm>0</bpm>
<rpm>0.00</rpm>
</extensions>
</trkpt>
<trkpt lat="32.585681915" lon="35.004741669">
  <ele>153.701233</ele>
  <time>2012-06-23T05:12:31Z</time>
<extensions>
<speed>2.5</speed>
<temp>0.00</temp>
<bpm>0</bpm>
<rpm>0.00</rpm>
</extensions>
</trkpt>
<trkpt lat="32.585632324" lon="35.004726410">
  <ele>153.373108</ele>
  <time>2012-06-23T05:12:33Z</time>
<extensions>
<speed>2.7</speed>
<temp>0.00</temp>
<bpm>0</bpm>
<rpm>0.00</rpm>
</extensions>
</trkpt>
<trkpt lat="32.585578918" lon="35.004714966">
  <ele>153.412170</ele>
  <time>2012-06-23T05:12:35Z</time>
<extensions>
<speed>2.4</speed>
<temp>0.00</temp>
<bpm>0</bpm>
<rpm>0.00</rpm>
</extensions>
</trkpt>
<trkpt lat="32.585536957" lon="35.004699707">
  <ele>151.763733</ele>
  <time>2012-06-23T05:12:37Z</time>
<extensions>
<speed>1.7</speed>
<temp>0.00</temp>
<bpm>0</bpm>
<rpm>0.00</rpm>
</extensions>
</trkpt>
<trkpt lat="32.585510254" lon="35.004676819">
  <ele>151.791077</ele>
  <time>2012-06-23T05:12:39Z</time>
<extensions>
<speed>2.3</speed>
<temp>0.00</temp>
<bpm>0</bpm>
<rpm>0.00</rpm>
</extensions>
</trkpt>
<trkpt lat="32.585498810" lon="35.004631042">
  <ele>151.423889</ele>
  <time>2012-06-23T05:12:41Z</time>
<extensions>
<speed>2.3</speed>
<temp>0.00</temp>
<bpm>0</bpm>
<rpm>0.00</rpm>
</extensions>
</trkpt>
<trkpt lat="32.585510254" lon="35.004600525">
  <ele>151.959045</ele>
  <time>2012-06-23T05:12:43Z</time>
<extensions>
<speed>1.1</speed>
<temp>0.00</temp>
<bpm>0</bpm>
<rpm>0.00</rpm>
</extensions>
</trkpt>
<trkpt lat="32.585521698" lon="35.004577637">
  <ele>154.013733</ele>
  <time>2012-06-23T05:12:55Z</time>
<extensions>
<speed>1.9</speed>
<temp>0.00</temp>
<bpm>0</bpm>
<rpm>0.00</rpm>
</extensions>
</trkpt>
<trkpt lat="32.585548401" lon="35.004531860">
  <ele>154.931702</ele>
  <time>2012-06-23T05:12:57Z</time>
<extensions>
<speed>2.7</speed>
<temp>0.00</temp>
<bpm>0</bpm>
<rpm>0.00</rpm>
</extensions>
</trkpt>
<trkpt lat="32.585563660" lon="35.004505157">
  <ele>154.900452</ele>
  <time>2012-06-23T05:12:58Z</time>
<extensions>
<speed>2.9</speed>
<temp>0.00</temp>
<bpm>0</bpm>
<rpm>0.00</rpm>
</extensions>
</trkpt>
<trkpt lat="32.585578918" lon="35.004474640">
  <ele>154.853577</ele>
  <time>2012-06-23T05:12:59Z</time>
<extensions>
<speed>2.6</speed>
<temp>0.00</temp>
<bpm>0</bpm>
<rpm>0.00</rpm>
</extensions>
</trkpt>
<trkpt lat="32.585590363" lon="35.004440308">
  <ele>155.224670</ele>
  <time>2012-06-23T05:13:00Z</time>
<extensions>
<speed>3.1</speed>
<temp>0.00</temp>
<bpm>0</bpm>
<rpm>0.00</rpm>
</extensions>
</trkpt>
<trkpt lat="32.585601807" lon="35.004402161">
  <ele>154.982483</ele>
  <time>2012-06-23T05:13:01Z</time>
<extensions>
<speed>3.3</speed>
<temp>0.00</temp>
<bpm>0</bpm>
<rpm>0.00</rpm>
</extensions>
</trkpt>
<trkpt lat="32.585620880" lon="35.004371643">
  <ele>154.962952</ele>
  <time>2012-06-23T05:13:02Z</time>
<extensions>
<speed>3.3</speed>
<temp>0.00</temp>
<bpm>0</bpm>
<rpm>0.00</rpm>
</extensions>
</trkpt>
<trkpt lat="32.585636139" lon="35.004341125">
  <ele>155.435608</ele>
  <time>2012-06-23T05:13:03Z</time>
<extensions>
<speed>3.5</speed>
<temp>0.00</temp>
<bpm>0</bpm>
<rpm>0.00</rpm>
</extensions>
</trkpt>
<trkpt lat="32.585651398" lon="35.004310608">
  <ele>155.521545</ele>
  <time>2012-06-23T05:13:04Z</time>
<extensions>
<speed>3.4</speed>
<temp>0.00</temp>
<bpm>0</bpm>
<rpm>0.00</rpm>
</extensions>
</trkpt>
<trkpt lat="32.585666656" lon="35.004272461">
  <ele>155.084045</ele>
  <time>2012-06-23T05:13:05Z</time>
<extensions>
<speed>3.6</speed>
<temp>0.00</temp>
<bpm>0</bpm>
<rpm>0.00</rpm>
</extensions>
</trkpt>
<trkpt lat="32.585685730" lon="35.004241943">
  <ele>154.584045</ele>
  <time>2012-06-23T05:13:06Z</time>
<extensions>
<speed>3.9</speed>
<temp>0.00</temp>
<bpm>0</bpm>
<rpm>0.00</rpm>
</extensions>
</trkpt>
<trkpt lat="32.585700989" lon="35.004203796">
  <ele>154.677795</ele>
  <time>2012-06-23T05:13:07Z</time>
<extensions>
<speed>4.1</speed>
<temp>0.00</temp>
<bpm>0</bpm>
<rpm>0.00</rpm>
</extensions>
</trkpt>
<trkpt lat="32.585720062" lon="35.004165649">
  <ele>154.216858</ele>
  <time>2012-06-23T05:13:08Z</time>
<extensions>
<speed>3.9</speed>
<temp>0.00</temp>
<bpm>0</bpm>
<rpm>0.00</rpm>
</extensions>
</trkpt>
<trkpt lat="32.585742950" lon="35.004131317">
  <ele>154.111389</ele>
  <time>2012-06-23T05:13:09Z</time>
<extensions>
<speed>4.1</speed>
<temp>0.00</temp>
<bpm>0</bpm>
<rpm>0.00</rpm>
</extensions>
</trkpt>
<trkpt lat="32.585762024" lon="35.004093170">
  <ele>154.388733</ele>
  <time>2012-06-23T05:13:10Z</time>
<extensions>
<speed>4.0</speed>
<temp>0.00</temp>
<bpm>0</bpm>
<rpm>0.00</rpm>
</extensions>
</trkpt>
<trkpt lat="32.585784912" lon="35.004058838">
  <ele>154.361389</ele>
  <time>2012-06-23T05:13:11Z</time>
<extensions>
<speed>4.3</speed>
<temp>0.00</temp>
<bpm>0</bpm>
<rpm>0.00</rpm>
</extensions>
</trkpt>
<trkpt lat="32.585807800" lon="35.004016876">
  <ele>154.158264</ele>
  <time>2012-06-23T05:13:12Z</time>
<extensions>
<speed>4.3</speed>
<temp>0.00</temp>
<bpm>0</bpm>
<rpm>0.00</rpm>
</extensions>
</trkpt>
<trkpt lat="32.585826874" lon="35.003978729">
  <ele>154.201233</ele>
  <time>2012-06-23T05:13:13Z</time>
<extensions>
<speed>4.3</speed>
<temp>0.00</temp>
<bpm>0</bpm>
<rpm>0.00</rpm>
</extensions>
</trkpt>
<trkpt lat="32.585845947" lon="35.003932953">
  <ele>153.447327</ele>
  <time>2012-06-23T05:13:14Z</time>
<extensions>
<speed>4.4</speed>
<temp>0.00</temp>
<bpm>0</bpm>
<rpm>0.00</rpm>
</extensions>
</trkpt>
<trkpt lat="32.585861206" lon="35.003890991">
  <ele>153.705139</ele>
  <time>2012-06-23T05:13:15Z</time>
<extensions>
<speed>4.3</speed>
<temp>0.00</temp>
<bpm>0</bpm>
<rpm>0.00</rpm>
</extensions>
</trkpt>
<trkpt lat="32.585880280" lon="35.003845215">
  <ele>153.720764</ele>
  <time>2012-06-23T05:13:16Z</time>
<extensions>
<speed>4.4</speed>
<temp>0.00</temp>
<bpm>0</bpm>
<rpm>0.00</rpm>
</extensions>
</trkpt>
<trkpt lat="32.585899353" lon="35.003807068">
  <ele>154.169983</ele>
  <time>2012-06-23T05:13:17Z</time>
<extensions>
<speed>4.4</speed>
<temp>0.00</temp>
<bpm>0</bpm>
<rpm>0.00</rpm>
</extensions>
</trkpt>
<trkpt lat="32.585922241" lon="35.003768921">
  <ele>153.646545</ele>
  <time>2012-06-23T05:13:18Z</time>
<extensions>
<speed>4.4</speed>
<temp>0.00</temp>
<bpm>0</bpm>
<rpm>0.00</rpm>
</extensions>
</trkpt>
<trkpt lat="32.585952759" lon="35.003734589">
  <ele>153.392639</ele>
  <time>2012-06-23T05:13:19Z</time>
<extensions>
<speed>4.6</speed>
<temp>0.00</temp>
<bpm>0</bpm>
<rpm>0.00</rpm>
</extensions>
</trkpt>
<trkpt lat="32.585979462" lon="35.003700256">
  <ele>153.849670</ele>
  <time>2012-06-23T05:13:20Z</time>
<extensions>
<speed>4.4</speed>
<temp>0.00</temp>
<bpm>0</bpm>
<rpm>0.00</rpm>
</extensions>
</trkpt>
<trkpt lat="32.586002350" lon="35.003658295">
  <ele>154.275452</ele>
  <time>2012-06-23T05:13:21Z</time>
<extensions>
<speed>4.7</speed>
<temp>0.00</temp>
<bpm>0</bpm>
<rpm>0.00</rpm>
</extensions>
</trkpt>
<trkpt lat="32.586029053" lon="35.003620148">
  <ele>154.111389</ele>
  <time>2012-06-23T05:13:22Z</time>
<extensions>
<speed>5.1</speed>
<temp>0.00</temp>
<bpm>0</bpm>
<rpm>0.00</rpm>
</extensions>
</trkpt>
<trkpt lat="32.586059570" lon="35.003578186">
  <ele>154.052795</ele>
  <time>2012-06-23T05:13:23Z</time>
<extensions>
<speed>4.9</speed>
<temp>0.00</temp>
<bpm>0</bpm>
<rpm>0.00</rpm>
</extensions>
</trkpt>
<trkpt lat="32.586090088" lon="35.003540039">
  <ele>154.377014</ele>
  <time>2012-06-23T05:13:24Z</time>
<extensions>
<speed>4.7</speed>
<temp>0.00</temp>
<bpm>0</bpm>
<rpm>0.00</rpm>
</extensions>
</trkpt>
<trkpt lat="32.586116791" lon="35.003498077">
  <ele>155.009827</ele>
  <time>2012-06-23T05:13:25Z</time>
<extensions>
<speed>4.8</speed>
<temp>0.00</temp>
<bpm>0</bpm>
<rpm>0.00</rpm>
</extensions>
</trkpt>
<trkpt lat="32.586143494" lon="35.003456116">
  <ele>155.158264</ele>
  <time>2012-06-23T05:13:26Z</time>
<extensions>
<speed>4.9</speed>
<temp>0.00</temp>
<bpm>0</bpm>
<rpm>0.00</rpm>
</extensions>
</trkpt>
<trkpt lat="32.586166382" lon="35.003410339">
  <ele>155.052795</ele>
  <time>2012-06-23T05:13:27Z</time>
<extensions>
<speed>5.2</speed>
<temp>0.00</temp>
<bpm>0</bpm>
<rpm>0.00</rpm>
</extensions>
</trkpt>
<trkpt lat="32.586200714" lon="35.003368378">
  <ele>155.150452</ele>
  <time>2012-06-23T05:13:28Z</time>
<extensions>
<speed>5.5</speed>
<temp>0.00</temp>
<bpm>0</bpm>
<rpm>0.00</rpm>
</extensions>
</trkpt>
<trkpt lat="32.586227417" lon="35.003322601">
  <ele>155.619202</ele>
  <time>2012-06-23T05:13:29Z</time>
<extensions>
<speed>5.7</speed>
<temp>0.00</temp>
<bpm>0</bpm>
<rpm>0.00</rpm>
</extensions>
</trkpt>
<trkpt lat="32.586257935" lon="35.003276825">
  <ele>155.568420</ele>
  <time>2012-06-23T05:13:30Z</time>
<extensions>
<speed>5.6</speed>
<temp>0.00</temp>
<bpm>0</bpm>
<rpm>0.00</rpm>
</extensions>
</trkpt>
<trkpt lat="32.586296082" lon="35.003231049">
  <ele>154.955139</ele>
  <time>2012-06-23T05:13:31Z</time>
<extensions>
<speed>5.8</speed>
<temp>0.00</temp>
<bpm>0</bpm>
<rpm>0.00</rpm>
</extensions>
</trkpt>
<trkpt lat="32.586330414" lon="35.003185272">
  <ele>155.169983</ele>
  <time>2012-06-23T05:13:32Z</time>
<extensions>
<speed>5.8</speed>
<temp>0.00</temp>
<bpm>0</bpm>
<rpm>0.00</rpm>
</extensions>
</trkpt>
<trkpt lat="32.586368561" lon="35.003143311">
  <ele>155.224670</ele>
  <time>2012-06-23T05:13:33Z</time>
<extensions>
<speed>5.7</speed>
<temp>0.00</temp>
<bpm>0</bpm>
<rpm>0.00</rpm>
</extensions>
</trkpt>
<trkpt lat="32.586414337" lon="35.003116608">
  <ele>154.377014</ele>
  <time>2012-06-23T05:13:34Z</time>
<extensions>
<speed>5.5</speed>
<temp>0.00</temp>
<bpm>0</bpm>
<rpm>0.00</rpm>
</extensions>
</trkpt>
<trkpt lat="32.586452484" lon="35.003093719">
  <ele>154.271545</ele>
  <time>2012-06-23T05:13:35Z</time>
<extensions>
<speed>5.1</speed>
<temp>0.00</temp>
<bpm>0</bpm>
<rpm>0.00</rpm>
</extensions>
</trkpt>
<trkpt lat="32.586494446" lon="35.003070831">
  <ele>154.455139</ele>
  <time>2012-06-23T05:13:36Z</time>
<extensions>
<speed>4.6</speed>
<temp>0.00</temp>
<bpm>0</bpm>
<rpm>0.00</rpm>
</extensions>
</trkpt>
<trkpt lat="32.586532593" lon="35.003051758">
  <ele>154.033264</ele>
  <time>2012-06-23T05:13:37Z</time>
<extensions>
<speed>4.2</speed>
<temp>0.00</temp>
<bpm>0</bpm>
<rpm>0.00</rpm>
</extensions>
</trkpt>
<trkpt lat="32.586570740" lon="35.003025055">
  <ele>154.166077</ele>
  <time>2012-06-23T05:13:38Z</time>
<extensions>
<speed>4.3</speed>
<temp>0.00</temp>
<bpm>0</bpm>
<rpm>0.00</rpm>
</extensions>
</trkpt>
<trkpt lat="32.586601257" lon="35.002998352">
  <ele>153.798889</ele>
  <time>2012-06-23T05:13:39Z</time>
<extensions>
<speed>4.4</speed>
<temp>0.00</temp>
<bpm>0</bpm>
<rpm>0.00</rpm>
</extensions>
</trkpt>
<trkpt lat="32.586635590" lon="35.002979279">
  <ele>153.802795</ele>
  <time>2012-06-23T05:13:40Z</time>
<extensions>
<speed>4.5</speed>
<temp>0.00</temp>
<bpm>0</bpm>
<rpm>0.00</rpm>
</extensions>
</trkpt>
<trkpt lat="32.586669922" lon="35.002960205">
  <ele>153.380920</ele>
  <time>2012-06-23T05:13:41Z</time>
<extensions>
<speed>4.4</speed>
<temp>0.00</temp>
<bpm>0</bpm>
<rpm>0.00</rpm>
</extensions>
</trkpt>
<trkpt lat="32.586708069" lon="35.002948761">
  <ele>152.595764</ele>
  <time>2012-06-23T05:13:42Z</time>
<extensions>
<speed>4.3</speed>
<temp>0.00</temp>
<bpm>0</bpm>
<rpm>0.00</rpm>
</extensions>
</trkpt>
<trkpt lat="32.586738586" lon="35.002933502">
  <ele>152.294983</ele>
  <time>2012-06-23T05:13:43Z</time>
<extensions>
<speed>4.3</speed>
<temp>0.00</temp>
<bpm>0</bpm>
<rpm>0.00</rpm>
</extensions>
</trkpt>
<trkpt lat="32.586772919" lon="35.002922058">
  <ele>152.478577</ele>
  <time>2012-06-23T05:13:44Z</time>
<extensions>
<speed>3.3</speed>
<temp>0.00</temp>
<bpm>0</bpm>
<rpm>0.00</rpm>
</extensions>
</trkpt>
<trkpt lat="32.586803436" lon="35.002914429">
  <ele>152.443420</ele>
  <time>2012-06-23T05:13:45Z</time>
<extensions>
<speed>3.2</speed>
<temp>0.00</temp>
<bpm>0</bpm>
<rpm>0.00</rpm>
</extensions>
</trkpt>
<trkpt lat="32.586833954" lon="35.002914429">
  <ele>151.478577</ele>
  <time>2012-06-23T05:13:46Z</time>
<extensions>
<speed>3.4</speed>
<temp>0.00</temp>
<bpm>0</bpm>
<rpm>0.00</rpm>
</extensions>
</trkpt>
<trkpt lat="32.586864471" lon="35.002914429">
  <ele>152.423889</ele>
  <time>2012-06-23T05:13:47Z</time>
<extensions>
<speed>3.4</speed>
<temp>0.00</temp>
<bpm>0</bpm>
<rpm>0.00</rpm>
</extensions>
</trkpt>
<trkpt lat="32.586902618" lon="35.002899170">
  <ele>153.470764</ele>
  <time>2012-06-23T05:13:48Z</time>
<extensions>
<speed>3.8</speed>
<temp>0.00</temp>
<bpm>0</bpm>
<rpm>0.00</rpm>
</extensions>
</trkpt>
<trkpt lat="32.586936951" lon="35.002895355">
  <ele>154.244202</ele>
  <time>2012-06-23T05:13:49Z</time>
<extensions>
<speed>3.8</speed>
<temp>0.00</temp>
<bpm>0</bpm>
<rpm>0.00</rpm>
</extensions>
</trkpt>
<trkpt lat="32.586971283" lon="35.002891541">
  <ele>154.244202</ele>
  <time>2012-06-23T05:13:50Z</time>
<extensions>
<speed>3.6</speed>
<temp>0.00</temp>
<bpm>0</bpm>
<rpm>0.00</rpm>
</extensions>
</trkpt>
<trkpt lat="32.587005615" lon="35.002895355">
  <ele>154.568420</ele>
  <time>2012-06-23T05:13:51Z</time>
<extensions>
<speed>3.8</speed>
<temp>0.00</temp>
<bpm>0</bpm>
<rpm>0.00</rpm>
</extensions>
</trkpt>
<trkpt lat="32.587039948" lon="35.002891541">
  <ele>155.423889</ele>
  <time>2012-06-23T05:13:52Z</time>
<extensions>
<speed>3.6</speed>
<temp>0.00</temp>
<bpm>0</bpm>
<rpm>0.00</rpm>
</extensions>
</trkpt>
<trkpt lat="32.587070465" lon="35.002887726">
  <ele>155.962952</ele>
  <time>2012-06-23T05:13:53Z</time>
<extensions>
<speed>3.3</speed>
<temp>0.00</temp>
<bpm>0</bpm>
<rpm>0.00</rpm>
</extensions>
</trkpt>
<trkpt lat="32.587100983" lon="35.002876282">
  <ele>156.017639</ele>
  <time>2012-06-23T05:13:54Z</time>
<extensions>
<speed>3.0</speed>
<temp>0.00</temp>
<bpm>0</bpm>
<rpm>0.00</rpm>
</extensions>
</trkpt>
<trkpt lat="32.587127686" lon="35.002876282">
  <ele>156.228577</ele>
  <time>2012-06-23T05:13:55Z</time>
<extensions>
<speed>3.2</speed>
<temp>0.00</temp>
<bpm>0</bpm>
<rpm>0.00</rpm>
</extensions>
</trkpt>
<trkpt lat="32.587162018" lon="35.002868652">
  <ele>157.576233</ele>
  <time>2012-06-23T05:13:56Z</time>
<extensions>
<speed>3.3</speed>
<temp>0.00</temp>
<bpm>0</bpm>
<rpm>0.00</rpm>
</extensions>
</trkpt>
<trkpt lat="32.587196350" lon="35.002868652">
  <ele>157.150452</ele>
  <time>2012-06-23T05:13:57Z</time>
<extensions>
<speed>3.1</speed>
<temp>0.00</temp>
<bpm>0</bpm>
<rpm>0.00</rpm>
</extensions>
</trkpt>
<trkpt lat="32.587242126" lon="35.002857208">
  <ele>159.490295</ele>
  <time>2012-06-23T05:13:59Z</time>
<extensions>
<speed>2.3</speed>
<temp>0.00</temp>
<bpm>0</bpm>
<rpm>0.00</rpm>
</extensions>
</trkpt>
<trkpt lat="32.587280273" lon="35.002853394">
  <ele>159.466858</ele>
  <time>2012-06-23T05:14:01Z</time>
<extensions>
<speed>2.2</speed>
<temp>0.00</temp>
<bpm>0</bpm>
<rpm>0.00</rpm>
</extensions>
</trkpt>
<trkpt lat="32.587322235" lon="35.002838135">
  <ele>161.255920</ele>
  <time>2012-06-23T05:14:03Z</time>
<extensions>
<speed>2.2</speed>
<temp>0.00</temp>
<bpm>0</bpm>
<rpm>0.00</rpm>
</extensions>
</trkpt>
<trkpt lat="32.587348938" lon="35.002838135">
  <ele>162.037170</ele>
  <time>2012-06-23T05:14:04Z</time>
<extensions>
<speed>2.5</speed>
<temp>0.00</temp>
<bpm>0</bpm>
<rpm>0.00</rpm>
</extensions>
</trkpt>
<trkpt lat="32.587387085" lon="35.002841949">
  <ele>163.201233</ele>
  <time>2012-06-23T05:14:06Z</time>
<extensions>
<speed>1.8</speed>
<temp>0.00</temp>
<bpm>0</bpm>
<rpm>0.00</rpm>
</extensions>
</trkpt>
<trkpt lat="32.587421417" lon="35.002845764">
  <ele>164.052795</ele>
  <time>2012-06-23T05:14:08Z</time>
<extensions>
<speed>2.1</speed>
<temp>0.00</temp>
<bpm>0</bpm>
<rpm>0.00</rpm>
</extensions>
</trkpt>
<trkpt lat="32.587463379" lon="35.002841949">
  <ele>165.240295</ele>
  <time>2012-06-23T05:14:10Z</time>
<extensions>
<speed>1.9</speed>
<temp>0.00</temp>
<bpm>0</bpm>
<rpm>0.00</rpm>
</extensions>
</trkpt>
<trkpt lat="32.587509155" lon="35.002841949">
  <ele>166.412170</ele>
  <time>2012-06-23T05:14:12Z</time>
<extensions>
<speed>2.2</speed>
<temp>0.00</temp>
<bpm>0</bpm>
<rpm>0.00</rpm>
</extensions>
</trkpt>
<trkpt lat="32.587547302" lon="35.002819061">
  <ele>167.123108</ele>
  <time>2012-06-23T05:14:14Z</time>
<extensions>
<speed>2.1</speed>
<temp>0.00</temp>
<bpm>0</bpm>
<rpm>0.00</rpm>
</extensions>
</trkpt>
<trkpt lat="32.587585449" lon="35.002811432">
  <ele>168.095764</ele>
  <time>2012-06-23T05:14:16Z</time>
<extensions>
<speed>1.9</speed>
<temp>0.00</temp>
<bpm>0</bpm>
<rpm>0.00</rpm>
</extensions>
</trkpt>
<trkpt lat="32.587619781" lon="35.002803802">
  <ele>168.056702</ele>
  <time>2012-06-23T05:14:18Z</time>
<extensions>
<speed>2.1</speed>
<temp>0.00</temp>
<bpm>0</bpm>
<rpm>0.00</rpm>
</extensions>
</trkpt>
<trkpt lat="32.587657928" lon="35.002819061">
  <ele>167.771545</ele>
  <time>2012-06-23T05:14:20Z</time>
<extensions>
<speed>2.1</speed>
<temp>0.00</temp>
<bpm>0</bpm>
<rpm>0.00</rpm>
</extensions>
</trkpt>
<trkpt lat="32.587692261" lon="35.002841949">
  <ele>168.166077</ele>
  <time>2012-06-23T05:14:22Z</time>
<extensions>
<speed>2.2</speed>
<temp>0.00</temp>
<bpm>0</bpm>
<rpm>0.00</rpm>
</extensions>
</trkpt>
<trkpt lat="32.587734222" lon="35.002845764">
  <ele>168.962952</ele>
  <time>2012-06-23T05:14:24Z</time>
<extensions>
<speed>2.0</speed>
<temp>0.00</temp>
<bpm>0</bpm>
<rpm>0.00</rpm>
</extensions>
</trkpt>
<trkpt lat="32.587764740" lon="35.002838135">
  <ele>168.474670</ele>
  <time>2012-06-23T05:14:26Z</time>
<extensions>
<speed>1.7</speed>
<temp>0.00</temp>
<bpm>0</bpm>
<rpm>0.00</rpm>
</extensions>
</trkpt>
<trkpt lat="32.587799072" lon="35.002819061">
  <ele>168.966858</ele>
  <time>2012-06-23T05:14:28Z</time>
<extensions>
<speed>1.8</speed>
<temp>0.00</temp>
<bpm>0</bpm>
<rpm>0.00</rpm>
</extensions>
</trkpt>
<trkpt lat="32.587829590" lon="35.002807617">
  <ele>168.611389</ele>
  <time>2012-06-23T05:14:30Z</time>
<extensions>
<speed>1.4</speed>
<temp>0.00</temp>
<bpm>0</bpm>
<rpm>0.00</rpm>
</extensions>
</trkpt>
<trkpt lat="32.587860107" lon="35.002784729">
  <ele>167.642639</ele>
  <time>2012-06-23T05:14:33Z</time>
<extensions>
<speed>1.8</speed>
<temp>0.00</temp>
<bpm>0</bpm>
<rpm>0.00</rpm>
</extensions>
</trkpt>
<trkpt lat="32.587890625" lon="35.002788544">
  <ele>166.962952</ele>
  <time>2012-06-23T05:14:35Z</time>
<extensions>
<speed>2.0</speed>
<temp>0.00</temp>
<bpm>0</bpm>
<rpm>0.00</rpm>
</extensions>
</trkpt>
<trkpt lat="32.587913513" lon="35.002834320">
  <ele>166.095764</ele>
  <time>2012-06-23T05:14:37Z</time>
<extensions>
<speed>2.5</speed>
<temp>0.00</temp>
<bpm>0</bpm>
<rpm>0.00</rpm>
</extensions>
</trkpt>
<trkpt lat="32.587940216" lon="35.002876282">
  <ele>166.041077</ele>
  <time>2012-06-23T05:14:39Z</time>
<extensions>
<speed>3.1</speed>
<temp>0.00</temp>
<bpm>0</bpm>
<rpm>0.00</rpm>
</extensions>
</trkpt>
<trkpt lat="32.587955475" lon="35.002937317">
  <ele>165.353577</ele>
  <time>2012-06-23T05:14:41Z</time>
<extensions>
<speed>3.1</speed>
<temp>0.00</temp>
<bpm>0</bpm>
<rpm>0.00</rpm>
</extensions>
</trkpt>
<trkpt lat="32.587959290" lon="35.002994537">
  <ele>166.341858</ele>
  <time>2012-06-23T05:14:43Z</time>
<extensions>
<speed>2.6</speed>
<temp>0.00</temp>
<bpm>0</bpm>
<rpm>0.00</rpm>
</extensions>
</trkpt>
<trkpt lat="32.587970734" lon="35.003051758">
  <ele>167.021545</ele>
  <time>2012-06-23T05:14:45Z</time>
<extensions>
<speed>2.2</speed>
<temp>0.00</temp>
<bpm>0</bpm>
<rpm>0.00</rpm>
</extensions>
</trkpt>
<trkpt lat="32.587974548" lon="35.003097534">
  <ele>166.853577</ele>
  <time>2012-06-23T05:14:47Z</time>
<extensions>
<speed>2.2</speed>
<temp>0.00</temp>
<bpm>0</bpm>
<rpm>0.00</rpm>
</extensions>
</trkpt>
<trkpt lat="32.587974548" lon="35.003139496">
  <ele>166.955139</ele>
  <time>2012-06-23T05:14:49Z</time>
<extensions>
<speed>1.8</speed>
<temp>0.00</temp>
<bpm>0</bpm>
<rpm>0.00</rpm>
</extensions>
</trkpt>
<trkpt lat="32.587970734" lon="35.003181458">
  <ele>167.673889</ele>
  <time>2012-06-23T05:14:51Z</time>
<extensions>
<speed>2.0</speed>
<temp>0.00</temp>
<bpm>0</bpm>
<rpm>0.00</rpm>
</extensions>
</trkpt>
<trkpt lat="32.587966919" lon="35.003223419">
  <ele>168.642639</ele>
  <time>2012-06-23T05:14:53Z</time>
<extensions>
<speed>2.2</speed>
<temp>0.00</temp>
<bpm>0</bpm>
<rpm>0.00</rpm>
</extensions>
</trkpt>
<trkpt lat="32.587970734" lon="35.003265381">
  <ele>169.396545</ele>
  <time>2012-06-23T05:14:55Z</time>
<extensions>
<speed>1.9</speed>
<temp>0.00</temp>
<bpm>0</bpm>
<rpm>0.00</rpm>
</extensions>
</trkpt>
<trkpt lat="32.587970734" lon="35.003303528">
  <ele>170.615295</ele>
  <time>2012-06-23T05:14:57Z</time>
<extensions>
<speed>1.8</speed>
<temp>0.00</temp>
<bpm>0</bpm>
<rpm>0.00</rpm>
</extensions>
</trkpt>
<trkpt lat="32.587974548" lon="35.003345490">
  <ele>171.392639</ele>
  <time>2012-06-23T05:14:59Z</time>
<extensions>
<speed>1.8</speed>
<temp>0.00</temp>
<bpm>0</bpm>
<rpm>0.00</rpm>
</extensions>
</trkpt>
<trkpt lat="32.587970734" lon="35.003379822">
  <ele>172.224670</ele>
  <time>2012-06-23T05:15:01Z</time>
<extensions>
<speed>1.5</speed>
<temp>0.00</temp>
<bpm>0</bpm>
<rpm>0.00</rpm>
</extensions>
</trkpt>
<trkpt lat="32.587963104" lon="35.003421783">
  <ele>172.810608</ele>
  <time>2012-06-23T05:15:03Z</time>
<extensions>
<speed>1.8</speed>
<temp>0.00</temp>
<bpm>0</bpm>
<rpm>0.00</rpm>
</extensions>
</trkpt>
<trkpt lat="32.587970734" lon="35.003463745">
  <ele>173.689514</ele>
  <time>2012-06-23T05:15:05Z</time>
<extensions>
<speed>1.9</speed>
<temp>0.00</temp>
<bpm>0</bpm>
<rpm>0.00</rpm>
</extensions>
</trkpt>
<trkpt lat="32.587974548" lon="35.003501892">
  <ele>173.861389</ele>
  <time>2012-06-23T05:15:07Z</time>
<extensions>
<speed>1.8</speed>
<temp>0.00</temp>
<bpm>0</bpm>
<rpm>0.00</rpm>
</extensions>
</trkpt>
<trkpt lat="32.587974548" lon="35.003536224">
  <ele>174.630920</ele>
  <time>2012-06-23T05:15:09Z</time>
<extensions>
<speed>1.6</speed>
<temp>0.00</temp>
<bpm>0</bpm>
<rpm>0.00</rpm>
</extensions>
</trkpt>
<trkpt lat="32.587985992" lon="35.003578186">
  <ele>175.103577</ele>
  <time>2012-06-23T05:15:11Z</time>
<extensions>
<speed>1.8</speed>
<temp>0.00</temp>
<bpm>0</bpm>
<rpm>0.00</rpm>
</extensions>
</trkpt>
<trkpt lat="32.588001251" lon="35.003620148">
  <ele>176.564514</ele>
  <time>2012-06-23T05:15:13Z</time>
<extensions>
<speed>1.7</speed>
<temp>0.00</temp>
<bpm>0</bpm>
<rpm>0.00</rpm>
</extensions>
</trkpt>
<trkpt lat="32.588016510" lon="35.003650665">
  <ele>177.173889</ele>
  <time>2012-06-23T05:15:15Z</time>
<extensions>
<speed>1.8</speed>
<temp>0.00</temp>
<bpm>0</bpm>
<rpm>0.00</rpm>
</extensions>
</trkpt>
<trkpt lat="32.588024139" lon="35.003688812">
  <ele>177.318420</ele>
  <time>2012-06-23T05:15:17Z</time>
<extensions>
<speed>1.5</speed>
<temp>0.00</temp>
<bpm>0</bpm>
<rpm>0.00</rpm>
</extensions>
</trkpt>
<trkpt lat="32.588031769" lon="35.003723145">
  <ele>177.404358</ele>
  <time>2012-06-23T05:15:19Z</time>
<extensions>
<speed>1.6</speed>
<temp>0.00</temp>
<bpm>0</bpm>
<rpm>0.00</rpm>
</extensions>
</trkpt>
<trkpt lat="32.588039398" lon="35.003757477">
  <ele>177.302795</ele>
  <time>2012-06-23T05:15:21Z</time>
<extensions>
<speed>1.6</speed>
<temp>0.00</temp>
<bpm>0</bpm>
<rpm>0.00</rpm>
</extensions>
</trkpt>
<trkpt lat="32.588047028" lon="35.003791809">
  <ele>177.236389</ele>
  <time>2012-06-23T05:15:23Z</time>
<extensions>
<speed>1.6</speed>
<temp>0.00</temp>
<bpm>0</bpm>
<rpm>0.00</rpm>
</extensions>
</trkpt>
<trkpt lat="32.588062286" lon="35.003826141">
  <ele>177.837952</ele>
  <time>2012-06-23T05:15:25Z</time>
<extensions>
<speed>1.6</speed>
<temp>0.00</temp>
<bpm>0</bpm>
<rpm>0.00</rpm>
</extensions>
</trkpt>
<trkpt lat="32.588073730" lon="35.003864288">
  <ele>178.896545</ele>
  <time>2012-06-23T05:15:28Z</time>
<extensions>
<speed>1.8</speed>
<temp>0.00</temp>
<bpm>0</bpm>
<rpm>0.00</rpm>
</extensions>
</trkpt>
<trkpt lat="32.588073730" lon="35.003902435">
  <ele>179.638733</ele>
  <time>2012-06-23T05:15:30Z</time>
<extensions>
<speed>1.5</speed>
<temp>0.00</temp>
<bpm>0</bpm>
<rpm>0.00</rpm>
</extensions>
</trkpt>
<trkpt lat="32.588077545" lon="35.003944397">
  <ele>180.587952</ele>
  <time>2012-06-23T05:15:32Z</time>
<extensions>
<speed>2.1</speed>
<temp>0.00</temp>
<bpm>0</bpm>
<rpm>0.00</rpm>
</extensions>
</trkpt>
<trkpt lat="32.588073730" lon="35.003982544">
  <ele>181.353577</ele>
  <time>2012-06-23T05:15:34Z</time>
<extensions>
<speed>1.6</speed>
<temp>0.00</temp>
<bpm>0</bpm>
<rpm>0.00</rpm>
</extensions>
</trkpt>
<trkpt lat="32.588058472" lon="35.004020691">
  <ele>181.775452</ele>
  <time>2012-06-23T05:15:37Z</time>
<extensions>
<speed>1.3</speed>
<temp>0.00</temp>
<bpm>0</bpm>
<rpm>0.00</rpm>
</extensions>
</trkpt>
<trkpt lat="32.588035583" lon="35.004047394">
  <ele>180.720764</ele>
  <time>2012-06-23T05:15:40Z</time>
<extensions>
<speed>1.7</speed>
<temp>0.00</temp>
<bpm>0</bpm>
<rpm>0.00</rpm>
</extensions>
</trkpt>
<trkpt lat="32.588012695" lon="35.004077911">
  <ele>180.548889</ele>
  <time>2012-06-23T05:15:42Z</time>
<extensions>
<speed>1.6</speed>
<temp>0.00</temp>
<bpm>0</bpm>
<rpm>0.00</rpm>
</extensions>
</trkpt>
<trkpt lat="32.587993622" lon="35.004112244">
  <ele>180.408264</ele>
  <time>2012-06-23T05:15:45Z</time>
<extensions>
<speed>1.3</speed>
<temp>0.00</temp>
<bpm>0</bpm>
<rpm>0.00</rpm>
</extensions>
</trkpt>
<trkpt lat="32.587966919" lon="35.004135132">
  <ele>180.794983</ele>
  <time>2012-06-23T05:15:48Z</time>
<extensions>
<speed>1.3</speed>
<temp>0.00</temp>
<bpm>0</bpm>
<rpm>0.00</rpm>
</extensions>
</trkpt>
<trkpt lat="32.587940216" lon="35.004158020">
  <ele>181.087952</ele>
  <time>2012-06-23T05:15:51Z</time>
<extensions>
<speed>1.2</speed>
<temp>0.00</temp>
<bpm>0</bpm>
<rpm>0.00</rpm>
</extensions>
</trkpt>
<trkpt lat="32.587909698" lon="35.004184723">
  <ele>181.427795</ele>
  <time>2012-06-23T05:15:54Z</time>
<extensions>
<speed>0.9</speed>
<temp>0.00</temp>
<bpm>0</bpm>
<rpm>0.00</rpm>
</extensions>
</trkpt>
<trkpt lat="32.587882996" lon="35.004207611">
  <ele>181.732483</ele>
  <time>2012-06-23T05:15:57Z</time>
<extensions>
<speed>1.3</speed>
<temp>0.00</temp>
<bpm>0</bpm>
<rpm>0.00</rpm>
</extensions>
</trkpt>
<trkpt lat="32.587860107" lon="35.004234314">
  <ele>181.384827</ele>
  <time>2012-06-23T05:15:59Z</time>
<extensions>
<speed>1.0</speed>
<temp>0.00</temp>
<bpm>0</bpm>
<rpm>0.00</rpm>
</extensions>
</trkpt>
<trkpt lat="32.587837219" lon="35.004264832">
  <ele>180.724670</ele>
  <time>2012-06-23T05:16:03Z</time>
<extensions>
<speed>1.2</speed>
<temp>0.00</temp>
<bpm>0</bpm>
<rpm>0.00</rpm>
</extensions>
</trkpt>
<trkpt lat="32.587806702" lon="35.004295349">
  <ele>180.677795</ele>
  <time>2012-06-23T05:16:06Z</time>
<extensions>
<speed>1.3</speed>
<temp>0.00</temp>
<bpm>0</bpm>
<rpm>0.00</rpm>
</extensions>
</trkpt>
<trkpt lat="32.587791443" lon="35.004325867">
  <ele>180.802795</ele>
  <time>2012-06-23T05:16:09Z</time>
<extensions>
<speed>1.1</speed>
<temp>0.00</temp>
<bpm>0</bpm>
<rpm>0.00</rpm>
</extensions>
</trkpt>
<trkpt lat="32.587795258" lon="35.004367828">
  <ele>181.759827</ele>
  <time>2012-06-23T05:16:12Z</time>
<extensions>
<speed>1.4</speed>
<temp>0.00</temp>
<bpm>0</bpm>
<rpm>0.00</rpm>
</extensions>
</trkpt>
<trkpt lat="32.587802887" lon="35.004402161">
  <ele>181.873108</ele>
  <time>2012-06-23T05:16:14Z</time>
<extensions>
<speed>1.4</speed>
<temp>0.00</temp>
<bpm>0</bpm>
<rpm>0.00</rpm>
</extensions>
</trkpt>
<trkpt lat="32.587810516" lon="35.004436493">
  <ele>183.041077</ele>
  <time>2012-06-23T05:16:17Z</time>
<extensions>
<speed>1.4</speed>
<temp>0.00</temp>
<bpm>0</bpm>
<rpm>0.00</rpm>
</extensions>
</trkpt>
<trkpt lat="32.587818146" lon="35.004474640">
  <ele>183.470764</ele>
  <time>2012-06-23T05:16:19Z</time>
<extensions>
<speed>2.0</speed>
<temp>0.00</temp>
<bpm>0</bpm>
<rpm>0.00</rpm>
</extensions>
</trkpt>
<trkpt lat="32.587818146" lon="35.004508972">
  <ele>184.216858</ele>
  <time>2012-06-23T05:16:21Z</time>
<extensions>
<speed>1.8</speed>
<temp>0.00</temp>
<bpm>0</bpm>
<rpm>0.00</rpm>
</extensions>
</trkpt>
<trkpt lat="32.587818146" lon="35.004554749">
  <ele>183.701233</ele>
  <time>2012-06-23T05:16:23Z</time>
<extensions>
<speed>2.3</speed>
<temp>0.00</temp>
<bpm>0</bpm>
<rpm>0.00</rpm>
</extensions>
</trkpt>
<trkpt lat="32.587818146" lon="35.004600525">
  <ele>183.627014</ele>
  <time>2012-06-23T05:16:25Z</time>
<extensions>
<speed>2.0</speed>
<temp>0.00</temp>
<bpm>0</bpm>
<rpm>0.00</rpm>
</extensions>
</trkpt>
<trkpt lat="32.587814331" lon="35.004634857">
  <ele>183.744202</ele>
  <time>2012-06-23T05:16:27Z</time>
<extensions>
<speed>1.4</speed>
<temp>0.00</temp>
<bpm>0</bpm>
<rpm>0.00</rpm>
</extensions>
</trkpt>
<trkpt lat="32.587814331" lon="35.004665375">
  <ele>182.216858</ele>
  <time>2012-06-23T05:16:30Z</time>
<extensions>
<speed>0.3</speed>
<temp>0.00</temp>
<bpm>0</bpm>
<rpm>0.00</rpm>
</extensions>
</trkpt>
<trkpt lat="32.587814331" lon="35.004730225">
  <ele>181.576233</ele>
  <time>2012-06-23T05:17:34Z</time>
<extensions>
<speed>3.5</speed>
<temp>0.00</temp>
<bpm>0</bpm>
<rpm>0.00</rpm>
</extensions>
</trkpt>
<trkpt lat="32.587810516" lon="35.004768372">
  <ele>180.982483</ele>
  <time>2012-06-23T05:17:35Z</time>
<extensions>
<speed>3.9</speed>
<temp>0.00</temp>
<bpm>0</bpm>
<rpm>0.00</rpm>
</extensions>
</trkpt>
<trkpt lat="32.587802887" lon="35.004806519">
  <ele>180.423889</ele>
  <time>2012-06-23T05:17:36Z</time>
<extensions>
<speed>3.7</speed>
<temp>0.00</temp>
<bpm>0</bpm>
<rpm>0.00</rpm>
</extensions>
</trkpt>
<trkpt lat="32.587787628" lon="35.004840851">
  <ele>179.943420</ele>
  <time>2012-06-23T05:17:37Z</time>
<extensions>
<speed>3.5</speed>
<temp>0.00</temp>
<bpm>0</bpm>
<rpm>0.00</rpm>
</extensions>
</trkpt>
<trkpt lat="32.587776184" lon="35.004875183">
  <ele>179.478577</ele>
  <time>2012-06-23T05:17:38Z</time>
<extensions>
<speed>3.8</speed>
<temp>0.00</temp>
<bpm>0</bpm>
<rpm>0.00</rpm>
</extensions>
</trkpt>
<trkpt lat="32.587760925" lon="35.004909515">
  <ele>178.669983</ele>
  <time>2012-06-23T05:17:39Z</time>
<extensions>
<speed>3.6</speed>
<temp>0.00</temp>
<bpm>0</bpm>
<rpm>0.00</rpm>
</extensions>
</trkpt>
<trkpt lat="32.587745667" lon="35.004936218">
  <ele>177.177795</ele>
  <time>2012-06-23T05:17:40Z</time>
<extensions>
<speed>3.4</speed>
<temp>0.00</temp>
<bpm>0</bpm>
<rpm>0.00</rpm>
</extensions>
</trkpt>
<trkpt lat="32.587726593" lon="35.004970551">
  <ele>176.611389</ele>
  <time>2012-06-23T05:17:41Z</time>
<extensions>
<speed>3.4</speed>
<temp>0.00</temp>
<bpm>0</bpm>
<rpm>0.00</rpm>
</extensions>
</trkpt>
<trkpt lat="32.587707520" lon="35.005001068">
  <ele>176.330139</ele>
  <time>2012-06-23T05:17:42Z</time>
<extensions>
<speed>3.0</speed>
<temp>0.00</temp>
<bpm>0</bpm>
<rpm>0.00</rpm>
</extensions>
</trkpt>
<trkpt lat="32.587684631" lon="35.005027771">
  <ele>175.716858</ele>
  <time>2012-06-23T05:17:43Z</time>
<extensions>
<speed>3.2</speed>
<temp>0.00</temp>
<bpm>0</bpm>
<rpm>0.00</rpm>
</extensions>
</trkpt>
<trkpt lat="32.587661743" lon="35.005058289">
  <ele>174.748108</ele>
  <time>2012-06-23T05:17:45Z</time>
<extensions>
<speed>1.5</speed>
<temp>0.00</temp>
<bpm>0</bpm>
<rpm>0.00</rpm>
</extensions>
</trkpt>
<trkpt lat="32.587661743" lon="35.005096436">
  <ele>173.544983</ele>
  <time>2012-06-23T05:17:47Z</time>
<extensions>
<speed>1.8</speed>
<temp>0.00</temp>
<bpm>0</bpm>
<rpm>0.00</rpm>
</extensions>
</trkpt>
<trkpt lat="32.587638855" lon="35.005123138">
  <ele>171.978577</ele>
  <time>2012-06-23T05:17:49Z</time>
<extensions>
<speed>2.2</speed>
<temp>0.00</temp>
<bpm>0</bpm>
<rpm>0.00</rpm>
</extensions>
</trkpt>
<trkpt lat="32.587623596" lon="35.005172729">
  <ele>170.822327</ele>
  <time>2012-06-23T05:17:51Z</time>
<extensions>
<speed>1.8</speed>
<temp>0.00</temp>
<bpm>0</bpm>
<rpm>0.00</rpm>
</extensions>
</trkpt>
<trkpt lat="32.587646484" lon="35.005210876">
  <ele>169.130920</ele>
  <time>2012-06-23T05:17:53Z</time>
<extensions>
<speed>2.4</speed>
<temp>0.00</temp>
<bpm>0</bpm>
<rpm>0.00</rpm>
</extensions>
</trkpt>
<trkpt lat="32.587661743" lon="35.005252838">
  <ele>168.044983</ele>
  <time>2012-06-23T05:17:55Z</time>
<extensions>
<speed>2.4</speed>
<temp>0.00</temp>
<bpm>0</bpm>
<rpm>0.00</rpm>
</extensions>
</trkpt>
<trkpt lat="32.587631226" lon="35.005290985">
  <ele>166.537170</ele>
  <time>2012-06-23T05:17:57Z</time>
<extensions>
<speed>3.0</speed>
<temp>0.00</temp>
<bpm>0</bpm>
<rpm>0.00</rpm>
</extensions>
</trkpt>
<trkpt lat="32.587600708" lon="35.005306244">
  <ele>166.197327</ele>
  <time>2012-06-23T05:17:58Z</time>
<extensions>
<speed>3.2</speed>
<temp>0.00</temp>
<bpm>0</bpm>
<rpm>0.00</rpm>
</extensions>
</trkpt>
<trkpt lat="32.587577820" lon="35.005321503">
  <ele>165.310608</ele>
  <time>2012-06-23T05:17:59Z</time>
<extensions>
<speed>2.8</speed>
<temp>0.00</temp>
<bpm>0</bpm>
<rpm>0.00</rpm>
</extensions>
</trkpt>
<trkpt lat="32.587554932" lon="35.005340576">
  <ele>164.482483</ele>
  <time>2012-06-23T05:18:00Z</time>
<extensions>
<speed>3.0</speed>
<temp>0.00</temp>
<bpm>0</bpm>
<rpm>0.00</rpm>
</extensions>
</trkpt>
<trkpt lat="32.587539673" lon="35.005386353">
  <ele>162.806702</ele>
  <time>2012-06-23T05:18:02Z</time>
<extensions>
<speed>1.1</speed>
<temp>0.00</temp>
<bpm>0</bpm>
<rpm>0.00</rpm>
</extensions>
</trkpt>
<trkpt lat="32.587551117" lon="35.005397797">
  <ele>165.466858</ele>
  <time>2012-06-23T05:18:06Z</time>
<extensions>
<speed>0.4</speed>
<temp>0.00</temp>
<bpm>0</bpm>
<rpm>0.00</rpm>
</extensions>
</trkpt>
<trkpt lat="32.587532043" lon="35.005420685">
  <ele>165.150452</ele>
  <time>2012-06-23T05:18:27Z</time>
<extensions>
<speed>1.7</speed>
<temp>0.00</temp>
<bpm>0</bpm>
<rpm>0.00</rpm>
</extensions>
</trkpt>
<trkpt lat="32.587516785" lon="35.005485535">
  <ele>164.630920</ele>
  <time>2012-06-23T05:18:29Z</time>
<extensions>
<speed>2.7</speed>
<temp>0.00</temp>
<bpm>0</bpm>
<rpm>0.00</rpm>
</extensions>
</trkpt>
<trkpt lat="32.587501526" lon="35.005538940">
  <ele>162.810608</ele>
  <time>2012-06-23T05:18:31Z</time>
<extensions>
<speed>2.2</speed>
<temp>0.00</temp>
<bpm>0</bpm>
<rpm>0.00</rpm>
</extensions>
</trkpt>
<trkpt lat="32.587482452" lon="35.005577087">
  <ele>162.025452</ele>
  <time>2012-06-23T05:18:33Z</time>
<extensions>
<speed>1.6</speed>
<temp>0.00</temp>
<bpm>0</bpm>
<rpm>0.00</rpm>
</extensions>
</trkpt>
<trkpt lat="32.587474823" lon="35.005607605">
  <ele>160.861389</ele>
  <time>2012-06-23T05:18:35Z</time>
<extensions>
<speed>1.3</speed>
<temp>0.00</temp>
<bpm>0</bpm>
<rpm>0.00</rpm>
</extensions>
</trkpt>
<trkpt lat="32.587467194" lon="35.005630493">
  <ele>158.087952</ele>
  <time>2012-06-23T05:18:38Z</time>
<extensions>
<speed>0.3</speed>
<temp>0.00</temp>
<bpm>0</bpm>
<rpm>0.00</rpm>
</extensions>
</trkpt>
<trkpt lat="32.587474823" lon="35.005657196">
  <ele>156.912170</ele>
  <time>2012-06-23T05:19:32Z</time>
<extensions>
<speed>0.7</speed>
<temp>0.00</temp>
<bpm>0</bpm>
<rpm>0.00</rpm>
</extensions>
</trkpt>
<trkpt lat="32.587455750" lon="35.005699158">
  <ele>156.041077</ele>
  <time>2012-06-23T05:19:34Z</time>
<extensions>
<speed>1.9</speed>
<temp>0.00</temp>
<bpm>0</bpm>
<rpm>0.00</rpm>
</extensions>
</trkpt>
<trkpt lat="32.587455750" lon="35.005737305">
  <ele>156.732483</ele>
  <time>2012-06-23T05:19:40Z</time>
<extensions>
<speed>0.5</speed>
<temp>0.00</temp>
<bpm>0</bpm>
<rpm>0.00</rpm>
</extensions>
</trkpt>
<trkpt lat="32.587463379" lon="35.005786896">
  <ele>156.697327</ele>
  <time>2012-06-23T05:19:43Z</time>
<extensions>
<speed>0.8</speed>
<temp>0.00</temp>
<bpm>0</bpm>
<rpm>0.00</rpm>
</extensions>
</trkpt>
<trkpt lat="32.587467194" lon="35.005817413">
  <ele>156.482483</ele>
  <time>2012-06-23T05:19:48Z</time>
<extensions>
<speed>0.5</speed>
<temp>0.00</temp>
<bpm>0</bpm>
<rpm>0.00</rpm>
</extensions>
</trkpt>
<trkpt lat="32.587474823" lon="35.005851746">
  <ele>156.005920</ele>
  <time>2012-06-23T05:19:50Z</time>
<extensions>
<speed>1.8</speed>
<temp>0.00</temp>
<bpm>0</bpm>
<rpm>0.00</rpm>
</extensions>
</trkpt>
<trkpt lat="32.587486267" lon="35.005897522">
  <ele>154.919983</ele>
  <time>2012-06-23T05:19:52Z</time>
<extensions>
<speed>2.1</speed>
<temp>0.00</temp>
<bpm>0</bpm>
<rpm>0.00</rpm>
</extensions>
</trkpt>
<trkpt lat="32.587493896" lon="35.005950928">
  <ele>153.275452</ele>
  <time>2012-06-23T05:19:55Z</time>
<extensions>
<speed>2.3</speed>
<temp>0.00</temp>
<bpm>0</bpm>
<rpm>0.00</rpm>
</extensions>
</trkpt>
<trkpt lat="32.587505341" lon="35.006000519">
  <ele>151.513733</ele>
  <time>2012-06-23T05:19:57Z</time>
<extensions>
<speed>2.9</speed>
<temp>0.00</temp>
<bpm>0</bpm>
<rpm>0.00</rpm>
</extensions>
</trkpt>
<trkpt lat="32.587520599" lon="35.006057739">
  <ele>150.064514</ele>
  <time>2012-06-23T05:19:59Z</time>
<extensions>
<speed>2.6</speed>
<temp>0.00</temp>
<bpm>0</bpm>
<rpm>0.00</rpm>
</extensions>
</trkpt>
<trkpt lat="32.587535858" lon="35.006107330">
  <ele>148.728577</ele>
  <time>2012-06-23T05:20:01Z</time>
<extensions>
<speed>1.9</speed>
<temp>0.00</temp>
<bpm>0</bpm>
<rpm>0.00</rpm>
</extensions>
</trkpt>
<trkpt lat="32.587558746" lon="35.006126404">
  <ele>147.775452</ele>
  <time>2012-06-23T05:20:03Z</time>
<extensions>
<speed>1.2</speed>
<temp>0.00</temp>
<bpm>0</bpm>
<rpm>0.00</rpm>
</extensions>
</trkpt>
<trkpt lat="32.587600708" lon="35.006145477">
  <ele>145.810608</ele>
  <time>2012-06-23T05:20:06Z</time>
<extensions>
<speed>2.4</speed>
<temp>0.00</temp>
<bpm>0</bpm>
<rpm>0.00</rpm>
</extensions>
</trkpt>
<trkpt lat="32.587661743" lon="35.006172180">
  <ele>145.615295</ele>
  <time>2012-06-23T05:20:08Z</time>
<extensions>
<speed>3.0</speed>
<temp>0.00</temp>
<bpm>0</bpm>
<rpm>0.00</rpm>
</extensions>
</trkpt>
<trkpt lat="32.587692261" lon="35.006191254">
  <ele>144.966858</ele>
  <time>2012-06-23T05:20:09Z</time>
<extensions>
<speed>3.5</speed>
<temp>0.00</temp>
<bpm>0</bpm>
<rpm>0.00</rpm>
</extensions>
</trkpt>
<trkpt lat="32.587718964" lon="35.006221771">
  <ele>143.771545</ele>
  <time>2012-06-23T05:20:10Z</time>
<extensions>
<speed>3.3</speed>
<temp>0.00</temp>
<bpm>0</bpm>
<rpm>0.00</rpm>
</extensions>
</trkpt>
<trkpt lat="32.587738037" lon="35.006256104">
  <ele>142.752014</ele>
  <time>2012-06-23T05:20:11Z</time>
<extensions>
<speed>3.5</speed>
<temp>0.00</temp>
<bpm>0</bpm>
<rpm>0.00</rpm>
</extensions>
</trkpt>
<trkpt lat="32.587764740" lon="35.006294250">
  <ele>143.072327</ele>
  <time>2012-06-23T05:20:12Z</time>
<extensions>
<speed>3.2</speed>
<temp>0.00</temp>
<bpm>0</bpm>
<rpm>0.00</rpm>
</extensions>
</trkpt>
<trkpt lat="32.587795258" lon="35.006317139">
  <ele>142.806702</ele>
  <time>2012-06-23T05:20:13Z</time>
<extensions>
<speed>2.8</speed>
<temp>0.00</temp>
<bpm>0</bpm>
<rpm>0.00</rpm>
</extensions>
</trkpt>
<trkpt lat="32.587825775" lon="35.006343842">
  <ele>141.322327</ele>
  <time>2012-06-23T05:20:15Z</time>
<extensions>
<speed>1.7</speed>
<temp>0.00</temp>
<bpm>0</bpm>
<rpm>0.00</rpm>
</extensions>
</trkpt>
<trkpt lat="32.587856293" lon="35.006347656">
  <ele>139.927795</ele>
  <time>2012-06-23T05:20:16Z</time>
<extensions>
<speed>1.1</speed>
<temp>0.00</temp>
<bpm>0</bpm>
<rpm>0.00</rpm>
</extensions>
</trkpt>
<trkpt lat="32.587871552" lon="35.006378174">
  <ele>138.822327</ele>
  <time>2012-06-23T05:20:18Z</time>
<extensions>
<speed>1.7</speed>
<temp>0.00</temp>
<bpm>0</bpm>
<rpm>0.00</rpm>
</extensions>
</trkpt>
<trkpt lat="32.587875366" lon="35.006408691">
  <ele>137.209045</ele>
  <time>2012-06-23T05:20:20Z</time>
<extensions>
<speed>1.5</speed>
<temp>0.00</temp>
<bpm>0</bpm>
<rpm>0.00</rpm>
</extensions>
</trkpt>
<trkpt lat="32.587879181" lon="35.006443024">
  <ele>136.400452</ele>
  <time>2012-06-23T05:20:22Z</time>
<extensions>
<speed>1.4</speed>
<temp>0.00</temp>
<bpm>0</bpm>
<rpm>0.00</rpm>
</extensions>
</trkpt>
<trkpt lat="32.587875366" lon="35.006481171">
  <ele>135.724670</ele>
  <time>2012-06-23T05:20:24Z</time>
<extensions>
<speed>1.9</speed>
<temp>0.00</temp>
<bpm>0</bpm>
<rpm>0.00</rpm>
</extensions>
</trkpt>
<trkpt lat="32.587890625" lon="35.006530762">
  <ele>134.798889</ele>
  <time>2012-06-23T05:20:26Z</time>
<extensions>
<speed>2.3</speed>
<temp>0.00</temp>
<bpm>0</bpm>
<rpm>0.00</rpm>
</extensions>
</trkpt>
<trkpt lat="32.587936401" lon="35.006546021">
  <ele>133.916077</ele>
  <time>2012-06-23T05:20:28Z</time>
<extensions>
<speed>1.4</speed>
<temp>0.00</temp>
<bpm>0</bpm>
<rpm>0.00</rpm>
</extensions>
</trkpt>
<trkpt lat="32.587963104" lon="35.006549835">
  <ele>132.853577</ele>
  <time>2012-06-23T05:20:30Z</time>
<extensions>
<speed>1.8</speed>
<temp>0.00</temp>
<bpm>0</bpm>
<rpm>0.00</rpm>
</extensions>
</trkpt>
<trkpt lat="32.587997437" lon="35.006580353">
  <ele>131.677795</ele>
  <time>2012-06-23T05:20:33Z</time>
<extensions>
<speed>2.2</speed>
<temp>0.00</temp>
<bpm>0</bpm>
<rpm>0.00</rpm>
</extensions>
</trkpt>
<trkpt lat="32.588012695" lon="35.006618500">
  <ele>131.232483</ele>
  <time>2012-06-23T05:20:35Z</time>
<extensions>
<speed>1.9</speed>
<temp>0.00</temp>
<bpm>0</bpm>
<rpm>0.00</rpm>
</extensions>
</trkpt>
<trkpt lat="32.588008881" lon="35.006645203">
  <ele>129.252014</ele>
  <time>2012-06-23T05:20:36Z</time>
<extensions>
<speed>2.1</speed>
<temp>0.00</temp>
<bpm>0</bpm>
<rpm>0.00</rpm>
</extensions>
</trkpt>
<trkpt lat="32.587985992" lon="35.006683350">
  <ele>127.237335</ele>
  <time>2012-06-23T05:20:38Z</time>
<extensions>
<speed>2.4</speed>
<temp>0.00</temp>
<bpm>0</bpm>
<rpm>0.00</rpm>
</extensions>
</trkpt>
<trkpt lat="32.587978363" lon="35.006713867">
  <ele>125.981476</ele>
  <time>2012-06-23T05:20:39Z</time>
<extensions>
<speed>2.3</speed>
<temp>0.00</temp>
<bpm>0</bpm>
<rpm>0.00</rpm>
</extensions>
</trkpt>
<trkpt lat="32.587974548" lon="35.006752014">
  <ele>124.813507</ele>
  <time>2012-06-23T05:20:40Z</time>
<extensions>
<speed>2.9</speed>
<temp>0.00</temp>
<bpm>0</bpm>
<rpm>0.00</rpm>
</extensions>
</trkpt>
<trkpt lat="32.587963104" lon="35.006786346">
  <ele>124.258820</ele>
  <time>2012-06-23T05:20:41Z</time>
<extensions>
<speed>2.4</speed>
<temp>0.00</temp>
<bpm>0</bpm>
<rpm>0.00</rpm>
</extensions>
</trkpt>
<trkpt lat="32.587951660" lon="35.006847382">
  <ele>122.518585</ele>
  <time>2012-06-23T05:20:43Z</time>
<extensions>
<speed>2.8</speed>
<temp>0.00</temp>
<bpm>0</bpm>
<rpm>0.00</rpm>
</extensions>
</trkpt>
<trkpt lat="32.587947845" lon="35.006908417">
  <ele>121.508820</ele>
  <time>2012-06-23T05:20:44Z</time>
<extensions>
<speed>2.8</speed>
<temp>0.00</temp>
<bpm>0</bpm>
<rpm>0.00</rpm>
</extensions>
</trkpt>
<trkpt lat="32.587955475" lon="35.006938934">
  <ele>120.758820</ele>
  <time>2012-06-23T05:20:45Z</time>
<extensions>
<speed>2.5</speed>
<temp>0.00</temp>
<bpm>0</bpm>
<rpm>0.00</rpm>
</extensions>
</trkpt>
<trkpt lat="32.587993622" lon="35.006980896">
  <ele>119.362335</ele>
  <time>2012-06-23T05:20:47Z</time>
<extensions>
<speed>3.0</speed>
<temp>0.00</temp>
<bpm>0</bpm>
<rpm>0.00</rpm>
</extensions>
</trkpt>
<trkpt lat="32.588020325" lon="35.007003784">
  <ele>118.379913</ele>
  <time>2012-06-23T05:20:48Z</time>
<extensions>
<speed>3.0</speed>
<temp>0.00</temp>
<bpm>0</bpm>
<rpm>0.00</rpm>
</extensions>
</trkpt>
<trkpt lat="32.588043213" lon="35.007034302">
  <ele>117.440460</ele>
  <time>2012-06-23T05:20:49Z</time>
<extensions>
<speed>2.7</speed>
<temp>0.00</temp>
<bpm>0</bpm>
<rpm>0.00</rpm>
</extensions>
</trkpt>
<trkpt lat="32.588062286" lon="35.007064819">
  <ele>116.366241</ele>
  <time>2012-06-23T05:20:50Z</time>
<extensions>
<speed>3.0</speed>
<temp>0.00</temp>
<bpm>0</bpm>
<rpm>0.00</rpm>
</extensions>
</trkpt>
<trkpt lat="32.588066101" lon="35.007095337">
  <ele>114.772491</ele>
  <time>2012-06-23T05:20:51Z</time>
<extensions>
<speed>3.3</speed>
<temp>0.00</temp>
<bpm>0</bpm>
<rpm>0.00</rpm>
</extensions>
</trkpt>
<trkpt lat="32.588066101" lon="35.007125854">
  <ele>113.293976</ele>
  <time>2012-06-23T05:20:52Z</time>
<extensions>
<speed>2.3</speed>
<temp>0.00</temp>
<bpm>0</bpm>
<rpm>0.00</rpm>
</extensions>
</trkpt>
<trkpt lat="32.588039398" lon="35.007167816">
  <ele>112.006866</ele>
  <time>2012-06-23T05:20:54Z</time>
<extensions>
<speed>2.1</speed>
<temp>0.00</temp>
<bpm>0</bpm>
<rpm>0.00</rpm>
</extensions>
</trkpt>
<trkpt lat="32.588024139" lon="35.007213593">
  <ele>110.131866</ele>
  <time>2012-06-23T05:20:56Z</time>
<extensions>
<speed>2.7</speed>
<temp>0.00</temp>
<bpm>0</bpm>
<rpm>0.00</rpm>
</extensions>
</trkpt>
<trkpt lat="32.588012695" lon="35.007244110">
  <ele>108.721710</ele>
  <time>2012-06-23T05:20:57Z</time>
<extensions>
<speed>3.1</speed>
<temp>0.00</temp>
<bpm>0</bpm>
<rpm>0.00</rpm>
</extensions>
</trkpt>
<trkpt lat="32.587989807" lon="35.007263184">
  <ele>107.577179</ele>
  <time>2012-06-23T05:20:58Z</time>
<extensions>
<speed>2.9</speed>
<temp>0.00</temp>
<bpm>0</bpm>
<rpm>0.00</rpm>
</extensions>
</trkpt>
<trkpt lat="32.587974548" lon="35.007289886">
  <ele>107.266632</ele>
  <time>2012-06-23T05:20:59Z</time>
<extensions>
<speed>2.7</speed>
<temp>0.00</temp>
<bpm>0</bpm>
<rpm>0.00</rpm>
</extensions>
</trkpt>
<trkpt lat="32.587947845" lon="35.007320404">
  <ele>105.967804</ele>
  <time>2012-06-23T05:21:01Z</time>
<extensions>
<speed>1.1</speed>
<temp>0.00</temp>
<bpm>0</bpm>
<rpm>0.00</rpm>
</extensions>
</trkpt>
<trkpt lat="32.587947845" lon="35.007373810">
  <ele>107.422882</ele>
  <time>2012-06-23T05:21:03Z</time>
<extensions>
<speed>1.1</speed>
<temp>0.00</temp>
<bpm>0</bpm>
<rpm>0.00</rpm>
</extensions>
</trkpt>
<trkpt lat="32.587955475" lon="35.007423401">
  <ele>107.836945</ele>
  <time>2012-06-23T05:21:05Z</time>
<extensions>
<speed>1.2</speed>
<temp>0.00</temp>
<bpm>0</bpm>
<rpm>0.00</rpm>
</extensions>
</trkpt>
<trkpt lat="32.587974548" lon="35.007453918">
  <ele>107.461945</ele>
  <time>2012-06-23T05:21:07Z</time>
<extensions>
<speed>1.8</speed>
<temp>0.00</temp>
<bpm>0</bpm>
<rpm>0.00</rpm>
</extensions>
</trkpt>
<trkpt lat="32.588008881" lon="35.007484436">
  <ele>107.088898</ele>
  <time>2012-06-23T05:21:09Z</time>
<extensions>
<speed>2.1</speed>
<temp>0.00</temp>
<bpm>0</bpm>
<rpm>0.00</rpm>
</extensions>
</trkpt>
<trkpt lat="32.588039398" lon="35.007492065">
  <ele>106.668976</ele>
  <time>2012-06-23T05:21:11Z</time>
<extensions>
<speed>1.5</speed>
<temp>0.00</temp>
<bpm>0</bpm>
<rpm>0.00</rpm>
</extensions>
</trkpt>
<trkpt lat="32.588062286" lon="35.007503510">
  <ele>105.461945</ele>
  <time>2012-06-23T05:21:13Z</time>
<extensions>
<speed>1.2</speed>
<temp>0.00</temp>
<bpm>0</bpm>
<rpm>0.00</rpm>
</extensions>
</trkpt>
<trkpt lat="32.588047028" lon="35.007526398">
  <ele>104.227570</ele>
  <time>2012-06-23T05:21:15Z</time>
<extensions>
<speed>1.2</speed>
<temp>0.00</temp>
<bpm>0</bpm>
<rpm>0.00</rpm>
</extensions>
</trkpt>
<trkpt lat="32.588039398" lon="35.007549286">
  <ele>102.114288</ele>
  <time>2012-06-23T05:21:19Z</time>
<extensions>
<speed>0.8</speed>
<temp>0.00</temp>
<bpm>0</bpm>
<rpm>0.00</rpm>
</extensions>
</trkpt>
<trkpt lat="32.588005066" lon="35.007560730">
  <ele>100.727570</ele>
  <time>2012-06-23T05:21:22Z</time>
<extensions>
<speed>1.8</speed>
<temp>0.00</temp>
<bpm>0</bpm>
<rpm>0.00</rpm>
</extensions>
</trkpt>
<trkpt lat="32.587970734" lon="35.007556915">
  <ele>99.782257</ele>
  <time>2012-06-23T05:21:25Z</time>
<extensions>
<speed>1.6</speed>
<temp>0.00</temp>
<bpm>0</bpm>
<rpm>0.00</rpm>
</extensions>
</trkpt>
<trkpt lat="32.587932587" lon="35.007541656">
  <ele>98.459991</ele>
  <time>2012-06-23T05:21:28Z</time>
<extensions>
<speed>1.2</speed>
<temp>0.00</temp>
<bpm>0</bpm>
<rpm>0.00</rpm>
</extensions>
</trkpt>
<trkpt lat="32.587902069" lon="35.007530212">
  <ele>97.649445</ele>
  <time>2012-06-23T05:21:31Z</time>
<extensions>
<speed>1.7</speed>
<temp>0.00</temp>
<bpm>0</bpm>
<rpm>0.00</rpm>
</extensions>
</trkpt>
<trkpt lat="32.587860107" lon="35.007534027">
  <ele>97.042023</ele>
  <time>2012-06-23T05:21:33Z</time>
<extensions>
<speed>1.6</speed>
<temp>0.00</temp>
<bpm>0</bpm>
<rpm>0.00</rpm>
</extensions>
</trkpt>
<trkpt lat="32.587818146" lon="35.007526398">
  <ele>96.936554</ele>
  <time>2012-06-23T05:21:35Z</time>
<extensions>
<speed>1.9</speed>
<temp>0.00</temp>
<bpm>0</bpm>
<rpm>0.00</rpm>
</extensions>
</trkpt>
<trkpt lat="32.587776184" lon="35.007545471">
  <ele>96.293976</ele>
  <time>2012-06-23T05:21:37Z</time>
<extensions>
<speed>2.4</speed>
<temp>0.00</temp>
<bpm>0</bpm>
<rpm>0.00</rpm>
</extensions>
</trkpt>
<trkpt lat="32.587745667" lon="35.007556915">
  <ele>95.928741</ele>
  <time>2012-06-23T05:21:38Z</time>
<extensions>
<speed>3.6</speed>
<temp>0.00</temp>
<bpm>0</bpm>
<rpm>0.00</rpm>
</extensions>
</trkpt>
<trkpt lat="32.587707520" lon="35.007610321">
  <ele>96.629913</ele>
  <time>2012-06-23T05:21:39Z</time>
<extensions>
<speed>5.3</speed>
<temp>0.00</temp>
<bpm>0</bpm>
<rpm>0.00</rpm>
</extensions>
</trkpt>
<trkpt lat="32.587669373" lon="35.007648468">
  <ele>96.952179</ele>
  <time>2012-06-23T05:21:40Z</time>
<extensions>
<speed>3.4</speed>
<temp>0.00</temp>
<bpm>0</bpm>
<rpm>0.00</rpm>
</extensions>
</trkpt>
<trkpt lat="32.587657928" lon="35.007690430">
  <ele>97.372101</ele>
  <time>2012-06-23T05:21:41Z</time>
<extensions>
<speed>2.6</speed>
<temp>0.00</temp>
<bpm>0</bpm>
<rpm>0.00</rpm>
</extensions>
</trkpt>
<trkpt lat="32.587642670" lon="35.007762909">
  <ele>96.876007</ele>
  <time>2012-06-23T05:21:43Z</time>
<extensions>
<speed>2.1</speed>
<temp>0.00</temp>
<bpm>0</bpm>
<rpm>0.00</rpm>
</extensions>
</trkpt>
<trkpt lat="32.587638855" lon="35.007797241">
  <ele>97.461945</ele>
  <time>2012-06-23T05:21:44Z</time>
<extensions>
<speed>1.0</speed>
<temp>0.00</temp>
<bpm>0</bpm>
<rpm>0.00</rpm>
</extensions>
</trkpt>
<trkpt lat="32.587638855" lon="35.007835388">
  <ele>97.131866</ele>
  <time>2012-06-23T05:21:47Z</time>
<extensions>
<speed>0.6</speed>
<temp>0.00</temp>
<bpm>0</bpm>
<rpm>0.00</rpm>
</extensions>
</trkpt>
<trkpt lat="32.587638855" lon="35.007869720">
  <ele>97.469757</ele>
  <time>2012-06-23T05:21:50Z</time>
<extensions>
<speed>0.9</speed>
<temp>0.00</temp>
<bpm>0</bpm>
<rpm>0.00</rpm>
</extensions>
</trkpt>
<trkpt lat="32.587635040" lon="35.007907867">
  <ele>98.479523</ele>
  <time>2012-06-23T05:21:53Z</time>
<extensions>
<speed>0.9</speed>
<temp>0.00</temp>
<bpm>0</bpm>
<rpm>0.00</rpm>
</extensions>
</trkpt>
<trkpt lat="32.587665558" lon="35.007953644">
  <ele>98.100616</ele>
  <time>2012-06-23T05:21:56Z</time>
<extensions>
<speed>1.0</speed>
<temp>0.00</temp>
<bpm>0</bpm>
<rpm>0.00</rpm>
</extensions>
</trkpt>
<trkpt lat="32.587677002" lon="35.007984161">
  <ele>98.381866</ele>
  <time>2012-06-23T05:21:59Z</time>
<extensions>
<speed>0.9</speed>
<temp>0.00</temp>
<bpm>0</bpm>
<rpm>0.00</rpm>
</extensions>
</trkpt>
<trkpt lat="32.587688446" lon="35.008018494">
  <ele>98.795929</ele>
  <time>2012-06-23T05:22:02Z</time>
<extensions>
<speed>0.9</speed>
<temp>0.00</temp>
<bpm>0</bpm>
<rpm>0.00</rpm>
</extensions>
</trkpt>
<trkpt lat="32.587703705" lon="35.008045197">
  <ele>98.581085</ele>
  <time>2012-06-23T05:22:05Z</time>
<extensions>
<speed>0.7</speed>
<temp>0.00</temp>
<bpm>0</bpm>
<rpm>0.00</rpm>
</extensions>
</trkpt>
<trkpt lat="32.587711334" lon="35.008079529">
  <ele>98.325226</ele>
  <time>2012-06-23T05:22:09Z</time>
<extensions>
<speed>1.0</speed>
<temp>0.00</temp>
<bpm>0</bpm>
<rpm>0.00</rpm>
</extensions>
</trkpt>
<trkpt lat="32.587718964" lon="35.008113861">
  <ele>98.338898</ele>
  <time>2012-06-23T05:22:11Z</time>
<extensions>
<speed>1.5</speed>
<temp>0.00</temp>
<bpm>0</bpm>
<rpm>0.00</rpm>
</extensions>
</trkpt>
<trkpt lat="32.587730408" lon="35.008148193">
  <ele>98.627960</ele>
  <time>2012-06-23T05:22:13Z</time>
<extensions>
<speed>2.0</speed>
<temp>0.00</temp>
<bpm>0</bpm>
<rpm>0.00</rpm>
</extensions>
</trkpt>
<trkpt lat="32.587753296" lon="35.008190155">
  <ele>99.663116</ele>
  <time>2012-06-23T05:22:15Z</time>
<extensions>
<speed>1.8</speed>
<temp>0.00</temp>
<bpm>0</bpm>
<rpm>0.00</rpm>
</extensions>
</trkpt>
<trkpt lat="32.587764740" lon="35.008216858">
  <ele>101.407257</ele>
  <time>2012-06-23T05:22:16Z</time>
<extensions>
<speed>1.8</speed>
<temp>0.00</temp>
<bpm>0</bpm>
<rpm>0.00</rpm>
</extensions>
</trkpt>
<trkpt lat="32.587802887" lon="35.008243561">
  <ele>102.637726</ele>
  <time>2012-06-23T05:22:18Z</time>
<extensions>
<speed>1.7</speed>
<temp>0.00</temp>
<bpm>0</bpm>
<rpm>0.00</rpm>
</extensions>
</trkpt>
<trkpt lat="32.587825775" lon="35.008270264">
  <ele>102.631866</ele>
  <time>2012-06-23T05:22:20Z</time>
<extensions>
<speed>1.8</speed>
<temp>0.00</temp>
<bpm>0</bpm>
<rpm>0.00</rpm>
</extensions>
</trkpt>
<trkpt lat="32.587860107" lon="35.008289337">
  <ele>102.178741</ele>
  <time>2012-06-23T05:22:22Z</time>
<extensions>
<speed>1.9</speed>
<temp>0.00</temp>
<bpm>0</bpm>
<rpm>0.00</rpm>
</extensions>
</trkpt>
<trkpt lat="32.587894440" lon="35.008312225">
  <ele>101.709991</ele>
  <time>2012-06-23T05:22:24Z</time>
<extensions>
<speed>1.8</speed>
<temp>0.00</temp>
<bpm>0</bpm>
<rpm>0.00</rpm>
</extensions>
</trkpt>
<trkpt lat="32.587924957" lon="35.008346558">
  <ele>101.297882</ele>
  <time>2012-06-23T05:22:26Z</time>
<extensions>
<speed>1.8</speed>
<temp>0.00</temp>
<bpm>0</bpm>
<rpm>0.00</rpm>
</extensions>
</trkpt>
<trkpt lat="32.587951660" lon="35.008380890">
  <ele>101.290070</ele>
  <time>2012-06-23T05:22:28Z</time>
<extensions>
<speed>2.4</speed>
<temp>0.00</temp>
<bpm>0</bpm>
<rpm>0.00</rpm>
</extensions>
</trkpt>
<trkpt lat="32.587978363" lon="35.008411407">
  <ele>101.036163</ele>
  <time>2012-06-23T05:22:30Z</time>
<extensions>
<speed>2.3</speed>
<temp>0.00</temp>
<bpm>0</bpm>
<rpm>0.00</rpm>
</extensions>
</trkpt>
<trkpt lat="32.588008881" lon="35.008453369">
  <ele>101.018585</ele>
  <time>2012-06-23T05:22:32Z</time>
<extensions>
<speed>2.4</speed>
<temp>0.00</temp>
<bpm>0</bpm>
<rpm>0.00</rpm>
</extensions>
</trkpt>
<trkpt lat="32.588031769" lon="35.008480072">
  <ele>101.061554</ele>
  <time>2012-06-23T05:22:34Z</time>
<extensions>
<speed>2.1</speed>
<temp>0.00</temp>
<bpm>0</bpm>
<rpm>0.00</rpm>
</extensions>
</trkpt>
<trkpt lat="32.588050842" lon="35.008522034">
  <ele>100.778351</ele>
  <time>2012-06-23T05:22:36Z</time>
<extensions>
<speed>2.3</speed>
<temp>0.00</temp>
<bpm>0</bpm>
<rpm>0.00</rpm>
</extensions>
</trkpt>
<trkpt lat="32.588081360" lon="35.008560181">
  <ele>102.594757</ele>
  <time>2012-06-23T05:22:38Z</time>
<extensions>
<speed>2.1</speed>
<temp>0.00</temp>
<bpm>0</bpm>
<rpm>0.00</rpm>
</extensions>
</trkpt>
<trkpt lat="32.588119507" lon="35.008598328">
  <ele>103.846710</ele>
  <time>2012-06-23T05:22:40Z</time>
<extensions>
<speed>2.2</speed>
<temp>0.00</temp>
<bpm>0</bpm>
<rpm>0.00</rpm>
</extensions>
</trkpt>
<trkpt lat="32.588150024" lon="35.008636475">
  <ele>104.862335</ele>
  <time>2012-06-23T05:22:42Z</time>
<extensions>
<speed>2.1</speed>
<temp>0.00</temp>
<bpm>0</bpm>
<rpm>0.00</rpm>
</extensions>
</trkpt>
<trkpt lat="32.588172913" lon="35.008674622">
  <ele>105.895538</ele>
  <time>2012-06-23T05:22:44Z</time>
<extensions>
<speed>2.3</speed>
<temp>0.00</temp>
<bpm>0</bpm>
<rpm>0.00</rpm>
</extensions>
</trkpt>
<trkpt lat="32.588184357" lon="35.008712769">
  <ele>106.614288</ele>
  <time>2012-06-23T05:22:46Z</time>
<extensions>
<speed>1.7</speed>
<temp>0.00</temp>
<bpm>0</bpm>
<rpm>0.00</rpm>
</extensions>
</trkpt>
<trkpt lat="32.588211060" lon="35.008747101">
  <ele>106.575226</ele>
  <time>2012-06-23T05:22:48Z</time>
<extensions>
<speed>1.6</speed>
<temp>0.00</temp>
<bpm>0</bpm>
<rpm>0.00</rpm>
</extensions>
</trkpt>
<trkpt lat="32.588233948" lon="35.008789063">
  <ele>105.606476</ele>
  <time>2012-06-23T05:22:50Z</time>
<extensions>
<speed>2.4</speed>
<temp>0.00</temp>
<bpm>0</bpm>
<rpm>0.00</rpm>
</extensions>
</trkpt>
<trkpt lat="32.588260651" lon="35.008827209">
  <ele>105.098663</ele>
  <time>2012-06-23T05:22:52Z</time>
<extensions>
<speed>2.5</speed>
<temp>0.00</temp>
<bpm>0</bpm>
<rpm>0.00</rpm>
</extensions>
</trkpt>
<trkpt lat="32.588275909" lon="35.008869171">
  <ele>105.383820</ele>
  <time>2012-06-23T05:22:54Z</time>
<extensions>
<speed>2.0</speed>
<temp>0.00</temp>
<bpm>0</bpm>
<rpm>0.00</rpm>
</extensions>
</trkpt>
<trkpt lat="32.588291168" lon="35.008903503">
  <ele>104.969757</ele>
  <time>2012-06-23T05:22:56Z</time>
<extensions>
<speed>2.2</speed>
<temp>0.00</temp>
<bpm>0</bpm>
<rpm>0.00</rpm>
</extensions>
</trkpt>
<trkpt lat="32.588310242" lon="35.008937836">
  <ele>105.215851</ele>
  <time>2012-06-23T05:22:58Z</time>
<extensions>
<speed>2.2</speed>
<temp>0.00</temp>
<bpm>0</bpm>
<rpm>0.00</rpm>
</extensions>
</trkpt>
<trkpt lat="32.588325500" lon="35.008983612">
  <ele>105.858429</ele>
  <time>2012-06-23T05:23:00Z</time>
<extensions>
<speed>2.0</speed>
<temp>0.00</temp>
<bpm>0</bpm>
<rpm>0.00</rpm>
</extensions>
</trkpt>
<trkpt lat="32.588340759" lon="35.009029388">
  <ele>105.702179</ele>
  <time>2012-06-23T05:23:02Z</time>
<extensions>
<speed>2.4</speed>
<temp>0.00</temp>
<bpm>0</bpm>
<rpm>0.00</rpm>
</extensions>
</trkpt>
<trkpt lat="32.588356018" lon="35.009082794">
  <ele>104.823273</ele>
  <time>2012-06-23T05:23:04Z</time>
<extensions>
<speed>2.3</speed>
<temp>0.00</temp>
<bpm>0</bpm>
<rpm>0.00</rpm>
</extensions>
</trkpt>
<trkpt lat="32.588359833" lon="35.009143829">
  <ele>105.126007</ele>
  <time>2012-06-23T05:23:06Z</time>
<extensions>
<speed>2.8</speed>
<temp>0.00</temp>
<bpm>0</bpm>
<rpm>0.00</rpm>
</extensions>
</trkpt>
<trkpt lat="32.588363647" lon="35.009197235">
  <ele>106.163116</ele>
  <time>2012-06-23T05:23:08Z</time>
<extensions>
<speed>2.9</speed>
<temp>0.00</temp>
<bpm>0</bpm>
<rpm>0.00</rpm>
</extensions>
</trkpt>
<trkpt lat="32.588367462" lon="35.009250641">
  <ele>106.973663</ele>
  <time>2012-06-23T05:23:10Z</time>
<extensions>
<speed>2.9</speed>
<temp>0.00</temp>
<bpm>0</bpm>
<rpm>0.00</rpm>
</extensions>
</trkpt>
<trkpt lat="32.588382721" lon="35.009281158">
  <ele>106.965851</ele>
  <time>2012-06-23T05:23:11Z</time>
<extensions>
<speed>2.9</speed>
<temp>0.00</temp>
<bpm>0</bpm>
<rpm>0.00</rpm>
</extensions>
</trkpt>
<trkpt lat="32.588405609" lon="35.009311676">
  <ele>106.807648</ele>
  <time>2012-06-23T05:23:12Z</time>
<extensions>
<speed>2.9</speed>
<temp>0.00</temp>
<bpm>0</bpm>
<rpm>0.00</rpm>
</extensions>
</trkpt>
<trkpt lat="32.588413239" lon="35.009376526">
  <ele>106.432648</ele>
  <time>2012-06-23T05:23:14Z</time>
<extensions>
<speed>2.7</speed>
<temp>0.00</temp>
<bpm>0</bpm>
<rpm>0.00</rpm>
</extensions>
</trkpt>
<trkpt lat="32.588420868" lon="35.009410858">
  <ele>105.733429</ele>
  <time>2012-06-23T05:23:15Z</time>
<extensions>
<speed>3.0</speed>
<temp>0.00</temp>
<bpm>0</bpm>
<rpm>0.00</rpm>
</extensions>
</trkpt>
<trkpt lat="32.588420868" lon="35.009445190">
  <ele>105.813507</ele>
  <time>2012-06-23T05:23:16Z</time>
<extensions>
<speed>2.8</speed>
<temp>0.00</temp>
<bpm>0</bpm>
<rpm>0.00</rpm>
</extensions>
</trkpt>
<trkpt lat="32.588420868" lon="35.009494781">
  <ele>106.764679</ele>
  <time>2012-06-23T05:23:18Z</time>
<extensions>
<speed>2.5</speed>
<temp>0.00</temp>
<bpm>0</bpm>
<rpm>0.00</rpm>
</extensions>
</trkpt>
<trkpt lat="32.588420868" lon="35.009552002">
  <ele>107.657257</ele>
  <time>2012-06-23T05:23:20Z</time>
<extensions>
<speed>2.4</speed>
<temp>0.00</temp>
<bpm>0</bpm>
<rpm>0.00</rpm>
</extensions>
</trkpt>
<trkpt lat="32.588443756" lon="35.009609222">
  <ele>107.409210</ele>
  <time>2012-06-23T05:23:22Z</time>
<extensions>
<speed>2.7</speed>
<temp>0.00</temp>
<bpm>0</bpm>
<rpm>0.00</rpm>
</extensions>
</trkpt>
<trkpt lat="32.588447571" lon="35.009666443">
  <ele>108.227570</ele>
  <time>2012-06-23T05:23:24Z</time>
<extensions>
<speed>2.7</speed>
<temp>0.00</temp>
<bpm>0</bpm>
<rpm>0.00</rpm>
</extensions>
</trkpt>
<trkpt lat="32.588451385" lon="35.009731293">
  <ele>107.950226</ele>
  <time>2012-06-23T05:23:26Z</time>
<extensions>
<speed>3.1</speed>
<temp>0.00</temp>
<bpm>0</bpm>
<rpm>0.00</rpm>
</extensions>
</trkpt>
<trkpt lat="32.588443756" lon="35.009788513">
  <ele>108.450226</ele>
  <time>2012-06-23T05:23:28Z</time>
<extensions>
<speed>2.3</speed>
<temp>0.00</temp>
<bpm>0</bpm>
<rpm>0.00</rpm>
</extensions>
</trkpt>
<trkpt lat="32.588432312" lon="35.009841919">
  <ele>109.600616</ele>
  <time>2012-06-23T05:23:30Z</time>
<extensions>
<speed>2.1</speed>
<temp>0.00</temp>
<bpm>0</bpm>
<rpm>0.00</rpm>
</extensions>
</trkpt>
<trkpt lat="32.588436127" lon="35.009887695">
  <ele>109.590851</ele>
  <time>2012-06-23T05:23:32Z</time>
<extensions>
<speed>1.9</speed>
<temp>0.00</temp>
<bpm>0</bpm>
<rpm>0.00</rpm>
</extensions>
</trkpt>
<trkpt lat="32.588436127" lon="35.009922028">
  <ele>110.071320</ele>
  <time>2012-06-23T05:23:34Z</time>
<extensions>
<speed>1.9</speed>
<temp>0.00</temp>
<bpm>0</bpm>
<rpm>0.00</rpm>
</extensions>
</trkpt>
<trkpt lat="32.588432312" lon="35.009963989">
  <ele>110.161163</ele>
  <time>2012-06-23T05:23:36Z</time>
<extensions>
<speed>1.4</speed>
<temp>0.00</temp>
<bpm>0</bpm>
<rpm>0.00</rpm>
</extensions>
</trkpt>
<trkpt lat="32.588432312" lon="35.010002136">
  <ele>110.399445</ele>
  <time>2012-06-23T05:23:38Z</time>
<extensions>
<speed>1.5</speed>
<temp>0.00</temp>
<bpm>0</bpm>
<rpm>0.00</rpm>
</extensions>
</trkpt>
<trkpt lat="32.588424683" lon="35.010051727">
  <ele>110.227570</ele>
  <time>2012-06-23T05:23:40Z</time>
<extensions>
<speed>2.4</speed>
<temp>0.00</temp>
<bpm>0</bpm>
<rpm>0.00</rpm>
</extensions>
</trkpt>
<trkpt lat="32.588432312" lon="35.010108948">
  <ele>111.126007</ele>
  <time>2012-06-23T05:23:42Z</time>
<extensions>
<speed>2.2</speed>
<temp>0.00</temp>
<bpm>0</bpm>
<rpm>0.00</rpm>
</extensions>
</trkpt>
<trkpt lat="32.588439941" lon="35.010154724">
  <ele>111.014679</ele>
  <time>2012-06-23T05:23:44Z</time>
<extensions>
<speed>2.3</speed>
<temp>0.00</temp>
<bpm>0</bpm>
<rpm>0.00</rpm>
</extensions>
</trkpt>
<trkpt lat="32.588443756" lon="35.010208130">
  <ele>111.266632</ele>
  <time>2012-06-23T05:23:46Z</time>
<extensions>
<speed>2.2</speed>
<temp>0.00</temp>
<bpm>0</bpm>
<rpm>0.00</rpm>
</extensions>
</trkpt>
<trkpt lat="32.588436127" lon="35.010253906">
  <ele>111.284210</ele>
  <time>2012-06-23T05:23:48Z</time>
<extensions>
<speed>1.9</speed>
<temp>0.00</temp>
<bpm>0</bpm>
<rpm>0.00</rpm>
</extensions>
</trkpt>
<trkpt lat="32.588443756" lon="35.010295868">
  <ele>111.475616</ele>
  <time>2012-06-23T05:23:50Z</time>
<extensions>
<speed>1.6</speed>
<temp>0.00</temp>
<bpm>0</bpm>
<rpm>0.00</rpm>
</extensions>
</trkpt>
<trkpt lat="32.588443756" lon="35.010334015">
  <ele>112.047882</ele>
  <time>2012-06-23T05:23:51Z</time>
<extensions>
<speed>2.1</speed>
<temp>0.00</temp>
<bpm>0</bpm>
<rpm>0.00</rpm>
</extensions>
</trkpt>
<trkpt lat="32.588451385" lon="35.010379791">
  <ele>112.170929</ele>
  <time>2012-06-23T05:23:53Z</time>
<extensions>
<speed>2.3</speed>
<temp>0.00</temp>
<bpm>0</bpm>
<rpm>0.00</rpm>
</extensions>
</trkpt>
<trkpt lat="32.588474274" lon="35.010421753">
  <ele>113.678741</ele>
  <time>2012-06-23T05:23:54Z</time>
<extensions>
<speed>2.3</speed>
<temp>0.00</temp>
<bpm>0</bpm>
<rpm>0.00</rpm>
</extensions>
</trkpt>
<trkpt lat="32.588489532" lon="35.010475159">
  <ele>113.104523</ele>
  <time>2012-06-23T05:23:56Z</time>
<extensions>
<speed>2.5</speed>
<temp>0.00</temp>
<bpm>0</bpm>
<rpm>0.00</rpm>
</extensions>
</trkpt>
<trkpt lat="32.588500977" lon="35.010505676">
  <ele>113.608429</ele>
  <time>2012-06-23T05:23:57Z</time>
<extensions>
<speed>2.1</speed>
<temp>0.00</temp>
<bpm>0</bpm>
<rpm>0.00</rpm>
</extensions>
</trkpt>
<trkpt lat="32.588512421" lon="35.010543823">
  <ele>114.565460</ele>
  <time>2012-06-23T05:23:59Z</time>
<extensions>
<speed>2.0</speed>
<temp>0.00</temp>
<bpm>0</bpm>
<rpm>0.00</rpm>
</extensions>
</trkpt>
<trkpt lat="32.588527679" lon="35.010581970">
  <ele>115.354523</ele>
  <time>2012-06-23T05:24:01Z</time>
<extensions>
<speed>2.2</speed>
<temp>0.00</temp>
<bpm>0</bpm>
<rpm>0.00</rpm>
</extensions>
</trkpt>
<trkpt lat="32.588542938" lon="35.010623932">
  <ele>115.344757</ele>
  <time>2012-06-23T05:24:03Z</time>
<extensions>
<speed>2.0</speed>
<temp>0.00</temp>
<bpm>0</bpm>
<rpm>0.00</rpm>
</extensions>
</trkpt>
<trkpt lat="32.588558197" lon="35.010673523">
  <ele>115.180695</ele>
  <time>2012-06-23T05:24:05Z</time>
<extensions>
<speed>2.4</speed>
<temp>0.00</temp>
<bpm>0</bpm>
<rpm>0.00</rpm>
</extensions>
</trkpt>
<trkpt lat="32.588569641" lon="35.010719299">
  <ele>114.555695</ele>
  <time>2012-06-23T05:24:07Z</time>
<extensions>
<speed>2.4</speed>
<temp>0.00</temp>
<bpm>0</bpm>
<rpm>0.00</rpm>
</extensions>
</trkpt>
<trkpt lat="32.588577271" lon="35.010784149">
  <ele>115.108429</ele>
  <time>2012-06-23T05:24:09Z</time>
<extensions>
<speed>3.0</speed>
<temp>0.00</temp>
<bpm>0</bpm>
<rpm>0.00</rpm>
</extensions>
</trkpt>
<trkpt lat="32.588584900" lon="35.010818481">
  <ele>115.682648</ele>
  <time>2012-06-23T05:24:10Z</time>
<extensions>
<speed>2.5</speed>
<temp>0.00</temp>
<bpm>0</bpm>
<rpm>0.00</rpm>
</extensions>
</trkpt>
<trkpt lat="32.588596344" lon="35.010871887">
  <ele>115.372101</ele>
  <time>2012-06-23T05:24:12Z</time>
<extensions>
<speed>2.3</speed>
<temp>0.00</temp>
<bpm>0</bpm>
<rpm>0.00</rpm>
</extensions>
</trkpt>
<trkpt lat="32.588611603" lon="35.010929108">
  <ele>114.553741</ele>
  <time>2012-06-23T05:24:14Z</time>
<extensions>
<speed>2.7</speed>
<temp>0.00</temp>
<bpm>0</bpm>
<rpm>0.00</rpm>
</extensions>
</trkpt>
<trkpt lat="32.588630676" lon="35.010993958">
  <ele>114.764679</ele>
  <time>2012-06-23T05:24:16Z</time>
<extensions>
<speed>2.9</speed>
<temp>0.00</temp>
<bpm>0</bpm>
<rpm>0.00</rpm>
</extensions>
</trkpt>
<trkpt lat="32.588645935" lon="35.011047363">
  <ele>115.532257</ele>
  <time>2012-06-23T05:24:18Z</time>
<extensions>
<speed>2.7</speed>
<temp>0.00</temp>
<bpm>0</bpm>
<rpm>0.00</rpm>
</extensions>
</trkpt>
<trkpt lat="32.588657379" lon="35.011074066">
  <ele>116.516632</ele>
  <time>2012-06-23T05:24:19Z</time>
<extensions>
<speed>2.8</speed>
<temp>0.00</temp>
<bpm>0</bpm>
<rpm>0.00</rpm>
</extensions>
</trkpt>
<trkpt lat="32.588668823" lon="35.011104584">
  <ele>117.167023</ele>
  <time>2012-06-23T05:24:20Z</time>
<extensions>
<speed>2.6</speed>
<temp>0.00</temp>
<bpm>0</bpm>
<rpm>0.00</rpm>
</extensions>
</trkpt>
<trkpt lat="32.588668823" lon="35.011142731">
  <ele>117.766632</ele>
  <time>2012-06-23T05:24:21Z</time>
<extensions>
<speed>3.0</speed>
<temp>0.00</temp>
<bpm>0</bpm>
<rpm>0.00</rpm>
</extensions>
</trkpt>
<trkpt lat="32.588676453" lon="35.011177063">
  <ele>117.885773</ele>
  <time>2012-06-23T05:24:22Z</time>
<extensions>
<speed>3.2</speed>
<temp>0.00</temp>
<bpm>0</bpm>
<rpm>0.00</rpm>
</extensions>
</trkpt>
<trkpt lat="32.588687897" lon="35.011207581">
  <ele>118.157257</ele>
  <time>2012-06-23T05:24:23Z</time>
<extensions>
<speed>3.3</speed>
<temp>0.00</temp>
<bpm>0</bpm>
<rpm>0.00</rpm>
</extensions>
</trkpt>
<trkpt lat="32.588695526" lon="35.011245728">
  <ele>118.151398</ele>
  <time>2012-06-23T05:24:24Z</time>
<extensions>
<speed>3.7</speed>
<temp>0.00</temp>
<bpm>0</bpm>
<rpm>0.00</rpm>
</extensions>
</trkpt>
<trkpt lat="32.588706970" lon="35.011295319">
  <ele>117.932648</ele>
  <time>2012-06-23T05:24:25Z</time>
<extensions>
<speed>3.8</speed>
<temp>0.00</temp>
<bpm>0</bpm>
<rpm>0.00</rpm>
</extensions>
</trkpt>
<trkpt lat="32.588718414" lon="35.011333466">
  <ele>117.809601</ele>
  <time>2012-06-23T05:24:26Z</time>
<extensions>
<speed>3.6</speed>
<temp>0.00</temp>
<bpm>0</bpm>
<rpm>0.00</rpm>
</extensions>
</trkpt>
<trkpt lat="32.588726044" lon="35.011363983">
  <ele>118.004913</ele>
  <time>2012-06-23T05:24:27Z</time>
<extensions>
<speed>3.3</speed>
<temp>0.00</temp>
<bpm>0</bpm>
<rpm>0.00</rpm>
</extensions>
</trkpt>
<trkpt lat="32.588729858" lon="35.011398315">
  <ele>117.608429</ele>
  <time>2012-06-23T05:24:28Z</time>
<extensions>
<speed>3.3</speed>
<temp>0.00</temp>
<bpm>0</bpm>
<rpm>0.00</rpm>
</extensions>
</trkpt>
<trkpt lat="32.588729858" lon="35.011436462">
  <ele>118.112335</ele>
  <time>2012-06-23T05:24:29Z</time>
<extensions>
<speed>3.1</speed>
<temp>0.00</temp>
<bpm>0</bpm>
<rpm>0.00</rpm>
</extensions>
</trkpt>
<trkpt lat="32.588733673" lon="35.011474609">
  <ele>118.258820</ele>
  <time>2012-06-23T05:24:30Z</time>
<extensions>
<speed>3.3</speed>
<temp>0.00</temp>
<bpm>0</bpm>
<rpm>0.00</rpm>
</extensions>
</trkpt>
<trkpt lat="32.588733673" lon="35.011508942">
  <ele>118.602570</ele>
  <time>2012-06-23T05:24:31Z</time>
<extensions>
<speed>2.7</speed>
<temp>0.00</temp>
<bpm>0</bpm>
<rpm>0.00</rpm>
</extensions>
</trkpt>
<trkpt lat="32.588729858" lon="35.011573792">
  <ele>118.208038</ele>
  <time>2012-06-23T05:24:33Z</time>
<extensions>
<speed>2.7</speed>
<temp>0.00</temp>
<bpm>0</bpm>
<rpm>0.00</rpm>
</extensions>
</trkpt>
<trkpt lat="32.588726044" lon="35.011627197">
  <ele>117.715851</ele>
  <time>2012-06-23T05:24:35Z</time>
<extensions>
<speed>2.3</speed>
<temp>0.00</temp>
<bpm>0</bpm>
<rpm>0.00</rpm>
</extensions>
</trkpt>
<trkpt lat="32.588729858" lon="35.011676788">
  <ele>117.786163</ele>
  <time>2012-06-23T05:24:37Z</time>
<extensions>
<speed>2.0</speed>
<temp>0.00</temp>
<bpm>0</bpm>
<rpm>0.00</rpm>
</extensions>
</trkpt>
<trkpt lat="32.588737488" lon="35.011730194">
  <ele>117.836945</ele>
  <time>2012-06-23T05:24:39Z</time>
<extensions>
<speed>1.8</speed>
<temp>0.00</temp>
<bpm>0</bpm>
<rpm>0.00</rpm>
</extensions>
</trkpt>
<trkpt lat="32.588737488" lon="35.011760712">
  <ele>118.737335</ele>
  <time>2012-06-23T05:24:40Z</time>
<extensions>
<speed>2.3</speed>
<temp>0.00</temp>
<bpm>0</bpm>
<rpm>0.00</rpm>
</extensions>
</trkpt>
<trkpt lat="32.588748932" lon="35.011817932">
  <ele>118.563507</ele>
  <time>2012-06-23T05:24:42Z</time>
<extensions>
<speed>2.9</speed>
<temp>0.00</temp>
<bpm>0</bpm>
<rpm>0.00</rpm>
</extensions>
</trkpt>
<trkpt lat="32.588748932" lon="35.011856079">
  <ele>118.624054</ele>
  <time>2012-06-23T05:24:43Z</time>
<extensions>
<speed>3.3</speed>
<temp>0.00</temp>
<bpm>0</bpm>
<rpm>0.00</rpm>
</extensions>
</trkpt>
<trkpt lat="32.588752747" lon="35.011898041">
  <ele>118.235382</ele>
  <time>2012-06-23T05:24:44Z</time>
<extensions>
<speed>3.2</speed>
<temp>0.00</temp>
<bpm>0</bpm>
<rpm>0.00</rpm>
</extensions>
</trkpt>
<trkpt lat="32.588760376" lon="35.011932373">
  <ele>118.114288</ele>
  <time>2012-06-23T05:24:45Z</time>
<extensions>
<speed>3.2</speed>
<temp>0.00</temp>
<bpm>0</bpm>
<rpm>0.00</rpm>
</extensions>
</trkpt>
<trkpt lat="32.588764191" lon="35.011966705">
  <ele>118.196320</ele>
  <time>2012-06-23T05:24:46Z</time>
<extensions>
<speed>3.4</speed>
<temp>0.00</temp>
<bpm>0</bpm>
<rpm>0.00</rpm>
</extensions>
</trkpt>
<trkpt lat="32.588775635" lon="35.012001038">
  <ele>118.036163</ele>
  <time>2012-06-23T05:24:47Z</time>
<extensions>
<speed>3.4</speed>
<temp>0.00</temp>
<bpm>0</bpm>
<rpm>0.00</rpm>
</extensions>
</trkpt>
<trkpt lat="32.588779449" lon="35.012035370">
  <ele>118.397491</ele>
  <time>2012-06-23T05:24:48Z</time>
<extensions>
<speed>2.9</speed>
<temp>0.00</temp>
<bpm>0</bpm>
<rpm>0.00</rpm>
</extensions>
</trkpt>
<trkpt lat="32.588802338" lon="35.012058258">
  <ele>117.473663</ele>
  <time>2012-06-23T05:24:49Z</time>
<extensions>
<speed>2.7</speed>
<temp>0.00</temp>
<bpm>0</bpm>
<rpm>0.00</rpm>
</extensions>
</trkpt>
<trkpt lat="32.588817596" lon="35.012115479">
  <ele>117.680695</ele>
  <time>2012-06-23T05:24:51Z</time>
<extensions>
<speed>2.4</speed>
<temp>0.00</temp>
<bpm>0</bpm>
<rpm>0.00</rpm>
</extensions>
</trkpt>
<trkpt lat="32.588825226" lon="35.012145996">
  <ele>118.627960</ele>
  <time>2012-06-23T05:24:52Z</time>
<extensions>
<speed>2.9</speed>
<temp>0.00</temp>
<bpm>0</bpm>
<rpm>0.00</rpm>
</extensions>
</trkpt>
<trkpt lat="32.588859558" lon="35.012184143">
  <ele>118.665070</ele>
  <time>2012-06-23T05:24:54Z</time>
<extensions>
<speed>2.5</speed>
<temp>0.00</temp>
<bpm>0</bpm>
<rpm>0.00</rpm>
</extensions>
</trkpt>
<trkpt lat="32.588901520" lon="35.012191772">
  <ele>118.817413</ele>
  <time>2012-06-23T05:24:56Z</time>
<extensions>
<speed>2.5</speed>
<temp>0.00</temp>
<bpm>0</bpm>
<rpm>0.00</rpm>
</extensions>
</trkpt>
<trkpt lat="32.588951111" lon="35.012210846">
  <ele>119.647491</ele>
  <time>2012-06-23T05:24:58Z</time>
<extensions>
<speed>1.8</speed>
<temp>0.00</temp>
<bpm>0</bpm>
<rpm>0.00</rpm>
</extensions>
</trkpt>
<trkpt lat="32.588977814" lon="35.012214661">
  <ele>120.084991</ele>
  <time>2012-06-23T05:24:59Z</time>
<extensions>
<speed>1.8</speed>
<temp>0.00</temp>
<bpm>0</bpm>
<rpm>0.00</rpm>
</extensions>
</trkpt>
<trkpt lat="32.589012146" lon="35.012218475">
  <ele>120.184601</ele>
  <time>2012-06-23T05:25:01Z</time>
<extensions>
<speed>1.8</speed>
<temp>0.00</temp>
<bpm>0</bpm>
<rpm>0.00</rpm>
</extensions>
</trkpt>
<trkpt lat="32.589050293" lon="35.012218475">
  <ele>120.065460</ele>
  <time>2012-06-23T05:25:03Z</time>
<extensions>
<speed>2.1</speed>
<temp>0.00</temp>
<bpm>0</bpm>
<rpm>0.00</rpm>
</extensions>
</trkpt>
<trkpt lat="32.589088440" lon="35.012218475">
  <ele>119.489288</ele>
  <time>2012-06-23T05:25:05Z</time>
<extensions>
<speed>2.1</speed>
<temp>0.00</temp>
<bpm>0</bpm>
<rpm>0.00</rpm>
</extensions>
</trkpt>
<trkpt lat="32.589126587" lon="35.012233734">
  <ele>119.333038</ele>
  <time>2012-06-23T05:25:07Z</time>
<extensions>
<speed>2.3</speed>
<temp>0.00</temp>
<bpm>0</bpm>
<rpm>0.00</rpm>
</extensions>
</trkpt>
<trkpt lat="32.589164734" lon="35.012260437">
  <ele>118.954132</ele>
  <time>2012-06-23T05:25:09Z</time>
<extensions>
<speed>1.6</speed>
<temp>0.00</temp>
<bpm>0</bpm>
<rpm>0.00</rpm>
</extensions>
</trkpt>
<trkpt lat="32.589202881" lon="35.012283325">
  <ele>119.766632</ele>
  <time>2012-06-23T05:25:12Z</time>
<extensions>
<speed>1.9</speed>
<temp>0.00</temp>
<bpm>0</bpm>
<rpm>0.00</rpm>
</extensions>
</trkpt>
<trkpt lat="32.589237213" lon="35.012310028">
  <ele>119.618195</ele>
  <time>2012-06-23T05:25:14Z</time>
<extensions>
<speed>1.8</speed>
<temp>0.00</temp>
<bpm>0</bpm>
<rpm>0.00</rpm>
</extensions>
</trkpt>
<trkpt lat="32.589282990" lon="35.012332916">
  <ele>120.116241</ele>
  <time>2012-06-23T05:25:16Z</time>
<extensions>
<speed>1.6</speed>
<temp>0.00</temp>
<bpm>0</bpm>
<rpm>0.00</rpm>
</extensions>
</trkpt>
<trkpt lat="32.589321136" lon="35.012355804">
  <ele>120.598663</ele>
  <time>2012-06-23T05:25:18Z</time>
<extensions>
<speed>1.9</speed>
<temp>0.00</temp>
<bpm>0</bpm>
<rpm>0.00</rpm>
</extensions>
</trkpt>
<trkpt lat="32.589355469" lon="35.012367249">
  <ele>120.756866</ele>
  <time>2012-06-23T05:25:20Z</time>
<extensions>
<speed>1.7</speed>
<temp>0.00</temp>
<bpm>0</bpm>
<rpm>0.00</rpm>
</extensions>
</trkpt>
<trkpt lat="32.589397430" lon="35.012382507">
  <ele>120.581085</ele>
  <time>2012-06-23T05:25:22Z</time>
<extensions>
<speed>2.0</speed>
<temp>0.00</temp>
<bpm>0</bpm>
<rpm>0.00</rpm>
</extensions>
</trkpt>
<trkpt lat="32.589439392" lon="35.012401581">
  <ele>119.995148</ele>
  <time>2012-06-23T05:25:24Z</time>
<extensions>
<speed>1.8</speed>
<temp>0.00</temp>
<bpm>0</bpm>
<rpm>0.00</rpm>
</extensions>
</trkpt>
<trkpt lat="32.589481354" lon="35.012424469">
  <ele>120.547882</ele>
  <time>2012-06-23T05:25:26Z</time>
<extensions>
<speed>2.1</speed>
<temp>0.00</temp>
<bpm>0</bpm>
<rpm>0.00</rpm>
</extensions>
</trkpt>
<trkpt lat="32.589527130" lon="35.012443542">
  <ele>119.977570</ele>
  <time>2012-06-23T05:25:28Z</time>
<extensions>
<speed>2.3</speed>
<temp>0.00</temp>
<bpm>0</bpm>
<rpm>0.00</rpm>
</extensions>
</trkpt>
<trkpt lat="32.589557648" lon="35.012462616">
  <ele>120.344757</ele>
  <time>2012-06-23T05:25:29Z</time>
<extensions>
<speed>2.5</speed>
<temp>0.00</temp>
<bpm>0</bpm>
<rpm>0.00</rpm>
</extensions>
</trkpt>
<trkpt lat="32.589603424" lon="35.012485504">
  <ele>120.629913</ele>
  <time>2012-06-23T05:25:31Z</time>
<extensions>
<speed>2.6</speed>
<temp>0.00</temp>
<bpm>0</bpm>
<rpm>0.00</rpm>
</extensions>
</trkpt>
<trkpt lat="32.589626312" lon="35.012504578">
  <ele>121.407257</ele>
  <time>2012-06-23T05:25:32Z</time>
<extensions>
<speed>2.4</speed>
<temp>0.00</temp>
<bpm>0</bpm>
<rpm>0.00</rpm>
</extensions>
</trkpt>
<trkpt lat="32.589668274" lon="35.012538910">
  <ele>122.809601</ele>
  <time>2012-06-23T05:25:34Z</time>
<extensions>
<speed>2.3</speed>
<temp>0.00</temp>
<bpm>0</bpm>
<rpm>0.00</rpm>
</extensions>
</trkpt>
<trkpt lat="32.589710236" lon="35.012565613">
  <ele>123.942413</ele>
  <time>2012-06-23T05:25:36Z</time>
<extensions>
<speed>2.6</speed>
<temp>0.00</temp>
<bpm>0</bpm>
<rpm>0.00</rpm>
</extensions>
</trkpt>
<trkpt lat="32.589736938" lon="35.012573242">
  <ele>123.881866</ele>
  <time>2012-06-23T05:25:37Z</time>
<extensions>
<speed>2.6</speed>
<temp>0.00</temp>
<bpm>0</bpm>
<rpm>0.00</rpm>
</extensions>
</trkpt>
<trkpt lat="32.589763641" lon="35.012588501">
  <ele>123.854523</ele>
  <time>2012-06-23T05:25:38Z</time>
<extensions>
<speed>2.6</speed>
<temp>0.00</temp>
<bpm>0</bpm>
<rpm>0.00</rpm>
</extensions>
</trkpt>
<trkpt lat="32.589805603" lon="35.012615204">
  <ele>123.596710</ele>
  <time>2012-06-23T05:25:40Z</time>
<extensions>
<speed>2.6</speed>
<temp>0.00</temp>
<bpm>0</bpm>
<rpm>0.00</rpm>
</extensions>
</trkpt>
<trkpt lat="32.589839935" lon="35.012649536">
  <ele>123.792023</ele>
  <time>2012-06-23T05:25:42Z</time>
<extensions>
<speed>1.9</speed>
<temp>0.00</temp>
<bpm>0</bpm>
<rpm>0.00</rpm>
</extensions>
</trkpt>
<trkpt lat="32.589874268" lon="35.012676239">
  <ele>123.583038</ele>
  <time>2012-06-23T05:25:44Z</time>
<extensions>
<speed>1.8</speed>
<temp>0.00</temp>
<bpm>0</bpm>
<rpm>0.00</rpm>
</extensions>
</trkpt>
<trkpt lat="32.589904785" lon="35.012702942">
  <ele>123.456085</ele>
  <time>2012-06-23T05:25:46Z</time>
<extensions>
<speed>1.9</speed>
<temp>0.00</temp>
<bpm>0</bpm>
<rpm>0.00</rpm>
</extensions>
</trkpt>
<trkpt lat="32.589946747" lon="35.012737274">
  <ele>124.981476</ele>
  <time>2012-06-23T05:25:48Z</time>
<extensions>
<speed>2.1</speed>
<temp>0.00</temp>
<bpm>0</bpm>
<rpm>0.00</rpm>
</extensions>
</trkpt>
<trkpt lat="32.589984894" lon="35.012752533">
  <ele>125.493195</ele>
  <time>2012-06-23T05:25:50Z</time>
<extensions>
<speed>2.2</speed>
<temp>0.00</temp>
<bpm>0</bpm>
<rpm>0.00</rpm>
</extensions>
</trkpt>
<trkpt lat="32.590007782" lon="35.012775421">
  <ele>125.198273</ele>
  <time>2012-06-23T05:25:52Z</time>
<extensions>
<speed>1.9</speed>
<temp>0.00</temp>
<bpm>0</bpm>
<rpm>0.00</rpm>
</extensions>
</trkpt>
<trkpt lat="32.590049744" lon="35.012794495">
  <ele>124.106476</ele>
  <time>2012-06-23T05:25:54Z</time>
<extensions>
<speed>2.5</speed>
<temp>0.00</temp>
<bpm>0</bpm>
<rpm>0.00</rpm>
</extensions>
</trkpt>
<trkpt lat="32.590084076" lon="35.012828827">
  <ele>123.977570</ele>
  <time>2012-06-23T05:25:56Z</time>
<extensions>
<speed>2.2</speed>
<temp>0.00</temp>
<bpm>0</bpm>
<rpm>0.00</rpm>
</extensions>
</trkpt>
<trkpt lat="32.590114594" lon="35.012836456">
  <ele>123.633820</ele>
  <time>2012-06-23T05:25:57Z</time>
<extensions>
<speed>2.4</speed>
<temp>0.00</temp>
<bpm>0</bpm>
<rpm>0.00</rpm>
</extensions>
</trkpt>
<trkpt lat="32.590160370" lon="35.012851715">
  <ele>123.940460</ele>
  <time>2012-06-23T05:25:59Z</time>
<extensions>
<speed>2.5</speed>
<temp>0.00</temp>
<bpm>0</bpm>
<rpm>0.00</rpm>
</extensions>
</trkpt>
<trkpt lat="32.590190887" lon="35.012859344">
  <ele>123.973663</ele>
  <time>2012-06-23T05:26:00Z</time>
<extensions>
<speed>2.3</speed>
<temp>0.00</temp>
<bpm>0</bpm>
<rpm>0.00</rpm>
</extensions>
</trkpt>
<trkpt lat="32.590213776" lon="35.012889862">
  <ele>123.598663</ele>
  <time>2012-06-23T05:26:02Z</time>
<extensions>
<speed>1.7</speed>
<temp>0.00</temp>
<bpm>0</bpm>
<rpm>0.00</rpm>
</extensions>
</trkpt>
<trkpt lat="32.590244293" lon="35.012920380">
  <ele>124.413116</ele>
  <time>2012-06-23T05:26:04Z</time>
<extensions>
<speed>2.1</speed>
<temp>0.00</temp>
<bpm>0</bpm>
<rpm>0.00</rpm>
</extensions>
</trkpt>
<trkpt lat="32.590267181" lon="35.012950897">
  <ele>123.834991</ele>
  <time>2012-06-23T05:26:06Z</time>
<extensions>
<speed>2.2</speed>
<temp>0.00</temp>
<bpm>0</bpm>
<rpm>0.00</rpm>
</extensions>
</trkpt>
<trkpt lat="32.590309143" lon="35.012969971">
  <ele>124.491241</ele>
  <time>2012-06-23T05:26:08Z</time>
<extensions>
<speed>2.4</speed>
<temp>0.00</temp>
<bpm>0</bpm>
<rpm>0.00</rpm>
</extensions>
</trkpt>
<trkpt lat="32.590339661" lon="35.012985229">
  <ele>124.735382</ele>
  <time>2012-06-23T05:26:10Z</time>
<extensions>
<speed>2.1</speed>
<temp>0.00</temp>
<bpm>0</bpm>
<rpm>0.00</rpm>
</extensions>
</trkpt>
<trkpt lat="32.590362549" lon="35.013015747">
  <ele>124.872101</ele>
  <time>2012-06-23T05:26:12Z</time>
<extensions>
<speed>2.1</speed>
<temp>0.00</temp>
<bpm>0</bpm>
<rpm>0.00</rpm>
</extensions>
</trkpt>
<trkpt lat="32.590389252" lon="35.013050079">
  <ele>124.959991</ele>
  <time>2012-06-23T05:26:14Z</time>
<extensions>
<speed>1.9</speed>
<temp>0.00</temp>
<bpm>0</bpm>
<rpm>0.00</rpm>
</extensions>
</trkpt>
<trkpt lat="32.590419769" lon="35.013072968">
  <ele>125.479523</ele>
  <time>2012-06-23T05:26:16Z</time>
<extensions>
<speed>1.8</speed>
<temp>0.00</temp>
<bpm>0</bpm>
<rpm>0.00</rpm>
</extensions>
</trkpt>
<trkpt lat="32.590461731" lon="35.013095856">
  <ele>126.372101</ele>
  <time>2012-06-23T05:26:18Z</time>
<extensions>
<speed>1.9</speed>
<temp>0.00</temp>
<bpm>0</bpm>
<rpm>0.00</rpm>
</extensions>
</trkpt>
<trkpt lat="32.590492249" lon="35.013122559">
  <ele>126.204132</ele>
  <time>2012-06-23T05:26:20Z</time>
<extensions>
<speed>1.9</speed>
<temp>0.00</temp>
<bpm>0</bpm>
<rpm>0.00</rpm>
</extensions>
</trkpt>
<trkpt lat="32.590530396" lon="35.013145447">
  <ele>126.930695</ele>
  <time>2012-06-23T05:26:22Z</time>
<extensions>
<speed>2.1</speed>
<temp>0.00</temp>
<bpm>0</bpm>
<rpm>0.00</rpm>
</extensions>
</trkpt>
<trkpt lat="32.590564728" lon="35.013168335">
  <ele>128.279358</ele>
  <time>2012-06-23T05:26:24Z</time>
<extensions>
<speed>1.9</speed>
<temp>0.00</temp>
<bpm>0</bpm>
<rpm>0.00</rpm>
</extensions>
</trkpt>
<trkpt lat="32.590595245" lon="35.013191223">
  <ele>129.236389</ele>
  <time>2012-06-23T05:26:26Z</time>
<extensions>
<speed>1.6</speed>
<temp>0.00</temp>
<bpm>0</bpm>
<rpm>0.00</rpm>
</extensions>
</trkpt>
<trkpt lat="32.590625763" lon="35.013210297">
  <ele>129.502014</ele>
  <time>2012-06-23T05:26:28Z</time>
<extensions>
<speed>1.8</speed>
<temp>0.00</temp>
<bpm>0</bpm>
<rpm>0.00</rpm>
</extensions>
</trkpt>
<trkpt lat="32.590648651" lon="35.013229370">
  <ele>130.384827</ele>
  <time>2012-06-23T05:26:30Z</time>
<extensions>
<speed>1.8</speed>
<temp>0.00</temp>
<bpm>0</bpm>
<rpm>0.00</rpm>
</extensions>
</trkpt>
<trkpt lat="32.590675354" lon="35.013256073">
  <ele>130.927795</ele>
  <time>2012-06-23T05:26:32Z</time>
<extensions>
<speed>2.0</speed>
<temp>0.00</temp>
<bpm>0</bpm>
<rpm>0.00</rpm>
</extensions>
</trkpt>
<trkpt lat="32.590709686" lon="35.013282776">
  <ele>130.755920</ele>
  <time>2012-06-23T05:26:34Z</time>
<extensions>
<speed>1.9</speed>
<temp>0.00</temp>
<bpm>0</bpm>
<rpm>0.00</rpm>
</extensions>
</trkpt>
<trkpt lat="32.590744019" lon="35.013305664">
  <ele>131.244202</ele>
  <time>2012-06-23T05:26:36Z</time>
<extensions>
<speed>2.2</speed>
<temp>0.00</temp>
<bpm>0</bpm>
<rpm>0.00</rpm>
</extensions>
</trkpt>
<trkpt lat="32.590785980" lon="35.013328552">
  <ele>133.021545</ele>
  <time>2012-06-23T05:26:38Z</time>
<extensions>
<speed>1.9</speed>
<temp>0.00</temp>
<bpm>0</bpm>
<rpm>0.00</rpm>
</extensions>
</trkpt>
<trkpt lat="32.590827942" lon="35.013343811">
  <ele>133.427795</ele>
  <time>2012-06-23T05:26:40Z</time>
<extensions>
<speed>2.4</speed>
<temp>0.00</temp>
<bpm>0</bpm>
<rpm>0.00</rpm>
</extensions>
</trkpt>
<trkpt lat="32.590866089" lon="35.013366699">
  <ele>133.970764</ele>
  <time>2012-06-23T05:26:42Z</time>
<extensions>
<speed>2.5</speed>
<temp>0.00</temp>
<bpm>0</bpm>
<rpm>0.00</rpm>
</extensions>
</trkpt>
<trkpt lat="32.590896606" lon="35.013378143">
  <ele>133.666077</ele>
  <time>2012-06-23T05:26:43Z</time>
<extensions>
<speed>2.7</speed>
<temp>0.00</temp>
<bpm>0</bpm>
<rpm>0.00</rpm>
</extensions>
</trkpt>
<trkpt lat="32.590927124" lon="35.013412476">
  <ele>133.970764</ele>
  <time>2012-06-23T05:26:45Z</time>
<extensions>
<speed>2.5</speed>
<temp>0.00</temp>
<bpm>0</bpm>
<rpm>0.00</rpm>
</extensions>
</trkpt>
<trkpt lat="32.590950012" lon="35.013454437">
  <ele>133.509827</ele>
  <time>2012-06-23T05:26:47Z</time>
<extensions>
<speed>2.5</speed>
<temp>0.00</temp>
<bpm>0</bpm>
<rpm>0.00</rpm>
</extensions>
</trkpt>
<trkpt lat="32.590965271" lon="35.013500214">
  <ele>132.263733</ele>
  <time>2012-06-23T05:26:49Z</time>
<extensions>
<speed>2.2</speed>
<temp>0.00</temp>
<bpm>0</bpm>
<rpm>0.00</rpm>
</extensions>
</trkpt>
<trkpt lat="32.590969086" lon="35.013545990">
  <ele>133.392639</ele>
  <time>2012-06-23T05:26:51Z</time>
<extensions>
<speed>2.1</speed>
<temp>0.00</temp>
<bpm>0</bpm>
<rpm>0.00</rpm>
</extensions>
</trkpt>
<trkpt lat="32.590957642" lon="35.013584137">
  <ele>133.431702</ele>
  <time>2012-06-23T05:26:53Z</time>
<extensions>
<speed>2.1</speed>
<temp>0.00</temp>
<bpm>0</bpm>
<rpm>0.00</rpm>
</extensions>
</trkpt>
<trkpt lat="32.590938568" lon="35.013626099">
  <ele>132.834045</ele>
  <time>2012-06-23T05:26:55Z</time>
<extensions>
<speed>1.9</speed>
<temp>0.00</temp>
<bpm>0</bpm>
<rpm>0.00</rpm>
</extensions>
</trkpt>
<trkpt lat="32.590911865" lon="35.013664246">
  <ele>133.181702</ele>
  <time>2012-06-23T05:26:57Z</time>
<extensions>
<speed>2.2</speed>
<temp>0.00</temp>
<bpm>0</bpm>
<rpm>0.00</rpm>
</extensions>
</trkpt>
<trkpt lat="32.590888977" lon="35.013694763">
  <ele>133.462952</ele>
  <time>2012-06-23T05:26:59Z</time>
<extensions>
<speed>1.8</speed>
<temp>0.00</temp>
<bpm>0</bpm>
<rpm>0.00</rpm>
</extensions>
</trkpt>
<trkpt lat="32.590862274" lon="35.013721466">
  <ele>133.447327</ele>
  <time>2012-06-23T05:27:01Z</time>
<extensions>
<speed>1.8</speed>
<temp>0.00</temp>
<bpm>0</bpm>
<rpm>0.00</rpm>
</extensions>
</trkpt>
<trkpt lat="32.590831757" lon="35.013755798">
  <ele>133.654358</ele>
  <time>2012-06-23T05:27:03Z</time>
<extensions>
<speed>2.4</speed>
<temp>0.00</temp>
<bpm>0</bpm>
<rpm>0.00</rpm>
</extensions>
</trkpt>
<trkpt lat="32.590789795" lon="35.013778687">
  <ele>134.025452</ele>
  <time>2012-06-23T05:27:05Z</time>
<extensions>
<speed>2.6</speed>
<temp>0.00</temp>
<bpm>0</bpm>
<rpm>0.00</rpm>
</extensions>
</trkpt>
<trkpt lat="32.590751648" lon="35.013813019">
  <ele>134.064514</ele>
  <time>2012-06-23T05:27:07Z</time>
<extensions>
<speed>2.4</speed>
<temp>0.00</temp>
<bpm>0</bpm>
<rpm>0.00</rpm>
</extensions>
</trkpt>
<trkpt lat="32.590724945" lon="35.013832092">
  <ele>134.193420</ele>
  <time>2012-06-23T05:27:09Z</time>
<extensions>
<speed>2.1</speed>
<temp>0.00</temp>
<bpm>0</bpm>
<rpm>0.00</rpm>
</extensions>
</trkpt>
<trkpt lat="32.590679169" lon="35.013858795">
  <ele>133.880920</ele>
  <time>2012-06-23T05:27:11Z</time>
<extensions>
<speed>2.8</speed>
<temp>0.00</temp>
<bpm>0</bpm>
<rpm>0.00</rpm>
</extensions>
</trkpt>
<trkpt lat="32.590637207" lon="35.013885498">
  <ele>134.447327</ele>
  <time>2012-06-23T05:27:13Z</time>
<extensions>
<speed>2.3</speed>
<temp>0.00</temp>
<bpm>0</bpm>
<rpm>0.00</rpm>
</extensions>
</trkpt>
<trkpt lat="32.590599060" lon="35.013908386">
  <ele>133.798889</ele>
  <time>2012-06-23T05:27:15Z</time>
<extensions>
<speed>2.4</speed>
<temp>0.00</temp>
<bpm>0</bpm>
<rpm>0.00</rpm>
</extensions>
</trkpt>
<trkpt lat="32.590568542" lon="35.013916016">
  <ele>134.365295</ele>
  <time>2012-06-23T05:27:16Z</time>
<extensions>
<speed>2.3</speed>
<temp>0.00</temp>
<bpm>0</bpm>
<rpm>0.00</rpm>
</extensions>
</trkpt>
<trkpt lat="32.590526581" lon="35.013927460">
  <ele>133.951233</ele>
  <time>2012-06-23T05:27:18Z</time>
<extensions>
<speed>1.9</speed>
<temp>0.00</temp>
<bpm>0</bpm>
<rpm>0.00</rpm>
</extensions>
</trkpt>
<trkpt lat="32.590476990" lon="35.013916016">
  <ele>133.369202</ele>
  <time>2012-06-23T05:27:20Z</time>
<extensions>
<speed>2.1</speed>
<temp>0.00</temp>
<bpm>0</bpm>
<rpm>0.00</rpm>
</extensions>
</trkpt>
<trkpt lat="32.590450287" lon="35.013912201">
  <ele>133.505920</ele>
  <time>2012-06-23T05:27:22Z</time>
<extensions>
<speed>1.4</speed>
<temp>0.00</temp>
<bpm>0</bpm>
<rpm>0.00</rpm>
</extensions>
</trkpt>
<trkpt lat="32.590408325" lon="35.013908386">
  <ele>133.783264</ele>
  <time>2012-06-23T05:27:25Z</time>
<extensions>
<speed>1.8</speed>
<temp>0.00</temp>
<bpm>0</bpm>
<rpm>0.00</rpm>
</extensions>
</trkpt>
<trkpt lat="32.590370178" lon="35.013904572">
  <ele>132.869202</ele>
  <time>2012-06-23T05:27:27Z</time>
<extensions>
<speed>2.0</speed>
<temp>0.00</temp>
<bpm>0</bpm>
<rpm>0.00</rpm>
</extensions>
</trkpt>
<trkpt lat="32.590332031" lon="35.013904572">
  <ele>132.486389</ele>
  <time>2012-06-23T05:27:29Z</time>
<extensions>
<speed>1.5</speed>
<temp>0.00</temp>
<bpm>0</bpm>
<rpm>0.00</rpm>
</extensions>
</trkpt>
<trkpt lat="32.590301514" lon="35.013900757">
  <ele>132.189514</ele>
  <time>2012-06-23T05:27:30Z</time>
<extensions>
<speed>1.7</speed>
<temp>0.00</temp>
<bpm>0</bpm>
<rpm>0.00</rpm>
</extensions>
</trkpt>
<trkpt lat="32.590267181" lon="35.013893127">
  <ele>132.400452</ele>
  <time>2012-06-23T05:27:32Z</time>
<extensions>
<speed>1.9</speed>
<temp>0.00</temp>
<bpm>0</bpm>
<rpm>0.00</rpm>
</extensions>
</trkpt>
<trkpt lat="32.590213776" lon="35.013866425">
  <ele>131.572327</ele>
  <time>2012-06-23T05:27:34Z</time>
<extensions>
<speed>2.1</speed>
<temp>0.00</temp>
<bpm>0</bpm>
<rpm>0.00</rpm>
</extensions>
</trkpt>
<trkpt lat="32.590164185" lon="35.013854980">
  <ele>131.955139</ele>
  <time>2012-06-23T05:27:36Z</time>
<extensions>
<speed>2.3</speed>
<temp>0.00</temp>
<bpm>0</bpm>
<rpm>0.00</rpm>
</extensions>
</trkpt>
<trkpt lat="32.590129852" lon="35.013843536">
  <ele>130.896545</ele>
  <time>2012-06-23T05:27:38Z</time>
<extensions>
<speed>1.7</speed>
<temp>0.00</temp>
<bpm>0</bpm>
<rpm>0.00</rpm>
</extensions>
</trkpt>
<trkpt lat="32.590095520" lon="35.013839722">
  <ele>131.138733</ele>
  <time>2012-06-23T05:27:40Z</time>
<extensions>
<speed>1.3</speed>
<temp>0.00</temp>
<bpm>0</bpm>
<rpm>0.00</rpm>
</extensions>
</trkpt>
<trkpt lat="32.590068817" lon="35.013839722">
  <ele>131.228577</ele>
  <time>2012-06-23T05:28:03Z</time>
<extensions>
<speed>0.1</speed>
<temp>0.00</temp>
<bpm>0</bpm>
<rpm>0.00</rpm>
</extensions>
</trkpt>
<trkpt lat="32.590038300" lon="35.013877869">
  <ele>131.623108</ele>
  <time>2012-06-23T05:28:40Z</time>
<extensions>
<speed>3.0</speed>
<temp>0.00</temp>
<bpm>0</bpm>
<rpm>0.00</rpm>
</extensions>
</trkpt>
<trkpt lat="32.590011597" lon="35.013908386">
  <ele>131.927795</ele>
  <time>2012-06-23T05:28:41Z</time>
<extensions>
<speed>3.2</speed>
<temp>0.00</temp>
<bpm>0</bpm>
<rpm>0.00</rpm>
</extensions>
</trkpt>
<trkpt lat="32.589981079" lon="35.013935089">
  <ele>132.044983</ele>
  <time>2012-06-23T05:28:42Z</time>
<extensions>
<speed>3.7</speed>
<temp>0.00</temp>
<bpm>0</bpm>
<rpm>0.00</rpm>
</extensions>
</trkpt>
<trkpt lat="32.589942932" lon="35.013954163">
  <ele>132.283264</ele>
  <time>2012-06-23T05:28:43Z</time>
<extensions>
<speed>4.2</speed>
<temp>0.00</temp>
<bpm>0</bpm>
<rpm>0.00</rpm>
</extensions>
</trkpt>
<trkpt lat="32.589904785" lon="35.013977051">
  <ele>133.029358</ele>
  <time>2012-06-23T05:28:44Z</time>
<extensions>
<speed>4.0</speed>
<temp>0.00</temp>
<bpm>0</bpm>
<rpm>0.00</rpm>
</extensions>
</trkpt>
<trkpt lat="32.589859009" lon="35.013988495">
  <ele>133.482483</ele>
  <time>2012-06-23T05:28:45Z</time>
<extensions>
<speed>4.2</speed>
<temp>0.00</temp>
<bpm>0</bpm>
<rpm>0.00</rpm>
</extensions>
</trkpt>
<trkpt lat="32.589817047" lon="35.013996124">
  <ele>133.603577</ele>
  <time>2012-06-23T05:28:46Z</time>
<extensions>
<speed>4.4</speed>
<temp>0.00</temp>
<bpm>0</bpm>
<rpm>0.00</rpm>
</extensions>
</trkpt>
<trkpt lat="32.589775085" lon="35.013999939">
  <ele>133.404358</ele>
  <time>2012-06-23T05:28:47Z</time>
<extensions>
<speed>4.1</speed>
<temp>0.00</temp>
<bpm>0</bpm>
<rpm>0.00</rpm>
</extensions>
</trkpt>
<trkpt lat="32.589736938" lon="35.013999939">
  <ele>133.724670</ele>
  <time>2012-06-23T05:28:48Z</time>
<extensions>
<speed>4.0</speed>
<temp>0.00</temp>
<bpm>0</bpm>
<rpm>0.00</rpm>
</extensions>
</trkpt>
<trkpt lat="32.589694977" lon="35.013996124">
  <ele>133.759827</ele>
  <time>2012-06-23T05:28:49Z</time>
<extensions>
<speed>3.7</speed>
<temp>0.00</temp>
<bpm>0</bpm>
<rpm>0.00</rpm>
</extensions>
</trkpt>
<trkpt lat="32.589660645" lon="35.013992310">
  <ele>133.654358</ele>
  <time>2012-06-23T05:28:50Z</time>
<extensions>
<speed>3.8</speed>
<temp>0.00</temp>
<bpm>0</bpm>
<rpm>0.00</rpm>
</extensions>
</trkpt>
<trkpt lat="32.589622498" lon="35.013992310">
  <ele>133.412170</ele>
  <time>2012-06-23T05:28:51Z</time>
<extensions>
<speed>3.9</speed>
<temp>0.00</temp>
<bpm>0</bpm>
<rpm>0.00</rpm>
</extensions>
</trkpt>
<trkpt lat="32.589580536" lon="35.013988495">
  <ele>133.209045</ele>
  <time>2012-06-23T05:28:52Z</time>
<extensions>
<speed>4.3</speed>
<temp>0.00</temp>
<bpm>0</bpm>
<rpm>0.00</rpm>
</extensions>
</trkpt>
<trkpt lat="32.589538574" lon="35.013988495">
  <ele>133.361389</ele>
  <time>2012-06-23T05:28:53Z</time>
<extensions>
<speed>4.4</speed>
<temp>0.00</temp>
<bpm>0</bpm>
<rpm>0.00</rpm>
</extensions>
</trkpt>
<trkpt lat="32.589496613" lon="35.013992310">
  <ele>133.673889</ele>
  <time>2012-06-23T05:28:54Z</time>
<extensions>
<speed>4.5</speed>
<temp>0.00</temp>
<bpm>0</bpm>
<rpm>0.00</rpm>
</extensions>
</trkpt>
<trkpt lat="32.589450836" lon="35.013999939">
  <ele>134.162170</ele>
  <time>2012-06-23T05:28:55Z</time>
<extensions>
<speed>4.6</speed>
<temp>0.00</temp>
<bpm>0</bpm>
<rpm>0.00</rpm>
</extensions>
</trkpt>
<trkpt lat="32.589408875" lon="35.014003754">
  <ele>134.142639</ele>
  <time>2012-06-23T05:28:56Z</time>
<extensions>
<speed>4.4</speed>
<temp>0.00</temp>
<bpm>0</bpm>
<rpm>0.00</rpm>
</extensions>
</trkpt>
<trkpt lat="32.589366913" lon="35.013999939">
  <ele>134.357483</ele>
  <time>2012-06-23T05:28:57Z</time>
<extensions>
<speed>4.3</speed>
<temp>0.00</temp>
<bpm>0</bpm>
<rpm>0.00</rpm>
</extensions>
</trkpt>
<trkpt lat="32.589328766" lon="35.014007568">
  <ele>133.880920</ele>
  <time>2012-06-23T05:28:58Z</time>
<extensions>
<speed>4.6</speed>
<temp>0.00</temp>
<bpm>0</bpm>
<rpm>0.00</rpm>
</extensions>
</trkpt>
<trkpt lat="32.589279175" lon="35.014003754">
  <ele>133.923889</ele>
  <time>2012-06-23T05:28:59Z</time>
<extensions>
<speed>4.8</speed>
<temp>0.00</temp>
<bpm>0</bpm>
<rpm>0.00</rpm>
</extensions>
</trkpt>
<trkpt lat="32.589233398" lon="35.014003754">
  <ele>134.158264</ele>
  <time>2012-06-23T05:29:00Z</time>
<extensions>
<speed>4.5</speed>
<temp>0.00</temp>
<bpm>0</bpm>
<rpm>0.00</rpm>
</extensions>
</trkpt>
<trkpt lat="32.589191437" lon="35.014007568">
  <ele>133.771545</ele>
  <time>2012-06-23T05:29:01Z</time>
<extensions>
<speed>4.4</speed>
<temp>0.00</temp>
<bpm>0</bpm>
<rpm>0.00</rpm>
</extensions>
</trkpt>
<trkpt lat="32.589157104" lon="35.013992310">
  <ele>133.169983</ele>
  <time>2012-06-23T05:29:02Z</time>
<extensions>
<speed>4.1</speed>
<temp>0.00</temp>
<bpm>0</bpm>
<rpm>0.00</rpm>
</extensions>
</trkpt>
<trkpt lat="32.589118958" lon="35.013988495">
  <ele>133.712952</ele>
  <time>2012-06-23T05:29:03Z</time>
<extensions>
<speed>3.7</speed>
<temp>0.00</temp>
<bpm>0</bpm>
<rpm>0.00</rpm>
</extensions>
</trkpt>
<trkpt lat="32.589088440" lon="35.013984680">
  <ele>133.091858</ele>
  <time>2012-06-23T05:29:04Z</time>
<extensions>
<speed>3.2</speed>
<temp>0.00</temp>
<bpm>0</bpm>
<rpm>0.00</rpm>
</extensions>
</trkpt>
<trkpt lat="32.589054108" lon="35.013984680">
  <ele>133.591858</ele>
  <time>2012-06-23T05:29:05Z</time>
<extensions>
<speed>3.1</speed>
<temp>0.00</temp>
<bpm>0</bpm>
<rpm>0.00</rpm>
</extensions>
</trkpt>
<trkpt lat="32.589027405" lon="35.013992310">
  <ele>133.169983</ele>
  <time>2012-06-23T05:29:06Z</time>
<extensions>
<speed>2.8</speed>
<temp>0.00</temp>
<bpm>0</bpm>
<rpm>0.00</rpm>
</extensions>
</trkpt>
<trkpt lat="32.589004517" lon="35.014019012">
  <ele>132.755920</ele>
  <time>2012-06-23T05:29:07Z</time>
<extensions>
<speed>3.8</speed>
<temp>0.00</temp>
<bpm>0</bpm>
<rpm>0.00</rpm>
</extensions>
</trkpt>
<trkpt lat="32.588977814" lon="35.014049530">
  <ele>131.013733</ele>
  <time>2012-06-23T05:29:08Z</time>
<extensions>
<speed>3.7</speed>
<temp>0.00</temp>
<bpm>0</bpm>
<rpm>0.00</rpm>
</extensions>
</trkpt>
<trkpt lat="32.588939667" lon="35.014064789">
  <ele>130.544983</ele>
  <time>2012-06-23T05:29:09Z</time>
<extensions>
<speed>4.7</speed>
<temp>0.00</temp>
<bpm>0</bpm>
<rpm>0.00</rpm>
</extensions>
</trkpt>
<trkpt lat="32.588897705" lon="35.014068604">
  <ele>130.076233</ele>
  <time>2012-06-23T05:29:10Z</time>
<extensions>
<speed>4.4</speed>
<temp>0.00</temp>
<bpm>0</bpm>
<rpm>0.00</rpm>
</extensions>
</trkpt>
<trkpt lat="32.588851929" lon="35.014076233">
  <ele>129.709045</ele>
  <time>2012-06-23T05:29:11Z</time>
<extensions>
<speed>4.5</speed>
<temp>0.00</temp>
<bpm>0</bpm>
<rpm>0.00</rpm>
</extensions>
</trkpt>
<trkpt lat="32.588809967" lon="35.014087677">
  <ele>129.998108</ele>
  <time>2012-06-23T05:29:12Z</time>
<extensions>
<speed>4.1</speed>
<temp>0.00</temp>
<bpm>0</bpm>
<rpm>0.00</rpm>
</extensions>
</trkpt>
<trkpt lat="32.588768005" lon="35.014106750">
  <ele>130.220764</ele>
  <time>2012-06-23T05:29:13Z</time>
<extensions>
<speed>4.1</speed>
<temp>0.00</temp>
<bpm>0</bpm>
<rpm>0.00</rpm>
</extensions>
</trkpt>
<trkpt lat="32.588741302" lon="35.014133453">
  <ele>127.870148</ele>
  <time>2012-06-23T05:29:14Z</time>
<extensions>
<speed>3.6</speed>
<temp>0.00</temp>
<bpm>0</bpm>
<rpm>0.00</rpm>
</extensions>
</trkpt>
<trkpt lat="32.588714600" lon="35.014156342">
  <ele>126.959991</ele>
  <time>2012-06-23T05:29:15Z</time>
<extensions>
<speed>3.1</speed>
<temp>0.00</temp>
<bpm>0</bpm>
<rpm>0.00</rpm>
</extensions>
</trkpt>
<trkpt lat="32.588695526" lon="35.014175415">
  <ele>125.842804</ele>
  <time>2012-06-23T05:29:16Z</time>
<extensions>
<speed>3.3</speed>
<temp>0.00</temp>
<bpm>0</bpm>
<rpm>0.00</rpm>
</extensions>
</trkpt>
<trkpt lat="32.588668823" lon="35.014194489">
  <ele>125.170929</ele>
  <time>2012-06-23T05:29:17Z</time>
<extensions>
<speed>3.2</speed>
<temp>0.00</temp>
<bpm>0</bpm>
<rpm>0.00</rpm>
</extensions>
</trkpt>
<trkpt lat="32.588642120" lon="35.014205933">
  <ele>124.682648</ele>
  <time>2012-06-23T05:29:18Z</time>
<extensions>
<speed>3.0</speed>
<temp>0.00</temp>
<bpm>0</bpm>
<rpm>0.00</rpm>
</extensions>
</trkpt>
<trkpt lat="32.588607788" lon="35.014228821">
  <ele>124.284210</ele>
  <time>2012-06-23T05:29:19Z</time>
<extensions>
<speed>3.7</speed>
<temp>0.00</temp>
<bpm>0</bpm>
<rpm>0.00</rpm>
</extensions>
</trkpt>
<trkpt lat="32.588573456" lon="35.014236450">
  <ele>123.680695</ele>
  <time>2012-06-23T05:29:20Z</time>
<extensions>
<speed>3.8</speed>
<temp>0.00</temp>
<bpm>0</bpm>
<rpm>0.00</rpm>
</extensions>
</trkpt>
<trkpt lat="32.588535309" lon="35.014236450">
  <ele>123.215851</ele>
  <time>2012-06-23T05:29:21Z</time>
<extensions>
<speed>3.8</speed>
<temp>0.00</temp>
<bpm>0</bpm>
<rpm>0.00</rpm>
</extensions>
</trkpt>
<trkpt lat="32.588500977" lon="35.014236450">
  <ele>122.596710</ele>
  <time>2012-06-23T05:29:22Z</time>
<extensions>
<speed>3.5</speed>
<temp>0.00</temp>
<bpm>0</bpm>
<rpm>0.00</rpm>
</extensions>
</trkpt>
<trkpt lat="32.588470459" lon="35.014236450">
  <ele>122.418976</ele>
  <time>2012-06-23T05:29:23Z</time>
<extensions>
<speed>3.9</speed>
<temp>0.00</temp>
<bpm>0</bpm>
<rpm>0.00</rpm>
</extensions>
</trkpt>
<trkpt lat="32.588436127" lon="35.014225006">
  <ele>121.733429</ele>
  <time>2012-06-23T05:29:24Z</time>
<extensions>
<speed>3.1</speed>
<temp>0.00</temp>
<bpm>0</bpm>
<rpm>0.00</rpm>
</extensions>
</trkpt>
<trkpt lat="32.588409424" lon="35.014217377">
  <ele>121.112335</ele>
  <time>2012-06-23T05:29:25Z</time>
<extensions>
<speed>2.7</speed>
<temp>0.00</temp>
<bpm>0</bpm>
<rpm>0.00</rpm>
</extensions>
</trkpt>
<trkpt lat="32.588382721" lon="35.014213562">
  <ele>120.389679</ele>
  <time>2012-06-23T05:29:26Z</time>
<extensions>
<speed>2.8</speed>
<temp>0.00</temp>
<bpm>0</bpm>
<rpm>0.00</rpm>
</extensions>
</trkpt>
<trkpt lat="32.588325500" lon="35.014186859">
  <ele>119.770538</ele>
  <time>2012-06-23T05:29:28Z</time>
<extensions>
<speed>2.6</speed>
<temp>0.00</temp>
<bpm>0</bpm>
<rpm>0.00</rpm>
</extensions>
</trkpt>
<trkpt lat="32.588298798" lon="35.014186859">
  <ele>119.395538</ele>
  <time>2012-06-23T05:29:29Z</time>
<extensions>
<speed>2.5</speed>
<temp>0.00</temp>
<bpm>0</bpm>
<rpm>0.00</rpm>
</extensions>
</trkpt>
<trkpt lat="32.588245392" lon="35.014202118">
  <ele>118.504913</ele>
  <time>2012-06-23T05:29:31Z</time>
<extensions>
<speed>2.9</speed>
<temp>0.00</temp>
<bpm>0</bpm>
<rpm>0.00</rpm>
</extensions>
</trkpt>
<trkpt lat="32.588214874" lon="35.014217377">
  <ele>117.838898</ele>
  <time>2012-06-23T05:29:32Z</time>
<extensions>
<speed>3.2</speed>
<temp>0.00</temp>
<bpm>0</bpm>
<rpm>0.00</rpm>
</extensions>
</trkpt>
<trkpt lat="32.588188171" lon="35.014228821">
  <ele>117.143585</ele>
  <time>2012-06-23T05:29:33Z</time>
<extensions>
<speed>2.4</speed>
<temp>0.00</temp>
<bpm>0</bpm>
<rpm>0.00</rpm>
</extensions>
</trkpt>
<trkpt lat="32.588157654" lon="35.014270782">
  <ele>115.641632</ele>
  <time>2012-06-23T05:29:35Z</time>
<extensions>
<speed>2.0</speed>
<temp>0.00</temp>
<bpm>0</bpm>
<rpm>0.00</rpm>
</extensions>
</trkpt>
<trkpt lat="32.588108063" lon="35.014301300">
  <ele>112.704132</ele>
  <time>2012-06-23T05:29:37Z</time>
<extensions>
<speed>3.2</speed>
<temp>0.00</temp>
<bpm>0</bpm>
<rpm>0.00</rpm>
</extensions>
</trkpt>
<trkpt lat="32.588077545" lon="35.014328003">
  <ele>111.120148</ele>
  <time>2012-06-23T05:29:38Z</time>
<extensions>
<speed>3.5</speed>
<temp>0.00</temp>
<bpm>0</bpm>
<rpm>0.00</rpm>
</extensions>
</trkpt>
<trkpt lat="32.588047028" lon="35.014350891">
  <ele>110.872101</ele>
  <time>2012-06-23T05:29:39Z</time>
<extensions>
<speed>3.4</speed>
<temp>0.00</temp>
<bpm>0</bpm>
<rpm>0.00</rpm>
</extensions>
</trkpt>
<trkpt lat="32.588012695" lon="35.014350891">
  <ele>110.911163</ele>
  <time>2012-06-23T05:29:40Z</time>
<extensions>
<speed>2.6</speed>
<temp>0.00</temp>
<bpm>0</bpm>
<rpm>0.00</rpm>
</extensions>
</trkpt>
<trkpt lat="32.587963104" lon="35.014366150">
  <ele>109.780304</ele>
  <time>2012-06-23T05:29:42Z</time>
<extensions>
<speed>2.2</speed>
<temp>0.00</temp>
<bpm>0</bpm>
<rpm>0.00</rpm>
</extensions>
</trkpt>
<trkpt lat="32.587936401" lon="35.014392853">
  <ele>109.915070</ele>
  <time>2012-06-23T05:29:45Z</time>
<extensions>
<speed>0.9</speed>
<temp>0.00</temp>
<bpm>0</bpm>
<rpm>0.00</rpm>
</extensions>
</trkpt>
<trkpt lat="32.587913513" lon="35.014411926">
  <ele>109.094757</ele>
  <time>2012-06-23T05:29:48Z</time>
<extensions>
<speed>0.8</speed>
<temp>0.00</temp>
<bpm>0</bpm>
<rpm>0.00</rpm>
</extensions>
</trkpt>
<trkpt lat="32.587913513" lon="35.014450073">
  <ele>108.934601</ele>
  <time>2012-06-23T05:29:51Z</time>
<extensions>
<speed>0.8</speed>
<temp>0.00</temp>
<bpm>0</bpm>
<rpm>0.00</rpm>
</extensions>
</trkpt>
<trkpt lat="32.587909698" lon="35.014480591">
  <ele>108.893585</ele>
  <time>2012-06-23T05:29:54Z</time>
<extensions>
<speed>0.6</speed>
<temp>0.00</temp>
<bpm>0</bpm>
<rpm>0.00</rpm>
</extensions>
</trkpt>
<trkpt lat="32.587913513" lon="35.014526367">
  <ele>109.393585</ele>
  <time>2012-06-23T05:29:58Z</time>
<extensions>
<speed>0.2</speed>
<temp>0.00</temp>
<bpm>0</bpm>
<rpm>0.00</rpm>
</extensions>
</trkpt>
<trkpt lat="32.587898254" lon="35.014549255">
  <ele>108.178741</ele>
  <time>2012-06-23T05:30:09Z</time>
<extensions>
<speed>0.5</speed>
<temp>0.00</temp>
<bpm>0</bpm>
<rpm>0.00</rpm>
</extensions>
</trkpt>
<trkpt lat="32.587875366" lon="35.014572144">
  <ele>108.448273</ele>
  <time>2012-06-23T05:30:12Z</time>
<extensions>
<speed>0.8</speed>
<temp>0.00</temp>
<bpm>0</bpm>
<rpm>0.00</rpm>
</extensions>
</trkpt>
<trkpt lat="32.587833405" lon="35.014587402">
  <ele>108.403351</ele>
  <time>2012-06-23T05:30:14Z</time>
<extensions>
<speed>1.4</speed>
<temp>0.00</temp>
<bpm>0</bpm>
<rpm>0.00</rpm>
</extensions>
</trkpt>
<trkpt lat="32.587799072" lon="35.014583588">
  <ele>108.465851</ele>
  <time>2012-06-23T05:30:16Z</time>
<extensions>
<speed>2.2</speed>
<temp>0.00</temp>
<bpm>0</bpm>
<rpm>0.00</rpm>
</extensions>
</trkpt>
<trkpt lat="32.587749481" lon="35.014602661">
  <ele>108.499054</ele>
  <time>2012-06-23T05:30:18Z</time>
<extensions>
<speed>2.2</speed>
<temp>0.00</temp>
<bpm>0</bpm>
<rpm>0.00</rpm>
</extensions>
</trkpt>
<trkpt lat="32.587692261" lon="35.014614105">
  <ele>108.370148</ele>
  <time>2012-06-23T05:30:20Z</time>
<extensions>
<speed>4.3</speed>
<temp>0.00</temp>
<bpm>0</bpm>
<rpm>0.00</rpm>
</extensions>
</trkpt>
<trkpt lat="32.587657928" lon="35.014629364">
  <ele>108.333038</ele>
  <time>2012-06-23T05:30:21Z</time>
<extensions>
<speed>3.8</speed>
<temp>0.00</temp>
<bpm>0</bpm>
<rpm>0.00</rpm>
</extensions>
</trkpt>
<trkpt lat="32.587631226" lon="35.014682770">
  <ele>108.387726</ele>
  <time>2012-06-23T05:30:22Z</time>
<extensions>
<speed>3.9</speed>
<temp>0.00</temp>
<bpm>0</bpm>
<rpm>0.00</rpm>
</extensions>
</trkpt>
<trkpt lat="32.587619781" lon="35.014717102">
  <ele>108.477570</ele>
  <time>2012-06-23T05:30:23Z</time>
<extensions>
<speed>1.3</speed>
<temp>0.00</temp>
<bpm>0</bpm>
<rpm>0.00</rpm>
</extensions>
</trkpt>
<trkpt lat="32.587612152" lon="35.014759064">
  <ele>108.676788</ele>
  <time>2012-06-23T05:30:25Z</time>
<extensions>
<speed>0.9</speed>
<temp>0.00</temp>
<bpm>0</bpm>
<rpm>0.00</rpm>
</extensions>
</trkpt>
<trkpt lat="32.587577820" lon="35.014778137">
  <ele>107.799835</ele>
  <time>2012-06-23T05:30:28Z</time>
<extensions>
<speed>1.0</speed>
<temp>0.00</temp>
<bpm>0</bpm>
<rpm>0.00</rpm>
</extensions>
</trkpt>
<trkpt lat="32.587551117" lon="35.014789581">
  <ele>107.627960</ele>
  <time>2012-06-23T05:30:33Z</time>
<extensions>
<speed>0.8</speed>
<temp>0.00</temp>
<bpm>0</bpm>
<rpm>0.00</rpm>
</extensions>
</trkpt>
<trkpt lat="32.587516785" lon="35.014793396">
  <ele>107.458038</ele>
  <time>2012-06-23T05:30:38Z</time>
<extensions>
<speed>0.8</speed>
<temp>0.00</temp>
<bpm>0</bpm>
<rpm>0.00</rpm>
</extensions>
</trkpt>
<trkpt lat="32.587482452" lon="35.014781952">
  <ele>107.151398</ele>
  <time>2012-06-23T05:30:42Z</time>
<extensions>
<speed>0.9</speed>
<temp>0.00</temp>
<bpm>0</bpm>
<rpm>0.00</rpm>
</extensions>
</trkpt>
<trkpt lat="32.587451935" lon="35.014762878">
  <ele>106.936554</ele>
  <time>2012-06-23T05:30:45Z</time>
<extensions>
<speed>0.8</speed>
<temp>0.00</temp>
<bpm>0</bpm>
<rpm>0.00</rpm>
</extensions>
</trkpt>
<trkpt lat="32.587425232" lon="35.014755249">
  <ele>106.653351</ele>
  <time>2012-06-23T05:30:48Z</time>
<extensions>
<speed>0.8</speed>
<temp>0.00</temp>
<bpm>0</bpm>
<rpm>0.00</rpm>
</extensions>
</trkpt>
<trkpt lat="32.587390900" lon="35.014751434">
  <ele>106.444366</ele>
  <time>2012-06-23T05:30:51Z</time>
<extensions>
<speed>0.8</speed>
<temp>0.00</temp>
<bpm>0</bpm>
<rpm>0.00</rpm>
</extensions>
</trkpt>
<trkpt lat="32.587352753" lon="35.014739990">
  <ele>106.383820</ele>
  <time>2012-06-23T05:30:54Z</time>
<extensions>
<speed>0.8</speed>
<temp>0.00</temp>
<bpm>0</bpm>
<rpm>0.00</rpm>
</extensions>
</trkpt>
<trkpt lat="32.587318420" lon="35.014728546">
  <ele>106.266632</ele>
  <time>2012-06-23T05:30:56Z</time>
<extensions>
<speed>1.1</speed>
<temp>0.00</temp>
<bpm>0</bpm>
<rpm>0.00</rpm>
</extensions>
</trkpt>
<trkpt lat="32.587291718" lon="35.014728546">
  <ele>106.079132</ele>
  <time>2012-06-23T05:30:58Z</time>
<extensions>
<speed>1.0</speed>
<temp>0.00</temp>
<bpm>0</bpm>
<rpm>0.00</rpm>
</extensions>
</trkpt>
<trkpt lat="32.587257385" lon="35.014709473">
  <ele>105.809601</ele>
  <time>2012-06-23T05:31:02Z</time>
<extensions>
<speed>0.9</speed>
<temp>0.00</temp>
<bpm>0</bpm>
<rpm>0.00</rpm>
</extensions>
</trkpt>
<trkpt lat="32.587223053" lon="35.014709473">
  <ele>105.622101</ele>
  <time>2012-06-23T05:31:05Z</time>
<extensions>
<speed>0.9</speed>
<temp>0.00</temp>
<bpm>0</bpm>
<rpm>0.00</rpm>
</extensions>
</trkpt>
<trkpt lat="32.587192535" lon="35.014705658">
  <ele>105.454132</ele>
  <time>2012-06-23T05:31:10Z</time>
<extensions>
<speed>0.9</speed>
<temp>0.00</temp>
<bpm>0</bpm>
<rpm>0.00</rpm>
</extensions>
</trkpt>
<trkpt lat="32.587162018" lon="35.014728546">
  <ele>105.221710</ele>
  <time>2012-06-23T05:31:14Z</time>
<extensions>
<speed>1.0</speed>
<temp>0.00</temp>
<bpm>0</bpm>
<rpm>0.00</rpm>
</extensions>
</trkpt>
<trkpt lat="32.587127686" lon="35.014732361">
  <ele>105.270538</ele>
  <time>2012-06-23T05:31:17Z</time>
<extensions>
<speed>1.3</speed>
<temp>0.00</temp>
<bpm>0</bpm>
<rpm>0.00</rpm>
</extensions>
</trkpt>
<trkpt lat="32.587100983" lon="35.014724731">
  <ele>105.301788</ele>
  <time>2012-06-23T05:31:20Z</time>
<extensions>
<speed>1.0</speed>
<temp>0.00</temp>
<bpm>0</bpm>
<rpm>0.00</rpm>
</extensions>
</trkpt>
<trkpt lat="32.587062836" lon="35.014720917">
  <ele>105.264679</ele>
  <time>2012-06-23T05:31:23Z</time>
<extensions>
<speed>1.1</speed>
<temp>0.00</temp>
<bpm>0</bpm>
<rpm>0.00</rpm>
</extensions>
</trkpt>
<trkpt lat="32.587032318" lon="35.014720917">
  <ele>105.579132</ele>
  <time>2012-06-23T05:31:26Z</time>
<extensions>
<speed>1.0</speed>
<temp>0.00</temp>
<bpm>0</bpm>
<rpm>0.00</rpm>
</extensions>
</trkpt>
<trkpt lat="32.587005615" lon="35.014747620">
  <ele>105.885773</ele>
  <time>2012-06-23T05:31:30Z</time>
<extensions>
<speed>1.0</speed>
<temp>0.00</temp>
<bpm>0</bpm>
<rpm>0.00</rpm>
</extensions>
</trkpt>
<trkpt lat="32.586990356" lon="35.014774323">
  <ele>107.032257</ele>
  <time>2012-06-23T05:31:34Z</time>
<extensions>
<speed>1.1</speed>
<temp>0.00</temp>
<bpm>0</bpm>
<rpm>0.00</rpm>
</extensions>
</trkpt>
<trkpt lat="32.586994171" lon="35.014801025">
  <ele>108.975616</ele>
  <time>2012-06-23T05:31:37Z</time>
<extensions>
<speed>1.1</speed>
<temp>0.00</temp>
<bpm>0</bpm>
<rpm>0.00</rpm>
</extensions>
</trkpt>
<trkpt lat="32.587009430" lon="35.014831543">
  <ele>110.034210</ele>
  <time>2012-06-23T05:31:40Z</time>
<extensions>
<speed>1.4</speed>
<temp>0.00</temp>
<bpm>0</bpm>
<rpm>0.00</rpm>
</extensions>
</trkpt>
<trkpt lat="32.587028503" lon="35.014862061">
  <ele>112.213898</ele>
  <time>2012-06-23T05:31:43Z</time>
<extensions>
<speed>1.0</speed>
<temp>0.00</temp>
<bpm>0</bpm>
<rpm>0.00</rpm>
</extensions>
</trkpt>
<trkpt lat="32.587051392" lon="35.014884949">
  <ele>113.374054</ele>
  <time>2012-06-23T05:31:47Z</time>
<extensions>
<speed>0.3</speed>
<temp>0.00</temp>
<bpm>0</bpm>
<rpm>0.00</rpm>
</extensions>
</trkpt>
<trkpt lat="32.587078094" lon="35.014896393">
  <ele>115.299835</ele>
  <time>2012-06-23T05:31:54Z</time>
<extensions>
<speed>0.9</speed>
<temp>0.00</temp>
<bpm>0</bpm>
<rpm>0.00</rpm>
</extensions>
</trkpt>
<trkpt lat="32.587089539" lon="35.014919281">
  <ele>117.655304</ele>
  <time>2012-06-23T05:31:57Z</time>
<extensions>
<speed>1.0</speed>
<temp>0.00</temp>
<bpm>0</bpm>
<rpm>0.00</rpm>
</extensions>
</trkpt>
<trkpt lat="32.587123871" lon="35.014938354">
  <ele>118.977570</ele>
  <time>2012-06-23T05:32:00Z</time>
<extensions>
<speed>1.3</speed>
<temp>0.00</temp>
<bpm>0</bpm>
<rpm>0.00</rpm>
</extensions>
</trkpt>
<trkpt lat="32.587162018" lon="35.014965057">
  <ele>120.202179</ele>
  <time>2012-06-23T05:32:02Z</time>
<extensions>
<speed>1.8</speed>
<temp>0.00</temp>
<bpm>0</bpm>
<rpm>0.00</rpm>
</extensions>
</trkpt>
<trkpt lat="32.587184906" lon="35.014984131">
  <ele>120.760773</ele>
  <time>2012-06-23T05:32:03Z</time>
<extensions>
<speed>1.7</speed>
<temp>0.00</temp>
<bpm>0</bpm>
<rpm>0.00</rpm>
</extensions>
</trkpt>
<trkpt lat="32.587215424" lon="35.015018463">
  <ele>121.067413</ele>
  <time>2012-06-23T05:32:05Z</time>
<extensions>
<speed>1.8</speed>
<temp>0.00</temp>
<bpm>0</bpm>
<rpm>0.00</rpm>
</extensions>
</trkpt>
<trkpt lat="32.587245941" lon="35.015045166">
  <ele>121.633820</ele>
  <time>2012-06-23T05:32:07Z</time>
<extensions>
<speed>2.2</speed>
<temp>0.00</temp>
<bpm>0</bpm>
<rpm>0.00</rpm>
</extensions>
</trkpt>
<trkpt lat="32.587284088" lon="35.015056610">
  <ele>123.168976</ele>
  <time>2012-06-23T05:32:09Z</time>
<extensions>
<speed>2.3</speed>
<temp>0.00</temp>
<bpm>0</bpm>
<rpm>0.00</rpm>
</extensions>
</trkpt>
<trkpt lat="32.587318420" lon="35.015071869">
  <ele>123.563507</ele>
  <time>2012-06-23T05:32:11Z</time>
<extensions>
<speed>1.8</speed>
<temp>0.00</temp>
<bpm>0</bpm>
<rpm>0.00</rpm>
</extensions>
</trkpt>
<trkpt lat="32.587345123" lon="35.015102386">
  <ele>123.846710</ele>
  <time>2012-06-23T05:32:13Z</time>
<extensions>
<speed>2.1</speed>
<temp>0.00</temp>
<bpm>0</bpm>
<rpm>0.00</rpm>
</extensions>
</trkpt>
<trkpt lat="32.587375641" lon="35.015136719">
  <ele>124.805695</ele>
  <time>2012-06-23T05:32:15Z</time>
<extensions>
<speed>2.2</speed>
<temp>0.00</temp>
<bpm>0</bpm>
<rpm>0.00</rpm>
</extensions>
</trkpt>
<trkpt lat="32.587409973" lon="35.015171051">
  <ele>126.186554</ele>
  <time>2012-06-23T05:32:17Z</time>
<extensions>
<speed>2.1</speed>
<temp>0.00</temp>
<bpm>0</bpm>
<rpm>0.00</rpm>
</extensions>
</trkpt>
<trkpt lat="32.587429047" lon="35.015197754">
  <ele>126.208038</ele>
  <time>2012-06-23T05:32:19Z</time>
<extensions>
<speed>1.6</speed>
<temp>0.00</temp>
<bpm>0</bpm>
<rpm>0.00</rpm>
</extensions>
</trkpt>
<trkpt lat="32.587451935" lon="35.015216827">
  <ele>125.590851</ele>
  <time>2012-06-23T05:32:21Z</time>
<extensions>
<speed>1.7</speed>
<temp>0.00</temp>
<bpm>0</bpm>
<rpm>0.00</rpm>
</extensions>
</trkpt>
<trkpt lat="32.587478638" lon="35.015239716">
  <ele>125.282257</ele>
  <time>2012-06-23T05:32:23Z</time>
<extensions>
<speed>1.8</speed>
<temp>0.00</temp>
<bpm>0</bpm>
<rpm>0.00</rpm>
</extensions>
</trkpt>
<trkpt lat="32.587516785" lon="35.015274048">
  <ele>126.280304</ele>
  <time>2012-06-23T05:32:25Z</time>
<extensions>
<speed>1.8</speed>
<temp>0.00</temp>
<bpm>0</bpm>
<rpm>0.00</rpm>
</extensions>
</trkpt>
<trkpt lat="32.587539673" lon="35.015300751">
  <ele>127.155304</ele>
  <time>2012-06-23T05:32:27Z</time>
<extensions>
<speed>1.9</speed>
<temp>0.00</temp>
<bpm>0</bpm>
<rpm>0.00</rpm>
</extensions>
</trkpt>
<trkpt lat="32.587566376" lon="35.015338898">
  <ele>127.956085</ele>
  <time>2012-06-23T05:32:29Z</time>
<extensions>
<speed>2.1</speed>
<temp>0.00</temp>
<bpm>0</bpm>
<rpm>0.00</rpm>
</extensions>
</trkpt>
<trkpt lat="32.587593079" lon="35.015369415">
  <ele>128.400452</ele>
  <time>2012-06-23T05:32:31Z</time>
<extensions>
<speed>1.9</speed>
<temp>0.00</temp>
<bpm>0</bpm>
<rpm>0.00</rpm>
</extensions>
</trkpt>
<trkpt lat="32.587619781" lon="35.015399933">
  <ele>128.877014</ele>
  <time>2012-06-23T05:32:33Z</time>
<extensions>
<speed>2.1</speed>
<temp>0.00</temp>
<bpm>0</bpm>
<rpm>0.00</rpm>
</extensions>
</trkpt>
<trkpt lat="32.587638855" lon="35.015434265">
  <ele>128.810608</ele>
  <time>2012-06-23T05:32:35Z</time>
<extensions>
<speed>2.1</speed>
<temp>0.00</temp>
<bpm>0</bpm>
<rpm>0.00</rpm>
</extensions>
</trkpt>
<trkpt lat="32.587650299" lon="35.015468597">
  <ele>130.255920</ele>
  <time>2012-06-23T05:32:37Z</time>
<extensions>
<speed>1.9</speed>
<temp>0.00</temp>
<bpm>0</bpm>
<rpm>0.00</rpm>
</extensions>
</trkpt>
<trkpt lat="32.587673187" lon="35.015506744">
  <ele>130.306702</ele>
  <time>2012-06-23T05:32:39Z</time>
<extensions>
<speed>2.2</speed>
<temp>0.00</temp>
<bpm>0</bpm>
<rpm>0.00</rpm>
</extensions>
</trkpt>
<trkpt lat="32.587688446" lon="35.015537262">
  <ele>130.337952</ele>
  <time>2012-06-23T05:32:41Z</time>
<extensions>
<speed>1.8</speed>
<temp>0.00</temp>
<bpm>0</bpm>
<rpm>0.00</rpm>
</extensions>
</trkpt>
<trkpt lat="32.587718964" lon="35.015571594">
  <ele>129.630920</ele>
  <time>2012-06-23T05:32:43Z</time>
<extensions>
<speed>2.8</speed>
<temp>0.00</temp>
<bpm>0</bpm>
<rpm>0.00</rpm>
</extensions>
</trkpt>
<trkpt lat="32.587741852" lon="35.015621185">
  <ele>129.474670</ele>
  <time>2012-06-23T05:32:45Z</time>
<extensions>
<speed>2.1</speed>
<temp>0.00</temp>
<bpm>0</bpm>
<rpm>0.00</rpm>
</extensions>
</trkpt>
<trkpt lat="32.587753296" lon="35.015666962">
  <ele>130.451233</ele>
  <time>2012-06-23T05:32:47Z</time>
<extensions>
<speed>1.9</speed>
<temp>0.00</temp>
<bpm>0</bpm>
<rpm>0.00</rpm>
</extensions>
</trkpt>
<trkpt lat="32.587753296" lon="35.015712738">
  <ele>131.197327</ele>
  <time>2012-06-23T05:32:49Z</time>
<extensions>
<speed>2.3</speed>
<temp>0.00</temp>
<bpm>0</bpm>
<rpm>0.00</rpm>
</extensions>
</trkpt>
<trkpt lat="32.587760925" lon="35.015750885">
  <ele>130.744202</ele>
  <time>2012-06-23T05:32:51Z</time>
<extensions>
<speed>2.0</speed>
<temp>0.00</temp>
<bpm>0</bpm>
<rpm>0.00</rpm>
</extensions>
</trkpt>
<trkpt lat="32.587760925" lon="35.015792847">
  <ele>131.341858</ele>
  <time>2012-06-23T05:32:53Z</time>
<extensions>
<speed>2.3</speed>
<temp>0.00</temp>
<bpm>0</bpm>
<rpm>0.00</rpm>
</extensions>
</trkpt>
<trkpt lat="32.587760925" lon="35.015842438">
  <ele>131.955139</ele>
  <time>2012-06-23T05:32:55Z</time>
<extensions>
<speed>2.2</speed>
<temp>0.00</temp>
<bpm>0</bpm>
<rpm>0.00</rpm>
</extensions>
</trkpt>
<trkpt lat="32.587764740" lon="35.015884399">
  <ele>132.865295</ele>
  <time>2012-06-23T05:32:57Z</time>
<extensions>
<speed>1.9</speed>
<temp>0.00</temp>
<bpm>0</bpm>
<rpm>0.00</rpm>
</extensions>
</trkpt>
<trkpt lat="32.587764740" lon="35.015926361">
  <ele>133.584045</ele>
  <time>2012-06-23T05:32:59Z</time>
<extensions>
<speed>1.7</speed>
<temp>0.00</temp>
<bpm>0</bpm>
<rpm>0.00</rpm>
</extensions>
</trkpt>
<trkpt lat="32.587757111" lon="35.015968323">
  <ele>134.291077</ele>
  <time>2012-06-23T05:33:02Z</time>
<extensions>
<speed>1.4</speed>
<temp>0.00</temp>
<bpm>0</bpm>
<rpm>0.00</rpm>
</extensions>
</trkpt>
<trkpt lat="32.587753296" lon="35.016006470">
  <ele>134.236389</ele>
  <time>2012-06-23T05:33:04Z</time>
<extensions>
<speed>1.7</speed>
<temp>0.00</temp>
<bpm>0</bpm>
<rpm>0.00</rpm>
</extensions>
</trkpt>
<trkpt lat="32.587764740" lon="35.016048431">
  <ele>134.630920</ele>
  <time>2012-06-23T05:33:06Z</time>
<extensions>
<speed>1.6</speed>
<temp>0.00</temp>
<bpm>0</bpm>
<rpm>0.00</rpm>
</extensions>
</trkpt>
<trkpt lat="32.587764740" lon="35.016086578">
  <ele>134.752014</ele>
  <time>2012-06-23T05:33:08Z</time>
<extensions>
<speed>1.9</speed>
<temp>0.00</temp>
<bpm>0</bpm>
<rpm>0.00</rpm>
</extensions>
</trkpt>
<trkpt lat="32.587768555" lon="35.016124725">
  <ele>134.384827</ele>
  <time>2012-06-23T05:33:10Z</time>
<extensions>
<speed>1.7</speed>
<temp>0.00</temp>
<bpm>0</bpm>
<rpm>0.00</rpm>
</extensions>
</trkpt>
<trkpt lat="32.587783813" lon="35.016162872">
  <ele>134.271545</ele>
  <time>2012-06-23T05:33:12Z</time>
<extensions>
<speed>1.8</speed>
<temp>0.00</temp>
<bpm>0</bpm>
<rpm>0.00</rpm>
</extensions>
</trkpt>
<trkpt lat="32.587783813" lon="35.016197205">
  <ele>133.935608</ele>
  <time>2012-06-23T05:33:14Z</time>
<extensions>
<speed>1.3</speed>
<temp>0.00</temp>
<bpm>0</bpm>
<rpm>0.00</rpm>
</extensions>
</trkpt>
<trkpt lat="32.587783813" lon="35.016242981">
  <ele>135.189514</ele>
  <time>2012-06-23T05:33:17Z</time>
<extensions>
<speed>1.5</speed>
<temp>0.00</temp>
<bpm>0</bpm>
<rpm>0.00</rpm>
</extensions>
</trkpt>
<trkpt lat="32.587783813" lon="35.016281128">
  <ele>135.357483</ele>
  <time>2012-06-23T05:33:19Z</time>
<extensions>
<speed>1.4</speed>
<temp>0.00</temp>
<bpm>0</bpm>
<rpm>0.00</rpm>
</extensions>
</trkpt>
<trkpt lat="32.587787628" lon="35.016315460">
  <ele>135.459045</ele>
  <time>2012-06-23T05:33:21Z</time>
<extensions>
<speed>1.6</speed>
<temp>0.00</temp>
<bpm>0</bpm>
<rpm>0.00</rpm>
</extensions>
</trkpt>
<trkpt lat="32.587799072" lon="35.016365051">
  <ele>134.927795</ele>
  <time>2012-06-23T05:33:23Z</time>
<extensions>
<speed>1.8</speed>
<temp>0.00</temp>
<bpm>0</bpm>
<rpm>0.00</rpm>
</extensions>
</trkpt>
<trkpt lat="32.587814331" lon="35.016407013">
  <ele>134.818420</ele>
  <time>2012-06-23T05:33:25Z</time>
<extensions>
<speed>2.2</speed>
<temp>0.00</temp>
<bpm>0</bpm>
<rpm>0.00</rpm>
</extensions>
</trkpt>
<trkpt lat="32.587818146" lon="35.016441345">
  <ele>135.349670</ele>
  <time>2012-06-23T05:33:26Z</time>
<extensions>
<speed>1.8</speed>
<temp>0.00</temp>
<bpm>0</bpm>
<rpm>0.00</rpm>
</extensions>
</trkpt>
<trkpt lat="32.587844849" lon="35.016483307">
  <ele>135.443420</ele>
  <time>2012-06-23T05:33:28Z</time>
<extensions>
<speed>1.9</speed>
<temp>0.00</temp>
<bpm>0</bpm>
<rpm>0.00</rpm>
</extensions>
</trkpt>
<trkpt lat="32.587879181" lon="35.016517639">
  <ele>136.310608</ele>
  <time>2012-06-23T05:33:30Z</time>
<extensions>
<speed>1.9</speed>
<temp>0.00</temp>
<bpm>0</bpm>
<rpm>0.00</rpm>
</extensions>
</trkpt>
<trkpt lat="32.587913513" lon="35.016551971">
  <ele>136.002014</ele>
  <time>2012-06-23T05:33:32Z</time>
<extensions>
<speed>2.6</speed>
<temp>0.00</temp>
<bpm>0</bpm>
<rpm>0.00</rpm>
</extensions>
</trkpt>
<trkpt lat="32.587940216" lon="35.016571045">
  <ele>136.041077</ele>
  <time>2012-06-23T05:33:33Z</time>
<extensions>
<speed>2.1</speed>
<temp>0.00</temp>
<bpm>0</bpm>
<rpm>0.00</rpm>
</extensions>
</trkpt>
<trkpt lat="32.587966919" lon="35.016582489">
  <ele>135.447327</ele>
  <time>2012-06-23T05:33:34Z</time>
<extensions>
<speed>2.2</speed>
<temp>0.00</temp>
<bpm>0</bpm>
<rpm>0.00</rpm>
</extensions>
</trkpt>
<trkpt lat="32.588005066" lon="35.016605377">
  <ele>135.927795</ele>
  <time>2012-06-23T05:33:36Z</time>
<extensions>
<speed>1.9</speed>
<temp>0.00</temp>
<bpm>0</bpm>
<rpm>0.00</rpm>
</extensions>
</trkpt>
<trkpt lat="32.588047028" lon="35.016628265">
  <ele>135.244202</ele>
  <time>2012-06-23T05:33:38Z</time>
<extensions>
<speed>2.3</speed>
<temp>0.00</temp>
<bpm>0</bpm>
<rpm>0.00</rpm>
</extensions>
</trkpt>
<trkpt lat="32.588085175" lon="35.016662598">
  <ele>135.849670</ele>
  <time>2012-06-23T05:33:40Z</time>
<extensions>
<speed>2.2</speed>
<temp>0.00</temp>
<bpm>0</bpm>
<rpm>0.00</rpm>
</extensions>
</trkpt>
<trkpt lat="32.588115692" lon="35.016689301">
  <ele>135.923889</ele>
  <time>2012-06-23T05:33:42Z</time>
<extensions>
<speed>1.8</speed>
<temp>0.00</temp>
<bpm>0</bpm>
<rpm>0.00</rpm>
</extensions>
</trkpt>
<trkpt lat="32.588161469" lon="35.016696930">
  <ele>136.048889</ele>
  <time>2012-06-23T05:33:44Z</time>
<extensions>
<speed>2.4</speed>
<temp>0.00</temp>
<bpm>0</bpm>
<rpm>0.00</rpm>
</extensions>
</trkpt>
<trkpt lat="32.588203430" lon="35.016712189">
  <ele>135.373108</ele>
  <time>2012-06-23T05:33:46Z</time>
<extensions>
<speed>2.1</speed>
<temp>0.00</temp>
<bpm>0</bpm>
<rpm>0.00</rpm>
</extensions>
</trkpt>
<trkpt lat="32.588233948" lon="35.016727448">
  <ele>136.900452</ele>
  <time>2012-06-23T05:33:48Z</time>
<extensions>
<speed>2.0</speed>
<temp>0.00</temp>
<bpm>0</bpm>
<rpm>0.00</rpm>
</extensions>
</trkpt>
<trkpt lat="32.588279724" lon="35.016754150">
  <ele>138.146545</ele>
  <time>2012-06-23T05:33:50Z</time>
<extensions>
<speed>2.0</speed>
<temp>0.00</temp>
<bpm>0</bpm>
<rpm>0.00</rpm>
</extensions>
</trkpt>
<trkpt lat="32.588310242" lon="35.016777039">
  <ele>137.986389</ele>
  <time>2012-06-23T05:33:52Z</time>
<extensions>
<speed>1.9</speed>
<temp>0.00</temp>
<bpm>0</bpm>
<rpm>0.00</rpm>
</extensions>
</trkpt>
<trkpt lat="32.588344574" lon="35.016796112">
  <ele>137.806702</ele>
  <time>2012-06-23T05:33:54Z</time>
<extensions>
<speed>1.9</speed>
<temp>0.00</temp>
<bpm>0</bpm>
<rpm>0.00</rpm>
</extensions>
</trkpt>
<trkpt lat="32.588375092" lon="35.016815186">
  <ele>137.794983</ele>
  <time>2012-06-23T05:33:56Z</time>
<extensions>
<speed>2.2</speed>
<temp>0.00</temp>
<bpm>0</bpm>
<rpm>0.00</rpm>
</extensions>
</trkpt>
<trkpt lat="32.588409424" lon="35.016841888">
  <ele>138.267639</ele>
  <time>2012-06-23T05:33:58Z</time>
<extensions>
<speed>2.1</speed>
<temp>0.00</temp>
<bpm>0</bpm>
<rpm>0.00</rpm>
</extensions>
</trkpt>
<trkpt lat="32.588443756" lon="35.016857147">
  <ele>137.900452</ele>
  <time>2012-06-23T05:34:00Z</time>
<extensions>
<speed>2.0</speed>
<temp>0.00</temp>
<bpm>0</bpm>
<rpm>0.00</rpm>
</extensions>
</trkpt>
<trkpt lat="32.588474274" lon="35.016883850">
  <ele>138.599670</ele>
  <time>2012-06-23T05:34:02Z</time>
<extensions>
<speed>2.1</speed>
<temp>0.00</temp>
<bpm>0</bpm>
<rpm>0.00</rpm>
</extensions>
</trkpt>
<trkpt lat="32.588512421" lon="35.016906738">
  <ele>139.236389</ele>
  <time>2012-06-23T05:34:04Z</time>
<extensions>
<speed>2.0</speed>
<temp>0.00</temp>
<bpm>0</bpm>
<rpm>0.00</rpm>
</extensions>
</trkpt>
<trkpt lat="32.588531494" lon="35.016929626">
  <ele>138.884827</ele>
  <time>2012-06-23T05:34:06Z</time>
<extensions>
<speed>2.0</speed>
<temp>0.00</temp>
<bpm>0</bpm>
<rpm>0.00</rpm>
</extensions>
</trkpt>
<trkpt lat="32.588558197" lon="35.016960144">
  <ele>139.048889</ele>
  <time>2012-06-23T05:34:08Z</time>
<extensions>
<speed>1.8</speed>
<temp>0.00</temp>
<bpm>0</bpm>
<rpm>0.00</rpm>
</extensions>
</trkpt>
<trkpt lat="32.588565826" lon="35.017005920">
  <ele>138.712952</ele>
  <time>2012-06-23T05:34:10Z</time>
<extensions>
<speed>2.1</speed>
<temp>0.00</temp>
<bpm>0</bpm>
<rpm>0.00</rpm>
</extensions>
</trkpt>
<trkpt lat="32.588588715" lon="35.017047882">
  <ele>139.099670</ele>
  <time>2012-06-23T05:34:12Z</time>
<extensions>
<speed>2.1</speed>
<temp>0.00</temp>
<bpm>0</bpm>
<rpm>0.00</rpm>
</extensions>
</trkpt>
<trkpt lat="32.588603973" lon="35.017089844">
  <ele>139.470764</ele>
  <time>2012-06-23T05:34:14Z</time>
<extensions>
<speed>2.3</speed>
<temp>0.00</temp>
<bpm>0</bpm>
<rpm>0.00</rpm>
</extensions>
</trkpt>
<trkpt lat="32.588623047" lon="35.017131805">
  <ele>139.099670</ele>
  <time>2012-06-23T05:34:16Z</time>
<extensions>
<speed>1.7</speed>
<temp>0.00</temp>
<bpm>0</bpm>
<rpm>0.00</rpm>
</extensions>
</trkpt>
<trkpt lat="32.588630676" lon="35.017166138">
  <ele>138.783264</ele>
  <time>2012-06-23T05:34:18Z</time>
<extensions>
<speed>2.1</speed>
<temp>0.00</temp>
<bpm>0</bpm>
<rpm>0.00</rpm>
</extensions>
</trkpt>
<trkpt lat="32.588638306" lon="35.017215729">
  <ele>138.791077</ele>
  <time>2012-06-23T05:34:20Z</time>
<extensions>
<speed>2.1</speed>
<temp>0.00</temp>
<bpm>0</bpm>
<rpm>0.00</rpm>
</extensions>
</trkpt>
<trkpt lat="32.588649750" lon="35.017250061">
  <ele>139.642639</ele>
  <time>2012-06-23T05:34:22Z</time>
<extensions>
<speed>1.8</speed>
<temp>0.00</temp>
<bpm>0</bpm>
<rpm>0.00</rpm>
</extensions>
</trkpt>
<trkpt lat="32.588672638" lon="35.017307281">
  <ele>140.818420</ele>
  <time>2012-06-23T05:34:24Z</time>
<extensions>
<speed>2.0</speed>
<temp>0.00</temp>
<bpm>0</bpm>
<rpm>0.00</rpm>
</extensions>
</trkpt>
<trkpt lat="32.588687897" lon="35.017353058">
  <ele>141.310608</ele>
  <time>2012-06-23T05:34:26Z</time>
<extensions>
<speed>1.8</speed>
<temp>0.00</temp>
<bpm>0</bpm>
<rpm>0.00</rpm>
</extensions>
</trkpt>
<trkpt lat="32.588699341" lon="35.017387390">
  <ele>141.541077</ele>
  <time>2012-06-23T05:34:28Z</time>
<extensions>
<speed>1.8</speed>
<temp>0.00</temp>
<bpm>0</bpm>
<rpm>0.00</rpm>
</extensions>
</trkpt>
<trkpt lat="32.588706970" lon="35.017417908">
  <ele>141.919983</ele>
  <time>2012-06-23T05:34:30Z</time>
<extensions>
<speed>1.4</speed>
<temp>0.00</temp>
<bpm>0</bpm>
<rpm>0.00</rpm>
</extensions>
</trkpt>
<trkpt lat="32.588729858" lon="35.017459869">
  <ele>140.873108</ele>
  <time>2012-06-23T05:34:33Z</time>
<extensions>
<speed>1.0</speed>
<temp>0.00</temp>
<bpm>0</bpm>
<rpm>0.00</rpm>
</extensions>
</trkpt>
<trkpt lat="32.588733673" lon="35.017490387">
  <ele>140.291077</ele>
  <time>2012-06-23T05:34:35Z</time>
<extensions>
<speed>1.2</speed>
<temp>0.00</temp>
<bpm>0</bpm>
<rpm>0.00</rpm>
</extensions>
</trkpt>
<trkpt lat="32.588737488" lon="35.017528534">
  <ele>139.666077</ele>
  <time>2012-06-23T05:34:37Z</time>
<extensions>
<speed>1.6</speed>
<temp>0.00</temp>
<bpm>0</bpm>
<rpm>0.00</rpm>
</extensions>
</trkpt>
<trkpt lat="32.588729858" lon="35.017578125">
  <ele>139.544983</ele>
  <time>2012-06-23T05:34:39Z</time>
<extensions>
<speed>1.5</speed>
<temp>0.00</temp>
<bpm>0</bpm>
<rpm>0.00</rpm>
</extensions>
</trkpt>
<trkpt lat="32.588733673" lon="35.017612457">
  <ele>138.232483</ele>
  <time>2012-06-23T05:34:41Z</time>
<extensions>
<speed>2.1</speed>
<temp>0.00</temp>
<bpm>0</bpm>
<rpm>0.00</rpm>
</extensions>
</trkpt>
<trkpt lat="32.588741302" lon="35.017654419">
  <ele>137.369202</ele>
  <time>2012-06-23T05:34:43Z</time>
<extensions>
<speed>1.8</speed>
<temp>0.00</temp>
<bpm>0</bpm>
<rpm>0.00</rpm>
</extensions>
</trkpt>
<trkpt lat="32.588745117" lon="35.017700195">
  <ele>136.423889</ele>
  <time>2012-06-23T05:34:45Z</time>
<extensions>
<speed>1.6</speed>
<temp>0.00</temp>
<bpm>0</bpm>
<rpm>0.00</rpm>
</extensions>
</trkpt>
<trkpt lat="32.588752747" lon="35.017742157">
  <ele>135.646545</ele>
  <time>2012-06-23T05:34:47Z</time>
<extensions>
<speed>1.0</speed>
<temp>0.00</temp>
<bpm>0</bpm>
<rpm>0.00</rpm>
</extensions>
</trkpt>
<trkpt lat="32.588752747" lon="35.017780304">
  <ele>134.794983</ele>
  <time>2012-06-23T05:34:49Z</time>
<extensions>
<speed>1.4</speed>
<temp>0.00</temp>
<bpm>0</bpm>
<rpm>0.00</rpm>
</extensions>
</trkpt>
<trkpt lat="32.588752747" lon="35.017822266">
  <ele>133.341858</ele>
  <time>2012-06-23T05:34:52Z</time>
<extensions>
<speed>1.3</speed>
<temp>0.00</temp>
<bpm>0</bpm>
<rpm>0.00</rpm>
</extensions>
</trkpt>
<trkpt lat="32.588745117" lon="35.017883301">
  <ele>132.978577</ele>
  <time>2012-06-23T05:34:54Z</time>
<extensions>
<speed>1.4</speed>
<temp>0.00</temp>
<bpm>0</bpm>
<rpm>0.00</rpm>
</extensions>
</trkpt>
<trkpt lat="32.588745117" lon="35.017932892">
  <ele>132.146545</ele>
  <time>2012-06-23T05:34:56Z</time>
<extensions>
<speed>2.0</speed>
<temp>0.00</temp>
<bpm>0</bpm>
<rpm>0.00</rpm>
</extensions>
</trkpt>
<trkpt lat="32.588741302" lon="35.017963409">
  <ele>131.291077</ele>
  <time>2012-06-23T05:34:57Z</time>
<extensions>
<speed>2.1</speed>
<temp>0.00</temp>
<bpm>0</bpm>
<rpm>0.00</rpm>
</extensions>
</trkpt>
<trkpt lat="32.588748932" lon="35.018024445">
  <ele>130.169983</ele>
  <time>2012-06-23T05:34:59Z</time>
<extensions>
<speed>2.6</speed>
<temp>0.00</temp>
<bpm>0</bpm>
<rpm>0.00</rpm>
</extensions>
</trkpt>
<trkpt lat="32.588756561" lon="35.018066406">
  <ele>129.619202</ele>
  <time>2012-06-23T05:35:00Z</time>
<extensions>
<speed>2.7</speed>
<temp>0.00</temp>
<bpm>0</bpm>
<rpm>0.00</rpm>
</extensions>
</trkpt>
<trkpt lat="32.588768005" lon="35.018100739">
  <ele>129.240295</ele>
  <time>2012-06-23T05:35:01Z</time>
<extensions>
<speed>2.9</speed>
<temp>0.00</temp>
<bpm>0</bpm>
<rpm>0.00</rpm>
</extensions>
</trkpt>
<trkpt lat="32.588771820" lon="35.018138885">
  <ele>128.505920</ele>
  <time>2012-06-23T05:35:02Z</time>
<extensions>
<speed>3.2</speed>
<temp>0.00</temp>
<bpm>0</bpm>
<rpm>0.00</rpm>
</extensions>
</trkpt>
<trkpt lat="32.588768005" lon="35.018177032">
  <ele>127.969757</ele>
  <time>2012-06-23T05:35:03Z</time>
<extensions>
<speed>3.2</speed>
<temp>0.00</temp>
<bpm>0</bpm>
<rpm>0.00</rpm>
</extensions>
</trkpt>
<trkpt lat="32.588768005" lon="35.018234253">
  <ele>127.042023</ele>
  <time>2012-06-23T05:35:05Z</time>
<extensions>
<speed>2.3</speed>
<temp>0.00</temp>
<bpm>0</bpm>
<rpm>0.00</rpm>
</extensions>
</trkpt>
<trkpt lat="32.588760376" lon="35.018283844">
  <ele>125.829132</ele>
  <time>2012-06-23T05:35:07Z</time>
<extensions>
<speed>2.3</speed>
<temp>0.00</temp>
<bpm>0</bpm>
<rpm>0.00</rpm>
</extensions>
</trkpt>
<trkpt lat="32.588748932" lon="35.018325806">
  <ele>125.805695</ele>
  <time>2012-06-23T05:35:09Z</time>
<extensions>
<speed>1.9</speed>
<temp>0.00</temp>
<bpm>0</bpm>
<rpm>0.00</rpm>
</extensions>
</trkpt>
<trkpt lat="32.588729858" lon="35.018363953">
  <ele>125.805695</ele>
  <time>2012-06-23T05:35:12Z</time>
<extensions>
<speed>1.3</speed>
<temp>0.00</temp>
<bpm>0</bpm>
<rpm>0.00</rpm>
</extensions>
</trkpt>
<trkpt lat="32.588718414" lon="35.018398285">
  <ele>125.286163</ele>
  <time>2012-06-23T05:35:15Z</time>
<extensions>
<speed>1.5</speed>
<temp>0.00</temp>
<bpm>0</bpm>
<rpm>0.00</rpm>
</extensions>
</trkpt>
<trkpt lat="32.588706970" lon="35.018436432">
  <ele>124.403351</ele>
  <time>2012-06-23T05:35:17Z</time>
<extensions>
<speed>1.4</speed>
<temp>0.00</temp>
<bpm>0</bpm>
<rpm>0.00</rpm>
</extensions>
</trkpt>
<trkpt lat="32.588687897" lon="35.018482208">
  <ele>124.145538</ele>
  <time>2012-06-23T05:35:19Z</time>
<extensions>
<speed>1.4</speed>
<temp>0.00</temp>
<bpm>0</bpm>
<rpm>0.00</rpm>
</extensions>
</trkpt>
<trkpt lat="32.588672638" lon="35.018516541">
  <ele>122.842804</ele>
  <time>2012-06-23T05:35:21Z</time>
<extensions>
<speed>1.7</speed>
<temp>0.00</temp>
<bpm>0</bpm>
<rpm>0.00</rpm>
</extensions>
</trkpt>
<trkpt lat="32.588653564" lon="35.018550873">
  <ele>121.688507</ele>
  <time>2012-06-23T05:35:23Z</time>
<extensions>
<speed>1.7</speed>
<temp>0.00</temp>
<bpm>0</bpm>
<rpm>0.00</rpm>
</extensions>
</trkpt>
<trkpt lat="32.588661194" lon="35.018581390">
  <ele>120.743195</ele>
  <time>2012-06-23T05:35:25Z</time>
<extensions>
<speed>1.0</speed>
<temp>0.00</temp>
<bpm>0</bpm>
<rpm>0.00</rpm>
</extensions>
</trkpt>
<trkpt lat="32.588687897" lon="35.018592834">
  <ele>120.418976</ele>
  <time>2012-06-23T05:35:26Z</time>
<extensions>
<speed>0.9</speed>
<temp>0.00</temp>
<bpm>0</bpm>
<rpm>0.00</rpm>
</extensions>
</trkpt>
<trkpt lat="32.588718414" lon="35.018619537">
  <ele>119.106476</ele>
  <time>2012-06-23T05:35:28Z</time>
<extensions>
<speed>1.0</speed>
<temp>0.00</temp>
<bpm>0</bpm>
<rpm>0.00</rpm>
</extensions>
</trkpt>
<trkpt lat="32.588726044" lon="35.018665314">
  <ele>117.948273</ele>
  <time>2012-06-23T05:35:30Z</time>
<extensions>
<speed>1.0</speed>
<temp>0.00</temp>
<bpm>0</bpm>
<rpm>0.00</rpm>
</extensions>
</trkpt>
<trkpt lat="32.588733673" lon="35.018703461">
  <ele>116.561554</ele>
  <time>2012-06-23T05:35:32Z</time>
<extensions>
<speed>1.8</speed>
<temp>0.00</temp>
<bpm>0</bpm>
<rpm>0.00</rpm>
</extensions>
</trkpt>
<trkpt lat="32.588737488" lon="35.018768311">
  <ele>115.127960</ele>
  <time>2012-06-23T05:35:34Z</time>
<extensions>
<speed>1.7</speed>
<temp>0.00</temp>
<bpm>0</bpm>
<rpm>0.00</rpm>
</extensions>
</trkpt>
<trkpt lat="32.588733673" lon="35.018806458">
  <ele>114.270538</ele>
  <time>2012-06-23T05:35:35Z</time>
<extensions>
<speed>1.5</speed>
<temp>0.00</temp>
<bpm>0</bpm>
<rpm>0.00</rpm>
</extensions>
</trkpt>
<trkpt lat="32.588710785" lon="35.018859863">
  <ele>112.374054</ele>
  <time>2012-06-23T05:35:37Z</time>
<extensions>
<speed>2.2</speed>
<temp>0.00</temp>
<bpm>0</bpm>
<rpm>0.00</rpm>
</extensions>
</trkpt>
<trkpt lat="32.588699341" lon="35.018917084">
  <ele>110.766632</ele>
  <time>2012-06-23T05:35:39Z</time>
<extensions>
<speed>2.2</speed>
<temp>0.00</temp>
<bpm>0</bpm>
<rpm>0.00</rpm>
</extensions>
</trkpt>
<trkpt lat="32.588691711" lon="35.018974304">
  <ele>109.389679</ele>
  <time>2012-06-23T05:35:41Z</time>
<extensions>
<speed>1.6</speed>
<temp>0.00</temp>
<bpm>0</bpm>
<rpm>0.00</rpm>
</extensions>
</trkpt>
<trkpt lat="32.588722229" lon="35.019020081">
  <ele>108.446320</ele>
  <time>2012-06-23T05:35:43Z</time>
<extensions>
<speed>2.0</speed>
<temp>0.00</temp>
<bpm>0</bpm>
<rpm>0.00</rpm>
</extensions>
</trkpt>
<trkpt lat="32.588722229" lon="35.019065857">
  <ele>107.940460</ele>
  <time>2012-06-23T05:35:45Z</time>
<extensions>
<speed>2.0</speed>
<temp>0.00</temp>
<bpm>0</bpm>
<rpm>0.00</rpm>
</extensions>
</trkpt>
<trkpt lat="32.588703156" lon="35.019111633">
  <ele>106.647491</ele>
  <time>2012-06-23T05:35:47Z</time>
<extensions>
<speed>1.6</speed>
<temp>0.00</temp>
<bpm>0</bpm>
<rpm>0.00</rpm>
</extensions>
</trkpt>
<trkpt lat="32.588691711" lon="35.019157410">
  <ele>105.204132</ele>
  <time>2012-06-23T05:35:49Z</time>
<extensions>
<speed>1.8</speed>
<temp>0.00</temp>
<bpm>0</bpm>
<rpm>0.00</rpm>
</extensions>
</trkpt>
<trkpt lat="32.588680267" lon="35.019191742">
  <ele>104.254913</ele>
  <time>2012-06-23T05:35:50Z</time>
<extensions>
<speed>2.5</speed>
<temp>0.00</temp>
<bpm>0</bpm>
<rpm>0.00</rpm>
</extensions>
</trkpt>
<trkpt lat="32.588665009" lon="35.019229889">
  <ele>102.385773</ele>
  <time>2012-06-23T05:35:52Z</time>
<extensions>
<speed>1.8</speed>
<temp>0.00</temp>
<bpm>0</bpm>
<rpm>0.00</rpm>
</extensions>
</trkpt>
<trkpt lat="32.588649750" lon="35.019294739">
  <ele>100.876007</ele>
  <time>2012-06-23T05:35:54Z</time>
<extensions>
<speed>2.7</speed>
<temp>0.00</temp>
<bpm>0</bpm>
<rpm>0.00</rpm>
</extensions>
</trkpt>
<trkpt lat="32.588623047" lon="35.019359589">
  <ele>98.950226</ele>
  <time>2012-06-23T05:35:56Z</time>
<extensions>
<speed>2.6</speed>
<temp>0.00</temp>
<bpm>0</bpm>
<rpm>0.00</rpm>
</extensions>
</trkpt>
<trkpt lat="32.588615417" lon="35.019405365">
  <ele>97.872101</ele>
  <time>2012-06-23T05:35:58Z</time>
<extensions>
<speed>1.9</speed>
<temp>0.00</temp>
<bpm>0</bpm>
<rpm>0.00</rpm>
</extensions>
</trkpt>
<trkpt lat="32.588607788" lon="35.019443512">
  <ele>97.334991</ele>
  <time>2012-06-23T05:35:59Z</time>
<extensions>
<speed>2.4</speed>
<temp>0.00</temp>
<bpm>0</bpm>
<rpm>0.00</rpm>
</extensions>
</trkpt>
<trkpt lat="32.588623047" lon="35.019477844">
  <ele>96.926788</ele>
  <time>2012-06-23T05:36:00Z</time>
<extensions>
<speed>2.9</speed>
<temp>0.00</temp>
<bpm>0</bpm>
<rpm>0.00</rpm>
</extensions>
</trkpt>
<trkpt lat="32.588626862" lon="35.019515991">
  <ele>96.329132</ele>
  <time>2012-06-23T05:36:01Z</time>
<extensions>
<speed>2.2</speed>
<temp>0.00</temp>
<bpm>0</bpm>
<rpm>0.00</rpm>
</extensions>
</trkpt>
<trkpt lat="32.588611603" lon="35.019569397">
  <ele>94.739288</ele>
  <time>2012-06-23T05:36:03Z</time>
<extensions>
<speed>2.7</speed>
<temp>0.00</temp>
<bpm>0</bpm>
<rpm>0.00</rpm>
</extensions>
</trkpt>
<trkpt lat="32.588588715" lon="35.019592285">
  <ele>94.251007</ele>
  <time>2012-06-23T05:36:04Z</time>
<extensions>
<speed>2.6</speed>
<temp>0.00</temp>
<bpm>0</bpm>
<rpm>0.00</rpm>
</extensions>
</trkpt>
<trkpt lat="32.588577271" lon="35.019622803">
  <ele>93.647491</ele>
  <time>2012-06-23T05:36:05Z</time>
<extensions>
<speed>2.7</speed>
<temp>0.00</temp>
<bpm>0</bpm>
<rpm>0.00</rpm>
</extensions>
</trkpt>
<trkpt lat="32.588539124" lon="35.019641876">
  <ele>93.577179</ele>
  <time>2012-06-23T05:36:06Z</time>
<extensions>
<speed>3.2</speed>
<temp>0.00</temp>
<bpm>0</bpm>
<rpm>0.00</rpm>
</extensions>
</trkpt>
<trkpt lat="32.588516235" lon="35.019672394">
  <ele>93.221710</ele>
  <time>2012-06-23T05:36:07Z</time>
<extensions>
<speed>3.0</speed>
<temp>0.00</temp>
<bpm>0</bpm>
<rpm>0.00</rpm>
</extensions>
</trkpt>
<trkpt lat="32.588489532" lon="35.019699097">
  <ele>92.626007</ele>
  <time>2012-06-23T05:36:08Z</time>
<extensions>
<speed>3.0</speed>
<temp>0.00</temp>
<bpm>0</bpm>
<rpm>0.00</rpm>
</extensions>
</trkpt>
<trkpt lat="32.588462830" lon="35.019725800">
  <ele>92.551788</ele>
  <time>2012-06-23T05:36:09Z</time>
<extensions>
<speed>3.1</speed>
<temp>0.00</temp>
<bpm>0</bpm>
<rpm>0.00</rpm>
</extensions>
</trkpt>
<trkpt lat="32.588432312" lon="35.019748688">
  <ele>92.219757</ele>
  <time>2012-06-23T05:36:10Z</time>
<extensions>
<speed>3.1</speed>
<temp>0.00</temp>
<bpm>0</bpm>
<rpm>0.00</rpm>
</extensions>
</trkpt>
<trkpt lat="32.588409424" lon="35.019794464">
  <ele>91.989288</ele>
  <time>2012-06-23T05:36:11Z</time>
<extensions>
<speed>3.2</speed>
<temp>0.00</temp>
<bpm>0</bpm>
<rpm>0.00</rpm>
</extensions>
</trkpt>
<trkpt lat="32.588382721" lon="35.019813538">
  <ele>91.672882</ele>
  <time>2012-06-23T05:36:12Z</time>
<extensions>
<speed>2.8</speed>
<temp>0.00</temp>
<bpm>0</bpm>
<rpm>0.00</rpm>
</extensions>
</trkpt>
<trkpt lat="32.588348389" lon="35.019817352">
  <ele>91.456085</ele>
  <time>2012-06-23T05:36:13Z</time>
<extensions>
<speed>2.8</speed>
<temp>0.00</temp>
<bpm>0</bpm>
<rpm>0.00</rpm>
</extensions>
</trkpt>
<trkpt lat="32.588298798" lon="35.019824982">
  <ele>92.499054</ele>
  <time>2012-06-23T05:36:14Z</time>
<extensions>
<speed>2.9</speed>
<temp>0.00</temp>
<bpm>0</bpm>
<rpm>0.00</rpm>
</extensions>
</trkpt>
<trkpt lat="32.588256836" lon="35.019832611">
  <ele>94.506866</ele>
  <time>2012-06-23T05:36:15Z</time>
<extensions>
<speed>3.2</speed>
<temp>0.00</temp>
<bpm>0</bpm>
<rpm>0.00</rpm>
</extensions>
</trkpt>
<trkpt lat="32.588222504" lon="35.019832611">
  <ele>95.555695</ele>
  <time>2012-06-23T05:36:16Z</time>
<extensions>
<speed>2.8</speed>
<temp>0.00</temp>
<bpm>0</bpm>
<rpm>0.00</rpm>
</extensions>
</trkpt>
<trkpt lat="32.588191986" lon="35.019828796">
  <ele>97.756866</ele>
  <time>2012-06-23T05:36:17Z</time>
<extensions>
<speed>2.9</speed>
<temp>0.00</temp>
<bpm>0</bpm>
<rpm>0.00</rpm>
</extensions>
</trkpt>
<trkpt lat="32.588153839" lon="35.019844055">
  <ele>100.182648</ele>
  <time>2012-06-23T05:36:18Z</time>
<extensions>
<speed>3.0</speed>
<temp>0.00</temp>
<bpm>0</bpm>
<rpm>0.00</rpm>
</extensions>
</trkpt>
<trkpt lat="32.588119507" lon="35.019847870">
  <ele>101.698273</ele>
  <time>2012-06-23T05:36:19Z</time>
<extensions>
<speed>3.2</speed>
<temp>0.00</temp>
<bpm>0</bpm>
<rpm>0.00</rpm>
</extensions>
</trkpt>
<trkpt lat="32.588081360" lon="35.019847870">
  <ele>102.350616</ele>
  <time>2012-06-23T05:36:20Z</time>
<extensions>
<speed>3.1</speed>
<temp>0.00</temp>
<bpm>0</bpm>
<rpm>0.00</rpm>
</extensions>
</trkpt>
<trkpt lat="32.588050842" lon="35.019840240">
  <ele>103.434601</ele>
  <time>2012-06-23T05:36:21Z</time>
<extensions>
<speed>2.9</speed>
<temp>0.00</temp>
<bpm>0</bpm>
<rpm>0.00</rpm>
</extensions>
</trkpt>
<trkpt lat="32.588020325" lon="35.019840240">
  <ele>105.340851</ele>
  <time>2012-06-23T05:36:22Z</time>
<extensions>
<speed>3.0</speed>
<temp>0.00</temp>
<bpm>0</bpm>
<rpm>0.00</rpm>
</extensions>
</trkpt>
<trkpt lat="32.587993622" lon="35.019828796">
  <ele>106.741241</ele>
  <time>2012-06-23T05:36:23Z</time>
<extensions>
<speed>2.9</speed>
<temp>0.00</temp>
<bpm>0</bpm>
<rpm>0.00</rpm>
</extensions>
</trkpt>
<trkpt lat="32.587947845" lon="35.019813538">
  <ele>109.047882</ele>
  <time>2012-06-23T05:36:24Z</time>
<extensions>
<speed>2.6</speed>
<temp>0.00</temp>
<bpm>0</bpm>
<rpm>0.00</rpm>
</extensions>
</trkpt>
<trkpt lat="32.587902069" lon="35.019798279">
  <ele>110.942413</ele>
  <time>2012-06-23T05:36:25Z</time>
<extensions>
<speed>2.7</speed>
<temp>0.00</temp>
<bpm>0</bpm>
<rpm>0.00</rpm>
</extensions>
</trkpt>
<trkpt lat="32.587875366" lon="35.019790649">
  <ele>111.844757</ele>
  <time>2012-06-23T05:36:26Z</time>
<extensions>
<speed>2.9</speed>
<temp>0.00</temp>
<bpm>0</bpm>
<rpm>0.00</rpm>
</extensions>
</trkpt>
<trkpt lat="32.587844849" lon="35.019783020">
  <ele>113.045929</ele>
  <time>2012-06-23T05:36:27Z</time>
<extensions>
<speed>2.9</speed>
<temp>0.00</temp>
<bpm>0</bpm>
<rpm>0.00</rpm>
</extensions>
</trkpt>
<trkpt lat="32.587814331" lon="35.019775391">
  <ele>114.299835</ele>
  <time>2012-06-23T05:36:28Z</time>
<extensions>
<speed>3.1</speed>
<temp>0.00</temp>
<bpm>0</bpm>
<rpm>0.00</rpm>
</extensions>
</trkpt>
<trkpt lat="32.587783813" lon="35.019763947">
  <ele>116.129913</ele>
  <time>2012-06-23T05:36:29Z</time>
<extensions>
<speed>3.1</speed>
<temp>0.00</temp>
<bpm>0</bpm>
<rpm>0.00</rpm>
</extensions>
</trkpt>
<trkpt lat="32.587734222" lon="35.019748688">
  <ele>117.502960</ele>
  <time>2012-06-23T05:36:30Z</time>
<extensions>
<speed>2.9</speed>
<temp>0.00</temp>
<bpm>0</bpm>
<rpm>0.00</rpm>
</extensions>
</trkpt>
<trkpt lat="32.587699890" lon="35.019737244">
  <ele>118.719757</ele>
  <time>2012-06-23T05:36:31Z</time>
<extensions>
<speed>2.8</speed>
<temp>0.00</temp>
<bpm>0</bpm>
<rpm>0.00</rpm>
</extensions>
</trkpt>
<trkpt lat="32.587657928" lon="35.019725800">
  <ele>120.049835</ele>
  <time>2012-06-23T05:36:32Z</time>
<extensions>
<speed>3.0</speed>
<temp>0.00</temp>
<bpm>0</bpm>
<rpm>0.00</rpm>
</extensions>
</trkpt>
<trkpt lat="32.587631226" lon="35.019721985">
  <ele>120.778351</ele>
  <time>2012-06-23T05:36:33Z</time>
<extensions>
<speed>3.0</speed>
<temp>0.00</temp>
<bpm>0</bpm>
<rpm>0.00</rpm>
</extensions>
</trkpt>
<trkpt lat="32.587600708" lon="35.019718170">
  <ele>121.333038</ele>
  <time>2012-06-23T05:36:34Z</time>
<extensions>
<speed>3.2</speed>
<temp>0.00</temp>
<bpm>0</bpm>
<rpm>0.00</rpm>
</extensions>
</trkpt>
<trkpt lat="32.587566376" lon="35.019718170">
  <ele>123.055695</ele>
  <time>2012-06-23T05:36:35Z</time>
<extensions>
<speed>3.3</speed>
<temp>0.00</temp>
<bpm>0</bpm>
<rpm>0.00</rpm>
</extensions>
</trkpt>
<trkpt lat="32.587535858" lon="35.019710541">
  <ele>123.717804</ele>
  <time>2012-06-23T05:36:36Z</time>
<extensions>
<speed>3.0</speed>
<temp>0.00</temp>
<bpm>0</bpm>
<rpm>0.00</rpm>
</extensions>
</trkpt>
<trkpt lat="32.587501526" lon="35.019702911">
  <ele>124.754913</ele>
  <time>2012-06-23T05:36:37Z</time>
<extensions>
<speed>3.1</speed>
<temp>0.00</temp>
<bpm>0</bpm>
<rpm>0.00</rpm>
</extensions>
</trkpt>
<trkpt lat="32.587474823" lon="35.019699097">
  <ele>125.856476</ele>
  <time>2012-06-23T05:36:38Z</time>
<extensions>
<speed>3.0</speed>
<temp>0.00</temp>
<bpm>0</bpm>
<rpm>0.00</rpm>
</extensions>
</trkpt>
<trkpt lat="32.587429047" lon="35.019683838">
  <ele>127.602570</ele>
  <time>2012-06-23T05:36:39Z</time>
<extensions>
<speed>3.2</speed>
<temp>0.00</temp>
<bpm>0</bpm>
<rpm>0.00</rpm>
</extensions>
</trkpt>
<trkpt lat="32.587398529" lon="35.019672394">
  <ele>128.744202</ele>
  <time>2012-06-23T05:36:40Z</time>
<extensions>
<speed>3.2</speed>
<temp>0.00</temp>
<bpm>0</bpm>
<rpm>0.00</rpm>
</extensions>
</trkpt>
<trkpt lat="32.587356567" lon="35.019660950">
  <ele>129.966858</ele>
  <time>2012-06-23T05:36:41Z</time>
<extensions>
<speed>3.3</speed>
<temp>0.00</temp>
<bpm>0</bpm>
<rpm>0.00</rpm>
</extensions>
</trkpt>
<trkpt lat="32.587329865" lon="35.019653320">
  <ele>130.794983</ele>
  <time>2012-06-23T05:36:42Z</time>
<extensions>
<speed>3.1</speed>
<temp>0.00</temp>
<bpm>0</bpm>
<rpm>0.00</rpm>
</extensions>
</trkpt>
<trkpt lat="32.587276459" lon="35.019638062">
  <ele>132.025452</ele>
  <time>2012-06-23T05:36:44Z</time>
<extensions>
<speed>2.8</speed>
<temp>0.00</temp>
<bpm>0</bpm>
<rpm>0.00</rpm>
</extensions>
</trkpt>
<trkpt lat="32.587238312" lon="35.019630432">
  <ele>133.400452</ele>
  <time>2012-06-23T05:36:45Z</time>
<extensions>
<speed>3.4</speed>
<temp>0.00</temp>
<bpm>0</bpm>
<rpm>0.00</rpm>
</extensions>
</trkpt>
<trkpt lat="32.587207794" lon="35.019618988">
  <ele>133.849670</ele>
  <time>2012-06-23T05:36:46Z</time>
<extensions>
<speed>3.3</speed>
<temp>0.00</temp>
<bpm>0</bpm>
<rpm>0.00</rpm>
</extensions>
</trkpt>
<trkpt lat="32.587165833" lon="35.019607544">
  <ele>134.755920</ele>
  <time>2012-06-23T05:36:47Z</time>
<extensions>
<speed>3.0</speed>
<temp>0.00</temp>
<bpm>0</bpm>
<rpm>0.00</rpm>
</extensions>
</trkpt>
<trkpt lat="32.587139130" lon="35.019599915">
  <ele>135.033264</ele>
  <time>2012-06-23T05:36:48Z</time>
<extensions>
<speed>3.2</speed>
<temp>0.00</temp>
<bpm>0</bpm>
<rpm>0.00</rpm>
</extensions>
</trkpt>
<trkpt lat="32.587112427" lon="35.019592285">
  <ele>135.369202</ele>
  <time>2012-06-23T05:36:49Z</time>
<extensions>
<speed>3.0</speed>
<temp>0.00</temp>
<bpm>0</bpm>
<rpm>0.00</rpm>
</extensions>
</trkpt>
<trkpt lat="32.587085724" lon="35.019592285">
  <ele>135.810608</ele>
  <time>2012-06-23T05:36:50Z</time>
<extensions>
<speed>2.8</speed>
<temp>0.00</temp>
<bpm>0</bpm>
<rpm>0.00</rpm>
</extensions>
</trkpt>
<trkpt lat="32.587036133" lon="35.019592285">
  <ele>136.263733</ele>
  <time>2012-06-23T05:36:52Z</time>
<extensions>
<speed>3.0</speed>
<temp>0.00</temp>
<bpm>0</bpm>
<rpm>0.00</rpm>
</extensions>
</trkpt>
<trkpt lat="32.587009430" lon="35.019588470">
  <ele>137.084045</ele>
  <time>2012-06-23T05:36:53Z</time>
<extensions>
<speed>2.9</speed>
<temp>0.00</temp>
<bpm>0</bpm>
<rpm>0.00</rpm>
</extensions>
</trkpt>
<trkpt lat="32.586978912" lon="35.019584656">
  <ele>137.513733</ele>
  <time>2012-06-23T05:36:54Z</time>
<extensions>
<speed>3.1</speed>
<temp>0.00</temp>
<bpm>0</bpm>
<rpm>0.00</rpm>
</extensions>
</trkpt>
<trkpt lat="32.586936951" lon="35.019577026">
  <ele>138.752014</ele>
  <time>2012-06-23T05:36:55Z</time>
<extensions>
<speed>2.8</speed>
<temp>0.00</temp>
<bpm>0</bpm>
<rpm>0.00</rpm>
</extensions>
</trkpt>
<trkpt lat="32.586906433" lon="35.019580841">
  <ele>139.439514</ele>
  <time>2012-06-23T05:36:56Z</time>
<extensions>
<speed>2.7</speed>
<temp>0.00</temp>
<bpm>0</bpm>
<rpm>0.00</rpm>
</extensions>
</trkpt>
<trkpt lat="32.586879730" lon="35.019573212">
  <ele>139.388733</ele>
  <time>2012-06-23T05:36:57Z</time>
<extensions>
<speed>3.0</speed>
<temp>0.00</temp>
<bpm>0</bpm>
<rpm>0.00</rpm>
</extensions>
</trkpt>
<trkpt lat="32.586853027" lon="35.019569397">
  <ele>140.169983</ele>
  <time>2012-06-23T05:36:58Z</time>
<extensions>
<speed>2.7</speed>
<temp>0.00</temp>
<bpm>0</bpm>
<rpm>0.00</rpm>
</extensions>
</trkpt>
<trkpt lat="32.586826324" lon="35.019565582">
  <ele>140.623108</ele>
  <time>2012-06-23T05:36:59Z</time>
<extensions>
<speed>2.9</speed>
<temp>0.00</temp>
<bpm>0</bpm>
<rpm>0.00</rpm>
</extensions>
</trkpt>
<trkpt lat="32.586799622" lon="35.019569397">
  <ele>142.068420</ele>
  <time>2012-06-23T05:37:00Z</time>
<extensions>
<speed>3.0</speed>
<temp>0.00</temp>
<bpm>0</bpm>
<rpm>0.00</rpm>
</extensions>
</trkpt>
<trkpt lat="32.586757660" lon="35.019561768">
  <ele>142.669983</ele>
  <time>2012-06-23T05:37:01Z</time>
<extensions>
<speed>2.9</speed>
<temp>0.00</temp>
<bpm>0</bpm>
<rpm>0.00</rpm>
</extensions>
</trkpt>
<trkpt lat="32.586715698" lon="35.019550323">
  <ele>143.330139</ele>
  <time>2012-06-23T05:37:02Z</time>
<extensions>
<speed>3.0</speed>
<temp>0.00</temp>
<bpm>0</bpm>
<rpm>0.00</rpm>
</extensions>
</trkpt>
<trkpt lat="32.586681366" lon="35.019542694">
  <ele>144.435608</ele>
  <time>2012-06-23T05:37:03Z</time>
<extensions>
<speed>3.1</speed>
<temp>0.00</temp>
<bpm>0</bpm>
<rpm>0.00</rpm>
</extensions>
</trkpt>
<trkpt lat="32.586627960" lon="35.019538879">
  <ele>144.326233</ele>
  <time>2012-06-23T05:37:05Z</time>
<extensions>
<speed>3.3</speed>
<temp>0.00</temp>
<bpm>0</bpm>
<rpm>0.00</rpm>
</extensions>
</trkpt>
<trkpt lat="32.586597443" lon="35.019527435">
  <ele>144.224670</ele>
  <time>2012-06-23T05:37:06Z</time>
<extensions>
<speed>3.2</speed>
<temp>0.00</temp>
<bpm>0</bpm>
<rpm>0.00</rpm>
</extensions>
</trkpt>
<trkpt lat="32.586566925" lon="35.019519806">
  <ele>144.685608</ele>
  <time>2012-06-23T05:37:07Z</time>
<extensions>
<speed>3.4</speed>
<temp>0.00</temp>
<bpm>0</bpm>
<rpm>0.00</rpm>
</extensions>
</trkpt>
<trkpt lat="32.586521149" lon="35.019512177">
  <ele>144.377014</ele>
  <time>2012-06-23T05:37:09Z</time>
<extensions>
<speed>3.4</speed>
<temp>0.00</temp>
<bpm>0</bpm>
<rpm>0.00</rpm>
</extensions>
</trkpt>
<trkpt lat="32.586486816" lon="35.019512177">
  <ele>144.373108</ele>
  <time>2012-06-23T05:37:10Z</time>
<extensions>
<speed>3.6</speed>
<temp>0.00</temp>
<bpm>0</bpm>
<rpm>0.00</rpm>
</extensions>
</trkpt>
<trkpt lat="32.586452484" lon="35.019504547">
  <ele>145.076233</ele>
  <time>2012-06-23T05:37:11Z</time>
<extensions>
<speed>3.5</speed>
<temp>0.00</temp>
<bpm>0</bpm>
<rpm>0.00</rpm>
</extensions>
</trkpt>
<trkpt lat="32.586421967" lon="35.019496918">
  <ele>144.443420</ele>
  <time>2012-06-23T05:37:12Z</time>
<extensions>
<speed>3.3</speed>
<temp>0.00</temp>
<bpm>0</bpm>
<rpm>0.00</rpm>
</extensions>
</trkpt>
<trkpt lat="32.586391449" lon="35.019500732">
  <ele>144.955139</ele>
  <time>2012-06-23T05:37:13Z</time>
<extensions>
<speed>3.1</speed>
<temp>0.00</temp>
<bpm>0</bpm>
<rpm>0.00</rpm>
</extensions>
</trkpt>
<trkpt lat="32.586360931" lon="35.019493103">
  <ele>144.783264</ele>
  <time>2012-06-23T05:37:14Z</time>
<extensions>
<speed>3.1</speed>
<temp>0.00</temp>
<bpm>0</bpm>
<rpm>0.00</rpm>
</extensions>
</trkpt>
<trkpt lat="32.586311340" lon="35.019485474">
  <ele>144.845764</ele>
  <time>2012-06-23T05:37:16Z</time>
<extensions>
<speed>3.0</speed>
<temp>0.00</temp>
<bpm>0</bpm>
<rpm>0.00</rpm>
</extensions>
</trkpt>
<trkpt lat="32.586257935" lon="35.019477844">
  <ele>144.482483</ele>
  <time>2012-06-23T05:37:18Z</time>
<extensions>
<speed>2.9</speed>
<temp>0.00</temp>
<bpm>0</bpm>
<rpm>0.00</rpm>
</extensions>
</trkpt>
<trkpt lat="32.586189270" lon="35.019447327">
  <ele>143.962952</ele>
  <time>2012-06-23T05:37:20Z</time>
<extensions>
<speed>3.1</speed>
<temp>0.00</temp>
<bpm>0</bpm>
<rpm>0.00</rpm>
</extensions>
</trkpt>
<trkpt lat="32.586151123" lon="35.019435883">
  <ele>143.525452</ele>
  <time>2012-06-23T05:37:21Z</time>
<extensions>
<speed>3.2</speed>
<temp>0.00</temp>
<bpm>0</bpm>
<rpm>0.00</rpm>
</extensions>
</trkpt>
<trkpt lat="32.586120605" lon="35.019432068">
  <ele>143.568420</ele>
  <time>2012-06-23T05:37:22Z</time>
<extensions>
<speed>3.5</speed>
<temp>0.00</temp>
<bpm>0</bpm>
<rpm>0.00</rpm>
</extensions>
</trkpt>
<trkpt lat="32.586090088" lon="35.019420624">
  <ele>143.662170</ele>
  <time>2012-06-23T05:37:23Z</time>
<extensions>
<speed>2.9</speed>
<temp>0.00</temp>
<bpm>0</bpm>
<rpm>0.00</rpm>
</extensions>
</trkpt>
<trkpt lat="32.586036682" lon="35.019412994">
  <ele>143.810608</ele>
  <time>2012-06-23T05:37:25Z</time>
<extensions>
<speed>3.2</speed>
<temp>0.00</temp>
<bpm>0</bpm>
<rpm>0.00</rpm>
</extensions>
</trkpt>
<trkpt lat="32.585994720" lon="35.019405365">
  <ele>143.970764</ele>
  <time>2012-06-23T05:37:26Z</time>
<extensions>
<speed>3.5</speed>
<temp>0.00</temp>
<bpm>0</bpm>
<rpm>0.00</rpm>
</extensions>
</trkpt>
<trkpt lat="32.585956573" lon="35.019405365">
  <ele>144.361389</ele>
  <time>2012-06-23T05:37:27Z</time>
<extensions>
<speed>3.4</speed>
<temp>0.00</temp>
<bpm>0</bpm>
<rpm>0.00</rpm>
</extensions>
</trkpt>
<trkpt lat="32.585918427" lon="35.019397736">
  <ele>144.146545</ele>
  <time>2012-06-23T05:37:28Z</time>
<extensions>
<speed>3.8</speed>
<temp>0.00</temp>
<bpm>0</bpm>
<rpm>0.00</rpm>
</extensions>
</trkpt>
<trkpt lat="32.585887909" lon="35.019393921">
  <ele>143.630920</ele>
  <time>2012-06-23T05:37:29Z</time>
<extensions>
<speed>3.5</speed>
<temp>0.00</temp>
<bpm>0</bpm>
<rpm>0.00</rpm>
</extensions>
</trkpt>
<trkpt lat="32.585861206" lon="35.019386292">
  <ele>142.240295</ele>
  <time>2012-06-23T05:37:30Z</time>
<extensions>
<speed>3.2</speed>
<temp>0.00</temp>
<bpm>0</bpm>
<rpm>0.00</rpm>
</extensions>
</trkpt>
<trkpt lat="32.585830688" lon="35.019386292">
  <ele>142.068420</ele>
  <time>2012-06-23T05:37:31Z</time>
<extensions>
<speed>3.2</speed>
<temp>0.00</temp>
<bpm>0</bpm>
<rpm>0.00</rpm>
</extensions>
</trkpt>
<trkpt lat="32.585792542" lon="35.019382477">
  <ele>141.904358</ele>
  <time>2012-06-23T05:37:32Z</time>
<extensions>
<speed>3.5</speed>
<temp>0.00</temp>
<bpm>0</bpm>
<rpm>0.00</rpm>
</extensions>
</trkpt>
<trkpt lat="32.585754395" lon="35.019371033">
  <ele>142.123108</ele>
  <time>2012-06-23T05:37:33Z</time>
<extensions>
<speed>3.3</speed>
<temp>0.00</temp>
<bpm>0</bpm>
<rpm>0.00</rpm>
</extensions>
</trkpt>
<trkpt lat="32.585723877" lon="35.019371033">
  <ele>142.810608</ele>
  <time>2012-06-23T05:37:34Z</time>
<extensions>
<speed>3.5</speed>
<temp>0.00</temp>
<bpm>0</bpm>
<rpm>0.00</rpm>
</extensions>
</trkpt>
<trkpt lat="32.585693359" lon="35.019367218">
  <ele>143.666077</ele>
  <time>2012-06-23T05:37:35Z</time>
<extensions>
<speed>3.2</speed>
<temp>0.00</temp>
<bpm>0</bpm>
<rpm>0.00</rpm>
</extensions>
</trkpt>
<trkpt lat="32.585643768" lon="35.019351959">
  <ele>144.724670</ele>
  <time>2012-06-23T05:37:36Z</time>
<extensions>
<speed>3.7</speed>
<temp>0.00</temp>
<bpm>0</bpm>
<rpm>0.00</rpm>
</extensions>
</trkpt>
<trkpt lat="32.585609436" lon="35.019348145">
  <ele>145.287170</ele>
  <time>2012-06-23T05:37:37Z</time>
<extensions>
<speed>3.8</speed>
<temp>0.00</temp>
<bpm>0</bpm>
<rpm>0.00</rpm>
</extensions>
</trkpt>
<trkpt lat="32.585575104" lon="35.019340515">
  <ele>145.693420</ele>
  <time>2012-06-23T05:37:38Z</time>
<extensions>
<speed>3.4</speed>
<temp>0.00</temp>
<bpm>0</bpm>
<rpm>0.00</rpm>
</extensions>
</trkpt>
<trkpt lat="32.585540771" lon="35.019329071">
  <ele>145.943420</ele>
  <time>2012-06-23T05:37:39Z</time>
<extensions>
<speed>3.3</speed>
<temp>0.00</temp>
<bpm>0</bpm>
<rpm>0.00</rpm>
</extensions>
</trkpt>
<trkpt lat="32.585514069" lon="35.019321442">
  <ele>146.177795</ele>
  <time>2012-06-23T05:37:40Z</time>
<extensions>
<speed>2.9</speed>
<temp>0.00</temp>
<bpm>0</bpm>
<rpm>0.00</rpm>
</extensions>
</trkpt>
<trkpt lat="32.585491180" lon="35.019306183">
  <ele>146.752014</ele>
  <time>2012-06-23T05:37:41Z</time>
<extensions>
<speed>3.0</speed>
<temp>0.00</temp>
<bpm>0</bpm>
<rpm>0.00</rpm>
</extensions>
</trkpt>
<trkpt lat="32.585464478" lon="35.019294739">
  <ele>146.884827</ele>
  <time>2012-06-23T05:37:42Z</time>
<extensions>
<speed>3.0</speed>
<temp>0.00</temp>
<bpm>0</bpm>
<rpm>0.00</rpm>
</extensions>
</trkpt>
<trkpt lat="32.585437775" lon="35.019279480">
  <ele>146.345764</ele>
  <time>2012-06-23T05:37:43Z</time>
<extensions>
<speed>2.8</speed>
<temp>0.00</temp>
<bpm>0</bpm>
<rpm>0.00</rpm>
</extensions>
</trkpt>
<trkpt lat="32.585407257" lon="35.019275665">
  <ele>146.630920</ele>
  <time>2012-06-23T05:37:44Z</time>
<extensions>
<speed>2.9</speed>
<temp>0.00</temp>
<bpm>0</bpm>
<rpm>0.00</rpm>
</extensions>
</trkpt>
<trkpt lat="32.585365295" lon="35.019252777">
  <ele>147.013733</ele>
  <time>2012-06-23T05:37:46Z</time>
<extensions>
<speed>2.8</speed>
<temp>0.00</temp>
<bpm>0</bpm>
<rpm>0.00</rpm>
</extensions>
</trkpt>
<trkpt lat="32.585323334" lon="35.019218445">
  <ele>146.560608</ele>
  <time>2012-06-23T05:37:48Z</time>
<extensions>
<speed>2.9</speed>
<temp>0.00</temp>
<bpm>0</bpm>
<rpm>0.00</rpm>
</extensions>
</trkpt>
<trkpt lat="32.585300446" lon="35.019191742">
  <ele>145.806702</ele>
  <time>2012-06-23T05:37:49Z</time>
<extensions>
<speed>3.1</speed>
<temp>0.00</temp>
<bpm>0</bpm>
<rpm>0.00</rpm>
</extensions>
</trkpt>
<trkpt lat="32.585258484" lon="35.019153595">
  <ele>145.666077</ele>
  <time>2012-06-23T05:37:51Z</time>
<extensions>
<speed>2.7</speed>
<temp>0.00</temp>
<bpm>0</bpm>
<rpm>0.00</rpm>
</extensions>
</trkpt>
<trkpt lat="32.585231781" lon="35.019138336">
  <ele>146.369202</ele>
  <time>2012-06-23T05:37:52Z</time>
<extensions>
<speed>2.6</speed>
<temp>0.00</temp>
<bpm>0</bpm>
<rpm>0.00</rpm>
</extensions>
</trkpt>
<trkpt lat="32.585208893" lon="35.019111633">
  <ele>146.064514</ele>
  <time>2012-06-23T05:37:53Z</time>
<extensions>
<speed>3.3</speed>
<temp>0.00</temp>
<bpm>0</bpm>
<rpm>0.00</rpm>
</extensions>
</trkpt>
<trkpt lat="32.585182190" lon="35.019088745">
  <ele>145.904358</ele>
  <time>2012-06-23T05:37:54Z</time>
<extensions>
<speed>3.2</speed>
<temp>0.00</temp>
<bpm>0</bpm>
<rpm>0.00</rpm>
</extensions>
</trkpt>
<trkpt lat="32.585159302" lon="35.019065857">
  <ele>145.990295</ele>
  <time>2012-06-23T05:37:55Z</time>
<extensions>
<speed>2.9</speed>
<temp>0.00</temp>
<bpm>0</bpm>
<rpm>0.00</rpm>
</extensions>
</trkpt>
<trkpt lat="32.585136414" lon="35.019042969">
  <ele>146.052795</ele>
  <time>2012-06-23T05:37:56Z</time>
<extensions>
<speed>3.3</speed>
<temp>0.00</temp>
<bpm>0</bpm>
<rpm>0.00</rpm>
</extensions>
</trkpt>
<trkpt lat="32.585117340" lon="35.019016266">
  <ele>145.701233</ele>
  <time>2012-06-23T05:37:57Z</time>
<extensions>
<speed>3.6</speed>
<temp>0.00</temp>
<bpm>0</bpm>
<rpm>0.00</rpm>
</extensions>
</trkpt>
<trkpt lat="32.585086823" lon="35.018985748">
  <ele>145.502014</ele>
  <time>2012-06-23T05:37:58Z</time>
<extensions>
<speed>3.9</speed>
<temp>0.00</temp>
<bpm>0</bpm>
<rpm>0.00</rpm>
</extensions>
</trkpt>
<trkpt lat="32.585052490" lon="35.018959045">
  <ele>146.060608</ele>
  <time>2012-06-23T05:37:59Z</time>
<extensions>
<speed>4.0</speed>
<temp>0.00</temp>
<bpm>0</bpm>
<rpm>0.00</rpm>
</extensions>
</trkpt>
<trkpt lat="32.585014343" lon="35.018928528">
  <ele>147.416077</ele>
  <time>2012-06-23T05:38:00Z</time>
<extensions>
<speed>3.8</speed>
<temp>0.00</temp>
<bpm>0</bpm>
<rpm>0.00</rpm>
</extensions>
</trkpt>
<trkpt lat="32.584987640" lon="35.018901825">
  <ele>147.205139</ele>
  <time>2012-06-23T05:38:01Z</time>
<extensions>
<speed>3.5</speed>
<temp>0.00</temp>
<bpm>0</bpm>
<rpm>0.00</rpm>
</extensions>
</trkpt>
<trkpt lat="32.584964752" lon="35.018878937">
  <ele>146.502014</ele>
  <time>2012-06-23T05:38:02Z</time>
<extensions>
<speed>3.3</speed>
<temp>0.00</temp>
<bpm>0</bpm>
<rpm>0.00</rpm>
</extensions>
</trkpt>
<trkpt lat="32.584911346" lon="35.018844604">
  <ele>146.697327</ele>
  <time>2012-06-23T05:38:04Z</time>
<extensions>
<speed>3.0</speed>
<temp>0.00</temp>
<bpm>0</bpm>
<rpm>0.00</rpm>
</extensions>
</trkpt>
<trkpt lat="32.584869385" lon="35.018810272">
  <ele>147.587952</ele>
  <time>2012-06-23T05:38:06Z</time>
<extensions>
<speed>2.9</speed>
<temp>0.00</temp>
<bpm>0</bpm>
<rpm>0.00</rpm>
</extensions>
</trkpt>
<trkpt lat="32.584827423" lon="35.018775940">
  <ele>147.689514</ele>
  <time>2012-06-23T05:38:08Z</time>
<extensions>
<speed>1.8</speed>
<temp>0.00</temp>
<bpm>0</bpm>
<rpm>0.00</rpm>
</extensions>
</trkpt>
<trkpt lat="32.584793091" lon="35.018753052">
  <ele>148.166077</ele>
  <time>2012-06-23T05:38:10Z</time>
<extensions>
<speed>2.3</speed>
<temp>0.00</temp>
<bpm>0</bpm>
<rpm>0.00</rpm>
</extensions>
</trkpt>
<trkpt lat="32.584770203" lon="35.018741608">
  <ele>147.927795</ele>
  <time>2012-06-23T05:38:11Z</time>
<extensions>
<speed>2.6</speed>
<temp>0.00</temp>
<bpm>0</bpm>
<rpm>0.00</rpm>
</extensions>
</trkpt>
<trkpt lat="32.584735870" lon="35.018733978">
  <ele>147.986389</ele>
  <time>2012-06-23T05:38:12Z</time>
<extensions>
<speed>2.9</speed>
<temp>0.00</temp>
<bpm>0</bpm>
<rpm>0.00</rpm>
</extensions>
</trkpt>
<trkpt lat="32.584705353" lon="35.018737793">
  <ele>147.630920</ele>
  <time>2012-06-23T05:38:13Z</time>
<extensions>
<speed>2.9</speed>
<temp>0.00</temp>
<bpm>0</bpm>
<rpm>0.00</rpm>
</extensions>
</trkpt>
<trkpt lat="32.584674835" lon="35.018749237">
  <ele>148.201233</ele>
  <time>2012-06-23T05:38:14Z</time>
<extensions>
<speed>2.1</speed>
<temp>0.00</temp>
<bpm>0</bpm>
<rpm>0.00</rpm>
</extensions>
</trkpt>
<trkpt lat="32.584651947" lon="35.018760681">
  <ele>149.271545</ele>
  <time>2012-06-23T05:38:15Z</time>
<extensions>
<speed>2.2</speed>
<temp>0.00</temp>
<bpm>0</bpm>
<rpm>0.00</rpm>
</extensions>
</trkpt>
<trkpt lat="32.584617615" lon="35.018791199">
  <ele>150.275452</ele>
  <time>2012-06-23T05:38:17Z</time>
<extensions>
<speed>2.2</speed>
<temp>0.00</temp>
<bpm>0</bpm>
<rpm>0.00</rpm>
</extensions>
</trkpt>
<trkpt lat="32.584590912" lon="35.018833160">
  <ele>150.107483</ele>
  <time>2012-06-23T05:38:19Z</time>
<extensions>
<speed>2.1</speed>
<temp>0.00</temp>
<bpm>0</bpm>
<rpm>0.00</rpm>
</extensions>
</trkpt>
<trkpt lat="32.584556580" lon="35.018867493">
  <ele>149.560608</ele>
  <time>2012-06-23T05:38:21Z</time>
<extensions>
<speed>2.1</speed>
<temp>0.00</temp>
<bpm>0</bpm>
<rpm>0.00</rpm>
</extensions>
</trkpt>
<trkpt lat="32.584522247" lon="35.018909454">
  <ele>149.209045</ele>
  <time>2012-06-23T05:38:23Z</time>
<extensions>
<speed>2.3</speed>
<temp>0.00</temp>
<bpm>0</bpm>
<rpm>0.00</rpm>
</extensions>
</trkpt>
<trkpt lat="32.584495544" lon="35.018928528">
  <ele>149.185608</ele>
  <time>2012-06-23T05:38:24Z</time>
<extensions>
<speed>2.3</speed>
<temp>0.00</temp>
<bpm>0</bpm>
<rpm>0.00</rpm>
</extensions>
</trkpt>
<trkpt lat="32.584476471" lon="35.018947601">
  <ele>149.166077</ele>
  <time>2012-06-23T05:38:25Z</time>
<extensions>
<speed>2.5</speed>
<temp>0.00</temp>
<bpm>0</bpm>
<rpm>0.00</rpm>
</extensions>
</trkpt>
<trkpt lat="32.584438324" lon="35.018989563">
  <ele>150.052795</ele>
  <time>2012-06-23T05:38:27Z</time>
<extensions>
<speed>2.0</speed>
<temp>0.00</temp>
<bpm>0</bpm>
<rpm>0.00</rpm>
</extensions>
</trkpt>
<trkpt lat="32.584407806" lon="35.019042969">
  <ele>149.392639</ele>
  <time>2012-06-23T05:38:29Z</time>
<extensions>
<speed>2.9</speed>
<temp>0.00</temp>
<bpm>0</bpm>
<rpm>0.00</rpm>
</extensions>
</trkpt>
<trkpt lat="32.584388733" lon="35.019069672">
  <ele>149.568420</ele>
  <time>2012-06-23T05:38:30Z</time>
<extensions>
<speed>2.2</speed>
<temp>0.00</temp>
<bpm>0</bpm>
<rpm>0.00</rpm>
</extensions>
</trkpt>
<trkpt lat="32.584365845" lon="35.019115448">
  <ele>150.396545</ele>
  <time>2012-06-23T05:38:32Z</time>
<extensions>
<speed>1.8</speed>
<temp>0.00</temp>
<bpm>0</bpm>
<rpm>0.00</rpm>
</extensions>
</trkpt>
<trkpt lat="32.584358215" lon="35.019153595">
  <ele>150.306702</ele>
  <time>2012-06-23T05:38:33Z</time>
<extensions>
<speed>2.5</speed>
<temp>0.00</temp>
<bpm>0</bpm>
<rpm>0.00</rpm>
</extensions>
</trkpt>
<trkpt lat="32.584342957" lon="35.019207001">
  <ele>150.830139</ele>
  <time>2012-06-23T05:38:35Z</time>
<extensions>
<speed>1.6</speed>
<temp>0.00</temp>
<bpm>0</bpm>
<rpm>0.00</rpm>
</extensions>
</trkpt>
<trkpt lat="32.584327698" lon="35.019260406">
  <ele>151.533264</ele>
  <time>2012-06-23T05:38:37Z</time>
<extensions>
<speed>1.8</speed>
<temp>0.00</temp>
<bpm>0</bpm>
<rpm>0.00</rpm>
</extensions>
</trkpt>
<trkpt lat="32.584300995" lon="35.019309998">
  <ele>151.677795</ele>
  <time>2012-06-23T05:38:39Z</time>
<extensions>
<speed>2.3</speed>
<temp>0.00</temp>
<bpm>0</bpm>
<rpm>0.00</rpm>
</extensions>
</trkpt>
<trkpt lat="32.584259033" lon="35.019355774">
  <ele>151.779358</ele>
  <time>2012-06-23T05:38:41Z</time>
<extensions>
<speed>2.9</speed>
<temp>0.00</temp>
<bpm>0</bpm>
<rpm>0.00</rpm>
</extensions>
</trkpt>
<trkpt lat="32.584236145" lon="35.019378662">
  <ele>151.877014</ele>
  <time>2012-06-23T05:38:42Z</time>
<extensions>
<speed>2.2</speed>
<temp>0.00</temp>
<bpm>0</bpm>
<rpm>0.00</rpm>
</extensions>
</trkpt>
<trkpt lat="32.584205627" lon="35.019424438">
  <ele>151.966858</ele>
  <time>2012-06-23T05:38:44Z</time>
<extensions>
<speed>2.1</speed>
<temp>0.00</temp>
<bpm>0</bpm>
<rpm>0.00</rpm>
</extensions>
</trkpt>
<trkpt lat="32.584186554" lon="35.019458771">
  <ele>152.072327</ele>
  <time>2012-06-23T05:38:45Z</time>
<extensions>
<speed>2.5</speed>
<temp>0.00</temp>
<bpm>0</bpm>
<rpm>0.00</rpm>
</extensions>
</trkpt>
<trkpt lat="32.584171295" lon="35.019489288">
  <ele>152.470764</ele>
  <time>2012-06-23T05:38:46Z</time>
<extensions>
<speed>2.5</speed>
<temp>0.00</temp>
<bpm>0</bpm>
<rpm>0.00</rpm>
</extensions>
</trkpt>
<trkpt lat="32.584156036" lon="35.019515991">
  <ele>152.123108</ele>
  <time>2012-06-23T05:38:47Z</time>
<extensions>
<speed>2.4</speed>
<temp>0.00</temp>
<bpm>0</bpm>
<rpm>0.00</rpm>
</extensions>
</trkpt>
<trkpt lat="32.584129333" lon="35.019546509">
  <ele>151.841858</ele>
  <time>2012-06-23T05:38:48Z</time>
<extensions>
<speed>3.5</speed>
<temp>0.00</temp>
<bpm>0</bpm>
<rpm>0.00</rpm>
</extensions>
</trkpt>
<trkpt lat="32.584102631" lon="35.019580841">
  <ele>151.720764</ele>
  <time>2012-06-23T05:38:49Z</time>
<extensions>
<speed>3.5</speed>
<temp>0.00</temp>
<bpm>0</bpm>
<rpm>0.00</rpm>
</extensions>
</trkpt>
<trkpt lat="32.584068298" lon="35.019607544">
  <ele>151.584045</ele>
  <time>2012-06-23T05:38:50Z</time>
<extensions>
<speed>3.1</speed>
<temp>0.00</temp>
<bpm>0</bpm>
<rpm>0.00</rpm>
</extensions>
</trkpt>
<trkpt lat="32.584049225" lon="35.019630432">
  <ele>151.365295</ele>
  <time>2012-06-23T05:38:51Z</time>
<extensions>
<speed>2.8</speed>
<temp>0.00</temp>
<bpm>0</bpm>
<rpm>0.00</rpm>
</extensions>
</trkpt>
<trkpt lat="32.584018707" lon="35.019660950">
  <ele>150.865295</ele>
  <time>2012-06-23T05:38:52Z</time>
<extensions>
<speed>3.1</speed>
<temp>0.00</temp>
<bpm>0</bpm>
<rpm>0.00</rpm>
</extensions>
</trkpt>
<trkpt lat="32.583988190" lon="35.019695282">
  <ele>151.072327</ele>
  <time>2012-06-23T05:38:53Z</time>
<extensions>
<speed>3.3</speed>
<temp>0.00</temp>
<bpm>0</bpm>
<rpm>0.00</rpm>
</extensions>
</trkpt>
<trkpt lat="32.583965302" lon="35.019718170">
  <ele>151.392639</ele>
  <time>2012-06-23T05:38:54Z</time>
<extensions>
<speed>2.9</speed>
<temp>0.00</temp>
<bpm>0</bpm>
<rpm>0.00</rpm>
</extensions>
</trkpt>
<trkpt lat="32.583934784" lon="35.019741058">
  <ele>151.787170</ele>
  <time>2012-06-23T05:38:55Z</time>
<extensions>
<speed>2.5</speed>
<temp>0.00</temp>
<bpm>0</bpm>
<rpm>0.00</rpm>
</extensions>
</trkpt>
<trkpt lat="32.583908081" lon="35.019798279">
  <ele>151.060608</ele>
  <time>2012-06-23T05:38:56Z</time>
<extensions>
<speed>3.2</speed>
<temp>0.00</temp>
<bpm>0</bpm>
<rpm>0.00</rpm>
</extensions>
</trkpt>
<trkpt lat="32.583885193" lon="35.019828796">
  <ele>151.068420</ele>
  <time>2012-06-23T05:38:57Z</time>
<extensions>
<speed>3.0</speed>
<temp>0.00</temp>
<bpm>0</bpm>
<rpm>0.00</rpm>
</extensions>
</trkpt>
<trkpt lat="32.583866119" lon="35.019851685">
  <ele>150.587952</ele>
  <time>2012-06-23T05:38:58Z</time>
<extensions>
<speed>2.9</speed>
<temp>0.00</temp>
<bpm>0</bpm>
<rpm>0.00</rpm>
</extensions>
</trkpt>
<trkpt lat="32.583843231" lon="35.019893646">
  <ele>151.123108</ele>
  <time>2012-06-23T05:38:59Z</time>
<extensions>
<speed>3.0</speed>
<temp>0.00</temp>
<bpm>0</bpm>
<rpm>0.00</rpm>
</extensions>
</trkpt>
<trkpt lat="32.583820343" lon="35.019920349">
  <ele>151.326233</ele>
  <time>2012-06-23T05:39:00Z</time>
<extensions>
<speed>2.8</speed>
<temp>0.00</temp>
<bpm>0</bpm>
<rpm>0.00</rpm>
</extensions>
</trkpt>
<trkpt lat="32.583801270" lon="35.019943237">
  <ele>151.216858</ele>
  <time>2012-06-23T05:39:01Z</time>
<extensions>
<speed>2.6</speed>
<temp>0.00</temp>
<bpm>0</bpm>
<rpm>0.00</rpm>
</extensions>
</trkpt>
<trkpt lat="32.583786011" lon="35.020004272">
  <ele>151.189514</ele>
  <time>2012-06-23T05:39:02Z</time>
<extensions>
<speed>2.2</speed>
<temp>0.00</temp>
<bpm>0</bpm>
<rpm>0.00</rpm>
</extensions>
</trkpt>
<trkpt lat="32.583763123" lon="35.020042419">
  <ele>151.931702</ele>
  <time>2012-06-23T05:39:03Z</time>
<extensions>
<speed>2.0</speed>
<temp>0.00</temp>
<bpm>0</bpm>
<rpm>0.00</rpm>
</extensions>
</trkpt>
<trkpt lat="32.583709717" lon="35.020050049">
  <ele>152.709045</ele>
  <time>2012-06-23T05:39:05Z</time>
<extensions>
<speed>2.5</speed>
<temp>0.00</temp>
<bpm>0</bpm>
<rpm>0.00</rpm>
</extensions>
</trkpt>
<trkpt lat="32.583660126" lon="35.020034790">
  <ele>152.263733</ele>
  <time>2012-06-23T05:39:07Z</time>
<extensions>
<speed>2.7</speed>
<temp>0.00</temp>
<bpm>0</bpm>
<rpm>0.00</rpm>
</extensions>
</trkpt>
<trkpt lat="32.583621979" lon="35.020011902">
  <ele>152.048889</ele>
  <time>2012-06-23T05:39:09Z</time>
<extensions>
<speed>1.7</speed>
<temp>0.00</temp>
<bpm>0</bpm>
<rpm>0.00</rpm>
</extensions>
</trkpt>
<trkpt lat="32.583564758" lon="35.019985199">
  <ele>152.787170</ele>
  <time>2012-06-23T05:39:11Z</time>
<extensions>
<speed>3.2</speed>
<temp>0.00</temp>
<bpm>0</bpm>
<rpm>0.00</rpm>
</extensions>
</trkpt>
<trkpt lat="32.583541870" lon="35.019939423">
  <ele>154.252014</ele>
  <time>2012-06-23T05:39:13Z</time>
<extensions>
<speed>2.6</speed>
<temp>0.00</temp>
<bpm>0</bpm>
<rpm>0.00</rpm>
</extensions>
</trkpt>
<trkpt lat="32.583541870" lon="35.019901276">
  <ele>154.693420</ele>
  <time>2012-06-23T05:39:14Z</time>
<extensions>
<speed>3.1</speed>
<temp>0.00</temp>
<bpm>0</bpm>
<rpm>0.00</rpm>
</extensions>
</trkpt>
<trkpt lat="32.583538055" lon="35.019863129">
  <ele>154.337952</ele>
  <time>2012-06-23T05:39:15Z</time>
<extensions>
<speed>3.1</speed>
<temp>0.00</temp>
<bpm>0</bpm>
<rpm>0.00</rpm>
</extensions>
</trkpt>
<trkpt lat="32.583553314" lon="35.019809723">
  <ele>155.482483</ele>
  <time>2012-06-23T05:39:17Z</time>
<extensions>
<speed>2.4</speed>
<temp>0.00</temp>
<bpm>0</bpm>
<rpm>0.00</rpm>
</extensions>
</trkpt>
<trkpt lat="32.583568573" lon="35.019760132">
  <ele>157.150452</ele>
  <time>2012-06-23T05:39:19Z</time>
<extensions>
<speed>2.6</speed>
<temp>0.00</temp>
<bpm>0</bpm>
<rpm>0.00</rpm>
</extensions>
</trkpt>
<trkpt lat="32.583599091" lon="35.019714355">
  <ele>158.748108</ele>
  <time>2012-06-23T05:39:21Z</time>
<extensions>
<speed>2.5</speed>
<temp>0.00</temp>
<bpm>0</bpm>
<rpm>0.00</rpm>
</extensions>
</trkpt>
<trkpt lat="32.583621979" lon="35.019672394">
  <ele>160.037170</ele>
  <time>2012-06-23T05:39:23Z</time>
<extensions>
<speed>2.6</speed>
<temp>0.00</temp>
<bpm>0</bpm>
<rpm>0.00</rpm>
</extensions>
</trkpt>
<trkpt lat="32.583656311" lon="35.019634247">
  <ele>159.783264</ele>
  <time>2012-06-23T05:39:25Z</time>
<extensions>
<speed>2.3</speed>
<temp>0.00</temp>
<bpm>0</bpm>
<rpm>0.00</rpm>
</extensions>
</trkpt>
<trkpt lat="32.583679199" lon="35.019592285">
  <ele>160.150452</ele>
  <time>2012-06-23T05:39:27Z</time>
<extensions>
<speed>2.2</speed>
<temp>0.00</temp>
<bpm>0</bpm>
<rpm>0.00</rpm>
</extensions>
</trkpt>
<trkpt lat="32.583713531" lon="35.019561768">
  <ele>160.439514</ele>
  <time>2012-06-23T05:39:29Z</time>
<extensions>
<speed>2.1</speed>
<temp>0.00</temp>
<bpm>0</bpm>
<rpm>0.00</rpm>
</extensions>
</trkpt>
<trkpt lat="32.583744049" lon="35.019538879">
  <ele>159.654358</ele>
  <time>2012-06-23T05:39:31Z</time>
<extensions>
<speed>2.3</speed>
<temp>0.00</temp>
<bpm>0</bpm>
<rpm>0.00</rpm>
</extensions>
</trkpt>
<trkpt lat="32.583763123" lon="35.019515991">
  <ele>159.908264</ele>
  <time>2012-06-23T05:39:32Z</time>
<extensions>
<speed>2.3</speed>
<temp>0.00</temp>
<bpm>0</bpm>
<rpm>0.00</rpm>
</extensions>
</trkpt>
<trkpt lat="32.583805084" lon="35.019489288">
  <ele>160.041077</ele>
  <time>2012-06-23T05:39:34Z</time>
<extensions>
<speed>2.4</speed>
<temp>0.00</temp>
<bpm>0</bpm>
<rpm>0.00</rpm>
</extensions>
</trkpt>
<trkpt lat="32.583839417" lon="35.019454956">
  <ele>161.041077</ele>
  <time>2012-06-23T05:39:36Z</time>
<extensions>
<speed>2.5</speed>
<temp>0.00</temp>
<bpm>0</bpm>
<rpm>0.00</rpm>
</extensions>
</trkpt>
<trkpt lat="32.583869934" lon="35.019416809">
  <ele>161.494202</ele>
  <time>2012-06-23T05:39:38Z</time>
<extensions>
<speed>2.1</speed>
<temp>0.00</temp>
<bpm>0</bpm>
<rpm>0.00</rpm>
</extensions>
</trkpt>
<trkpt lat="32.583892822" lon="35.019374847">
  <ele>161.716858</ele>
  <time>2012-06-23T05:39:40Z</time>
<extensions>
<speed>2.3</speed>
<temp>0.00</temp>
<bpm>0</bpm>
<rpm>0.00</rpm>
</extensions>
</trkpt>
<trkpt lat="32.583915710" lon="35.019332886">
  <ele>161.662170</ele>
  <time>2012-06-23T05:39:42Z</time>
<extensions>
<speed>2.5</speed>
<temp>0.00</temp>
<bpm>0</bpm>
<rpm>0.00</rpm>
</extensions>
</trkpt>
<trkpt lat="32.583930969" lon="35.019298553">
  <ele>162.416077</ele>
  <time>2012-06-23T05:39:43Z</time>
<extensions>
<speed>2.4</speed>
<temp>0.00</temp>
<bpm>0</bpm>
<rpm>0.00</rpm>
</extensions>
</trkpt>
<trkpt lat="32.583961487" lon="35.019256592">
  <ele>162.314514</ele>
  <time>2012-06-23T05:39:45Z</time>
<extensions>
<speed>2.6</speed>
<temp>0.00</temp>
<bpm>0</bpm>
<rpm>0.00</rpm>
</extensions>
</trkpt>
<trkpt lat="32.583984375" lon="35.019214630">
  <ele>162.744202</ele>
  <time>2012-06-23T05:39:47Z</time>
<extensions>
<speed>2.1</speed>
<temp>0.00</temp>
<bpm>0</bpm>
<rpm>0.00</rpm>
</extensions>
</trkpt>
<trkpt lat="32.583995819" lon="35.019168854">
  <ele>162.130920</ele>
  <time>2012-06-23T05:39:49Z</time>
<extensions>
<speed>2.0</speed>
<temp>0.00</temp>
<bpm>0</bpm>
<rpm>0.00</rpm>
</extensions>
</trkpt>
<trkpt lat="32.584014893" lon="35.019134521">
  <ele>162.232483</ele>
  <time>2012-06-23T05:39:51Z</time>
<extensions>
<speed>1.8</speed>
<temp>0.00</temp>
<bpm>0</bpm>
<rpm>0.00</rpm>
</extensions>
</trkpt>
<trkpt lat="32.584033966" lon="35.019104004">
  <ele>162.380920</ele>
  <time>2012-06-23T05:39:53Z</time>
<extensions>
<speed>1.6</speed>
<temp>0.00</temp>
<bpm>0</bpm>
<rpm>0.00</rpm>
</extensions>
</trkpt>
<trkpt lat="32.584049225" lon="35.019077301">
  <ele>162.732483</ele>
  <time>2012-06-23T05:39:54Z</time>
<extensions>
<speed>1.8</speed>
<temp>0.00</temp>
<bpm>0</bpm>
<rpm>0.00</rpm>
</extensions>
</trkpt>
<trkpt lat="32.584060669" lon="35.019046783">
  <ele>162.752014</ele>
  <time>2012-06-23T05:39:56Z</time>
<extensions>
<speed>1.9</speed>
<temp>0.00</temp>
<bpm>0</bpm>
<rpm>0.00</rpm>
</extensions>
</trkpt>
<trkpt lat="32.584072113" lon="35.019008636">
  <ele>162.904358</ele>
  <time>2012-06-23T05:39:58Z</time>
<extensions>
<speed>2.1</speed>
<temp>0.00</temp>
<bpm>0</bpm>
<rpm>0.00</rpm>
</extensions>
</trkpt>
<trkpt lat="32.584075928" lon="35.018966675">
  <ele>163.423889</ele>
  <time>2012-06-23T05:40:00Z</time>
<extensions>
<speed>1.8</speed>
<temp>0.00</temp>
<bpm>0</bpm>
<rpm>0.00</rpm>
</extensions>
</trkpt>
<trkpt lat="32.584102631" lon="35.018886566">
  <ele>164.673889</ele>
  <time>2012-06-23T05:40:02Z</time>
<extensions>
<speed>2.0</speed>
<temp>0.00</temp>
<bpm>0</bpm>
<rpm>0.00</rpm>
</extensions>
</trkpt>
<trkpt lat="32.584110260" lon="35.018840790">
  <ele>165.029358</ele>
  <time>2012-06-23T05:40:04Z</time>
<extensions>
<speed>2.1</speed>
<temp>0.00</temp>
<bpm>0</bpm>
<rpm>0.00</rpm>
</extensions>
</trkpt>
<trkpt lat="32.584114075" lon="35.018806458">
  <ele>165.216858</ele>
  <time>2012-06-23T05:40:05Z</time>
<extensions>
<speed>2.2</speed>
<temp>0.00</temp>
<bpm>0</bpm>
<rpm>0.00</rpm>
</extensions>
</trkpt>
<trkpt lat="32.584117889" lon="35.018760681">
  <ele>166.634827</ele>
  <time>2012-06-23T05:40:07Z</time>
<extensions>
<speed>1.8</speed>
<temp>0.00</temp>
<bpm>0</bpm>
<rpm>0.00</rpm>
</extensions>
</trkpt>
<trkpt lat="32.584125519" lon="35.018718719">
  <ele>167.306702</ele>
  <time>2012-06-23T05:40:09Z</time>
<extensions>
<speed>2.0</speed>
<temp>0.00</temp>
<bpm>0</bpm>
<rpm>0.00</rpm>
</extensions>
</trkpt>
<trkpt lat="32.584129333" lon="35.018680573">
  <ele>167.986389</ele>
  <time>2012-06-23T05:40:11Z</time>
<extensions>
<speed>1.9</speed>
<temp>0.00</temp>
<bpm>0</bpm>
<rpm>0.00</rpm>
</extensions>
</trkpt>
<trkpt lat="32.584152222" lon="35.018646240">
  <ele>167.283264</ele>
  <time>2012-06-23T05:40:13Z</time>
<extensions>
<speed>1.8</speed>
<temp>0.00</temp>
<bpm>0</bpm>
<rpm>0.00</rpm>
</extensions>
</trkpt>
<trkpt lat="32.584159851" lon="35.018596649">
  <ele>167.904358</ele>
  <time>2012-06-23T05:40:15Z</time>
<extensions>
<speed>1.8</speed>
<temp>0.00</temp>
<bpm>0</bpm>
<rpm>0.00</rpm>
</extensions>
</trkpt>
<trkpt lat="32.584159851" lon="35.018558502">
  <ele>168.802795</ele>
  <time>2012-06-23T05:40:16Z</time>
<extensions>
<speed>1.9</speed>
<temp>0.00</temp>
<bpm>0</bpm>
<rpm>0.00</rpm>
</extensions>
</trkpt>
<trkpt lat="32.584175110" lon="35.018516541">
  <ele>168.580139</ele>
  <time>2012-06-23T05:40:18Z</time>
<extensions>
<speed>1.7</speed>
<temp>0.00</temp>
<bpm>0</bpm>
<rpm>0.00</rpm>
</extensions>
</trkpt>
<trkpt lat="32.584182739" lon="35.018466949">
  <ele>169.576233</ele>
  <time>2012-06-23T05:40:20Z</time>
<extensions>
<speed>1.8</speed>
<temp>0.00</temp>
<bpm>0</bpm>
<rpm>0.00</rpm>
</extensions>
</trkpt>
<trkpt lat="32.584197998" lon="35.018432617">
  <ele>170.080139</ele>
  <time>2012-06-23T05:40:22Z</time>
<extensions>
<speed>1.7</speed>
<temp>0.00</temp>
<bpm>0</bpm>
<rpm>0.00</rpm>
</extensions>
</trkpt>
<trkpt lat="32.584205627" lon="35.018394470">
  <ele>170.271545</ele>
  <time>2012-06-23T05:40:24Z</time>
<extensions>
<speed>1.5</speed>
<temp>0.00</temp>
<bpm>0</bpm>
<rpm>0.00</rpm>
</extensions>
</trkpt>
<trkpt lat="32.584205627" lon="35.018360138">
  <ele>170.841858</ele>
  <time>2012-06-23T05:40:26Z</time>
<extensions>
<speed>1.7</speed>
<temp>0.00</temp>
<bpm>0</bpm>
<rpm>0.00</rpm>
</extensions>
</trkpt>
<trkpt lat="32.584220886" lon="35.018325806">
  <ele>171.482483</ele>
  <time>2012-06-23T05:40:28Z</time>
<extensions>
<speed>1.8</speed>
<temp>0.00</temp>
<bpm>0</bpm>
<rpm>0.00</rpm>
</extensions>
</trkpt>
<trkpt lat="32.584236145" lon="35.018283844">
  <ele>172.212952</ele>
  <time>2012-06-23T05:40:30Z</time>
<extensions>
<speed>2.0</speed>
<temp>0.00</temp>
<bpm>0</bpm>
<rpm>0.00</rpm>
</extensions>
</trkpt>
<trkpt lat="32.584251404" lon="35.018245697">
  <ele>172.615295</ele>
  <time>2012-06-23T05:40:32Z</time>
<extensions>
<speed>1.7</speed>
<temp>0.00</temp>
<bpm>0</bpm>
<rpm>0.00</rpm>
</extensions>
</trkpt>
<trkpt lat="32.584259033" lon="35.018199921">
  <ele>172.474670</ele>
  <time>2012-06-23T05:40:34Z</time>
<extensions>
<speed>1.5</speed>
<temp>0.00</temp>
<bpm>0</bpm>
<rpm>0.00</rpm>
</extensions>
</trkpt>
<trkpt lat="32.584270477" lon="35.018165588">
  <ele>172.646545</ele>
  <time>2012-06-23T05:40:36Z</time>
<extensions>
<speed>2.0</speed>
<temp>0.00</temp>
<bpm>0</bpm>
<rpm>0.00</rpm>
</extensions>
</trkpt>
<trkpt lat="32.584278107" lon="35.018119812">
  <ele>172.724670</ele>
  <time>2012-06-23T05:40:38Z</time>
<extensions>
<speed>2.1</speed>
<temp>0.00</temp>
<bpm>0</bpm>
<rpm>0.00</rpm>
</extensions>
</trkpt>
<trkpt lat="32.584289551" lon="35.018074036">
  <ele>173.814514</ele>
  <time>2012-06-23T05:40:40Z</time>
<extensions>
<speed>1.8</speed>
<temp>0.00</temp>
<bpm>0</bpm>
<rpm>0.00</rpm>
</extensions>
</trkpt>
<trkpt lat="32.584297180" lon="35.018016815">
  <ele>173.548889</ele>
  <time>2012-06-23T05:40:42Z</time>
<extensions>
<speed>2.2</speed>
<temp>0.00</temp>
<bpm>0</bpm>
<rpm>0.00</rpm>
</extensions>
</trkpt>
<trkpt lat="32.584297180" lon="35.017982483">
  <ele>174.591858</ele>
  <time>2012-06-23T05:40:43Z</time>
<extensions>
<speed>2.1</speed>
<temp>0.00</temp>
<bpm>0</bpm>
<rpm>0.00</rpm>
</extensions>
</trkpt>
<trkpt lat="32.584312439" lon="35.017936707">
  <ele>174.923889</ele>
  <time>2012-06-23T05:40:45Z</time>
<extensions>
<speed>2.2</speed>
<temp>0.00</temp>
<bpm>0</bpm>
<rpm>0.00</rpm>
</extensions>
</trkpt>
<trkpt lat="32.584327698" lon="35.017887115">
  <ele>174.916077</ele>
  <time>2012-06-23T05:40:47Z</time>
<extensions>
<speed>2.0</speed>
<temp>0.00</temp>
<bpm>0</bpm>
<rpm>0.00</rpm>
</extensions>
</trkpt>
<trkpt lat="32.584339142" lon="35.017845154">
  <ele>175.513733</ele>
  <time>2012-06-23T05:40:49Z</time>
<extensions>
<speed>2.1</speed>
<temp>0.00</temp>
<bpm>0</bpm>
<rpm>0.00</rpm>
</extensions>
</trkpt>
<trkpt lat="32.584342957" lon="35.017791748">
  <ele>176.134827</ele>
  <time>2012-06-23T05:40:51Z</time>
<extensions>
<speed>2.3</speed>
<temp>0.00</temp>
<bpm>0</bpm>
<rpm>0.00</rpm>
</extensions>
</trkpt>
<trkpt lat="32.584350586" lon="35.017757416">
  <ele>176.228577</ele>
  <time>2012-06-23T05:40:52Z</time>
<extensions>
<speed>2.4</speed>
<temp>0.00</temp>
<bpm>0</bpm>
<rpm>0.00</rpm>
</extensions>
</trkpt>
<trkpt lat="32.584354401" lon="35.017711639">
  <ele>177.638733</ele>
  <time>2012-06-23T05:40:54Z</time>
<extensions>
<speed>2.1</speed>
<temp>0.00</temp>
<bpm>0</bpm>
<rpm>0.00</rpm>
</extensions>
</trkpt>
<trkpt lat="32.584339142" lon="35.017658234">
  <ele>177.974670</ele>
  <time>2012-06-23T05:40:56Z</time>
<extensions>
<speed>2.3</speed>
<temp>0.00</temp>
<bpm>0</bpm>
<rpm>0.00</rpm>
</extensions>
</trkpt>
<trkpt lat="32.584327698" lon="35.017604828">
  <ele>178.923889</ele>
  <time>2012-06-23T05:40:58Z</time>
<extensions>
<speed>1.9</speed>
<temp>0.00</temp>
<bpm>0</bpm>
<rpm>0.00</rpm>
</extensions>
</trkpt>
<trkpt lat="32.584320068" lon="35.017551422">
  <ele>180.529358</ele>
  <time>2012-06-23T05:41:00Z</time>
<extensions>
<speed>1.9</speed>
<temp>0.00</temp>
<bpm>0</bpm>
<rpm>0.00</rpm>
</extensions>
</trkpt>
<trkpt lat="32.584320068" lon="35.017509460">
  <ele>180.380920</ele>
  <time>2012-06-23T05:41:02Z</time>
<extensions>
<speed>1.8</speed>
<temp>0.00</temp>
<bpm>0</bpm>
<rpm>0.00</rpm>
</extensions>
</trkpt>
<trkpt lat="32.584320068" lon="35.017471313">
  <ele>180.685608</ele>
  <time>2012-06-23T05:41:04Z</time>
<extensions>
<speed>2.0</speed>
<temp>0.00</temp>
<bpm>0</bpm>
<rpm>0.00</rpm>
</extensions>
</trkpt>
<trkpt lat="32.584316254" lon="35.017417908">
  <ele>180.834045</ele>
  <time>2012-06-23T05:41:06Z</time>
<extensions>
<speed>2.1</speed>
<temp>0.00</temp>
<bpm>0</bpm>
<rpm>0.00</rpm>
</extensions>
</trkpt>
<trkpt lat="32.584316254" lon="35.017375946">
  <ele>180.400452</ele>
  <time>2012-06-23T05:41:08Z</time>
<extensions>
<speed>1.6</speed>
<temp>0.00</temp>
<bpm>0</bpm>
<rpm>0.00</rpm>
</extensions>
</trkpt>
<trkpt lat="32.584320068" lon="35.017337799">
  <ele>181.263733</ele>
  <time>2012-06-23T05:41:10Z</time>
<extensions>
<speed>2.1</speed>
<temp>0.00</temp>
<bpm>0</bpm>
<rpm>0.00</rpm>
</extensions>
</trkpt>
<trkpt lat="32.584331512" lon="35.017288208">
  <ele>181.572327</ele>
  <time>2012-06-23T05:41:12Z</time>
<extensions>
<speed>1.8</speed>
<temp>0.00</temp>
<bpm>0</bpm>
<rpm>0.00</rpm>
</extensions>
</trkpt>
<trkpt lat="32.584339142" lon="35.017246246">
  <ele>181.595764</ele>
  <time>2012-06-23T05:41:14Z</time>
<extensions>
<speed>2.1</speed>
<temp>0.00</temp>
<bpm>0</bpm>
<rpm>0.00</rpm>
</extensions>
</trkpt>
<trkpt lat="32.584339142" lon="35.017196655">
  <ele>181.681702</ele>
  <time>2012-06-23T05:41:16Z</time>
<extensions>
<speed>2.1</speed>
<temp>0.00</temp>
<bpm>0</bpm>
<rpm>0.00</rpm>
</extensions>
</trkpt>
<trkpt lat="32.584346771" lon="35.017150879">
  <ele>182.216858</ele>
  <time>2012-06-23T05:41:18Z</time>
<extensions>
<speed>2.1</speed>
<temp>0.00</temp>
<bpm>0</bpm>
<rpm>0.00</rpm>
</extensions>
</trkpt>
<trkpt lat="32.584354401" lon="35.017105103">
  <ele>182.310608</ele>
  <time>2012-06-23T05:41:20Z</time>
<extensions>
<speed>2.2</speed>
<temp>0.00</temp>
<bpm>0</bpm>
<rpm>0.00</rpm>
</extensions>
</trkpt>
<trkpt lat="32.584346771" lon="35.017055511">
  <ele>182.689514</ele>
  <time>2012-06-23T05:41:22Z</time>
<extensions>
<speed>2.0</speed>
<temp>0.00</temp>
<bpm>0</bpm>
<rpm>0.00</rpm>
</extensions>
</trkpt>
<trkpt lat="32.584342957" lon="35.017009735">
  <ele>183.002014</ele>
  <time>2012-06-23T05:41:24Z</time>
<extensions>
<speed>2.4</speed>
<temp>0.00</temp>
<bpm>0</bpm>
<rpm>0.00</rpm>
</extensions>
</trkpt>
<trkpt lat="32.584350586" lon="35.016967773">
  <ele>183.693420</ele>
  <time>2012-06-23T05:41:26Z</time>
<extensions>
<speed>2.1</speed>
<temp>0.00</temp>
<bpm>0</bpm>
<rpm>0.00</rpm>
</extensions>
</trkpt>
<trkpt lat="32.584354401" lon="35.016918182">
  <ele>184.275452</ele>
  <time>2012-06-23T05:41:28Z</time>
<extensions>
<speed>2.1</speed>
<temp>0.00</temp>
<bpm>0</bpm>
<rpm>0.00</rpm>
</extensions>
</trkpt>
<trkpt lat="32.584346771" lon="35.016876221">
  <ele>184.732483</ele>
  <time>2012-06-23T05:41:30Z</time>
<extensions>
<speed>2.0</speed>
<temp>0.00</temp>
<bpm>0</bpm>
<rpm>0.00</rpm>
</extensions>
</trkpt>
<trkpt lat="32.584346771" lon="35.016830444">
  <ele>184.982483</ele>
  <time>2012-06-23T05:41:32Z</time>
<extensions>
<speed>2.1</speed>
<temp>0.00</temp>
<bpm>0</bpm>
<rpm>0.00</rpm>
</extensions>
</trkpt>
<trkpt lat="32.584346771" lon="35.016777039">
  <ele>184.955139</ele>
  <time>2012-06-23T05:41:34Z</time>
<extensions>
<speed>2.2</speed>
<temp>0.00</temp>
<bpm>0</bpm>
<rpm>0.00</rpm>
</extensions>
</trkpt>
<trkpt lat="32.584358215" lon="35.016731262">
  <ele>185.373108</ele>
  <time>2012-06-23T05:41:36Z</time>
<extensions>
<speed>2.3</speed>
<temp>0.00</temp>
<bpm>0</bpm>
<rpm>0.00</rpm>
</extensions>
</trkpt>
<trkpt lat="32.584362030" lon="35.016685486">
  <ele>185.291077</ele>
  <time>2012-06-23T05:41:38Z</time>
<extensions>
<speed>2.1</speed>
<temp>0.00</temp>
<bpm>0</bpm>
<rpm>0.00</rpm>
</extensions>
</trkpt>
<trkpt lat="32.584362030" lon="35.016635895">
  <ele>184.423889</ele>
  <time>2012-06-23T05:41:40Z</time>
<extensions>
<speed>2.4</speed>
<temp>0.00</temp>
<bpm>0</bpm>
<rpm>0.00</rpm>
</extensions>
</trkpt>
<trkpt lat="32.584362030" lon="35.016578674">
  <ele>185.037170</ele>
  <time>2012-06-23T05:41:42Z</time>
<extensions>
<speed>2.7</speed>
<temp>0.00</temp>
<bpm>0</bpm>
<rpm>0.00</rpm>
</extensions>
</trkpt>
<trkpt lat="32.584377289" lon="35.016521454">
  <ele>185.158264</ele>
  <time>2012-06-23T05:41:44Z</time>
<extensions>
<speed>2.6</speed>
<temp>0.00</temp>
<bpm>0</bpm>
<rpm>0.00</rpm>
</extensions>
</trkpt>
<trkpt lat="32.584384918" lon="35.016490936">
  <ele>184.568420</ele>
  <time>2012-06-23T05:41:45Z</time>
<extensions>
<speed>2.7</speed>
<temp>0.00</temp>
<bpm>0</bpm>
<rpm>0.00</rpm>
</extensions>
</trkpt>
<trkpt lat="32.584396362" lon="35.016429901">
  <ele>185.127014</ele>
  <time>2012-06-23T05:41:47Z</time>
<extensions>
<speed>2.8</speed>
<temp>0.00</temp>
<bpm>0</bpm>
<rpm>0.00</rpm>
</extensions>
</trkpt>
<trkpt lat="32.584400177" lon="35.016399384">
  <ele>184.564514</ele>
  <time>2012-06-23T05:41:48Z</time>
<extensions>
<speed>2.9</speed>
<temp>0.00</temp>
<bpm>0</bpm>
<rpm>0.00</rpm>
</extensions>
</trkpt>
<trkpt lat="32.584400177" lon="35.016365051">
  <ele>185.123108</ele>
  <time>2012-06-23T05:41:49Z</time>
<extensions>
<speed>2.8</speed>
<temp>0.00</temp>
<bpm>0</bpm>
<rpm>0.00</rpm>
</extensions>
</trkpt>
<trkpt lat="32.584411621" lon="35.016300201">
  <ele>184.201233</ele>
  <time>2012-06-23T05:41:51Z</time>
<extensions>
<speed>3.0</speed>
<temp>0.00</temp>
<bpm>0</bpm>
<rpm>0.00</rpm>
</extensions>
</trkpt>
<trkpt lat="32.584423065" lon="35.016242981">
  <ele>183.466858</ele>
  <time>2012-06-23T05:41:53Z</time>
<extensions>
<speed>2.7</speed>
<temp>0.00</temp>
<bpm>0</bpm>
<rpm>0.00</rpm>
</extensions>
</trkpt>
<trkpt lat="32.584423065" lon="35.016208649">
  <ele>184.037170</ele>
  <time>2012-06-23T05:41:54Z</time>
<extensions>
<speed>2.7</speed>
<temp>0.00</temp>
<bpm>0</bpm>
<rpm>0.00</rpm>
</extensions>
</trkpt>
<trkpt lat="32.584423065" lon="35.016159058">
  <ele>183.752014</ele>
  <time>2012-06-23T05:41:56Z</time>
<extensions>
<speed>2.4</speed>
<temp>0.00</temp>
<bpm>0</bpm>
<rpm>0.00</rpm>
</extensions>
</trkpt>
<trkpt lat="32.584434509" lon="35.016105652">
  <ele>183.791077</ele>
  <time>2012-06-23T05:41:58Z</time>
<extensions>
<speed>2.8</speed>
<temp>0.00</temp>
<bpm>0</bpm>
<rpm>0.00</rpm>
</extensions>
</trkpt>
<trkpt lat="32.584438324" lon="35.016067505">
  <ele>184.197327</ele>
  <time>2012-06-23T05:41:59Z</time>
<extensions>
<speed>3.2</speed>
<temp>0.00</temp>
<bpm>0</bpm>
<rpm>0.00</rpm>
</extensions>
</trkpt>
<trkpt lat="32.584438324" lon="35.016029358">
  <ele>184.521545</ele>
  <time>2012-06-23T05:42:00Z</time>
<extensions>
<speed>3.5</speed>
<temp>0.00</temp>
<bpm>0</bpm>
<rpm>0.00</rpm>
</extensions>
</trkpt>
<trkpt lat="32.584442139" lon="35.015995026">
  <ele>183.767639</ele>
  <time>2012-06-23T05:42:01Z</time>
<extensions>
<speed>3.4</speed>
<temp>0.00</temp>
<bpm>0</bpm>
<rpm>0.00</rpm>
</extensions>
</trkpt>
<trkpt lat="32.584449768" lon="35.015956879">
  <ele>183.869202</ele>
  <time>2012-06-23T05:42:02Z</time>
<extensions>
<speed>3.4</speed>
<temp>0.00</temp>
<bpm>0</bpm>
<rpm>0.00</rpm>
</extensions>
</trkpt>
<trkpt lat="32.584457397" lon="35.015922546">
  <ele>184.482483</ele>
  <time>2012-06-23T05:42:03Z</time>
<extensions>
<speed>3.2</speed>
<temp>0.00</temp>
<bpm>0</bpm>
<rpm>0.00</rpm>
</extensions>
</trkpt>
<trkpt lat="32.584457397" lon="35.015888214">
  <ele>184.541077</ele>
  <time>2012-06-23T05:42:04Z</time>
<extensions>
<speed>2.9</speed>
<temp>0.00</temp>
<bpm>0</bpm>
<rpm>0.00</rpm>
</extensions>
</trkpt>
<trkpt lat="32.584457397" lon="35.015853882">
  <ele>184.615295</ele>
  <time>2012-06-23T05:42:05Z</time>
<extensions>
<speed>2.5</speed>
<temp>0.00</temp>
<bpm>0</bpm>
<rpm>0.00</rpm>
</extensions>
</trkpt>
<trkpt lat="32.584461212" lon="35.015808105">
  <ele>184.576233</ele>
  <time>2012-06-23T05:42:07Z</time>
<extensions>
<speed>2.2</speed>
<temp>0.00</temp>
<bpm>0</bpm>
<rpm>0.00</rpm>
</extensions>
</trkpt>
<trkpt lat="32.584465027" lon="35.015750885">
  <ele>184.494202</ele>
  <time>2012-06-23T05:42:09Z</time>
<extensions>
<speed>2.8</speed>
<temp>0.00</temp>
<bpm>0</bpm>
<rpm>0.00</rpm>
</extensions>
</trkpt>
<trkpt lat="32.584468842" lon="35.015716553">
  <ele>183.923889</ele>
  <time>2012-06-23T05:42:10Z</time>
<extensions>
<speed>3.1</speed>
<temp>0.00</temp>
<bpm>0</bpm>
<rpm>0.00</rpm>
</extensions>
</trkpt>
<trkpt lat="32.584472656" lon="35.015686035">
  <ele>183.662170</ele>
  <time>2012-06-23T05:42:11Z</time>
<extensions>
<speed>3.2</speed>
<temp>0.00</temp>
<bpm>0</bpm>
<rpm>0.00</rpm>
</extensions>
</trkpt>
<trkpt lat="32.584476471" lon="35.015651703">
  <ele>183.759827</ele>
  <time>2012-06-23T05:42:12Z</time>
<extensions>
<speed>3.4</speed>
<temp>0.00</temp>
<bpm>0</bpm>
<rpm>0.00</rpm>
</extensions>
</trkpt>
<trkpt lat="32.584484100" lon="35.015617371">
  <ele>183.794983</ele>
  <time>2012-06-23T05:42:13Z</time>
<extensions>
<speed>3.4</speed>
<temp>0.00</temp>
<bpm>0</bpm>
<rpm>0.00</rpm>
</extensions>
</trkpt>
<trkpt lat="32.584487915" lon="35.015575409">
  <ele>184.166077</ele>
  <time>2012-06-23T05:42:14Z</time>
<extensions>
<speed>3.6</speed>
<temp>0.00</temp>
<bpm>0</bpm>
<rpm>0.00</rpm>
</extensions>
</trkpt>
<trkpt lat="32.584487915" lon="35.015537262">
  <ele>184.107483</ele>
  <time>2012-06-23T05:42:15Z</time>
<extensions>
<speed>3.4</speed>
<temp>0.00</temp>
<bpm>0</bpm>
<rpm>0.00</rpm>
</extensions>
</trkpt>
<trkpt lat="32.584491730" lon="35.015502930">
  <ele>183.732483</ele>
  <time>2012-06-23T05:42:16Z</time>
<extensions>
<speed>3.2</speed>
<temp>0.00</temp>
<bpm>0</bpm>
<rpm>0.00</rpm>
</extensions>
</trkpt>
<trkpt lat="32.584495544" lon="35.015468597">
  <ele>183.435608</ele>
  <time>2012-06-23T05:42:17Z</time>
<extensions>
<speed>3.2</speed>
<temp>0.00</temp>
<bpm>0</bpm>
<rpm>0.00</rpm>
</extensions>
</trkpt>
<trkpt lat="32.584491730" lon="35.015430450">
  <ele>183.974670</ele>
  <time>2012-06-23T05:42:18Z</time>
<extensions>
<speed>3.1</speed>
<temp>0.00</temp>
<bpm>0</bpm>
<rpm>0.00</rpm>
</extensions>
</trkpt>
<trkpt lat="32.584495544" lon="35.015392303">
  <ele>184.482483</ele>
  <time>2012-06-23T05:42:19Z</time>
<extensions>
<speed>3.4</speed>
<temp>0.00</temp>
<bpm>0</bpm>
<rpm>0.00</rpm>
</extensions>
</trkpt>
<trkpt lat="32.584499359" lon="35.015354156">
  <ele>183.584045</ele>
  <time>2012-06-23T05:42:20Z</time>
<extensions>
<speed>3.6</speed>
<temp>0.00</temp>
<bpm>0</bpm>
<rpm>0.00</rpm>
</extensions>
</trkpt>
<trkpt lat="32.584503174" lon="35.015316010">
  <ele>183.466858</ele>
  <time>2012-06-23T05:42:21Z</time>
<extensions>
<speed>3.0</speed>
<temp>0.00</temp>
<bpm>0</bpm>
<rpm>0.00</rpm>
</extensions>
</trkpt>
<trkpt lat="32.584510803" lon="35.015281677">
  <ele>182.416077</ele>
  <time>2012-06-23T05:42:22Z</time>
<extensions>
<speed>3.2</speed>
<temp>0.00</temp>
<bpm>0</bpm>
<rpm>0.00</rpm>
</extensions>
</trkpt>
<trkpt lat="32.584510803" lon="35.015247345">
  <ele>182.685608</ele>
  <time>2012-06-23T05:42:23Z</time>
<extensions>
<speed>3.5</speed>
<temp>0.00</temp>
<bpm>0</bpm>
<rpm>0.00</rpm>
</extensions>
</trkpt>
<trkpt lat="32.584506989" lon="35.015197754">
  <ele>183.591858</ele>
  <time>2012-06-23T05:42:24Z</time>
<extensions>
<speed>3.4</speed>
<temp>0.00</temp>
<bpm>0</bpm>
<rpm>0.00</rpm>
</extensions>
</trkpt>
<trkpt lat="32.584514618" lon="35.015167236">
  <ele>183.416077</ele>
  <time>2012-06-23T05:42:25Z</time>
<extensions>
<speed>3.3</speed>
<temp>0.00</temp>
<bpm>0</bpm>
<rpm>0.00</rpm>
</extensions>
</trkpt>
<trkpt lat="32.584514618" lon="35.015102386">
  <ele>183.068420</ele>
  <time>2012-06-23T05:42:27Z</time>
<extensions>
<speed>3.2</speed>
<temp>0.00</temp>
<bpm>0</bpm>
<rpm>0.00</rpm>
</extensions>
</trkpt>
<trkpt lat="32.584518433" lon="35.015064240">
  <ele>182.978577</ele>
  <time>2012-06-23T05:42:28Z</time>
<extensions>
<speed>3.4</speed>
<temp>0.00</temp>
<bpm>0</bpm>
<rpm>0.00</rpm>
</extensions>
</trkpt>
<trkpt lat="32.584522247" lon="35.015026093">
  <ele>182.904358</ele>
  <time>2012-06-23T05:42:29Z</time>
<extensions>
<speed>3.8</speed>
<temp>0.00</temp>
<bpm>0</bpm>
<rpm>0.00</rpm>
</extensions>
</trkpt>
<trkpt lat="32.584526062" lon="35.014980316">
  <ele>182.693420</ele>
  <time>2012-06-23T05:42:30Z</time>
<extensions>
<speed>3.7</speed>
<temp>0.00</temp>
<bpm>0</bpm>
<rpm>0.00</rpm>
</extensions>
</trkpt>
<trkpt lat="32.584526062" lon="35.014942169">
  <ele>181.982483</ele>
  <time>2012-06-23T05:42:31Z</time>
<extensions>
<speed>3.9</speed>
<temp>0.00</temp>
<bpm>0</bpm>
<rpm>0.00</rpm>
</extensions>
</trkpt>
<trkpt lat="32.584529877" lon="35.014892578">
  <ele>182.365295</ele>
  <time>2012-06-23T05:42:32Z</time>
<extensions>
<speed>4.1</speed>
<temp>0.00</temp>
<bpm>0</bpm>
<rpm>0.00</rpm>
</extensions>
</trkpt>
<trkpt lat="32.584529877" lon="35.014842987">
  <ele>181.912170</ele>
  <time>2012-06-23T05:42:33Z</time>
<extensions>
<speed>4.3</speed>
<temp>0.00</temp>
<bpm>0</bpm>
<rpm>0.00</rpm>
</extensions>
</trkpt>
<trkpt lat="32.584526062" lon="35.014801025">
  <ele>182.103577</ele>
  <time>2012-06-23T05:42:34Z</time>
<extensions>
<speed>3.6</speed>
<temp>0.00</temp>
<bpm>0</bpm>
<rpm>0.00</rpm>
</extensions>
</trkpt>
<trkpt lat="32.584526062" lon="35.014766693">
  <ele>182.732483</ele>
  <time>2012-06-23T05:42:35Z</time>
<extensions>
<speed>3.2</speed>
<temp>0.00</temp>
<bpm>0</bpm>
<rpm>0.00</rpm>
</extensions>
</trkpt>
<trkpt lat="32.584526062" lon="35.014713287">
  <ele>183.087952</ele>
  <time>2012-06-23T05:42:37Z</time>
<extensions>
<speed>2.4</speed>
<temp>0.00</temp>
<bpm>0</bpm>
<rpm>0.00</rpm>
</extensions>
</trkpt>
<trkpt lat="32.584537506" lon="35.014652252">
  <ele>182.888733</ele>
  <time>2012-06-23T05:42:39Z</time>
<extensions>
<speed>3.2</speed>
<temp>0.00</temp>
<bpm>0</bpm>
<rpm>0.00</rpm>
</extensions>
</trkpt>
<trkpt lat="32.584541321" lon="35.014617920">
  <ele>182.736389</ele>
  <time>2012-06-23T05:42:40Z</time>
<extensions>
<speed>3.5</speed>
<temp>0.00</temp>
<bpm>0</bpm>
<rpm>0.00</rpm>
</extensions>
</trkpt>
<trkpt lat="32.584548950" lon="35.014575958">
  <ele>182.197327</ele>
  <time>2012-06-23T05:42:41Z</time>
<extensions>
<speed>3.7</speed>
<temp>0.00</temp>
<bpm>0</bpm>
<rpm>0.00</rpm>
</extensions>
</trkpt>
<trkpt lat="32.584548950" lon="35.014533997">
  <ele>182.470764</ele>
  <time>2012-06-23T05:42:42Z</time>
<extensions>
<speed>4.1</speed>
<temp>0.00</temp>
<bpm>0</bpm>
<rpm>0.00</rpm>
</extensions>
</trkpt>
<trkpt lat="32.584541321" lon="35.014484406">
  <ele>183.084045</ele>
  <time>2012-06-23T05:42:43Z</time>
<extensions>
<speed>4.1</speed>
<temp>0.00</temp>
<bpm>0</bpm>
<rpm>0.00</rpm>
</extensions>
</trkpt>
<trkpt lat="32.584529877" lon="35.014442444">
  <ele>183.369202</ele>
  <time>2012-06-23T05:42:44Z</time>
<extensions>
<speed>4.0</speed>
<temp>0.00</temp>
<bpm>0</bpm>
<rpm>0.00</rpm>
</extensions>
</trkpt>
<trkpt lat="32.584529877" lon="35.014400482">
  <ele>183.181702</ele>
  <time>2012-06-23T05:42:45Z</time>
<extensions>
<speed>4.2</speed>
<temp>0.00</temp>
<bpm>0</bpm>
<rpm>0.00</rpm>
</extensions>
</trkpt>
<trkpt lat="32.584526062" lon="35.014350891">
  <ele>183.193420</ele>
  <time>2012-06-23T05:42:46Z</time>
<extensions>
<speed>4.0</speed>
<temp>0.00</temp>
<bpm>0</bpm>
<rpm>0.00</rpm>
</extensions>
</trkpt>
<trkpt lat="32.584518433" lon="35.014308929">
  <ele>182.736389</ele>
  <time>2012-06-23T05:42:47Z</time>
<extensions>
<speed>4.2</speed>
<temp>0.00</temp>
<bpm>0</bpm>
<rpm>0.00</rpm>
</extensions>
</trkpt>
<trkpt lat="32.584518433" lon="35.014266968">
  <ele>182.693420</ele>
  <time>2012-06-23T05:42:48Z</time>
<extensions>
<speed>4.1</speed>
<temp>0.00</temp>
<bpm>0</bpm>
<rpm>0.00</rpm>
</extensions>
</trkpt>
<trkpt lat="32.584514618" lon="35.014213562">
  <ele>182.912170</ele>
  <time>2012-06-23T05:42:49Z</time>
<extensions>
<speed>4.3</speed>
<temp>0.00</temp>
<bpm>0</bpm>
<rpm>0.00</rpm>
</extensions>
</trkpt>
<trkpt lat="32.584514618" lon="35.014171600">
  <ele>182.513733</ele>
  <time>2012-06-23T05:42:50Z</time>
<extensions>
<speed>4.1</speed>
<temp>0.00</temp>
<bpm>0</bpm>
<rpm>0.00</rpm>
</extensions>
</trkpt>
<trkpt lat="32.584510803" lon="35.014125824">
  <ele>182.244202</ele>
  <time>2012-06-23T05:42:51Z</time>
<extensions>
<speed>4.1</speed>
<temp>0.00</temp>
<bpm>0</bpm>
<rpm>0.00</rpm>
</extensions>
</trkpt>
<trkpt lat="32.584499359" lon="35.014087677">
  <ele>181.127014</ele>
  <time>2012-06-23T05:42:52Z</time>
<extensions>
<speed>4.2</speed>
<temp>0.00</temp>
<bpm>0</bpm>
<rpm>0.00</rpm>
</extensions>
</trkpt>
<trkpt lat="32.584491730" lon="35.014038086">
  <ele>181.302795</ele>
  <time>2012-06-23T05:42:53Z</time>
<extensions>
<speed>4.4</speed>
<temp>0.00</temp>
<bpm>0</bpm>
<rpm>0.00</rpm>
</extensions>
</trkpt>
<trkpt lat="32.584480286" lon="35.013992310">
  <ele>180.916077</ele>
  <time>2012-06-23T05:42:54Z</time>
<extensions>
<speed>4.1</speed>
<temp>0.00</temp>
<bpm>0</bpm>
<rpm>0.00</rpm>
</extensions>
</trkpt>
<trkpt lat="32.584468842" lon="35.013950348">
  <ele>180.806702</ele>
  <time>2012-06-23T05:42:55Z</time>
<extensions>
<speed>4.2</speed>
<temp>0.00</temp>
<bpm>0</bpm>
<rpm>0.00</rpm>
</extensions>
</trkpt>
<trkpt lat="32.584461212" lon="35.013904572">
  <ele>180.998108</ele>
  <time>2012-06-23T05:42:56Z</time>
<extensions>
<speed>3.8</speed>
<temp>0.00</temp>
<bpm>0</bpm>
<rpm>0.00</rpm>
</extensions>
</trkpt>
<trkpt lat="32.584453583" lon="35.013862610">
  <ele>180.826233</ele>
  <time>2012-06-23T05:42:57Z</time>
<extensions>
<speed>4.0</speed>
<temp>0.00</temp>
<bpm>0</bpm>
<rpm>0.00</rpm>
</extensions>
</trkpt>
<trkpt lat="32.584453583" lon="35.013828278">
  <ele>180.873108</ele>
  <time>2012-06-23T05:42:58Z</time>
<extensions>
<speed>3.7</speed>
<temp>0.00</temp>
<bpm>0</bpm>
<rpm>0.00</rpm>
</extensions>
</trkpt>
<trkpt lat="32.584457397" lon="35.013771057">
  <ele>181.892639</ele>
  <time>2012-06-23T05:42:59Z</time>
<extensions>
<speed>4.1</speed>
<temp>0.00</temp>
<bpm>0</bpm>
<rpm>0.00</rpm>
</extensions>
</trkpt>
<trkpt lat="32.584457397" lon="35.013725281">
  <ele>181.830139</ele>
  <time>2012-06-23T05:43:00Z</time>
<extensions>
<speed>4.0</speed>
<temp>0.00</temp>
<bpm>0</bpm>
<rpm>0.00</rpm>
</extensions>
</trkpt>
<trkpt lat="32.584453583" lon="35.013679504">
  <ele>181.826233</ele>
  <time>2012-06-23T05:43:01Z</time>
<extensions>
<speed>4.0</speed>
<temp>0.00</temp>
<bpm>0</bpm>
<rpm>0.00</rpm>
</extensions>
</trkpt>
<trkpt lat="32.584449768" lon="35.013626099">
  <ele>182.763733</ele>
  <time>2012-06-23T05:43:02Z</time>
<extensions>
<speed>4.2</speed>
<temp>0.00</temp>
<bpm>0</bpm>
<rpm>0.00</rpm>
</extensions>
</trkpt>
<trkpt lat="32.584445953" lon="35.013576508">
  <ele>183.369202</ele>
  <time>2012-06-23T05:43:03Z</time>
<extensions>
<speed>4.4</speed>
<temp>0.00</temp>
<bpm>0</bpm>
<rpm>0.00</rpm>
</extensions>
</trkpt>
<trkpt lat="32.584430695" lon="35.013530731">
  <ele>182.966858</ele>
  <time>2012-06-23T05:43:04Z</time>
<extensions>
<speed>4.1</speed>
<temp>0.00</temp>
<bpm>0</bpm>
<rpm>0.00</rpm>
</extensions>
</trkpt>
<trkpt lat="32.584434509" lon="35.013484955">
  <ele>183.447327</ele>
  <time>2012-06-23T05:43:05Z</time>
<extensions>
<speed>4.0</speed>
<temp>0.00</temp>
<bpm>0</bpm>
<rpm>0.00</rpm>
</extensions>
</trkpt>
<trkpt lat="32.584438324" lon="35.013442993">
  <ele>183.236389</ele>
  <time>2012-06-23T05:43:06Z</time>
<extensions>
<speed>4.1</speed>
<temp>0.00</temp>
<bpm>0</bpm>
<rpm>0.00</rpm>
</extensions>
</trkpt>
<trkpt lat="32.584442139" lon="35.013393402">
  <ele>182.728577</ele>
  <time>2012-06-23T05:43:07Z</time>
<extensions>
<speed>4.2</speed>
<temp>0.00</temp>
<bpm>0</bpm>
<rpm>0.00</rpm>
</extensions>
</trkpt>
<trkpt lat="32.584457397" lon="35.013355255">
  <ele>182.146545</ele>
  <time>2012-06-23T05:43:08Z</time>
<extensions>
<speed>3.8</speed>
<temp>0.00</temp>
<bpm>0</bpm>
<rpm>0.00</rpm>
</extensions>
</trkpt>
<trkpt lat="32.584465027" lon="35.013320923">
  <ele>181.748108</ele>
  <time>2012-06-23T05:43:09Z</time>
<extensions>
<speed>3.5</speed>
<temp>0.00</temp>
<bpm>0</bpm>
<rpm>0.00</rpm>
</extensions>
</trkpt>
<trkpt lat="32.584476471" lon="35.013286591">
  <ele>181.728577</ele>
  <time>2012-06-23T05:43:10Z</time>
<extensions>
<speed>4.2</speed>
<temp>0.00</temp>
<bpm>0</bpm>
<rpm>0.00</rpm>
</extensions>
</trkpt>
<trkpt lat="32.584487915" lon="35.013248444">
  <ele>181.888733</ele>
  <time>2012-06-23T05:43:11Z</time>
<extensions>
<speed>3.9</speed>
<temp>0.00</temp>
<bpm>0</bpm>
<rpm>0.00</rpm>
</extensions>
</trkpt>
<trkpt lat="32.584503174" lon="35.013214111">
  <ele>181.959045</ele>
  <time>2012-06-23T05:43:12Z</time>
<extensions>
<speed>3.7</speed>
<temp>0.00</temp>
<bpm>0</bpm>
<rpm>0.00</rpm>
</extensions>
</trkpt>
<trkpt lat="32.584518433" lon="35.013183594">
  <ele>181.564514</ele>
  <time>2012-06-23T05:43:13Z</time>
<extensions>
<speed>3.1</speed>
<temp>0.00</temp>
<bpm>0</bpm>
<rpm>0.00</rpm>
</extensions>
</trkpt>
<trkpt lat="32.584533691" lon="35.013156891">
  <ele>180.802795</ele>
  <time>2012-06-23T05:43:14Z</time>
<extensions>
<speed>2.6</speed>
<temp>0.00</temp>
<bpm>0</bpm>
<rpm>0.00</rpm>
</extensions>
</trkpt>
<trkpt lat="32.584548950" lon="35.013111115">
  <ele>180.236389</ele>
  <time>2012-06-23T05:43:16Z</time>
<extensions>
<speed>1.9</speed>
<temp>0.00</temp>
<bpm>0</bpm>
<rpm>0.00</rpm>
</extensions>
</trkpt>
<trkpt lat="32.584564209" lon="35.013069153">
  <ele>178.587952</ele>
  <time>2012-06-23T05:43:18Z</time>
<extensions>
<speed>2.9</speed>
<temp>0.00</temp>
<bpm>0</bpm>
<rpm>0.00</rpm>
</extensions>
</trkpt>
<trkpt lat="32.584590912" lon="35.013031006">
  <ele>176.943420</ele>
  <time>2012-06-23T05:43:20Z</time>
<extensions>
<speed>1.8</speed>
<temp>0.00</temp>
<bpm>0</bpm>
<rpm>0.00</rpm>
</extensions>
</trkpt>
<trkpt lat="32.584594727" lon="35.012989044">
  <ele>176.658264</ele>
  <time>2012-06-23T05:43:22Z</time>
<extensions>
<speed>0.5</speed>
<temp>0.00</temp>
<bpm>0</bpm>
<rpm>0.00</rpm>
</extensions>
</trkpt>
<trkpt lat="32.584609985" lon="35.012947083">
  <ele>176.134827</ele>
  <time>2012-06-23T05:44:51Z</time>
<extensions>
<speed>1.9</speed>
<temp>0.00</temp>
<bpm>0</bpm>
<rpm>0.00</rpm>
</extensions>
</trkpt>
<trkpt lat="32.584621429" lon="35.012901306">
  <ele>176.275452</ele>
  <time>2012-06-23T05:44:53Z</time>
<extensions>
<speed>2.1</speed>
<temp>0.00</temp>
<bpm>0</bpm>
<rpm>0.00</rpm>
</extensions>
</trkpt>
<trkpt lat="32.584636688" lon="35.012844086">
  <ele>176.037170</ele>
  <time>2012-06-23T05:44:55Z</time>
<extensions>
<speed>2.5</speed>
<temp>0.00</temp>
<bpm>0</bpm>
<rpm>0.00</rpm>
</extensions>
</trkpt>
<trkpt lat="32.584640503" lon="35.012809753">
  <ele>175.919983</ele>
  <time>2012-06-23T05:44:56Z</time>
<extensions>
<speed>2.8</speed>
<temp>0.00</temp>
<bpm>0</bpm>
<rpm>0.00</rpm>
</extensions>
</trkpt>
<trkpt lat="32.584648132" lon="35.012779236">
  <ele>176.166077</ele>
  <time>2012-06-23T05:44:57Z</time>
<extensions>
<speed>2.8</speed>
<temp>0.00</temp>
<bpm>0</bpm>
<rpm>0.00</rpm>
</extensions>
</trkpt>
<trkpt lat="32.584659576" lon="35.012748718">
  <ele>176.252014</ele>
  <time>2012-06-23T05:44:58Z</time>
<extensions>
<speed>2.9</speed>
<temp>0.00</temp>
<bpm>0</bpm>
<rpm>0.00</rpm>
</extensions>
</trkpt>
<trkpt lat="32.584671021" lon="35.012718201">
  <ele>175.732483</ele>
  <time>2012-06-23T05:44:59Z</time>
<extensions>
<speed>2.5</speed>
<temp>0.00</temp>
<bpm>0</bpm>
<rpm>0.00</rpm>
</extensions>
</trkpt>
<trkpt lat="32.584682465" lon="35.012676239">
  <ele>175.892639</ele>
  <time>2012-06-23T05:45:00Z</time>
<extensions>
<speed>2.4</speed>
<temp>0.00</temp>
<bpm>0</bpm>
<rpm>0.00</rpm>
</extensions>
</trkpt>
<trkpt lat="32.584690094" lon="35.012638092">
  <ele>176.341858</ele>
  <time>2012-06-23T05:45:01Z</time>
<extensions>
<speed>2.9</speed>
<temp>0.00</temp>
<bpm>0</bpm>
<rpm>0.00</rpm>
</extensions>
</trkpt>
<trkpt lat="32.584709167" lon="35.012580872">
  <ele>175.228577</ele>
  <time>2012-06-23T05:45:03Z</time>
<extensions>
<speed>3.2</speed>
<temp>0.00</temp>
<bpm>0</bpm>
<rpm>0.00</rpm>
</extensions>
</trkpt>
<trkpt lat="32.584732056" lon="35.012557983">
  <ele>174.970764</ele>
  <time>2012-06-23T05:45:04Z</time>
<extensions>
<speed>2.8</speed>
<temp>0.00</temp>
<bpm>0</bpm>
<rpm>0.00</rpm>
</extensions>
</trkpt>
<trkpt lat="32.584754944" lon="35.012519836">
  <ele>174.923889</ele>
  <time>2012-06-23T05:45:05Z</time>
<extensions>
<speed>3.2</speed>
<temp>0.00</temp>
<bpm>0</bpm>
<rpm>0.00</rpm>
</extensions>
</trkpt>
<trkpt lat="32.584774017" lon="35.012489319">
  <ele>175.388733</ele>
  <time>2012-06-23T05:45:06Z</time>
<extensions>
<speed>3.2</speed>
<temp>0.00</temp>
<bpm>0</bpm>
<rpm>0.00</rpm>
</extensions>
</trkpt>
<trkpt lat="32.584804535" lon="35.012466431">
  <ele>176.052795</ele>
  <time>2012-06-23T05:45:07Z</time>
<extensions>
<speed>3.1</speed>
<temp>0.00</temp>
<bpm>0</bpm>
<rpm>0.00</rpm>
</extensions>
</trkpt>
<trkpt lat="32.584846497" lon="35.012435913">
  <ele>176.587952</ele>
  <time>2012-06-23T05:45:09Z</time>
<extensions>
<speed>2.6</speed>
<temp>0.00</temp>
<bpm>0</bpm>
<rpm>0.00</rpm>
</extensions>
</trkpt>
<trkpt lat="32.584865570" lon="35.012416840">
  <ele>177.252014</ele>
  <time>2012-06-23T05:45:10Z</time>
<extensions>
<speed>2.9</speed>
<temp>0.00</temp>
<bpm>0</bpm>
<rpm>0.00</rpm>
</extensions>
</trkpt>
<trkpt lat="32.584899902" lon="35.012397766">
  <ele>177.244202</ele>
  <time>2012-06-23T05:45:11Z</time>
<extensions>
<speed>2.8</speed>
<temp>0.00</temp>
<bpm>0</bpm>
<rpm>0.00</rpm>
</extensions>
</trkpt>
<trkpt lat="32.584922791" lon="35.012382507">
  <ele>177.794983</ele>
  <time>2012-06-23T05:45:12Z</time>
<extensions>
<speed>3.3</speed>
<temp>0.00</temp>
<bpm>0</bpm>
<rpm>0.00</rpm>
</extensions>
</trkpt>
<trkpt lat="32.584953308" lon="35.012363434">
  <ele>176.966858</ele>
  <time>2012-06-23T05:45:13Z</time>
<extensions>
<speed>3.4</speed>
<temp>0.00</temp>
<bpm>0</bpm>
<rpm>0.00</rpm>
</extensions>
</trkpt>
<trkpt lat="32.584987640" lon="35.012344360">
  <ele>176.580139</ele>
  <time>2012-06-23T05:45:14Z</time>
<extensions>
<speed>3.2</speed>
<temp>0.00</temp>
<bpm>0</bpm>
<rpm>0.00</rpm>
</extensions>
</trkpt>
<trkpt lat="32.585021973" lon="35.012329102">
  <ele>176.013733</ele>
  <time>2012-06-23T05:45:15Z</time>
<extensions>
<speed>3.2</speed>
<temp>0.00</temp>
<bpm>0</bpm>
<rpm>0.00</rpm>
</extensions>
</trkpt>
<trkpt lat="32.585052490" lon="35.012310028">
  <ele>176.666077</ele>
  <time>2012-06-23T05:45:16Z</time>
<extensions>
<speed>3.2</speed>
<temp>0.00</temp>
<bpm>0</bpm>
<rpm>0.00</rpm>
</extensions>
</trkpt>
<trkpt lat="32.585083008" lon="35.012294769">
  <ele>175.814514</ele>
  <time>2012-06-23T05:45:17Z</time>
<extensions>
<speed>3.2</speed>
<temp>0.00</temp>
<bpm>0</bpm>
<rpm>0.00</rpm>
</extensions>
</trkpt>
<trkpt lat="32.585117340" lon="35.012275696">
  <ele>175.365295</ele>
  <time>2012-06-23T05:45:18Z</time>
<extensions>
<speed>3.1</speed>
<temp>0.00</temp>
<bpm>0</bpm>
<rpm>0.00</rpm>
</extensions>
</trkpt>
<trkpt lat="32.585144043" lon="35.012252808">
  <ele>175.318420</ele>
  <time>2012-06-23T05:45:19Z</time>
<extensions>
<speed>3.1</speed>
<temp>0.00</temp>
<bpm>0</bpm>
<rpm>0.00</rpm>
</extensions>
</trkpt>
<trkpt lat="32.585166931" lon="35.012226105">
  <ele>175.388733</ele>
  <time>2012-06-23T05:45:20Z</time>
<extensions>
<speed>3.4</speed>
<temp>0.00</temp>
<bpm>0</bpm>
<rpm>0.00</rpm>
</extensions>
</trkpt>
<trkpt lat="32.585189819" lon="35.012195587">
  <ele>174.783264</ele>
  <time>2012-06-23T05:45:21Z</time>
<extensions>
<speed>3.5</speed>
<temp>0.00</temp>
<bpm>0</bpm>
<rpm>0.00</rpm>
</extensions>
</trkpt>
<trkpt lat="32.585212708" lon="35.012165070">
  <ele>174.478577</ele>
  <time>2012-06-23T05:45:22Z</time>
<extensions>
<speed>3.4</speed>
<temp>0.00</temp>
<bpm>0</bpm>
<rpm>0.00</rpm>
</extensions>
</trkpt>
<trkpt lat="32.585231781" lon="35.012130737">
  <ele>173.974670</ele>
  <time>2012-06-23T05:45:23Z</time>
<extensions>
<speed>3.4</speed>
<temp>0.00</temp>
<bpm>0</bpm>
<rpm>0.00</rpm>
</extensions>
</trkpt>
<trkpt lat="32.585247040" lon="35.012088776">
  <ele>174.252014</ele>
  <time>2012-06-23T05:45:24Z</time>
<extensions>
<speed>3.2</speed>
<temp>0.00</temp>
<bpm>0</bpm>
<rpm>0.00</rpm>
</extensions>
</trkpt>
<trkpt lat="32.585266113" lon="35.012050629">
  <ele>174.599670</ele>
  <time>2012-06-23T05:45:25Z</time>
<extensions>
<speed>3.6</speed>
<temp>0.00</temp>
<bpm>0</bpm>
<rpm>0.00</rpm>
</extensions>
</trkpt>
<trkpt lat="32.585277557" lon="35.012008667">
  <ele>174.552795</ele>
  <time>2012-06-23T05:45:26Z</time>
<extensions>
<speed>3.6</speed>
<temp>0.00</temp>
<bpm>0</bpm>
<rpm>0.00</rpm>
</extensions>
</trkpt>
<trkpt lat="32.585289001" lon="35.011970520">
  <ele>174.138733</ele>
  <time>2012-06-23T05:45:27Z</time>
<extensions>
<speed>3.6</speed>
<temp>0.00</temp>
<bpm>0</bpm>
<rpm>0.00</rpm>
</extensions>
</trkpt>
<trkpt lat="32.585304260" lon="35.011928558">
  <ele>173.736389</ele>
  <time>2012-06-23T05:45:28Z</time>
<extensions>
<speed>3.9</speed>
<temp>0.00</temp>
<bpm>0</bpm>
<rpm>0.00</rpm>
</extensions>
</trkpt>
<trkpt lat="32.585323334" lon="35.011890411">
  <ele>172.775452</ele>
  <time>2012-06-23T05:45:29Z</time>
<extensions>
<speed>3.5</speed>
<temp>0.00</temp>
<bpm>0</bpm>
<rpm>0.00</rpm>
</extensions>
</trkpt>
<trkpt lat="32.585342407" lon="35.011859894">
  <ele>173.052795</ele>
  <time>2012-06-23T05:45:30Z</time>
<extensions>
<speed>3.9</speed>
<temp>0.00</temp>
<bpm>0</bpm>
<rpm>0.00</rpm>
</extensions>
</trkpt>
<trkpt lat="32.585357666" lon="35.011821747">
  <ele>173.263733</ele>
  <time>2012-06-23T05:45:31Z</time>
<extensions>
<speed>3.8</speed>
<temp>0.00</temp>
<bpm>0</bpm>
<rpm>0.00</rpm>
</extensions>
</trkpt>
<trkpt lat="32.585376740" lon="35.011787415">
  <ele>173.939514</ele>
  <time>2012-06-23T05:45:32Z</time>
<extensions>
<speed>3.8</speed>
<temp>0.00</temp>
<bpm>0</bpm>
<rpm>0.00</rpm>
</extensions>
</trkpt>
<trkpt lat="32.585391998" lon="35.011749268">
  <ele>174.146545</ele>
  <time>2012-06-23T05:45:33Z</time>
<extensions>
<speed>3.4</speed>
<temp>0.00</temp>
<bpm>0</bpm>
<rpm>0.00</rpm>
</extensions>
</trkpt>
<trkpt lat="32.585411072" lon="35.011703491">
  <ele>175.314514</ele>
  <time>2012-06-23T05:45:34Z</time>
<extensions>
<speed>3.5</speed>
<temp>0.00</temp>
<bpm>0</bpm>
<rpm>0.00</rpm>
</extensions>
</trkpt>
<trkpt lat="32.585422516" lon="35.011665344">
  <ele>175.271545</ele>
  <time>2012-06-23T05:45:35Z</time>
<extensions>
<speed>3.5</speed>
<temp>0.00</temp>
<bpm>0</bpm>
<rpm>0.00</rpm>
</extensions>
</trkpt>
<trkpt lat="32.585430145" lon="35.011631012">
  <ele>175.576233</ele>
  <time>2012-06-23T05:45:36Z</time>
<extensions>
<speed>3.1</speed>
<temp>0.00</temp>
<bpm>0</bpm>
<rpm>0.00</rpm>
</extensions>
</trkpt>
<trkpt lat="32.585437775" lon="35.011592865">
  <ele>175.087952</ele>
  <time>2012-06-23T05:45:37Z</time>
<extensions>
<speed>3.5</speed>
<temp>0.00</temp>
<bpm>0</bpm>
<rpm>0.00</rpm>
</extensions>
</trkpt>
<trkpt lat="32.585453033" lon="35.011566162">
  <ele>175.533264</ele>
  <time>2012-06-23T05:45:38Z</time>
<extensions>
<speed>3.0</speed>
<temp>0.00</temp>
<bpm>0</bpm>
<rpm>0.00</rpm>
</extensions>
</trkpt>
<trkpt lat="32.585460663" lon="35.011516571">
  <ele>176.978577</ele>
  <time>2012-06-23T05:45:39Z</time>
<extensions>
<speed>2.7</speed>
<temp>0.00</temp>
<bpm>0</bpm>
<rpm>0.00</rpm>
</extensions>
</trkpt>
<trkpt lat="32.585475922" lon="35.011482239">
  <ele>177.560608</ele>
  <time>2012-06-23T05:45:40Z</time>
<extensions>
<speed>3.0</speed>
<temp>0.00</temp>
<bpm>0</bpm>
<rpm>0.00</rpm>
</extensions>
</trkpt>
<trkpt lat="32.585521698" lon="35.011440277">
  <ele>177.701233</ele>
  <time>2012-06-23T05:45:42Z</time>
<extensions>
<speed>2.9</speed>
<temp>0.00</temp>
<bpm>0</bpm>
<rpm>0.00</rpm>
</extensions>
</trkpt>
<trkpt lat="32.585544586" lon="35.011413574">
  <ele>179.466858</ele>
  <time>2012-06-23T05:45:43Z</time>
<extensions>
<speed>2.8</speed>
<temp>0.00</temp>
<bpm>0</bpm>
<rpm>0.00</rpm>
</extensions>
</trkpt>
<trkpt lat="32.585575104" lon="35.011386871">
  <ele>181.037170</ele>
  <time>2012-06-23T05:45:45Z</time>
<extensions>
<speed>2.1</speed>
<temp>0.00</temp>
<bpm>0</bpm>
<rpm>0.00</rpm>
</extensions>
</trkpt>
<trkpt lat="32.585597992" lon="35.011348724">
  <ele>181.779358</ele>
  <time>2012-06-23T05:45:47Z</time>
<extensions>
<speed>2.0</speed>
<temp>0.00</temp>
<bpm>0</bpm>
<rpm>0.00</rpm>
</extensions>
</trkpt>
<trkpt lat="32.585594177" lon="35.011299133">
  <ele>182.474670</ele>
  <time>2012-06-23T05:45:49Z</time>
<extensions>
<speed>2.0</speed>
<temp>0.00</temp>
<bpm>0</bpm>
<rpm>0.00</rpm>
</extensions>
</trkpt>
<trkpt lat="32.585582733" lon="35.011245728">
  <ele>182.849670</ele>
  <time>2012-06-23T05:45:51Z</time>
<extensions>
<speed>2.2</speed>
<temp>0.00</temp>
<bpm>0</bpm>
<rpm>0.00</rpm>
</extensions>
</trkpt>
<trkpt lat="32.585594177" lon="35.011199951">
  <ele>184.052795</ele>
  <time>2012-06-23T05:45:53Z</time>
<extensions>
<speed>2.3</speed>
<temp>0.00</temp>
<bpm>0</bpm>
<rpm>0.00</rpm>
</extensions>
</trkpt>
<trkpt lat="32.585594177" lon="35.011146545">
  <ele>184.341858</ele>
  <time>2012-06-23T05:45:55Z</time>
<extensions>
<speed>2.1</speed>
<temp>0.00</temp>
<bpm>0</bpm>
<rpm>0.00</rpm>
</extensions>
</trkpt>
<trkpt lat="32.585586548" lon="35.011100769">
  <ele>183.552795</ele>
  <time>2012-06-23T05:45:57Z</time>
<extensions>
<speed>2.3</speed>
<temp>0.00</temp>
<bpm>0</bpm>
<rpm>0.00</rpm>
</extensions>
</trkpt>
<trkpt lat="32.585578918" lon="35.011054993">
  <ele>183.673889</ele>
  <time>2012-06-23T05:45:59Z</time>
<extensions>
<speed>1.9</speed>
<temp>0.00</temp>
<bpm>0</bpm>
<rpm>0.00</rpm>
</extensions>
</trkpt>
<trkpt lat="32.585559845" lon="35.011013031">
  <ele>183.064514</ele>
  <time>2012-06-23T05:46:01Z</time>
<extensions>
<speed>2.4</speed>
<temp>0.00</temp>
<bpm>0</bpm>
<rpm>0.00</rpm>
</extensions>
</trkpt>
<trkpt lat="32.585563660" lon="35.010978699">
  <ele>182.943420</ele>
  <time>2012-06-23T05:46:02Z</time>
<extensions>
<speed>2.0</speed>
<temp>0.00</temp>
<bpm>0</bpm>
<rpm>0.00</rpm>
</extensions>
</trkpt>
<trkpt lat="32.585552216" lon="35.010932922">
  <ele>183.666077</ele>
  <time>2012-06-23T05:46:04Z</time>
<extensions>
<speed>2.3</speed>
<temp>0.00</temp>
<bpm>0</bpm>
<rpm>0.00</rpm>
</extensions>
</trkpt>
<trkpt lat="32.585548401" lon="35.010887146">
  <ele>183.459045</ele>
  <time>2012-06-23T05:46:06Z</time>
<extensions>
<speed>2.2</speed>
<temp>0.00</temp>
<bpm>0</bpm>
<rpm>0.00</rpm>
</extensions>
</trkpt>
<trkpt lat="32.585556030" lon="35.010852814">
  <ele>183.509827</ele>
  <time>2012-06-23T05:46:07Z</time>
<extensions>
<speed>2.3</speed>
<temp>0.00</temp>
<bpm>0</bpm>
<rpm>0.00</rpm>
</extensions>
</trkpt>
<trkpt lat="32.585567474" lon="35.010795593">
  <ele>182.619202</ele>
  <time>2012-06-23T05:46:09Z</time>
<extensions>
<speed>2.6</speed>
<temp>0.00</temp>
<bpm>0</bpm>
<rpm>0.00</rpm>
</extensions>
</trkpt>
<trkpt lat="32.585563660" lon="35.010742188">
  <ele>183.720764</ele>
  <time>2012-06-23T05:46:11Z</time>
<extensions>
<speed>2.2</speed>
<temp>0.00</temp>
<bpm>0</bpm>
<rpm>0.00</rpm>
</extensions>
</trkpt>
<trkpt lat="32.585563660" lon="35.010688782">
  <ele>183.806702</ele>
  <time>2012-06-23T05:46:13Z</time>
<extensions>
<speed>1.8</speed>
<temp>0.00</temp>
<bpm>0</bpm>
<rpm>0.00</rpm>
</extensions>
</trkpt>
<trkpt lat="32.585559845" lon="35.010639191">
  <ele>184.228577</ele>
  <time>2012-06-23T05:46:15Z</time>
<extensions>
<speed>1.7</speed>
<temp>0.00</temp>
<bpm>0</bpm>
<rpm>0.00</rpm>
</extensions>
</trkpt>
<trkpt lat="32.585552216" lon="35.010601044">
  <ele>184.302795</ele>
  <time>2012-06-23T05:46:17Z</time>
<extensions>
<speed>1.7</speed>
<temp>0.00</temp>
<bpm>0</bpm>
<rpm>0.00</rpm>
</extensions>
</trkpt>
<trkpt lat="32.585540771" lon="35.010562897">
  <ele>183.427795</ele>
  <time>2012-06-23T05:46:19Z</time>
<extensions>
<speed>2.0</speed>
<temp>0.00</temp>
<bpm>0</bpm>
<rpm>0.00</rpm>
</extensions>
</trkpt>
<trkpt lat="32.585540771" lon="35.010509491">
  <ele>184.318420</ele>
  <time>2012-06-23T05:46:21Z</time>
<extensions>
<speed>2.1</speed>
<temp>0.00</temp>
<bpm>0</bpm>
<rpm>0.00</rpm>
</extensions>
</trkpt>
<trkpt lat="32.585536957" lon="35.010456085">
  <ele>185.091858</ele>
  <time>2012-06-23T05:46:23Z</time>
<extensions>
<speed>2.1</speed>
<temp>0.00</temp>
<bpm>0</bpm>
<rpm>0.00</rpm>
</extensions>
</trkpt>
<trkpt lat="32.585521698" lon="35.010402679">
  <ele>186.627014</ele>
  <time>2012-06-23T05:46:25Z</time>
<extensions>
<speed>2.6</speed>
<temp>0.00</temp>
<bpm>0</bpm>
<rpm>0.00</rpm>
</extensions>
</trkpt>
<trkpt lat="32.585510254" lon="35.010353088">
  <ele>187.892639</ele>
  <time>2012-06-23T05:46:27Z</time>
<extensions>
<speed>2.1</speed>
<temp>0.00</temp>
<bpm>0</bpm>
<rpm>0.00</rpm>
</extensions>
</trkpt>
<trkpt lat="32.585502625" lon="35.010303497">
  <ele>188.955139</ele>
  <time>2012-06-23T05:46:29Z</time>
<extensions>
<speed>1.9</speed>
<temp>0.00</temp>
<bpm>0</bpm>
<rpm>0.00</rpm>
</extensions>
</trkpt>
<trkpt lat="32.585487366" lon="35.010265350">
  <ele>188.388733</ele>
  <time>2012-06-23T05:46:31Z</time>
<extensions>
<speed>2.2</speed>
<temp>0.00</temp>
<bpm>0</bpm>
<rpm>0.00</rpm>
</extensions>
</trkpt>
<trkpt lat="32.585472107" lon="35.010219574">
  <ele>188.380920</ele>
  <time>2012-06-23T05:46:33Z</time>
<extensions>
<speed>2.2</speed>
<temp>0.00</temp>
<bpm>0</bpm>
<rpm>0.00</rpm>
</extensions>
</trkpt>
<trkpt lat="32.585468292" lon="35.010177612">
  <ele>188.810608</ele>
  <time>2012-06-23T05:46:35Z</time>
<extensions>
<speed>2.1</speed>
<temp>0.00</temp>
<bpm>0</bpm>
<rpm>0.00</rpm>
</extensions>
</trkpt>
<trkpt lat="32.585456848" lon="35.010131836">
  <ele>189.455139</ele>
  <time>2012-06-23T05:46:37Z</time>
<extensions>
<speed>2.1</speed>
<temp>0.00</temp>
<bpm>0</bpm>
<rpm>0.00</rpm>
</extensions>
</trkpt>
<trkpt lat="32.585456848" lon="35.010089874">
  <ele>189.416077</ele>
  <time>2012-06-23T05:46:39Z</time>
<extensions>
<speed>1.9</speed>
<temp>0.00</temp>
<bpm>0</bpm>
<rpm>0.00</rpm>
</extensions>
</trkpt>
<trkpt lat="32.585456848" lon="35.010044098">
  <ele>189.505920</ele>
  <time>2012-06-23T05:46:41Z</time>
<extensions>
<speed>2.4</speed>
<temp>0.00</temp>
<bpm>0</bpm>
<rpm>0.00</rpm>
</extensions>
</trkpt>
<trkpt lat="32.585453033" lon="35.010005951">
  <ele>189.818420</ele>
  <time>2012-06-23T05:46:43Z</time>
<extensions>
<speed>1.8</speed>
<temp>0.00</temp>
<bpm>0</bpm>
<rpm>0.00</rpm>
</extensions>
</trkpt>
<trkpt lat="32.585460663" lon="35.009960175">
  <ele>190.599670</ele>
  <time>2012-06-23T05:46:45Z</time>
<extensions>
<speed>2.4</speed>
<temp>0.00</temp>
<bpm>0</bpm>
<rpm>0.00</rpm>
</extensions>
</trkpt>
<trkpt lat="32.585460663" lon="35.009910583">
  <ele>190.947327</ele>
  <time>2012-06-23T05:46:47Z</time>
<extensions>
<speed>2.4</speed>
<temp>0.00</temp>
<bpm>0</bpm>
<rpm>0.00</rpm>
</extensions>
</trkpt>
<trkpt lat="32.585464478" lon="35.009864807">
  <ele>190.416077</ele>
  <time>2012-06-23T05:46:49Z</time>
<extensions>
<speed>1.5</speed>
<temp>0.00</temp>
<bpm>0</bpm>
<rpm>0.00</rpm>
</extensions>
</trkpt>
<trkpt lat="32.585449219" lon="35.009807587">
  <ele>190.294983</ele>
  <time>2012-06-23T05:46:52Z</time>
<extensions>
<speed>2.1</speed>
<temp>0.00</temp>
<bpm>0</bpm>
<rpm>0.00</rpm>
</extensions>
</trkpt>
<trkpt lat="32.585445404" lon="35.009765625">
  <ele>189.900452</ele>
  <time>2012-06-23T05:46:54Z</time>
<extensions>
<speed>2.2</speed>
<temp>0.00</temp>
<bpm>0</bpm>
<rpm>0.00</rpm>
</extensions>
</trkpt>
<trkpt lat="32.585449219" lon="35.009719849">
  <ele>189.470764</ele>
  <time>2012-06-23T05:46:56Z</time>
<extensions>
<speed>2.3</speed>
<temp>0.00</temp>
<bpm>0</bpm>
<rpm>0.00</rpm>
</extensions>
</trkpt>
<trkpt lat="32.585453033" lon="35.009666443">
  <ele>189.427795</ele>
  <time>2012-06-23T05:46:58Z</time>
<extensions>
<speed>2.2</speed>
<temp>0.00</temp>
<bpm>0</bpm>
<rpm>0.00</rpm>
</extensions>
</trkpt>
<trkpt lat="32.585441589" lon="35.009616852">
  <ele>189.728577</ele>
  <time>2012-06-23T05:47:00Z</time>
<extensions>
<speed>2.4</speed>
<temp>0.00</temp>
<bpm>0</bpm>
<rpm>0.00</rpm>
</extensions>
</trkpt>
<trkpt lat="32.585441589" lon="35.009571075">
  <ele>188.681702</ele>
  <time>2012-06-23T05:47:02Z</time>
<extensions>
<speed>2.6</speed>
<temp>0.00</temp>
<bpm>0</bpm>
<rpm>0.00</rpm>
</extensions>
</trkpt>
<trkpt lat="32.585441589" lon="35.009540558">
  <ele>189.111389</ele>
  <time>2012-06-23T05:47:03Z</time>
<extensions>
<speed>2.6</speed>
<temp>0.00</temp>
<bpm>0</bpm>
<rpm>0.00</rpm>
</extensions>
</trkpt>
<trkpt lat="32.585433960" lon="35.009479523">
  <ele>189.611389</ele>
  <time>2012-06-23T05:47:05Z</time>
<extensions>
<speed>2.5</speed>
<temp>0.00</temp>
<bpm>0</bpm>
<rpm>0.00</rpm>
</extensions>
</trkpt>
<trkpt lat="32.585430145" lon="35.009429932">
  <ele>190.365295</ele>
  <time>2012-06-23T05:47:07Z</time>
<extensions>
<speed>2.1</speed>
<temp>0.00</temp>
<bpm>0</bpm>
<rpm>0.00</rpm>
</extensions>
</trkpt>
<trkpt lat="32.585422516" lon="35.009372711">
  <ele>189.826233</ele>
  <time>2012-06-23T05:47:09Z</time>
<extensions>
<speed>2.6</speed>
<temp>0.00</temp>
<bpm>0</bpm>
<rpm>0.00</rpm>
</extensions>
</trkpt>
<trkpt lat="32.585414886" lon="35.009330750">
  <ele>189.396545</ele>
  <time>2012-06-23T05:47:11Z</time>
<extensions>
<speed>2.5</speed>
<temp>0.00</temp>
<bpm>0</bpm>
<rpm>0.00</rpm>
</extensions>
</trkpt>
<trkpt lat="32.585403442" lon="35.009273529">
  <ele>189.236389</ele>
  <time>2012-06-23T05:47:13Z</time>
<extensions>
<speed>2.8</speed>
<temp>0.00</temp>
<bpm>0</bpm>
<rpm>0.00</rpm>
</extensions>
</trkpt>
<trkpt lat="32.585414886" lon="35.009231567">
  <ele>188.580139</ele>
  <time>2012-06-23T05:47:15Z</time>
<extensions>
<speed>2.3</speed>
<temp>0.00</temp>
<bpm>0</bpm>
<rpm>0.00</rpm>
</extensions>
</trkpt>
<trkpt lat="32.585437775" lon="35.009216309">
  <ele>188.990295</ele>
  <time>2012-06-23T05:47:16Z</time>
<extensions>
<speed>2.9</speed>
<temp>0.00</temp>
<bpm>0</bpm>
<rpm>0.00</rpm>
</extensions>
</trkpt>
<trkpt lat="32.585479736" lon="35.009178162">
  <ele>188.388733</ele>
  <time>2012-06-23T05:47:18Z</time>
<extensions>
<speed>2.9</speed>
<temp>0.00</temp>
<bpm>0</bpm>
<rpm>0.00</rpm>
</extensions>
</trkpt>
<trkpt lat="32.585494995" lon="35.009147644">
  <ele>188.431702</ele>
  <time>2012-06-23T05:47:20Z</time>
<extensions>
<speed>1.0</speed>
<temp>0.00</temp>
<bpm>0</bpm>
<rpm>0.00</rpm>
</extensions>
</trkpt>
<trkpt lat="32.585525513" lon="35.009147644">
  <ele>187.169983</ele>
  <time>2012-06-23T05:47:50Z</time>
<extensions>
<speed>2.2</speed>
<temp>0.00</temp>
<bpm>0</bpm>
<rpm>0.00</rpm>
</extensions>
</trkpt>
<trkpt lat="32.585533142" lon="35.009181976">
  <ele>187.017639</ele>
  <time>2012-06-23T05:47:52Z</time>
<extensions>
<speed>2.1</speed>
<temp>0.00</temp>
<bpm>0</bpm>
<rpm>0.00</rpm>
</extensions>
</trkpt>
<trkpt lat="32.585575104" lon="35.009220123">
  <ele>187.232483</ele>
  <time>2012-06-23T05:47:54Z</time>
<extensions>
<speed>3.1</speed>
<temp>0.00</temp>
<bpm>0</bpm>
<rpm>0.00</rpm>
</extensions>
</trkpt>
<trkpt lat="32.585613251" lon="35.009223938">
  <ele>186.462952</ele>
  <time>2012-06-23T05:47:55Z</time>
<extensions>
<speed>3.7</speed>
<temp>0.00</temp>
<bpm>0</bpm>
<rpm>0.00</rpm>
</extensions>
</trkpt>
<trkpt lat="32.585651398" lon="35.009243011">
  <ele>184.931702</ele>
  <time>2012-06-23T05:47:56Z</time>
<extensions>
<speed>4.1</speed>
<temp>0.00</temp>
<bpm>0</bpm>
<rpm>0.00</rpm>
</extensions>
</trkpt>
<trkpt lat="32.585681915" lon="35.009262085">
  <ele>184.498108</ele>
  <time>2012-06-23T05:47:57Z</time>
<extensions>
<speed>3.4</speed>
<temp>0.00</temp>
<bpm>0</bpm>
<rpm>0.00</rpm>
</extensions>
</trkpt>
<trkpt lat="32.585708618" lon="35.009277344">
  <ele>183.955139</ele>
  <time>2012-06-23T05:47:58Z</time>
<extensions>
<speed>3.1</speed>
<temp>0.00</temp>
<bpm>0</bpm>
<rpm>0.00</rpm>
</extensions>
</trkpt>
<trkpt lat="32.585735321" lon="35.009281158">
  <ele>183.369202</ele>
  <time>2012-06-23T05:47:59Z</time>
<extensions>
<speed>2.6</speed>
<temp>0.00</temp>
<bpm>0</bpm>
<rpm>0.00</rpm>
</extensions>
</trkpt>
<trkpt lat="32.585784912" lon="35.009265900">
  <ele>181.599670</ele>
  <time>2012-06-23T05:48:01Z</time>
<extensions>
<speed>2.7</speed>
<temp>0.00</temp>
<bpm>0</bpm>
<rpm>0.00</rpm>
</extensions>
</trkpt>
<trkpt lat="32.585807800" lon="35.009239197">
  <ele>181.173889</ele>
  <time>2012-06-23T05:48:02Z</time>
<extensions>
<speed>3.0</speed>
<temp>0.00</temp>
<bpm>0</bpm>
<rpm>0.00</rpm>
</extensions>
</trkpt>
<trkpt lat="32.585834503" lon="35.009193420">
  <ele>179.435608</ele>
  <time>2012-06-23T05:48:04Z</time>
<extensions>
<speed>2.3</speed>
<temp>0.00</temp>
<bpm>0</bpm>
<rpm>0.00</rpm>
</extensions>
</trkpt>
<trkpt lat="32.585865021" lon="35.009208679">
  <ele>176.873108</ele>
  <time>2012-06-23T05:48:08Z</time>
<extensions>
<speed>1.8</speed>
<temp>0.00</temp>
<bpm>0</bpm>
<rpm>0.00</rpm>
</extensions>
</trkpt>
<trkpt lat="32.585887909" lon="35.009216309">
  <ele>175.134827</ele>
  <time>2012-06-23T05:48:10Z</time>
<extensions>
<speed>1.8</speed>
<temp>0.00</temp>
<bpm>0</bpm>
<rpm>0.00</rpm>
</extensions>
</trkpt>
<trkpt lat="32.585914612" lon="35.009208679">
  <ele>174.400452</ele>
  <time>2012-06-23T05:48:11Z</time>
<extensions>
<speed>2.1</speed>
<temp>0.00</temp>
<bpm>0</bpm>
<rpm>0.00</rpm>
</extensions>
</trkpt>
<trkpt lat="32.585948944" lon="35.009204865">
  <ele>172.720764</ele>
  <time>2012-06-23T05:48:13Z</time>
<extensions>
<speed>1.3</speed>
<temp>0.00</temp>
<bpm>0</bpm>
<rpm>0.00</rpm>
</extensions>
</trkpt>
<trkpt lat="32.585983276" lon="35.009231567">
  <ele>171.103577</ele>
  <time>2012-06-23T05:48:15Z</time>
<extensions>
<speed>2.5</speed>
<temp>0.00</temp>
<bpm>0</bpm>
<rpm>0.00</rpm>
</extensions>
</trkpt>
<trkpt lat="32.586009979" lon="35.009262085">
  <ele>169.767639</ele>
  <time>2012-06-23T05:48:17Z</time>
<extensions>
<speed>1.8</speed>
<temp>0.00</temp>
<bpm>0</bpm>
<rpm>0.00</rpm>
</extensions>
</trkpt>
<trkpt lat="32.586036682" lon="35.009288788">
  <ele>168.310608</ele>
  <time>2012-06-23T05:48:19Z</time>
<extensions>
<speed>1.2</speed>
<temp>0.00</temp>
<bpm>0</bpm>
<rpm>0.00</rpm>
</extensions>
</trkpt>
<trkpt lat="32.586059570" lon="35.009311676">
  <ele>166.173889</ele>
  <time>2012-06-23T05:48:21Z</time>
<extensions>
<speed>1.1</speed>
<temp>0.00</temp>
<bpm>0</bpm>
<rpm>0.00</rpm>
</extensions>
</trkpt>
<trkpt lat="32.586090088" lon="35.009334564">
  <ele>164.841858</ele>
  <time>2012-06-23T05:48:23Z</time>
<extensions>
<speed>2.0</speed>
<temp>0.00</temp>
<bpm>0</bpm>
<rpm>0.00</rpm>
</extensions>
</trkpt>
<trkpt lat="32.586162567" lon="35.009365082">
  <ele>163.283264</ele>
  <time>2012-06-23T05:48:25Z</time>
<extensions>
<speed>2.7</speed>
<temp>0.00</temp>
<bpm>0</bpm>
<rpm>0.00</rpm>
</extensions>
</trkpt>
<trkpt lat="32.586200714" lon="35.009368896">
  <ele>162.267639</ele>
  <time>2012-06-23T05:48:26Z</time>
<extensions>
<speed>2.6</speed>
<temp>0.00</temp>
<bpm>0</bpm>
<rpm>0.00</rpm>
</extensions>
</trkpt>
<trkpt lat="32.586231232" lon="35.009368896">
  <ele>161.283264</ele>
  <time>2012-06-23T05:48:27Z</time>
<extensions>
<speed>3.0</speed>
<temp>0.00</temp>
<bpm>0</bpm>
<rpm>0.00</rpm>
</extensions>
</trkpt>
<trkpt lat="32.586265564" lon="35.009368896">
  <ele>160.564514</ele>
  <time>2012-06-23T05:48:28Z</time>
<extensions>
<speed>2.5</speed>
<temp>0.00</temp>
<bpm>0</bpm>
<rpm>0.00</rpm>
</extensions>
</trkpt>
<trkpt lat="32.586296082" lon="35.009368896">
  <ele>159.681702</ele>
  <time>2012-06-23T05:48:29Z</time>
<extensions>
<speed>2.1</speed>
<temp>0.00</temp>
<bpm>0</bpm>
<rpm>0.00</rpm>
</extensions>
</trkpt>
<trkpt lat="32.586349487" lon="35.009368896">
  <ele>157.427795</ele>
  <time>2012-06-23T05:48:31Z</time>
<extensions>
<speed>1.6</speed>
<temp>0.00</temp>
<bpm>0</bpm>
<rpm>0.00</rpm>
</extensions>
</trkpt>
<trkpt lat="32.586380005" lon="35.009338379">
  <ele>155.095764</ele>
  <time>2012-06-23T05:48:34Z</time>
<extensions>
<speed>1.4</speed>
<temp>0.00</temp>
<bpm>0</bpm>
<rpm>0.00</rpm>
</extensions>
</trkpt>
<trkpt lat="32.586391449" lon="35.009288788">
  <ele>153.654358</ele>
  <time>2012-06-23T05:48:36Z</time>
<extensions>
<speed>2.3</speed>
<temp>0.00</temp>
<bpm>0</bpm>
<rpm>0.00</rpm>
</extensions>
</trkpt>
<trkpt lat="32.586406708" lon="35.009239197">
  <ele>152.498108</ele>
  <time>2012-06-23T05:48:38Z</time>
<extensions>
<speed>1.3</speed>
<temp>0.00</temp>
<bpm>0</bpm>
<rpm>0.00</rpm>
</extensions>
</trkpt>
<trkpt lat="32.586441040" lon="35.009223938">
  <ele>152.127014</ele>
  <time>2012-06-23T05:48:39Z</time>
<extensions>
<speed>2.8</speed>
<temp>0.00</temp>
<bpm>0</bpm>
<rpm>0.00</rpm>
</extensions>
</trkpt>
<trkpt lat="32.586460114" lon="35.009197235">
  <ele>150.349670</ele>
  <time>2012-06-23T05:48:41Z</time>
<extensions>
<speed>1.3</speed>
<temp>0.00</temp>
<bpm>0</bpm>
<rpm>0.00</rpm>
</extensions>
</trkpt>
<trkpt lat="32.586467743" lon="35.009147644">
  <ele>149.423889</ele>
  <time>2012-06-23T05:48:43Z</time>
<extensions>
<speed>2.2</speed>
<temp>0.00</temp>
<bpm>0</bpm>
<rpm>0.00</rpm>
</extensions>
</trkpt>
<trkpt lat="32.586479187" lon="35.009120941">
  <ele>146.498108</ele>
  <time>2012-06-23T05:48:45Z</time>
<extensions>
<speed>1.8</speed>
<temp>0.00</temp>
<bpm>0</bpm>
<rpm>0.00</rpm>
</extensions>
</trkpt>
<trkpt lat="32.586528778" lon="35.009113312">
  <ele>143.716858</ele>
  <time>2012-06-23T05:48:47Z</time>
<extensions>
<speed>2.1</speed>
<temp>0.00</temp>
<bpm>0</bpm>
<rpm>0.00</rpm>
</extensions>
</trkpt>
<trkpt lat="32.586544037" lon="35.009082794">
  <ele>141.314514</ele>
  <time>2012-06-23T05:48:49Z</time>
<extensions>
<speed>1.4</speed>
<temp>0.00</temp>
<bpm>0</bpm>
<rpm>0.00</rpm>
</extensions>
</trkpt>
<trkpt lat="32.586547852" lon="35.009048462">
  <ele>142.041077</ele>
  <time>2012-06-23T05:48:50Z</time>
<extensions>
<speed>2.1</speed>
<temp>0.00</temp>
<bpm>0</bpm>
<rpm>0.00</rpm>
</extensions>
</trkpt>
<trkpt lat="32.586540222" lon="35.009014130">
  <ele>141.951233</ele>
  <time>2012-06-23T05:48:51Z</time>
<extensions>
<speed>2.4</speed>
<temp>0.00</temp>
<bpm>0</bpm>
<rpm>0.00</rpm>
</extensions>
</trkpt>
<trkpt lat="32.586532593" lon="35.008968353">
  <ele>140.650452</ele>
  <time>2012-06-23T05:48:53Z</time>
<extensions>
<speed>2.3</speed>
<temp>0.00</temp>
<bpm>0</bpm>
<rpm>0.00</rpm>
</extensions>
</trkpt>
<trkpt lat="32.586536407" lon="35.008926392">
  <ele>139.619202</ele>
  <time>2012-06-23T05:48:54Z</time>
<extensions>
<speed>3.0</speed>
<temp>0.00</temp>
<bpm>0</bpm>
<rpm>0.00</rpm>
</extensions>
</trkpt>
<trkpt lat="32.586544037" lon="35.008892059">
  <ele>138.947327</ele>
  <time>2012-06-23T05:48:55Z</time>
<extensions>
<speed>3.4</speed>
<temp>0.00</temp>
<bpm>0</bpm>
<rpm>0.00</rpm>
</extensions>
</trkpt>
<trkpt lat="32.586555481" lon="35.008853912">
  <ele>137.947327</ele>
  <time>2012-06-23T05:48:56Z</time>
<extensions>
<speed>3.9</speed>
<temp>0.00</temp>
<bpm>0</bpm>
<rpm>0.00</rpm>
</extensions>
</trkpt>
<trkpt lat="32.586570740" lon="35.008808136">
  <ele>137.369202</ele>
  <time>2012-06-23T05:48:57Z</time>
<extensions>
<speed>3.1</speed>
<temp>0.00</temp>
<bpm>0</bpm>
<rpm>0.00</rpm>
</extensions>
</trkpt>
<trkpt lat="32.586582184" lon="35.008781433">
  <ele>136.142639</ele>
  <time>2012-06-23T05:48:58Z</time>
<extensions>
<speed>3.4</speed>
<temp>0.00</temp>
<bpm>0</bpm>
<rpm>0.00</rpm>
</extensions>
</trkpt>
<trkpt lat="32.586601257" lon="35.008747101">
  <ele>135.334045</ele>
  <time>2012-06-23T05:48:59Z</time>
<extensions>
<speed>2.9</speed>
<temp>0.00</temp>
<bpm>0</bpm>
<rpm>0.00</rpm>
</extensions>
</trkpt>
<trkpt lat="32.586608887" lon="35.008689880">
  <ele>133.400452</ele>
  <time>2012-06-23T05:49:01Z</time>
<extensions>
<speed>3.2</speed>
<temp>0.00</temp>
<bpm>0</bpm>
<rpm>0.00</rpm>
</extensions>
</trkpt>
<trkpt lat="32.586612701" lon="35.008644104">
  <ele>131.962952</ele>
  <time>2012-06-23T05:49:02Z</time>
<extensions>
<speed>4.1</speed>
<temp>0.00</temp>
<bpm>0</bpm>
<rpm>0.00</rpm>
</extensions>
</trkpt>
<trkpt lat="32.586620331" lon="35.008583069">
  <ele>130.927795</ele>
  <time>2012-06-23T05:49:03Z</time>
<extensions>
<speed>4.4</speed>
<temp>0.00</temp>
<bpm>0</bpm>
<rpm>0.00</rpm>
</extensions>
</trkpt>
<trkpt lat="32.586627960" lon="35.008537292">
  <ele>129.541077</ele>
  <time>2012-06-23T05:49:04Z</time>
<extensions>
<speed>4.0</speed>
<temp>0.00</temp>
<bpm>0</bpm>
<rpm>0.00</rpm>
</extensions>
</trkpt>
<trkpt lat="32.586635590" lon="35.008487701">
  <ele>129.880920</ele>
  <time>2012-06-23T05:49:05Z</time>
<extensions>
<speed>3.2</speed>
<temp>0.00</temp>
<bpm>0</bpm>
<rpm>0.00</rpm>
</extensions>
</trkpt>
<trkpt lat="32.586639404" lon="35.008449554">
  <ele>128.740295</ele>
  <time>2012-06-23T05:49:06Z</time>
<extensions>
<speed>2.7</speed>
<temp>0.00</temp>
<bpm>0</bpm>
<rpm>0.00</rpm>
</extensions>
</trkpt>
<trkpt lat="32.586650848" lon="35.008415222">
  <ele>128.044983</ele>
  <time>2012-06-23T05:49:07Z</time>
<extensions>
<speed>2.6</speed>
<temp>0.00</temp>
<bpm>0</bpm>
<rpm>0.00</rpm>
</extensions>
</trkpt>
<trkpt lat="32.586677551" lon="35.008369446">
  <ele>126.543976</ele>
  <time>2012-06-23T05:49:09Z</time>
<extensions>
<speed>2.1</speed>
<temp>0.00</temp>
<bpm>0</bpm>
<rpm>0.00</rpm>
</extensions>
</trkpt>
<trkpt lat="32.586692810" lon="35.008316040">
  <ele>125.092804</ele>
  <time>2012-06-23T05:49:11Z</time>
<extensions>
<speed>2.8</speed>
<temp>0.00</temp>
<bpm>0</bpm>
<rpm>0.00</rpm>
</extensions>
</trkpt>
<trkpt lat="32.586700439" lon="35.008281708">
  <ele>124.032257</ele>
  <time>2012-06-23T05:49:12Z</time>
<extensions>
<speed>2.7</speed>
<temp>0.00</temp>
<bpm>0</bpm>
<rpm>0.00</rpm>
</extensions>
</trkpt>
<trkpt lat="32.586711884" lon="35.008232117">
  <ele>122.272491</ele>
  <time>2012-06-23T05:49:14Z</time>
<extensions>
<speed>1.0</speed>
<temp>0.00</temp>
<bpm>0</bpm>
<rpm>0.00</rpm>
</extensions>
</trkpt>
<trkpt lat="32.586696625" lon="35.008201599">
  <ele>121.598663</ele>
  <time>2012-06-23T05:49:16Z</time>
<extensions>
<speed>1.8</speed>
<temp>0.00</temp>
<bpm>0</bpm>
<rpm>0.00</rpm>
</extensions>
</trkpt>
<trkpt lat="32.586688995" lon="35.008152008">
  <ele>120.956085</ele>
  <time>2012-06-23T05:49:18Z</time>
<extensions>
<speed>1.7</speed>
<temp>0.00</temp>
<bpm>0</bpm>
<rpm>0.00</rpm>
</extensions>
</trkpt>
<trkpt lat="32.586688995" lon="35.008117676">
  <ele>120.870148</ele>
  <time>2012-06-23T05:49:19Z</time>
<extensions>
<speed>1.4</speed>
<temp>0.00</temp>
<bpm>0</bpm>
<rpm>0.00</rpm>
</extensions>
</trkpt>
<trkpt lat="32.586704254" lon="35.008087158">
  <ele>121.190460</ele>
  <time>2012-06-23T05:49:20Z</time>
<extensions>
<speed>1.6</speed>
<temp>0.00</temp>
<bpm>0</bpm>
<rpm>0.00</rpm>
</extensions>
</trkpt>
<trkpt lat="32.586719513" lon="35.008045197">
  <ele>120.639679</ele>
  <time>2012-06-23T05:49:22Z</time>
<extensions>
<speed>2.4</speed>
<temp>0.00</temp>
<bpm>0</bpm>
<rpm>0.00</rpm>
</extensions>
</trkpt>
<trkpt lat="32.586734772" lon="35.008010864">
  <ele>119.610382</ele>
  <time>2012-06-23T05:49:23Z</time>
<extensions>
<speed>3.4</speed>
<temp>0.00</temp>
<bpm>0</bpm>
<rpm>0.00</rpm>
</extensions>
</trkpt>
<trkpt lat="32.586757660" lon="35.007968903">
  <ele>119.034210</ele>
  <time>2012-06-23T05:49:24Z</time>
<extensions>
<speed>3.7</speed>
<temp>0.00</temp>
<bpm>0</bpm>
<rpm>0.00</rpm>
</extensions>
</trkpt>
<trkpt lat="32.586776733" lon="35.007934570">
  <ele>117.862335</ele>
  <time>2012-06-23T05:49:25Z</time>
<extensions>
<speed>3.0</speed>
<temp>0.00</temp>
<bpm>0</bpm>
<rpm>0.00</rpm>
</extensions>
</trkpt>
<trkpt lat="32.586795807" lon="35.007892609">
  <ele>119.067413</ele>
  <time>2012-06-23T05:49:26Z</time>
<extensions>
<speed>1.7</speed>
<temp>0.00</temp>
<bpm>0</bpm>
<rpm>0.00</rpm>
</extensions>
</trkpt>
<trkpt lat="32.586818695" lon="35.007873535">
  <ele>119.438507</ele>
  <time>2012-06-23T05:49:27Z</time>
<extensions>
<speed>1.1</speed>
<temp>0.00</temp>
<bpm>0</bpm>
<rpm>0.00</rpm>
</extensions>
</trkpt>
<trkpt lat="32.586841583" lon="35.007884979">
  <ele>117.834991</ele>
  <time>2012-06-23T05:49:29Z</time>
<extensions>
<speed>1.9</speed>
<temp>0.00</temp>
<bpm>0</bpm>
<rpm>0.00</rpm>
</extensions>
</trkpt>
<trkpt lat="32.586853027" lon="35.007915497">
  <ele>115.795929</ele>
  <time>2012-06-23T05:49:30Z</time>
<extensions>
<speed>2.1</speed>
<temp>0.00</temp>
<bpm>0</bpm>
<rpm>0.00</rpm>
</extensions>
</trkpt>
<trkpt lat="32.586849213" lon="35.007957458">
  <ele>115.104523</ele>
  <time>2012-06-23T05:49:32Z</time>
<extensions>
<speed>1.6</speed>
<temp>0.00</temp>
<bpm>0</bpm>
<rpm>0.00</rpm>
</extensions>
</trkpt>
<trkpt lat="32.586891174" lon="35.007965088">
  <ele>114.178741</ele>
  <time>2012-06-23T05:49:34Z</time>
<extensions>
<speed>1.7</speed>
<temp>0.00</temp>
<bpm>0</bpm>
<rpm>0.00</rpm>
</extensions>
</trkpt>
<trkpt lat="32.586917877" lon="35.007953644">
  <ele>113.698273</ele>
  <time>2012-06-23T05:49:35Z</time>
<extensions>
<speed>1.4</speed>
<temp>0.00</temp>
<bpm>0</bpm>
<rpm>0.00</rpm>
</extensions>
</trkpt>
<trkpt lat="32.586936951" lon="35.007911682">
  <ele>111.883820</ele>
  <time>2012-06-23T05:49:37Z</time>
<extensions>
<speed>1.9</speed>
<temp>0.00</temp>
<bpm>0</bpm>
<rpm>0.00</rpm>
</extensions>
</trkpt>
<trkpt lat="32.586959839" lon="35.007888794">
  <ele>110.213898</ele>
  <time>2012-06-23T05:49:39Z</time>
<extensions>
<speed>2.2</speed>
<temp>0.00</temp>
<bpm>0</bpm>
<rpm>0.00</rpm>
</extensions>
</trkpt>
<trkpt lat="32.587001801" lon="35.007873535">
  <ele>109.754913</ele>
  <time>2012-06-23T05:49:41Z</time>
<extensions>
<speed>1.5</speed>
<temp>0.00</temp>
<bpm>0</bpm>
<rpm>0.00</rpm>
</extensions>
</trkpt>
<trkpt lat="32.587028503" lon="35.007858276">
  <ele>108.549835</ele>
  <time>2012-06-23T05:49:43Z</time>
<extensions>
<speed>1.2</speed>
<temp>0.00</temp>
<bpm>0</bpm>
<rpm>0.00</rpm>
</extensions>
</trkpt>
<trkpt lat="32.587051392" lon="35.007843018">
  <ele>107.045929</ele>
  <time>2012-06-23T05:49:45Z</time>
<extensions>
<speed>0.8</speed>
<temp>0.00</temp>
<bpm>0</bpm>
<rpm>0.00</rpm>
</extensions>
</trkpt>
<trkpt lat="32.587032318" lon="35.007873535">
  <ele>106.278351</ele>
  <time>2012-06-23T05:50:10Z</time>
<extensions>
<speed>1.1</speed>
<temp>0.00</temp>
<bpm>0</bpm>
<rpm>0.00</rpm>
</extensions>
</trkpt>
<trkpt lat="32.587005615" lon="35.007881165">
  <ele>107.272491</ele>
  <time>2012-06-23T05:50:12Z</time>
<extensions>
<speed>0.9</speed>
<temp>0.00</temp>
<bpm>0</bpm>
<rpm>0.00</rpm>
</extensions>
</trkpt>
<trkpt lat="32.587013245" lon="35.007854462">
  <ele>110.059601</ele>
  <time>2012-06-23T05:50:28Z</time>
<extensions>
<speed>1.3</speed>
<temp>0.00</temp>
<bpm>0</bpm>
<rpm>0.00</rpm>
</extensions>
</trkpt>
<trkpt lat="32.587036133" lon="35.007827759">
  <ele>110.420929</ele>
  <time>2012-06-23T05:50:30Z</time>
<extensions>
<speed>1.2</speed>
<temp>0.00</temp>
<bpm>0</bpm>
<rpm>0.00</rpm>
</extensions>
</trkpt>
<trkpt lat="32.587066650" lon="35.007804871">
  <ele>109.961945</ele>
  <time>2012-06-23T05:50:33Z</time>
<extensions>
<speed>1.4</speed>
<temp>0.00</temp>
<bpm>0</bpm>
<rpm>0.00</rpm>
</extensions>
</trkpt>
<trkpt lat="32.587097168" lon="35.007808685">
  <ele>108.649445</ele>
  <time>2012-06-23T05:50:35Z</time>
<extensions>
<speed>1.7</speed>
<temp>0.00</temp>
<bpm>0</bpm>
<rpm>0.00</rpm>
</extensions>
</trkpt>
<trkpt lat="32.587127686" lon="35.007801056">
  <ele>106.909210</ele>
  <time>2012-06-23T05:50:37Z</time>
<extensions>
<speed>1.7</speed>
<temp>0.00</temp>
<bpm>0</bpm>
<rpm>0.00</rpm>
</extensions>
</trkpt>
<trkpt lat="32.587158203" lon="35.007820129">
  <ele>105.751007</ele>
  <time>2012-06-23T05:50:40Z</time>
<extensions>
<speed>2.1</speed>
<temp>0.00</temp>
<bpm>0</bpm>
<rpm>0.00</rpm>
</extensions>
</trkpt>
<trkpt lat="32.587196350" lon="35.007835388">
  <ele>104.165070</ele>
  <time>2012-06-23T05:50:42Z</time>
<extensions>
<speed>3.0</speed>
<temp>0.00</temp>
<bpm>0</bpm>
<rpm>0.00</rpm>
</extensions>
</trkpt>
<trkpt lat="32.587223053" lon="35.007846832">
  <ele>103.014679</ele>
  <time>2012-06-23T05:50:43Z</time>
<extensions>
<speed>2.1</speed>
<temp>0.00</temp>
<bpm>0</bpm>
<rpm>0.00</rpm>
</extensions>
</trkpt>
<trkpt lat="32.587249756" lon="35.007862091">
  <ele>102.926788</ele>
  <time>2012-06-23T05:50:45Z</time>
<extensions>
<speed>1.8</speed>
<temp>0.00</temp>
<bpm>0</bpm>
<rpm>0.00</rpm>
</extensions>
</trkpt>
<trkpt lat="32.587276459" lon="35.007873535">
  <ele>103.129913</ele>
  <time>2012-06-23T05:50:46Z</time>
<extensions>
<speed>1.3</speed>
<temp>0.00</temp>
<bpm>0</bpm>
<rpm>0.00</rpm>
</extensions>
</trkpt>
<trkpt lat="32.587310791" lon="35.007877350">
  <ele>102.717804</ele>
  <time>2012-06-23T05:50:47Z</time>
<extensions>
<speed>1.1</speed>
<temp>0.00</temp>
<bpm>0</bpm>
<rpm>0.00</rpm>
</extensions>
</trkpt>
<trkpt lat="32.587341309" lon="35.007850647">
  <ele>101.290070</ele>
  <time>2012-06-23T05:50:49Z</time>
<extensions>
<speed>1.5</speed>
<temp>0.00</temp>
<bpm>0</bpm>
<rpm>0.00</rpm>
</extensions>
</trkpt>
<trkpt lat="32.587356567" lon="35.007801056">
  <ele>100.036163</ele>
  <time>2012-06-23T05:50:51Z</time>
<extensions>
<speed>2.8</speed>
<temp>0.00</temp>
<bpm>0</bpm>
<rpm>0.00</rpm>
</extensions>
</trkpt>
<trkpt lat="32.587348938" lon="35.007740021">
  <ele>98.415070</ele>
  <time>2012-06-23T05:50:53Z</time>
<extensions>
<speed>2.9</speed>
<temp>0.00</temp>
<bpm>0</bpm>
<rpm>0.00</rpm>
</extensions>
</trkpt>
<trkpt lat="32.587333679" lon="35.007713318">
  <ele>97.420929</ele>
  <time>2012-06-23T05:50:54Z</time>
<extensions>
<speed>2.6</speed>
<temp>0.00</temp>
<bpm>0</bpm>
<rpm>0.00</rpm>
</extensions>
</trkpt>
<trkpt lat="32.587326050" lon="35.007682800">
  <ele>96.198273</ele>
  <time>2012-06-23T05:50:55Z</time>
<extensions>
<speed>2.4</speed>
<temp>0.00</temp>
<bpm>0</bpm>
<rpm>0.00</rpm>
</extensions>
</trkpt>
<trkpt lat="32.587329865" lon="35.007640839">
  <ele>94.461945</ele>
  <time>2012-06-23T05:50:57Z</time>
<extensions>
<speed>1.1</speed>
<temp>0.00</temp>
<bpm>0</bpm>
<rpm>0.00</rpm>
</extensions>
</trkpt>
<trkpt lat="32.587341309" lon="35.007610321">
  <ele>95.293976</ele>
  <time>2012-06-23T05:50:58Z</time>
<extensions>
<speed>1.3</speed>
<temp>0.00</temp>
<bpm>0</bpm>
<rpm>0.00</rpm>
</extensions>
</trkpt>
<trkpt lat="32.587364197" lon="35.007610321">
  <ele>92.938507</ele>
  <time>2012-06-23T05:51:00Z</time>
<extensions>
<speed>2.2</speed>
<temp>0.00</temp>
<bpm>0</bpm>
<rpm>0.00</rpm>
</extensions>
</trkpt>
<trkpt lat="32.587387085" lon="35.007621765">
  <ele>91.448273</ele>
  <time>2012-06-23T05:51:01Z</time>
<extensions>
<speed>2.8</speed>
<temp>0.00</temp>
<bpm>0</bpm>
<rpm>0.00</rpm>
</extensions>
</trkpt>
<trkpt lat="32.587432861" lon="35.007625580">
  <ele>90.194366</ele>
  <time>2012-06-23T05:51:02Z</time>
<extensions>
<speed>3.7</speed>
<temp>0.00</temp>
<bpm>0</bpm>
<rpm>0.00</rpm>
</extensions>
</trkpt>
<trkpt lat="32.587471008" lon="35.007621765">
  <ele>88.678741</ele>
  <time>2012-06-23T05:51:03Z</time>
<extensions>
<speed>4.2</speed>
<temp>0.00</temp>
<bpm>0</bpm>
<rpm>0.00</rpm>
</extensions>
</trkpt>
<trkpt lat="32.587505341" lon="35.007606506">
  <ele>87.317413</ele>
  <time>2012-06-23T05:51:04Z</time>
<extensions>
<speed>4.3</speed>
<temp>0.00</temp>
<bpm>0</bpm>
<rpm>0.00</rpm>
</extensions>
</trkpt>
<trkpt lat="32.587547302" lon="35.007587433">
  <ele>85.719757</ele>
  <time>2012-06-23T05:51:05Z</time>
<extensions>
<speed>4.5</speed>
<temp>0.00</temp>
<bpm>0</bpm>
<rpm>0.00</rpm>
</extensions>
</trkpt>
<trkpt lat="32.587577820" lon="35.007587433">
  <ele>85.612335</ele>
  <time>2012-06-23T05:51:06Z</time>
<extensions>
<speed>2.9</speed>
<temp>0.00</temp>
<bpm>0</bpm>
<rpm>0.00</rpm>
</extensions>
</trkpt>
<trkpt lat="32.587604523" lon="35.007617950">
  <ele>83.559601</ele>
  <time>2012-06-23T05:51:08Z</time>
<extensions>
<speed>0.7</speed>
<temp>0.00</temp>
<bpm>0</bpm>
<rpm>0.00</rpm>
</extensions>
</trkpt>
<trkpt lat="32.587631226" lon="35.007625580">
  <ele>85.440460</ele>
  <time>2012-06-23T05:51:13Z</time>
<extensions>
<speed>0.1</speed>
<temp>0.00</temp>
<bpm>0</bpm>
<rpm>0.00</rpm>
</extensions>
</trkpt>
<trkpt lat="32.587631226" lon="35.007659912">
  <ele>86.840851</ele>
  <time>2012-06-23T05:52:11Z</time>
<extensions>
<speed>0.3</speed>
<temp>0.00</temp>
<bpm>0</bpm>
<rpm>0.00</rpm>
</extensions>
</trkpt>
<trkpt lat="32.587619781" lon="35.007694244">
  <ele>88.725616</ele>
  <time>2012-06-23T05:52:15Z</time>
<extensions>
<speed>0.4</speed>
<temp>0.00</temp>
<bpm>0</bpm>
<rpm>0.00</rpm>
</extensions>
</trkpt>
<trkpt lat="32.587623596" lon="35.007724762">
  <ele>90.106476</ele>
  <time>2012-06-23T05:52:18Z</time>
<extensions>
<speed>0.7</speed>
<temp>0.00</temp>
<bpm>0</bpm>
<rpm>0.00</rpm>
</extensions>
</trkpt>
<trkpt lat="32.587638855" lon="35.007751465">
  <ele>90.762726</ele>
  <time>2012-06-23T05:52:20Z</time>
<extensions>
<speed>1.1</speed>
<temp>0.00</temp>
<bpm>0</bpm>
<rpm>0.00</rpm>
</extensions>
</trkpt>
<trkpt lat="32.587654114" lon="35.007785797">
  <ele>91.241241</ele>
  <time>2012-06-23T05:52:22Z</time>
<extensions>
<speed>0.8</speed>
<temp>0.00</temp>
<bpm>0</bpm>
<rpm>0.00</rpm>
</extensions>
</trkpt>
<trkpt lat="32.587654114" lon="35.007820129">
  <ele>91.745148</ele>
  <time>2012-06-23T05:52:26Z</time>
<extensions>
<speed>0.4</speed>
<temp>0.00</temp>
<bpm>0</bpm>
<rpm>0.00</rpm>
</extensions>
</trkpt>
<trkpt lat="32.587657928" lon="35.007858276">
  <ele>91.864288</ele>
  <time>2012-06-23T05:52:28Z</time>
<extensions>
<speed>1.1</speed>
<temp>0.00</temp>
<bpm>0</bpm>
<rpm>0.00</rpm>
</extensions>
</trkpt>
<trkpt lat="32.587673187" lon="35.007900238">
  <ele>91.817413</ele>
  <time>2012-06-23T05:52:30Z</time>
<extensions>
<speed>1.8</speed>
<temp>0.00</temp>
<bpm>0</bpm>
<rpm>0.00</rpm>
</extensions>
</trkpt>
<trkpt lat="32.587688446" lon="35.007949829">
  <ele>91.864288</ele>
  <time>2012-06-23T05:52:32Z</time>
<extensions>
<speed>2.1</speed>
<temp>0.00</temp>
<bpm>0</bpm>
<rpm>0.00</rpm>
</extensions>
</trkpt>
<trkpt lat="32.587696075" lon="35.007995605">
  <ele>91.653351</ele>
  <time>2012-06-23T05:52:34Z</time>
<extensions>
<speed>2.1</speed>
<temp>0.00</temp>
<bpm>0</bpm>
<rpm>0.00</rpm>
</extensions>
</trkpt>
<trkpt lat="32.587707520" lon="35.008037567">
  <ele>90.930695</ele>
  <time>2012-06-23T05:52:36Z</time>
<extensions>
<speed>1.8</speed>
<temp>0.00</temp>
<bpm>0</bpm>
<rpm>0.00</rpm>
</extensions>
</trkpt>
<trkpt lat="32.587730408" lon="35.008087158">
  <ele>91.565460</ele>
  <time>2012-06-23T05:52:38Z</time>
<extensions>
<speed>2.5</speed>
<temp>0.00</temp>
<bpm>0</bpm>
<rpm>0.00</rpm>
</extensions>
</trkpt>
<trkpt lat="32.587741852" lon="35.008136749">
  <ele>91.292023</ele>
  <time>2012-06-23T05:52:40Z</time>
<extensions>
<speed>2.3</speed>
<temp>0.00</temp>
<bpm>0</bpm>
<rpm>0.00</rpm>
</extensions>
</trkpt>
<trkpt lat="32.587760925" lon="35.008178711">
  <ele>91.489288</ele>
  <time>2012-06-23T05:52:42Z</time>
<extensions>
<speed>1.9</speed>
<temp>0.00</temp>
<bpm>0</bpm>
<rpm>0.00</rpm>
</extensions>
</trkpt>
<trkpt lat="32.587772369" lon="35.008216858">
  <ele>91.305695</ele>
  <time>2012-06-23T05:52:44Z</time>
<extensions>
<speed>1.4</speed>
<temp>0.00</temp>
<bpm>0</bpm>
<rpm>0.00</rpm>
</extensions>
</trkpt>
<trkpt lat="32.587814331" lon="35.008247375">
  <ele>93.012726</ele>
  <time>2012-06-23T05:52:46Z</time>
<extensions>
<speed>1.9</speed>
<temp>0.00</temp>
<bpm>0</bpm>
<rpm>0.00</rpm>
</extensions>
</trkpt>
<trkpt lat="32.587837219" lon="35.008270264">
  <ele>93.473663</ele>
  <time>2012-06-23T05:52:48Z</time>
<extensions>
<speed>2.0</speed>
<temp>0.00</temp>
<bpm>0</bpm>
<rpm>0.00</rpm>
</extensions>
</trkpt>
<trkpt lat="32.587871552" lon="35.008296967">
  <ele>93.020538</ele>
  <time>2012-06-23T05:52:50Z</time>
<extensions>
<speed>2.0</speed>
<temp>0.00</temp>
<bpm>0</bpm>
<rpm>0.00</rpm>
</extensions>
</trkpt>
<trkpt lat="32.587894440" lon="35.008331299">
  <ele>93.053741</ele>
  <time>2012-06-23T05:52:52Z</time>
<extensions>
<speed>2.1</speed>
<temp>0.00</temp>
<bpm>0</bpm>
<rpm>0.00</rpm>
</extensions>
</trkpt>
<trkpt lat="32.587921143" lon="35.008365631">
  <ele>92.725616</ele>
  <time>2012-06-23T05:52:54Z</time>
<extensions>
<speed>2.1</speed>
<temp>0.00</temp>
<bpm>0</bpm>
<rpm>0.00</rpm>
</extensions>
</trkpt>
<trkpt lat="32.587951660" lon="35.008399963">
  <ele>92.831085</ele>
  <time>2012-06-23T05:52:56Z</time>
<extensions>
<speed>2.3</speed>
<temp>0.00</temp>
<bpm>0</bpm>
<rpm>0.00</rpm>
</extensions>
</trkpt>
<trkpt lat="32.587985992" lon="35.008434296">
  <ele>93.422882</ele>
  <time>2012-06-23T05:52:58Z</time>
<extensions>
<speed>2.4</speed>
<temp>0.00</temp>
<bpm>0</bpm>
<rpm>0.00</rpm>
</extensions>
</trkpt>
<trkpt lat="32.588020325" lon="35.008476257">
  <ele>93.907257</ele>
  <time>2012-06-23T05:53:00Z</time>
<extensions>
<speed>2.2</speed>
<temp>0.00</temp>
<bpm>0</bpm>
<rpm>0.00</rpm>
</extensions>
</trkpt>
<trkpt lat="32.588043213" lon="35.008510590">
  <ele>93.614288</ele>
  <time>2012-06-23T05:53:02Z</time>
<extensions>
<speed>2.2</speed>
<temp>0.00</temp>
<bpm>0</bpm>
<rpm>0.00</rpm>
</extensions>
</trkpt>
<trkpt lat="32.588066101" lon="35.008552551">
  <ele>93.696320</ele>
  <time>2012-06-23T05:53:04Z</time>
<extensions>
<speed>2.3</speed>
<temp>0.00</temp>
<bpm>0</bpm>
<rpm>0.00</rpm>
</extensions>
</trkpt>
<trkpt lat="32.588088989" lon="35.008567810">
  <ele>94.276398</ele>
  <time>2012-06-23T05:53:05Z</time>
<extensions>
<speed>2.4</speed>
<temp>0.00</temp>
<bpm>0</bpm>
<rpm>0.00</rpm>
</extensions>
</trkpt>
<trkpt lat="32.588115692" lon="35.008605957">
  <ele>94.264679</ele>
  <time>2012-06-23T05:53:07Z</time>
<extensions>
<speed>2.4</speed>
<temp>0.00</temp>
<bpm>0</bpm>
<rpm>0.00</rpm>
</extensions>
</trkpt>
<trkpt lat="32.588138580" lon="35.008655548">
  <ele>94.426788</ele>
  <time>2012-06-23T05:53:09Z</time>
<extensions>
<speed>2.2</speed>
<temp>0.00</temp>
<bpm>0</bpm>
<rpm>0.00</rpm>
</extensions>
</trkpt>
<trkpt lat="32.588150024" lon="35.008697510">
  <ele>94.231476</ele>
  <time>2012-06-23T05:53:11Z</time>
<extensions>
<speed>2.1</speed>
<temp>0.00</temp>
<bpm>0</bpm>
<rpm>0.00</rpm>
</extensions>
</trkpt>
<trkpt lat="32.588180542" lon="35.008720398">
  <ele>93.876007</ele>
  <time>2012-06-23T05:53:13Z</time>
<extensions>
<speed>1.8</speed>
<temp>0.00</temp>
<bpm>0</bpm>
<rpm>0.00</rpm>
</extensions>
</trkpt>
<trkpt lat="32.588207245" lon="35.008747101">
  <ele>95.209991</ele>
  <time>2012-06-23T05:53:14Z</time>
<extensions>
<speed>2.4</speed>
<temp>0.00</temp>
<bpm>0</bpm>
<rpm>0.00</rpm>
</extensions>
</trkpt>
<trkpt lat="32.588226318" lon="35.008766174">
  <ele>95.819366</ele>
  <time>2012-06-23T05:53:15Z</time>
<extensions>
<speed>2.9</speed>
<temp>0.00</temp>
<bpm>0</bpm>
<rpm>0.00</rpm>
</extensions>
</trkpt>
<trkpt lat="32.588241577" lon="35.008796692">
  <ele>96.180695</ele>
  <time>2012-06-23T05:53:16Z</time>
<extensions>
<speed>3.0</speed>
<temp>0.00</temp>
<bpm>0</bpm>
<rpm>0.00</rpm>
</extensions>
</trkpt>
<trkpt lat="32.588253021" lon="35.008831024">
  <ele>96.075226</ele>
  <time>2012-06-23T05:53:17Z</time>
<extensions>
<speed>2.8</speed>
<temp>0.00</temp>
<bpm>0</bpm>
<rpm>0.00</rpm>
</extensions>
</trkpt>
<trkpt lat="32.588272095" lon="35.008880615">
  <ele>96.276398</ele>
  <time>2012-06-23T05:53:19Z</time>
<extensions>
<speed>2.5</speed>
<temp>0.00</temp>
<bpm>0</bpm>
<rpm>0.00</rpm>
</extensions>
</trkpt>
<trkpt lat="32.588298798" lon="35.008922577">
  <ele>95.680695</ele>
  <time>2012-06-23T05:53:21Z</time>
<extensions>
<speed>2.0</speed>
<temp>0.00</temp>
<bpm>0</bpm>
<rpm>0.00</rpm>
</extensions>
</trkpt>
<trkpt lat="32.588314056" lon="35.008964539">
  <ele>96.711945</ele>
  <time>2012-06-23T05:53:23Z</time>
<extensions>
<speed>2.5</speed>
<temp>0.00</temp>
<bpm>0</bpm>
<rpm>0.00</rpm>
</extensions>
</trkpt>
<trkpt lat="32.588329315" lon="35.009014130">
  <ele>96.618195</ele>
  <time>2012-06-23T05:53:25Z</time>
<extensions>
<speed>2.3</speed>
<temp>0.00</temp>
<bpm>0</bpm>
<rpm>0.00</rpm>
</extensions>
</trkpt>
<trkpt lat="32.588348389" lon="35.009056091">
  <ele>96.997101</ele>
  <time>2012-06-23T05:53:27Z</time>
<extensions>
<speed>2.4</speed>
<temp>0.00</temp>
<bpm>0</bpm>
<rpm>0.00</rpm>
</extensions>
</trkpt>
<trkpt lat="32.588367462" lon="35.009082794">
  <ele>97.176788</ele>
  <time>2012-06-23T05:53:28Z</time>
<extensions>
<speed>2.7</speed>
<temp>0.00</temp>
<bpm>0</bpm>
<rpm>0.00</rpm>
</extensions>
</trkpt>
<trkpt lat="32.588378906" lon="35.009136200">
  <ele>96.821320</ele>
  <time>2012-06-23T05:53:30Z</time>
<extensions>
<speed>3.2</speed>
<temp>0.00</temp>
<bpm>0</bpm>
<rpm>0.00</rpm>
</extensions>
</trkpt>
<trkpt lat="32.588382721" lon="35.009170532">
  <ele>96.127960</ele>
  <time>2012-06-23T05:53:31Z</time>
<extensions>
<speed>2.9</speed>
<temp>0.00</temp>
<bpm>0</bpm>
<rpm>0.00</rpm>
</extensions>
</trkpt>
<trkpt lat="32.588386536" lon="35.009231567">
  <ele>95.799835</ele>
  <time>2012-06-23T05:53:33Z</time>
<extensions>
<speed>2.7</speed>
<temp>0.00</temp>
<bpm>0</bpm>
<rpm>0.00</rpm>
</extensions>
</trkpt>
<trkpt lat="32.588394165" lon="35.009262085">
  <ele>95.502960</ele>
  <time>2012-06-23T05:53:34Z</time>
<extensions>
<speed>2.4</speed>
<temp>0.00</temp>
<bpm>0</bpm>
<rpm>0.00</rpm>
</extensions>
</trkpt>
<trkpt lat="32.588397980" lon="35.009315491">
  <ele>95.575226</ele>
  <time>2012-06-23T05:53:36Z</time>
<extensions>
<speed>2.5</speed>
<temp>0.00</temp>
<bpm>0</bpm>
<rpm>0.00</rpm>
</extensions>
</trkpt>
<trkpt lat="32.588401794" lon="35.009368896">
  <ele>94.081085</ele>
  <time>2012-06-23T05:53:38Z</time>
<extensions>
<speed>2.3</speed>
<temp>0.00</temp>
<bpm>0</bpm>
<rpm>0.00</rpm>
</extensions>
</trkpt>
<trkpt lat="32.588413239" lon="35.009422302">
  <ele>93.780304</ele>
  <time>2012-06-23T05:53:40Z</time>
<extensions>
<speed>2.2</speed>
<temp>0.00</temp>
<bpm>0</bpm>
<rpm>0.00</rpm>
</extensions>
</trkpt>
<trkpt lat="32.588409424" lon="35.009479523">
  <ele>92.959991</ele>
  <time>2012-06-23T05:53:42Z</time>
<extensions>
<speed>2.1</speed>
<temp>0.00</temp>
<bpm>0</bpm>
<rpm>0.00</rpm>
</extensions>
</trkpt>
<trkpt lat="32.588420868" lon="35.009532928">
  <ele>92.061554</ele>
  <time>2012-06-23T05:53:44Z</time>
<extensions>
<speed>1.8</speed>
<temp>0.00</temp>
<bpm>0</bpm>
<rpm>0.00</rpm>
</extensions>
</trkpt>
<trkpt lat="32.588417053" lon="35.009582520">
  <ele>91.417023</ele>
  <time>2012-06-23T05:53:46Z</time>
<extensions>
<speed>2.0</speed>
<temp>0.00</temp>
<bpm>0</bpm>
<rpm>0.00</rpm>
</extensions>
</trkpt>
<trkpt lat="32.588417053" lon="35.009632111">
  <ele>92.243195</ele>
  <time>2012-06-23T05:53:48Z</time>
<extensions>
<speed>2.1</speed>
<temp>0.00</temp>
<bpm>0</bpm>
<rpm>0.00</rpm>
</extensions>
</trkpt>
<trkpt lat="32.588417053" lon="35.009681702">
  <ele>91.954132</ele>
  <time>2012-06-23T05:53:50Z</time>
<extensions>
<speed>2.3</speed>
<temp>0.00</temp>
<bpm>0</bpm>
<rpm>0.00</rpm>
</extensions>
</trkpt>
<trkpt lat="32.588405609" lon="35.009731293">
  <ele>91.803741</ele>
  <time>2012-06-23T05:53:52Z</time>
<extensions>
<speed>2.0</speed>
<temp>0.00</temp>
<bpm>0</bpm>
<rpm>0.00</rpm>
</extensions>
</trkpt>
<trkpt lat="32.588401794" lon="35.009773254">
  <ele>91.315460</ele>
  <time>2012-06-23T05:53:54Z</time>
<extensions>
<speed>2.0</speed>
<temp>0.00</temp>
<bpm>0</bpm>
<rpm>0.00</rpm>
</extensions>
</trkpt>
<trkpt lat="32.588394165" lon="35.009819031">
  <ele>92.520538</ele>
  <time>2012-06-23T05:53:56Z</time>
<extensions>
<speed>2.4</speed>
<temp>0.00</temp>
<bpm>0</bpm>
<rpm>0.00</rpm>
</extensions>
</trkpt>
<trkpt lat="32.588397980" lon="35.009860992">
  <ele>92.334991</ele>
  <time>2012-06-23T05:53:58Z</time>
<extensions>
<speed>2.0</speed>
<temp>0.00</temp>
<bpm>0</bpm>
<rpm>0.00</rpm>
</extensions>
</trkpt>
<trkpt lat="32.588394165" lon="35.009899139">
  <ele>92.477570</ele>
  <time>2012-06-23T05:54:00Z</time>
<extensions>
<speed>1.7</speed>
<temp>0.00</temp>
<bpm>0</bpm>
<rpm>0.00</rpm>
</extensions>
</trkpt>
<trkpt lat="32.588401794" lon="35.009948730">
  <ele>92.465851</ele>
  <time>2012-06-23T05:54:03Z</time>
<extensions>
<speed>1.1</speed>
<temp>0.00</temp>
<bpm>0</bpm>
<rpm>0.00</rpm>
</extensions>
</trkpt>
<trkpt lat="32.588432312" lon="35.009979248">
  <ele>92.764679</ele>
  <time>2012-06-23T05:54:05Z</time>
<extensions>
<speed>1.4</speed>
<temp>0.00</temp>
<bpm>0</bpm>
<rpm>0.00</rpm>
</extensions>
</trkpt>
<trkpt lat="32.588424683" lon="35.010009766">
  <ele>92.889679</ele>
  <time>2012-06-23T05:54:06Z</time>
<extensions>
<speed>1.5</speed>
<temp>0.00</temp>
<bpm>0</bpm>
<rpm>0.00</rpm>
</extensions>
</trkpt>
<trkpt lat="32.588432312" lon="35.010066986">
  <ele>93.444366</ele>
  <time>2012-06-23T05:54:08Z</time>
<extensions>
<speed>1.9</speed>
<temp>0.00</temp>
<bpm>0</bpm>
<rpm>0.00</rpm>
</extensions>
</trkpt>
<trkpt lat="32.588436127" lon="35.010112762">
  <ele>93.690460</ele>
  <time>2012-06-23T05:54:10Z</time>
<extensions>
<speed>1.9</speed>
<temp>0.00</temp>
<bpm>0</bpm>
<rpm>0.00</rpm>
</extensions>
</trkpt>
<trkpt lat="32.588443756" lon="35.010158539">
  <ele>92.499054</ele>
  <time>2012-06-23T05:54:12Z</time>
<extensions>
<speed>1.8</speed>
<temp>0.00</temp>
<bpm>0</bpm>
<rpm>0.00</rpm>
</extensions>
</trkpt>
<trkpt lat="32.588432312" lon="35.010204315">
  <ele>92.700226</ele>
  <time>2012-06-23T05:54:14Z</time>
<extensions>
<speed>1.7</speed>
<temp>0.00</temp>
<bpm>0</bpm>
<rpm>0.00</rpm>
</extensions>
</trkpt>
<trkpt lat="32.588443756" lon="35.010246277">
  <ele>92.532257</ele>
  <time>2012-06-23T05:54:16Z</time>
<extensions>
<speed>1.7</speed>
<temp>0.00</temp>
<bpm>0</bpm>
<rpm>0.00</rpm>
</extensions>
</trkpt>
<trkpt lat="32.588455200" lon="35.010292053">
  <ele>93.303741</ele>
  <time>2012-06-23T05:54:18Z</time>
<extensions>
<speed>1.6</speed>
<temp>0.00</temp>
<bpm>0</bpm>
<rpm>0.00</rpm>
</extensions>
</trkpt>
<trkpt lat="32.588474274" lon="35.010330200">
  <ele>94.055695</ele>
  <time>2012-06-23T05:54:20Z</time>
<extensions>
<speed>1.8</speed>
<temp>0.00</temp>
<bpm>0</bpm>
<rpm>0.00</rpm>
</extensions>
</trkpt>
<trkpt lat="32.588466644" lon="35.010375977">
  <ele>93.463898</ele>
  <time>2012-06-23T05:54:22Z</time>
<extensions>
<speed>2.1</speed>
<temp>0.00</temp>
<bpm>0</bpm>
<rpm>0.00</rpm>
</extensions>
</trkpt>
<trkpt lat="32.588474274" lon="35.010429382">
  <ele>92.633820</ele>
  <time>2012-06-23T05:54:24Z</time>
<extensions>
<speed>1.9</speed>
<temp>0.00</temp>
<bpm>0</bpm>
<rpm>0.00</rpm>
</extensions>
</trkpt>
<trkpt lat="32.588470459" lon="35.010482788">
  <ele>91.793976</ele>
  <time>2012-06-23T05:54:26Z</time>
<extensions>
<speed>2.1</speed>
<temp>0.00</temp>
<bpm>0</bpm>
<rpm>0.00</rpm>
</extensions>
</trkpt>
<trkpt lat="32.588478088" lon="35.010524750">
  <ele>91.336945</ele>
  <time>2012-06-23T05:54:28Z</time>
<extensions>
<speed>1.9</speed>
<temp>0.00</temp>
<bpm>0</bpm>
<rpm>0.00</rpm>
</extensions>
</trkpt>
<trkpt lat="32.588493347" lon="35.010551453">
  <ele>91.401398</ele>
  <time>2012-06-23T05:54:29Z</time>
<extensions>
<speed>2.2</speed>
<temp>0.00</temp>
<bpm>0</bpm>
<rpm>0.00</rpm>
</extensions>
</trkpt>
<trkpt lat="32.588500977" lon="35.010608673">
  <ele>91.713898</ele>
  <time>2012-06-23T05:54:31Z</time>
<extensions>
<speed>2.2</speed>
<temp>0.00</temp>
<bpm>0</bpm>
<rpm>0.00</rpm>
</extensions>
</trkpt>
<trkpt lat="32.588500977" lon="35.010639191">
  <ele>92.508820</ele>
  <time>2012-06-23T05:54:32Z</time>
<extensions>
<speed>2.3</speed>
<temp>0.00</temp>
<bpm>0</bpm>
<rpm>0.00</rpm>
</extensions>
</trkpt>
<trkpt lat="32.588523865" lon="35.010677338">
  <ele>94.172882</ele>
  <time>2012-06-23T05:54:33Z</time>
<extensions>
<speed>2.3</speed>
<temp>0.00</temp>
<bpm>0</bpm>
<rpm>0.00</rpm>
</extensions>
</trkpt>
<trkpt lat="32.588531494" lon="35.010726929">
  <ele>94.508820</ele>
  <time>2012-06-23T05:54:35Z</time>
<extensions>
<speed>2.2</speed>
<temp>0.00</temp>
<bpm>0</bpm>
<rpm>0.00</rpm>
</extensions>
</trkpt>
<trkpt lat="32.588558197" lon="35.010768890">
  <ele>94.663116</ele>
  <time>2012-06-23T05:54:37Z</time>
<extensions>
<speed>2.0</speed>
<temp>0.00</temp>
<bpm>0</bpm>
<rpm>0.00</rpm>
</extensions>
</trkpt>
<trkpt lat="32.588573456" lon="35.010822296">
  <ele>94.467804</ele>
  <time>2012-06-23T05:54:39Z</time>
<extensions>
<speed>2.2</speed>
<temp>0.00</temp>
<bpm>0</bpm>
<rpm>0.00</rpm>
</extensions>
</trkpt>
<trkpt lat="32.588596344" lon="35.010841370">
  <ele>94.446320</ele>
  <time>2012-06-23T05:54:40Z</time>
<extensions>
<speed>2.2</speed>
<temp>0.00</temp>
<bpm>0</bpm>
<rpm>0.00</rpm>
</extensions>
</trkpt>
<trkpt lat="32.588626862" lon="35.010887146">
  <ele>94.270538</ele>
  <time>2012-06-23T05:54:42Z</time>
<extensions>
<speed>2.1</speed>
<temp>0.00</temp>
<bpm>0</bpm>
<rpm>0.00</rpm>
</extensions>
</trkpt>
<trkpt lat="32.588642120" lon="35.010932922">
  <ele>94.045929</ele>
  <time>2012-06-23T05:54:44Z</time>
<extensions>
<speed>2.6</speed>
<temp>0.00</temp>
<bpm>0</bpm>
<rpm>0.00</rpm>
</extensions>
</trkpt>
<trkpt lat="32.588649750" lon="35.010986328">
  <ele>94.387726</ele>
  <time>2012-06-23T05:54:46Z</time>
<extensions>
<speed>2.3</speed>
<temp>0.00</temp>
<bpm>0</bpm>
<rpm>0.00</rpm>
</extensions>
</trkpt>
<trkpt lat="32.588665009" lon="35.011054993">
  <ele>95.282257</ele>
  <time>2012-06-23T05:54:48Z</time>
<extensions>
<speed>2.8</speed>
<temp>0.00</temp>
<bpm>0</bpm>
<rpm>0.00</rpm>
</extensions>
</trkpt>
<trkpt lat="32.588668823" lon="35.011112213">
  <ele>96.126007</ele>
  <time>2012-06-23T05:54:50Z</time>
<extensions>
<speed>2.6</speed>
<temp>0.00</temp>
<bpm>0</bpm>
<rpm>0.00</rpm>
</extensions>
</trkpt>
<trkpt lat="32.588687897" lon="35.011142731">
  <ele>97.020538</ele>
  <time>2012-06-23T05:54:51Z</time>
<extensions>
<speed>2.9</speed>
<temp>0.00</temp>
<bpm>0</bpm>
<rpm>0.00</rpm>
</extensions>
</trkpt>
<trkpt lat="32.588699341" lon="35.011203766">
  <ele>99.167023</ele>
  <time>2012-06-23T05:54:53Z</time>
<extensions>
<speed>2.9</speed>
<temp>0.00</temp>
<bpm>0</bpm>
<rpm>0.00</rpm>
</extensions>
</trkpt>
<trkpt lat="32.588714600" lon="35.011257172">
  <ele>99.989288</ele>
  <time>2012-06-23T05:54:55Z</time>
<extensions>
<speed>2.6</speed>
<temp>0.00</temp>
<bpm>0</bpm>
<rpm>0.00</rpm>
</extensions>
</trkpt>
<trkpt lat="32.588718414" lon="35.011291504">
  <ele>100.514679</ele>
  <time>2012-06-23T05:54:56Z</time>
<extensions>
<speed>2.9</speed>
<temp>0.00</temp>
<bpm>0</bpm>
<rpm>0.00</rpm>
</extensions>
</trkpt>
<trkpt lat="32.588733673" lon="35.011322021">
  <ele>101.362335</ele>
  <time>2012-06-23T05:54:57Z</time>
<extensions>
<speed>3.0</speed>
<temp>0.00</temp>
<bpm>0</bpm>
<rpm>0.00</rpm>
</extensions>
</trkpt>
<trkpt lat="32.588748932" lon="35.011356354">
  <ele>101.659210</ele>
  <time>2012-06-23T05:54:58Z</time>
<extensions>
<speed>2.8</speed>
<temp>0.00</temp>
<bpm>0</bpm>
<rpm>0.00</rpm>
</extensions>
</trkpt>
<trkpt lat="32.588745117" lon="35.011386871">
  <ele>102.014679</ele>
  <time>2012-06-23T05:54:59Z</time>
<extensions>
<speed>3.0</speed>
<temp>0.00</temp>
<bpm>0</bpm>
<rpm>0.00</rpm>
</extensions>
</trkpt>
<trkpt lat="32.588756561" lon="35.011421204">
  <ele>102.596710</ele>
  <time>2012-06-23T05:55:00Z</time>
<extensions>
<speed>2.6</speed>
<temp>0.00</temp>
<bpm>0</bpm>
<rpm>0.00</rpm>
</extensions>
</trkpt>
<trkpt lat="32.588760376" lon="35.011478424">
  <ele>103.838898</ele>
  <time>2012-06-23T05:55:02Z</time>
<extensions>
<speed>2.5</speed>
<temp>0.00</temp>
<bpm>0</bpm>
<rpm>0.00</rpm>
</extensions>
</trkpt>
<trkpt lat="32.588752747" lon="35.011528015">
  <ele>105.454132</ele>
  <time>2012-06-23T05:55:04Z</time>
<extensions>
<speed>2.0</speed>
<temp>0.00</temp>
<bpm>0</bpm>
<rpm>0.00</rpm>
</extensions>
</trkpt>
<trkpt lat="32.588752747" lon="35.011566162">
  <ele>104.983429</ele>
  <time>2012-06-23T05:55:06Z</time>
<extensions>
<speed>1.5</speed>
<temp>0.00</temp>
<bpm>0</bpm>
<rpm>0.00</rpm>
</extensions>
</trkpt>
<trkpt lat="32.588760376" lon="35.011596680">
  <ele>105.889679</ele>
  <time>2012-06-23T05:55:08Z</time>
<extensions>
<speed>1.6</speed>
<temp>0.00</temp>
<bpm>0</bpm>
<rpm>0.00</rpm>
</extensions>
</trkpt>
<trkpt lat="32.588752747" lon="35.011634827">
  <ele>105.631866</ele>
  <time>2012-06-23T05:55:10Z</time>
<extensions>
<speed>1.7</speed>
<temp>0.00</temp>
<bpm>0</bpm>
<rpm>0.00</rpm>
</extensions>
</trkpt>
<trkpt lat="32.588748932" lon="35.011680603">
  <ele>105.754913</ele>
  <time>2012-06-23T05:55:12Z</time>
<extensions>
<speed>1.7</speed>
<temp>0.00</temp>
<bpm>0</bpm>
<rpm>0.00</rpm>
</extensions>
</trkpt>
<trkpt lat="32.588748932" lon="35.011718750">
  <ele>107.118195</ele>
  <time>2012-06-23T05:55:14Z</time>
<extensions>
<speed>1.8</speed>
<temp>0.00</temp>
<bpm>0</bpm>
<rpm>0.00</rpm>
</extensions>
</trkpt>
<trkpt lat="32.588745117" lon="35.011764526">
  <ele>108.176788</ele>
  <time>2012-06-23T05:55:16Z</time>
<extensions>
<speed>1.6</speed>
<temp>0.00</temp>
<bpm>0</bpm>
<rpm>0.00</rpm>
</extensions>
</trkpt>
<trkpt lat="32.588756561" lon="35.011806488">
  <ele>107.374054</ele>
  <time>2012-06-23T05:55:19Z</time>
<extensions>
<speed>1.5</speed>
<temp>0.00</temp>
<bpm>0</bpm>
<rpm>0.00</rpm>
</extensions>
</trkpt>
<trkpt lat="32.588756561" lon="35.011840820">
  <ele>107.637726</ele>
  <time>2012-06-23T05:55:21Z</time>
<extensions>
<speed>0.9</speed>
<temp>0.00</temp>
<bpm>0</bpm>
<rpm>0.00</rpm>
</extensions>
</trkpt>
<trkpt lat="32.588768005" lon="35.011871338">
  <ele>107.168976</ele>
  <time>2012-06-23T05:56:10Z</time>
<extensions>
<speed>1.3</speed>
<temp>0.00</temp>
<bpm>0</bpm>
<rpm>0.00</rpm>
</extensions>
</trkpt>
<trkpt lat="32.588775635" lon="35.011913300">
  <ele>107.182648</ele>
  <time>2012-06-23T05:56:12Z</time>
<extensions>
<speed>2.4</speed>
<temp>0.00</temp>
<bpm>0</bpm>
<rpm>0.00</rpm>
</extensions>
</trkpt>
<trkpt lat="32.588790894" lon="35.011962891">
  <ele>106.588898</ele>
  <time>2012-06-23T05:56:14Z</time>
<extensions>
<speed>2.6</speed>
<temp>0.00</temp>
<bpm>0</bpm>
<rpm>0.00</rpm>
</extensions>
</trkpt>
<trkpt lat="32.588794708" lon="35.012012482">
  <ele>106.334991</ele>
  <time>2012-06-23T05:56:16Z</time>
<extensions>
<speed>1.9</speed>
<temp>0.00</temp>
<bpm>0</bpm>
<rpm>0.00</rpm>
</extensions>
</trkpt>
<trkpt lat="32.588783264" lon="35.012050629">
  <ele>106.036163</ele>
  <time>2012-06-23T05:56:18Z</time>
<extensions>
<speed>1.7</speed>
<temp>0.00</temp>
<bpm>0</bpm>
<rpm>0.00</rpm>
</extensions>
</trkpt>
<trkpt lat="32.588771820" lon="35.012081146">
  <ele>105.741241</ele>
  <time>2012-06-23T05:56:20Z</time>
<extensions>
<speed>1.6</speed>
<temp>0.00</temp>
<bpm>0</bpm>
<rpm>0.00</rpm>
</extensions>
</trkpt>
<trkpt lat="32.588752747" lon="35.012104034">
  <ele>105.475616</ele>
  <time>2012-06-23T05:56:22Z</time>
<extensions>
<speed>1.6</speed>
<temp>0.00</temp>
<bpm>0</bpm>
<rpm>0.00</rpm>
</extensions>
</trkpt>
<trkpt lat="32.588729858" lon="35.012130737">
  <ele>105.473663</ele>
  <time>2012-06-23T05:56:24Z</time>
<extensions>
<speed>1.9</speed>
<temp>0.00</temp>
<bpm>0</bpm>
<rpm>0.00</rpm>
</extensions>
</trkpt>
<trkpt lat="32.588699341" lon="35.012161255">
  <ele>105.674835</ele>
  <time>2012-06-23T05:56:26Z</time>
<extensions>
<speed>1.8</speed>
<temp>0.00</temp>
<bpm>0</bpm>
<rpm>0.00</rpm>
</extensions>
</trkpt>
<trkpt lat="32.588687897" lon="35.012191772">
  <ele>105.532257</ele>
  <time>2012-06-23T05:56:28Z</time>
<extensions>
<speed>1.8</speed>
<temp>0.00</temp>
<bpm>0</bpm>
<rpm>0.00</rpm>
</extensions>
</trkpt>
<trkpt lat="32.588661194" lon="35.012222290">
  <ele>106.161163</ele>
  <time>2012-06-23T05:56:30Z</time>
<extensions>
<speed>1.9</speed>
<temp>0.00</temp>
<bpm>0</bpm>
<rpm>0.00</rpm>
</extensions>
</trkpt>
<trkpt lat="32.588642120" lon="35.012252808">
  <ele>106.495148</ele>
  <time>2012-06-23T05:56:32Z</time>
<extensions>
<speed>1.8</speed>
<temp>0.00</temp>
<bpm>0</bpm>
<rpm>0.00</rpm>
</extensions>
</trkpt>
<trkpt lat="32.588642120" lon="35.012283325">
  <ele>107.606476</ele>
  <time>2012-06-23T05:56:34Z</time>
<extensions>
<speed>1.2</speed>
<temp>0.00</temp>
<bpm>0</bpm>
<rpm>0.00</rpm>
</extensions>
</trkpt>
<trkpt lat="32.588649750" lon="35.012321472">
  <ele>109.116241</ele>
  <time>2012-06-23T05:56:36Z</time>
<extensions>
<speed>1.3</speed>
<temp>0.00</temp>
<bpm>0</bpm>
<rpm>0.00</rpm>
</extensions>
</trkpt>
<trkpt lat="32.588630676" lon="35.012344360">
  <ele>108.876007</ele>
  <time>2012-06-23T05:56:38Z</time>
<extensions>
<speed>1.5</speed>
<temp>0.00</temp>
<bpm>0</bpm>
<rpm>0.00</rpm>
</extensions>
</trkpt>
<trkpt lat="32.588611603" lon="35.012374878">
  <ele>108.534210</ele>
  <time>2012-06-23T05:56:40Z</time>
<extensions>
<speed>1.5</speed>
<temp>0.00</temp>
<bpm>0</bpm>
<rpm>0.00</rpm>
</extensions>
</trkpt>
<trkpt lat="32.588592529" lon="35.012413025">
  <ele>108.510773</ele>
  <time>2012-06-23T05:56:43Z</time>
<extensions>
<speed>1.3</speed>
<temp>0.00</temp>
<bpm>0</bpm>
<rpm>0.00</rpm>
</extensions>
</trkpt>
<trkpt lat="32.588581085" lon="35.012447357">
  <ele>108.692413</ele>
  <time>2012-06-23T05:56:46Z</time>
<extensions>
<speed>1.3</speed>
<temp>0.00</temp>
<bpm>0</bpm>
<rpm>0.00</rpm>
</extensions>
</trkpt>
<trkpt lat="32.588558197" lon="35.012474060">
  <ele>108.168976</ele>
  <time>2012-06-23T05:56:48Z</time>
<extensions>
<speed>1.4</speed>
<temp>0.00</temp>
<bpm>0</bpm>
<rpm>0.00</rpm>
</extensions>
</trkpt>
<trkpt lat="32.588539124" lon="35.012508392">
  <ele>108.674835</ele>
  <time>2012-06-23T05:56:50Z</time>
<extensions>
<speed>1.3</speed>
<temp>0.00</temp>
<bpm>0</bpm>
<rpm>0.00</rpm>
</extensions>
</trkpt>
<trkpt lat="32.588516235" lon="35.012527466">
  <ele>109.008820</ele>
  <time>2012-06-23T05:56:52Z</time>
<extensions>
<speed>1.9</speed>
<temp>0.00</temp>
<bpm>0</bpm>
<rpm>0.00</rpm>
</extensions>
</trkpt>
<trkpt lat="32.588485718" lon="35.012554169">
  <ele>109.528351</ele>
  <time>2012-06-23T05:56:54Z</time>
<extensions>
<speed>1.3</speed>
<temp>0.00</temp>
<bpm>0</bpm>
<rpm>0.00</rpm>
</extensions>
</trkpt>
<trkpt lat="32.588459015" lon="35.012573242">
  <ele>110.885773</ele>
  <time>2012-06-23T05:56:56Z</time>
<extensions>
<speed>1.4</speed>
<temp>0.00</temp>
<bpm>0</bpm>
<rpm>0.00</rpm>
</extensions>
</trkpt>
<trkpt lat="32.588428497" lon="35.012603760">
  <ele>111.715851</ele>
  <time>2012-06-23T05:56:58Z</time>
<extensions>
<speed>1.4</speed>
<temp>0.00</temp>
<bpm>0</bpm>
<rpm>0.00</rpm>
</extensions>
</trkpt>
<trkpt lat="32.588413239" lon="35.012641907">
  <ele>111.586945</ele>
  <time>2012-06-23T05:57:01Z</time>
<extensions>
<speed>1.3</speed>
<temp>0.00</temp>
<bpm>0</bpm>
<rpm>0.00</rpm>
</extensions>
</trkpt>
<trkpt lat="32.588405609" lon="35.012680054">
  <ele>111.909210</ele>
  <time>2012-06-23T05:57:03Z</time>
<extensions>
<speed>1.1</speed>
<temp>0.00</temp>
<bpm>0</bpm>
<rpm>0.00</rpm>
</extensions>
</trkpt>
<trkpt lat="32.588382721" lon="35.012710571">
  <ele>112.614288</ele>
  <time>2012-06-23T05:57:05Z</time>
<extensions>
<speed>1.3</speed>
<temp>0.00</temp>
<bpm>0</bpm>
<rpm>0.00</rpm>
</extensions>
</trkpt>
<trkpt lat="32.588359833" lon="35.012741089">
  <ele>113.608429</ele>
  <time>2012-06-23T05:57:07Z</time>
<extensions>
<speed>1.5</speed>
<temp>0.00</temp>
<bpm>0</bpm>
<rpm>0.00</rpm>
</extensions>
</trkpt>
<trkpt lat="32.588336945" lon="35.012779236">
  <ele>114.084991</ele>
  <time>2012-06-23T05:57:09Z</time>
<extensions>
<speed>1.5</speed>
<temp>0.00</temp>
<bpm>0</bpm>
<rpm>0.00</rpm>
</extensions>
</trkpt>
<trkpt lat="32.588321686" lon="35.012805939">
  <ele>113.338898</ele>
  <time>2012-06-23T05:57:12Z</time>
<extensions>
<speed>0.8</speed>
<temp>0.00</temp>
<bpm>0</bpm>
<rpm>0.00</rpm>
</extensions>
</trkpt>
<trkpt lat="32.588298798" lon="35.012851715">
  <ele>114.120148</ele>
  <time>2012-06-23T05:57:15Z</time>
<extensions>
<speed>1.5</speed>
<temp>0.00</temp>
<bpm>0</bpm>
<rpm>0.00</rpm>
</extensions>
</trkpt>
<trkpt lat="32.588298798" lon="35.012897491">
  <ele>115.120148</ele>
  <time>2012-06-23T05:57:17Z</time>
<extensions>
<speed>1.5</speed>
<temp>0.00</temp>
<bpm>0</bpm>
<rpm>0.00</rpm>
</extensions>
</trkpt>
<trkpt lat="32.588291168" lon="35.012935638">
  <ele>115.073273</ele>
  <time>2012-06-23T05:57:19Z</time>
<extensions>
<speed>1.8</speed>
<temp>0.00</temp>
<bpm>0</bpm>
<rpm>0.00</rpm>
</extensions>
</trkpt>
<trkpt lat="32.588283539" lon="35.012969971">
  <ele>115.147491</ele>
  <time>2012-06-23T05:57:21Z</time>
<extensions>
<speed>1.4</speed>
<temp>0.00</temp>
<bpm>0</bpm>
<rpm>0.00</rpm>
</extensions>
</trkpt>
<trkpt lat="32.588268280" lon="35.012996674">
  <ele>115.698273</ele>
  <time>2012-06-23T05:57:23Z</time>
<extensions>
<speed>1.1</speed>
<temp>0.00</temp>
<bpm>0</bpm>
<rpm>0.00</rpm>
</extensions>
</trkpt>
<trkpt lat="32.588256836" lon="35.013023376">
  <ele>117.557648</ele>
  <time>2012-06-23T05:57:25Z</time>
<extensions>
<speed>1.2</speed>
<temp>0.00</temp>
<bpm>0</bpm>
<rpm>0.00</rpm>
</extensions>
</trkpt>
<trkpt lat="32.588253021" lon="35.013061523">
  <ele>118.172882</ele>
  <time>2012-06-23T05:57:28Z</time>
<extensions>
<speed>1.4</speed>
<temp>0.00</temp>
<bpm>0</bpm>
<rpm>0.00</rpm>
</extensions>
</trkpt>
<trkpt lat="32.588253021" lon="35.013103485">
  <ele>120.592804</ele>
  <time>2012-06-23T05:57:30Z</time>
<extensions>
<speed>1.2</speed>
<temp>0.00</temp>
<bpm>0</bpm>
<rpm>0.00</rpm>
</extensions>
</trkpt>
<trkpt lat="32.588253021" lon="35.013134003">
  <ele>121.608429</ele>
  <time>2012-06-23T05:57:33Z</time>
<extensions>
<speed>1.0</speed>
<temp>0.00</temp>
<bpm>0</bpm>
<rpm>0.00</rpm>
</extensions>
</trkpt>
<trkpt lat="32.588260651" lon="35.013175964">
  <ele>122.321320</ele>
  <time>2012-06-23T05:57:36Z</time>
<extensions>
<speed>1.0</speed>
<temp>0.00</temp>
<bpm>0</bpm>
<rpm>0.00</rpm>
</extensions>
</trkpt>
<trkpt lat="32.588256836" lon="35.013214111">
  <ele>121.721710</ele>
  <time>2012-06-23T05:57:40Z</time>
<extensions>
<speed>0.7</speed>
<temp>0.00</temp>
<bpm>0</bpm>
<rpm>0.00</rpm>
</extensions>
</trkpt>
<trkpt lat="32.588237762" lon="35.013237000">
  <ele>121.239288</ele>
  <time>2012-06-23T05:57:42Z</time>
<extensions>
<speed>0.9</speed>
<temp>0.00</temp>
<bpm>0</bpm>
<rpm>0.00</rpm>
</extensions>
</trkpt>
<trkpt lat="32.588237762" lon="35.013278961">
  <ele>121.225616</ele>
  <time>2012-06-23T05:57:45Z</time>
<extensions>
<speed>1.1</speed>
<temp>0.00</temp>
<bpm>0</bpm>
<rpm>0.00</rpm>
</extensions>
</trkpt>
<trkpt lat="32.588218689" lon="35.013309479">
  <ele>122.100616</ele>
  <time>2012-06-23T05:57:47Z</time>
<extensions>
<speed>1.1</speed>
<temp>0.00</temp>
<bpm>0</bpm>
<rpm>0.00</rpm>
</extensions>
</trkpt>
<trkpt lat="32.588241577" lon="35.013339996">
  <ele>122.803741</ele>
  <time>2012-06-23T05:57:50Z</time>
<extensions>
<speed>1.1</speed>
<temp>0.00</temp>
<bpm>0</bpm>
<rpm>0.00</rpm>
</extensions>
</trkpt>
<trkpt lat="32.588249207" lon="35.013374329">
  <ele>122.954132</ele>
  <time>2012-06-23T05:57:52Z</time>
<extensions>
<speed>1.2</speed>
<temp>0.00</temp>
<bpm>0</bpm>
<rpm>0.00</rpm>
</extensions>
</trkpt>
<trkpt lat="32.588253021" lon="35.013408661">
  <ele>123.014679</ele>
  <time>2012-06-23T05:57:55Z</time>
<extensions>
<speed>1.0</speed>
<temp>0.00</temp>
<bpm>0</bpm>
<rpm>0.00</rpm>
</extensions>
</trkpt>
<trkpt lat="32.588245392" lon="35.013442993">
  <ele>123.344757</ele>
  <time>2012-06-23T05:57:59Z</time>
<extensions>
<speed>0.8</speed>
<temp>0.00</temp>
<bpm>0</bpm>
<rpm>0.00</rpm>
</extensions>
</trkpt>
<trkpt lat="32.588241577" lon="35.013473511">
  <ele>122.612335</ele>
  <time>2012-06-23T05:58:01Z</time>
<extensions>
<speed>1.0</speed>
<temp>0.00</temp>
<bpm>0</bpm>
<rpm>0.00</rpm>
</extensions>
</trkpt>
<trkpt lat="32.588260651" lon="35.013507843">
  <ele>122.522491</ele>
  <time>2012-06-23T05:58:04Z</time>
<extensions>
<speed>1.1</speed>
<temp>0.00</temp>
<bpm>0</bpm>
<rpm>0.00</rpm>
</extensions>
</trkpt>
<trkpt lat="32.588241577" lon="35.013565063">
  <ele>122.633820</ele>
  <time>2012-06-23T05:58:07Z</time>
<extensions>
<speed>1.1</speed>
<temp>0.00</temp>
<bpm>0</bpm>
<rpm>0.00</rpm>
</extensions>
</trkpt>
<trkpt lat="32.588211060" lon="35.013576508">
  <ele>121.762726</ele>
  <time>2012-06-23T05:58:11Z</time>
<extensions>
<speed>0.9</speed>
<temp>0.00</temp>
<bpm>0</bpm>
<rpm>0.00</rpm>
</extensions>
</trkpt>
<trkpt lat="32.588180542" lon="35.013591766">
  <ele>121.836945</ele>
  <time>2012-06-23T05:58:14Z</time>
<extensions>
<speed>1.2</speed>
<temp>0.00</temp>
<bpm>0</bpm>
<rpm>0.00</rpm>
</extensions>
</trkpt>
<trkpt lat="32.588150024" lon="35.013610840">
  <ele>121.149445</ele>
  <time>2012-06-23T05:58:17Z</time>
<extensions>
<speed>0.9</speed>
<temp>0.00</temp>
<bpm>0</bpm>
<rpm>0.00</rpm>
</extensions>
</trkpt>
<trkpt lat="32.588115692" lon="35.013614655">
  <ele>121.698273</ele>
  <time>2012-06-23T05:58:20Z</time>
<extensions>
<speed>0.8</speed>
<temp>0.00</temp>
<bpm>0</bpm>
<rpm>0.00</rpm>
</extensions>
</trkpt>
<trkpt lat="32.588081360" lon="35.013614655">
  <ele>123.454132</ele>
  <time>2012-06-23T05:58:22Z</time>
<extensions>
<speed>1.3</speed>
<temp>0.00</temp>
<bpm>0</bpm>
<rpm>0.00</rpm>
</extensions>
</trkpt>
<trkpt lat="32.588054657" lon="35.013629913">
  <ele>124.030304</ele>
  <time>2012-06-23T05:58:24Z</time>
<extensions>
<speed>1.2</speed>
<temp>0.00</temp>
<bpm>0</bpm>
<rpm>0.00</rpm>
</extensions>
</trkpt>
<trkpt lat="32.588027954" lon="35.013637543">
  <ele>124.709991</ele>
  <time>2012-06-23T05:58:27Z</time>
<extensions>
<speed>1.2</speed>
<temp>0.00</temp>
<bpm>0</bpm>
<rpm>0.00</rpm>
</extensions>
</trkpt>
<trkpt lat="32.587997437" lon="35.013633728">
  <ele>124.991241</ele>
  <time>2012-06-23T05:58:29Z</time>
<extensions>
<speed>1.5</speed>
<temp>0.00</temp>
<bpm>0</bpm>
<rpm>0.00</rpm>
</extensions>
</trkpt>
<trkpt lat="32.587970734" lon="35.013626099">
  <ele>124.692413</ele>
  <time>2012-06-23T05:58:32Z</time>
<extensions>
<speed>0.9</speed>
<temp>0.00</temp>
<bpm>0</bpm>
<rpm>0.00</rpm>
</extensions>
</trkpt>
<trkpt lat="32.587944031" lon="35.013610840">
  <ele>126.729523</ele>
  <time>2012-06-23T05:58:35Z</time>
<extensions>
<speed>0.7</speed>
<temp>0.00</temp>
<bpm>0</bpm>
<rpm>0.00</rpm>
</extensions>
</trkpt>
<trkpt lat="32.587917328" lon="35.013610840">
  <ele>126.465851</ele>
  <time>2012-06-23T05:58:38Z</time>
<extensions>
<speed>1.0</speed>
<temp>0.00</temp>
<bpm>0</bpm>
<rpm>0.00</rpm>
</extensions>
</trkpt>
<trkpt lat="32.587886810" lon="35.013618469">
  <ele>126.081085</ele>
  <time>2012-06-23T05:58:41Z</time>
<extensions>
<speed>1.1</speed>
<temp>0.00</temp>
<bpm>0</bpm>
<rpm>0.00</rpm>
</extensions>
</trkpt>
<trkpt lat="32.587852478" lon="35.013629913">
  <ele>126.348663</ele>
  <time>2012-06-23T05:58:43Z</time>
<extensions>
<speed>1.4</speed>
<temp>0.00</temp>
<bpm>0</bpm>
<rpm>0.00</rpm>
</extensions>
</trkpt>
<trkpt lat="32.587818146" lon="35.013641357">
  <ele>125.881866</ele>
  <time>2012-06-23T05:58:45Z</time>
<extensions>
<speed>1.4</speed>
<temp>0.00</temp>
<bpm>0</bpm>
<rpm>0.00</rpm>
</extensions>
</trkpt>
<trkpt lat="32.587776184" lon="35.013656616">
  <ele>125.731476</ele>
  <time>2012-06-23T05:58:48Z</time>
<extensions>
<speed>1.2</speed>
<temp>0.00</temp>
<bpm>0</bpm>
<rpm>0.00</rpm>
</extensions>
</trkpt>
<trkpt lat="32.587745667" lon="35.013664246">
  <ele>125.174835</ele>
  <time>2012-06-23T05:58:51Z</time>
<extensions>
<speed>0.8</speed>
<temp>0.00</temp>
<bpm>0</bpm>
<rpm>0.00</rpm>
</extensions>
</trkpt>
<trkpt lat="32.587726593" lon="35.013706207">
  <ele>124.983429</ele>
  <time>2012-06-23T05:58:54Z</time>
<extensions>
<speed>1.1</speed>
<temp>0.00</temp>
<bpm>0</bpm>
<rpm>0.00</rpm>
</extensions>
</trkpt>
<trkpt lat="32.587692261" lon="35.013717651">
  <ele>124.958038</ele>
  <time>2012-06-23T05:58:56Z</time>
<extensions>
<speed>0.8</speed>
<temp>0.00</temp>
<bpm>0</bpm>
<rpm>0.00</rpm>
</extensions>
</trkpt>
<trkpt lat="32.587665558" lon="35.013721466">
  <ele>128.252014</ele>
  <time>2012-06-23T05:58:59Z</time>
<extensions>
<speed>1.0</speed>
<temp>0.00</temp>
<bpm>0</bpm>
<rpm>0.00</rpm>
</extensions>
</trkpt>
<trkpt lat="32.587631226" lon="35.013717651">
  <ele>129.611389</ele>
  <time>2012-06-23T05:59:02Z</time>
<extensions>
<speed>1.1</speed>
<temp>0.00</temp>
<bpm>0</bpm>
<rpm>0.00</rpm>
</extensions>
</trkpt>
<trkpt lat="32.587596893" lon="35.013721466">
  <ele>131.431702</ele>
  <time>2012-06-23T05:59:05Z</time>
<extensions>
<speed>1.2</speed>
<temp>0.00</temp>
<bpm>0</bpm>
<rpm>0.00</rpm>
</extensions>
</trkpt>
<trkpt lat="32.587558746" lon="35.013725281">
  <ele>131.982483</ele>
  <time>2012-06-23T05:59:08Z</time>
<extensions>
<speed>1.4</speed>
<temp>0.00</temp>
<bpm>0</bpm>
<rpm>0.00</rpm>
</extensions>
</trkpt>
<trkpt lat="32.587532043" lon="35.013732910">
  <ele>131.806702</ele>
  <time>2012-06-23T05:59:10Z</time>
<extensions>
<speed>1.1</speed>
<temp>0.00</temp>
<bpm>0</bpm>
<rpm>0.00</rpm>
</extensions>
</trkpt>
<trkpt lat="32.587493896" lon="35.013736725">
  <ele>132.017639</ele>
  <time>2012-06-23T05:59:13Z</time>
<extensions>
<speed>1.1</speed>
<temp>0.00</temp>
<bpm>0</bpm>
<rpm>0.00</rpm>
</extensions>
</trkpt>
<trkpt lat="32.587451935" lon="35.013729095">
  <ele>133.103577</ele>
  <time>2012-06-23T05:59:16Z</time>
<extensions>
<speed>1.5</speed>
<temp>0.00</temp>
<bpm>0</bpm>
<rpm>0.00</rpm>
</extensions>
</trkpt>
<trkpt lat="32.587421417" lon="35.013732910">
  <ele>134.990295</ele>
  <time>2012-06-23T05:59:18Z</time>
<extensions>
<speed>1.1</speed>
<temp>0.00</temp>
<bpm>0</bpm>
<rpm>0.00</rpm>
</extensions>
</trkpt>
<trkpt lat="32.587390900" lon="35.013725281">
  <ele>135.955139</ele>
  <time>2012-06-23T05:59:20Z</time>
<extensions>
<speed>1.3</speed>
<temp>0.00</temp>
<bpm>0</bpm>
<rpm>0.00</rpm>
</extensions>
</trkpt>
<trkpt lat="32.587356567" lon="35.013732910">
  <ele>137.431702</ele>
  <time>2012-06-23T05:59:22Z</time>
<extensions>
<speed>1.4</speed>
<temp>0.00</temp>
<bpm>0</bpm>
<rpm>0.00</rpm>
</extensions>
</trkpt>
<trkpt lat="32.587318420" lon="35.013740540">
  <ele>136.931702</ele>
  <time>2012-06-23T05:59:26Z</time>
<extensions>
<speed>1.3</speed>
<temp>0.00</temp>
<bpm>0</bpm>
<rpm>0.00</rpm>
</extensions>
</trkpt>
<trkpt lat="32.587284088" lon="35.013744354">
  <ele>136.716858</ele>
  <time>2012-06-23T05:59:29Z</time>
<extensions>
<speed>1.4</speed>
<temp>0.00</temp>
<bpm>0</bpm>
<rpm>0.00</rpm>
</extensions>
</trkpt>
<trkpt lat="32.587245941" lon="35.013732910">
  <ele>137.130920</ele>
  <time>2012-06-23T05:59:32Z</time>
<extensions>
<speed>1.5</speed>
<temp>0.00</temp>
<bpm>0</bpm>
<rpm>0.00</rpm>
</extensions>
</trkpt>
<trkpt lat="32.587223053" lon="35.013713837">
  <ele>138.002014</ele>
  <time>2012-06-23T05:59:34Z</time>
<extensions>
<speed>1.4</speed>
<temp>0.00</temp>
<bpm>0</bpm>
<rpm>0.00</rpm>
</extensions>
</trkpt>
<trkpt lat="32.587192535" lon="35.013710022">
  <ele>139.353577</ele>
  <time>2012-06-23T05:59:37Z</time>
<extensions>
<speed>1.4</speed>
<temp>0.00</temp>
<bpm>0</bpm>
<rpm>0.00</rpm>
</extensions>
</trkpt>
<trkpt lat="32.587165833" lon="35.013721466">
  <ele>140.209045</ele>
  <time>2012-06-23T05:59:39Z</time>
<extensions>
<speed>1.1</speed>
<temp>0.00</temp>
<bpm>0</bpm>
<rpm>0.00</rpm>
</extensions>
</trkpt>
<trkpt lat="32.587131500" lon="35.013732910">
  <ele>140.423889</ele>
  <time>2012-06-23T05:59:42Z</time>
<extensions>
<speed>1.2</speed>
<temp>0.00</temp>
<bpm>0</bpm>
<rpm>0.00</rpm>
</extensions>
</trkpt>
<trkpt lat="32.587100983" lon="35.013755798">
  <ele>140.728577</ele>
  <time>2012-06-23T05:59:45Z</time>
<extensions>
<speed>1.4</speed>
<temp>0.00</temp>
<bpm>0</bpm>
<rpm>0.00</rpm>
</extensions>
</trkpt>
<trkpt lat="32.587066650" lon="35.013744354">
  <ele>140.666077</ele>
  <time>2012-06-23T05:59:49Z</time>
<extensions>
<speed>0.8</speed>
<temp>0.00</temp>
<bpm>0</bpm>
<rpm>0.00</rpm>
</extensions>
</trkpt>
<trkpt lat="32.587036133" lon="35.013736725">
  <ele>140.947327</ele>
  <time>2012-06-23T05:59:51Z</time>
<extensions>
<speed>0.9</speed>
<temp>0.00</temp>
<bpm>0</bpm>
<rpm>0.00</rpm>
</extensions>
</trkpt>
<trkpt lat="32.587005615" lon="35.013717651">
  <ele>141.236389</ele>
  <time>2012-06-23T05:59:53Z</time>
<extensions>
<speed>0.6</speed>
<temp>0.00</temp>
<bpm>0</bpm>
<rpm>0.00</rpm>
</extensions>
</trkpt>
<trkpt lat="32.586963654" lon="35.013725281">
  <ele>141.642639</ele>
  <time>2012-06-23T05:59:55Z</time>
<extensions>
<speed>1.1</speed>
<temp>0.00</temp>
<bpm>0</bpm>
<rpm>0.00</rpm>
</extensions>
</trkpt>
<trkpt lat="32.586925507" lon="35.013713837">
  <ele>141.994202</ele>
  <time>2012-06-23T05:59:58Z</time>
<extensions>
<speed>1.1</speed>
<temp>0.00</temp>
<bpm>0</bpm>
<rpm>0.00</rpm>
</extensions>
</trkpt>
<trkpt lat="32.586891174" lon="35.013690948">
  <ele>142.451233</ele>
  <time>2012-06-23T06:00:01Z</time>
<extensions>
<speed>1.2</speed>
<temp>0.00</temp>
<bpm>0</bpm>
<rpm>0.00</rpm>
</extensions>
</trkpt>
<trkpt lat="32.586864471" lon="35.013671875">
  <ele>142.216858</ele>
  <time>2012-06-23T06:00:04Z</time>
<extensions>
<speed>1.3</speed>
<temp>0.00</temp>
<bpm>0</bpm>
<rpm>0.00</rpm>
</extensions>
</trkpt>
<trkpt lat="32.586841583" lon="35.013645172">
  <ele>142.212952</ele>
  <time>2012-06-23T06:00:07Z</time>
<extensions>
<speed>1.4</speed>
<temp>0.00</temp>
<bpm>0</bpm>
<rpm>0.00</rpm>
</extensions>
</trkpt>
<trkpt lat="32.586803436" lon="35.013622284">
  <ele>143.509827</ele>
  <time>2012-06-23T06:00:10Z</time>
<extensions>
<speed>1.1</speed>
<temp>0.00</temp>
<bpm>0</bpm>
<rpm>0.00</rpm>
</extensions>
</trkpt>
<trkpt lat="32.586780548" lon="35.013607025">
  <ele>143.693420</ele>
  <time>2012-06-23T06:00:12Z</time>
<extensions>
<speed>1.7</speed>
<temp>0.00</temp>
<bpm>0</bpm>
<rpm>0.00</rpm>
</extensions>
</trkpt>
<trkpt lat="32.586750031" lon="35.013610840">
  <ele>144.294983</ele>
  <time>2012-06-23T06:00:14Z</time>
<extensions>
<speed>1.4</speed>
<temp>0.00</temp>
<bpm>0</bpm>
<rpm>0.00</rpm>
</extensions>
</trkpt>
<trkpt lat="32.586723328" lon="35.013614655">
  <ele>145.627014</ele>
  <time>2012-06-23T06:00:16Z</time>
<extensions>
<speed>1.5</speed>
<temp>0.00</temp>
<bpm>0</bpm>
<rpm>0.00</rpm>
</extensions>
</trkpt>
<trkpt lat="32.586696625" lon="35.013614655">
  <ele>146.962952</ele>
  <time>2012-06-23T06:00:18Z</time>
<extensions>
<speed>1.1</speed>
<temp>0.00</temp>
<bpm>0</bpm>
<rpm>0.00</rpm>
</extensions>
</trkpt>
<trkpt lat="32.586673737" lon="35.013587952">
  <ele>148.002014</ele>
  <time>2012-06-23T06:00:19Z</time>
<extensions>
<speed>1.0</speed>
<temp>0.00</temp>
<bpm>0</bpm>
<rpm>0.00</rpm>
</extensions>
</trkpt>
<trkpt lat="32.586643219" lon="35.013568878">
  <ele>148.248108</ele>
  <time>2012-06-23T06:00:23Z</time>
<extensions>
<speed>1.0</speed>
<temp>0.00</temp>
<bpm>0</bpm>
<rpm>0.00</rpm>
</extensions>
</trkpt>
<trkpt lat="32.586608887" lon="35.013542175">
  <ele>148.873108</ele>
  <time>2012-06-23T06:00:26Z</time>
<extensions>
<speed>1.4</speed>
<temp>0.00</temp>
<bpm>0</bpm>
<rpm>0.00</rpm>
</extensions>
</trkpt>
<trkpt lat="32.586566925" lon="35.013519287">
  <ele>150.033264</ele>
  <time>2012-06-23T06:00:29Z</time>
<extensions>
<speed>1.1</speed>
<temp>0.00</temp>
<bpm>0</bpm>
<rpm>0.00</rpm>
</extensions>
</trkpt>
<trkpt lat="32.586532593" lon="35.013511658">
  <ele>150.970764</ele>
  <time>2012-06-23T06:00:33Z</time>
<extensions>
<speed>1.0</speed>
<temp>0.00</temp>
<bpm>0</bpm>
<rpm>0.00</rpm>
</extensions>
</trkpt>
<trkpt lat="32.586494446" lon="35.013492584">
  <ele>150.466858</ele>
  <time>2012-06-23T06:00:36Z</time>
<extensions>
<speed>0.9</speed>
<temp>0.00</temp>
<bpm>0</bpm>
<rpm>0.00</rpm>
</extensions>
</trkpt>
<trkpt lat="32.586463928" lon="35.013481140">
  <ele>150.908264</ele>
  <time>2012-06-23T06:00:39Z</time>
<extensions>
<speed>1.0</speed>
<temp>0.00</temp>
<bpm>0</bpm>
<rpm>0.00</rpm>
</extensions>
</trkpt>
<trkpt lat="32.586437225" lon="35.013473511">
  <ele>151.169983</ele>
  <time>2012-06-23T06:00:42Z</time>
<extensions>
<speed>0.4</speed>
<temp>0.00</temp>
<bpm>0</bpm>
<rpm>0.00</rpm>
</extensions>
</trkpt>
<trkpt lat="32.586410522" lon="35.013465881">
  <ele>152.502014</ele>
  <time>2012-06-23T06:00:46Z</time>
<extensions>
<speed>0.8</speed>
<temp>0.00</temp>
<bpm>0</bpm>
<rpm>0.00</rpm>
</extensions>
</trkpt>
<trkpt lat="32.586387634" lon="35.013454437">
  <ele>153.627014</ele>
  <time>2012-06-23T06:00:49Z</time>
<extensions>
<speed>0.8</speed>
<temp>0.00</temp>
<bpm>0</bpm>
<rpm>0.00</rpm>
</extensions>
</trkpt>
<trkpt lat="32.586349487" lon="35.013446808">
  <ele>154.623108</ele>
  <time>2012-06-23T06:00:51Z</time>
<extensions>
<speed>1.2</speed>
<temp>0.00</temp>
<bpm>0</bpm>
<rpm>0.00</rpm>
</extensions>
</trkpt>
<trkpt lat="32.586311340" lon="35.013439178">
  <ele>155.759827</ele>
  <time>2012-06-23T06:00:54Z</time>
<extensions>
<speed>1.3</speed>
<temp>0.00</temp>
<bpm>0</bpm>
<rpm>0.00</rpm>
</extensions>
</trkpt>
<trkpt lat="32.586288452" lon="35.013416290">
  <ele>154.994202</ele>
  <time>2012-06-23T06:00:56Z</time>
<extensions>
<speed>1.0</speed>
<temp>0.00</temp>
<bpm>0</bpm>
<rpm>0.00</rpm>
</extensions>
</trkpt>
<trkpt lat="32.586246490" lon="35.013393402">
  <ele>156.005920</ele>
  <time>2012-06-23T06:00:59Z</time>
<extensions>
<speed>0.9</speed>
<temp>0.00</temp>
<bpm>0</bpm>
<rpm>0.00</rpm>
</extensions>
</trkpt>
<trkpt lat="32.586219788" lon="35.013385773">
  <ele>155.627014</ele>
  <time>2012-06-23T06:01:02Z</time>
<extensions>
<speed>0.9</speed>
<temp>0.00</temp>
<bpm>0</bpm>
<rpm>0.00</rpm>
</extensions>
</trkpt>
<trkpt lat="32.586189270" lon="35.013401031">
  <ele>156.642639</ele>
  <time>2012-06-23T06:01:05Z</time>
<extensions>
<speed>1.0</speed>
<temp>0.00</temp>
<bpm>0</bpm>
<rpm>0.00</rpm>
</extensions>
</trkpt>
<trkpt lat="32.586166382" lon="35.013412476">
  <ele>157.349670</ele>
  <time>2012-06-23T06:01:08Z</time>
<extensions>
<speed>1.1</speed>
<temp>0.00</temp>
<bpm>0</bpm>
<rpm>0.00</rpm>
</extensions>
</trkpt>
<trkpt lat="32.586139679" lon="35.013385773">
  <ele>158.021545</ele>
  <time>2012-06-23T06:01:12Z</time>
<extensions>
<speed>0.8</speed>
<temp>0.00</temp>
<bpm>0</bpm>
<rpm>0.00</rpm>
</extensions>
</trkpt>
<trkpt lat="32.586105347" lon="35.013374329">
  <ele>157.685608</ele>
  <time>2012-06-23T06:01:15Z</time>
<extensions>
<speed>1.4</speed>
<temp>0.00</temp>
<bpm>0</bpm>
<rpm>0.00</rpm>
</extensions>
</trkpt>
<trkpt lat="32.586071014" lon="35.013355255">
  <ele>157.166077</ele>
  <time>2012-06-23T06:01:17Z</time>
<extensions>
<speed>1.5</speed>
<temp>0.00</temp>
<bpm>0</bpm>
<rpm>0.00</rpm>
</extensions>
</trkpt>
<trkpt lat="32.586044312" lon="35.013343811">
  <ele>155.927795</ele>
  <time>2012-06-23T06:01:19Z</time>
<extensions>
<speed>1.3</speed>
<temp>0.00</temp>
<bpm>0</bpm>
<rpm>0.00</rpm>
</extensions>
</trkpt>
<trkpt lat="32.586013794" lon="35.013336182">
  <ele>155.748108</ele>
  <time>2012-06-23T06:01:21Z</time>
<extensions>
<speed>1.3</speed>
<temp>0.00</temp>
<bpm>0</bpm>
<rpm>0.00</rpm>
</extensions>
</trkpt>
<trkpt lat="32.585979462" lon="35.013332367">
  <ele>155.732483</ele>
  <time>2012-06-23T06:01:23Z</time>
<extensions>
<speed>1.3</speed>
<temp>0.00</temp>
<bpm>0</bpm>
<rpm>0.00</rpm>
</extensions>
</trkpt>
<trkpt lat="32.585937500" lon="35.013328552">
  <ele>155.634827</ele>
  <time>2012-06-23T06:01:26Z</time>
<extensions>
<speed>1.3</speed>
<temp>0.00</temp>
<bpm>0</bpm>
<rpm>0.00</rpm>
</extensions>
</trkpt>
<trkpt lat="32.585910797" lon="35.013332367">
  <ele>158.021545</ele>
  <time>2012-06-23T06:01:28Z</time>
<extensions>
<speed>0.9</speed>
<temp>0.00</temp>
<bpm>0</bpm>
<rpm>0.00</rpm>
</extensions>
</trkpt>
<trkpt lat="32.585865021" lon="35.013317108">
  <ele>159.423889</ele>
  <time>2012-06-23T06:01:31Z</time>
<extensions>
<speed>1.0</speed>
<temp>0.00</temp>
<bpm>0</bpm>
<rpm>0.00</rpm>
</extensions>
</trkpt>
<trkpt lat="32.585823059" lon="35.013309479">
  <ele>159.693420</ele>
  <time>2012-06-23T06:01:34Z</time>
<extensions>
<speed>1.3</speed>
<temp>0.00</temp>
<bpm>0</bpm>
<rpm>0.00</rpm>
</extensions>
</trkpt>
<trkpt lat="32.585792542" lon="35.013309479">
  <ele>159.248108</ele>
  <time>2012-06-23T06:01:36Z</time>
<extensions>
<speed>1.1</speed>
<temp>0.00</temp>
<bpm>0</bpm>
<rpm>0.00</rpm>
</extensions>
</trkpt>
<trkpt lat="32.585754395" lon="35.013294220">
  <ele>160.591858</ele>
  <time>2012-06-23T06:01:39Z</time>
<extensions>
<speed>0.7</speed>
<temp>0.00</temp>
<bpm>0</bpm>
<rpm>0.00</rpm>
</extensions>
</trkpt>
<trkpt lat="32.585720062" lon="35.013286591">
  <ele>159.962952</ele>
  <time>2012-06-23T06:01:42Z</time>
<extensions>
<speed>1.1</speed>
<temp>0.00</temp>
<bpm>0</bpm>
<rpm>0.00</rpm>
</extensions>
</trkpt>
<trkpt lat="32.585681915" lon="35.013290405">
  <ele>160.334045</ele>
  <time>2012-06-23T06:01:45Z</time>
<extensions>
<speed>1.3</speed>
<temp>0.00</temp>
<bpm>0</bpm>
<rpm>0.00</rpm>
</extensions>
</trkpt>
<trkpt lat="32.585639954" lon="35.013290405">
  <ele>160.904358</ele>
  <time>2012-06-23T06:01:48Z</time>
<extensions>
<speed>1.5</speed>
<temp>0.00</temp>
<bpm>0</bpm>
<rpm>0.00</rpm>
</extensions>
</trkpt>
<trkpt lat="32.585601807" lon="35.013275146">
  <ele>161.849670</ele>
  <time>2012-06-23T06:01:51Z</time>
<extensions>
<speed>1.2</speed>
<temp>0.00</temp>
<bpm>0</bpm>
<rpm>0.00</rpm>
</extensions>
</trkpt>
<trkpt lat="32.585571289" lon="35.013271332">
  <ele>162.271545</ele>
  <time>2012-06-23T06:01:53Z</time>
<extensions>
<speed>1.2</speed>
<temp>0.00</temp>
<bpm>0</bpm>
<rpm>0.00</rpm>
</extensions>
</trkpt>
<trkpt lat="32.585544586" lon="35.013271332">
  <ele>161.916077</ele>
  <time>2012-06-23T06:01:56Z</time>
<extensions>
<speed>0.9</speed>
<temp>0.00</temp>
<bpm>0</bpm>
<rpm>0.00</rpm>
</extensions>
</trkpt>
<trkpt lat="32.585506439" lon="35.013271332">
  <ele>161.322327</ele>
  <time>2012-06-23T06:01:59Z</time>
<extensions>
<speed>1.3</speed>
<temp>0.00</temp>
<bpm>0</bpm>
<rpm>0.00</rpm>
</extensions>
</trkpt>
<trkpt lat="32.585479736" lon="35.013278961">
  <ele>160.701233</ele>
  <time>2012-06-23T06:02:02Z</time>
<extensions>
<speed>1.1</speed>
<temp>0.00</temp>
<bpm>0</bpm>
<rpm>0.00</rpm>
</extensions>
</trkpt>
<trkpt lat="32.585445404" lon="35.013278961">
  <ele>160.392639</ele>
  <time>2012-06-23T06:02:05Z</time>
<extensions>
<speed>1.1</speed>
<temp>0.00</temp>
<bpm>0</bpm>
<rpm>0.00</rpm>
</extensions>
</trkpt>
<trkpt lat="32.585414886" lon="35.013294220">
  <ele>160.474670</ele>
  <time>2012-06-23T06:02:08Z</time>
<extensions>
<speed>0.8</speed>
<temp>0.00</temp>
<bpm>0</bpm>
<rpm>0.00</rpm>
</extensions>
</trkpt>
<trkpt lat="32.585384369" lon="35.013290405">
  <ele>160.283264</ele>
  <time>2012-06-23T06:02:10Z</time>
<extensions>
<speed>1.3</speed>
<temp>0.00</temp>
<bpm>0</bpm>
<rpm>0.00</rpm>
</extensions>
</trkpt>
<trkpt lat="32.585357666" lon="35.013290405">
  <ele>160.677795</ele>
  <time>2012-06-23T06:02:14Z</time>
<extensions>
<speed>0.8</speed>
<temp>0.00</temp>
<bpm>0</bpm>
<rpm>0.00</rpm>
</extensions>
</trkpt>
<trkpt lat="32.585319519" lon="35.013294220">
  <ele>160.541077</ele>
  <time>2012-06-23T06:02:18Z</time>
<extensions>
<speed>0.6</speed>
<temp>0.00</temp>
<bpm>0</bpm>
<rpm>0.00</rpm>
</extensions>
</trkpt>
<trkpt lat="32.585289001" lon="35.013290405">
  <ele>160.939514</ele>
  <time>2012-06-23T06:02:20Z</time>
<extensions>
<speed>1.1</speed>
<temp>0.00</temp>
<bpm>0</bpm>
<rpm>0.00</rpm>
</extensions>
</trkpt>
<trkpt lat="32.585254669" lon="35.013298035">
  <ele>161.412170</ele>
  <time>2012-06-23T06:02:23Z</time>
<extensions>
<speed>1.3</speed>
<temp>0.00</temp>
<bpm>0</bpm>
<rpm>0.00</rpm>
</extensions>
</trkpt>
<trkpt lat="32.585220337" lon="35.013290405">
  <ele>162.630920</ele>
  <time>2012-06-23T06:02:26Z</time>
<extensions>
<speed>1.0</speed>
<temp>0.00</temp>
<bpm>0</bpm>
<rpm>0.00</rpm>
</extensions>
</trkpt>
<trkpt lat="32.585201263" lon="35.013275146">
  <ele>163.974670</ele>
  <time>2012-06-23T06:02:28Z</time>
<extensions>
<speed>1.5</speed>
<temp>0.00</temp>
<bpm>0</bpm>
<rpm>0.00</rpm>
</extensions>
</trkpt>
<trkpt lat="32.585155487" lon="35.013305664">
  <ele>165.279358</ele>
  <time>2012-06-23T06:02:30Z</time>
<extensions>
<speed>0.9</speed>
<temp>0.00</temp>
<bpm>0</bpm>
<rpm>0.00</rpm>
</extensions>
</trkpt>
<trkpt lat="32.585124969" lon="35.013305664">
  <ele>165.357483</ele>
  <time>2012-06-23T06:02:34Z</time>
<extensions>
<speed>0.8</speed>
<temp>0.00</temp>
<bpm>0</bpm>
<rpm>0.00</rpm>
</extensions>
</trkpt>
<trkpt lat="32.585090637" lon="35.013320923">
  <ele>165.177795</ele>
  <time>2012-06-23T06:02:37Z</time>
<extensions>
<speed>1.0</speed>
<temp>0.00</temp>
<bpm>0</bpm>
<rpm>0.00</rpm>
</extensions>
</trkpt>
<trkpt lat="32.585063934" lon="35.013320923">
  <ele>165.087952</ele>
  <time>2012-06-23T06:02:39Z</time>
<extensions>
<speed>1.1</speed>
<temp>0.00</temp>
<bpm>0</bpm>
<rpm>0.00</rpm>
</extensions>
</trkpt>
<trkpt lat="32.585033417" lon="35.013309479">
  <ele>164.896545</ele>
  <time>2012-06-23T06:02:43Z</time>
<extensions>
<speed>1.0</speed>
<temp>0.00</temp>
<bpm>0</bpm>
<rpm>0.00</rpm>
</extensions>
</trkpt>
<trkpt lat="32.584999084" lon="35.013286591">
  <ele>165.318420</ele>
  <time>2012-06-23T06:02:46Z</time>
<extensions>
<speed>1.4</speed>
<temp>0.00</temp>
<bpm>0</bpm>
<rpm>0.00</rpm>
</extensions>
</trkpt>
<trkpt lat="32.584972382" lon="35.013278961">
  <ele>165.189514</ele>
  <time>2012-06-23T06:02:48Z</time>
<extensions>
<speed>1.3</speed>
<temp>0.00</temp>
<bpm>0</bpm>
<rpm>0.00</rpm>
</extensions>
</trkpt>
<trkpt lat="32.584941864" lon="35.013290405">
  <ele>165.919983</ele>
  <time>2012-06-23T06:02:53Z</time>
<extensions>
<speed>0.8</speed>
<temp>0.00</temp>
<bpm>0</bpm>
<rpm>0.00</rpm>
</extensions>
</trkpt>
<trkpt lat="32.584911346" lon="35.013290405">
  <ele>165.849670</ele>
  <time>2012-06-23T06:02:55Z</time>
<extensions>
<speed>1.2</speed>
<temp>0.00</temp>
<bpm>0</bpm>
<rpm>0.00</rpm>
</extensions>
</trkpt>
<trkpt lat="32.584880829" lon="35.013294220">
  <ele>166.072327</ele>
  <time>2012-06-23T06:02:57Z</time>
<extensions>
<speed>1.0</speed>
<temp>0.00</temp>
<bpm>0</bpm>
<rpm>0.00</rpm>
</extensions>
</trkpt>
<trkpt lat="32.584854126" lon="35.013294220">
  <ele>167.306702</ele>
  <time>2012-06-23T06:02:59Z</time>
<extensions>
<speed>1.4</speed>
<temp>0.00</temp>
<bpm>0</bpm>
<rpm>0.00</rpm>
</extensions>
</trkpt>
<trkpt lat="32.584827423" lon="35.013294220">
  <ele>167.580139</ele>
  <time>2012-06-23T06:03:01Z</time>
<extensions>
<speed>1.4</speed>
<temp>0.00</temp>
<bpm>0</bpm>
<rpm>0.00</rpm>
</extensions>
</trkpt>
<trkpt lat="32.584796906" lon="35.013290405">
  <ele>168.341858</ele>
  <time>2012-06-23T06:03:03Z</time>
<extensions>
<speed>1.3</speed>
<temp>0.00</temp>
<bpm>0</bpm>
<rpm>0.00</rpm>
</extensions>
</trkpt>
<trkpt lat="32.584766388" lon="35.013290405">
  <ele>168.685608</ele>
  <time>2012-06-23T06:03:06Z</time>
<extensions>
<speed>0.9</speed>
<temp>0.00</temp>
<bpm>0</bpm>
<rpm>0.00</rpm>
</extensions>
</trkpt>
<trkpt lat="32.584732056" lon="35.013290405">
  <ele>169.720764</ele>
  <time>2012-06-23T06:03:09Z</time>
<extensions>
<speed>1.1</speed>
<temp>0.00</temp>
<bpm>0</bpm>
<rpm>0.00</rpm>
</extensions>
</trkpt>
<trkpt lat="32.584701538" lon="35.013282776">
  <ele>170.060608</ele>
  <time>2012-06-23T06:03:12Z</time>
<extensions>
<speed>1.8</speed>
<temp>0.00</temp>
<bpm>0</bpm>
<rpm>0.00</rpm>
</extensions>
</trkpt>
<trkpt lat="32.584671021" lon="35.013267517">
  <ele>170.365295</ele>
  <time>2012-06-23T06:03:14Z</time>
<extensions>
<speed>1.4</speed>
<temp>0.00</temp>
<bpm>0</bpm>
<rpm>0.00</rpm>
</extensions>
</trkpt>
<trkpt lat="32.584651947" lon="35.013244629">
  <ele>172.197327</ele>
  <time>2012-06-23T06:03:16Z</time>
<extensions>
<speed>1.4</speed>
<temp>0.00</temp>
<bpm>0</bpm>
<rpm>0.00</rpm>
</extensions>
</trkpt>
<trkpt lat="32.584617615" lon="35.013237000">
  <ele>172.494202</ele>
  <time>2012-06-23T06:03:19Z</time>
<extensions>
<speed>1.3</speed>
<temp>0.00</temp>
<bpm>0</bpm>
<rpm>0.00</rpm>
</extensions>
</trkpt>
<trkpt lat="32.584594727" lon="35.013202667">
  <ele>173.666077</ele>
  <time>2012-06-23T06:03:22Z</time>
<extensions>
<speed>1.0</speed>
<temp>0.00</temp>
<bpm>0</bpm>
<rpm>0.00</rpm>
</extensions>
</trkpt>
<trkpt lat="32.584571838" lon="35.013164520">
  <ele>175.201233</ele>
  <time>2012-06-23T06:03:25Z</time>
<extensions>
<speed>1.0</speed>
<temp>0.00</temp>
<bpm>0</bpm>
<rpm>0.00</rpm>
</extensions>
</trkpt>
<trkpt lat="32.584560394" lon="35.013134003">
  <ele>175.478577</ele>
  <time>2012-06-23T06:03:27Z</time>
<extensions>
<speed>1.5</speed>
<temp>0.00</temp>
<bpm>0</bpm>
<rpm>0.00</rpm>
</extensions>
</trkpt>
<trkpt lat="32.584560394" lon="35.013084412">
  <ele>175.345764</ele>
  <time>2012-06-23T06:03:30Z</time>
<extensions>
<speed>0.9</speed>
<temp>0.00</temp>
<bpm>0</bpm>
<rpm>0.00</rpm>
</extensions>
</trkpt>
<trkpt lat="32.584575653" lon="35.013038635">
  <ele>175.103577</ele>
  <time>2012-06-23T06:03:33Z</time>
<extensions>
<speed>2.1</speed>
<temp>0.00</temp>
<bpm>0</bpm>
<rpm>0.00</rpm>
</extensions>
</trkpt>
<trkpt lat="32.584587097" lon="35.012989044">
  <ele>174.685608</ele>
  <time>2012-06-23T06:03:35Z</time>
<extensions>
<speed>2.1</speed>
<temp>0.00</temp>
<bpm>0</bpm>
<rpm>0.00</rpm>
</extensions>
</trkpt>
<trkpt lat="32.584609985" lon="35.012958527">
  <ele>173.994202</ele>
  <time>2012-06-23T06:03:37Z</time>
<extensions>
<speed>1.6</speed>
<temp>0.00</temp>
<bpm>0</bpm>
<rpm>0.00</rpm>
</extensions>
</trkpt>
<trkpt lat="32.584629059" lon="35.012962341">
  <ele>176.084045</ele>
  <time>2012-06-23T06:03:52Z</time>
<extensions>
<speed>0.1</speed>
<temp>0.00</temp>
<bpm>0</bpm>
<rpm>0.00</rpm>
</extensions>
</trkpt>
<trkpt lat="32.584663391" lon="35.012966156">
  <ele>177.248108</ele>
  <time>2012-06-23T06:07:11Z</time>
<extensions>
<speed>0.6</speed>
<temp>0.00</temp>
<bpm>0</bpm>
<rpm>0.00</rpm>
</extensions>
</trkpt>
<trkpt lat="32.584690094" lon="35.012969971">
  <ele>178.072327</ele>
  <time>2012-06-23T06:07:24Z</time>
<extensions>
<speed>0.3</speed>
<temp>0.00</temp>
<bpm>0</bpm>
<rpm>0.00</rpm>
</extensions>
</trkpt>
<trkpt lat="32.584720612" lon="35.012962341">
  <ele>177.771545</ele>
  <time>2012-06-23T06:07:26Z</time>
<extensions>
<speed>1.5</speed>
<temp>0.00</temp>
<bpm>0</bpm>
<rpm>0.00</rpm>
</extensions>
</trkpt>
<trkpt lat="32.584777832" lon="35.012947083">
  <ele>177.857483</ele>
  <time>2012-06-23T06:07:28Z</time>
<extensions>
<speed>3.5</speed>
<temp>0.00</temp>
<bpm>0</bpm>
<rpm>0.00</rpm>
</extensions>
</trkpt>
<trkpt lat="32.584812164" lon="35.012943268">
  <ele>177.966858</ele>
  <time>2012-06-23T06:07:29Z</time>
<extensions>
<speed>3.9</speed>
<temp>0.00</temp>
<bpm>0</bpm>
<rpm>0.00</rpm>
</extensions>
</trkpt>
<trkpt lat="32.584850311" lon="35.012939453">
  <ele>177.919983</ele>
  <time>2012-06-23T06:07:30Z</time>
<extensions>
<speed>4.1</speed>
<temp>0.00</temp>
<bpm>0</bpm>
<rpm>0.00</rpm>
</extensions>
</trkpt>
<trkpt lat="32.584888458" lon="35.012935638">
  <ele>177.724670</ele>
  <time>2012-06-23T06:07:31Z</time>
<extensions>
<speed>4.3</speed>
<temp>0.00</temp>
<bpm>0</bpm>
<rpm>0.00</rpm>
</extensions>
</trkpt>
<trkpt lat="32.584934235" lon="35.012947083">
  <ele>177.279358</ele>
  <time>2012-06-23T06:07:32Z</time>
<extensions>
<speed>4.7</speed>
<temp>0.00</temp>
<bpm>0</bpm>
<rpm>0.00</rpm>
</extensions>
</trkpt>
<trkpt lat="32.584976196" lon="35.012969971">
  <ele>176.755920</ele>
  <time>2012-06-23T06:07:33Z</time>
<extensions>
<speed>4.8</speed>
<temp>0.00</temp>
<bpm>0</bpm>
<rpm>0.00</rpm>
</extensions>
</trkpt>
<trkpt lat="32.585014343" lon="35.012985229">
  <ele>176.185608</ele>
  <time>2012-06-23T06:07:34Z</time>
<extensions>
<speed>4.5</speed>
<temp>0.00</temp>
<bpm>0</bpm>
<rpm>0.00</rpm>
</extensions>
</trkpt>
<trkpt lat="32.585044861" lon="35.013004303">
  <ele>175.974670</ele>
  <time>2012-06-23T06:07:35Z</time>
<extensions>
<speed>3.4</speed>
<temp>0.00</temp>
<bpm>0</bpm>
<rpm>0.00</rpm>
</extensions>
</trkpt>
<trkpt lat="32.585067749" lon="35.013023376">
  <ele>175.779358</ele>
  <time>2012-06-23T06:07:36Z</time>
<extensions>
<speed>2.9</speed>
<temp>0.00</temp>
<bpm>0</bpm>
<rpm>0.00</rpm>
</extensions>
</trkpt>
<trkpt lat="32.585083008" lon="35.013050079">
  <ele>175.244202</ele>
  <time>2012-06-23T06:07:37Z</time>
<extensions>
<speed>2.9</speed>
<temp>0.00</temp>
<bpm>0</bpm>
<rpm>0.00</rpm>
</extensions>
</trkpt>
<trkpt lat="32.585102081" lon="35.013080597">
  <ele>174.525452</ele>
  <time>2012-06-23T06:07:38Z</time>
<extensions>
<speed>3.1</speed>
<temp>0.00</temp>
<bpm>0</bpm>
<rpm>0.00</rpm>
</extensions>
</trkpt>
<trkpt lat="32.585121155" lon="35.013107300">
  <ele>174.111389</ele>
  <time>2012-06-23T06:07:39Z</time>
<extensions>
<speed>3.4</speed>
<temp>0.00</temp>
<bpm>0</bpm>
<rpm>0.00</rpm>
</extensions>
</trkpt>
<trkpt lat="32.585159302" lon="35.013122559">
  <ele>173.252014</ele>
  <time>2012-06-23T06:07:40Z</time>
<extensions>
<speed>4.1</speed>
<temp>0.00</temp>
<bpm>0</bpm>
<rpm>0.00</rpm>
</extensions>
</trkpt>
<trkpt lat="32.585235596" lon="35.013126373">
  <ele>172.220764</ele>
  <time>2012-06-23T06:07:41Z</time>
<extensions>
<speed>7.1</speed>
<temp>0.00</temp>
<bpm>0</bpm>
<rpm>0.00</rpm>
</extensions>
</trkpt>
<trkpt lat="32.585292816" lon="35.013134003">
  <ele>171.716858</ele>
  <time>2012-06-23T06:07:42Z</time>
<extensions>
<speed>6.0</speed>
<temp>0.00</temp>
<bpm>0</bpm>
<rpm>0.00</rpm>
</extensions>
</trkpt>
<trkpt lat="32.585346222" lon="35.013141632">
  <ele>171.447327</ele>
  <time>2012-06-23T06:07:43Z</time>
<extensions>
<speed>5.6</speed>
<temp>0.00</temp>
<bpm>0</bpm>
<rpm>0.00</rpm>
</extensions>
</trkpt>
<trkpt lat="32.585399628" lon="35.013141632">
  <ele>171.181702</ele>
  <time>2012-06-23T06:07:44Z</time>
<extensions>
<speed>5.9</speed>
<temp>0.00</temp>
<bpm>0</bpm>
<rpm>0.00</rpm>
</extensions>
</trkpt>
<trkpt lat="32.585483551" lon="35.013130188">
  <ele>171.705139</ele>
  <time>2012-06-23T06:07:45Z</time>
<extensions>
<speed>5.7</speed>
<temp>0.00</temp>
<bpm>0</bpm>
<rpm>0.00</rpm>
</extensions>
</trkpt>
<trkpt lat="32.585544586" lon="35.013095856">
  <ele>170.834045</ele>
  <time>2012-06-23T06:07:46Z</time>
<extensions>
<speed>6.6</speed>
<temp>0.00</temp>
<bpm>0</bpm>
<rpm>0.00</rpm>
</extensions>
</trkpt>
<trkpt lat="32.585597992" lon="35.013088226">
  <ele>170.369202</ele>
  <time>2012-06-23T06:07:47Z</time>
<extensions>
<speed>5.1</speed>
<temp>0.00</temp>
<bpm>0</bpm>
<rpm>0.00</rpm>
</extensions>
</trkpt>
<trkpt lat="32.585651398" lon="35.013095856">
  <ele>170.408264</ele>
  <time>2012-06-23T06:07:48Z</time>
<extensions>
<speed>5.7</speed>
<temp>0.00</temp>
<bpm>0</bpm>
<rpm>0.00</rpm>
</extensions>
</trkpt>
<trkpt lat="32.585700989" lon="35.013103485">
  <ele>169.630920</ele>
  <time>2012-06-23T06:07:49Z</time>
<extensions>
<speed>4.4</speed>
<temp>0.00</temp>
<bpm>0</bpm>
<rpm>0.00</rpm>
</extensions>
</trkpt>
<trkpt lat="32.585742950" lon="35.013107300">
  <ele>168.384827</ele>
  <time>2012-06-23T06:07:50Z</time>
<extensions>
<speed>4.5</speed>
<temp>0.00</temp>
<bpm>0</bpm>
<rpm>0.00</rpm>
</extensions>
</trkpt>
<trkpt lat="32.585788727" lon="35.013118744">
  <ele>167.349670</ele>
  <time>2012-06-23T06:07:51Z</time>
<extensions>
<speed>4.3</speed>
<temp>0.00</temp>
<bpm>0</bpm>
<rpm>0.00</rpm>
</extensions>
</trkpt>
<trkpt lat="32.585838318" lon="35.013149261">
  <ele>167.400452</ele>
  <time>2012-06-23T06:07:52Z</time>
<extensions>
<speed>5.6</speed>
<temp>0.00</temp>
<bpm>0</bpm>
<rpm>0.00</rpm>
</extensions>
</trkpt>
<trkpt lat="32.585872650" lon="35.013179779">
  <ele>167.642639</ele>
  <time>2012-06-23T06:07:53Z</time>
<extensions>
<speed>4.7</speed>
<temp>0.00</temp>
<bpm>0</bpm>
<rpm>0.00</rpm>
</extensions>
</trkpt>
<trkpt lat="32.585922241" lon="35.013198853">
  <ele>167.451233</ele>
  <time>2012-06-23T06:07:54Z</time>
<extensions>
<speed>4.1</speed>
<temp>0.00</temp>
<bpm>0</bpm>
<rpm>0.00</rpm>
</extensions>
</trkpt>
<trkpt lat="32.585960388" lon="35.013217926">
  <ele>167.103577</ele>
  <time>2012-06-23T06:07:55Z</time>
<extensions>
<speed>3.9</speed>
<temp>0.00</temp>
<bpm>0</bpm>
<rpm>0.00</rpm>
</extensions>
</trkpt>
<trkpt lat="32.586017609" lon="35.013221741">
  <ele>167.419983</ele>
  <time>2012-06-23T06:07:56Z</time>
<extensions>
<speed>5.4</speed>
<temp>0.00</temp>
<bpm>0</bpm>
<rpm>0.00</rpm>
</extensions>
</trkpt>
<trkpt lat="32.586086273" lon="35.013217926">
  <ele>168.181702</ele>
  <time>2012-06-23T06:07:57Z</time>
<extensions>
<speed>5.4</speed>
<temp>0.00</temp>
<bpm>0</bpm>
<rpm>0.00</rpm>
</extensions>
</trkpt>
<trkpt lat="32.586139679" lon="35.013206482">
  <ele>168.443420</ele>
  <time>2012-06-23T06:07:58Z</time>
<extensions>
<speed>5.9</speed>
<temp>0.00</temp>
<bpm>0</bpm>
<rpm>0.00</rpm>
</extensions>
</trkpt>
<trkpt lat="32.586185455" lon="35.013191223">
  <ele>168.615295</ele>
  <time>2012-06-23T06:07:59Z</time>
<extensions>
<speed>4.9</speed>
<temp>0.00</temp>
<bpm>0</bpm>
<rpm>0.00</rpm>
</extensions>
</trkpt>
<trkpt lat="32.586257935" lon="35.013168335">
  <ele>168.689514</ele>
  <time>2012-06-23T06:08:00Z</time>
<extensions>
<speed>5.8</speed>
<temp>0.00</temp>
<bpm>0</bpm>
<rpm>0.00</rpm>
</extensions>
</trkpt>
<trkpt lat="32.586311340" lon="35.013153076">
  <ele>167.627014</ele>
  <time>2012-06-23T06:08:01Z</time>
<extensions>
<speed>6.0</speed>
<temp>0.00</temp>
<bpm>0</bpm>
<rpm>0.00</rpm>
</extensions>
</trkpt>
<trkpt lat="32.586368561" lon="35.013145447">
  <ele>167.314514</ele>
  <time>2012-06-23T06:08:02Z</time>
<extensions>
<speed>6.6</speed>
<temp>0.00</temp>
<bpm>0</bpm>
<rpm>0.00</rpm>
</extensions>
</trkpt>
<trkpt lat="32.586429596" lon="35.013149261">
  <ele>166.529358</ele>
  <time>2012-06-23T06:08:03Z</time>
<extensions>
<speed>6.6</speed>
<temp>0.00</temp>
<bpm>0</bpm>
<rpm>0.00</rpm>
</extensions>
</trkpt>
<trkpt lat="32.586498260" lon="35.013160706">
  <ele>166.494202</ele>
  <time>2012-06-23T06:08:04Z</time>
<extensions>
<speed>6.4</speed>
<temp>0.00</temp>
<bpm>0</bpm>
<rpm>0.00</rpm>
</extensions>
</trkpt>
<trkpt lat="32.586551666" lon="35.013168335">
  <ele>166.080139</ele>
  <time>2012-06-23T06:08:05Z</time>
<extensions>
<speed>6.1</speed>
<temp>0.00</temp>
<bpm>0</bpm>
<rpm>0.00</rpm>
</extensions>
</trkpt>
<trkpt lat="32.586620331" lon="35.013175964">
  <ele>166.080139</ele>
  <time>2012-06-23T06:08:06Z</time>
<extensions>
<speed>6.4</speed>
<temp>0.00</temp>
<bpm>0</bpm>
<rpm>0.00</rpm>
</extensions>
</trkpt>
<trkpt lat="32.586669922" lon="35.013187408">
  <ele>165.162170</ele>
  <time>2012-06-23T06:08:07Z</time>
<extensions>
<speed>4.9</speed>
<temp>0.00</temp>
<bpm>0</bpm>
<rpm>0.00</rpm>
</extensions>
</trkpt>
<trkpt lat="32.586715698" lon="35.013198853">
  <ele>164.537170</ele>
  <time>2012-06-23T06:08:08Z</time>
<extensions>
<speed>5.3</speed>
<temp>0.00</temp>
<bpm>0</bpm>
<rpm>0.00</rpm>
</extensions>
</trkpt>
<trkpt lat="32.586753845" lon="35.013206482">
  <ele>164.334045</ele>
  <time>2012-06-23T06:08:09Z</time>
<extensions>
<speed>4.8</speed>
<temp>0.00</temp>
<bpm>0</bpm>
<rpm>0.00</rpm>
</extensions>
</trkpt>
<trkpt lat="32.586788177" lon="35.013217926">
  <ele>163.404358</ele>
  <time>2012-06-23T06:08:10Z</time>
<extensions>
<speed>4.4</speed>
<temp>0.00</temp>
<bpm>0</bpm>
<rpm>0.00</rpm>
</extensions>
</trkpt>
<trkpt lat="32.586826324" lon="35.013233185">
  <ele>162.978577</ele>
  <time>2012-06-23T06:08:11Z</time>
<extensions>
<speed>4.4</speed>
<temp>0.00</temp>
<bpm>0</bpm>
<rpm>0.00</rpm>
</extensions>
</trkpt>
<trkpt lat="32.586864471" lon="35.013248444">
  <ele>162.306702</ele>
  <time>2012-06-23T06:08:12Z</time>
<extensions>
<speed>4.7</speed>
<temp>0.00</temp>
<bpm>0</bpm>
<rpm>0.00</rpm>
</extensions>
</trkpt>
<trkpt lat="32.586902618" lon="35.013263702">
  <ele>161.252014</ele>
  <time>2012-06-23T06:08:13Z</time>
<extensions>
<speed>4.2</speed>
<temp>0.00</temp>
<bpm>0</bpm>
<rpm>0.00</rpm>
</extensions>
</trkpt>
<trkpt lat="32.586948395" lon="35.013275146">
  <ele>160.123108</ele>
  <time>2012-06-23T06:08:14Z</time>
<extensions>
<speed>4.4</speed>
<temp>0.00</temp>
<bpm>0</bpm>
<rpm>0.00</rpm>
</extensions>
</trkpt>
<trkpt lat="32.587001801" lon="35.013271332">
  <ele>158.541077</ele>
  <time>2012-06-23T06:08:15Z</time>
<extensions>
<speed>5.2</speed>
<temp>0.00</temp>
<bpm>0</bpm>
<rpm>0.00</rpm>
</extensions>
</trkpt>
<trkpt lat="32.587036133" lon="35.013278961">
  <ele>158.798889</ele>
  <time>2012-06-23T06:08:16Z</time>
<extensions>
<speed>3.8</speed>
<temp>0.00</temp>
<bpm>0</bpm>
<rpm>0.00</rpm>
</extensions>
</trkpt>
<trkpt lat="32.587085724" lon="35.013275146">
  <ele>158.326233</ele>
  <time>2012-06-23T06:08:17Z</time>
<extensions>
<speed>4.5</speed>
<temp>0.00</temp>
<bpm>0</bpm>
<rpm>0.00</rpm>
</extensions>
</trkpt>
<trkpt lat="32.587127686" lon="35.013271332">
  <ele>157.220764</ele>
  <time>2012-06-23T06:08:18Z</time>
<extensions>
<speed>4.6</speed>
<temp>0.00</temp>
<bpm>0</bpm>
<rpm>0.00</rpm>
</extensions>
</trkpt>
<trkpt lat="32.587173462" lon="35.013275146">
  <ele>155.048889</ele>
  <time>2012-06-23T06:08:19Z</time>
<extensions>
<speed>5.4</speed>
<temp>0.00</temp>
<bpm>0</bpm>
<rpm>0.00</rpm>
</extensions>
</trkpt>
<trkpt lat="32.587215424" lon="35.013275146">
  <ele>153.443420</ele>
  <time>2012-06-23T06:08:20Z</time>
<extensions>
<speed>4.3</speed>
<temp>0.00</temp>
<bpm>0</bpm>
<rpm>0.00</rpm>
</extensions>
</trkpt>
<trkpt lat="32.587257385" lon="35.013267517">
  <ele>152.310608</ele>
  <time>2012-06-23T06:08:21Z</time>
<extensions>
<speed>2.8</speed>
<temp>0.00</temp>
<bpm>0</bpm>
<rpm>0.00</rpm>
</extensions>
</trkpt>
<trkpt lat="32.587295532" lon="35.013271332">
  <ele>150.541077</ele>
  <time>2012-06-23T06:08:22Z</time>
<extensions>
<speed>2.7</speed>
<temp>0.00</temp>
<bpm>0</bpm>
<rpm>0.00</rpm>
</extensions>
</trkpt>
<trkpt lat="32.587345123" lon="35.013267517">
  <ele>149.544983</ele>
  <time>2012-06-23T06:08:23Z</time>
<extensions>
<speed>3.5</speed>
<temp>0.00</temp>
<bpm>0</bpm>
<rpm>0.00</rpm>
</extensions>
</trkpt>
<trkpt lat="32.587383270" lon="35.013267517">
  <ele>148.017639</ele>
  <time>2012-06-23T06:08:24Z</time>
<extensions>
<speed>3.4</speed>
<temp>0.00</temp>
<bpm>0</bpm>
<rpm>0.00</rpm>
</extensions>
</trkpt>
<trkpt lat="32.587425232" lon="35.013271332">
  <ele>146.732483</ele>
  <time>2012-06-23T06:08:25Z</time>
<extensions>
<speed>4.1</speed>
<temp>0.00</temp>
<bpm>0</bpm>
<rpm>0.00</rpm>
</extensions>
</trkpt>
<trkpt lat="32.587474823" lon="35.013271332">
  <ele>145.224670</ele>
  <time>2012-06-23T06:08:26Z</time>
<extensions>
<speed>4.3</speed>
<temp>0.00</temp>
<bpm>0</bpm>
<rpm>0.00</rpm>
</extensions>
</trkpt>
<trkpt lat="32.587528229" lon="35.013271332">
  <ele>144.896545</ele>
  <time>2012-06-23T06:08:27Z</time>
<extensions>
<speed>4.8</speed>
<temp>0.00</temp>
<bpm>0</bpm>
<rpm>0.00</rpm>
</extensions>
</trkpt>
<trkpt lat="32.587608337" lon="35.013278961">
  <ele>145.693420</ele>
  <time>2012-06-23T06:08:28Z</time>
<extensions>
<speed>4.1</speed>
<temp>0.00</temp>
<bpm>0</bpm>
<rpm>0.00</rpm>
</extensions>
</trkpt>
<trkpt lat="32.587635040" lon="35.013282776">
  <ele>144.259827</ele>
  <time>2012-06-23T06:08:29Z</time>
<extensions>
<speed>2.8</speed>
<temp>0.00</temp>
<bpm>0</bpm>
<rpm>0.00</rpm>
</extensions>
</trkpt>
<trkpt lat="32.587673187" lon="35.013339996">
  <ele>143.802795</ele>
  <time>2012-06-23T06:08:31Z</time>
<extensions>
<speed>3.7</speed>
<temp>0.00</temp>
<bpm>0</bpm>
<rpm>0.00</rpm>
</extensions>
</trkpt>
<trkpt lat="32.587692261" lon="35.013370514">
  <ele>143.056702</ele>
  <time>2012-06-23T06:08:32Z</time>
<extensions>
<speed>3.8</speed>
<temp>0.00</temp>
<bpm>0</bpm>
<rpm>0.00</rpm>
</extensions>
</trkpt>
<trkpt lat="32.587722778" lon="35.013385773">
  <ele>142.087952</ele>
  <time>2012-06-23T06:08:33Z</time>
<extensions>
<speed>3.6</speed>
<temp>0.00</temp>
<bpm>0</bpm>
<rpm>0.00</rpm>
</extensions>
</trkpt>
<trkpt lat="32.587760925" lon="35.013381958">
  <ele>140.974670</ele>
  <time>2012-06-23T06:08:34Z</time>
<extensions>
<speed>3.9</speed>
<temp>0.00</temp>
<bpm>0</bpm>
<rpm>0.00</rpm>
</extensions>
</trkpt>
<trkpt lat="32.587783813" lon="35.013355255">
  <ele>140.169983</ele>
  <time>2012-06-23T06:08:35Z</time>
<extensions>
<speed>3.6</speed>
<temp>0.00</temp>
<bpm>0</bpm>
<rpm>0.00</rpm>
</extensions>
</trkpt>
<trkpt lat="32.587810516" lon="35.013317108">
  <ele>139.252014</ele>
  <time>2012-06-23T06:08:36Z</time>
<extensions>
<speed>4.6</speed>
<temp>0.00</temp>
<bpm>0</bpm>
<rpm>0.00</rpm>
</extensions>
</trkpt>
<trkpt lat="32.587848663" lon="35.013256073">
  <ele>137.701233</ele>
  <time>2012-06-23T06:08:37Z</time>
<extensions>
<speed>5.6</speed>
<temp>0.00</temp>
<bpm>0</bpm>
<rpm>0.00</rpm>
</extensions>
</trkpt>
<trkpt lat="32.587894440" lon="35.013195038">
  <ele>136.275452</ele>
  <time>2012-06-23T06:08:38Z</time>
<extensions>
<speed>5.2</speed>
<temp>0.00</temp>
<bpm>0</bpm>
<rpm>0.00</rpm>
</extensions>
</trkpt>
<trkpt lat="32.587917328" lon="35.013145447">
  <ele>135.466858</ele>
  <time>2012-06-23T06:08:39Z</time>
<extensions>
<speed>5.2</speed>
<temp>0.00</temp>
<bpm>0</bpm>
<rpm>0.00</rpm>
</extensions>
</trkpt>
<trkpt lat="32.587947845" lon="35.013088226">
  <ele>134.982483</ele>
  <time>2012-06-23T06:08:40Z</time>
<extensions>
<speed>5.1</speed>
<temp>0.00</temp>
<bpm>0</bpm>
<rpm>0.00</rpm>
</extensions>
</trkpt>
<trkpt lat="32.587966919" lon="35.013042450">
  <ele>134.435608</ele>
  <time>2012-06-23T06:08:41Z</time>
<extensions>
<speed>4.6</speed>
<temp>0.00</temp>
<bpm>0</bpm>
<rpm>0.00</rpm>
</extensions>
</trkpt>
<trkpt lat="32.587993622" lon="35.012996674">
  <ele>133.884827</ele>
  <time>2012-06-23T06:08:42Z</time>
<extensions>
<speed>4.7</speed>
<temp>0.00</temp>
<bpm>0</bpm>
<rpm>0.00</rpm>
</extensions>
</trkpt>
<trkpt lat="32.588024139" lon="35.012943268">
  <ele>132.591858</ele>
  <time>2012-06-23T06:08:43Z</time>
<extensions>
<speed>5.3</speed>
<temp>0.00</temp>
<bpm>0</bpm>
<rpm>0.00</rpm>
</extensions>
</trkpt>
<trkpt lat="32.588054657" lon="35.012905121">
  <ele>132.154358</ele>
  <time>2012-06-23T06:08:44Z</time>
<extensions>
<speed>4.6</speed>
<temp>0.00</temp>
<bpm>0</bpm>
<rpm>0.00</rpm>
</extensions>
</trkpt>
<trkpt lat="32.588088989" lon="35.012874603">
  <ele>131.380920</ele>
  <time>2012-06-23T06:08:45Z</time>
<extensions>
<speed>4.9</speed>
<temp>0.00</temp>
<bpm>0</bpm>
<rpm>0.00</rpm>
</extensions>
</trkpt>
<trkpt lat="32.588111877" lon="35.012825012">
  <ele>130.931702</ele>
  <time>2012-06-23T06:08:46Z</time>
<extensions>
<speed>4.2</speed>
<temp>0.00</temp>
<bpm>0</bpm>
<rpm>0.00</rpm>
</extensions>
</trkpt>
<trkpt lat="32.588146210" lon="35.012786865">
  <ele>130.400452</ele>
  <time>2012-06-23T06:08:47Z</time>
<extensions>
<speed>4.6</speed>
<temp>0.00</temp>
<bpm>0</bpm>
<rpm>0.00</rpm>
</extensions>
</trkpt>
<trkpt lat="32.588180542" lon="35.012752533">
  <ele>129.341858</ele>
  <time>2012-06-23T06:08:48Z</time>
<extensions>
<speed>4.4</speed>
<temp>0.00</temp>
<bpm>0</bpm>
<rpm>0.00</rpm>
</extensions>
</trkpt>
<trkpt lat="32.588218689" lon="35.012695313">
  <ele>127.961945</ele>
  <time>2012-06-23T06:08:49Z</time>
<extensions>
<speed>4.0</speed>
<temp>0.00</temp>
<bpm>0</bpm>
<rpm>0.00</rpm>
</extensions>
</trkpt>
<trkpt lat="32.588214874" lon="35.012660980">
  <ele>127.493195</ele>
  <time>2012-06-23T06:08:50Z</time>
<extensions>
<speed>3.6</speed>
<temp>0.00</temp>
<bpm>0</bpm>
<rpm>0.00</rpm>
</extensions>
</trkpt>
<trkpt lat="32.588214874" lon="35.012615204">
  <ele>126.592804</ele>
  <time>2012-06-23T06:08:51Z</time>
<extensions>
<speed>4.4</speed>
<temp>0.00</temp>
<bpm>0</bpm>
<rpm>0.00</rpm>
</extensions>
</trkpt>
<trkpt lat="32.588214874" lon="35.012554169">
  <ele>126.168976</ele>
  <time>2012-06-23T06:08:52Z</time>
<extensions>
<speed>5.2</speed>
<temp>0.00</temp>
<bpm>0</bpm>
<rpm>0.00</rpm>
</extensions>
</trkpt>
<trkpt lat="32.588214874" lon="35.012489319">
  <ele>125.147491</ele>
  <time>2012-06-23T06:08:53Z</time>
<extensions>
<speed>5.5</speed>
<temp>0.00</temp>
<bpm>0</bpm>
<rpm>0.00</rpm>
</extensions>
</trkpt>
<trkpt lat="32.588211060" lon="35.012432098">
  <ele>123.653351</ele>
  <time>2012-06-23T06:08:54Z</time>
<extensions>
<speed>5.1</speed>
<temp>0.00</temp>
<bpm>0</bpm>
<rpm>0.00</rpm>
</extensions>
</trkpt>
<trkpt lat="32.588214874" lon="35.012374878">
  <ele>122.266632</ele>
  <time>2012-06-23T06:08:55Z</time>
<extensions>
<speed>4.5</speed>
<temp>0.00</temp>
<bpm>0</bpm>
<rpm>0.00</rpm>
</extensions>
</trkpt>
<trkpt lat="32.588230133" lon="35.012317657">
  <ele>120.010773</ele>
  <time>2012-06-23T06:08:56Z</time>
<extensions>
<speed>2.6</speed>
<temp>0.00</temp>
<bpm>0</bpm>
<rpm>0.00</rpm>
</extensions>
</trkpt>
<trkpt lat="32.588249207" lon="35.012268066">
  <ele>119.592804</ele>
  <time>2012-06-23T06:08:57Z</time>
<extensions>
<speed>3.3</speed>
<temp>0.00</temp>
<bpm>0</bpm>
<rpm>0.00</rpm>
</extensions>
</trkpt>
<trkpt lat="32.588283539" lon="35.012256622">
  <ele>119.604523</ele>
  <time>2012-06-23T06:08:58Z</time>
<extensions>
<speed>3.4</speed>
<temp>0.00</temp>
<bpm>0</bpm>
<rpm>0.00</rpm>
</extensions>
</trkpt>
<trkpt lat="32.588310242" lon="35.012317657">
  <ele>119.649445</ele>
  <time>2012-06-23T06:09:00Z</time>
<extensions>
<speed>4.2</speed>
<temp>0.00</temp>
<bpm>0</bpm>
<rpm>0.00</rpm>
</extensions>
</trkpt>
<trkpt lat="32.588336945" lon="35.012336731">
  <ele>117.807648</ele>
  <time>2012-06-23T06:09:01Z</time>
<extensions>
<speed>3.8</speed>
<temp>0.00</temp>
<bpm>0</bpm>
<rpm>0.00</rpm>
</extensions>
</trkpt>
<trkpt lat="32.588375092" lon="35.012329102">
  <ele>116.305695</ele>
  <time>2012-06-23T06:09:02Z</time>
<extensions>
<speed>3.2</speed>
<temp>0.00</temp>
<bpm>0</bpm>
<rpm>0.00</rpm>
</extensions>
</trkpt>
<trkpt lat="32.588405609" lon="35.012294769">
  <ele>115.864288</ele>
  <time>2012-06-23T06:09:03Z</time>
<extensions>
<speed>4.6</speed>
<temp>0.00</temp>
<bpm>0</bpm>
<rpm>0.00</rpm>
</extensions>
</trkpt>
<trkpt lat="32.588424683" lon="35.012248993">
  <ele>115.059601</ele>
  <time>2012-06-23T06:09:04Z</time>
<extensions>
<speed>4.2</speed>
<temp>0.00</temp>
<bpm>0</bpm>
<rpm>0.00</rpm>
</extensions>
</trkpt>
<trkpt lat="32.588451385" lon="35.012195587">
  <ele>114.081085</ele>
  <time>2012-06-23T06:09:05Z</time>
<extensions>
<speed>5.3</speed>
<temp>0.00</temp>
<bpm>0</bpm>
<rpm>0.00</rpm>
</extensions>
</trkpt>
<trkpt lat="32.588462830" lon="35.012138367">
  <ele>112.690460</ele>
  <time>2012-06-23T06:09:06Z</time>
<extensions>
<speed>4.6</speed>
<temp>0.00</temp>
<bpm>0</bpm>
<rpm>0.00</rpm>
</extensions>
</trkpt>
<trkpt lat="32.588459015" lon="35.012081146">
  <ele>113.014679</ele>
  <time>2012-06-23T06:09:07Z</time>
<extensions>
<speed>5.1</speed>
<temp>0.00</temp>
<bpm>0</bpm>
<rpm>0.00</rpm>
</extensions>
</trkpt>
<trkpt lat="32.588466644" lon="35.012027740">
  <ele>111.704132</ele>
  <time>2012-06-23T06:09:08Z</time>
<extensions>
<speed>4.0</speed>
<temp>0.00</temp>
<bpm>0</bpm>
<rpm>0.00</rpm>
</extensions>
</trkpt>
<trkpt lat="32.588485718" lon="35.011985779">
  <ele>110.940460</ele>
  <time>2012-06-23T06:09:09Z</time>
<extensions>
<speed>4.4</speed>
<temp>0.00</temp>
<bpm>0</bpm>
<rpm>0.00</rpm>
</extensions>
</trkpt>
<trkpt lat="32.588516235" lon="35.011940002">
  <ele>109.258820</ele>
  <time>2012-06-23T06:09:10Z</time>
<extensions>
<speed>5.0</speed>
<temp>0.00</temp>
<bpm>0</bpm>
<rpm>0.00</rpm>
</extensions>
</trkpt>
<trkpt lat="32.588539124" lon="35.011894226">
  <ele>107.979523</ele>
  <time>2012-06-23T06:09:11Z</time>
<extensions>
<speed>4.9</speed>
<temp>0.00</temp>
<bpm>0</bpm>
<rpm>0.00</rpm>
</extensions>
</trkpt>
<trkpt lat="32.588573456" lon="35.011859894">
  <ele>107.243195</ele>
  <time>2012-06-23T06:09:12Z</time>
<extensions>
<speed>3.8</speed>
<temp>0.00</temp>
<bpm>0</bpm>
<rpm>0.00</rpm>
</extensions>
</trkpt>
<trkpt lat="32.588607788" lon="35.011825562">
  <ele>106.532257</ele>
  <time>2012-06-23T06:09:13Z</time>
<extensions>
<speed>4.8</speed>
<temp>0.00</temp>
<bpm>0</bpm>
<rpm>0.00</rpm>
</extensions>
</trkpt>
<trkpt lat="32.588638306" lon="35.011783600">
  <ele>105.459991</ele>
  <time>2012-06-23T06:09:14Z</time>
<extensions>
<speed>4.3</speed>
<temp>0.00</temp>
<bpm>0</bpm>
<rpm>0.00</rpm>
</extensions>
</trkpt>
<trkpt lat="32.588668823" lon="35.011737823">
  <ele>105.036163</ele>
  <time>2012-06-23T06:09:15Z</time>
<extensions>
<speed>4.7</speed>
<temp>0.00</temp>
<bpm>0</bpm>
<rpm>0.00</rpm>
</extensions>
</trkpt>
<trkpt lat="32.588699341" lon="35.011684418">
  <ele>104.782257</ele>
  <time>2012-06-23T06:09:16Z</time>
<extensions>
<speed>5.2</speed>
<temp>0.00</temp>
<bpm>0</bpm>
<rpm>0.00</rpm>
</extensions>
</trkpt>
<trkpt lat="32.588718414" lon="35.011615753">
  <ele>105.481476</ele>
  <time>2012-06-23T06:09:17Z</time>
<extensions>
<speed>5.2</speed>
<temp>0.00</temp>
<bpm>0</bpm>
<rpm>0.00</rpm>
</extensions>
</trkpt>
<trkpt lat="32.588733673" lon="35.011562347">
  <ele>104.989288</ele>
  <time>2012-06-23T06:09:18Z</time>
<extensions>
<speed>4.6</speed>
<temp>0.00</temp>
<bpm>0</bpm>
<rpm>0.00</rpm>
</extensions>
</trkpt>
<trkpt lat="32.588745117" lon="35.011512756">
  <ele>104.022491</ele>
  <time>2012-06-23T06:09:19Z</time>
<extensions>
<speed>5.4</speed>
<temp>0.00</temp>
<bpm>0</bpm>
<rpm>0.00</rpm>
</extensions>
</trkpt>
<trkpt lat="32.588768005" lon="35.011463165">
  <ele>102.876007</ele>
  <time>2012-06-23T06:09:20Z</time>
<extensions>
<speed>5.2</speed>
<temp>0.00</temp>
<bpm>0</bpm>
<rpm>0.00</rpm>
</extensions>
</trkpt>
<trkpt lat="32.588798523" lon="35.011413574">
  <ele>102.233429</ele>
  <time>2012-06-23T06:09:21Z</time>
<extensions>
<speed>6.3</speed>
<temp>0.00</temp>
<bpm>0</bpm>
<rpm>0.00</rpm>
</extensions>
</trkpt>
<trkpt lat="32.588821411" lon="35.011360168">
  <ele>101.747101</ele>
  <time>2012-06-23T06:09:22Z</time>
<extensions>
<speed>5.3</speed>
<temp>0.00</temp>
<bpm>0</bpm>
<rpm>0.00</rpm>
</extensions>
</trkpt>
<trkpt lat="32.588855743" lon="35.011310577">
  <ele>101.581085</ele>
  <time>2012-06-23T06:09:23Z</time>
<extensions>
<speed>5.8</speed>
<temp>0.00</temp>
<bpm>0</bpm>
<rpm>0.00</rpm>
</extensions>
</trkpt>
<trkpt lat="32.588890076" lon="35.011257172">
  <ele>100.729523</ele>
  <time>2012-06-23T06:09:24Z</time>
<extensions>
<speed>5.7</speed>
<temp>0.00</temp>
<bpm>0</bpm>
<rpm>0.00</rpm>
</extensions>
</trkpt>
<trkpt lat="32.588916779" lon="35.011207581">
  <ele>99.270538</ele>
  <time>2012-06-23T06:09:25Z</time>
<extensions>
<speed>4.9</speed>
<temp>0.00</temp>
<bpm>0</bpm>
<rpm>0.00</rpm>
</extensions>
</trkpt>
<trkpt lat="32.588928223" lon="35.011165619">
  <ele>98.401398</ele>
  <time>2012-06-23T06:09:26Z</time>
<extensions>
<speed>4.1</speed>
<temp>0.00</temp>
<bpm>0</bpm>
<rpm>0.00</rpm>
</extensions>
</trkpt>
<trkpt lat="32.588935852" lon="35.011116028">
  <ele>97.219757</ele>
  <time>2012-06-23T06:09:27Z</time>
<extensions>
<speed>4.5</speed>
<temp>0.00</temp>
<bpm>0</bpm>
<rpm>0.00</rpm>
</extensions>
</trkpt>
<trkpt lat="32.588928223" lon="35.011074066">
  <ele>96.104523</ele>
  <time>2012-06-23T06:09:28Z</time>
<extensions>
<speed>4.1</speed>
<temp>0.00</temp>
<bpm>0</bpm>
<rpm>0.00</rpm>
</extensions>
</trkpt>
<trkpt lat="32.588901520" lon="35.011024475">
  <ele>95.067413</ele>
  <time>2012-06-23T06:09:29Z</time>
<extensions>
<speed>4.5</speed>
<temp>0.00</temp>
<bpm>0</bpm>
<rpm>0.00</rpm>
</extensions>
</trkpt>
<trkpt lat="32.588886261" lon="35.010974884">
  <ele>93.999054</ele>
  <time>2012-06-23T06:09:30Z</time>
<extensions>
<speed>4.7</speed>
<temp>0.00</temp>
<bpm>0</bpm>
<rpm>0.00</rpm>
</extensions>
</trkpt>
<trkpt lat="32.588871002" lon="35.010925293">
  <ele>93.325226</ele>
  <time>2012-06-23T06:09:31Z</time>
<extensions>
<speed>4.2</speed>
<temp>0.00</temp>
<bpm>0</bpm>
<rpm>0.00</rpm>
</extensions>
</trkpt>
<trkpt lat="32.588878632" lon="35.010868073">
  <ele>92.991241</ele>
  <time>2012-06-23T06:09:32Z</time>
<extensions>
<speed>4.2</speed>
<temp>0.00</temp>
<bpm>0</bpm>
<rpm>0.00</rpm>
</extensions>
</trkpt>
<trkpt lat="32.588893890" lon="35.010826111">
  <ele>92.170929</ele>
  <time>2012-06-23T06:09:33Z</time>
<extensions>
<speed>4.6</speed>
<temp>0.00</temp>
<bpm>0</bpm>
<rpm>0.00</rpm>
</extensions>
</trkpt>
<trkpt lat="32.588916779" lon="35.010776520">
  <ele>91.620148</ele>
  <time>2012-06-23T06:09:34Z</time>
<extensions>
<speed>5.1</speed>
<temp>0.00</temp>
<bpm>0</bpm>
<rpm>0.00</rpm>
</extensions>
</trkpt>
<trkpt lat="32.588943481" lon="35.010704041">
  <ele>90.782257</ele>
  <time>2012-06-23T06:09:35Z</time>
<extensions>
<speed>6.1</speed>
<temp>0.00</temp>
<bpm>0</bpm>
<rpm>0.00</rpm>
</extensions>
</trkpt>
<trkpt lat="32.588966370" lon="35.010593414">
  <ele>93.213898</ele>
  <time>2012-06-23T06:09:36Z</time>
<extensions>
<speed>6.7</speed>
<temp>0.00</temp>
<bpm>0</bpm>
<rpm>0.00</rpm>
</extensions>
</trkpt>
<trkpt lat="32.589000702" lon="35.010540009">
  <ele>92.792023</ele>
  <time>2012-06-23T06:09:37Z</time>
<extensions>
<speed>4.8</speed>
<temp>0.00</temp>
<bpm>0</bpm>
<rpm>0.00</rpm>
</extensions>
</trkpt>
<trkpt lat="32.589046478" lon="35.010509491">
  <ele>93.042023</ele>
  <time>2012-06-23T06:09:38Z</time>
<extensions>
<speed>5.5</speed>
<temp>0.00</temp>
<bpm>0</bpm>
<rpm>0.00</rpm>
</extensions>
</trkpt>
<trkpt lat="32.589092255" lon="35.010494232">
  <ele>92.549835</ele>
  <time>2012-06-23T06:09:39Z</time>
<extensions>
<speed>4.8</speed>
<temp>0.00</temp>
<bpm>0</bpm>
<rpm>0.00</rpm>
</extensions>
</trkpt>
<trkpt lat="32.589126587" lon="35.010482788">
  <ele>91.973663</ele>
  <time>2012-06-23T06:09:40Z</time>
<extensions>
<speed>4.8</speed>
<temp>0.00</temp>
<bpm>0</bpm>
<rpm>0.00</rpm>
</extensions>
</trkpt>
<trkpt lat="32.589157104" lon="35.010463715">
  <ele>91.034210</ele>
  <time>2012-06-23T06:09:41Z</time>
<extensions>
<speed>2.9</speed>
<temp>0.00</temp>
<bpm>0</bpm>
<rpm>0.00</rpm>
</extensions>
</trkpt>
<trkpt lat="32.589187622" lon="35.010429382">
  <ele>90.495148</ele>
  <time>2012-06-23T06:09:42Z</time>
<extensions>
<speed>4.0</speed>
<temp>0.00</temp>
<bpm>0</bpm>
<rpm>0.00</rpm>
</extensions>
</trkpt>
<trkpt lat="32.589210510" lon="35.010395050">
  <ele>89.329132</ele>
  <time>2012-06-23T06:09:43Z</time>
<extensions>
<speed>4.0</speed>
<temp>0.00</temp>
<bpm>0</bpm>
<rpm>0.00</rpm>
</extensions>
</trkpt>
<trkpt lat="32.589233398" lon="35.010375977">
  <ele>88.655304</ele>
  <time>2012-06-23T06:09:44Z</time>
<extensions>
<speed>2.6</speed>
<temp>0.00</temp>
<bpm>0</bpm>
<rpm>0.00</rpm>
</extensions>
</trkpt>
<trkpt lat="32.589290619" lon="35.010379791">
  <ele>87.876007</ele>
  <time>2012-06-23T06:09:46Z</time>
<extensions>
<speed>4.3</speed>
<temp>0.00</temp>
<bpm>0</bpm>
<rpm>0.00</rpm>
</extensions>
</trkpt>
<trkpt lat="32.589328766" lon="35.010383606">
  <ele>87.358429</ele>
  <time>2012-06-23T06:09:47Z</time>
<extensions>
<speed>4.3</speed>
<temp>0.00</temp>
<bpm>0</bpm>
<rpm>0.00</rpm>
</extensions>
</trkpt>
<trkpt lat="32.589366913" lon="35.010387421">
  <ele>88.551788</ele>
  <time>2012-06-23T06:09:48Z</time>
<extensions>
<speed>4.4</speed>
<temp>0.00</temp>
<bpm>0</bpm>
<rpm>0.00</rpm>
</extensions>
</trkpt>
<trkpt lat="32.589424133" lon="35.010383606">
  <ele>90.274445</ele>
  <time>2012-06-23T06:09:49Z</time>
<extensions>
<speed>4.1</speed>
<temp>0.00</temp>
<bpm>0</bpm>
<rpm>0.00</rpm>
</extensions>
</trkpt>
<trkpt lat="32.589454651" lon="35.010379791">
  <ele>90.342804</ele>
  <time>2012-06-23T06:09:50Z</time>
<extensions>
<speed>2.9</speed>
<temp>0.00</temp>
<bpm>0</bpm>
<rpm>0.00</rpm>
</extensions>
</trkpt>
<trkpt lat="32.589488983" lon="35.010387421">
  <ele>90.667023</ele>
  <time>2012-06-23T06:09:52Z</time>
<extensions>
<speed>1.6</speed>
<temp>0.00</temp>
<bpm>0</bpm>
<rpm>0.00</rpm>
</extensions>
</trkpt>
<trkpt lat="32.589519501" lon="35.010395050">
  <ele>91.354523</ele>
  <time>2012-06-23T06:09:54Z</time>
<extensions>
<speed>1.7</speed>
<temp>0.00</temp>
<bpm>0</bpm>
<rpm>0.00</rpm>
</extensions>
</trkpt>
<trkpt lat="32.589569092" lon="35.010398865">
  <ele>91.143585</ele>
  <time>2012-06-23T06:09:56Z</time>
<extensions>
<speed>2.6</speed>
<temp>0.00</temp>
<bpm>0</bpm>
<rpm>0.00</rpm>
</extensions>
</trkpt>
<trkpt lat="32.589599609" lon="35.010402679">
  <ele>91.036163</ele>
  <time>2012-06-23T06:09:57Z</time>
<extensions>
<speed>2.9</speed>
<temp>0.00</temp>
<bpm>0</bpm>
<rpm>0.00</rpm>
</extensions>
</trkpt>
<trkpt lat="32.589679718" lon="35.010410309">
  <ele>92.417023</ele>
  <time>2012-06-23T06:09:59Z</time>
<extensions>
<speed>3.0</speed>
<temp>0.00</temp>
<bpm>0</bpm>
<rpm>0.00</rpm>
</extensions>
</trkpt>
<trkpt lat="32.589729309" lon="35.010402679">
  <ele>92.122101</ele>
  <time>2012-06-23T06:10:00Z</time>
<extensions>
<speed>3.3</speed>
<temp>0.00</temp>
<bpm>0</bpm>
<rpm>0.00</rpm>
</extensions>
</trkpt>
<trkpt lat="32.589763641" lon="35.010398865">
  <ele>92.237335</ele>
  <time>2012-06-23T06:10:01Z</time>
<extensions>
<speed>3.6</speed>
<temp>0.00</temp>
<bpm>0</bpm>
<rpm>0.00</rpm>
</extensions>
</trkpt>
<trkpt lat="32.589813232" lon="35.010391235">
  <ele>91.016632</ele>
  <time>2012-06-23T06:10:02Z</time>
<extensions>
<speed>4.4</speed>
<temp>0.00</temp>
<bpm>0</bpm>
<rpm>0.00</rpm>
</extensions>
</trkpt>
<trkpt lat="32.589862823" lon="35.010391235">
  <ele>90.325226</ele>
  <time>2012-06-23T06:10:03Z</time>
<extensions>
<speed>4.5</speed>
<temp>0.00</temp>
<bpm>0</bpm>
<rpm>0.00</rpm>
</extensions>
</trkpt>
<trkpt lat="32.589885712" lon="35.010410309">
  <ele>89.598663</ele>
  <time>2012-06-23T06:10:04Z</time>
<extensions>
<speed>3.6</speed>
<temp>0.00</temp>
<bpm>0</bpm>
<rpm>0.00</rpm>
</extensions>
</trkpt>
<trkpt lat="32.589916229" lon="35.010444641">
  <ele>88.997101</ele>
  <time>2012-06-23T06:10:05Z</time>
<extensions>
<speed>4.0</speed>
<temp>0.00</temp>
<bpm>0</bpm>
<rpm>0.00</rpm>
</extensions>
</trkpt>
<trkpt lat="32.589939117" lon="35.010478973">
  <ele>87.895538</ele>
  <time>2012-06-23T06:10:06Z</time>
<extensions>
<speed>4.0</speed>
<temp>0.00</temp>
<bpm>0</bpm>
<rpm>0.00</rpm>
</extensions>
</trkpt>
<trkpt lat="32.589969635" lon="35.010517120">
  <ele>87.280304</ele>
  <time>2012-06-23T06:10:07Z</time>
<extensions>
<speed>4.5</speed>
<temp>0.00</temp>
<bpm>0</bpm>
<rpm>0.00</rpm>
</extensions>
</trkpt>
<trkpt lat="32.590007782" lon="35.010547638">
  <ele>86.477570</ele>
  <time>2012-06-23T06:10:08Z</time>
<extensions>
<speed>4.8</speed>
<temp>0.00</temp>
<bpm>0</bpm>
<rpm>0.00</rpm>
</extensions>
</trkpt>
<trkpt lat="32.590042114" lon="35.010570526">
  <ele>86.499054</ele>
  <time>2012-06-23T06:10:09Z</time>
<extensions>
<speed>3.4</speed>
<temp>0.00</temp>
<bpm>0</bpm>
<rpm>0.00</rpm>
</extensions>
</trkpt>
<trkpt lat="32.590045929" lon="35.010612488">
  <ele>85.409210</ele>
  <time>2012-06-23T06:10:11Z</time>
<extensions>
<speed>3.1</speed>
<temp>0.00</temp>
<bpm>0</bpm>
<rpm>0.00</rpm>
</extensions>
</trkpt>
<trkpt lat="32.590084076" lon="35.010627747">
  <ele>86.932648</ele>
  <time>2012-06-23T06:10:12Z</time>
<extensions>
<speed>3.2</speed>
<temp>0.00</temp>
<bpm>0</bpm>
<rpm>0.00</rpm>
</extensions>
</trkpt>
<trkpt lat="32.590053558" lon="35.010658264">
  <ele>85.864288</ele>
  <time>2012-06-23T06:10:13Z</time>
<extensions>
<speed>4.6</speed>
<temp>0.00</temp>
<bpm>0</bpm>
<rpm>0.00</rpm>
</extensions>
</trkpt>
<trkpt lat="32.590023041" lon="35.010696411">
  <ele>85.217804</ele>
  <time>2012-06-23T06:10:14Z</time>
<extensions>
<speed>4.8</speed>
<temp>0.00</temp>
<bpm>0</bpm>
<rpm>0.00</rpm>
</extensions>
</trkpt>
<trkpt lat="32.589996338" lon="35.010749817">
  <ele>84.471710</ele>
  <time>2012-06-23T06:10:15Z</time>
<extensions>
<speed>6.1</speed>
<temp>0.00</temp>
<bpm>0</bpm>
<rpm>0.00</rpm>
</extensions>
</trkpt>
<trkpt lat="32.589958191" lon="35.010807037">
  <ele>84.098663</ele>
  <time>2012-06-23T06:10:16Z</time>
<extensions>
<speed>5.7</speed>
<temp>0.00</temp>
<bpm>0</bpm>
<rpm>0.00</rpm>
</extensions>
</trkpt>
<trkpt lat="32.589927673" lon="35.010860443">
  <ele>83.372101</ele>
  <time>2012-06-23T06:10:17Z</time>
<extensions>
<speed>5.8</speed>
<temp>0.00</temp>
<bpm>0</bpm>
<rpm>0.00</rpm>
</extensions>
</trkpt>
<trkpt lat="32.589916229" lon="35.010890961">
  <ele>82.364288</ele>
  <time>2012-06-23T06:10:18Z</time>
<extensions>
<speed>3.0</speed>
<temp>0.00</temp>
<bpm>0</bpm>
<rpm>0.00</rpm>
</extensions>
</trkpt>
<trkpt lat="32.589923859" lon="35.010963440">
  <ele>80.897491</ele>
  <time>2012-06-23T06:10:19Z</time>
<extensions>
<speed>3.3</speed>
<temp>0.00</temp>
<bpm>0</bpm>
<rpm>0.00</rpm>
</extensions>
</trkpt>
<trkpt lat="32.589931488" lon="35.011035919">
  <ele>82.930695</ele>
  <time>2012-06-23T06:10:20Z</time>
<extensions>
<speed>2.4</speed>
<temp>0.00</temp>
<bpm>0</bpm>
<rpm>0.00</rpm>
</extensions>
</trkpt>
<trkpt lat="32.589962006" lon="35.011054993">
  <ele>82.379913</ele>
  <time>2012-06-23T06:10:23Z</time>
<extensions>
<speed>0.3</speed>
<temp>0.00</temp>
<bpm>0</bpm>
<rpm>0.00</rpm>
</extensions>
</trkpt>
<trkpt lat="32.589954376" lon="35.011070251">
  <ele>85.725616</ele>
  <time>2012-06-23T06:10:25Z</time>
<extensions>
<speed>0.2</speed>
<temp>0.00</temp>
<bpm>0</bpm>
<rpm>0.00</rpm>
</extensions>
</trkpt>
<trkpt lat="32.590007782" lon="35.011066437">
  <ele>85.266632</ele>
  <time>2012-06-23T06:11:07Z</time>
<extensions>
<speed>1.8</speed>
<temp>0.00</temp>
<bpm>0</bpm>
<rpm>0.00</rpm>
</extensions>
</trkpt>
<trkpt lat="32.590049744" lon="35.011081696">
  <ele>84.877960</ele>
  <time>2012-06-23T06:11:08Z</time>
<extensions>
<speed>3.6</speed>
<temp>0.00</temp>
<bpm>0</bpm>
<rpm>0.00</rpm>
</extensions>
</trkpt>
<trkpt lat="32.590087891" lon="35.011085510">
  <ele>84.858429</ele>
  <time>2012-06-23T06:11:09Z</time>
<extensions>
<speed>4.7</speed>
<temp>0.00</temp>
<bpm>0</bpm>
<rpm>0.00</rpm>
</extensions>
</trkpt>
<trkpt lat="32.590141296" lon="35.011085510">
  <ele>84.549835</ele>
  <time>2012-06-23T06:11:10Z</time>
<extensions>
<speed>5.2</speed>
<temp>0.00</temp>
<bpm>0</bpm>
<rpm>0.00</rpm>
</extensions>
</trkpt>
<trkpt lat="32.590190887" lon="35.011089325">
  <ele>84.299835</ele>
  <time>2012-06-23T06:11:11Z</time>
<extensions>
<speed>6.0</speed>
<temp>0.00</temp>
<bpm>0</bpm>
<rpm>0.00</rpm>
</extensions>
</trkpt>
<trkpt lat="32.590248108" lon="35.011093140">
  <ele>83.985382</ele>
  <time>2012-06-23T06:11:12Z</time>
<extensions>
<speed>6.4</speed>
<temp>0.00</temp>
<bpm>0</bpm>
<rpm>0.00</rpm>
</extensions>
</trkpt>
<trkpt lat="32.590316772" lon="35.011089325">
  <ele>83.844757</ele>
  <time>2012-06-23T06:11:13Z</time>
<extensions>
<speed>7.2</speed>
<temp>0.00</temp>
<bpm>0</bpm>
<rpm>0.00</rpm>
</extensions>
</trkpt>
<trkpt lat="32.590393066" lon="35.011085510">
  <ele>82.958038</ele>
  <time>2012-06-23T06:11:14Z</time>
<extensions>
<speed>7.4</speed>
<temp>0.00</temp>
<bpm>0</bpm>
<rpm>0.00</rpm>
</extensions>
</trkpt>
<trkpt lat="32.590465546" lon="35.011085510">
  <ele>82.311554</ele>
  <time>2012-06-23T06:11:15Z</time>
<extensions>
<speed>8.3</speed>
<temp>0.00</temp>
<bpm>0</bpm>
<rpm>0.00</rpm>
</extensions>
</trkpt>
<trkpt lat="32.590538025" lon="35.011081696">
  <ele>81.829132</ele>
  <time>2012-06-23T06:11:16Z</time>
<extensions>
<speed>8.5</speed>
<temp>0.00</temp>
<bpm>0</bpm>
<rpm>0.00</rpm>
</extensions>
</trkpt>
<trkpt lat="32.590625763" lon="35.011085510">
  <ele>81.206085</ele>
  <time>2012-06-23T06:11:17Z</time>
<extensions>
<speed>8.9</speed>
<temp>0.00</temp>
<bpm>0</bpm>
<rpm>0.00</rpm>
</extensions>
</trkpt>
<trkpt lat="32.590705872" lon="35.011089325">
  <ele>80.262726</ele>
  <time>2012-06-23T06:11:18Z</time>
<extensions>
<speed>8.8</speed>
<temp>0.00</temp>
<bpm>0</bpm>
<rpm>0.00</rpm>
</extensions>
</trkpt>
<trkpt lat="32.590785980" lon="35.011089325">
  <ele>79.432648</ele>
  <time>2012-06-23T06:11:19Z</time>
<extensions>
<speed>8.6</speed>
<temp>0.00</temp>
<bpm>0</bpm>
<rpm>0.00</rpm>
</extensions>
</trkpt>
<trkpt lat="32.590862274" lon="35.011093140">
  <ele>78.727570</ele>
  <time>2012-06-23T06:11:20Z</time>
<extensions>
<speed>8.9</speed>
<temp>0.00</temp>
<bpm>0</bpm>
<rpm>0.00</rpm>
</extensions>
</trkpt>
<trkpt lat="32.590934753" lon="35.011100769">
  <ele>77.745148</ele>
  <time>2012-06-23T06:11:21Z</time>
<extensions>
<speed>8.8</speed>
<temp>0.00</temp>
<bpm>0</bpm>
<rpm>0.00</rpm>
</extensions>
</trkpt>
<trkpt lat="32.591018677" lon="35.011089325">
  <ele>77.084991</ele>
  <time>2012-06-23T06:11:22Z</time>
<extensions>
<speed>9.3</speed>
<temp>0.00</temp>
<bpm>0</bpm>
<rpm>0.00</rpm>
</extensions>
</trkpt>
<trkpt lat="32.591102600" lon="35.011077881">
  <ele>76.309601</ele>
  <time>2012-06-23T06:11:23Z</time>
<extensions>
<speed>9.0</speed>
<temp>0.00</temp>
<bpm>0</bpm>
<rpm>0.00</rpm>
</extensions>
</trkpt>
<trkpt lat="32.591194153" lon="35.011070251">
  <ele>75.704132</ele>
  <time>2012-06-23T06:11:24Z</time>
<extensions>
<speed>8.9</speed>
<temp>0.00</temp>
<bpm>0</bpm>
<rpm>0.00</rpm>
</extensions>
</trkpt>
<trkpt lat="32.591278076" lon="35.011058807">
  <ele>74.766632</ele>
  <time>2012-06-23T06:11:25Z</time>
<extensions>
<speed>10.1</speed>
<temp>0.00</temp>
<bpm>0</bpm>
<rpm>0.00</rpm>
</extensions>
</trkpt>
<trkpt lat="32.591362000" lon="35.011043549">
  <ele>74.311554</ele>
  <time>2012-06-23T06:11:26Z</time>
<extensions>
<speed>8.9</speed>
<temp>0.00</temp>
<bpm>0</bpm>
<rpm>0.00</rpm>
</extensions>
</trkpt>
<trkpt lat="32.591445923" lon="35.011032104">
  <ele>73.727570</ele>
  <time>2012-06-23T06:11:27Z</time>
<extensions>
<speed>8.8</speed>
<temp>0.00</temp>
<bpm>0</bpm>
<rpm>0.00</rpm>
</extensions>
</trkpt>
<trkpt lat="32.591529846" lon="35.011001587">
  <ele>72.756866</ele>
  <time>2012-06-23T06:11:28Z</time>
<extensions>
<speed>9.4</speed>
<temp>0.00</temp>
<bpm>0</bpm>
<rpm>0.00</rpm>
</extensions>
</trkpt>
<trkpt lat="32.591613770" lon="35.010986328">
  <ele>71.694366</ele>
  <time>2012-06-23T06:11:29Z</time>
<extensions>
<speed>9.1</speed>
<temp>0.00</temp>
<bpm>0</bpm>
<rpm>0.00</rpm>
</extensions>
</trkpt>
<trkpt lat="32.591693878" lon="35.010971069">
  <ele>70.379913</ele>
  <time>2012-06-23T06:11:30Z</time>
<extensions>
<speed>8.5</speed>
<temp>0.00</temp>
<bpm>0</bpm>
<rpm>0.00</rpm>
</extensions>
</trkpt>
<trkpt lat="32.591781616" lon="35.010932922">
  <ele>69.942413</ele>
  <time>2012-06-23T06:11:31Z</time>
<extensions>
<speed>8.4</speed>
<temp>0.00</temp>
<bpm>0</bpm>
<rpm>0.00</rpm>
</extensions>
</trkpt>
<trkpt lat="32.591876984" lon="35.010890961">
  <ele>69.764679</ele>
  <time>2012-06-23T06:11:32Z</time>
<extensions>
<speed>9.2</speed>
<temp>0.00</temp>
<bpm>0</bpm>
<rpm>0.00</rpm>
</extensions>
</trkpt>
<trkpt lat="32.591949463" lon="35.010852814">
  <ele>69.600616</ele>
  <time>2012-06-23T06:11:33Z</time>
<extensions>
<speed>8.6</speed>
<temp>0.00</temp>
<bpm>0</bpm>
<rpm>0.00</rpm>
</extensions>
</trkpt>
<trkpt lat="32.592021942" lon="35.010810852">
  <ele>69.209991</ele>
  <time>2012-06-23T06:11:34Z</time>
<extensions>
<speed>9.0</speed>
<temp>0.00</temp>
<bpm>0</bpm>
<rpm>0.00</rpm>
</extensions>
</trkpt>
<trkpt lat="32.592102051" lon="35.010757446">
  <ele>67.376007</ele>
  <time>2012-06-23T06:11:35Z</time>
<extensions>
<speed>8.7</speed>
<temp>0.00</temp>
<bpm>0</bpm>
<rpm>0.00</rpm>
</extensions>
</trkpt>
<trkpt lat="32.592182159" lon="35.010704041">
  <ele>66.772491</ele>
  <time>2012-06-23T06:11:36Z</time>
<extensions>
<speed>8.3</speed>
<temp>0.00</temp>
<bpm>0</bpm>
<rpm>0.00</rpm>
</extensions>
</trkpt>
<trkpt lat="32.592250824" lon="35.010658264">
  <ele>65.592804</ele>
  <time>2012-06-23T06:11:37Z</time>
<extensions>
<speed>7.5</speed>
<temp>0.00</temp>
<bpm>0</bpm>
<rpm>0.00</rpm>
</extensions>
</trkpt>
<trkpt lat="32.592311859" lon="35.010612488">
  <ele>63.756363</ele>
  <time>2012-06-23T06:11:38Z</time>
<extensions>
<speed>7.1</speed>
<temp>0.00</temp>
<bpm>0</bpm>
<rpm>0.00</rpm>
</extensions>
</trkpt>
<trkpt lat="32.592365265" lon="35.010566711">
  <ele>62.801285</ele>
  <time>2012-06-23T06:11:39Z</time>
<extensions>
<speed>7.0</speed>
<temp>0.00</temp>
<bpm>0</bpm>
<rpm>0.00</rpm>
</extensions>
</trkpt>
<trkpt lat="32.592411041" lon="35.010520935">
  <ele>62.085464</ele>
  <time>2012-06-23T06:11:40Z</time>
<extensions>
<speed>7.0</speed>
<temp>0.00</temp>
<bpm>0</bpm>
<rpm>0.00</rpm>
</extensions>
</trkpt>
<trkpt lat="32.592453003" lon="35.010475159">
  <ele>61.469254</ele>
  <time>2012-06-23T06:11:41Z</time>
<extensions>
<speed>6.6</speed>
<temp>0.00</temp>
<bpm>0</bpm>
<rpm>0.00</rpm>
</extensions>
</trkpt>
<trkpt lat="32.592494965" lon="35.010417938">
  <ele>60.371597</ele>
  <time>2012-06-23T06:11:42Z</time>
<extensions>
<speed>6.7</speed>
<temp>0.00</temp>
<bpm>0</bpm>
<rpm>0.00</rpm>
</extensions>
</trkpt>
<trkpt lat="32.592525482" lon="35.010360718">
  <ele>60.006363</ele>
  <time>2012-06-23T06:11:43Z</time>
<extensions>
<speed>6.5</speed>
<temp>0.00</temp>
<bpm>0</bpm>
<rpm>0.00</rpm>
</extensions>
</trkpt>
<trkpt lat="32.592559814" lon="35.010295868">
  <ele>59.104019</ele>
  <time>2012-06-23T06:11:44Z</time>
<extensions>
<speed>6.9</speed>
<temp>0.00</temp>
<bpm>0</bpm>
<rpm>0.00</rpm>
</extensions>
</trkpt>
<trkpt lat="32.592590332" lon="35.010231018">
  <ele>58.377457</ele>
  <time>2012-06-23T06:11:45Z</time>
<extensions>
<speed>6.4</speed>
<temp>0.00</temp>
<bpm>0</bpm>
<rpm>0.00</rpm>
</extensions>
</trkpt>
<trkpt lat="32.592609406" lon="35.010166168">
  <ele>57.521988</ele>
  <time>2012-06-23T06:11:46Z</time>
<extensions>
<speed>6.7</speed>
<temp>0.00</temp>
<bpm>0</bpm>
<rpm>0.00</rpm>
</extensions>
</trkpt>
<trkpt lat="32.592636108" lon="35.010097504">
  <ele>56.641129</ele>
  <time>2012-06-23T06:11:47Z</time>
<extensions>
<speed>6.5</speed>
<temp>0.00</temp>
<bpm>0</bpm>
<rpm>0.00</rpm>
</extensions>
</trkpt>
<trkpt lat="32.592662811" lon="35.010028839">
  <ele>55.584488</ele>
  <time>2012-06-23T06:11:48Z</time>
<extensions>
<speed>6.7</speed>
<temp>0.00</temp>
<bpm>0</bpm>
<rpm>0.00</rpm>
</extensions>
</trkpt>
<trkpt lat="32.592693329" lon="35.009960175">
  <ele>54.415543</ele>
  <time>2012-06-23T06:11:49Z</time>
<extensions>
<speed>6.5</speed>
<temp>0.00</temp>
<bpm>0</bpm>
<rpm>0.00</rpm>
</extensions>
</trkpt>
<trkpt lat="32.592712402" lon="35.009887695">
  <ele>53.650894</ele>
  <time>2012-06-23T06:11:50Z</time>
<extensions>
<speed>6.6</speed>
<temp>0.00</temp>
<bpm>0</bpm>
<rpm>0.00</rpm>
</extensions>
</trkpt>
<trkpt lat="32.592712402" lon="35.009815216">
  <ele>52.575699</ele>
  <time>2012-06-23T06:11:51Z</time>
<extensions>
<speed>6.4</speed>
<temp>0.00</temp>
<bpm>0</bpm>
<rpm>0.00</rpm>
</extensions>
</trkpt>
<trkpt lat="32.592712402" lon="35.009750366">
  <ele>51.558121</ele>
  <time>2012-06-23T06:11:52Z</time>
<extensions>
<speed>5.4</speed>
<temp>0.00</temp>
<bpm>0</bpm>
<rpm>0.00</rpm>
</extensions>
</trkpt>
<trkpt lat="32.592723846" lon="35.009674072">
  <ele>51.862808</ele>
  <time>2012-06-23T06:11:53Z</time>
<extensions>
<speed>6.0</speed>
<temp>0.00</temp>
<bpm>0</bpm>
<rpm>0.00</rpm>
</extensions>
</trkpt>
<trkpt lat="32.592723846" lon="35.009609222">
  <ele>50.951675</ele>
  <time>2012-06-23T06:11:54Z</time>
<extensions>
<speed>6.0</speed>
<temp>0.00</temp>
<bpm>0</bpm>
<rpm>0.00</rpm>
</extensions>
</trkpt>
<trkpt lat="32.592735291" lon="35.009544373">
  <ele>50.149918</ele>
  <time>2012-06-23T06:11:55Z</time>
<extensions>
<speed>6.1</speed>
<temp>0.00</temp>
<bpm>0</bpm>
<rpm>0.00</rpm>
</extensions>
</trkpt>
<trkpt lat="32.592750549" lon="35.009475708">
  <ele>49.663589</ele>
  <time>2012-06-23T06:11:56Z</time>
<extensions>
<speed>6.1</speed>
<temp>0.00</temp>
<bpm>0</bpm>
<rpm>0.00</rpm>
</extensions>
</trkpt>
<trkpt lat="32.592765808" lon="35.009395599">
  <ele>49.797379</ele>
  <time>2012-06-23T06:11:57Z</time>
<extensions>
<speed>6.7</speed>
<temp>0.00</temp>
<bpm>0</bpm>
<rpm>0.00</rpm>
</extensions>
</trkpt>
<trkpt lat="32.592781067" lon="35.009326935">
  <ele>49.667496</ele>
  <time>2012-06-23T06:11:58Z</time>
<extensions>
<speed>6.4</speed>
<temp>0.00</temp>
<bpm>0</bpm>
<rpm>0.00</rpm>
</extensions>
</trkpt>
<trkpt lat="32.592792511" lon="35.009258270">
  <ele>49.236832</ele>
  <time>2012-06-23T06:11:59Z</time>
<extensions>
<speed>6.4</speed>
<temp>0.00</temp>
<bpm>0</bpm>
<rpm>0.00</rpm>
</extensions>
</trkpt>
<trkpt lat="32.592796326" lon="35.009185791">
  <ele>48.706558</ele>
  <time>2012-06-23T06:12:00Z</time>
<extensions>
<speed>6.2</speed>
<temp>0.00</temp>
<bpm>0</bpm>
<rpm>0.00</rpm>
</extensions>
</trkpt>
<trkpt lat="32.592792511" lon="35.009117126">
  <ele>48.216324</ele>
  <time>2012-06-23T06:12:01Z</time>
<extensions>
<speed>6.1</speed>
<temp>0.00</temp>
<bpm>0</bpm>
<rpm>0.00</rpm>
</extensions>
</trkpt>
<trkpt lat="32.592777252" lon="35.009048462">
  <ele>47.584488</ele>
  <time>2012-06-23T06:12:02Z</time>
<extensions>
<speed>6.2</speed>
<temp>0.00</temp>
<bpm>0</bpm>
<rpm>0.00</rpm>
</extensions>
</trkpt>
<trkpt lat="32.592773438" lon="35.008979797">
  <ele>47.016129</ele>
  <time>2012-06-23T06:12:03Z</time>
<extensions>
<speed>6.3</speed>
<temp>0.00</temp>
<bpm>0</bpm>
<rpm>0.00</rpm>
</extensions>
</trkpt>
<trkpt lat="32.592754364" lon="35.008903503">
  <ele>45.867691</ele>
  <time>2012-06-23T06:12:04Z</time>
<extensions>
<speed>7.0</speed>
<temp>0.00</temp>
<bpm>0</bpm>
<rpm>0.00</rpm>
</extensions>
</trkpt>
<trkpt lat="32.592742920" lon="35.008834839">
  <ele>45.283707</ele>
  <time>2012-06-23T06:12:05Z</time>
<extensions>
<speed>6.4</speed>
<temp>0.00</temp>
<bpm>0</bpm>
<rpm>0.00</rpm>
</extensions>
</trkpt>
<trkpt lat="32.592731476" lon="35.008762360">
  <ele>45.351089</ele>
  <time>2012-06-23T06:12:06Z</time>
<extensions>
<speed>6.5</speed>
<temp>0.00</temp>
<bpm>0</bpm>
<rpm>0.00</rpm>
</extensions>
</trkpt>
<trkpt lat="32.592720032" lon="35.008674622">
  <ele>45.739761</ele>
  <time>2012-06-23T06:12:07Z</time>
<extensions>
<speed>6.6</speed>
<temp>0.00</temp>
<bpm>0</bpm>
<rpm>0.00</rpm>
</extensions>
</trkpt>
<trkpt lat="32.592708588" lon="35.008590698">
  <ele>46.566910</ele>
  <time>2012-06-23T06:12:08Z</time>
<extensions>
<speed>6.4</speed>
<temp>0.00</temp>
<bpm>0</bpm>
<rpm>0.00</rpm>
</extensions>
</trkpt>
<trkpt lat="32.592689514" lon="35.008525848">
  <ele>45.939957</ele>
  <time>2012-06-23T06:12:09Z</time>
<extensions>
<speed>6.7</speed>
<temp>0.00</temp>
<bpm>0</bpm>
<rpm>0.00</rpm>
</extensions>
</trkpt>
<trkpt lat="32.592662811" lon="35.008460999">
  <ele>45.546402</ele>
  <time>2012-06-23T06:12:10Z</time>
<extensions>
<speed>6.4</speed>
<temp>0.00</temp>
<bpm>0</bpm>
<rpm>0.00</rpm>
</extensions>
</trkpt>
<trkpt lat="32.592636108" lon="35.008361816">
  <ele>48.085464</ele>
  <time>2012-06-23T06:12:11Z</time>
<extensions>
<speed>6.0</speed>
<temp>0.00</temp>
<bpm>0</bpm>
<rpm>0.00</rpm>
</extensions>
</trkpt>
<trkpt lat="32.592609406" lon="35.008281708">
  <ele>50.552261</ele>
  <time>2012-06-23T06:12:12Z</time>
<extensions>
<speed>5.9</speed>
<temp>0.00</temp>
<bpm>0</bpm>
<rpm>0.00</rpm>
</extensions>
</trkpt>
<trkpt lat="32.592586517" lon="35.008228302">
  <ele>49.992691</ele>
  <time>2012-06-23T06:12:13Z</time>
<extensions>
<speed>5.0</speed>
<temp>0.00</temp>
<bpm>0</bpm>
<rpm>0.00</rpm>
</extensions>
</trkpt>
<trkpt lat="32.592567444" lon="35.008186340">
  <ele>49.979019</ele>
  <time>2012-06-23T06:12:14Z</time>
<extensions>
<speed>4.8</speed>
<temp>0.00</temp>
<bpm>0</bpm>
<rpm>0.00</rpm>
</extensions>
</trkpt>
<trkpt lat="32.592536926" lon="35.008155823">
  <ele>47.440933</ele>
  <time>2012-06-23T06:12:15Z</time>
<extensions>
<speed>4.5</speed>
<temp>0.00</temp>
<bpm>0</bpm>
<rpm>0.00</rpm>
</extensions>
</trkpt>
<trkpt lat="32.592510223" lon="35.008117676">
  <ele>46.874527</ele>
  <time>2012-06-23T06:12:16Z</time>
<extensions>
<speed>4.9</speed>
<temp>0.00</temp>
<bpm>0</bpm>
<rpm>0.00</rpm>
</extensions>
</trkpt>
<trkpt lat="32.592487335" lon="35.008060455">
  <ele>48.209488</ele>
  <time>2012-06-23T06:12:17Z</time>
<extensions>
<speed>4.5</speed>
<temp>0.00</temp>
<bpm>0</bpm>
<rpm>0.00</rpm>
</extensions>
</trkpt>
<trkpt lat="32.592468262" lon="35.008022308">
  <ele>48.754410</ele>
  <time>2012-06-23T06:12:18Z</time>
<extensions>
<speed>4.5</speed>
<temp>0.00</temp>
<bpm>0</bpm>
<rpm>0.00</rpm>
</extensions>
</trkpt>
<trkpt lat="32.592445374" lon="35.007980347">
  <ele>49.003433</ele>
  <time>2012-06-23T06:12:19Z</time>
<extensions>
<speed>4.8</speed>
<temp>0.00</temp>
<bpm>0</bpm>
<rpm>0.00</rpm>
</extensions>
</trkpt>
<trkpt lat="32.592418671" lon="35.007934570">
  <ele>49.727066</ele>
  <time>2012-06-23T06:12:20Z</time>
<extensions>
<speed>4.6</speed>
<temp>0.00</temp>
<bpm>0</bpm>
<rpm>0.00</rpm>
</extensions>
</trkpt>
<trkpt lat="32.592384338" lon="35.007904053">
  <ele>49.924332</ele>
  <time>2012-06-23T06:12:21Z</time>
<extensions>
<speed>4.5</speed>
<temp>0.00</temp>
<bpm>0</bpm>
<rpm>0.00</rpm>
</extensions>
</trkpt>
<trkpt lat="32.592350006" lon="35.007873535">
  <ele>49.967300</ele>
  <time>2012-06-23T06:12:22Z</time>
<extensions>
<speed>4.5</speed>
<temp>0.00</temp>
<bpm>0</bpm>
<rpm>0.00</rpm>
</extensions>
</trkpt>
<trkpt lat="32.592319489" lon="35.007843018">
  <ele>50.173355</ele>
  <time>2012-06-23T06:12:23Z</time>
<extensions>
<speed>4.7</speed>
<temp>0.00</temp>
<bpm>0</bpm>
<rpm>0.00</rpm>
</extensions>
</trkpt>
<trkpt lat="32.592285156" lon="35.007812500">
  <ele>50.113785</ele>
  <time>2012-06-23T06:12:24Z</time>
<extensions>
<speed>4.5</speed>
<temp>0.00</temp>
<bpm>0</bpm>
<rpm>0.00</rpm>
</extensions>
</trkpt>
<trkpt lat="32.592258453" lon="35.007778168">
  <ele>49.962418</ele>
  <time>2012-06-23T06:12:25Z</time>
<extensions>
<speed>4.3</speed>
<temp>0.00</temp>
<bpm>0</bpm>
<rpm>0.00</rpm>
</extensions>
</trkpt>
<trkpt lat="32.592227936" lon="35.007732391">
  <ele>50.971207</ele>
  <time>2012-06-23T06:12:26Z</time>
<extensions>
<speed>4.5</speed>
<temp>0.00</temp>
<bpm>0</bpm>
<rpm>0.00</rpm>
</extensions>
</trkpt>
<trkpt lat="32.592201233" lon="35.007701874">
  <ele>51.529800</ele>
  <time>2012-06-23T06:12:27Z</time>
<extensions>
<speed>4.0</speed>
<temp>0.00</temp>
<bpm>0</bpm>
<rpm>0.00</rpm>
</extensions>
</trkpt>
<trkpt lat="32.592178345" lon="35.007659912">
  <ele>51.832535</ele>
  <time>2012-06-23T06:12:28Z</time>
<extensions>
<speed>4.0</speed>
<temp>0.00</temp>
<bpm>0</bpm>
<rpm>0.00</rpm>
</extensions>
</trkpt>
<trkpt lat="32.592155457" lon="35.007625580">
  <ele>52.024918</ele>
  <time>2012-06-23T06:12:29Z</time>
<extensions>
<speed>3.9</speed>
<temp>0.00</temp>
<bpm>0</bpm>
<rpm>0.00</rpm>
</extensions>
</trkpt>
<trkpt lat="32.592132568" lon="35.007595062">
  <ele>51.922379</ele>
  <time>2012-06-23T06:12:30Z</time>
<extensions>
<speed>3.9</speed>
<temp>0.00</temp>
<bpm>0</bpm>
<rpm>0.00</rpm>
</extensions>
</trkpt>
<trkpt lat="32.592105865" lon="35.007560730">
  <ele>52.229996</ele>
  <time>2012-06-23T06:12:31Z</time>
<extensions>
<speed>3.9</speed>
<temp>0.00</temp>
<bpm>0</bpm>
<rpm>0.00</rpm>
</extensions>
</trkpt>
<trkpt lat="32.592079163" lon="35.007541656">
  <ele>51.996597</ele>
  <time>2012-06-23T06:12:32Z</time>
<extensions>
<speed>3.8</speed>
<temp>0.00</temp>
<bpm>0</bpm>
<rpm>0.00</rpm>
</extensions>
</trkpt>
<trkpt lat="32.592052460" lon="35.007514954">
  <ele>52.155777</ele>
  <time>2012-06-23T06:12:33Z</time>
<extensions>
<speed>3.8</speed>
<temp>0.00</temp>
<bpm>0</bpm>
<rpm>0.00</rpm>
</extensions>
</trkpt>
<trkpt lat="32.592021942" lon="35.007499695">
  <ele>51.678238</ele>
  <time>2012-06-23T06:12:34Z</time>
<extensions>
<speed>3.8</speed>
<temp>0.00</temp>
<bpm>0</bpm>
<rpm>0.00</rpm>
</extensions>
</trkpt>
<trkpt lat="32.591987610" lon="35.007484436">
  <ele>51.022964</ele>
  <time>2012-06-23T06:12:35Z</time>
<extensions>
<speed>4.0</speed>
<temp>0.00</temp>
<bpm>0</bpm>
<rpm>0.00</rpm>
</extensions>
</trkpt>
<trkpt lat="32.591953278" lon="35.007472992">
  <ele>50.575699</ele>
  <time>2012-06-23T06:12:36Z</time>
<extensions>
<speed>3.9</speed>
<temp>0.00</temp>
<bpm>0</bpm>
<rpm>0.00</rpm>
</extensions>
</trkpt>
<trkpt lat="32.591922760" lon="35.007457733">
  <ele>50.491714</ele>
  <time>2012-06-23T06:12:37Z</time>
<extensions>
<speed>3.9</speed>
<temp>0.00</temp>
<bpm>0</bpm>
<rpm>0.00</rpm>
</extensions>
</trkpt>
<trkpt lat="32.591888428" lon="35.007446289">
  <ele>49.576675</ele>
  <time>2012-06-23T06:12:38Z</time>
<extensions>
<speed>3.3</speed>
<temp>0.00</temp>
<bpm>0</bpm>
<rpm>0.00</rpm>
</extensions>
</trkpt>
<trkpt lat="32.591854095" lon="35.007431030">
  <ele>49.124527</ele>
  <time>2012-06-23T06:12:39Z</time>
<extensions>
<speed>3.8</speed>
<temp>0.00</temp>
<bpm>0</bpm>
<rpm>0.00</rpm>
</extensions>
</trkpt>
<trkpt lat="32.591819763" lon="35.007415771">
  <ele>49.233902</ele>
  <time>2012-06-23T06:12:40Z</time>
<extensions>
<speed>3.4</speed>
<temp>0.00</temp>
<bpm>0</bpm>
<rpm>0.00</rpm>
</extensions>
</trkpt>
<trkpt lat="32.591789246" lon="35.007404327">
  <ele>48.932144</ele>
  <time>2012-06-23T06:12:41Z</time>
<extensions>
<speed>3.5</speed>
<temp>0.00</temp>
<bpm>0</bpm>
<rpm>0.00</rpm>
</extensions>
</trkpt>
<trkpt lat="32.591754913" lon="35.007392883">
  <ele>48.986832</ele>
  <time>2012-06-23T06:12:42Z</time>
<extensions>
<speed>3.4</speed>
<temp>0.00</temp>
<bpm>0</bpm>
<rpm>0.00</rpm>
</extensions>
</trkpt>
<trkpt lat="32.591724396" lon="35.007381439">
  <ele>48.982925</ele>
  <time>2012-06-23T06:12:43Z</time>
<extensions>
<speed>3.2</speed>
<temp>0.00</temp>
<bpm>0</bpm>
<rpm>0.00</rpm>
</extensions>
</trkpt>
<trkpt lat="32.591697693" lon="35.007369995">
  <ele>48.675308</ele>
  <time>2012-06-23T06:12:44Z</time>
<extensions>
<speed>3.2</speed>
<temp>0.00</temp>
<bpm>0</bpm>
<rpm>0.00</rpm>
</extensions>
</trkpt>
<trkpt lat="32.591648102" lon="35.007347107">
  <ele>48.953629</ele>
  <time>2012-06-23T06:12:46Z</time>
<extensions>
<speed>2.8</speed>
<temp>0.00</temp>
<bpm>0</bpm>
<rpm>0.00</rpm>
</extensions>
</trkpt>
<trkpt lat="32.591613770" lon="35.007324219">
  <ele>48.588394</ele>
  <time>2012-06-23T06:12:48Z</time>
<extensions>
<speed>1.9</speed>
<temp>0.00</temp>
<bpm>0</bpm>
<rpm>0.00</rpm>
</extensions>
</trkpt>
<trkpt lat="32.591579437" lon="35.007297516">
  <ele>49.195816</ele>
  <time>2012-06-23T06:12:50Z</time>
<extensions>
<speed>2.0</speed>
<temp>0.00</temp>
<bpm>0</bpm>
<rpm>0.00</rpm>
</extensions>
</trkpt>
<trkpt lat="32.591552734" lon="35.007293701">
  <ele>48.939957</ele>
  <time>2012-06-23T06:12:51Z</time>
<extensions>
<speed>2.5</speed>
<temp>0.00</temp>
<bpm>0</bpm>
<rpm>0.00</rpm>
</extensions>
</trkpt>
<trkpt lat="32.591514587" lon="35.007293701">
  <ele>48.301285</ele>
  <time>2012-06-23T06:12:53Z</time>
<extensions>
<speed>1.8</speed>
<temp>0.00</temp>
<bpm>0</bpm>
<rpm>0.00</rpm>
</extensions>
</trkpt>
<trkpt lat="32.591480255" lon="35.007297516">
  <ele>47.925308</ele>
  <time>2012-06-23T06:12:54Z</time>
<extensions>
<speed>2.3</speed>
<temp>0.00</temp>
<bpm>0</bpm>
<rpm>0.00</rpm>
</extensions>
</trkpt>
<trkpt lat="32.591430664" lon="35.007312775">
  <ele>47.401871</ele>
  <time>2012-06-23T06:12:56Z</time>
<extensions>
<speed>2.1</speed>
<temp>0.00</temp>
<bpm>0</bpm>
<rpm>0.00</rpm>
</extensions>
</trkpt>
<trkpt lat="32.591384888" lon="35.007324219">
  <ele>46.900894</ele>
  <time>2012-06-23T06:12:58Z</time>
<extensions>
<speed>2.3</speed>
<temp>0.00</temp>
<bpm>0</bpm>
<rpm>0.00</rpm>
</extensions>
</trkpt>
<trkpt lat="32.591354370" lon="35.007328033">
  <ele>46.510269</ele>
  <time>2012-06-23T06:12:59Z</time>
<extensions>
<speed>2.0</speed>
<temp>0.00</temp>
<bpm>0</bpm>
<rpm>0.00</rpm>
</extensions>
</trkpt>
<trkpt lat="32.591320038" lon="35.007328033">
  <ele>46.465347</ele>
  <time>2012-06-23T06:13:01Z</time>
<extensions>
<speed>1.8</speed>
<temp>0.00</temp>
<bpm>0</bpm>
<rpm>0.00</rpm>
</extensions>
</trkpt>
<trkpt lat="32.591270447" lon="35.007316589">
  <ele>47.041519</ele>
  <time>2012-06-23T06:13:03Z</time>
<extensions>
<speed>1.9</speed>
<temp>0.00</temp>
<bpm>0</bpm>
<rpm>0.00</rpm>
</extensions>
</trkpt>
<trkpt lat="32.591243744" lon="35.007320404">
  <ele>46.888199</ele>
  <time>2012-06-23T06:13:04Z</time>
<extensions>
<speed>1.7</speed>
<temp>0.00</temp>
<bpm>0</bpm>
<rpm>0.00</rpm>
</extensions>
</trkpt>
<trkpt lat="32.591205597" lon="35.007324219">
  <ele>46.663589</ele>
  <time>2012-06-23T06:13:06Z</time>
<extensions>
<speed>1.5</speed>
<temp>0.00</temp>
<bpm>0</bpm>
<rpm>0.00</rpm>
</extensions>
</trkpt>
<trkpt lat="32.591148376" lon="35.007320404">
  <ele>46.783707</ele>
  <time>2012-06-23T06:13:08Z</time>
<extensions>
<speed>2.5</speed>
<temp>0.00</temp>
<bpm>0</bpm>
<rpm>0.00</rpm>
</extensions>
</trkpt>
<trkpt lat="32.591117859" lon="35.007305145">
  <ele>47.736832</ele>
  <time>2012-06-23T06:13:09Z</time>
<extensions>
<speed>2.4</speed>
<temp>0.00</temp>
<bpm>0</bpm>
<rpm>0.00</rpm>
</extensions>
</trkpt>
<trkpt lat="32.591075897" lon="35.007270813">
  <ele>48.111832</ele>
  <time>2012-06-23T06:13:11Z</time>
<extensions>
<speed>2.8</speed>
<temp>0.00</temp>
<bpm>0</bpm>
<rpm>0.00</rpm>
</extensions>
</trkpt>
<trkpt lat="32.591030121" lon="35.007217407">
  <ele>48.287613</ele>
  <time>2012-06-23T06:13:13Z</time>
<extensions>
<speed>3.0</speed>
<temp>0.00</temp>
<bpm>0</bpm>
<rpm>0.00</rpm>
</extensions>
</trkpt>
<trkpt lat="32.591007233" lon="35.007190704">
  <ele>48.167496</ele>
  <time>2012-06-23T06:13:14Z</time>
<extensions>
<speed>2.9</speed>
<temp>0.00</temp>
<bpm>0</bpm>
<rpm>0.00</rpm>
</extensions>
</trkpt>
<trkpt lat="32.590988159" lon="35.007160187">
  <ele>47.815933</ele>
  <time>2012-06-23T06:13:15Z</time>
<extensions>
<speed>2.9</speed>
<temp>0.00</temp>
<bpm>0</bpm>
<rpm>0.00</rpm>
</extensions>
</trkpt>
<trkpt lat="32.590969086" lon="35.007129669">
  <ele>48.636246</ele>
  <time>2012-06-23T06:13:16Z</time>
<extensions>
<speed>2.9</speed>
<temp>0.00</temp>
<bpm>0</bpm>
<rpm>0.00</rpm>
</extensions>
</trkpt>
<trkpt lat="32.590950012" lon="35.007099152">
  <ele>48.984879</ele>
  <time>2012-06-23T06:13:17Z</time>
<extensions>
<speed>2.8</speed>
<temp>0.00</temp>
<bpm>0</bpm>
<rpm>0.00</rpm>
</extensions>
</trkpt>
<trkpt lat="32.590934753" lon="35.007045746">
  <ele>50.664566</ele>
  <time>2012-06-23T06:13:19Z</time>
<extensions>
<speed>2.4</speed>
<temp>0.00</temp>
<bpm>0</bpm>
<rpm>0.00</rpm>
</extensions>
</trkpt>
<trkpt lat="32.590923309" lon="35.007011414">
  <ele>50.622574</ele>
  <time>2012-06-23T06:13:20Z</time>
<extensions>
<speed>2.4</speed>
<temp>0.00</temp>
<bpm>0</bpm>
<rpm>0.00</rpm>
</extensions>
</trkpt>
<trkpt lat="32.590930939" lon="35.006980896">
  <ele>49.538589</ele>
  <time>2012-06-23T06:13:21Z</time>
<extensions>
<speed>2.9</speed>
<temp>0.00</temp>
<bpm>0</bpm>
<rpm>0.00</rpm>
</extensions>
</trkpt>
<trkpt lat="32.590961456" lon="35.006919861">
  <ele>50.045425</ele>
  <time>2012-06-23T06:13:23Z</time>
<extensions>
<speed>3.2</speed>
<temp>0.00</temp>
<bpm>0</bpm>
<rpm>0.00</rpm>
</extensions>
</trkpt>
<trkpt lat="32.590988159" lon="35.006885529">
  <ele>49.734879</ele>
  <time>2012-06-23T06:13:24Z</time>
<extensions>
<speed>3.5</speed>
<temp>0.00</temp>
<bpm>0</bpm>
<rpm>0.00</rpm>
</extensions>
</trkpt>
<trkpt lat="32.591014862" lon="35.006855011">
  <ele>49.730972</ele>
  <time>2012-06-23T06:13:25Z</time>
<extensions>
<speed>3.6</speed>
<temp>0.00</temp>
<bpm>0</bpm>
<rpm>0.00</rpm>
</extensions>
</trkpt>
<trkpt lat="32.591053009" lon="35.006828308">
  <ele>49.845230</ele>
  <time>2012-06-23T06:13:26Z</time>
<extensions>
<speed>4.5</speed>
<temp>0.00</temp>
<bpm>0</bpm>
<rpm>0.00</rpm>
</extensions>
</trkpt>
<trkpt lat="32.591091156" lon="35.006797791">
  <ele>50.033707</ele>
  <time>2012-06-23T06:13:27Z</time>
<extensions>
<speed>4.7</speed>
<temp>0.00</temp>
<bpm>0</bpm>
<rpm>0.00</rpm>
</extensions>
</trkpt>
<trkpt lat="32.591133118" lon="35.006771088">
  <ele>49.972183</ele>
  <time>2012-06-23T06:13:28Z</time>
<extensions>
<speed>5.1</speed>
<temp>0.00</temp>
<bpm>0</bpm>
<rpm>0.00</rpm>
</extensions>
</trkpt>
<trkpt lat="32.591171265" lon="35.006732941">
  <ele>50.841324</ele>
  <time>2012-06-23T06:13:29Z</time>
<extensions>
<speed>5.4</speed>
<temp>0.00</temp>
<bpm>0</bpm>
<rpm>0.00</rpm>
</extensions>
</trkpt>
<trkpt lat="32.591213226" lon="35.006690979">
  <ele>50.830582</ele>
  <time>2012-06-23T06:13:30Z</time>
<extensions>
<speed>5.7</speed>
<temp>0.00</temp>
<bpm>0</bpm>
<rpm>0.00</rpm>
</extensions>
</trkpt>
<trkpt lat="32.591255188" lon="35.006652832">
  <ele>50.551285</ele>
  <time>2012-06-23T06:13:31Z</time>
<extensions>
<speed>5.7</speed>
<temp>0.00</temp>
<bpm>0</bpm>
<rpm>0.00</rpm>
</extensions>
</trkpt>
<trkpt lat="32.591297150" lon="35.006610870">
  <ele>50.338394</ele>
  <time>2012-06-23T06:13:32Z</time>
<extensions>
<speed>5.5</speed>
<temp>0.00</temp>
<bpm>0</bpm>
<rpm>0.00</rpm>
</extensions>
</trkpt>
<trkpt lat="32.591342926" lon="35.006565094">
  <ele>49.905777</ele>
  <time>2012-06-23T06:13:33Z</time>
<extensions>
<speed>5.7</speed>
<temp>0.00</temp>
<bpm>0</bpm>
<rpm>0.00</rpm>
</extensions>
</trkpt>
<trkpt lat="32.591381073" lon="35.006530762">
  <ele>49.921402</ele>
  <time>2012-06-23T06:13:34Z</time>
<extensions>
<speed>5.3</speed>
<temp>0.00</temp>
<bpm>0</bpm>
<rpm>0.00</rpm>
</extensions>
</trkpt>
<trkpt lat="32.591419220" lon="35.006496429">
  <ele>49.352066</ele>
  <time>2012-06-23T06:13:35Z</time>
<extensions>
<speed>5.3</speed>
<temp>0.00</temp>
<bpm>0</bpm>
<rpm>0.00</rpm>
</extensions>
</trkpt>
<trkpt lat="32.591457367" lon="35.006462097">
  <ele>48.698746</ele>
  <time>2012-06-23T06:13:36Z</time>
<extensions>
<speed>5.6</speed>
<temp>0.00</temp>
<bpm>0</bpm>
<rpm>0.00</rpm>
</extensions>
</trkpt>
<trkpt lat="32.591499329" lon="35.006423950">
  <ele>49.612808</ele>
  <time>2012-06-23T06:13:37Z</time>
<extensions>
<speed>6.0</speed>
<temp>0.00</temp>
<bpm>0</bpm>
<rpm>0.00</rpm>
</extensions>
</trkpt>
<trkpt lat="32.591541290" lon="35.006389618">
  <ele>49.140152</ele>
  <time>2012-06-23T06:13:38Z</time>
<extensions>
<speed>5.9</speed>
<temp>0.00</temp>
<bpm>0</bpm>
<rpm>0.00</rpm>
</extensions>
</trkpt>
<trkpt lat="32.591587067" lon="35.006347656">
  <ele>49.969254</ele>
  <time>2012-06-23T06:13:39Z</time>
<extensions>
<speed>6.1</speed>
<temp>0.00</temp>
<bpm>0</bpm>
<rpm>0.00</rpm>
</extensions>
</trkpt>
<trkpt lat="32.591648102" lon="35.006298065">
  <ele>50.813980</ele>
  <time>2012-06-23T06:13:40Z</time>
<extensions>
<speed>6.6</speed>
<temp>0.00</temp>
<bpm>0</bpm>
<rpm>0.00</rpm>
</extensions>
</trkpt>
<trkpt lat="32.591697693" lon="35.006248474">
  <ele>51.789566</ele>
  <time>2012-06-23T06:13:41Z</time>
<extensions>
<speed>6.1</speed>
<temp>0.00</temp>
<bpm>0</bpm>
<rpm>0.00</rpm>
</extensions>
</trkpt>
<trkpt lat="32.591743469" lon="35.006210327">
  <ele>51.242691</ele>
  <time>2012-06-23T06:13:42Z</time>
<extensions>
<speed>5.9</speed>
<temp>0.00</temp>
<bpm>0</bpm>
<rpm>0.00</rpm>
</extensions>
</trkpt>
<trkpt lat="32.591777802" lon="35.006164551">
  <ele>51.194839</ele>
  <time>2012-06-23T06:13:43Z</time>
<extensions>
<speed>5.8</speed>
<temp>0.00</temp>
<bpm>0</bpm>
<rpm>0.00</rpm>
</extensions>
</trkpt>
<trkpt lat="32.591804504" lon="35.006111145">
  <ele>51.343277</ele>
  <time>2012-06-23T06:13:44Z</time>
<extensions>
<speed>5.4</speed>
<temp>0.00</temp>
<bpm>0</bpm>
<rpm>0.00</rpm>
</extensions>
</trkpt>
<trkpt lat="32.591812134" lon="35.006046295">
  <ele>52.079605</ele>
  <time>2012-06-23T06:13:45Z</time>
<extensions>
<speed>5.5</speed>
<temp>0.00</temp>
<bpm>0</bpm>
<rpm>0.00</rpm>
</extensions>
</trkpt>
<trkpt lat="32.591815948" lon="35.005981445">
  <ele>52.427261</ele>
  <time>2012-06-23T06:13:46Z</time>
<extensions>
<speed>5.8</speed>
<temp>0.00</temp>
<bpm>0</bpm>
<rpm>0.00</rpm>
</extensions>
</trkpt>
<trkpt lat="32.591804504" lon="35.005905151">
  <ele>53.904800</ele>
  <time>2012-06-23T06:13:47Z</time>
<extensions>
<speed>5.9</speed>
<temp>0.00</temp>
<bpm>0</bpm>
<rpm>0.00</rpm>
</extensions>
</trkpt>
<trkpt lat="32.591793060" lon="35.005840302">
  <ele>53.595230</ele>
  <time>2012-06-23T06:13:48Z</time>
<extensions>
<speed>6.1</speed>
<temp>0.00</temp>
<bpm>0</bpm>
<rpm>0.00</rpm>
</extensions>
</trkpt>
<trkpt lat="32.591789246" lon="35.005779266">
  <ele>53.595230</ele>
  <time>2012-06-23T06:13:49Z</time>
<extensions>
<speed>5.7</speed>
<temp>0.00</temp>
<bpm>0</bpm>
<rpm>0.00</rpm>
</extensions>
</trkpt>
<trkpt lat="32.591796875" lon="35.005718231">
  <ele>53.398941</ele>
  <time>2012-06-23T06:13:50Z</time>
<extensions>
<speed>5.1</speed>
<temp>0.00</temp>
<bpm>0</bpm>
<rpm>0.00</rpm>
</extensions>
</trkpt>
<trkpt lat="32.591804504" lon="35.005664825">
  <ele>52.531754</ele>
  <time>2012-06-23T06:13:51Z</time>
<extensions>
<speed>4.9</speed>
<temp>0.00</temp>
<bpm>0</bpm>
<rpm>0.00</rpm>
</extensions>
</trkpt>
<trkpt lat="32.591831207" lon="35.005634308">
  <ele>51.531754</ele>
  <time>2012-06-23T06:13:52Z</time>
<extensions>
<speed>5.3</speed>
<temp>0.00</temp>
<bpm>0</bpm>
<rpm>0.00</rpm>
</extensions>
</trkpt>
<trkpt lat="32.591873169" lon="35.005615234">
  <ele>50.662613</ele>
  <time>2012-06-23T06:13:53Z</time>
<extensions>
<speed>4.7</speed>
<temp>0.00</temp>
<bpm>0</bpm>
<rpm>0.00</rpm>
</extensions>
</trkpt>
<trkpt lat="32.591915131" lon="35.005611420">
  <ele>50.166519</ele>
  <time>2012-06-23T06:13:54Z</time>
<extensions>
<speed>3.9</speed>
<temp>0.00</temp>
<bpm>0</bpm>
<rpm>0.00</rpm>
</extensions>
</trkpt>
<trkpt lat="32.591945648" lon="35.005603790">
  <ele>50.248550</ele>
  <time>2012-06-23T06:13:55Z</time>
<extensions>
<speed>3.5</speed>
<temp>0.00</temp>
<bpm>0</bpm>
<rpm>0.00</rpm>
</extensions>
</trkpt>
<trkpt lat="32.591976166" lon="35.005596161">
  <ele>50.093277</ele>
  <time>2012-06-23T06:13:56Z</time>
<extensions>
<speed>3.4</speed>
<temp>0.00</temp>
<bpm>0</bpm>
<rpm>0.00</rpm>
</extensions>
</trkpt>
<trkpt lat="32.592010498" lon="35.005588531">
  <ele>49.870621</ele>
  <time>2012-06-23T06:13:57Z</time>
<extensions>
<speed>3.2</speed>
<temp>0.00</temp>
<bpm>0</bpm>
<rpm>0.00</rpm>
</extensions>
</trkpt>
<trkpt lat="32.592052460" lon="35.005584717">
  <ele>50.274918</ele>
  <time>2012-06-23T06:13:59Z</time>
<extensions>
<speed>2.5</speed>
<temp>0.00</temp>
<bpm>0</bpm>
<rpm>0.00</rpm>
</extensions>
</trkpt>
<trkpt lat="32.592098236" lon="35.005577087">
  <ele>50.546402</ele>
  <time>2012-06-23T06:14:01Z</time>
<extensions>
<speed>3.1</speed>
<temp>0.00</temp>
<bpm>0</bpm>
<rpm>0.00</rpm>
</extensions>
</trkpt>
<trkpt lat="32.592121124" lon="35.005565643">
  <ele>50.797379</ele>
  <time>2012-06-23T06:14:02Z</time>
<extensions>
<speed>3.4</speed>
<temp>0.00</temp>
<bpm>0</bpm>
<rpm>0.00</rpm>
</extensions>
</trkpt>
<trkpt lat="32.592155457" lon="35.005561829">
  <ele>50.954605</ele>
  <time>2012-06-23T06:14:03Z</time>
<extensions>
<speed>3.3</speed>
<temp>0.00</temp>
<bpm>0</bpm>
<rpm>0.00</rpm>
</extensions>
</trkpt>
<trkpt lat="32.592182159" lon="35.005558014">
  <ele>50.966324</ele>
  <time>2012-06-23T06:14:04Z</time>
<extensions>
<speed>3.4</speed>
<temp>0.00</temp>
<bpm>0</bpm>
<rpm>0.00</rpm>
</extensions>
</trkpt>
<trkpt lat="32.592231750" lon="35.005538940">
  <ele>51.008316</ele>
  <time>2012-06-23T06:14:06Z</time>
<extensions>
<speed>2.9</speed>
<temp>0.00</temp>
<bpm>0</bpm>
<rpm>0.00</rpm>
</extensions>
</trkpt>
<trkpt lat="32.592269897" lon="35.005531311">
  <ele>51.613785</ele>
  <time>2012-06-23T06:14:08Z</time>
<extensions>
<speed>0.7</speed>
<temp>0.00</temp>
<bpm>0</bpm>
<rpm>0.00</rpm>
</extensions>
</trkpt>
<trkpt lat="32.592288971" lon="35.005542755">
  <ele>53.419449</ele>
  <time>2012-06-23T06:14:18Z</time>
<extensions>
<speed>0.2</speed>
<temp>0.00</temp>
<bpm>0</bpm>
<rpm>0.00</rpm>
</extensions>
</trkpt>
<trkpt lat="32.592327118" lon="35.005531311">
  <ele>53.808121</ele>
  <time>2012-06-23T06:14:24Z</time>
<extensions>
<speed>1.8</speed>
<temp>0.00</temp>
<bpm>0</bpm>
<rpm>0.00</rpm>
</extensions>
</trkpt>
<trkpt lat="32.592369080" lon="35.005523682">
  <ele>53.818863</ele>
  <time>2012-06-23T06:14:26Z</time>
<extensions>
<speed>2.4</speed>
<temp>0.00</temp>
<bpm>0</bpm>
<rpm>0.00</rpm>
</extensions>
</trkpt>
<trkpt lat="32.592418671" lon="35.005496979">
  <ele>53.980972</ele>
  <time>2012-06-23T06:14:28Z</time>
<extensions>
<speed>2.9</speed>
<temp>0.00</temp>
<bpm>0</bpm>
<rpm>0.00</rpm>
</extensions>
</trkpt>
<trkpt lat="32.592445374" lon="35.005481720">
  <ele>53.847183</ele>
  <time>2012-06-23T06:14:29Z</time>
<extensions>
<speed>2.8</speed>
<temp>0.00</temp>
<bpm>0</bpm>
<rpm>0.00</rpm>
</extensions>
</trkpt>
<trkpt lat="32.592479706" lon="35.005458832">
  <ele>53.640152</ele>
  <time>2012-06-23T06:14:30Z</time>
<extensions>
<speed>4.0</speed>
<temp>0.00</temp>
<bpm>0</bpm>
<rpm>0.00</rpm>
</extensions>
</trkpt>
<trkpt lat="32.592514038" lon="35.005435944">
  <ele>53.342300</ele>
  <time>2012-06-23T06:14:31Z</time>
<extensions>
<speed>4.5</speed>
<temp>0.00</temp>
<bpm>0</bpm>
<rpm>0.00</rpm>
</extensions>
</trkpt>
<trkpt lat="32.592563629" lon="35.005401611">
  <ele>53.402847</ele>
  <time>2012-06-23T06:14:32Z</time>
<extensions>
<speed>5.0</speed>
<temp>0.00</temp>
<bpm>0</bpm>
<rpm>0.00</rpm>
</extensions>
</trkpt>
<trkpt lat="32.592605591" lon="35.005374908">
  <ele>53.292496</ele>
  <time>2012-06-23T06:14:33Z</time>
<extensions>
<speed>4.0</speed>
<temp>0.00</temp>
<bpm>0</bpm>
<rpm>0.00</rpm>
</extensions>
</trkpt>
<trkpt lat="32.592647552" lon="35.005359650">
  <ele>54.037613</ele>
  <time>2012-06-23T06:14:34Z</time>
<extensions>
<speed>4.0</speed>
<temp>0.00</temp>
<bpm>0</bpm>
<rpm>0.00</rpm>
</extensions>
</trkpt>
<trkpt lat="32.592681885" lon="35.005340576">
  <ele>54.223160</ele>
  <time>2012-06-23T06:14:35Z</time>
<extensions>
<speed>3.5</speed>
<temp>0.00</temp>
<bpm>0</bpm>
<rpm>0.00</rpm>
</extensions>
</trkpt>
<trkpt lat="32.592708588" lon="35.005325317">
  <ele>54.106949</ele>
  <time>2012-06-23T06:14:36Z</time>
<extensions>
<speed>2.9</speed>
<temp>0.00</temp>
<bpm>0</bpm>
<rpm>0.00</rpm>
</extensions>
</trkpt>
<trkpt lat="32.592746735" lon="35.005298615">
  <ele>54.044449</ele>
  <time>2012-06-23T06:14:38Z</time>
<extensions>
<speed>3.1</speed>
<temp>0.00</temp>
<bpm>0</bpm>
<rpm>0.00</rpm>
</extensions>
</trkpt>
<trkpt lat="32.592784882" lon="35.005287170">
  <ele>54.026871</ele>
  <time>2012-06-23T06:14:39Z</time>
<extensions>
<speed>3.0</speed>
<temp>0.00</temp>
<bpm>0</bpm>
<rpm>0.00</rpm>
</extensions>
</trkpt>
<trkpt lat="32.592807770" lon="35.005271912">
  <ele>54.273941</ele>
  <time>2012-06-23T06:14:40Z</time>
<extensions>
<speed>3.4</speed>
<temp>0.00</temp>
<bpm>0</bpm>
<rpm>0.00</rpm>
</extensions>
</trkpt>
<trkpt lat="32.592838287" lon="35.005252838">
  <ele>54.226089</ele>
  <time>2012-06-23T06:14:41Z</time>
<extensions>
<speed>3.4</speed>
<temp>0.00</temp>
<bpm>0</bpm>
<rpm>0.00</rpm>
</extensions>
</trkpt>
<trkpt lat="32.592868805" lon="35.005241394">
  <ele>53.735855</ele>
  <time>2012-06-23T06:14:42Z</time>
<extensions>
<speed>3.2</speed>
<temp>0.00</temp>
<bpm>0</bpm>
<rpm>0.00</rpm>
</extensions>
</trkpt>
<trkpt lat="32.592906952" lon="35.005226135">
  <ele>53.560074</ele>
  <time>2012-06-23T06:14:43Z</time>
<extensions>
<speed>3.5</speed>
<temp>0.00</temp>
<bpm>0</bpm>
<rpm>0.00</rpm>
</extensions>
</trkpt>
<trkpt lat="32.592945099" lon="35.005214691">
  <ele>53.864761</ele>
  <time>2012-06-23T06:14:44Z</time>
<extensions>
<speed>3.6</speed>
<temp>0.00</temp>
<bpm>0</bpm>
<rpm>0.00</rpm>
</extensions>
</trkpt>
<trkpt lat="32.592975616" lon="35.005203247">
  <ele>54.376480</ele>
  <time>2012-06-23T06:14:45Z</time>
<extensions>
<speed>3.7</speed>
<temp>0.00</temp>
<bpm>0</bpm>
<rpm>0.00</rpm>
</extensions>
</trkpt>
<trkpt lat="32.593009949" lon="35.005187988">
  <ele>54.129410</ele>
  <time>2012-06-23T06:14:46Z</time>
<extensions>
<speed>3.9</speed>
<temp>0.00</temp>
<bpm>0</bpm>
<rpm>0.00</rpm>
</extensions>
</trkpt>
<trkpt lat="32.593040466" lon="35.005172729">
  <ele>54.505386</ele>
  <time>2012-06-23T06:14:47Z</time>
<extensions>
<speed>3.7</speed>
<temp>0.00</temp>
<bpm>0</bpm>
<rpm>0.00</rpm>
</extensions>
</trkpt>
<trkpt lat="32.593070984" lon="35.005157471">
  <ele>54.776871</ele>
  <time>2012-06-23T06:14:48Z</time>
<extensions>
<speed>3.7</speed>
<temp>0.00</temp>
<bpm>0</bpm>
<rpm>0.00</rpm>
</extensions>
</trkpt>
<trkpt lat="32.593101501" lon="35.005138397">
  <ele>54.939957</ele>
  <time>2012-06-23T06:14:49Z</time>
<extensions>
<speed>3.5</speed>
<temp>0.00</temp>
<bpm>0</bpm>
<rpm>0.00</rpm>
</extensions>
</trkpt>
<trkpt lat="32.593135834" lon="35.005126953">
  <ele>54.880386</ele>
  <time>2012-06-23T06:14:50Z</time>
<extensions>
<speed>3.6</speed>
<temp>0.00</temp>
<bpm>0</bpm>
<rpm>0.00</rpm>
</extensions>
</trkpt>
<trkpt lat="32.593189240" lon="35.005100250">
  <ele>55.161636</ele>
  <time>2012-06-23T06:14:52Z</time>
<extensions>
<speed>3.3</speed>
<temp>0.00</temp>
<bpm>0</bpm>
<rpm>0.00</rpm>
</extensions>
</trkpt>
<trkpt lat="32.593235016" lon="35.005073547">
  <ele>55.768082</ele>
  <time>2012-06-23T06:14:54Z</time>
<extensions>
<speed>3.0</speed>
<temp>0.00</temp>
<bpm>0</bpm>
<rpm>0.00</rpm>
</extensions>
</trkpt>
<trkpt lat="32.593257904" lon="35.005054474">
  <ele>56.328629</ele>
  <time>2012-06-23T06:14:55Z</time>
<extensions>
<speed>3.2</speed>
<temp>0.00</temp>
<bpm>0</bpm>
<rpm>0.00</rpm>
</extensions>
</trkpt>
<trkpt lat="32.593284607" lon="35.005039215">
  <ele>56.194839</ele>
  <time>2012-06-23T06:14:56Z</time>
<extensions>
<speed>3.6</speed>
<temp>0.00</temp>
<bpm>0</bpm>
<rpm>0.00</rpm>
</extensions>
</trkpt>
<trkpt lat="32.593322754" lon="35.005023956">
  <ele>55.951675</ele>
  <time>2012-06-23T06:14:57Z</time>
<extensions>
<speed>3.6</speed>
<temp>0.00</temp>
<bpm>0</bpm>
<rpm>0.00</rpm>
</extensions>
</trkpt>
<trkpt lat="32.593345642" lon="35.005004883">
  <ele>55.688004</ele>
  <time>2012-06-23T06:14:58Z</time>
<extensions>
<speed>3.5</speed>
<temp>0.00</temp>
<bpm>0</bpm>
<rpm>0.00</rpm>
</extensions>
</trkpt>
<trkpt lat="32.593372345" lon="35.004985809">
  <ele>55.897964</ele>
  <time>2012-06-23T06:14:59Z</time>
<extensions>
<speed>3.8</speed>
<temp>0.00</temp>
<bpm>0</bpm>
<rpm>0.00</rpm>
</extensions>
</trkpt>
<trkpt lat="32.593421936" lon="35.004959106">
  <ele>55.194839</ele>
  <time>2012-06-23T06:15:01Z</time>
<extensions>
<speed>3.3</speed>
<temp>0.00</temp>
<bpm>0</bpm>
<rpm>0.00</rpm>
</extensions>
</trkpt>
<trkpt lat="32.593448639" lon="35.004943848">
  <ele>54.663589</ele>
  <time>2012-06-23T06:15:02Z</time>
<extensions>
<speed>3.2</speed>
<temp>0.00</temp>
<bpm>0</bpm>
<rpm>0.00</rpm>
</extensions>
</trkpt>
<trkpt lat="32.593482971" lon="35.004932404">
  <ele>54.713394</ele>
  <time>2012-06-23T06:15:03Z</time>
<extensions>
<speed>3.5</speed>
<temp>0.00</temp>
<bpm>0</bpm>
<rpm>0.00</rpm>
</extensions>
</trkpt>
<trkpt lat="32.593509674" lon="35.004913330">
  <ele>54.521011</ele>
  <time>2012-06-23T06:15:04Z</time>
<extensions>
<speed>3.6</speed>
<temp>0.00</temp>
<bpm>0</bpm>
<rpm>0.00</rpm>
</extensions>
</trkpt>
<trkpt lat="32.593544006" lon="35.004890442">
  <ele>54.119644</ele>
  <time>2012-06-23T06:15:05Z</time>
<extensions>
<speed>3.5</speed>
<temp>0.00</temp>
<bpm>0</bpm>
<rpm>0.00</rpm>
</extensions>
</trkpt>
<trkpt lat="32.593582153" lon="35.004878998">
  <ele>54.734879</ele>
  <time>2012-06-23T06:15:06Z</time>
<extensions>
<speed>3.4</speed>
<temp>0.00</temp>
<bpm>0</bpm>
<rpm>0.00</rpm>
</extensions>
</trkpt>
<trkpt lat="32.593616486" lon="35.004867554">
  <ele>55.009293</ele>
  <time>2012-06-23T06:15:07Z</time>
<extensions>
<speed>3.3</speed>
<temp>0.00</temp>
<bpm>0</bpm>
<rpm>0.00</rpm>
</extensions>
</trkpt>
<trkpt lat="32.593643188" lon="35.004856110">
  <ele>54.252457</ele>
  <time>2012-06-23T06:15:08Z</time>
<extensions>
<speed>3.2</speed>
<temp>0.00</temp>
<bpm>0</bpm>
<rpm>0.00</rpm>
</extensions>
</trkpt>
<trkpt lat="32.593673706" lon="35.004856110">
  <ele>53.190933</ele>
  <time>2012-06-23T06:15:09Z</time>
<extensions>
<speed>3.0</speed>
<temp>0.00</temp>
<bpm>0</bpm>
<rpm>0.00</rpm>
</extensions>
</trkpt>
<trkpt lat="32.593723297" lon="35.004856110">
  <ele>54.062027</ele>
  <time>2012-06-23T06:15:10Z</time>
<extensions>
<speed>3.5</speed>
<temp>0.00</temp>
<bpm>0</bpm>
<rpm>0.00</rpm>
</extensions>
</trkpt>
<trkpt lat="32.593761444" lon="35.004871368">
  <ele>53.943863</ele>
  <time>2012-06-23T06:15:11Z</time>
<extensions>
<speed>3.4</speed>
<temp>0.00</temp>
<bpm>0</bpm>
<rpm>0.00</rpm>
</extensions>
</trkpt>
<trkpt lat="32.593780518" lon="35.004898071">
  <ele>54.140152</ele>
  <time>2012-06-23T06:15:12Z</time>
<extensions>
<speed>3.0</speed>
<temp>0.00</temp>
<bpm>0</bpm>
<rpm>0.00</rpm>
</extensions>
</trkpt>
<trkpt lat="32.593811035" lon="35.004951477">
  <ele>54.564957</ele>
  <time>2012-06-23T06:15:14Z</time>
<extensions>
<speed>3.1</speed>
<temp>0.00</temp>
<bpm>0</bpm>
<rpm>0.00</rpm>
</extensions>
</trkpt>
<trkpt lat="32.593826294" lon="35.005016327">
  <ele>55.045425</ele>
  <time>2012-06-23T06:15:16Z</time>
<extensions>
<speed>3.2</speed>
<temp>0.00</temp>
<bpm>0</bpm>
<rpm>0.00</rpm>
</extensions>
</trkpt>
<trkpt lat="32.593845367" lon="35.005054474">
  <ele>55.604996</ele>
  <time>2012-06-23T06:15:17Z</time>
<extensions>
<speed>3.4</speed>
<temp>0.00</temp>
<bpm>0</bpm>
<rpm>0.00</rpm>
</extensions>
</trkpt>
<trkpt lat="32.593864441" lon="35.005081177">
  <ele>55.987808</ele>
  <time>2012-06-23T06:15:18Z</time>
<extensions>
<speed>3.6</speed>
<temp>0.00</temp>
<bpm>0</bpm>
<rpm>0.00</rpm>
</extensions>
</trkpt>
<trkpt lat="32.593887329" lon="35.005104065">
  <ele>55.453629</ele>
  <time>2012-06-23T06:15:19Z</time>
<extensions>
<speed>3.5</speed>
<temp>0.00</temp>
<bpm>0</bpm>
<rpm>0.00</rpm>
</extensions>
</trkpt>
<trkpt lat="32.593906403" lon="35.005138397">
  <ele>55.677261</ele>
  <time>2012-06-23T06:15:20Z</time>
<extensions>
<speed>3.6</speed>
<temp>0.00</temp>
<bpm>0</bpm>
<rpm>0.00</rpm>
</extensions>
</trkpt>
<trkpt lat="32.593929291" lon="35.005172729">
  <ele>56.358902</ele>
  <time>2012-06-23T06:15:21Z</time>
<extensions>
<speed>3.4</speed>
<temp>0.00</temp>
<bpm>0</bpm>
<rpm>0.00</rpm>
</extensions>
</trkpt>
<trkpt lat="32.593948364" lon="35.005199432">
  <ele>56.785660</ele>
  <time>2012-06-23T06:15:22Z</time>
<extensions>
<speed>3.3</speed>
<temp>0.00</temp>
<bpm>0</bpm>
<rpm>0.00</rpm>
</extensions>
</trkpt>
<trkpt lat="32.593971252" lon="35.005226135">
  <ele>56.853043</ele>
  <time>2012-06-23T06:15:23Z</time>
<extensions>
<speed>3.4</speed>
<temp>0.00</temp>
<bpm>0</bpm>
<rpm>0.00</rpm>
</extensions>
</trkpt>
<trkpt lat="32.593990326" lon="35.005252838">
  <ele>57.122574</ele>
  <time>2012-06-23T06:15:24Z</time>
<extensions>
<speed>3.3</speed>
<temp>0.00</temp>
<bpm>0</bpm>
<rpm>0.00</rpm>
</extensions>
</trkpt>
<trkpt lat="32.594009399" lon="35.005279541">
  <ele>57.395035</ele>
  <time>2012-06-23T06:15:25Z</time>
<extensions>
<speed>3.4</speed>
<temp>0.00</temp>
<bpm>0</bpm>
<rpm>0.00</rpm>
</extensions>
</trkpt>
<trkpt lat="32.594036102" lon="35.005302429">
  <ele>57.880386</ele>
  <time>2012-06-23T06:15:26Z</time>
<extensions>
<speed>3.5</speed>
<temp>0.00</temp>
<bpm>0</bpm>
<rpm>0.00</rpm>
</extensions>
</trkpt>
<trkpt lat="32.594085693" lon="35.005340576">
  <ele>58.657730</ele>
  <time>2012-06-23T06:15:28Z</time>
<extensions>
<speed>3.4</speed>
<temp>0.00</temp>
<bpm>0</bpm>
<rpm>0.00</rpm>
</extensions>
</trkpt>
<trkpt lat="32.594108582" lon="35.005355835">
  <ele>59.062027</ele>
  <time>2012-06-23T06:15:29Z</time>
<extensions>
<speed>3.4</speed>
<temp>0.00</temp>
<bpm>0</bpm>
<rpm>0.00</rpm>
</extensions>
</trkpt>
<trkpt lat="32.594135284" lon="35.005374908">
  <ele>59.498550</ele>
  <time>2012-06-23T06:15:30Z</time>
<extensions>
<speed>3.2</speed>
<temp>0.00</temp>
<bpm>0</bpm>
<rpm>0.00</rpm>
</extensions>
</trkpt>
<trkpt lat="32.594158173" lon="35.005393982">
  <ele>59.513199</ele>
  <time>2012-06-23T06:15:31Z</time>
<extensions>
<speed>3.6</speed>
<temp>0.00</temp>
<bpm>0</bpm>
<rpm>0.00</rpm>
</extensions>
</trkpt>
<trkpt lat="32.594184875" lon="35.005409241">
  <ele>59.530777</ele>
  <time>2012-06-23T06:15:32Z</time>
<extensions>
<speed>3.4</speed>
<temp>0.00</temp>
<bpm>0</bpm>
<rpm>0.00</rpm>
</extensions>
</trkpt>
<trkpt lat="32.594207764" lon="35.005432129">
  <ele>59.843277</ele>
  <time>2012-06-23T06:15:33Z</time>
<extensions>
<speed>3.4</speed>
<temp>0.00</temp>
<bpm>0</bpm>
<rpm>0.00</rpm>
</extensions>
</trkpt>
<trkpt lat="32.594230652" lon="35.005455017">
  <ele>60.176285</ele>
  <time>2012-06-23T06:15:34Z</time>
<extensions>
<speed>3.2</speed>
<temp>0.00</temp>
<bpm>0</bpm>
<rpm>0.00</rpm>
</extensions>
</trkpt>
<trkpt lat="32.594257355" lon="35.005474091">
  <ele>60.681168</ele>
  <time>2012-06-23T06:15:35Z</time>
<extensions>
<speed>3.2</speed>
<temp>0.00</temp>
<bpm>0</bpm>
<rpm>0.00</rpm>
</extensions>
</trkpt>
<trkpt lat="32.594306946" lon="35.005504608">
  <ele>60.555191</ele>
  <time>2012-06-23T06:15:37Z</time>
<extensions>
<speed>3.2</speed>
<temp>0.00</temp>
<bpm>0</bpm>
<rpm>0.00</rpm>
</extensions>
</trkpt>
<trkpt lat="32.594326019" lon="35.005523682">
  <ele>60.281754</ele>
  <time>2012-06-23T06:15:38Z</time>
<extensions>
<speed>3.1</speed>
<temp>0.00</temp>
<bpm>0</bpm>
<rpm>0.00</rpm>
</extensions>
</trkpt>
<trkpt lat="32.594352722" lon="35.005542755">
  <ele>60.884293</ele>
  <time>2012-06-23T06:15:39Z</time>
<extensions>
<speed>3.1</speed>
<temp>0.00</temp>
<bpm>0</bpm>
<rpm>0.00</rpm>
</extensions>
</trkpt>
<trkpt lat="32.594379425" lon="35.005558014">
  <ele>60.509293</ele>
  <time>2012-06-23T06:15:40Z</time>
<extensions>
<speed>3.4</speed>
<temp>0.00</temp>
<bpm>0</bpm>
<rpm>0.00</rpm>
</extensions>
</trkpt>
<trkpt lat="32.594402313" lon="35.005569458">
  <ele>60.411636</ele>
  <time>2012-06-23T06:15:41Z</time>
<extensions>
<speed>3.1</speed>
<temp>0.00</temp>
<bpm>0</bpm>
<rpm>0.00</rpm>
</extensions>
</trkpt>
<trkpt lat="32.594425201" lon="35.005584717">
  <ele>60.906754</ele>
  <time>2012-06-23T06:15:42Z</time>
<extensions>
<speed>2.8</speed>
<temp>0.00</temp>
<bpm>0</bpm>
<rpm>0.00</rpm>
</extensions>
</trkpt>
<trkpt lat="32.594451904" lon="35.005599976">
  <ele>60.981949</ele>
  <time>2012-06-23T06:15:43Z</time>
<extensions>
<speed>2.8</speed>
<temp>0.00</temp>
<bpm>0</bpm>
<rpm>0.00</rpm>
</extensions>
</trkpt>
<trkpt lat="32.594493866" lon="35.005619049">
  <ele>61.197769</ele>
  <time>2012-06-23T06:15:45Z</time>
<extensions>
<speed>3.0</speed>
<temp>0.00</temp>
<bpm>0</bpm>
<rpm>0.00</rpm>
</extensions>
</trkpt>
<trkpt lat="32.594520569" lon="35.005638123">
  <ele>61.527847</ele>
  <time>2012-06-23T06:15:46Z</time>
<extensions>
<speed>3.0</speed>
<temp>0.00</temp>
<bpm>0</bpm>
<rpm>0.00</rpm>
</extensions>
</trkpt>
<trkpt lat="32.594543457" lon="35.005657196">
  <ele>61.472183</ele>
  <time>2012-06-23T06:15:47Z</time>
<extensions>
<speed>3.0</speed>
<temp>0.00</temp>
<bpm>0</bpm>
<rpm>0.00</rpm>
</extensions>
</trkpt>
<trkpt lat="32.594566345" lon="35.005680084">
  <ele>61.556168</ele>
  <time>2012-06-23T06:15:48Z</time>
<extensions>
<speed>3.2</speed>
<temp>0.00</temp>
<bpm>0</bpm>
<rpm>0.00</rpm>
</extensions>
</trkpt>
<trkpt lat="32.594589233" lon="35.005706787">
  <ele>62.171402</ele>
  <time>2012-06-23T06:15:49Z</time>
<extensions>
<speed>3.2</speed>
<temp>0.00</temp>
<bpm>0</bpm>
<rpm>0.00</rpm>
</extensions>
</trkpt>
<trkpt lat="32.594608307" lon="35.005729675">
  <ele>62.689957</ele>
  <time>2012-06-23T06:15:50Z</time>
<extensions>
<speed>3.1</speed>
<temp>0.00</temp>
<bpm>0</bpm>
<rpm>0.00</rpm>
</extensions>
</trkpt>
<trkpt lat="32.594654083" lon="35.005767822">
  <ele>62.507339</ele>
  <time>2012-06-23T06:15:52Z</time>
<extensions>
<speed>2.9</speed>
<temp>0.00</temp>
<bpm>0</bpm>
<rpm>0.00</rpm>
</extensions>
</trkpt>
<trkpt lat="32.594696045" lon="35.005802155">
  <ele>62.946793</ele>
  <time>2012-06-23T06:15:54Z</time>
<extensions>
<speed>2.8</speed>
<temp>0.00</temp>
<bpm>0</bpm>
<rpm>0.00</rpm>
</extensions>
</trkpt>
<trkpt lat="32.594722748" lon="35.005817413">
  <ele>62.979019</ele>
  <time>2012-06-23T06:15:55Z</time>
<extensions>
<speed>2.6</speed>
<temp>0.00</temp>
<bpm>0</bpm>
<rpm>0.00</rpm>
</extensions>
</trkpt>
<trkpt lat="32.594749451" lon="35.005828857">
  <ele>63.546402</ele>
  <time>2012-06-23T06:15:56Z</time>
<extensions>
<speed>2.8</speed>
<temp>0.00</temp>
<bpm>0</bpm>
<rpm>0.00</rpm>
</extensions>
</trkpt>
<trkpt lat="32.594783783" lon="35.005828857">
  <ele>63.534683</ele>
  <time>2012-06-23T06:15:57Z</time>
<extensions>
<speed>2.7</speed>
<temp>0.00</temp>
<bpm>0</bpm>
<rpm>0.00</rpm>
</extensions>
</trkpt>
<trkpt lat="32.594810486" lon="35.005840302">
  <ele>63.346207</ele>
  <time>2012-06-23T06:15:58Z</time>
<extensions>
<speed>2.9</speed>
<temp>0.00</temp>
<bpm>0</bpm>
<rpm>0.00</rpm>
</extensions>
</trkpt>
<trkpt lat="32.594844818" lon="35.005870819">
  <ele>63.222183</ele>
  <time>2012-06-23T06:16:00Z</time>
<extensions>
<speed>2.9</speed>
<temp>0.00</temp>
<bpm>0</bpm>
<rpm>0.00</rpm>
</extensions>
</trkpt>
<trkpt lat="32.594871521" lon="35.005882263">
  <ele>63.046402</ele>
  <time>2012-06-23T06:16:01Z</time>
<extensions>
<speed>2.9</speed>
<temp>0.00</temp>
<bpm>0</bpm>
<rpm>0.00</rpm>
</extensions>
</trkpt>
<trkpt lat="32.594917297" lon="35.005905151">
  <ele>63.293472</ele>
  <time>2012-06-23T06:16:03Z</time>
<extensions>
<speed>3.0</speed>
<temp>0.00</temp>
<bpm>0</bpm>
<rpm>0.00</rpm>
</extensions>
</trkpt>
<trkpt lat="32.594947815" lon="35.005912781">
  <ele>63.249527</ele>
  <time>2012-06-23T06:16:04Z</time>
<extensions>
<speed>3.2</speed>
<temp>0.00</temp>
<bpm>0</bpm>
<rpm>0.00</rpm>
</extensions>
</trkpt>
<trkpt lat="32.594974518" lon="35.005920410">
  <ele>63.223160</ele>
  <time>2012-06-23T06:16:05Z</time>
<extensions>
<speed>2.9</speed>
<temp>0.00</temp>
<bpm>0</bpm>
<rpm>0.00</rpm>
</extensions>
</trkpt>
<trkpt lat="32.595012665" lon="35.005924225">
  <ele>63.629410</ele>
  <time>2012-06-23T06:16:06Z</time>
<extensions>
<speed>3.1</speed>
<temp>0.00</temp>
<bpm>0</bpm>
<rpm>0.00</rpm>
</extensions>
</trkpt>
<trkpt lat="32.595046997" lon="35.005928040">
  <ele>63.914566</ele>
  <time>2012-06-23T06:16:07Z</time>
<extensions>
<speed>2.6</speed>
<temp>0.00</temp>
<bpm>0</bpm>
<rpm>0.00</rpm>
</extensions>
</trkpt>
<trkpt lat="32.595085144" lon="35.005924225">
  <ele>64.358429</ele>
  <time>2012-06-23T06:16:09Z</time>
<extensions>
<speed>2.1</speed>
<temp>0.00</temp>
<bpm>0</bpm>
<rpm>0.00</rpm>
</extensions>
</trkpt>
<trkpt lat="32.595130920" lon="35.005916595">
  <ele>64.295929</ele>
  <time>2012-06-23T06:16:11Z</time>
<extensions>
<speed>2.6</speed>
<temp>0.00</temp>
<bpm>0</bpm>
<rpm>0.00</rpm>
</extensions>
</trkpt>
<trkpt lat="32.595172882" lon="35.005912781">
  <ele>64.288116</ele>
  <time>2012-06-23T06:16:13Z</time>
<extensions>
<speed>2.6</speed>
<temp>0.00</temp>
<bpm>0</bpm>
<rpm>0.00</rpm>
</extensions>
</trkpt>
<trkpt lat="32.595203400" lon="35.005920410">
  <ele>64.963898</ele>
  <time>2012-06-23T06:16:14Z</time>
<extensions>
<speed>2.4</speed>
<temp>0.00</temp>
<bpm>0</bpm>
<rpm>0.00</rpm>
</extensions>
</trkpt>
<trkpt lat="32.595233917" lon="35.005920410">
  <ele>64.967804</ele>
  <time>2012-06-23T06:16:15Z</time>
<extensions>
<speed>2.5</speed>
<temp>0.00</temp>
<bpm>0</bpm>
<rpm>0.00</rpm>
</extensions>
</trkpt>
<trkpt lat="32.595283508" lon="35.005924225">
  <ele>65.510773</ele>
  <time>2012-06-23T06:16:17Z</time>
<extensions>
<speed>2.6</speed>
<temp>0.00</temp>
<bpm>0</bpm>
<rpm>0.00</rpm>
</extensions>
</trkpt>
<trkpt lat="32.595314026" lon="35.005928040">
  <ele>65.834991</ele>
  <time>2012-06-23T06:16:18Z</time>
<extensions>
<speed>2.7</speed>
<temp>0.00</temp>
<bpm>0</bpm>
<rpm>0.00</rpm>
</extensions>
</trkpt>
<trkpt lat="32.595355988" lon="35.005947113">
  <ele>66.924835</ele>
  <time>2012-06-23T06:16:20Z</time>
<extensions>
<speed>2.9</speed>
<temp>0.00</temp>
<bpm>0</bpm>
<rpm>0.00</rpm>
</extensions>
</trkpt>
<trkpt lat="32.595397949" lon="35.005973816">
  <ele>67.211945</ele>
  <time>2012-06-23T06:16:22Z</time>
<extensions>
<speed>2.6</speed>
<temp>0.00</temp>
<bpm>0</bpm>
<rpm>0.00</rpm>
</extensions>
</trkpt>
<trkpt lat="32.595432281" lon="35.006008148">
  <ele>68.122101</ele>
  <time>2012-06-23T06:16:24Z</time>
<extensions>
<speed>2.6</speed>
<temp>0.00</temp>
<bpm>0</bpm>
<rpm>0.00</rpm>
</extensions>
</trkpt>
<trkpt lat="32.595474243" lon="35.006038666">
  <ele>68.946320</ele>
  <time>2012-06-23T06:16:26Z</time>
<extensions>
<speed>2.8</speed>
<temp>0.00</temp>
<bpm>0</bpm>
<rpm>0.00</rpm>
</extensions>
</trkpt>
<trkpt lat="32.595516205" lon="35.006069183">
  <ele>70.047882</ele>
  <time>2012-06-23T06:16:28Z</time>
<extensions>
<speed>2.9</speed>
<temp>0.00</temp>
<bpm>0</bpm>
<rpm>0.00</rpm>
</extensions>
</trkpt>
<trkpt lat="32.595561981" lon="35.006099701">
  <ele>70.258820</ele>
  <time>2012-06-23T06:16:30Z</time>
<extensions>
<speed>2.9</speed>
<temp>0.00</temp>
<bpm>0</bpm>
<rpm>0.00</rpm>
</extensions>
</trkpt>
<trkpt lat="32.595600128" lon="35.006126404">
  <ele>70.129913</ele>
  <time>2012-06-23T06:16:32Z</time>
<extensions>
<speed>2.9</speed>
<temp>0.00</temp>
<bpm>0</bpm>
<rpm>0.00</rpm>
</extensions>
</trkpt>
<trkpt lat="32.595626831" lon="35.006137848">
  <ele>69.889679</ele>
  <time>2012-06-23T06:16:33Z</time>
<extensions>
<speed>3.0</speed>
<temp>0.00</temp>
<bpm>0</bpm>
<rpm>0.00</rpm>
</extensions>
</trkpt>
<trkpt lat="32.595653534" lon="35.006149292">
  <ele>70.002960</ele>
  <time>2012-06-23T06:16:34Z</time>
<extensions>
<speed>3.1</speed>
<temp>0.00</temp>
<bpm>0</bpm>
<rpm>0.00</rpm>
</extensions>
</trkpt>
<trkpt lat="32.595680237" lon="35.006156921">
  <ele>69.586945</ele>
  <time>2012-06-23T06:16:35Z</time>
<extensions>
<speed>2.7</speed>
<temp>0.00</temp>
<bpm>0</bpm>
<rpm>0.00</rpm>
</extensions>
</trkpt>
<trkpt lat="32.595726013" lon="35.006183624">
  <ele>69.301788</ele>
  <time>2012-06-23T06:16:37Z</time>
<extensions>
<speed>2.8</speed>
<temp>0.00</temp>
<bpm>0</bpm>
<rpm>0.00</rpm>
</extensions>
</trkpt>
<trkpt lat="32.595752716" lon="35.006195068">
  <ele>68.655304</ele>
  <time>2012-06-23T06:16:38Z</time>
<extensions>
<speed>2.9</speed>
<temp>0.00</temp>
<bpm>0</bpm>
<rpm>0.00</rpm>
</extensions>
</trkpt>
<trkpt lat="32.595794678" lon="35.006210327">
  <ele>68.600616</ele>
  <time>2012-06-23T06:16:40Z</time>
<extensions>
<speed>2.5</speed>
<temp>0.00</temp>
<bpm>0</bpm>
<rpm>0.00</rpm>
</extensions>
</trkpt>
<trkpt lat="32.595848083" lon="35.006221771">
  <ele>67.809601</ele>
  <time>2012-06-23T06:16:42Z</time>
<extensions>
<speed>3.0</speed>
<temp>0.00</temp>
<bpm>0</bpm>
<rpm>0.00</rpm>
</extensions>
</trkpt>
<trkpt lat="32.595905304" lon="35.006221771">
  <ele>69.081085</ele>
  <time>2012-06-23T06:16:43Z</time>
<extensions>
<speed>2.9</speed>
<temp>0.00</temp>
<bpm>0</bpm>
<rpm>0.00</rpm>
</extensions>
</trkpt>
<trkpt lat="32.595943451" lon="35.006217957">
  <ele>69.481476</ele>
  <time>2012-06-23T06:16:44Z</time>
<extensions>
<speed>3.1</speed>
<temp>0.00</temp>
<bpm>0</bpm>
<rpm>0.00</rpm>
</extensions>
</trkpt>
<trkpt lat="32.595970154" lon="35.006233215">
  <ele>69.725616</ele>
  <time>2012-06-23T06:16:45Z</time>
<extensions>
<speed>3.1</speed>
<temp>0.00</temp>
<bpm>0</bpm>
<rpm>0.00</rpm>
</extensions>
</trkpt>
<trkpt lat="32.595996857" lon="35.006240845">
  <ele>69.495148</ele>
  <time>2012-06-23T06:16:46Z</time>
<extensions>
<speed>3.3</speed>
<temp>0.00</temp>
<bpm>0</bpm>
<rpm>0.00</rpm>
</extensions>
</trkpt>
<trkpt lat="32.596050262" lon="35.006248474">
  <ele>69.479523</ele>
  <time>2012-06-23T06:16:48Z</time>
<extensions>
<speed>3.1</speed>
<temp>0.00</temp>
<bpm>0</bpm>
<rpm>0.00</rpm>
</extensions>
</trkpt>
<trkpt lat="32.596076965" lon="35.006248474">
  <ele>69.483429</ele>
  <time>2012-06-23T06:16:49Z</time>
<extensions>
<speed>2.8</speed>
<temp>0.00</temp>
<bpm>0</bpm>
<rpm>0.00</rpm>
</extensions>
</trkpt>
<trkpt lat="32.596130371" lon="35.006240845">
  <ele>68.788116</ele>
  <time>2012-06-23T06:16:51Z</time>
<extensions>
<speed>3.0</speed>
<temp>0.00</temp>
<bpm>0</bpm>
<rpm>0.00</rpm>
</extensions>
</trkpt>
<trkpt lat="32.596179962" lon="35.006240845">
  <ele>68.543976</ele>
  <time>2012-06-23T06:16:53Z</time>
<extensions>
<speed>2.9</speed>
<temp>0.00</temp>
<bpm>0</bpm>
<rpm>0.00</rpm>
</extensions>
</trkpt>
<trkpt lat="32.596210480" lon="35.006244659">
  <ele>68.493195</ele>
  <time>2012-06-23T06:16:54Z</time>
<extensions>
<speed>2.8</speed>
<temp>0.00</temp>
<bpm>0</bpm>
<rpm>0.00</rpm>
</extensions>
</trkpt>
<trkpt lat="32.596237183" lon="35.006244659">
  <ele>68.831085</ele>
  <time>2012-06-23T06:16:55Z</time>
<extensions>
<speed>2.9</speed>
<temp>0.00</temp>
<bpm>0</bpm>
<rpm>0.00</rpm>
</extensions>
</trkpt>
<trkpt lat="32.596267700" lon="35.006240845">
  <ele>68.610382</ele>
  <time>2012-06-23T06:16:56Z</time>
<extensions>
<speed>2.9</speed>
<temp>0.00</temp>
<bpm>0</bpm>
<rpm>0.00</rpm>
</extensions>
</trkpt>
<trkpt lat="32.596309662" lon="35.006240845">
  <ele>68.581085</ele>
  <time>2012-06-23T06:16:58Z</time>
<extensions>
<speed>2.8</speed>
<temp>0.00</temp>
<bpm>0</bpm>
<rpm>0.00</rpm>
</extensions>
</trkpt>
<trkpt lat="32.596370697" lon="35.006229401">
  <ele>68.499054</ele>
  <time>2012-06-23T06:17:00Z</time>
<extensions>
<speed>3.0</speed>
<temp>0.00</temp>
<bpm>0</bpm>
<rpm>0.00</rpm>
</extensions>
</trkpt>
<trkpt lat="32.596420288" lon="35.006217957">
  <ele>69.270538</ele>
  <time>2012-06-23T06:17:02Z</time>
<extensions>
<speed>2.9</speed>
<temp>0.00</temp>
<bpm>0</bpm>
<rpm>0.00</rpm>
</extensions>
</trkpt>
<trkpt lat="32.596473694" lon="35.006206512">
  <ele>69.104523</ele>
  <time>2012-06-23T06:17:04Z</time>
<extensions>
<speed>3.0</speed>
<temp>0.00</temp>
<bpm>0</bpm>
<rpm>0.00</rpm>
</extensions>
</trkpt>
<trkpt lat="32.596527100" lon="35.006202698">
  <ele>68.612335</ele>
  <time>2012-06-23T06:17:06Z</time>
<extensions>
<speed>3.0</speed>
<temp>0.00</temp>
<bpm>0</bpm>
<rpm>0.00</rpm>
</extensions>
</trkpt>
<trkpt lat="32.596553802" lon="35.006202698">
  <ele>68.817413</ele>
  <time>2012-06-23T06:17:07Z</time>
<extensions>
<speed>3.0</speed>
<temp>0.00</temp>
<bpm>0</bpm>
<rpm>0.00</rpm>
</extensions>
</trkpt>
<trkpt lat="32.596584320" lon="35.006198883">
  <ele>68.936554</ele>
  <time>2012-06-23T06:17:08Z</time>
<extensions>
<speed>3.1</speed>
<temp>0.00</temp>
<bpm>0</bpm>
<rpm>0.00</rpm>
</extensions>
</trkpt>
<trkpt lat="32.596637726" lon="35.006195068">
  <ele>68.069366</ele>
  <time>2012-06-23T06:17:10Z</time>
<extensions>
<speed>2.9</speed>
<temp>0.00</temp>
<bpm>0</bpm>
<rpm>0.00</rpm>
</extensions>
</trkpt>
<trkpt lat="32.596668243" lon="35.006195068">
  <ele>68.301788</ele>
  <time>2012-06-23T06:17:11Z</time>
<extensions>
<speed>2.9</speed>
<temp>0.00</temp>
<bpm>0</bpm>
<rpm>0.00</rpm>
</extensions>
</trkpt>
<trkpt lat="32.596714020" lon="35.006191254">
  <ele>68.348663</ele>
  <time>2012-06-23T06:17:13Z</time>
<extensions>
<speed>2.8</speed>
<temp>0.00</temp>
<bpm>0</bpm>
<rpm>0.00</rpm>
</extensions>
</trkpt>
<trkpt lat="32.596763611" lon="35.006191254">
  <ele>68.942413</ele>
  <time>2012-06-23T06:17:15Z</time>
<extensions>
<speed>2.9</speed>
<temp>0.00</temp>
<bpm>0</bpm>
<rpm>0.00</rpm>
</extensions>
</trkpt>
<trkpt lat="32.596794128" lon="35.006187439">
  <ele>69.256866</ele>
  <time>2012-06-23T06:17:16Z</time>
<extensions>
<speed>3.2</speed>
<temp>0.00</temp>
<bpm>0</bpm>
<rpm>0.00</rpm>
</extensions>
</trkpt>
<trkpt lat="32.596836090" lon="35.006172180">
  <ele>69.614288</ele>
  <time>2012-06-23T06:17:18Z</time>
<extensions>
<speed>2.8</speed>
<temp>0.00</temp>
<bpm>0</bpm>
<rpm>0.00</rpm>
</extensions>
</trkpt>
<trkpt lat="32.596862793" lon="35.006168365">
  <ele>69.372101</ele>
  <time>2012-06-23T06:17:19Z</time>
<extensions>
<speed>3.0</speed>
<temp>0.00</temp>
<bpm>0</bpm>
<rpm>0.00</rpm>
</extensions>
</trkpt>
<trkpt lat="32.596889496" lon="35.006164551">
  <ele>69.594757</ele>
  <time>2012-06-23T06:17:20Z</time>
<extensions>
<speed>2.8</speed>
<temp>0.00</temp>
<bpm>0</bpm>
<rpm>0.00</rpm>
</extensions>
</trkpt>
<trkpt lat="32.596916199" lon="35.006156921">
  <ele>70.329132</ele>
  <time>2012-06-23T06:17:21Z</time>
<extensions>
<speed>2.9</speed>
<temp>0.00</temp>
<bpm>0</bpm>
<rpm>0.00</rpm>
</extensions>
</trkpt>
<trkpt lat="32.596969604" lon="35.006156921">
  <ele>70.946320</ele>
  <time>2012-06-23T06:17:23Z</time>
<extensions>
<speed>2.7</speed>
<temp>0.00</temp>
<bpm>0</bpm>
<rpm>0.00</rpm>
</extensions>
</trkpt>
<trkpt lat="32.597019196" lon="35.006153107">
  <ele>71.489288</ele>
  <time>2012-06-23T06:17:25Z</time>
<extensions>
<speed>2.7</speed>
<temp>0.00</temp>
<bpm>0</bpm>
<rpm>0.00</rpm>
</extensions>
</trkpt>
<trkpt lat="32.597061157" lon="35.006153107">
  <ele>71.338898</ele>
  <time>2012-06-23T06:17:27Z</time>
<extensions>
<speed>2.3</speed>
<temp>0.00</temp>
<bpm>0</bpm>
<rpm>0.00</rpm>
</extensions>
</trkpt>
<trkpt lat="32.597099304" lon="35.006149292">
  <ele>71.360382</ele>
  <time>2012-06-23T06:17:29Z</time>
<extensions>
<speed>2.2</speed>
<temp>0.00</temp>
<bpm>0</bpm>
<rpm>0.00</rpm>
</extensions>
</trkpt>
<trkpt lat="32.597137451" lon="35.006137848">
  <ele>71.936554</ele>
  <time>2012-06-23T06:17:31Z</time>
<extensions>
<speed>2.2</speed>
<temp>0.00</temp>
<bpm>0</bpm>
<rpm>0.00</rpm>
</extensions>
</trkpt>
<trkpt lat="32.597164154" lon="35.006099701">
  <ele>72.700226</ele>
  <time>2012-06-23T06:17:33Z</time>
<extensions>
<speed>2.0</speed>
<temp>0.00</temp>
<bpm>0</bpm>
<rpm>0.00</rpm>
</extensions>
</trkpt>
<trkpt lat="32.597171783" lon="35.006053925">
  <ele>72.840851</ele>
  <time>2012-06-23T06:17:35Z</time>
<extensions>
<speed>1.7</speed>
<temp>0.00</temp>
<bpm>0</bpm>
<rpm>0.00</rpm>
</extensions>
</trkpt>
<trkpt lat="32.597175598" lon="35.006015778">
  <ele>73.202179</ele>
  <time>2012-06-23T06:17:37Z</time>
<extensions>
<speed>1.7</speed>
<temp>0.00</temp>
<bpm>0</bpm>
<rpm>0.00</rpm>
</extensions>
</trkpt>
<trkpt lat="32.597183228" lon="35.005973816">
  <ele>73.547882</ele>
  <time>2012-06-23T06:17:39Z</time>
<extensions>
<speed>1.7</speed>
<temp>0.00</temp>
<bpm>0</bpm>
<rpm>0.00</rpm>
</extensions>
</trkpt>
<trkpt lat="32.597179413" lon="35.005931854">
  <ele>73.329132</ele>
  <time>2012-06-23T06:17:41Z</time>
<extensions>
<speed>1.7</speed>
<temp>0.00</temp>
<bpm>0</bpm>
<rpm>0.00</rpm>
</extensions>
</trkpt>
<trkpt lat="32.597179413" lon="35.005893707">
  <ele>73.555695</ele>
  <time>2012-06-23T06:17:43Z</time>
<extensions>
<speed>1.7</speed>
<temp>0.00</temp>
<bpm>0</bpm>
<rpm>0.00</rpm>
</extensions>
</trkpt>
<trkpt lat="32.597171783" lon="35.005859375">
  <ele>73.918976</ele>
  <time>2012-06-23T06:17:45Z</time>
<extensions>
<speed>1.4</speed>
<temp>0.00</temp>
<bpm>0</bpm>
<rpm>0.00</rpm>
</extensions>
</trkpt>
<trkpt lat="32.597164154" lon="35.005817413">
  <ele>74.667023</ele>
  <time>2012-06-23T06:17:47Z</time>
<extensions>
<speed>1.7</speed>
<temp>0.00</temp>
<bpm>0</bpm>
<rpm>0.00</rpm>
</extensions>
</trkpt>
<trkpt lat="32.597156525" lon="35.005771637">
  <ele>74.821320</ele>
  <time>2012-06-23T06:17:49Z</time>
<extensions>
<speed>1.7</speed>
<temp>0.00</temp>
<bpm>0</bpm>
<rpm>0.00</rpm>
</extensions>
</trkpt>
<trkpt lat="32.597152710" lon="35.005733490">
  <ele>75.668976</ele>
  <time>2012-06-23T06:17:51Z</time>
<extensions>
<speed>1.6</speed>
<temp>0.00</temp>
<bpm>0</bpm>
<rpm>0.00</rpm>
</extensions>
</trkpt>
<trkpt lat="32.597145081" lon="35.005706787">
  <ele>77.104523</ele>
  <time>2012-06-23T06:17:52Z</time>
<extensions>
<speed>1.8</speed>
<temp>0.00</temp>
<bpm>0</bpm>
<rpm>0.00</rpm>
</extensions>
</trkpt>
<trkpt lat="32.597133636" lon="35.005664825">
  <ele>77.922882</ele>
  <time>2012-06-23T06:17:54Z</time>
<extensions>
<speed>1.6</speed>
<temp>0.00</temp>
<bpm>0</bpm>
<rpm>0.00</rpm>
</extensions>
</trkpt>
<trkpt lat="32.597126007" lon="35.005622864">
  <ele>78.133820</ele>
  <time>2012-06-23T06:17:56Z</time>
<extensions>
<speed>1.6</speed>
<temp>0.00</temp>
<bpm>0</bpm>
<rpm>0.00</rpm>
</extensions>
</trkpt>
<trkpt lat="32.597118378" lon="35.005584717">
  <ele>78.655304</ele>
  <time>2012-06-23T06:17:58Z</time>
<extensions>
<speed>1.6</speed>
<temp>0.00</temp>
<bpm>0</bpm>
<rpm>0.00</rpm>
</extensions>
</trkpt>
<trkpt lat="32.597110748" lon="35.005546570">
  <ele>78.723663</ele>
  <time>2012-06-23T06:18:00Z</time>
<extensions>
<speed>1.5</speed>
<temp>0.00</temp>
<bpm>0</bpm>
<rpm>0.00</rpm>
</extensions>
</trkpt>
<trkpt lat="32.597110748" lon="35.005512238">
  <ele>79.053741</ele>
  <time>2012-06-23T06:18:02Z</time>
<extensions>
<speed>1.6</speed>
<temp>0.00</temp>
<bpm>0</bpm>
<rpm>0.00</rpm>
</extensions>
</trkpt>
<trkpt lat="32.597110748" lon="35.005474091">
  <ele>79.823273</ele>
  <time>2012-06-23T06:18:04Z</time>
<extensions>
<speed>1.6</speed>
<temp>0.00</temp>
<bpm>0</bpm>
<rpm>0.00</rpm>
</extensions>
</trkpt>
<trkpt lat="32.597099304" lon="35.005424500">
  <ele>80.579132</ele>
  <time>2012-06-23T06:18:07Z</time>
<extensions>
<speed>1.8</speed>
<temp>0.00</temp>
<bpm>0</bpm>
<rpm>0.00</rpm>
</extensions>
</trkpt>
<trkpt lat="32.597091675" lon="35.005390167">
  <ele>81.137726</ele>
  <time>2012-06-23T06:18:09Z</time>
<extensions>
<speed>1.5</speed>
<temp>0.00</temp>
<bpm>0</bpm>
<rpm>0.00</rpm>
</extensions>
</trkpt>
<trkpt lat="32.597095490" lon="35.005348206">
  <ele>82.608429</ele>
  <time>2012-06-23T06:18:12Z</time>
<extensions>
<speed>1.5</speed>
<temp>0.00</temp>
<bpm>0</bpm>
<rpm>0.00</rpm>
</extensions>
</trkpt>
<trkpt lat="32.597095490" lon="35.005306244">
  <ele>82.795929</ele>
  <time>2012-06-23T06:18:15Z</time>
<extensions>
<speed>1.4</speed>
<temp>0.00</temp>
<bpm>0</bpm>
<rpm>0.00</rpm>
</extensions>
</trkpt>
<trkpt lat="32.597095490" lon="35.005260468">
  <ele>83.385773</ele>
  <time>2012-06-23T06:18:17Z</time>
<extensions>
<speed>1.6</speed>
<temp>0.00</temp>
<bpm>0</bpm>
<rpm>0.00</rpm>
</extensions>
</trkpt>
<trkpt lat="32.597087860" lon="35.005222321">
  <ele>83.776398</ele>
  <time>2012-06-23T06:18:19Z</time>
<extensions>
<speed>1.6</speed>
<temp>0.00</temp>
<bpm>0</bpm>
<rpm>0.00</rpm>
</extensions>
</trkpt>
<trkpt lat="32.597084045" lon="35.005191803">
  <ele>83.633820</ele>
  <time>2012-06-23T06:18:21Z</time>
<extensions>
<speed>1.6</speed>
<temp>0.00</temp>
<bpm>0</bpm>
<rpm>0.00</rpm>
</extensions>
</trkpt>
<trkpt lat="32.597068787" lon="35.005149841">
  <ele>82.756866</ele>
  <time>2012-06-23T06:18:24Z</time>
<extensions>
<speed>1.7</speed>
<temp>0.00</temp>
<bpm>0</bpm>
<rpm>0.00</rpm>
</extensions>
</trkpt>
<trkpt lat="32.597064972" lon="35.005115509">
  <ele>83.522491</ele>
  <time>2012-06-23T06:18:26Z</time>
<extensions>
<speed>1.6</speed>
<temp>0.00</temp>
<bpm>0</bpm>
<rpm>0.00</rpm>
</extensions>
</trkpt>
<trkpt lat="32.597064972" lon="35.005077362">
  <ele>83.909210</ele>
  <time>2012-06-23T06:18:28Z</time>
<extensions>
<speed>1.7</speed>
<temp>0.00</temp>
<bpm>0</bpm>
<rpm>0.00</rpm>
</extensions>
</trkpt>
<trkpt lat="32.597064972" lon="35.005039215">
  <ele>84.545929</ele>
  <time>2012-06-23T06:18:30Z</time>
<extensions>
<speed>1.7</speed>
<temp>0.00</temp>
<bpm>0</bpm>
<rpm>0.00</rpm>
</extensions>
</trkpt>
<trkpt lat="32.597061157" lon="35.004997253">
  <ele>85.256866</ele>
  <time>2012-06-23T06:18:32Z</time>
<extensions>
<speed>1.6</speed>
<temp>0.00</temp>
<bpm>0</bpm>
<rpm>0.00</rpm>
</extensions>
</trkpt>
<trkpt lat="32.597061157" lon="35.004962921">
  <ele>85.139679</ele>
  <time>2012-06-23T06:18:34Z</time>
<extensions>
<speed>1.6</speed>
<temp>0.00</temp>
<bpm>0</bpm>
<rpm>0.00</rpm>
</extensions>
</trkpt>
<trkpt lat="32.597072601" lon="35.004932404">
  <ele>85.290070</ele>
  <time>2012-06-23T06:18:36Z</time>
<extensions>
<speed>1.7</speed>
<temp>0.00</temp>
<bpm>0</bpm>
<rpm>0.00</rpm>
</extensions>
</trkpt>
<trkpt lat="32.597064972" lon="35.004894257">
  <ele>85.647491</ele>
  <time>2012-06-23T06:18:39Z</time>
<extensions>
<speed>1.3</speed>
<temp>0.00</temp>
<bpm>0</bpm>
<rpm>0.00</rpm>
</extensions>
</trkpt>
<trkpt lat="32.597064972" lon="35.004856110">
  <ele>86.323273</ele>
  <time>2012-06-23T06:18:42Z</time>
<extensions>
<speed>1.5</speed>
<temp>0.00</temp>
<bpm>0</bpm>
<rpm>0.00</rpm>
</extensions>
</trkpt>
<trkpt lat="32.597076416" lon="35.004814148">
  <ele>86.983429</ele>
  <time>2012-06-23T06:18:45Z</time>
<extensions>
<speed>1.6</speed>
<temp>0.00</temp>
<bpm>0</bpm>
<rpm>0.00</rpm>
</extensions>
</trkpt>
<trkpt lat="32.597080231" lon="35.004772186">
  <ele>87.198273</ele>
  <time>2012-06-23T06:18:48Z</time>
<extensions>
<speed>1.6</speed>
<temp>0.00</temp>
<bpm>0</bpm>
<rpm>0.00</rpm>
</extensions>
</trkpt>
<trkpt lat="32.597076416" lon="35.004737854">
  <ele>87.088898</ele>
  <time>2012-06-23T06:18:51Z</time>
<extensions>
<speed>1.4</speed>
<temp>0.00</temp>
<bpm>0</bpm>
<rpm>0.00</rpm>
</extensions>
</trkpt>
<trkpt lat="32.597080231" lon="35.004692078">
  <ele>87.151398</ele>
  <time>2012-06-23T06:18:54Z</time>
<extensions>
<speed>1.3</speed>
<temp>0.00</temp>
<bpm>0</bpm>
<rpm>0.00</rpm>
</extensions>
</trkpt>
<trkpt lat="32.597103119" lon="35.004673004">
  <ele>87.235382</ele>
  <time>2012-06-23T06:18:56Z</time>
<extensions>
<speed>1.4</speed>
<temp>0.00</temp>
<bpm>0</bpm>
<rpm>0.00</rpm>
</extensions>
</trkpt>
<trkpt lat="32.597110748" lon="35.004631042">
  <ele>86.901398</ele>
  <time>2012-06-23T06:18:59Z</time>
<extensions>
<speed>1.2</speed>
<temp>0.00</temp>
<bpm>0</bpm>
<rpm>0.00</rpm>
</extensions>
</trkpt>
<trkpt lat="32.597122192" lon="35.004589081">
  <ele>87.418976</ele>
  <time>2012-06-23T06:19:02Z</time>
<extensions>
<speed>1.3</speed>
<temp>0.00</temp>
<bpm>0</bpm>
<rpm>0.00</rpm>
</extensions>
</trkpt>
<trkpt lat="32.597126007" lon="35.004554749">
  <ele>87.717804</ele>
  <time>2012-06-23T06:19:04Z</time>
<extensions>
<speed>1.0</speed>
<temp>0.00</temp>
<bpm>0</bpm>
<rpm>0.00</rpm>
</extensions>
</trkpt>
<trkpt lat="32.597122192" lon="35.004516602">
  <ele>89.700226</ele>
  <time>2012-06-23T06:19:07Z</time>
<extensions>
<speed>1.3</speed>
<temp>0.00</temp>
<bpm>0</bpm>
<rpm>0.00</rpm>
</extensions>
</trkpt>
<trkpt lat="32.597114563" lon="35.004482269">
  <ele>90.247101</ele>
  <time>2012-06-23T06:19:10Z</time>
<extensions>
<speed>1.2</speed>
<temp>0.00</temp>
<bpm>0</bpm>
<rpm>0.00</rpm>
</extensions>
</trkpt>
<trkpt lat="32.597110748" lon="35.004447937">
  <ele>90.727570</ele>
  <time>2012-06-23T06:19:13Z</time>
<extensions>
<speed>1.2</speed>
<temp>0.00</temp>
<bpm>0</bpm>
<rpm>0.00</rpm>
</extensions>
</trkpt>
<trkpt lat="32.597110748" lon="35.004402161">
  <ele>91.159210</ele>
  <time>2012-06-23T06:19:16Z</time>
<extensions>
<speed>1.4</speed>
<temp>0.00</temp>
<bpm>0</bpm>
<rpm>0.00</rpm>
</extensions>
</trkpt>
<trkpt lat="32.597110748" lon="35.004356384">
  <ele>91.709991</ele>
  <time>2012-06-23T06:19:19Z</time>
<extensions>
<speed>1.5</speed>
<temp>0.00</temp>
<bpm>0</bpm>
<rpm>0.00</rpm>
</extensions>
</trkpt>
<trkpt lat="32.597126007" lon="35.004314423">
  <ele>92.352570</ele>
  <time>2012-06-23T06:19:21Z</time>
<extensions>
<speed>1.8</speed>
<temp>0.00</temp>
<bpm>0</bpm>
<rpm>0.00</rpm>
</extensions>
</trkpt>
<trkpt lat="32.597152710" lon="35.004295349">
  <ele>92.657257</ele>
  <time>2012-06-23T06:19:23Z</time>
<extensions>
<speed>1.5</speed>
<temp>0.00</temp>
<bpm>0</bpm>
<rpm>0.00</rpm>
</extensions>
</trkpt>
<trkpt lat="32.597187042" lon="35.004283905">
  <ele>92.786163</ele>
  <time>2012-06-23T06:19:26Z</time>
<extensions>
<speed>1.9</speed>
<temp>0.00</temp>
<bpm>0</bpm>
<rpm>0.00</rpm>
</extensions>
</trkpt>
<trkpt lat="32.597217560" lon="35.004241943">
  <ele>92.797882</ele>
  <time>2012-06-23T06:19:28Z</time>
<extensions>
<speed>2.4</speed>
<temp>0.00</temp>
<bpm>0</bpm>
<rpm>0.00</rpm>
</extensions>
</trkpt>
<trkpt lat="32.597248077" lon="35.004230499">
  <ele>92.186554</ele>
  <time>2012-06-23T06:19:30Z</time>
<extensions>
<speed>2.0</speed>
<temp>0.00</temp>
<bpm>0</bpm>
<rpm>0.00</rpm>
</extensions>
</trkpt>
<trkpt lat="32.597278595" lon="35.004257202">
  <ele>90.924835</ele>
  <time>2012-06-23T06:19:32Z</time>
<extensions>
<speed>2.7</speed>
<temp>0.00</temp>
<bpm>0</bpm>
<rpm>0.00</rpm>
</extensions>
</trkpt>
<trkpt lat="32.597297668" lon="35.004283905">
  <ele>90.698273</ele>
  <time>2012-06-23T06:19:33Z</time>
<extensions>
<speed>3.2</speed>
<temp>0.00</temp>
<bpm>0</bpm>
<rpm>0.00</rpm>
</extensions>
</trkpt>
<trkpt lat="32.597316742" lon="35.004310608">
  <ele>90.633820</ele>
  <time>2012-06-23T06:19:34Z</time>
<extensions>
<speed>3.1</speed>
<temp>0.00</temp>
<bpm>0</bpm>
<rpm>0.00</rpm>
</extensions>
</trkpt>
<trkpt lat="32.597362518" lon="35.004333496">
  <ele>90.772491</ele>
  <time>2012-06-23T06:19:36Z</time>
<extensions>
<speed>1.9</speed>
<temp>0.00</temp>
<bpm>0</bpm>
<rpm>0.00</rpm>
</extensions>
</trkpt>
<trkpt lat="32.597400665" lon="35.004344940">
  <ele>91.276398</ele>
  <time>2012-06-23T06:19:38Z</time>
<extensions>
<speed>0.9</speed>
<temp>0.00</temp>
<bpm>0</bpm>
<rpm>0.00</rpm>
</extensions>
</trkpt>
<trkpt lat="32.597404480" lon="35.004352570">
  <ele>91.241241</ele>
  <time>2012-06-23T06:19:49Z</time>
<extensions>
<speed>0.0</speed>
<temp>0.00</temp>
<bpm>0</bpm>
<rpm>0.00</rpm>
</extensions>
</trkpt>
</trkseg>
</trk>
</gpx>
